/BCO-DMO/InVirT/ctd ---- Level 0

      Directory  DocumentationDownload and Other Operations...

 - At level 0 -  - At last level -       Flat list

#  CTD
#  PI: Steve Wilhelm 
#  Data Version 1: 2021-08-23
=========================
Cast_ID      ISO_DateTime_UTC        CStarAt0     CStarTr0  Conductivity_0  Conductivity_1  Density_1  Density_2  Depth       Descent_Rate          Fluoresence_1  Fluoresence_2  Latitude  Longitude  Oxygen_Raw_1  Oxygen_Raw_2  Oxygen_1  Oxygen_2  Pressure  Salinity_1  Salinity_2  Temperature_ITS_1  Temperature_IPTS_1  Temperature_ITS_2  Temperature_IPTS_2  
-------------------------
InVirTC2     2019-10-12T23:03:26Z    0.0413       98.9726   5.688284        5.687834        1024.1269  1024.1238  2.317       -0.265                0.0413         0.0576         31.69534  -64.14365  2.5858        2.995         6.2954    6.3295    2.333     36.6362     36.6323     26.4798            26.4861             26.4804            26.4868             
InVirTC2     2019-10-12T23:03:26Z    0.0403       98.9983   5.688557        5.688122        1024.1293  1024.1263  3.054       -0.219                0.0504         0.0514         31.69538  -64.14369  2.5851        2.9974        6.292     6.3361    3.076     36.6361     36.6323     26.482             26.4884             26.4828            26.4892             
InVirTC2     2019-10-12T23:03:26Z    0.0391       99.0276   5.688507        5.688138        1024.1349  1024.1312  4.254       -0.634                0.0452         0.0558         31.69547  -64.14406  2.5852        2.9958        6.2955    6.3343    4.284     36.6361     36.632      26.4811            26.4874             26.4828            26.4892             
InVirTC2     2019-10-12T23:03:26Z    0.0373       99.0717   5.688538        5.688111        1024.1376  1024.1338  5.051       -0.425                0.0422         0.0632         31.69552  -64.14443  2.5844        2.9981        6.2911    6.3407    5.086     36.6355     36.6311     26.4818            26.4882             26.4834            26.4897             
InVirTC2     2019-10-12T23:03:26Z    0.0373       99.0733   5.68866         5.68824         1024.1419  1024.1383  6.014       -0.774                0.04           0.0838         31.6955   -64.14446  2.5849        2.9954        6.2925    6.335     6.056     36.6359     36.6317     26.4821            26.4884             26.4835            26.4898             
InVirTC2     2019-10-12T23:03:26Z    0.0385       99.0428   5.688853        5.688455        1024.1459  1024.1422  7.072       -0.182                0.0439         0.0513         31.6955   -64.14447  2.5856        2.9942        6.2989    6.3309    7.121     36.6357     36.6315     26.4836            26.49               26.4853            26.4917             
InVirTC2     2019-10-12T23:03:26Z    0.0373       99.0726   5.68875         5.688269        1024.1505  1024.147   7.992       -0.86                 0.0455         0.0545         31.6955   -64.14451  2.5837        2.9959        6.2888    6.3402    8.048     36.6359     36.6316     26.4821            26.4884             26.483             26.4893             
InVirTC2     2019-10-12T23:03:26Z    0.0365       99.0926   5.688987        5.688444        1024.1557  1024.1523  9.002       -0.569                0.0424         0.0609         31.6955   -64.14451  2.5838        2.992         6.2971    6.3211    9.065     36.637      36.6327     26.4824            26.4887             26.4828            26.4892             
InVirTC2     2019-10-12T23:03:26Z    0.0372       99.0746   5.689166        5.688731        1024.1597  1024.1556  9.97        -0.241                0.0427         0.0595         31.6955   -64.1445   2.5854        2.9963        6.3005    6.3385    10.04     36.6373     36.6326     26.4833            26.4896             26.4852            26.4916             
InVirTC2     2019-10-12T23:03:26Z    0.0372       99.0735   5.689286        5.688847        1024.1682  1024.1633  10.954      -0.68                 0.0491         0.0547         31.6955   -64.14453  2.5822        2.9946        6.2935    6.3338    11.031    36.6412     36.6358     26.4791            26.4855             26.4818            26.4882             
InVirTC2     2019-10-12T23:03:26Z    0.0373       99.0734   5.689714        5.689239        1024.1712  1024.1708  12.031      -0.507                0.0434         0.0541         31.6955   -64.14453  2.5796        2.9967        6.2765    6.344     12.116    36.6407     36.6391     26.4832            26.4896             26.4808            26.4872             
InVirTC2     2019-10-12T23:03:26Z    0.0364       99.0935   5.689853        5.689547        1024.1754  1024.1761  12.986      -0.49                 0.0451         0.0666         31.6955   -64.14454  2.5847        2.994         6.3004    6.3346    13.077    36.641      36.6408     26.4837            26.4901             26.4812            26.4875             
InVirTC2     2019-10-12T23:03:26Z    0.0367       99.0864   5.690388        5.69001         1024.1865  1024.185   13.973      -0.54                 0.0461         0.056          31.69549  -64.14454  2.584         2.9943        6.2984    6.3347    14.071    36.6481     36.6458     26.4792            26.4856             26.4786            26.485              
InVirTC2     2019-10-12T23:03:26Z    0.0368       99.0846   5.690836        5.690237        1024.194   1024.1894  15.019      -0.515                0.0454         0.0581         31.69549  -64.14456  2.5835        2.9964        6.2975    6.3447    15.124    36.6517     36.6463     26.4783            26.4847             26.4797            26.4861             
InVirTC2     2019-10-12T23:03:26Z    0.0362       99.0984   5.690943        5.690318        1024.1986  1024.1917  16.041      -0.396                0.0434         0.058          31.69549  -64.14456  2.5835        2.9961        6.3007    6.3427    16.154    36.652      36.6445     26.4785            26.4849             26.4823            26.4887             
InVirTC2     2019-10-12T23:03:26Z    0.0371       99.0756   5.691019        5.690588        1024.2065  1024.2024  16.891      -0.83                 0.045          0.0646         31.6955   -64.14457  2.5811        2.9954        6.2947    6.3432    17.01     36.6558     36.6512     26.4742            26.4805             26.476             26.4824             
InVirTC2     2019-10-12T23:03:26Z    0.037        99.0787   5.691125        5.690796        1024.2145  1024.2137  17.964      -0.862                0.0455         0.0667         31.69548  -64.1446   2.5805        2.994         6.2932    6.3462    18.091    36.6588     36.6573     26.4709            26.4772             26.4697            26.4761             
InVirTC2     2019-10-12T23:03:26Z    0.0384       99.0453   5.691684        5.690891        1024.2231  1024.2178  19.036      -0.491                0.0467         0.0563         31.69548  -64.14458  2.5773        2.9921        6.2816    6.3409    19.169    36.6636     36.657      26.4696            26.476              26.4706            26.477              
InVirTC2     2019-10-12T23:03:26Z    0.0379       99.0579   5.689763        5.67854         1024.2181  1024.197   19.481      0.0000000000000349    0.0473         0.0609         31.69348  -64.15082  2.072         2.2137        4.7597    4.3397    19.618    36.6527     36.6062     26.4655            26.4719             26.4214            26.4277             
InVirTC2     2019-10-12T23:03:26Z    0.0391       99.0288   5.690838        5.689311        1024.2251  1024.2192  19.72       0.295                 0.047          0.0604         31.69351  -64.15037  2.5261        2.9248        6.1415    6.1886    19.859    36.6605     36.6516     26.4654            26.4718             26.4627            26.469              
InVirTC2     2019-10-12T23:03:26Z    0.0383       99.0477   5.692191        5.691811        1024.2288  1024.2246  20.073      -0.323                0.0449         0.0604         31.69548  -64.1446   2.5805        2.9855        6.2906    6.3155    20.214    36.6658     36.6612     26.4709            26.4773             26.4733            26.4797             
InVirTC2     2019-10-12T23:03:26Z    0.0417       98.9628   5.691355        5.690954        1024.2338  1024.2309  20.783      0.232                 0.0478         0.0596         31.69356  -64.14942  2.5827        2.9861        6.2994    6.322     20.93     36.6653     36.6618     26.4637            26.4701             26.4644            26.4708             
InVirTC2     2019-10-12T23:03:26Z    0.0372       99.0741   5.692534        5.691802        1024.2384  1024.2369  20.922      -0.842                0.0455         0.0567         31.69548  -64.1446   2.5814        2.9915        6.296     6.345     21.069    36.6717     36.6686     26.4664            26.4727             26.4636            26.4699             
InVirTC2     2019-10-12T23:03:26Z    0.042        98.9549   5.69152         5.691108        1024.2403  1024.2376  21.997      0.672                 0.0446         0.0631         31.69356  -64.1494   2.5784        2.9887        6.2829    6.3261    22.151    36.6667     36.6633     26.463             26.4693             26.4635            26.4699             
InVirTC2     2019-10-12T23:03:26Z    0.0374       99.0695   5.692674        5.691502        1024.2452  1024.2449  22          -0.656                0.0477         0.0652         31.69548  -64.14462  2.581         2.9878        6.2998    6.3283    22.155    36.6738     36.6706     26.4645            26.4709             26.4579            26.4642             
InVirTC2     2019-10-12T23:03:26Z    0.0421       98.9528   5.691256        5.690866        1024.2447  1024.2421  23.017      0.981                 0.0487         0.0662         31.69356  -64.1494   2.5795        2.9917        6.2922    6.3456    23.179    36.6658     36.6626     26.4612            26.4676             26.4617            26.468              
InVirTC2     2019-10-12T23:03:26Z    0.0371       99.0777   5.693054        5.692221        1024.2502  1024.2474  23.098      -0.427                0.0403         0.0662         31.69548  -64.14463  2.5792        2.985         6.2967    6.3149    23.261    36.6749     36.6703     26.4662            26.4726             26.4643            26.4707             
InVirTC2     2019-10-12T23:03:26Z    0.0372       99.0735   5.692838        5.692041        1024.2537  1024.2508  23.958      -0.58                 0.0451         0.0622         31.69548  -64.14463  2.5748        2.9901        6.2712    6.3334    24.127    36.6741     36.6695     26.4649            26.4713             26.4634            26.4697             
InVirTC2     2019-10-12T23:03:26Z    0.0415       98.9672   5.69146         5.691062        1024.2492  1024.2466  24.037      0.929                 0.0516         0.0609         31.69356  -64.1494   2.5816        2.9892        6.3034    6.33      24.206    36.6664     36.6631     26.462             26.4683             26.4624            26.4688             
InVirTC2     2019-10-12T23:03:26Z    0.0419       98.9589   5.691953        5.691402        1024.2538  1024.2509  25.029      0.426                 0.0462         0.0559         31.69356  -64.1494   2.5826        2.9885        6.3038    6.3298    25.206    36.6677     36.6639     26.4644            26.4707             26.4642            26.4705             
InVirTC2     2019-10-12T23:03:26Z    0.0375       99.0679   5.692763        5.691947        1024.2588  1024.2561  25.046      -0.498                0.0422         0.0682         31.69548  -64.14465  2.5807        2.9911        6.3002    6.3391    25.223    36.674      36.6697     26.4638            26.4702             26.4619            26.4682             
InVirTC2     2019-10-12T23:03:26Z    0.0417       98.9643   5.692442        5.692009        1024.2579  1024.2551  25.967      0.407                 0.0449         0.0563         31.69356  -64.14936  2.5834        2.9862        6.3081    6.3241    26.15     36.669      36.6654     26.4669            26.4733             26.4674            26.4738             
InVirTC2     2019-10-12T23:03:26Z    0.0372       99.0747   5.693055        5.6923          1024.2623  1024.2589  26          -0.523                0.048          0.0682         31.69548  -64.14466  2.5781        2.9898        6.2927    6.3327    26.184    36.6742     36.6693     26.4659            26.4723             26.4652            26.4716             
InVirTC2     2019-10-12T23:03:26Z    0.0421       98.9531   5.692956        5.692657        1024.263   1024.2604  26.972      0.605                 0.0469         0.0582         31.69356  -64.14936  2.5847        2.9839        6.3126    6.3161    27.162    36.6708     36.6677     26.4689            26.4753             26.47              26.4764             
InVirTC2     2019-10-12T23:03:26Z    0.0368       99.0858   5.692868        5.692392        1024.2665  1024.2629  27.081      -0.353                0.0483         0.0581         31.69548  -64.14466  2.5761        2.9914        6.2817    6.3396    27.272    36.6731     36.6689     26.4651            26.4715             26.4661            26.4725             
InVirTC2     2019-10-12T23:03:26Z    0.037        99.0792   5.692181        5.691755        1024.2721  1024.2679  27.919      -0.768                0.0525         0.0645         31.69548  -64.14467  2.5797        2.9911        6.297     6.3442    28.116    36.6731     36.6683     26.4586            26.465              26.4606            26.467              
InVirTC2     2019-10-12T23:03:26Z    0.0421       98.953    5.692695        5.692342        1024.2682  1024.2656  28.025      0.727                 0.0498         0.0664         31.69356  -64.14934  2.582         2.9893        6.3005    6.3412    28.223    36.6706     36.6674     26.4663            26.4727             26.4671            26.4735             
InVirTC2     2019-10-12T23:03:26Z    0.0425       98.9427   5.692707        5.692312        1024.272   1024.2692  28.918      0.34                  0.051          0.0663         31.69356  -64.14935  2.5783        2.9882        6.2905    6.3323    29.122    36.6704     36.6671     26.4663            26.4727             26.4669            26.4733             
InVirTC2     2019-10-12T23:03:26Z    0.0371       99.0763   5.691796        5.690971        1024.2763  1024.2753  29.012      -0.939                0.0584         0.0679         31.69548  -64.14468  2.5816        2.9889        6.315     6.337     29.217    36.6715     36.6686     26.4566            26.4629             26.4527            26.4591             
InVirTC2     2019-10-12T23:03:26Z    0.0426       98.9413   5.69264         5.692205        1024.2766  1024.2739  29.99       0.552                 0.0475         0.0535         31.69356  -64.14932  2.5802        2.9848        6.2988    6.3217    30.202    36.6702     36.6667     26.4656            26.472              26.466             26.4723             
InVirTC2     2019-10-12T23:03:26Z    0.0372       99.0756   5.691866        5.690778        1024.2831  1024.2807  30.018      -0.707                0.0545         0.0752         31.69547  -64.14469  2.577         2.9857        6.2968    6.327     30.23     36.6737     36.6689     26.4541            26.4605             26.4502            26.4566             
InVirTC2     2019-10-12T23:03:26Z    0.0416       98.9646   5.69268         5.69231         1024.281   1024.2784  31.003      0.906                 0.0439         0.0538         31.69356  -64.14933  2.5806        2.9862        6.3077    6.3301    31.222    36.6701     36.6669     26.4656            26.472              26.4662            26.4726             
InVirTC2     2019-10-12T23:03:26Z    0.0381       99.0528   5.692488        5.692068        1024.2852  1024.2798  31.08       -0.272                0.0461         0.0576         31.69546  -64.14469  2.5724        2.9871        6.2726    6.3302    31.3      36.6731     36.6673     26.4601            26.4665             26.4635            26.4699             
InVirTC2     2019-10-12T23:03:26Z    0.0366       99.0898   5.692262        5.691583        1024.2887  1024.2869  31.777      -0.568                0.0482         0.0657         31.69546  -64.14471  2.5782        2.988         6.2999    6.3364    32.002    36.6728     36.6695     26.4582            26.4645             26.4561            26.4624             
InVirTC2     2019-10-12T23:03:26Z    0.0418       98.9598   5.692406        5.692048        1024.2856  1024.283   32.051      0.868                 0.0464         0.0658         31.69356  -64.14931  2.5808        2.9864        6.3021    6.3322    32.278    36.6694     36.6663     26.4636            26.47               26.4642            26.4706             
InVirTC2     2019-10-12T23:03:26Z    0.042        98.956    5.6923          5.691864        1024.2897  1024.287   32.975      0.449                 0.0506         0.0583         31.69356  -64.14932  2.5828        2.9844        6.3123    6.3245    33.208    36.6691     36.6657     26.4626            26.4689             26.4629            26.4692             
InVirTC2     2019-10-12T23:03:26Z    0.0372       99.0755   5.691468        5.690447        1024.296   1024.2972  33.026      -0.881                0.049          0.0653         31.69546  -64.14473  2.5744        2.9889        6.2883    6.3363    33.259    36.6723     36.6708     26.451             26.4574             26.4436            26.4499             
InVirTC2     2019-10-12T23:03:26Z    0.0416       98.9646   5.692265        5.691877        1024.294   1024.2914  33.908      0.262                 0.0468         0.0582         31.69356  -64.1493   2.58          2.9837        6.2999    6.3264    34.148    36.6692     36.6659     26.4618            26.4681             26.4624            26.4687             
InVirTC2     2019-10-12T23:03:26Z    0.0366       99.0899   5.691224        5.689979        1024.3007  1024.3031  34.005      -0.88                 0.0492         0.0643         31.69546  -64.14472  2.5726        2.9881        6.2802    6.3416    34.245    36.672      36.6709     26.4488            26.4551             26.4387            26.4451             
InVirTC2     2019-10-12T23:03:26Z    0.0421       98.9538   5.692523        5.692169        1024.2992  1024.2966  34.919      0.496                 0.0498         0.0609         31.69356  -64.14926  2.5768        2.9893        6.2895    6.3476    35.166    36.6704     36.6673     26.4622            26.4685             26.4629            26.4692             
InVirTC2     2019-10-12T23:03:26Z    0.037        99.08     5.690795        5.689699        1024.3121  1024.3096  34.98       -0.73                 0.0521         0.0682         31.69546  -64.14472  2.5719        2.9898        6.2686    6.3397    35.228    36.677      36.6721     26.4381            26.4445             26.4343            26.4406             
InVirTC2     2019-10-12T23:03:26Z    0.0412       98.9759   5.69308         5.692693        1024.3044  1024.3019  35.949      0.96                  0.051          0.0609         31.69356  -64.14926  2.5778        2.9889        6.2982    6.3421    36.203    36.6724     36.6692     26.4644            26.4707             26.4649            26.4712             
InVirTC2     2019-10-12T23:03:26Z    0.0359       99.1086   5.692701        5.692178        1024.3104  1024.3048  36.054      -0.288                0.0503         0.0682         31.69546  -64.14474  2.5777        2.9903        6.2923    6.337     36.31     36.6762     36.67       26.4561            26.4625             26.4591            26.4654             
InVirTC2     2019-10-12T23:03:26Z    0.036        99.1044   5.691203        5.690539        1024.315   1024.3107  36.821      -0.382                0.0494         0.0706         31.69546  -64.14475  2.584         3.0005        6.3111    6.3677    37.082    36.6735     36.6681     26.4455            26.4519             26.4463            26.4526             
InVirTC2     2019-10-12T23:03:26Z    0.0422       98.9512   5.693871        5.693488        1024.3103  1024.3077  37.027      1.078                 0.0509         0.0677         31.69356  -64.14928  2.5774        2.985         6.2951    6.3234    37.289    36.6753     36.6721     26.4676            26.4739             26.468             26.4744             
InVirTC2     2019-10-12T23:03:26Z    0.037        99.0799   5.68238         5.680878        1024.3423  1024.3381  37.964      -1.026                0.0489         0.0795         31.69546  -64.14476  2.5948        3.0099        6.3571    6.4209    38.233    36.6706     36.6631     26.3682            26.3745             26.3638            26.3701             
InVirTC2     2019-10-12T23:03:26Z    0.0422       98.9515   5.694013        5.693656        1024.3155  1024.3126  38.055      0.479                 0.0541         0.0657         31.69356  -64.14926  2.577         2.9824        6.295     6.3213    38.324    36.6762     36.6728     26.4673            26.4736             26.4683            26.4747             
InVirTC2     2019-10-12T23:03:26Z    0.0454       98.8718   5.694473        5.69416         1024.32    1024.3176  38.943      0.358                 0.0583         0.0649         31.69356  -64.14922  2.5767        2.9789        6.2964    6.3145    39.219    36.6778     36.675      26.4691            26.4754             26.4698            26.4762             
InVirTC2     2019-10-12T23:03:26Z    0.0362       99.0986   5.681005        5.674067        1024.3407  1024.3661  38.987      -0.953                0.0525         0.0918         31.69546  -64.14476  2.5985        3.0035        6.3752    6.3922    39.264    36.6618     36.6664     26.3662            26.3726             26.297             26.3033             
InVirTC2     2019-10-12T23:03:26Z    0.0364       99.0939   5.675268        5.666424        1024.3631  1024.3981  40.006      -0.881                0.0552         0.0938         31.69546  -64.14477  2.5975        2.9989        6.3683    6.3464    40.289    36.6629     36.6711     26.312             26.3183             26.2209            26.2272             
InVirTC2     2019-10-12T23:03:26Z    0.0412       98.9762   5.694947        5.694563        1024.327   1024.3244  40.16       0.442                 0.0474         0.0658         31.69356  -64.14922  2.5769        2.9838        6.2976    6.332     40.444    36.6804     36.6772     26.4696            26.476              26.4702            26.4765             
InVirTC2     2019-10-12T23:03:26Z    0.0416       98.965    5.695085        5.694712        1024.3303  1024.3278  40.89       0.259                 0.0474         0.0686         31.69356  -64.14922  2.5752        2.9774        6.287     6.3065    41.18     36.6808     36.6777     26.4701            26.4765             26.4707            26.477              
InVirTC2     2019-10-12T23:03:26Z    0.0372       99.0752   5.669964        5.665262        1024.395   1024.4202  41.002      -0.627                0.0535         0.0788         31.69546  -64.14477  2.597         3.0147        6.3581    6.407     41.293    36.6734     36.6835     26.25              26.2563             26.1943            26.2006             
InVirTC2     2019-10-12T23:03:26Z    0.0409       98.9835   5.695331        5.694946        1024.3368  1024.3343  41.999      0.771                 0.0487         0.0762         31.69356  -64.14918  2.5777        2.9792        6.3046    6.3182    42.297    36.6828     36.6796     26.4694            26.4758             26.4699            26.4763             
InVirTC2     2019-10-12T23:03:26Z    0.037        99.0791   5.668808        5.658983        1024.4056  1024.4187  42.053      -0.328                0.0563         0.0855         31.69546  -64.1448   2.6543        3.0838        6.5098    6.5906    42.351    36.6757     36.6625     26.2361            26.2424             26.1627            26.169              
InVirTC2     2019-10-12T23:03:26Z    0.0371       99.0774   5.61497         5.570299        1024.4757  1024.6704  42.985      -1.263                0.0579         0.096          31.69546  -64.14479  2.7246        3.1261        6.8061    6.8019    43.29     36.5982     36.6569     25.8397            25.8459             25.3568            25.3629             
InVirTC2     2019-10-12T23:03:26Z    0.041        98.9798   5.695021        5.694618        1024.3433  1024.3407  43.015      1.077                 0.0498         0.0858         31.69356  -64.1492   2.5777        2.9748        6.3048    6.3097    43.32     36.6837     36.6805     26.465             26.4713             26.4654            26.4718             
InVirTC2     2019-10-12T23:03:26Z    0.0373       99.0709   5.57261         5.525526        1024.5818  1024.8538  44.036      -1.093                0.0597         0.1052         31.69546  -64.1448   2.7048        3.1175        6.7071    6.758     44.349    36.581      36.7029     25.4719            25.478              24.8883            24.8943             
InVirTC2     2019-10-12T23:03:26Z    0.0436       98.9161   5.694657        5.694289        1024.3483  1024.3459  44.06       1.051                 0.0471         0.0715         31.69356  -64.1492   2.5753        2.9745        6.2931    6.3016    44.373    36.6832     36.6801     26.462             26.4683             26.4625            26.4688             
InVirTC2     2019-10-12T23:03:26Z    0.0388       99.0345   5.500334        5.5213          1024.9177  1024.9679  45.03       -0.77                 0.0638         0.1147         31.69546  -64.14481  2.7199        3.1287        6.8945    6.7903    45.349    36.6933     36.7894     24.6683            24.6743             24.7431            24.749              
InVirTC2     2019-10-12T23:03:26Z    0.0411       98.9775   5.694966        5.694567        1024.3536  1024.3507  45.049      0.227                 0.0534         0.0767         31.69356  -64.14918  2.5775        2.9869        6.3038    6.348     45.369    36.6847     36.6812     26.4625            26.4688             26.4633            26.4696             
InVirTC2     2019-10-12T23:03:26Z    0.0417       98.9631   5.695656        5.695251        1024.3678  1024.366   45.967      0.487                 0.0546         0.0755         31.69356  -64.14915  2.5772        2.9857        6.3009    6.3316    46.293    36.6952     36.6926     26.4552            26.4616             26.4548            26.4612             
InVirTC2     2019-10-12T23:03:26Z    0.0418       98.9622   5.537855        5.567452        1024.9227  1024.8022  46.081      -0.374                0.0632         0.1205         31.69544  -64.14482  2.7602        3.1862        7.0549    7.0016    46.408    36.7868     36.7538     24.8981            24.9041             25.2099            25.216              
InVirTC2     2019-10-12T23:03:26Z    0.0433       98.924    5.469621        5.483151        1025.0546  1025.0045  46.93       -0.365                0.0658         0.1205         31.69544  -64.14483  2.7445        3.183         7.0568    7.0756    47.263    36.7314     36.7208     24.3376            24.3435             24.475             24.4809             
InVirTC2     2019-10-12T23:03:26Z    0.0419       98.9588   5.689073        5.687157        1024.4392  1024.4388  46.974      0.842                 0.062          0.0835         31.69356  -64.14914  2.582         2.9866        6.3313    6.3539    47.307    36.7368     36.7317     26.3427            26.3491             26.3317            26.338              
InVirTC2     2019-10-12T23:03:26Z    0.0422       98.9522   5.609106        5.610555        1024.7867  1024.7715  47.907      1.08                  0.0608         0.0902         31.69356  -64.14914  2.5854        2.9844        6.4394    6.4285    48.248    36.8367     36.8269     25.4881            25.4942             25.5134            25.5195             
InVirTC2     2019-10-12T23:03:26Z    0.0426       98.9404   5.436084        5.437625        1025.1913  1025.1858  48.012      -0.592                0.0764         0.1013         31.69544  -64.14484  2.7425        3.182         7.0894    7.1242    48.354    36.7657     36.7646     23.9866            23.9924             24.0021            24.0079             
InVirTC2     2019-10-12T23:03:26Z    0.0441       98.9041   5.526756        5.526478        1025.0306  1025.0268  49.028      1.238                 0.0614         0.0905         31.69356  -64.14914  2.5781        2.9798        6.4844    6.488     49.377    36.8428     36.8388     24.7264            24.7323             24.7287            24.7346             
InVirTC2     2019-10-12T23:03:26Z    0.0429       98.9334   5.436016        5.435698        1025.1966  1025.1926  49.185      -0.318                0.0748         0.1214         31.69544  -64.14486  2.7398        3.1828        7.0892    7.1374    49.535    36.7655     36.7612     23.9856            23.9914             23.9879            23.9937             
InVirTC2     2019-10-12T23:03:26Z    0.0468       98.8364   5.518373        5.488768        1024.9767  1025.0754  49.95       0.282                 0.0664         0.0971         31.69356  -64.14913  2.6886        3.1458        6.9083    7.0686    50.305    36.7713     36.7851     24.7362            24.7422             24.4474            24.4533             
InVirTC2     2019-10-12T23:03:26Z    0.0415       98.969    5.427149        5.426221        1025.2226  1025.221   50.154      -0.141                0.0772         0.1234         31.6954   -64.14512  2.7336        3.1771        7.0739    7.1277    50.511    36.7632     36.7594     23.9063            23.912              23.9023            23.908              
InVirTC2     2019-10-12T23:03:26Z    0.0478       98.8138   5.438013        5.436184        1025.2505  1025.2447  50.991      0.699                 0.0617         0.0921         31.69356  -64.14909  2.6832        3.1373        6.826     6.9482    51.354    36.8115     36.8018     23.9478            23.9535             23.9426            23.9484             
InVirTC2     2019-10-12T23:03:26Z    0.0399       99.0089   5.392148        5.387577        1025.3208  1025.339   51.002      -0.496                0.0801         0.1401         31.69538  -64.14529  2.7163        3.161         7.0733    7.1324    51.365    36.7616     36.7668     23.5846            23.5902             23.5361            23.5417             
InVirTC2     2019-10-12T23:03:26Z    0.0481       98.8041   5.417586        5.41677         1025.2953  1025.293   52.028      0.875                 0.066          0.1206         31.69356  -64.1491   2.6856        3.1534        6.8898    7.0521    52.398    36.7971     36.7931     23.7763            23.782              23.7737            23.7794             
InVirTC2     2019-10-12T23:03:26Z    0.0393       99.0235   5.384096        5.388569        1025.3504  1025.3349  52.124      -0.2                  0.0779         0.1507         31.69538  -64.14529  2.7061        3.153         7.0342    7.1072    52.496    36.764      36.761      23.5068            23.5124             23.5517            23.5573             
InVirTC2     2019-10-12T23:03:26Z    0.0394       99.0198   5.375873        5.376156        1025.3785  1025.372   53.004      -0.456                0.0803         0.1393         31.69536  -64.14532  2.7083        3.1476        7.0486    7.0999    53.382    36.7655     36.7604     23.4286            23.4342             23.4373            23.4429             
InVirTC2     2019-10-12T23:03:26Z    0.0476       98.8171   5.406952        5.406338        1025.3191  1025.3176  53.021      0.376                 0.0764         0.1139         31.69354  -64.14909  2.7177        3.1754        7.0781    7.1656    53.399    36.7884     36.7855     23.6882            23.6939             23.686             23.6917             
InVirTC2     2019-10-12T23:03:26Z    0.0473       98.8238   5.395746        5.395203        1025.3575  1025.3561  53.915      0.397                 0.0812         0.1228         31.69354  -64.14906  2.7185        3.1618        7.0669    7.108     54.299    36.7918     36.7891     23.5803            23.586              23.5785            23.5842             
InVirTC2     2019-10-12T23:03:26Z    0.0385       99.0414   5.360835        5.359638        1025.4174  1025.417   54.187      -0.438                0.0824         0.1479         31.69533  -64.1456   2.7063        3.1443        7.0619    7.1121    54.573    36.759      36.7557     23.2966            23.3022             23.2895            23.2951             
InVirTC2     2019-10-12T23:03:26Z    0.0376       99.0661   5.317526        5.310131        1025.514   1025.5271  54.922      -1.17                 0.0968         0.1542         31.69531  -64.14581  2.6754        3.1111        7.0051    7.0844    55.313    36.7373     36.7311     22.9208            22.9263             22.8596            22.8651             
InVirTC2     2019-10-12T23:03:26Z    0.0473       98.825    5.375137        5.374375        1025.4345  1025.4331  54.985      0.811                 0.0842         0.1195         31.69354  -64.14906  2.7145        3.1583        7.0703    7.1242    55.377    36.8062     36.803      23.3721            23.3778             23.3689            23.3745             
InVirTC2     2019-10-12T23:03:26Z    0.0371       99.0757   5.310434        5.303308        1025.5387  1025.5579  55.987      -0.711                0.0948         0.1476         31.69532  -64.14582  2.6722        3.1064        6.9905    7.0658    56.386    36.738      36.7381     22.8536            22.8591             22.7874            22.7929             
InVirTC2     2019-10-12T23:03:26Z    0.0472       98.8256   5.348569        5.348206        1025.4894  1025.4889  56.065      1.055                 0.0881         0.1233         31.69354  -64.14906  2.7082        3.1497        7.0718    7.1355    56.465    36.7863     36.7849     23.1496            23.1552             23.1479            23.1535             
InVirTC2     2019-10-12T23:03:26Z    0.0459       98.8585   5.342533        5.341908        1025.4948  1025.496   56.913      0.324                 0.0861         0.1346         31.69354  -64.14904  2.6865        3.1245        7.0059    7.0631    57.318    36.773      36.7726     23.1093            23.1149             23.104             23.1096             
InVirTC2     2019-10-12T23:03:26Z    0.037        99.0802   5.30704         5.303777        1025.5517  1025.5617  57.104      -0.254                0.0894         0.1588         31.6953   -64.1458   2.674         3.1032        7.0308    7.0662    57.511    36.7371     36.7381     22.8228            22.8283             22.7913            22.7967             
InVirTC2     2019-10-12T23:03:26Z    0.0373       99.072    5.290432        5.28295         1025.5888  1025.6133  57.972      -0.877                0.0957         0.1766         31.6953   -64.14581  2.6623        3.0977        6.9986    7.0849    58.385    36.7266     36.7307     22.6806            22.686              22.6061            22.6116             
InVirTC2     2019-10-12T23:03:26Z    0.0461       98.8526   5.325133        5.324769        1025.5423  1025.5415  57.979      0.437                 0.088          0.1397         31.69354  -64.14904  2.6798        3.1099        7.0143    7.0463    58.392    36.7691     36.7675     22.9522            22.9577             22.9507            22.9563             
InVirTC2     2019-10-12T23:03:26Z    0.0456       98.8678   5.31511         5.31466         1025.5686  1025.5681  58.985      0.569                 0.0923         0.1341         31.69354  -64.14904  2.6724        3.1016        6.9965    7.037     59.406    36.7644     36.7628     22.8644            22.8699             22.8621            22.8676             
InVirTC2     2019-10-12T23:03:26Z    0.0361       99.1022   5.284885        5.28422         1025.6074  1025.6365  59.026      -0.418                0.0961         0.1963         31.6953   -64.14584  2.6578        3.0976        6.9851    7.0896    59.448    36.7257     36.7505     22.6296            22.635              22.594             22.5994             
InVirTC2     2019-10-12T23:03:26Z    0.0364       99.0941   5.278512        5.27681         1025.6401  1025.6378  59.938      -0.403                0.098          0.186          31.6953   -64.14582  2.6615        3.0844        7.0166    7.0418    60.365    36.7363     36.7301     22.5574            22.5628             22.549             22.5544             
InVirTC2     2019-10-12T23:03:26Z    0.0445       98.8951   5.307835        5.307298        1025.5906  1025.5903  59.989      0.619                 0.0902         0.1221         31.69352  -64.14902  2.6683        3.0968        6.9965    7.0388    60.417    36.7625     36.7609     22.7987            22.8042             22.7956            22.8011             
InVirTC2     2019-10-12T23:03:26Z    0.0442       98.901    5.300654        5.300182        1025.6115  1025.6113  60.963      0.66                  0.0974         0.1344         31.69352  -64.149    2.6696        3.0948        7.0176    7.0453    61.399    36.76       36.7587     22.7346            22.7401             22.7318            22.7373             
InVirTC2     2019-10-12T23:03:26Z    0.0364       99.0934   5.265089        5.260877        1025.6739  1025.6911  60.995      -0.784                0.1036         0.1827         31.6953   -64.14581  2.6573        3.0863        7.0164    7.0584    61.43     36.7301     36.7355     22.4394            22.4448             22.3939            22.3992             
InVirTC2     2019-10-12T23:03:26Z    0.0368       99.0839   5.262079        5.259963        1025.6906  1025.695   62.021      -0.474                0.1022         0.189          31.6953   -64.14585  2.6583        3.0894        7.0208    7.0728    62.464    36.7338     36.7326     22.4066            22.412              22.3883            22.3937             
InVirTC2     2019-10-12T23:03:26Z    0.0437       98.9141   5.294066        5.293611        1025.6318  1025.6318  62.03       0.756                 0.0999         0.1518         31.69352  -64.14899  2.6691        3.092         7.0262    7.0425    62.473    36.758      36.757      22.6753            22.6808             22.6723            22.6778             
InVirTC2     2019-10-12T23:03:26Z    0.044        98.907    5.291538        5.290385        1025.6371  1025.6387  62.74       0.215                 0.0976         0.1527         31.69352  -64.14898  2.6686        3.0972        7.0263    7.0717    63.188    36.7539     36.7525     22.6565            22.6619             22.6474            22.6529             
InVirTC2     2019-10-12T23:03:26Z    0.0366       99.089    5.256072        5.25792         1025.7128  1025.7021  62.955      -0.356                0.1082         0.1917         31.69529  -64.14584  2.6556        3.086         7.0275    7.076     63.405    36.7356     36.7304     22.3481            22.3535             22.3715            22.3768             
InVirTC2     2019-10-12T23:03:26Z    0.0361       99.1023   5.243612        5.231417        1025.7234  1025.7689  63.972      -1.114                0.1106         0.1863         31.69528  -64.14582  2.6491        3.0799        7.017     7.0852    64.429    36.7109     36.7228     22.2609            22.2662             22.1331            22.1384             
InVirTC2     2019-10-12T23:03:26Z    0.0436       98.916    5.267664        5.266776        1025.7239  1025.7236  64.019      0.761                 0.0928         0.1701         31.69352  -64.14894  2.6652        3.1005        7.0367    7.107     64.477    36.7695     36.767      22.4155            22.4208             22.4101            22.4155             
InVirTC2     2019-10-12T23:03:26Z    0.0355       99.1161   5.225796        5.231829        1025.796   1025.8009  65.031      -0.786                0.1141         0.1906         31.69528  -64.14584  2.6501        3.086         7.056     7.1324    65.496    36.7296     36.7487     22.0721            22.0774             22.1059            22.1112             
InVirTC2     2019-10-12T23:03:26Z    0.0433       98.9241   5.259851        5.259507        1025.7406  1025.7402  65.033      1.024                 0.1033         0.1433         31.69352  -64.14895  2.663         3.0988        7.0342    7.1109    65.499    36.7616     36.7604     22.3518            22.3571             22.3499            22.3553             
InVirTC2     2019-10-12T23:03:26Z    0.043        98.9312   5.256884        5.256192        1025.7532  1025.7541  66.06       0.452                 0.1099         0.1566         31.69352  -64.14894  2.656         3.0887        7.0182    7.0766    66.532    36.7616     36.7608     22.3236            22.329              22.3181            22.3235             
InVirTC2     2019-10-12T23:03:26Z    0.0348       99.1336   5.233441        5.244888        1025.7944  1025.7512  66.143      -0.213                0.1067         0.2272         31.6953   -64.14585  2.6453        3.0763        7.0358    7.0866    66.616    36.7421     36.7304     22.1283            22.1336             22.2487            22.254              
InVirTC2     2019-10-12T23:03:26Z    0.0349       99.1311   5.222702        5.211402        1025.7998  1025.8322  66.899      -0.567                0.1142         0.225          31.69528  -64.14584  2.6228        3.0432        6.9753    7.0145    67.377    36.718      36.7203     22.0562            22.0615             21.948             21.9533             
InVirTC2     2019-10-12T23:03:26Z    0.0424       98.947    5.245909        5.2449          1025.7877  1025.7898  66.96       0.371                 0.1078         0.1765         31.6935   -64.14891  2.649         3.0848        7.0133    7.0863    67.439    36.7628     36.7623     22.2196            22.2249             22.2109            22.2162             
InVirTC2     2019-10-12T23:03:26Z    0.0415       98.9677   5.239475        5.239015        1025.802   1025.8009  67.978      0.66                  0.1119         0.1825         31.6935   -64.14891  2.65          3.082         7.0261    7.0792    68.464    36.7562     36.7541     22.1671            22.1724             22.1653            22.1706             
InVirTC2     2019-10-12T23:03:26Z    0.0348       99.1331   5.205906        5.192287        1025.8271  1025.8877  67.986      -1.038                0.1203         0.222          31.69528  -64.14585  2.6081        3.037         6.9242    7.0246    68.473    36.6979     36.7205     21.9226            21.9278             21.7688            21.774              
InVirTC2     2019-10-12T23:03:26Z    0.0409       98.9835   5.230787        5.230288        1025.8242  1025.8241  68.988      0.752                 0.1194         0.1725         31.6935   -64.14892  2.6576        3.0836        7.0821    7.1068    69.482    36.7512     36.75       22.0916            22.0969             22.0884            22.0937             
InVirTC2     2019-10-12T23:03:26Z    0.0342       99.1477   5.190429        5.187916        1025.8941  1025.9098  69.014      -0.986                0.1211         0.2413         31.69528  -64.14588  2.6081        3.0375        6.9541    7.0536    69.508    36.7176     36.726      21.7543            21.7596             21.7211            21.7263             
InVirTC2     2019-10-12T23:03:26Z    0.0327       99.1868   5.187737        5.192564        1025.9209  1025.9109  70.009      -0.613                0.1193         0.258          31.69528  -64.14588  2.6081        3.028         6.9684    7.0094    70.51     36.7316     36.7341     21.7123            21.7175             21.7545            21.7597             
InVirTC2     2019-10-12T23:03:26Z    0.0412       98.9751   5.223792        5.222403        1025.8408  1025.8433  70.047      0.288                 0.1195         0.1726         31.6935   -64.14889  2.6519        3.0823        7.0501    7.1093    70.549    36.7451     36.7441     22.0331            22.0384             22.0213            22.0266             
InVirTC2     2019-10-12T23:03:26Z    0.0414       98.9705   5.211824        5.211009        1025.8815  1025.8815  70.962      0.46                  0.1179         0.1889         31.6935   -64.14888  2.6499        3.0789        7.0631    7.1078    71.47     36.7498     36.7477     21.9156            21.9208             21.9103            21.9156             
InVirTC2     2019-10-12T23:03:26Z    0.0333       99.1706   5.188663        5.18873         1025.9201  1025.9119  71.158      -0.394                0.1217         0.2352         31.69527  -64.14587  2.5936        3.0095        6.9453    6.9818    71.668    36.7284     36.7211     21.7243            21.7295             21.7335            21.7387             
InVirTC2     2019-10-12T23:03:26Z    0.0338       99.1593   5.183131        5.184908        1025.9331  1025.9271  71.9        -1.527                0.1232         0.2174         31.69526  -64.14586  2.5636        2.9754        6.8405    6.8761    72.415    36.7239     36.7227     21.6775            21.6827             21.6955            21.7007             
InVirTC2     2019-10-12T23:03:26Z    0.04         99.0047   5.200679        5.20028         1025.9128  1025.9123  72.025      0.958                 0.119          0.1794         31.6935   -64.14888  2.6465        3.0752        7.056     7.0975    72.542    36.7471     36.7457     21.8142            21.8194             21.8122            21.8174             
InVirTC2     2019-10-12T23:03:26Z    0.0333       99.1723   5.177061        5.175469        1025.947   1025.9471  72.961      -1.836                0.1299         0.223          31.69528  -64.14588  2.5505        2.9624        6.7808    6.8307    73.484    36.7177     36.7139     21.6276            21.6328             21.6171            21.6222             
InVirTC2     2019-10-12T23:03:26Z    0.0392       99.0249   5.197802        5.197414        1025.9213  1025.9215  73.09       0.845                 0.1241         0.1775         31.6935   -64.14888  2.6398        3.0619        7.0329    7.0616    73.615    36.7436     36.7428     21.791             21.7962             21.7883            21.7935             
InVirTC2     2019-10-12T23:03:26Z    0.0386       99.039    5.194841        5.194306        1025.9324  1025.9327  73.942      0.306                 0.1279         0.1788         31.69348  -64.14884  2.6298        3.0502        7.0064    7.0431    74.472    36.7431     36.7421     21.7636            21.7688             21.7597            21.7649             
InVirTC2     2019-10-12T23:03:26Z    0.0327       99.1859   5.173618        5.169718        1025.9643  1025.9705  73.971      -1.701                0.1365         0.266          31.69528  -64.14589  2.5462        2.9585        6.7578    6.8205    74.501    36.7212     36.7174     21.5909            21.5961             21.5588            21.5639             
InVirTC2     2019-10-12T23:03:26Z    0.0379       99.0572   5.191501        5.19112         1025.9451  1025.9448  74.985      0.482                 0.1243         0.1789         31.69348  -64.14884  2.62          3.0402        6.9754    7.0178    75.523    36.7424     36.7413     21.7328            21.738              21.7305            21.7357             
InVirTC2     2019-10-12T23:03:26Z    0.0317       99.2119   5.166469        5.163652        1025.987   1025.9959  74.988      -1.391                0.1376         0.266          31.69528  -64.1459   2.5437        2.9577        6.7557    6.8243    75.527    36.7206     36.722      21.5242            21.5294             21.4962            21.5013             
InVirTC2     2019-10-12T23:03:26Z    0.0364       99.0953   5.188686        5.18815         1025.9571  1025.9577  75.995      0.405                 0.1256         0.195          31.69348  -64.14883  2.613         3.0338        6.9609    7.0098    76.54     36.7425     36.7418     21.7059            21.7111             21.7018            21.707              
InVirTC2     2019-10-12T23:03:26Z    0.0317       99.212    5.161693        5.158323        1026.0075  1026.0175  76.013      -0.975                0.1376         0.2806         31.69528  -64.1459   2.545         2.9577        6.7729    6.8363    76.558    36.7237     36.7248     21.4754            21.4806             21.4426            21.4477             
InVirTC2     2019-10-12T23:03:26Z    0.0361       99.1029   5.182779        5.182128        1025.9813  1025.9809  76.969      0.462                 0.123          0.1927         31.69346  -64.14881  2.6075        3.0264        6.9561    6.9933    77.522    36.7465     36.7446     21.6457            21.6509             21.6418            21.647              
InVirTC2     2019-10-12T23:03:26Z    0.0317       99.2113   5.157847        5.158479        1026.0302  1026.0318  77.044      -0.479                0.1331         0.289          31.69528  -64.1459   2.5481        2.9592        6.7926    6.8507    77.597    36.7311     36.7341     21.4304            21.4355             21.4328            21.4379             
InVirTC2     2019-10-12T23:03:26Z    0.0319       99.2061   5.159381        5.158791        1026.0322  1026.031   78.019      -0.456                0.1368         0.2881         31.69526  -64.14588  2.5434        2.9501        6.7973    6.8418    78.579    36.7326     36.7301     21.4425            21.4477             21.44              21.4451             
InVirTC2     2019-10-12T23:03:26Z    0.0364       99.0945   5.179853        5.179443        1025.9926  1025.9924  78.031      0.909                 0.134          0.1994         31.69346  -64.14879  2.6022        3.0184        6.9379    6.9704    78.591    36.7455     36.7442     21.619             21.6242             21.6167            21.6218             
InVirTC2     2019-10-12T23:03:26Z    0.0324       99.1924   5.15643         5.157731        1026.0401  1026.0303  78.943      -1.439                0.147          0.2774         31.69526  -64.1459   2.5285        2.926         6.7512    6.754     79.51     36.729      36.7231     21.4188            21.4239             21.4379            21.443              
InVirTC2     2019-10-12T23:03:26Z    0.0362       99.0998   5.167489        5.166708        1026.0377  1026.0396  79.1        0.99                  0.1393         0.2113         31.69346  -64.14881  2.5964        3.0119        6.9286    6.9654    79.669    36.7527     36.7526     21.4945            21.4997             21.4873            21.4924             
InVirTC2     2019-10-12T23:03:26Z    0.0359       99.1076   5.161925        5.160153        1026.0429  1026.0484  79.728      0.35                  0.1385         0.2258         31.69346  -64.1488   2.5809        2.9916        6.8882    6.9244    80.301    36.7416     36.7423     21.4552            21.4603             21.4377            21.4429             
InVirTC2     2019-10-12T23:03:26Z    0.0335       99.1665   5.15422         5.153313        1026.0496  1026.0435  79.976      -1.536                0.1469         0.2914         31.69527  -64.1459   2.5217        2.9211        6.7206    6.746     80.551    36.7282     36.7204     21.3986            21.4037             21.3992            21.4043             
InVirTC2     2019-10-12T23:03:26Z    0.0368       99.0839   5.158666        5.158289        1026.0605  1026.0601  81.006      0.862                 0.1445         0.2574         31.69346  -64.14878  2.57          2.9785        6.8612    6.902     81.589    36.7447     36.7433     21.4205            21.4257             21.4185            21.4237             
InVirTC2     2019-10-12T23:03:26Z    0.0333       99.1717   5.149268        5.14871         1026.0561  1026.0566  81.01       -1.418                0.1474         0.3246         31.69528  -64.1459   2.5177        2.921         6.7113    6.7488    81.593    36.7179     36.7171     21.3637            21.3688             21.3595            21.3646             
InVirTC2     2019-10-12T23:03:26Z    0.035        99.1277   5.158408        5.158025        1026.0655  1026.0654  82.005      1.24                  0.1488         0.2579         31.69346  -64.14878  2.5638        2.9728        6.8264    6.8577    82.595    36.7445     36.7435     21.4179            21.4231             21.4155            21.4206             
InVirTC2     2019-10-12T23:03:26Z    0.0328       99.183    5.143656        5.139678        1026.0705  1026.0913  82.05       -1.195                0.1502         0.3475         31.69528  -64.1459   2.5161        2.9199        6.7144    6.7486    82.64     36.7135     36.7231     21.3158            21.321              21.2674            21.2725             
InVirTC2     2019-10-12T23:03:26Z    0.0327       99.1848   5.135511        5.132874        1026.0804  1026.1     83.029      -0.961                0.1565         0.3612         31.69528  -64.14589  2.5149        2.9181        6.718     6.7513    83.626    36.699      36.7107     21.256             21.2611             21.2176            21.2227             
InVirTC2     2019-10-12T23:03:26Z    0.0344       99.144    5.158259        5.158037        1026.0702  1026.0692  83.085      0.466                 0.148          0.2772         31.69345  -64.14877  2.5561        2.9622        6.8128    6.8433    83.683    36.744      36.7425     21.4166            21.4217             21.4163            21.4214             
InVirTC2     2019-10-12T23:03:26Z    0.0341       99.1511   5.15756         5.157213        1026.0768  1026.0767  83.962      0.447                 0.1484         0.2956         31.69344  -64.14874  2.5504        2.9588        6.8012    6.8499    84.566    36.7447     36.7439     21.4088            21.414              21.4066            21.4118             
InVirTC2     2019-10-12T23:03:26Z    0.0327       99.1849   5.127205        5.126848        1026.1265  1026.1374  84.036      -0.783                0.1665         0.3612         31.69528  -64.14588  2.5118        2.9213        6.7202    6.779     84.641    36.7175     36.7266     21.1562            21.1613             21.1421            21.1472             
InVirTC2     2019-10-12T23:03:26Z    0.0327       99.1853   5.123654        5.12961         1026.16    1026.1266  85.006      -0.696                0.169          0.3854         31.69527  -64.14588  2.5087        2.9213        6.7152    6.7852    85.618    36.7358     36.7193     21.1011            21.1062             21.1761            21.1812             
InVirTC2     2019-10-12T23:03:26Z    0.0347       99.1359   5.148682        5.148056        1026.1137  1026.1141  85.088      0.884                 0.1585         0.2664         31.69344  -64.14874  2.5469        2.9577        6.7991    6.856     85.701    36.7528     36.7517     21.3158            21.321              21.3113            21.3164             
InVirTC2     2019-10-12T23:03:26Z    0.0346       99.1383   5.145893        5.14503         1026.1192  1026.1203  85.867      0.264                 0.1653         0.3241         31.69343  -64.14874  2.5288        2.9358        6.7452    6.7959    86.486    36.7479     36.7469     21.2951            21.3002             21.2882            21.2933             
InVirTC2     2019-10-12T23:03:26Z    0.0346       99.1373   5.126496        5.121081        1026.1515  1026.1661  85.991      -0.668                0.1706         0.4009         31.69526  -64.14589  2.5057        2.9157        6.7095    6.7879    86.61     36.7307     36.7313     21.1333            21.1384             21.0818            21.0869             
InVirTC2     2019-10-12T23:03:26Z    0.0353       99.1218   5.123512        5.118267        1026.1457  1026.1736  86.979      -0.829                0.1681         0.3899         31.69526  -64.1459   2.4985        2.9052        6.682     6.7539    87.606    36.7142     36.7274     21.1241            21.1292             21.0596            21.0646             
InVirTC2     2019-10-12T23:03:26Z    0.0358       99.1099   5.141585        5.141075        1026.1353  1026.1356  86.982      0.653                 0.1684         0.3408         31.69342  -64.14871  2.5255        2.927         6.7442    6.7655    87.609    36.7478     36.7469     21.2544            21.2595             21.2507            21.2558             
InVirTC2     2019-10-12T23:03:26Z    0.0343       99.1475   5.106751        5.1081          1026.202   1026.2018  87.959      -0.966                0.1625         0.3354         31.69526  -64.14592  2.4952        2.8995        6.7047    6.7575    88.593    36.722      36.725      20.9573            20.9623             20.9664            20.9715             
InVirTC2     2019-10-12T23:03:26Z    0.0359       99.1072   5.137524        5.13704         1026.1517  1026.1514  88.011      0.968                 0.1711         0.3169         31.69342  -64.14874  2.5227        2.9249        6.7321    6.7661    88.645    36.749      36.7476     21.2146            21.2196             21.2117            21.2167             
InVirTC2     2019-10-12T23:03:26Z    0.0322       99.1993   5.103747        5.108063        1026.2281  1026.2053  88.985      -0.922                0.1571         0.36           31.69528  -64.14592  2.4903        2.8939        6.7022    6.7621    89.627    36.7347     36.7239     20.9139            20.9189             20.967             20.972              
InVirTC2     2019-10-12T23:03:26Z    0.0354       99.1183   5.134202        5.133863        1026.1616  1026.1615  89.068      1.148                 0.1775         0.3162         31.69342  -64.14874  2.5213        2.9233        6.7354    6.7736    89.71     36.7458     36.7448     21.1867            21.1918             21.1846            21.1897             
InVirTC2     2019-10-12T23:03:26Z    0.0346       99.1389   5.132947        5.132484        1026.1668  1026.1668  89.891      0.33                  0.1708         0.3374         31.69341  -64.14871  2.5213        2.9261        6.7442    6.7904    90.539    36.7441     36.743      21.1765            21.1816             21.1734            21.1785             
InVirTC2     2019-10-12T23:03:26Z    0.0302       99.2486   5.102713        5.106917        1026.2322  1026.2196  90.015      -0.876                0.161          0.3743         31.69526  -64.1459   2.4809        2.8822        6.6738    6.7363    90.664    36.7318     36.7301     20.9072            20.9122             20.9486            20.9536             
InVirTC2     2019-10-12T23:03:26Z    0.0336       99.1651   5.128651        5.128258        1026.1835  1026.1831  90.952      0.351                 0.1669         0.334          31.69341  -64.14869  2.5199        2.9248        6.7418    6.7891    91.608    36.7449     36.7436     21.1349            21.14               21.1327            21.1378             
InVirTC2     2019-10-12T23:03:26Z    0.0286       99.2873   5.097145        5.099141        1026.2527  1026.2356  91.007      -1.048                0.165          0.3686         31.69526  -64.14591  2.4697        2.8643        6.6398    6.7018    91.663    36.7333     36.7223     20.8527            20.8577             20.8842            20.8892             
InVirTC2     2019-10-12T23:03:26Z    0.0334       99.1696   5.126593        5.126151        1026.1997  1026.1993  91.961      0.512                 0.1672         0.2486         31.6934   -64.14869  2.522         2.9272        6.7607    6.8078    92.624    36.7508     36.7493     21.1083            21.1134             21.1059            21.1109             
InVirTC2     2019-10-12T23:03:26Z    0.0278       99.3084   5.087861        5.090212        1026.2715  1026.2613  91.966      -1.276                0.1687         0.3539         31.69526  -64.14588  2.4605        2.8475        6.6142    6.6521    92.63     36.7246     36.7208     20.7751            20.7801             20.8016            20.8066             
InVirTC2     2019-10-12T23:03:26Z    0.0275       99.3152   5.083558        5.083226        1026.2749  1026.2865  92.958      -1.323                0.169          0.3948         31.69524  -64.14588  2.4537        2.831         6.5867    6.5914    93.629    36.7133     36.7233     20.7473            20.7523             20.7326            20.7376             
InVirTC2     2019-10-12T23:03:26Z    0.0316       99.2129   5.119199        5.118795        1026.2228  1026.2227  93.024      0.872                 0.1663         0.3061         31.6934   -64.14868  2.5225        2.9259        6.7698    6.8037    93.695    36.75       36.749      21.0394            21.0445             21.0369            21.0419             
InVirTC2     2019-10-12T23:03:26Z    0.0311       99.2255   5.080153        5.075555        1026.2856  1026.2997  93.97       -1.26                 0.1752         0.4312         31.69524  -64.14592  2.4486        2.8225        6.5628    6.56      94.649    36.7109     36.713      20.7176            20.7226             20.6719            20.6769             
InVirTC2     2019-10-12T23:03:26Z    0.0306       99.2377   5.115537        5.114931        1026.2333  1026.2341  94.025      0.624                 0.1726         0.2781         31.69339  -64.14866  2.5209        2.9247        6.7639    6.8061    94.704    36.7468     36.746      21.0084            21.0134             21.0036            21.0086             
InVirTC2     2019-10-12T23:03:26Z    0.0306       99.2385   5.112254        5.111882        1026.245   1026.2448  94.989      0.476                 0.1675         0.2684         31.69338  -64.14866  2.5182        2.9162        6.7561    6.7737    95.675    36.7458     36.7446     20.9784            20.9834             20.9762            20.9812             
InVirTC2     2019-10-12T23:03:26Z    0.0297       99.2607   5.073416        5.068886        1026.3136  1026.3188  95.014      -1.112                0.1874         0.4711         31.69525  -64.14593  2.4457        2.8189        6.5654    6.5517    95.701    36.7165     36.7106     20.6473            20.6523             20.6116            20.6165             
InVirTC2     2019-10-12T23:03:26Z    0.0281       99.2993   5.069104        5.062499        1026.3288  1026.3452  96.061      -0.881                0.1964         0.4784         31.69526  -64.14593  2.446         2.8193        6.5823    6.5658    96.756    36.7159     36.7155     20.607             20.6119             20.5454            20.5503             
InVirTC2     2019-10-12T23:03:26Z    0.0295       99.265    5.108982        5.108537        1026.2578  1026.2579  96.122      0.406                 0.1626         0.3027         31.69338  -64.14866  2.513         2.9153        6.7423    6.7892    96.817    36.7451     36.7441     20.948             20.953              20.945             20.95               
InVirTC2     2019-10-12T23:03:26Z    0.0293       99.2701   5.105207        5.104724        1026.2738  1026.2736  96.939      0.333                 0.1571         0.286          31.69338  -64.14865  2.5117        2.9137        6.7491    6.7881    97.64     36.7474     36.7461     20.9095            20.9145             20.9065            20.9115             
InVirTC2     2019-10-12T23:03:26Z    0.0292       99.2729   5.067595        5.061812        1026.344   1026.3547  97.061      -0.534                0.1944         0.5154         31.69526  -64.14592  2.4423        2.8206        6.5746    6.5733    97.762    36.7223     36.7185     20.5849            20.5899             20.5349            20.5398             
InVirTC2     2019-10-12T23:03:26Z    0.0294       99.2668   5.099226        5.098854        1026.2947  1026.2946  98.027      0.743                 0.16           0.3193         31.69338  -64.14866  2.5084        2.9119        6.7388    6.7921    98.736    36.748      36.747      20.8523            20.8573             20.8499            20.8549             
InVirTC2     2019-10-12T23:03:26Z    0.0284       99.2926   5.067678        5.061678        1026.3484  1026.3586  98.093      -0.434                0.1994         0.4822         31.69526  -64.14593  2.4306        2.8164        6.5331    6.5712    98.803    36.7223     36.7175     20.5854            20.5903             20.5344            20.5393             
InVirTC2     2019-10-12T23:03:26Z    0.0288       99.2823   5.062954        5.061599        1026.3573  1026.3601  98.942      -1.234                0.2049         0.4697         31.69524  -64.1459   2.4206        2.8062        6.4931    6.5251    99.658    36.7158     36.7152     20.548             20.553              20.536             20.5409             
InVirTC2     2019-10-12T23:03:26Z    0.0281       99.3002   5.094543        5.094032        1026.3099  1026.3106  99.072      0.739                 0.1639         0.2936         31.69337  -64.14864  2.5009        2.9054        6.7117    6.77      99.789    36.7466     36.746      20.8095            20.8145             20.8053            20.8103             
InVirTC2     2019-10-12T23:03:26Z    0.0286       99.2864   5.059397        5.057381        1026.3689  1026.3767  99.973      -1.318                0.2102         0.4869         31.69524  -64.1459   2.4199        2.8064        6.4958    6.5314    100.696   36.7138     36.7163     20.5164            20.5213             20.4946            20.4995             
InVirTC2     2019-10-12T23:03:26Z    0.0277       99.3091   5.088258        5.087854        1026.3262  1026.3262  100.039     0.414                 0.1675         0.294          31.69336  -64.14861  2.4929        2.8925        6.6962    6.7358    100.763   36.7426     36.7417     20.7546            20.7595             20.7519            20.7568             
InVirTC2     2019-10-12T23:03:26Z    0.0275       99.316    5.082473        5.082136        1026.3443  1026.3445  100.885     0.356                 0.1755         0.3162         31.69336  -64.14862  2.48          2.8817        6.6491    6.7132    101.616   36.7421     36.7415     20.7004            20.7054             20.698             20.7029             
InVirTC2     2019-10-12T23:03:26Z    0.0302       99.2471   5.057141        5.056216        1026.383   1026.383   100.981     -1.231                0.2145         0.4984         31.69525  -64.14592  2.4184        2.8087        6.4867    6.5493    101.712   36.7173     36.7151     20.4907            20.4956             20.4845            20.4894             
InVirTC2     2019-10-12T23:03:26Z    0.0285       99.2896   5.076891        5.076535        1026.3608  1026.3606  101.989     0.721                 0.1875         0.3514         31.69336  -64.14861  2.474         2.8757        6.6389    6.7021    102.728   36.7395     36.7385     20.6504            20.6554             20.6483            20.6532             
InVirTC2     2019-10-12T23:03:26Z    0.0311       99.2266   5.054435        5.054324        1026.3964  1026.3941  102.252     -0.859                0.2097         0.5097         31.69521  -64.14594  2.4168        2.8058        6.4887    6.5445    102.993   36.7181     36.7157     20.4638            20.4687             20.4655            20.4704             
InVirTC2     2019-10-12T23:03:26Z    0.0292       99.273    5.074594        5.074108        1026.3674  1026.3682  102.975     0.336                 0.1927         0.4146         31.69335  -64.14862  2.4678        2.865         6.6324    6.6781    103.721   36.7361     36.7357     20.6324            20.6373             20.6283            20.6333             
InVirTC2     2019-10-12T23:03:26Z    0.03         99.2522   5.050885        5.049306        1026.4079  1026.4091  103.264     -0.635                0.1942         0.4882         31.69507  -64.14594  2.4151        2.8035        6.4872    6.544     104.012   36.7161     36.7135     20.4322            20.4371             20.4203            20.4252             
InVirTC2     2019-10-12T23:03:26Z    0.029        99.2783   5.065391        5.064799        1026.3986  1026.3986  103.999     0.625                 0.1907         0.4167         31.69334  -64.14859  2.4669        2.854         6.6521    6.661     104.753   36.7389     36.7375     20.5422            20.5471             20.5383            20.5432             
InVirTC2     2019-10-12T23:03:26Z    0.0285       99.2902   5.047869        5.047657        1026.4171  1026.4169  104.024     -0.529                0.1989         0.4716         31.69486  -64.14594  2.4149        2.8044        6.4933    6.5485    104.778   36.7143     36.7136     20.4055            20.4104             20.4043            20.4092             
InVirTC2     2019-10-12T23:03:26Z    0.0258       99.3576   5.046788        5.046333        1026.4233  1026.4212  104.997     -0.253                0.1905         0.4532         31.69483  -64.14595  2.4121        2.7994        6.4869    6.5346    105.759   36.7134     36.7104     20.3959            20.4008             20.3951            20.4                
InVirTC2     2019-10-12T23:03:26Z    0.0278       99.3081   5.055004        5.054562        1026.4244  1026.4243  105.046     1.071                 0.1885         0.4158         31.69334  -64.1486   2.4628        2.8505        6.6411    6.655     105.808   36.7338     36.7327     20.4498            20.4547             20.4469            20.4518             
InVirTC2     2019-10-12T23:03:26Z    0.0267       99.3354   5.048682        5.048374        1026.4352  1026.4347  106.134     0.698                 0.1879         0.3954         31.69334  -64.1486   2.4492        2.8398        6.583     6.6299    106.904   36.7243     36.7231     20.4007            20.4056             20.3993            20.4042             
InVirTC2     2019-10-12T23:03:26Z    0.0257       99.3591   5.040588        5.040858        1026.4431  1026.4387  106.201     -0.582                0.1841         0.4291         31.6948   -64.14596  2.402         2.7887        6.4632    6.5094    106.971   36.7121     36.7087     20.3385            20.3434             20.345             20.3499             
InVirTC2     2019-10-12T23:03:26Z    0.0278       99.3065   5.044626        5.04374         1026.4462  1026.4479  106.907     0.259                 0.18           0.3997         31.69333  -64.14857  2.4325        2.8236        6.5401    6.5947    107.683   36.7216     36.7211     20.3653            20.3702             20.3575            20.3624             
InVirTC2     2019-10-12T23:03:26Z    0.0252       99.3708   5.038383        5.037433        1026.4503  1026.4502  106.933     -1.006                0.1803         0.4294         31.6948   -64.14596  2.3952        2.784         6.4372    6.5032    107.709   36.7105     36.7082     20.3192            20.3241             20.3129            20.3178             
InVirTC2     2019-10-12T23:03:26Z    0.0273       99.3207   5.036727        5.036386        1026.4658  1026.4657  108.037     0.546                 0.1829         0.4177         31.69332  -64.14857  2.4319        2.8162        6.5643    6.5807    108.821   36.7164     36.7155     20.2963            20.3012             20.2942            20.2991             
InVirTC2     2019-10-12T23:03:26Z    0.0234       99.4162   5.036747        5.036382        1026.4603  1026.4581  108.075     -0.54                 0.1768         0.4269         31.69478  -64.14598  2.3921        2.7764        6.4326    6.485     108.859   36.7112     36.7083     20.3026            20.3074             20.3025            20.3074             
InVirTC2     2019-10-12T23:03:26Z    0.0261       99.348    5.034998        5.034639        1026.4747  1026.4748  109.006     0.594                 0.185          0.3658         31.69332  -64.14858  2.4261        2.8098        6.5358    6.5674    109.798   36.7165     36.7158     20.2795            20.2844             20.277             20.2819             
InVirTC2     2019-10-12T23:03:26Z    0.0222       99.4467   5.031344        5.0307          1026.4769  1026.4748  109.222     -0.53                 0.162          0.3826         31.69474  -64.14599  2.3794        2.7592        6.3964    6.4395    110.015   36.7091     36.7056     20.2535            20.2584             20.2515            20.2563             
InVirTC2     2019-10-12T23:03:26Z    0.0262       99.3475   5.033623        5.03337         1026.4828  1026.4826  109.96      0.473                 0.1692         0.3404         31.69332  -64.14856  2.4108        2.7894        6.4706    6.4909    110.758   36.7168     36.7161     20.2658            20.2707             20.2643            20.2692             
InVirTC2     2019-10-12T23:03:26Z    0.0215       99.4648   5.023052        5.024541        1026.4977  1026.4915  109.96      -1.199                0.1426         0.3539         31.69472  -64.146    2.3627        2.7365        6.3536    6.383     110.758   36.7057     36.7034     20.1789            20.1837             20.1955            20.2004             
InVirTC2     2019-10-12T23:03:26Z    0.0248       99.3819   5.032244        5.031957        1026.4908  1026.4906  110.961     0.54                  0.1656         0.3418         31.6933   -64.14854  2.3995        2.7761        6.4382    6.4621    111.767   36.7168     36.716      20.2524            20.2572             20.2507            20.2555             
InVirTC2     2019-10-12T23:03:26Z    0.0203       99.4959   5.019989        5.019937        1026.513   1026.5055  110.987     -1.515                0.1416         0.3319         31.69472  -64.14602  2.3597        2.7332        6.3474    6.3779    111.793   36.7084     36.7013     20.1465            20.1513             20.154             20.1589             
InVirTC2     2019-10-12T23:03:26Z    0.0243       99.395    5.030407        5.030002        1026.504   1026.5039  111.983     0.728                 0.1609         0.3345         31.6933   -64.14854  2.394         2.7738        6.4321    6.4764    112.797   36.7206     36.7195     20.2303            20.2352             20.2277            20.2325             
InVirTC2     2019-10-12T23:03:26Z    0.0194       99.5168   5.019272        5.016637        1026.5097  1026.5144  112.006     -1.497                0.137          0.3113         31.69472  -64.14599  2.3578        2.7329        6.3449    6.3797    112.82    36.6994     36.6975     20.1496            20.1544             20.1269            20.1317             
InVirTC2     2019-10-12T23:03:26Z    0.0186       99.5364   5.016168        5.013133        1026.526   1026.5323  113.041     -1.25                 0.1345         0.266          31.69472  -64.14599  2.3566        2.7317        6.3469    6.3822    113.863   36.7029     36.7016     20.1158            20.1207             20.0887            20.0935             
InVirTC2     2019-10-12T23:03:26Z    0.0236       99.4128   5.026812        5.026038        1026.5137  1026.5149  113.162     0.279                 0.1564         0.3497         31.69329  -64.14854  2.3807        2.7599        6.392     6.4373    113.985   36.7161     36.7154     20.201             20.2059             20.1945            20.1994             
InVirTC2     2019-10-12T23:03:26Z    0.0233       99.4198   5.023091        5.022666        1026.5281  1026.5277  113.944     0.455                 0.1587         0.4366         31.69328  -64.14853  2.3797        2.7563        6.4158    6.4421    114.772   36.7175     36.716      20.164             20.1688             20.1617            20.1665             
InVirTC2     2019-10-12T23:03:26Z    0.0177       99.5601   5.013082        5.012105        1026.5375  1026.5405  114.035     -0.839                0.1293         0.2687         31.69472  -64.14602  2.3543        2.7311        6.3374    6.3917    114.864   36.7022     36.7026     20.087             20.0918             20.0773            20.0821             
InVirTC2     2019-10-12T23:03:26Z    0.0215       99.4639   5.020754        5.020402        1026.5379  1026.5376  115.016     0.943                 0.153          0.4056         31.69328  -64.14854  2.379         2.7551        6.4139    6.4413    115.852   36.7166     36.7154     20.1425            20.1474             20.1405            20.1453             
InVirTC2     2019-10-12T23:03:26Z    0.016        99.6018   5.012748        5.013456        1026.5486  1026.5435  115.089     -0.318                0.1264         0.2748         31.6947   -64.146    2.3509        2.7306        6.3219    6.386     115.926   36.7073     36.7042     20.0776            20.0824             20.0879            20.0927             
InVirTC2     2019-10-12T23:03:26Z    0.0165       99.5885   5.012351        5.011784        1026.5486  1026.5466  115.818     -0.567                0.1221         0.2736         31.69469  -64.14602  2.3493        2.7229        6.322     6.3646    116.66    36.7033     36.7001     20.0781            20.0829             20.0764            20.0812             
InVirTC2     2019-10-12T23:03:26Z    0.0207       99.4832   5.020066        5.019731        1026.5427  1026.5425  116.029     1.269                 0.1492         0.3138         31.69328  -64.14854  2.3759        2.7506        6.3935    6.4209    116.873   36.7152     36.7141     20.1372            20.1421             20.1352            20.1401             
InVirTC2     2019-10-12T23:03:26Z    0.016        99.6026   5.0082          5.006264        1026.5569  1026.5587  116.978     -1.274                0.115          0.2513         31.6947   -64.14604  2.3435        2.7158        6.3016    6.3463    117.829   36.6963     36.6935     20.0464            20.0512             20.0314            20.0362             
InVirTC2     2019-10-12T23:03:26Z    0.0208       99.4819   5.019823        5.019493        1026.5474  1026.5474  117.061     1.348                 0.1453         0.3562         31.69328  -64.14852  2.3718        2.748         6.3708    6.4092    117.913   36.7146     36.7139     20.1351            20.1399             20.1329            20.1377             
InVirTC2     2019-10-12T23:03:26Z    0.0204       99.4921   5.019817        5.019231        1026.5497  1026.5504  117.826     0.668                 0.1415         0.3379         31.69328  -64.14851  2.3674        2.7465        6.3624    6.419     118.684   36.7136     36.7128     20.1359            20.1408             20.1313            20.1361             
InVirTC2     2019-10-12T23:03:26Z    0.0154       99.617    5.004452        5.000534        1026.5645  1026.5681  118         -1.08                 0.1103         0.2513         31.6947   -64.14604  2.3431        2.7159        6.3077    6.3484    118.859   36.6903     36.6844     20.0175            20.0223             19.9872            19.992              
InVirTC2     2019-10-12T23:03:26Z    0.0202       99.4983   5.018737        5.018411        1026.5581  1026.5579  118.973     1.147                 0.1445         0.3803         31.69326  -64.1485   2.367         2.7471        6.3724    6.4322    119.84    36.7141     36.7131     20.1246            20.1295             20.1227            20.1276             
InVirTC2     2019-10-12T23:03:26Z    0.0146       99.6359   5.001755        4.997911        1026.576   1026.5923  119.037     -0.878                0.104          0.2577         31.6947   -64.14602  2.3428        2.7141        6.3109    6.3513    119.903   36.6903     36.6965     19.9915            19.9963             19.9481            19.9528             
InVirTC2     2019-10-12T23:03:26Z    0.0202       99.4985   5.017117        5.016801        1026.5679  1026.5677  120.009     1.492                 0.1443         0.3754         31.69326  -64.14852  2.3663        2.7439        6.3728    6.4186    120.884   36.715      36.7141     20.1079            20.1128             20.106             20.1108             
InVirTC2     2019-10-12T23:03:26Z    0.0136       99.6597   4.997412        4.998202        1026.5946  1026.5916  120.039     -0.798                0.0995         0.2288         31.69468  -64.14602  2.3411        2.7155        6.3096    6.3652    120.914   36.6932     36.6923     19.9467            19.9515             19.9552            19.96               
InVirTC2     2019-10-12T23:03:26Z    0.0194       99.5161   5.015784        5.014513        1026.5723  1026.5745  120.988     0.347                 0.136          0.3155         31.69325  -64.14851  2.3607        2.737         6.3506    6.3933    121.87    36.7119     36.7109     20.0985            20.1033             20.0876            20.0924             
InVirTC2     2019-10-12T23:03:26Z    0.0132       99.6694   4.995833        4.993825        1026.6048  1026.6049  121.021     -0.784                0.0939         0.2213         31.69467  -64.14604  2.3397        2.7107        6.3097    6.3421    121.903   36.6949     36.6903     19.9294            19.9342             19.9157            19.9205             
InVirTC2     2019-10-12T23:03:26Z    0.019        99.526    5.010599        5.010212        1026.59    1026.5898  121.984     0.701                 0.128          0.3274         31.69324  -64.14848  2.3602        2.736         6.3631    6.4084    122.873   36.7119     36.7108     20.049             20.0538             20.0467            20.0515             
InVirTC2     2019-10-12T23:03:26Z    0.0126       99.6847   4.992329        4.988494        1026.6181  1026.6249  122.011     -0.655                0.0912         0.2064         31.69466  -64.14604  2.3384        2.7097        6.3154    6.3486    122.901   36.6949     36.6922     19.8958            19.9006             19.8627            19.8675             
InVirTC2     2019-10-12T23:03:26Z    0.0118       99.7055   4.990619        4.989677        1026.626   1026.6274  123.005     -0.558                0.0943         0.1967         31.69466  -64.14604  2.334         2.7105        6.2826    6.3526    123.903   36.6941     36.6932     19.8802            19.885              19.8723            19.8771             
InVirTC2     2019-10-12T23:03:26Z    0.0184       99.5406   5.008621        5.008253        1026.5984  1026.5983  123.024     1.133                 0.1283         0.3114         31.69324  -64.1485   2.3592        2.7342        6.3582    6.396     123.921   36.7107     36.7098     20.0313            20.0361             20.0289            20.0337             
InVirTC2     2019-10-12T23:03:26Z    0.0112       99.7197   4.988724        4.988273        1026.6361  1026.6324  123.936     -0.739                0.0853         0.2055         31.69466  -64.14604  2.3374        2.7085        6.3023    6.3402    124.84    36.6951     36.6907     19.8607            19.8654             19.8615            19.8663             
InVirTC2     2019-10-12T23:03:26Z    0.0181       99.5506   5.006315        5.005591        1026.6062  1026.6066  123.974     0.44                  0.1206         0.285          31.69325  -64.14849  2.3548        2.7248        6.3426    6.3677    124.878   36.7086     36.7073     20.0115            20.0163             20.0062            20.011              
InVirTC2     2019-10-12T23:03:26Z    0.0104       99.7407   4.98766         4.987118        1026.6421  1026.6394  124.984     -0.766                0.0843         0.1771         31.69466  -64.14604  2.3389        2.7114        6.313     6.3525    125.896   36.6938     36.69       19.8517            19.8565             19.8509            19.8556             
InVirTC2     2019-10-12T23:03:26Z    0.0171       99.5734   5.001483        5.001218        1026.6208  1026.6204  125.011     0.462                 0.118          0.2712         31.69322  -64.14848  2.3515        2.7272        6.3371    6.3931    125.923   36.7065     36.7055     19.9679            19.9727             19.9665            19.9713             
InVirTC2     2019-10-12T23:03:26Z    0.0169       99.5787   4.997073        4.996703        1026.6345  1026.6343  125.986     0.57                  0.1144         0.2072         31.69322  -64.14848  2.3494        2.7224        6.336     6.3717    126.906   36.7047     36.7037     19.9278            19.9326             19.9254            19.9302             
InVirTC2     2019-10-12T23:03:26Z    0.0094       99.7665   4.986666        4.986962        1026.6492  1026.6458  126.021     -0.879                0.0832         0.1634         31.69464  -64.14607  2.3395        2.7132        6.3151    6.365     126.941   36.6938     36.6913     19.8419            19.8466             19.8475            19.8523             
InVirTC2     2019-10-12T23:03:26Z    0.0089       99.7773   4.985819        4.985443        1026.6549  1026.6523  126.995     -1.174                0.0805         0.1686         31.69464  -64.14608  2.3399        2.7129        6.3192    6.3653    127.922   36.693      36.6897     19.8343            19.8391             19.8346            19.8393             
InVirTC2     2019-10-12T23:03:26Z    0.0158       99.6058   4.994625        4.99427         1026.644   1026.6438  127.011     0.73                  0.107          0.222          31.69322  -64.1485   2.3485        2.7173        6.3375    6.3574    127.939   36.7035     36.7025     19.9056            19.9104             19.9034            19.9081             
InVirTC2     2019-10-12T23:03:26Z    0.0093       99.7668   4.984627        4.984055        1026.659   1026.6582  127.993     -1.27                 0.0804         0.1708         31.69464  -64.14607  2.3407        2.7128        6.3274    6.3702    128.928   36.6899     36.6877     19.8262            19.831              19.8232            19.828              
InVirTC2     2019-10-12T23:03:26Z    0.015        99.6264   4.992791        4.992375        1026.6514  1026.6516  128.055     0.449                 0.1029         0.2044         31.69322  -64.14848  2.3472        2.7152        6.3373    6.3605    128.991   36.7018     36.701      19.8898            19.8946             19.8868            19.8915             
InVirTC2     2019-10-12T23:03:26Z    0.0152       99.6206   4.991112        4.990748        1026.6601  1026.6599  128.924     0.374                 0.1            0.2049         31.6932   -64.14846  2.3442        2.7162        6.327     6.3763    129.866   36.7023     36.7012     19.873             19.8777             19.8708            19.8755             
InVirTC2     2019-10-12T23:03:26Z    0.0096       99.7614   4.983662        4.982389        1026.6667  1026.6661  128.98      -1.166                0.0813         0.1689         31.69464  -64.14606  2.3407        2.7122        6.3296    6.3712    129.922   36.6906     36.6871     19.8158            19.8205             19.8078            19.8126             
InVirTC2     2019-10-12T23:03:26Z    0.0134       99.6661   4.988166        4.987821        1026.6715  1026.6713  130.006     0.724                 0.0978         0.2043         31.6932   -64.14846  2.3421        2.7148        6.3208    6.3694    130.957   36.7014     36.7005     19.8456            19.8504             19.8435            19.8482             
InVirTC2     2019-10-12T23:03:26Z    0.0091       99.7717   4.982831        4.980386        1026.671   1026.676   130.014     -0.908                0.0793         0.1634         31.69464  -64.14606  2.3395        2.7113        6.3314    6.3661    130.965   36.6883     36.6872     19.8102            19.8149             19.7883            19.793              
InVirTC2     2019-10-12T23:03:26Z    0.0087       99.7839   4.980336        4.980133        1026.6834  1026.6835  131.033     -0.511                0.0825         0.1564         31.69464  -64.14604  2.3389        2.7099        6.3328    6.3643    131.991   36.6897     36.6894     19.7845            19.7893             19.7829            19.7877             
InVirTC2     2019-10-12T23:03:26Z    0.0122       99.6958   4.985515        4.985098        1026.6806  1026.6807  131.137     0.593                 0.0878         0.1573         31.6932   -64.14848  2.3392        2.7112        6.3164    6.3574    132.096   36.699      36.698      19.8229            19.8277             19.8201            19.8248             
InVirTC2     2019-10-12T23:03:26Z    0.0134       99.666    4.984426        4.983917        1026.6846  1026.6846  131.795     0.187                 0.093          0.1786         31.69319  -64.14846  2.34          2.7146        6.3292    6.3818    132.759   36.6973     36.6961     19.8142            19.819              19.8107            19.8155             
InVirTC2     2019-10-12T23:03:26Z    0.0092       99.7709   4.981267        4.981128        1026.686   1026.6833  132.07      -0.467                0.0851         0.1544         31.69462  -64.14608  2.3341        2.7079        6.3139    6.3651    133.036   36.69       36.6872     19.7925            19.7973             19.7944            19.7992             
InVirTC2     2019-10-12T23:03:26Z    0.009        99.7744   4.977237        4.977172        1026.6981  1026.6953  132.941     -1.86                 0.0808         0.1488         31.69461  -64.14609  2.3328        2.703         6.3234    6.3527    133.914   36.6882     36.6854     19.7561            19.7608             19.7586            19.7634             
InVirTC2     2019-10-12T23:03:26Z    0.0119       99.7023   4.983538        4.983229        1026.6913  1026.6911  132.985     0.692                 0.0904         0.1835         31.69318  -64.14844  2.3399        2.7139        6.3265    6.3774    133.959   36.6965     36.6956     19.8062            19.811              19.8043            19.8091             
InVirTC2     2019-10-12T23:03:26Z    0.0087       99.7823   4.977057        4.976308        1026.7039  1026.7009  133.946     -1.914                0.08           0.1451         31.69462  -64.14608  2.3293        2.7015        6.3048    6.3476    134.926   36.689      36.6844     19.7531            19.7578             19.7512            19.7559             
InVirTC2     2019-10-12T23:03:26Z    0.0117       99.7069   4.983451        4.983136        1026.6959  1026.6956  134.04      1.026                 0.0958         0.1663         31.69318  -64.14844  2.3427        2.7133        6.3432    6.3667    135.021   36.6961     36.6952     19.8053            19.8101             19.8034            19.8082             
InVirTC2     2019-10-12T23:03:26Z    0.0086       99.786    4.976349        4.975604        1026.707   1026.7063  134.98      -1.698                0.0796         0.1268         31.69462  -64.14607  2.327         2.7013        6.2934    6.3448    135.968   36.6859     36.6834     19.7494            19.7542             19.7452            19.75               
InVirTC2     2019-10-12T23:03:26Z    0.0112       99.7203   4.983222        4.982932        1026.7007  1026.7003  135.091     0.383                 0.0844         0.1749         31.69318  -64.14845  2.3411        2.7134        6.3333    6.3759    136.08    36.6957     36.6946     19.8032            19.808              19.8017            19.8065             
InVirTC2     2019-10-12T23:03:26Z    0.0116       99.7098   4.981529        4.981176        1026.7087  1026.7084  135.961     0.464                 0.0855         0.1859         31.69317  -64.14844  2.3407        2.7139        6.3357    6.3827    136.957   36.6956     36.6944     19.787             19.7917             19.7849            19.7897             
InVirTC2     2019-10-12T23:03:26Z    0.0084       99.79     4.975227        4.974001        1026.7148  1026.7142  136.019     -1.303                0.0815         0.1262         31.69462  -64.14606  2.326         2.7004        6.29      6.3399    137.015   36.6861     36.6826     19.7381            19.7429             19.7305            19.7352             
InVirTC2     2019-10-12T23:03:26Z    0.0107       99.733    4.979932        4.979589        1026.7165  1026.7164  136.999     0.834                 0.0898         0.171          31.69317  -64.14844  2.3407        2.7131        6.3377    6.3774    138.003   36.6947     36.6938     19.7724            19.7771             19.7702            19.7749             
InVirTC2     2019-10-12T23:03:26Z    0.008        99.7991   4.973949        4.973822        1026.7238  1026.7241  137.061     -0.782                0.0787         0.1195         31.69462  -64.14607  2.3255        2.7007        6.2895    6.3438    138.065   36.6871     36.6871     19.7244            19.7291             19.7232            19.728              
InVirTC2     2019-10-12T23:03:26Z    0.0108       99.7312   4.978773        4.978386        1026.7235  1026.7234  138.066     0.756                 0.084          0.1598         31.69317  -64.14844  2.34          2.7134        6.3364    6.3837    139.078   36.694      36.693      19.7618            19.7665             19.7593            19.764              
InVirTC2     2019-10-12T23:03:26Z    0.0076       99.8107   4.974157        4.974086        1026.7311  1026.7277  138.235     -0.392                0.0767         0.1174         31.6946   -64.14609  2.3265        2.7012        6.2951    6.3546    139.249   36.6896     36.6862     19.7231            19.7278             19.7263            19.731              
InVirTC2     2019-10-12T23:03:26Z    0.0075       99.8113   4.971628        4.972132        1026.7368  1026.7324  138.881     -1.213                0.072          0.1257         31.69458  -64.14611  2.3266        2.6944        6.3098    6.3398    139.9     36.6862     36.6833     19.7028            19.7075             19.7108            19.7156             
InVirTC2     2019-10-12T23:03:26Z    0.011        99.7263   4.978072        4.977632        1026.7289  1026.7288  138.977     0.313                 0.0857         0.1415         31.69316  -64.14844  2.3377        2.7094        6.3281    6.3697    139.996   36.6936     36.6924     19.7553            19.76               19.7524            19.7571             
InVirTC2     2019-10-12T23:03:26Z    0.0106       99.7357   4.976288        4.975771        1026.7375  1026.7374  139.902     0.343                 0.0841         0.1357         31.69316  -64.14842  2.3353        2.7085        6.3212    6.3708    140.928   36.6936     36.6923     19.738             19.7427             19.7346            19.7393             
InVirTC2     2019-10-12T23:03:26Z    0.0068       99.8309   4.970528        4.96994         1026.742   1026.7392  139.98      -1.285                0.0725         0.1268         31.69458  -64.1461   2.3226        2.6935        6.2879    6.3405    141.006   36.6838     36.6798     19.6946            19.6993             19.6935            19.6983             
InVirTC2     2019-10-12T23:03:26Z    0.0066       99.8366   4.968952        4.966855        1026.7462  1026.7493  140.985     -1.039                0.0742         0.1216         31.69458  -64.14608  2.3215        2.6911        6.2847    6.333     142.019   36.6799     36.6778     19.6837            19.6884             19.6662            19.6709             
InVirTC2     2019-10-12T23:03:26Z    0.0108       99.7295   4.974474        4.974134        1026.7466  1026.7463  140.989     0.679                 0.0787         0.1456         31.69314  -64.14842  2.3322        2.7086        6.3083    6.3763    142.024   36.6932     36.6921     19.7208            19.7255             19.7188            19.7235             
InVirTC2     2019-10-12T23:03:26Z    0.0053       99.8676   4.966852        4.964607        1026.7579  1026.7607  142.008     -0.745                0.0737         0.1218         31.69458  -64.1461   2.3216        2.6897        6.2902    6.3295    143.051   36.6815     36.6789     19.6615            19.6662             19.6432            19.6479             
InVirTC2     2019-10-12T23:03:26Z    0.0096       99.7589   4.97299         4.972677        1026.7546  1026.7545  142.039     1.012                 0.0776         0.1402         31.69314  -64.14842  2.3312        2.7053        6.3122    6.3641    143.081   36.6928     36.692      19.7067            19.7114             19.7047            19.7095             
InVirTC2     2019-10-12T23:03:26Z    0.0056       99.8596   4.964126        4.963542        1026.7681  1026.7659  143.024     -0.617                0.0672         0.1268         31.69458  -64.1461   2.3218        2.69          6.3013    6.3384    144.074   36.6804     36.677      19.6365            19.6412             19.6349            19.6396             
InVirTC2     2019-10-12T23:03:26Z    0.0092       99.7698   4.972107        4.971596        1026.76    1026.7603  143.135     0.443                 0.0788         0.1262         31.69314  -64.14842  2.3287        2.7022        6.307     6.3587    144.186   36.6911     36.6903     19.6998            19.7045             19.696             19.7007             
InVirTC2     2019-10-12T23:03:26Z    0.0086       99.7854   4.969678        4.969168        1026.7688  1026.7687  143.958     0.35                  0.0702         0.1434         31.69314  -64.14843  2.3285        2.7004        6.3119    6.3551    145.015   36.6902     36.6889     19.6775            19.6822             19.6741            19.6788             
InVirTC2     2019-10-12T23:03:26Z    0.0062       99.8448   4.962202        4.961072        1026.779   1026.7783  143.973     -0.728                0.0656         0.117          31.69456  -64.14612  2.3187        2.6885        6.2887    6.3364    145.03    36.6821     36.6788     19.6159            19.6206             19.609             19.6137             
InVirTC2     2019-10-12T23:03:26Z    0.0064       99.8416   4.962538        4.962531        1026.7821  1026.7799  144.989     -0.956                0.0625         0.1195         31.69456  -64.14614  2.3171        2.6858        6.2803    6.3237    146.054   36.6815     36.6794     19.6193            19.624              19.6216            19.6264             
InVirTC2     2019-10-12T23:03:26Z    0.0082       99.7954   4.968283        4.96793         1026.7757  1026.7755  145.021     0.655                 0.0712         0.1343         31.69314  -64.14844  2.3275        2.6951        6.3095    6.3337    146.087   36.6889     36.6879     19.6653            19.67               19.6631            19.6678             
InVirTC2     2019-10-12T23:03:26Z    0.0055       99.863    4.961975        4.962164        1026.7862  1026.7831  145.97      -1.092                0.0592         0.1143         31.69456  -64.14614  2.3175        2.6864        6.2908    6.3354    147.043   36.6799     36.6774     19.6155            19.6202             19.62              19.6247             
InVirTC2     2019-10-12T23:03:26Z    0.0083       99.7924   4.967459        4.967134        1026.7814  1026.7811  145.995     0.622                 0.0724         0.1039         31.69314  -64.14844  2.3234        2.6949        6.2894    6.3467    147.068   36.6882     36.6872     19.6579            19.6626             19.656             19.6607             
InVirTC2     2019-10-12T23:03:26Z    0.0053       99.8666   4.961226        4.959935        1026.7914  1026.7914  146.993     -1.043                0.0596         0.0968         31.69456  -64.14614  2.317         2.685         6.2907    6.3293    148.074   36.6787     36.6757     19.6093            19.614              19.6005            19.6052             
InVirTC2     2019-10-12T23:03:26Z    0.0081       99.7968   4.965964        4.96557         1026.7895  1026.7893  147.023     0.534                 0.0679         0.1042         31.69312  -64.14842  2.321         2.6915        6.288     6.3341    148.104   36.6879     36.6869     19.6436            19.6484             19.6411            19.6458             
InVirTC2     2019-10-12T23:03:26Z    0.0078       99.8054   4.964242        4.96394         1026.7965  1026.796   147.951     0.422                 0.0658         0.1039         31.69312  -64.1484   2.3216        2.6933        6.2986    6.3511    149.039   36.6865     36.6854     19.6285            19.6332             19.6269            19.6316             
InVirTC2     2019-10-12T23:03:26Z    0.0053       99.8663   4.959799        4.958373        1026.7973  1026.7987  148.027     -0.826                0.0623         0.0902         31.69454  -64.14614  2.3141        2.6825        6.2786    6.3194    149.116   36.6765     36.6745     19.5978            19.6025             19.5866            19.5913             
InVirTC2     2019-10-12T23:03:26Z    0.0076       99.8102   4.963049        4.962716        1026.8039  1026.8035  148.992     0.554                 0.0656         0.11           31.69312  -64.1484   2.3216        2.6876        6.2995    6.3217    150.088   36.6863     36.6851     19.617             19.6217             19.6152            19.6199             
InVirTC2     2019-10-12T23:03:26Z    0.0051       99.8731   4.957731        4.956137        1026.8048  1026.8079  149.062     -0.549                0.0594         0.0828         31.69454  -64.14614  2.313         2.6823        6.276     6.3226    150.158   36.6743     36.6734     19.5803            19.585              19.5661            19.5708             
InVirTC2     2019-10-12T23:03:26Z    0.005        99.8737   4.954326        4.955534        1026.8199  1026.8154  150.006     -0.551                0.055          0.0828         31.69454  -64.14613  2.3122        2.683         6.2735    6.3288    151.11    36.6765     36.6751     19.5451            19.5498             19.5581            19.5628             
InVirTC2     2019-10-12T23:03:26Z    0.0076       99.8105   4.961794        4.961472        1026.8105  1026.8102  150.018     0.541                 0.0633         0.0846         31.69312  -64.1484   2.3204        2.6864        6.2952    6.329     151.122   36.6852     36.6841     19.606             19.6107             19.6041            19.6088             
InVirTC2     2019-10-12T23:03:26Z    0.0048       99.8804   4.954813        4.954189        1026.8234  1026.8211  150.953     -0.865                0.0544         0.0755         31.69453  -64.14615  2.3135        2.682         6.2824    6.3266    152.065   36.6769     36.6733     19.5488            19.5535             19.547             19.5517             
InVirTC2     2019-10-12T23:03:26Z    0.0067       99.8333   4.960578        4.960244        1026.8171  1026.8168  150.993     0.456                 0.0588         0.0801         31.69312  -64.1484   2.3202        2.6815        6.2983    6.3121    152.105   36.6844     36.6833     19.5949            19.5996             19.5929            19.5976             
InVirTC2     2019-10-12T23:03:26Z    0.0047       99.8814   4.952842        4.951487        1026.8305  1026.8311  151.97      -1.026                0.0524         0.0728         31.69452  -64.14614  2.3137        2.682         6.2824    6.3256    153.089   36.6746     36.672      19.5323            19.537              19.5224            19.5271             
InVirTC2     2019-10-12T23:03:26Z    0.0066       99.8357   4.958791        4.95846         1026.8249  1026.8245  151.99      0.486                 0.0577         0.078          31.69312  -64.14842  2.3163        2.6838        6.2812    6.333     153.109   36.6833     36.6822     19.5788            19.5835             19.577             19.5817             
InVirTC2     2019-10-12T23:03:26Z    0.0066       99.8354   4.957614        4.957291        1026.831   1026.8305  152.999     0.534                 0.0639         0.0755         31.6931   -64.14842  2.3151        2.684         6.2831    6.3317    154.126   36.682      36.6808     19.5687            19.5734             19.567             19.5717             
InVirTC2     2019-10-12T23:03:26Z    0.0043       99.8924   4.952567        4.950784        1026.8346  1026.8387  153.007     -0.992                0.051          0.0704         31.69452  -64.14614  2.3129        2.6821        6.2804    6.3268    154.134   36.6735     36.6731     19.5306            19.5353             19.5141            19.5187             
InVirTC2     2019-10-12T23:03:26Z    0.0066       99.836    4.957103        4.95679         1026.8358  1026.8354  153.939     0.453                 0.0574         0.0755         31.6931   -64.14842  2.3136        2.6801        6.2788    6.3142    155.074   36.6814     36.6803     19.5642            19.5689             19.5624            19.5671             
InVirTC2     2019-10-12T23:03:26Z    0.0042       99.8943   4.950983        4.950394        1026.8424  1026.8425  154.028     -0.903                0.0501         0.0708         31.69452  -64.14614  2.3146        2.6837        6.2912    6.3357    155.163   36.6728     36.6714     19.5159            19.5206             19.5118            19.5165             
InVirTC2     2019-10-12T23:03:26Z    0.0066       99.8352   4.95595         4.955608        1026.8438  1026.8435  155.018     0.546                 0.0605         0.0685         31.6931   -64.14842  2.3113        2.6797        6.2715    6.3221    156.16    36.6816     36.6805     19.5525            19.5572             19.5505            19.5552             
InVirTC2     2019-10-12T23:03:26Z    0.0036       99.9103   4.950352        4.949292        1026.8498  1026.8494  155.041     -0.855                0.0433         0.0516         31.69452  -64.14616  2.3144        2.6858        6.2974    6.3512    156.184   36.674      36.6711     19.5081            19.5128             19.5014            19.5061             
InVirTC2     2019-10-12T23:03:26Z    0.0079       99.8027   4.954564        4.954212        1026.8511  1026.8507  155.97      0.539                 0.0527         0.0675         31.6931   -64.14842  2.3127        2.6805        6.2869    6.3277    157.121   36.6812     36.68       19.5394            19.5441             19.5375            19.5422             
InVirTC2     2019-10-12T23:03:26Z    0.0035       99.9134   4.949604        4.949226        1026.8556  1026.8529  156.037     -0.832                0.0441         0.0462         31.6945   -64.14616  2.3135        2.6842        6.2936    6.3467    157.188   36.6734     36.67       19.5012            19.5059             19.5015            19.5062             
InVirTC2     2019-10-12T23:03:26Z    0.0032       99.9213   4.948709        4.946747        1026.8598  1026.8614  157.015     -0.794                0.0411         0.0462         31.6945   -64.14618  2.3124        2.6824        6.2872    6.3507    158.174   36.6711     36.668      19.4949            19.4996             19.4798            19.4845             
InVirTC2     2019-10-12T23:03:26Z    0.0055       99.8627   4.952759        4.952445        1026.8601  1026.8599  157.046     0.676                 0.0453         0.0609         31.6931   -64.14842  2.314         2.6827        6.2931    6.3405    158.204   36.6808     36.6798     19.5223            19.527              19.5204            19.5251             
InVirTC2     2019-10-12T23:03:26Z    0.0054       99.8638   4.952098        4.95185         1026.8646  1026.864   157.915     0.327                 0.0497         0.0476         31.6931   -64.1484   2.3155        2.6846        6.2992    6.3448    159.08    36.6798     36.6787     19.5168            19.5214             19.5157            19.5204             
InVirTC2     2019-10-12T23:03:26Z    0.003        99.9267   4.947621        4.946364        1026.8665  1026.8666  157.97      -0.734                0.0439         0.0462         31.6945   -64.14618  2.312         2.6794        6.2872    6.3358    159.136   36.6708     36.6679     19.4846            19.4892             19.4759            19.4806             
InVirTC2     2019-10-12T23:03:26Z    0.005        99.8736   4.950625        4.95028         1026.8727  1026.8724  158.977     0.53                  0.0486         0.0533         31.69308  -64.14838  2.3172        2.6879        6.3103    6.3612    160.151   36.6795     36.6783     19.5027            19.5074             19.5008            19.5055             
InVirTC2     2019-10-12T23:03:26Z    0.0029       99.9287   4.946423        4.946226        1026.8745  1026.8708  159.005     -0.711                0.0418         0.051          31.6945   -64.14618  2.3125        2.6768        6.2867    6.3219    160.179   36.6711     36.6672     19.4724            19.477              19.475             19.4797             
InVirTC2     2019-10-12T23:03:26Z    0.0023       99.9413   4.94459         4.94443         1026.8839  1026.8819  160         -0.775                0.0409         0.0389         31.69448  -64.14618  2.3148        2.6781        6.2981    6.3264    161.182   36.6715     36.6692     19.4541            19.4588             19.4553            19.4599             
InVirTC2     2019-10-12T23:03:26Z    0.0041       99.8969   4.949165        4.948852        1026.8796  1026.8792  160.017     0.651                 0.0444         0.0418         31.69308  -64.14838  2.3167        2.6883        6.3042    6.3602    161.198   36.6781     36.677      19.49              19.4947             19.4882            19.4929             
InVirTC2     2019-10-12T23:03:26Z    0.0044       99.8889   4.948737        4.948438        1026.8843  1026.884   160.98      0.512                 0.0438         0.0411         31.69308  -64.1484   2.3177        2.6916        6.3134    6.3752    162.169   36.6774     36.6765     19.4863            19.491              19.4846            19.4892             
InVirTC2     2019-10-12T23:03:26Z    0.0024       99.9396   4.943447        4.94262         1026.8911  1026.8884  160.997     -0.85                 0.0479         0.0316         31.69448  -64.14618  2.3169        2.6807        6.3146    6.3344    162.186   36.6713     36.6669     19.4431            19.4477             19.4403            19.445              
InVirTC2     2019-10-12T23:03:26Z    0.0041       99.8974   4.947851        4.947513        1026.8913  1026.8909  161.984     0.621                 0.0426         0.0416         31.69308  -64.1484   2.3163        2.6918        6.3029    6.3739    163.181   36.6777     36.6766     19.4772            19.4818             19.4752            19.4799             
InVirTC2     2019-10-12T23:03:26Z    0.0023       99.9411   4.942692        4.943106        1026.8962  1026.893   162.026     -0.915                0.0438         0.0316         31.69448  -64.14618  2.3172        2.6823        6.3156    6.3393    163.223   36.67       36.668      19.437             19.4416             19.4432            19.4479             
InVirTC2     2019-10-12T23:03:26Z    0.0022       99.9442   4.941615        4.942232        1026.9034  1026.8985  163.024     -0.959                0.0391         0.0283         31.69448  -64.1462   2.3165        2.6869        6.3153    6.36      164.229   36.67       36.6668     19.4263            19.431              19.4358            19.4404             
InVirTC2     2019-10-12T23:03:26Z    0.0038       99.9047   4.946146        4.945903        1026.8994  1026.8987  163.19      0.381                 0.0407         0.0415         31.69308  -64.1484   2.3167        2.6895        6.3133    6.3659    164.397   36.6762     36.675      19.4622            19.4669             19.4613            19.4659             
InVirTC2     2019-10-12T23:03:26Z    0.0038       99.9062   4.945242        4.944712        1026.9045  1026.9048  163.909     0.272                 0.0367         0.0462         31.69306  -64.1484   2.3186        2.6857        6.3215    6.3509    165.121   36.6759     36.6749     19.4537            19.4584             19.4497            19.4544             
InVirTC2     2019-10-12T23:03:26Z    0.0014       99.965    4.941218        4.941441        1026.9097  1026.905   163.995     -1.035                0.0383         0.0242         31.69446  -64.1462   2.3168        2.6878        6.3208    6.3652    165.208   36.6709     36.667      19.4212            19.4258             19.4276            19.4323             
InVirTC2     2019-10-12T23:03:26Z    0.0035       99.9127   4.943876        4.943564        1026.9117  1026.9114  164.978     0.704                 0.0381         0.0452         31.69306  -64.1484   2.3179        2.6846        6.3176    6.3522    166.199   36.6749     36.6739     19.4414            19.446              19.4396            19.4442             
InVirTC2     2019-10-12T23:03:26Z    0.0014       99.9658   4.941061        4.94025         1026.9129  1026.9125  164.978     -1.075                0.0444         0.0242         31.69446  -64.14622  2.3169        2.6893        6.3215    6.3784    166.199   36.6694     36.6671     19.4209            19.4255             19.4158            19.4205             
InVirTC2     2019-10-12T23:03:26Z    0.0034       99.9149   4.943188        4.942878        1026.9179  1026.9175  165.997     1.003                 0.0378         0.0316         31.69306  -64.1484   2.3173        2.6882        6.3167    6.3747    167.225   36.6747     36.6737     19.4346            19.4392             19.4329            19.4375             
InVirTC2     2019-10-12T23:03:26Z    0.0013       99.967    4.940208        4.939536        1026.9181  1026.9184  166.001     -0.941                0.0373         0.0242         31.69446  -64.14622  2.3152        2.6887        6.3089    6.3834    167.229   36.668      36.6666     19.414             19.4187             19.4092            19.4138             
InVirTC2     2019-10-12T23:03:26Z    0.0013       99.967    4.938856        4.938435        1026.927   1026.9256  167.024     -0.644                0.0338         0.0236         31.69446  -64.14618  2.3158        2.6865        6.3187    6.3667    168.261   36.6688     36.6665     19.3998            19.4045             19.3984            19.403              
InVirTC2     2019-10-12T23:03:26Z    0.0034       99.9152   4.941924        4.941626        1026.9257  1026.9253  167.066     1.086                 0.0329         0.0316         31.69307  -64.1484   2.3176        2.6884        6.3214    6.3798    168.302   36.6746     36.6736     19.4223            19.427              19.4206            19.4253             
InVirTC2     2019-10-12T23:03:26Z    0.0036       99.9101   4.942067        4.941655        1026.9272  1026.9272  167.806     0.277                 0.0385         0.0314         31.69307  -64.1484   2.317         2.6873        6.3193    6.3684    169.048   36.6733     36.6723     19.4248            19.4295             19.422             19.4267             
InVirTC2     2019-10-12T23:03:26Z    0.0013       99.967    4.938664        4.938178        1026.9335  1026.9321  168.079     -0.399                0.0335         0.0205         31.69445  -64.14622  2.3168        2.686         6.324     6.367     169.323   36.67       36.6676     19.3961            19.4008             19.3943            19.399              
InVirTC2     2019-10-12T23:03:26Z    0.0013       99.967    4.938205        4.937879        1026.9383  1026.9364  168.92      -0.92                 0.0339         0.0209         31.69444  -64.14623  2.3168        2.6874        6.3215    6.3701    170.17    36.6699     36.6673     19.3916            19.3962             19.3914            19.396              
InVirTC2     2019-10-12T23:03:26Z    0.0031       99.9228   4.939976        4.939657        1026.9374  1026.9369  168.994     0.503                 0.0378         0.0358         31.69306  -64.1484   2.3165        2.6844        6.3251    6.3581    170.245   36.6729     36.6717     19.4049            19.4096             19.4033            19.4079             
InVirTC2     2019-10-12T23:03:26Z    0.0008       99.9792   4.937447        4.937545        1026.9437  1026.9407  169.962     -1.499                0.0311         0.0218         31.69444  -64.14622  2.3181        2.6898        6.3362    6.3874    171.221   36.6687     36.6662     19.3852            19.3899             19.389             19.3937             
InVirTC2     2019-10-12T23:03:26Z    0.0024       99.9399   4.939701        4.939375        1026.9426  1026.9423  170.04      0.637                 0.0294         0.0255         31.69306  -64.1484   2.3157        2.6879        6.3192    6.3819    171.299   36.6727     36.6716     19.402             19.4067             19.4002            19.4049             
InVirTC2     2019-10-12T23:03:26Z    0.0004       99.9895   4.937563        4.936983        1026.9487  1026.9474  170.999     -1.554                0.0338         0.0242         31.69444  -64.14622  2.3186        2.6894        6.3365    6.3888    172.267   36.6694     36.6667     19.3851            19.3898             19.3826            19.3873             
InVirTC2     2019-10-12T23:03:26Z    0.0024       99.9405   4.939371        4.939057        1026.9478  1026.9474  171.052     0.6                   0.0318         0.0229         31.69306  -64.1484   2.3188        2.6903        6.3385    6.3891    172.319   36.6725     36.6715     19.3987            19.4034             19.397             19.4016             
InVirTC2     2019-10-12T23:03:26Z    0.0023       99.9421   4.939011        4.93871         1026.9526  1026.9523  171.951     0.492                 0.0306         0.0242         31.69306  -64.1484   2.32          2.6901        6.341     6.3841    173.226   36.6724     36.6714     19.395             19.3997             19.3933            19.398              
InVirTC2     2019-10-12T23:03:26Z    0.0006       99.9848   4.937371        4.936297        1026.9522  1026.9518  171.999     -1.411                0.0362         0.0242         31.69444  -64.14623  2.317         2.6885        6.3272    6.3858    173.274   36.668      36.6651     19.3845            19.3891             19.3776            19.3823             
InVirTC2     2019-10-12T23:03:26Z    0.0017       99.9573   4.938668        4.938354        1026.9584  1026.9579  172.985     0.714                 0.0298         0.0242         31.69305  -64.1484   2.3198        2.6905        6.3383    6.3879    174.268   36.6726     36.6715     19.3911            19.3957             19.3894            19.394              
InVirTC2     2019-10-12T23:03:26Z    0.0013       99.9681   4.936584        4.935574        1026.9583  1026.9585  173.02      -1.117                0.0375         0.0242         31.69444  -64.14624  2.3161        2.6868        6.3273    6.3768    174.303   36.6675     36.6654     19.3771            19.3818             19.37              19.3746             
InVirTC2     2019-10-12T23:03:26Z    0.002        99.9508   4.938514        4.938172        1026.962   1026.9615  173.843     0.219                 0.0328         0.0255         31.69306  -64.1484   2.3178        2.6872        6.3314    6.3747    175.132   36.672      36.6708     19.3899            19.3946             19.3881            19.3927             
InVirTC2     2019-10-12T23:03:26Z    0.0002       99.9941   4.93564         4.935446        1026.9666  1026.9651  174.058     -0.676                0.0347         0.0222         31.69444  -64.1462   2.3175        2.6859        6.3335    6.3694    175.35    36.6687     36.6668     19.3663            19.371              19.3666            19.3713             
InVirTC2     2019-10-12T23:03:26Z    0.0017       99.9589   4.937336        4.93701         1026.9705  1026.97    174.996     0.717                 0.0314         0.0238         31.69304  -64.14838  2.318         2.684         6.3322    6.3681    176.294   36.6724     36.6712     19.3778            19.3825             19.3761            19.3807             
InVirTC2     2019-10-12T23:03:26Z    0.0003       99.9914   4.936239        4.935891        1026.9705  1026.9686  175.287     -0.285                0.0324         0.0157         31.69442  -64.14624  2.3171        2.6881        6.3379    6.3857    176.588   36.6686     36.666      19.3716            19.3762             19.3713            19.376              
InVirTC2     2019-10-12T23:03:26Z    0.0002       99.9932   4.934723        4.934596        1026.9763  1026.974   175.907     -1.386                0.0285         0.0096         31.69442  -64.14627  2.3134        2.6867        6.3241    6.3861    177.213   36.6679     36.6654     19.3577            19.3624             19.3594            19.364              
InVirTC2     2019-10-12T23:03:26Z    0.0014       99.9646   4.936764        4.936464        1026.9758  1026.9753  176.01      1.191                 0.0304         0.0237         31.69304  -64.14838  2.3176        2.6864        6.3358    6.3774    177.316   36.6717     36.6706     19.3727            19.3774             19.3711            19.3758             
InVirTC2     2019-10-12T23:03:26Z    0.0003       99.9908   4.934543        4.933997        1026.9815  1026.9795  176.986     -1.662                0.0243         0.0096         31.69442  -64.14625  2.3115        2.6847        6.3191    6.3805    178.3     36.6678     36.6646     19.3557            19.3603             19.3541            19.3587             
InVirTC2     2019-10-12T23:03:26Z    0.0014       99.9654   4.936526        4.936238        1026.9806  1026.9802  177.014     1.458                 0.0329         0.0242         31.69305  -64.14839  2.3166        2.6894        6.3311    6.3979    178.329   36.6715     36.6704     19.3703            19.375              19.3688            19.3734             
InVirTC2     2019-10-12T23:03:26Z    0.0015       99.9638   4.936747        4.93618         1026.9832  1026.9834  177.803     0.576                 0.0293         0.024          31.69305  -64.14839  2.3171        2.6873        6.3349    6.3856    179.124   36.6711     36.6699     19.3725            19.3772             19.3685            19.3731             
InVirTC2     2019-10-12T23:03:26Z    0.0003       99.9922   4.934044        4.933578        1026.9856  1026.984   177.967     -1.54                 0.0205         0.0091         31.69442  -64.14624  2.3126        2.6843        6.3257    6.3838    179.289   36.6664     36.6637     19.3522            19.3568             19.3508            19.3554             
InVirTC2     2019-10-12T23:03:26Z    0.0003       99.9924   4.933711        4.932758        1026.9911  1026.9905  178.999     -1.249                0.0238         0.014          31.6944   -64.14624  2.312         2.6843        6.3241    6.3866    180.329   36.6664     36.6636     19.3486            19.3532             19.3427            19.3473             
InVirTC2     2019-10-12T23:03:26Z    0.0013       99.9669   4.93554         4.935049        1026.9913  1026.991   179.001     0.862                 0.0303         0.0242         31.69305  -64.14838  2.3183        2.6855        6.3444    6.3818    180.331   36.6708     36.6694     19.3609            19.3655             19.3579            19.3625             
InVirTC2     2019-10-12T23:03:26Z    0.0002       99.9941   4.932808        4.932334        1026.9961  1026.9955  180.031     -0.877                0.0258         0.0169         31.6944   -64.14624  2.3113        2.6825        6.3254    6.3796    181.369   36.6646     36.6629     19.3416            19.3462             19.3391            19.3437             
InVirTC2     2019-10-12T23:03:26Z    0.0013       99.9681   4.933884        4.933587        1026.999   1026.9986  180.054     1.024                 0.0335         0.0242         31.69306  -64.14838  2.3167        2.685         6.3354    6.3785    181.392   36.6698     36.6686     19.3459            19.3506             19.3444            19.349              
InVirTC2     2019-10-12T23:03:26Z    0.0014       99.9666   4.934111        4.933547        1027.0022  1027.0024  180.861     0.295                 0.0345         0.024          31.69305  -64.14838  2.3151        2.685         6.3323    6.3836    182.206   36.6699     36.6687     19.3476            19.3523             19.3435            19.3482             
InVirTC2     2019-10-12T23:03:26Z    -0.0005      100.0111  4.932464        4.931744        1027.0038  1027.0018  181.061     -0.497                0.0307         0.0169         31.6944   -64.14624  2.3107        2.6807        6.3231    6.3789    182.407   36.6666     36.6631     19.3356            19.3402             19.3328            19.3374             
InVirTC2     2019-10-12T23:03:26Z    0.0013       99.9669   4.932839        4.932531        1027.0097  1027.0092  181.993     0.825                 0.0327         0.0242         31.69304  -64.14838  2.3153        2.6863        6.3369    6.3921    183.347   36.6691     36.6679     19.3359            19.3406             19.3343            19.339              
InVirTC2     2019-10-12T23:03:26Z    0            99.9996   4.932464        4.932324        1027.0073  1027.0049  182.087     -0.444                0.0295         0.017          31.6944   -64.14628  2.3087        2.6765        6.3167    6.3646    183.441   36.6655     36.663      19.3363            19.341              19.3379            19.3425             
InVirTC2     2019-10-12T23:03:26Z    0            99.9989   4.931616        4.930427        1027.0121  1027.0112  182.952     -1.443                0.0307         0.0164         31.69439  -64.14629  2.307         2.672         6.3116    6.3467    184.313   36.6645     36.6608     19.3291            19.3338             19.322             19.3267             
InVirTC2     2019-10-12T23:03:26Z    0.0012       99.97     4.932053        4.931746        1027.0153  1027.0149  183.05      1.052                 0.03           0.0219         31.69304  -64.14838  2.3133        2.6858        6.3267    6.3894    184.412   36.6681     36.667      19.3292            19.3338             19.3275            19.3321             
InVirTC2     2019-10-12T23:03:26Z    0.0013       99.9675   4.93234         4.931789        1027.0173  1027.017   183.837     0.231                 0.028          0.0154         31.69306  -64.14838  2.3135        2.682         6.3305    6.3744    185.205   36.6673     36.6658     19.3324            19.3371             19.3289            19.3336             
InVirTC2     2019-10-12T23:03:26Z    -0.0002      100.0048  4.930096        4.929389        1027.0173  1027.017   183.989     -1.607                0.0291         0.0096         31.69438  -64.14629  2.3062        2.6722        6.3065    6.3501    185.359   36.6614     36.6595     19.3177            19.3223             19.3132            19.3178             
InVirTC2     2019-10-12T23:03:26Z    0.0005       99.9873   4.930071        4.929754        1027.0268  1027.0263  184.959     0.684                 0.0271         0.0242         31.69304  -64.14838  2.3125        2.6805        6.3342    6.3771    186.336   36.6662     36.665      19.3117            19.3163             19.31              19.3147             
InVirTC2     2019-10-12T23:03:26Z    0.0013       99.9681   4.929568        4.928283        1027.0233  1027.0228  185.024     -1.389                0.0319         0.0091         31.69438  -64.14628  2.3052        2.6729        6.3033    6.3509    186.401   36.6615     36.6579     19.3122            19.3168             19.304             19.3086             
InVirTC2     2019-10-12T23:03:26Z    0.0003       99.9906   4.928377        4.928077        1027.0335  1027.0328  185.987     1.091                 0.0303         0.0237         31.69304  -64.14838  2.3106        2.6809        6.3277    6.3764    187.372   36.6641     36.6627     19.2975            19.3021             19.2962            19.3008             
InVirTC2     2019-10-12T23:03:26Z    -0.0003      100.008   4.928747        4.927518        1027.0278  1027.0283  186.027     -1.023                0.0302         0.0096         31.69438  -64.14628  2.3065        2.6723        6.3084    6.3494    187.412   36.6595     36.657      19.3062            19.3108             19.2973            19.3019             
InVirTC2     2019-10-12T23:03:26Z    0.0003       99.9926   4.927497        4.927215        1027.0379  1027.0375  186.986     1.365                 0.0292         0.0238         31.69304  -64.14838  2.3093        2.6803        6.3177    6.3791    188.38    36.662      36.6609     19.2911            19.2957             19.2896            19.2943             
InVirTC2     2019-10-12T23:03:26Z    -0.0007      100.0175  4.927267        4.926387        1027.0361  1027.0355  187.065     -0.584                0.0257         0.0092         31.69438  -64.14628  2.3066        2.6734        6.3127    6.3542    188.459   36.6594     36.6568     19.2918            19.2964             19.2864            19.2911             
InVirTC2     2019-10-12T23:03:26Z    0.0002       99.9931   4.927727        4.927164        1027.0413  1027.0411  188.039     0.746                 0.0262         0.0108         31.69306  -64.14837  2.3019        2.6719        6.2888    6.3487    189.44    36.6613     36.6598     19.2937            19.2983             19.29              19.2947             
InVirTC2     2019-10-12T23:03:26Z    -0.0007      100.0167  4.92791         4.927476        1027.0408  1027.0392  188.144     -0.336                0.0233         0.0122         31.69438  -64.14631  2.3076        2.6757        6.3188    6.3632    189.547   36.6608     36.6583     19.2959            19.3005             19.2946            19.2992             
InVirTC2     2019-10-12T23:03:26Z    -0.0007      100.0165  4.926195        4.925858        1027.0473  1027.0452  188.917     -0.948                0.0225         0.0098         31.69437  -64.14635  2.3084        2.6776        6.3188    6.3676    190.326   36.6596     36.6569     19.2807            19.2853             19.2805            19.2852             
InVirTC2     2019-10-12T23:03:26Z    0.0004       99.9904   4.927098        4.926791        1027.0471  1027.0465  189.007     1.165                 0.0306         0.0169         31.69304  -64.14836  2.3028        2.6711        6.3193    6.3696    190.416   36.6612     36.6599     19.2874            19.292              19.2859            19.2906             
InVirTC2     2019-10-12T23:03:26Z    -0.0007      100.0177  4.925941        4.925577        1027.0522  1027.0502  189.968     -1.339                0.0227         0.0129         31.69436  -64.14632  2.311         2.6819        6.3357    6.3881    191.385   36.6592     36.6564     19.2782            19.2828             19.2779            19.2826             
InVirTC2     2019-10-12T23:03:26Z    0.0002       99.9941   4.927182        4.926886        1027.0521  1027.0516  190.023     1.559                 0.0301         0.0169         31.69305  -64.14836  2.3027        2.6695        6.3199    6.3613    191.44    36.6617     36.6606     19.2871            19.2917             19.2856            19.2902             
InVirTC2     2019-10-12T23:03:26Z    -0.0007      100.0186  4.925842        4.92517         1027.0566  1027.0558  190.995     -1.209                0.0276         0.0165         31.69436  -64.1463   2.3113        2.6818        6.3392    6.3905    192.42    36.6588     36.6564     19.2773            19.282              19.2737            19.2783             
InVirTC2     2019-10-12T23:03:26Z    0.0002       99.9941   4.926994        4.926703        1027.0586  1027.0581  191.021     1.745                 0.026          0.0169         31.69306  -64.14836  2.3008        2.6642        6.3024    6.3304    192.446   36.6632     36.662      19.2832            19.2878             19.2818            19.2864             
InVirTC2     2019-10-12T23:03:26Z    0.0002       99.9935   4.926717        4.926152        1027.0613  1027.0614  191.902     0.702                 0.0224         0.0139         31.69307  -64.14836  2.2995        2.666         6.2895    6.338     193.334   36.6614     36.6601     19.2823            19.2869             19.2783            19.283              
InVirTC2     2019-10-12T23:03:26Z    -0.0007      100.0174  4.92502         4.924614        1027.0627  1027.0626  192.022     -0.912                0.0294         0.0096         31.69436  -64.14629  2.3111        2.6818        6.3401    6.396     193.455   36.6581     36.6571     19.2698            19.2744             19.2671            19.2717             
InVirTC2     2019-10-12T23:03:26Z    0.0011       99.9718   4.926117        4.925782        1027.0673  1027.0671  193.005     0.933                 0.0195         0.0127         31.69306  -64.14834  2.3002        2.6667        6.3035    6.35      194.446   36.6609     36.66       19.2766            19.2813             19.2745            19.2792             
InVirTC2     2019-10-12T23:03:26Z    -0.0008      100.0191  4.924474        4.92424         1027.0709  1027.0677  193.057     -0.647                0.026          0.0087         31.69436  -64.1463   2.3104        2.6812        6.3344    6.3972    194.498   36.6603     36.6567     19.2617            19.2664             19.2636            19.2682             
InVirTC2     2019-10-12T23:03:26Z    -0.0008      100.0188  4.925004        4.923948        1027.0738  1027.0731  194.013     -0.903                0.0272         0.0141         31.69436  -64.14633  2.3108        2.6784        6.3421    6.3874    195.462   36.6602     36.657      19.2665            19.2711             19.26              19.2646             
InVirTC2     2019-10-12T23:03:26Z    0.0003       99.9912   4.926112        4.9257          1027.0738  1027.0733  194.06      1.112                 0.0214         0.0131         31.69307  -64.14834  2.3019        2.6692        6.3083    6.3598    195.509   36.6626     36.6611     19.2742            19.2788             19.2719            19.2766             
InVirTC2     2019-10-12T23:03:26Z    -0.0007      100.0166  4.924618        4.923359        1027.076   1027.078   194.973     -1.344                0.0262         0.0106         31.69436  -64.14636  2.3103        2.6769        6.3373    6.3881    196.43    36.6573     36.6562     19.2657            19.2703             19.2549            19.2595             
InVirTC2     2019-10-12T23:03:26Z    0.0001       99.9977   4.92617         4.925801        1027.0775  1027.0772  194.996     0.356                 0.0293         0.0143         31.69306  -64.14834  2.3073        2.6792        6.3336    6.3958    196.453   36.6622     36.6611     19.2748            19.2794             19.2726            19.2772             
InVirTC2     2019-10-12T23:03:26Z    -0.0002      100.004   4.926001        4.925679        1027.083   1027.0825  195.953     0.454                 0.0319         0.0135         31.69305  -64.14834  2.3113        2.6829        6.3444    6.3988    197.417   36.6629     36.6618     19.272             19.2766             19.2702            19.2749             
InVirTC2     2019-10-12T23:03:26Z    -0.0008      100.0201  4.923096        4.922473        1027.0842  1027.0833  195.995     -1.208                0.0227         0.0169         31.69436  -64.14636  2.3091        2.6753        6.3361    6.3853    197.46    36.657      36.6548     19.251             19.2557             19.2477            19.2523             
InVirTC2     2019-10-12T23:03:26Z    0.0002       99.9941   4.925595        4.925285        1027.0885  1027.0879  196.994     0.775                 0.0239         0.0169         31.69306  -64.14834  2.3134        2.6814        6.3598    6.3908    198.466   36.6628     36.6615     19.2678            19.2725             19.2664            19.271              
InVirTC2     2019-10-12T23:03:26Z    -0.0007      100.0186  4.922206        4.922137        1027.0917  1027.0905  197.013     -0.8                  0.0193         0.0169         31.69435  -64.14635  2.3099        2.6736        6.3471    6.3743    198.486   36.6578     36.6564     19.2413            19.2459             19.2422            19.2468             
InVirTC2     2019-10-12T23:03:26Z    0.0001       99.996    4.924863        4.924612        1027.0943  1027.0936  198.127     0.489                 0.0213         0.0148         31.69307  -64.14833  2.312         2.6819        6.3452    6.395     199.609   36.6617     36.6604     19.2616            19.2662             19.2607            19.2653             
InVirTC2     2019-10-12T23:03:26Z    -0.0012      100.031   4.922305        4.922472        1027.0979  1027.0945  198.263     -0.527                0.0249         0.011          31.69434  -64.14635  2.3092        2.6761        6.3366    6.372     199.745   36.6585     36.6558     19.2408            19.2455             19.2456            19.2502             
InVirTC2     2019-10-12T23:03:26Z    -0.0001      100.0028  4.924337        4.92389         1027.0994  1027.099   198.9       0.303                 0.0243         0.0096         31.69306  -64.14836  2.3092        2.6814        6.3315    6.3984    200.388   36.662      36.6606     19.2559            19.2606             19.2533            19.2579             
InVirTC2     2019-10-12T23:03:26Z    -0.0009      100.0226  4.921577        4.921239        1027.1017  1027.0992  198.943     -1.775                0.0317         0.0106         31.69434  -64.14638  2.3119        2.6818        6.3557    6.4066    200.431   36.6575     36.6543     19.2348            19.2394             19.2352            19.2398             
InVirTC2     2019-10-12T23:03:26Z    -0.0007      100.0182  4.920927        4.920548        1027.107   1027.1049  199.999     -1.908                0.0288         0.0169         31.69434  -64.14638  2.3126        2.6825        6.363     6.4126    201.496   36.6565     36.6536     19.2293            19.2339             19.229             19.2336             
InVirTC2     2019-10-12T23:03:26Z    0.0001       99.9973   4.923136        4.922828        1027.106   1027.1054  200.026     0.797                 0.0233         0.0105         31.69306  -64.14834  2.3069        2.6815        6.3244    6.3991    201.522   36.6607     36.6594     19.2456            19.2502             19.2441            19.2487             
InVirTC2     2019-10-12T23:03:26Z    -0.0007      100.0179  4.920427        4.919927        1027.1123  1027.1108  200.985     -1.846                0.0234         0.0126         31.69434  -64.14638  2.3113        2.6805        6.3561    6.4081    202.489   36.6561     36.6536     19.2246            19.2292             19.2227            19.2273             
InVirTC2     2019-10-12T23:03:26Z    -0.0004      100.0103  4.923351        4.923001        1027.1126  1027.1122  201.272     0.516                 0.024          0.0136         31.69307  -64.14832  2.3101        2.6836        6.3493    6.4108    202.778   36.662      36.6609     19.2455            19.2501             19.2435            19.2481             
InVirTC2     2019-10-12T23:03:26Z    -0.0006      100.0152  4.923175        4.922741        1027.1161  1027.1158  201.888     0.23                  0.0268         0.0096         31.69306  -64.14832  2.3169        2.6903        6.3791    6.4353    203.399   36.6623     36.661      19.2433            19.2479             19.2406            19.2452             
InVirTC2     2019-10-12T23:03:26Z    -0.0008      100.0201  4.920105        4.919519        1027.1172  1027.1162  201.952     -1.68                 0.0231         0.0023         31.69434  -64.14638  2.31          2.6793        6.3462    6.407     203.464   36.6559     36.6536     19.2214            19.226              19.2184            19.223              
InVirTC2     2019-10-12T23:03:26Z    -0.0006      100.0139  4.922338        4.922025        1027.1232  1027.1226  202.946     0.724                 0.0247         0.0093         31.69306  -64.14832  2.3168        2.6879        6.3731    6.4173    204.466   36.6626     36.6613     19.2345            19.2391             19.233             19.2376             
InVirTC2     2019-10-12T23:03:26Z    -0.0007      100.0182  4.919848        4.919148        1027.1229  1027.1223  202.98      -1.403                0.0249         0.0023         31.69434  -64.14636  2.3088        2.6783        6.333     6.4007    204.501   36.6563     36.6541     19.218             19.2226             19.2139            19.2185             
InVirTC2     2019-10-12T23:03:26Z    -0.0007      100.0172  4.922189        4.92188         1027.1278  1027.1273  203.934     0.983                 0.0288         0.0096         31.69306  -64.14833  2.3175        2.6897        6.3721    6.4243    205.462   36.6624     36.6612     19.2329            19.2376             19.2314            19.236              
InVirTC2     2019-10-12T23:03:26Z    -0.0009      100.022   4.91965         4.918905        1027.1283  1027.1284  204.018     -1.016                0.0253         0.0023         31.69434  -64.14636  2.3086        2.6764        6.327     6.3804    205.546   36.6565     36.6549     19.2155            19.2201             19.2102            19.2148             
InVirTC2     2019-10-12T23:03:26Z    -0.0007      100.0186  4.922106        4.921789        1027.1328  1027.1321  204.983     1.187                 0.0315         0.0096         31.69306  -64.14833  2.319         2.6898        6.3841    6.4344    206.519   36.6624     36.6611     19.2317            19.2363             19.2302            19.2348             
InVirTC2     2019-10-12T23:03:26Z    -0.0016      100.0422  4.919233        4.919063        1027.1353  1027.1333  205.03      -0.534                0.0262         0.0059         31.69434  -64.14636  2.3104        2.6746        6.3389    6.3581    206.567   36.6579     36.6556     19.2095            19.2141             19.2105            19.2151             
InVirTC2     2019-10-12T23:03:26Z    -0.0007      100.0166  4.921968        4.92167         1027.1379  1027.1372  206.025     1.385                 0.026          0.0096         31.69306  -64.1483   2.3199        2.6907        6.392     6.4355    207.57    36.6625     36.6611     19.2298            19.2344             19.2285            19.2331             
InVirTC2     2019-10-12T23:03:26Z    -0.0014      100.0346  4.919464        4.919359        1027.1391  1027.1364  206.101     -0.305                0.0272         0.006          31.69432  -64.14641  2.3182        2.6872        6.3765    6.4203    207.647   36.6574     36.6547     19.2117            19.2163             19.2139            19.2185             
InVirTC2     2019-10-12T23:03:26Z    -0.0017      100.0431  4.918721        4.918391        1027.1455  1027.1428  206.919     -1.351                0.0274         0.0096         31.69432  -64.14642  2.3211        2.6898        6.3929    6.4347    208.471   36.6582     36.655      19.2034            19.208              19.204             19.2086             
InVirTC2     2019-10-12T23:03:26Z    -0.0007      100.017   4.921693        4.921403        1027.1432  1027.1425  207.049     1.532                 0.0244         0.0096         31.69308  -64.1483   2.319         2.6929        6.3853    6.4448    208.602   36.6625     36.6612     19.2267            19.2313             19.2255            19.2301             
InVirTC2     2019-10-12T23:03:26Z    -0.0017      100.0447  4.91853         4.918169        1027.1492  1027.1486  207.944     -1.521                0.0228         0.0055         31.69432  -64.14642  2.321         2.6895        6.3961    6.4343    209.504   36.6569     36.6556     19.2026            19.2072             19.2008            19.2054             
InVirTC2     2019-10-12T23:03:26Z    -0.0007      100.0164  4.921319        4.921029        1027.148   1027.1476  208.097     1.389                 0.0264         0.0096         31.69308  -64.1483   2.3189        2.6941        6.3811    6.4533    209.658   36.6617     36.6606     19.2236            19.2282             19.2221            19.2267             
InVirTC2     2019-10-12T23:03:26Z    -0.0007      100.0168  4.921485        4.92108         1027.1511  1027.1506  208.881     0.444                 0.0293         0.0128         31.69307  -64.1483   2.3189        2.6928        6.3836    6.4403    210.448   36.6617     36.6603     19.2249            19.2295             19.2227            19.2273             
InVirTC2     2019-10-12T23:03:26Z    -0.0017      100.0429  4.917852        4.91782         1027.1568  1027.1536  209.04      -1.487                0.0248         0.0023         31.69432  -64.14642  2.321         2.6891        6.3965    6.4334    210.608   36.6579     36.6548     19.1946            19.1992             19.1979            19.2025             
InVirTC2     2019-10-12T23:03:26Z    -0.0005      100.0122  4.921089        4.92083         1027.1577  1027.1572  209.972     0.584                 0.0225         0.0159         31.69306  -64.14831  2.3174        2.6937        6.3755    6.4459    211.549   36.6624     36.6613     19.2199            19.2245             19.2186            19.2233             
InVirTC2     2019-10-12T23:03:26Z    -0.0017      100.0426  4.917744        4.917435        1027.1607  1027.1589  210.033     -1.416                0.0252         0.0164         31.69432  -64.1464   2.3199        2.6894        6.3943    6.4368    211.61    36.6571     36.6547     19.1941            19.1987             19.1939            19.1985             
InVirTC2     2019-10-12T23:03:26Z    -0.0017      100.0429  4.917475        4.916943        1027.1643  1027.1642  210.988     -1.317                0.0258         0.0123         31.69432  -64.1464   2.3199        2.6892        6.3937    6.4396    212.573   36.6558     36.6545     19.1926            19.1972             19.189             19.1936             
InVirTC2     2019-10-12T23:03:26Z    -0.0007      100.0187  4.920725        4.920425        1027.1629  1027.1623  210.99      0.998                 0.0239         0.0096         31.69307  -64.14832  2.318         2.6967        6.3809    6.4666    212.574   36.6621     36.6608     19.2163            19.2209             19.2149            19.2195             
InVirTC2     2019-10-12T23:03:26Z    -0.0017      100.0447  4.917297        4.91647         1027.1701  1027.1692  211.984     -1.129                0.0257         0.0023         31.69432  -64.14641  2.3194        2.6896        6.3904    6.438     213.577   36.6567     36.6538     19.1895            19.1941             19.1849            19.1895             
InVirTC2     2019-10-12T23:03:26Z    -0.0008      100.0188  4.920304        4.919994        1027.1681  1027.1674  211.997     1.199                 0.0258         0.0041         31.69308  -64.14832  2.3204        2.6958        6.3982    6.4613    213.59    36.6617     36.6604     19.2123            19.2169             19.2109            19.2155             
InVirTC2     2019-10-12T23:03:26Z    -0.0007      100.0181  4.919828        4.919531        1027.1738  1027.1733  213.023     1.182                 0.0246         0.0062         31.69308  -64.14832  2.3212        2.6943        6.4047    6.4472    214.624   36.6617     36.6605     19.2074            19.212              19.2059            19.2105             
InVirTC2     2019-10-12T23:03:26Z    -0.0017      100.0434  4.91628         4.915745        1027.1763  1027.176   213.038     -0.789                0.0255         0.0019         31.69432  -64.14644  2.3191        2.6883        6.3939    6.4309    214.639   36.6557     36.6541     19.1805            19.1851             19.1772            19.1818             
InVirTC2     2019-10-12T23:03:26Z    -0.0008      100.0193  4.918942        4.918644        1027.1796  1027.179   213.989     0.902                 0.0295         0.0048         31.69308  -64.14832  2.3206        2.6956        6.3964    6.4574    215.598   36.6609     36.6597     19.1994            19.204              19.198             19.2026             
InVirTC2     2019-10-12T23:03:26Z    -0.001       100.0243  4.91695         4.916891        1027.182   1027.1795  214.065     -0.345                0.0269         0.007          31.69431  -64.14643  2.3195        2.6903        6.3951    6.4476    215.674   36.6582     36.6557     19.1835            19.1881             19.1858            19.1904             
InVirTC2     2019-10-12T23:03:26Z    -0.0012      100.0316  4.915955        4.915599        1027.1856  1027.184   214.865     -0.561                0.0247         0.0096         31.6943   -64.14644  2.3188        2.6893        6.3938    6.4386    216.48    36.6559     36.6536     19.1763            19.1809             19.1756            19.1802             
InVirTC2     2019-10-12T23:03:26Z    -0.0007      100.0166  4.918523        4.918226        1027.1849  1027.1844  214.973     0.737                 0.0259         0.0147         31.69308  -64.14832  2.319         2.6953        6.3875    6.4594    216.589   36.6608     36.6596     19.1951            19.1997             19.1937            19.1983             
InVirTC2     2019-10-12T23:03:26Z    -0.0017      100.0438  4.915061        4.914426        1027.1918  1027.1905  215.95      -1.089                0.0223         0.0093         31.6943   -64.14644  2.3191        2.6909        6.402     6.4472    217.574   36.6551     36.6524     19.1683            19.1729             19.1654            19.17               
InVirTC2     2019-10-12T23:03:26Z    -0.0007      100.0179  4.918051        4.917752        1027.1903  1027.1898  216.003     0.846                 0.0257         0.0239         31.69306  -64.14832  2.3204        2.692         6.3989    6.442     217.628   36.6604     36.6593     19.1906            19.1952             19.1891            19.1937             
InVirTC2     2019-10-12T23:03:26Z    -0.0017      100.0437  4.914628        4.913934        1027.1966  1027.1963  216.982     -0.957                0.0215         0.0053         31.6943   -64.14644  2.3184        2.6934        6.396     6.466     218.614   36.6542     36.6523     19.1647            19.1693             19.1603            19.1649             
InVirTC2     2019-10-12T23:03:26Z    -0.0007      100.0187  4.917922        4.917611        1027.1952  1027.1947  217.01      1.024                 0.0217         0.0115         31.69308  -64.14832  2.3215        2.6923        6.4097    6.4442    218.642   36.6605     36.6592     19.189             19.1936             19.1874            19.192              
InVirTC2     2019-10-12T23:03:26Z    -0.0008      100.0188  4.917832        4.917531        1027.1997  1027.1991  218.016     1.17                  0.0225         0.0096         31.69308  -64.14832  2.3216        2.6926        6.4082    6.4544    219.657   36.6602     36.659      19.188             19.1926             19.1865            19.1911             
InVirTC2     2019-10-12T23:03:26Z    -0.0017      100.0441  4.913827        4.913622        1027.2044  1027.2013  218.017     -0.816                0.0254         0.0023         31.6943   -64.14645  2.3175        2.6919        6.3999    6.4645    219.658   36.6553     36.6518     19.1555            19.1601             19.1575            19.1621             
InVirTC2     2019-10-12T23:03:26Z    -0.0017      100.0426  4.913658        4.913292        1027.2093  1027.2079  219.007     -0.855                0.0246         0.0023         31.6943   -64.14647  2.3172        2.6883        6.4033    6.4511    220.656   36.6553     36.6531     19.1535            19.1581             19.1524            19.157              
InVirTC2     2019-10-12T23:03:26Z    -0.0008      100.0188  4.917646        4.917342        1027.2052  1027.2045  219.039     1.246                 0.0252         0.0096         31.69308  -64.14831  2.3214        2.6942        6.4047    6.4619    220.688   36.6606     36.6593     19.1853            19.1899             19.1839            19.1885             
InVirTC2     2019-10-12T23:03:26Z    -0.0018      100.0451  4.913356        4.913481        1027.2135  1027.2108  219.985     -1.176                0.0226         0.012          31.6943   -64.14646  2.3132        2.6852        6.3725    6.4307    221.642   36.6544     36.6521     19.1511            19.1557             19.155             19.1596             
InVirTC2     2019-10-12T23:03:26Z    -0.0007      100.0184  4.916893        4.916594        1027.2115  1027.2109  220.051     1.119                 0.0247         0.0096         31.69309  -64.1483   2.3214        2.6934        6.4062    6.4596    221.709   36.6605     36.6592     19.1778            19.1824             19.1765            19.1811             
InVirTC2     2019-10-12T23:03:26Z    -0.0017      100.0436  4.912933        4.912358        1027.2187  1027.2168  220.974     -1.437                0.0258         0.0124         31.69428  -64.14646  2.3138        2.6862        6.3829    6.4357    222.639   36.6541     36.6509     19.1471            19.1517             19.1452            19.1498             
InVirTC2     2019-10-12T23:03:26Z    -0.0007      100.0182  4.915716        4.915401        1027.2172  1027.2166  221.035     0.618                 0.0233         0.0118         31.69309  -64.1483   2.3231        2.6955        6.4187    6.47      222.7     36.659      36.6577     19.168             19.1726             19.1664            19.171              
InVirTC2     2019-10-12T23:03:26Z    -0.0007      100.0184  4.915422        4.915115        1027.2216  1027.221   221.952     0.49                  0.027          0.0084         31.69308  -64.1483   2.3222        2.6917        6.4094    6.4478    223.624   36.6585     36.6573     19.1652            19.1698             19.1637            19.1683             
InVirTC2     2019-10-12T23:03:26Z    -0.0017      100.043   4.912299        4.911153        1027.2229  1027.2232  222.009     -1.39                 0.0219         0.0096         31.69428  -64.14647  2.3164        2.6875        6.3993    6.4445    223.682   36.6522     36.6498     19.1427            19.1473             19.1346            19.1392             
InVirTC2     2019-10-12T23:03:26Z    -0.0008      100.0188  4.914771        4.914472        1027.228   1027.2274  222.972     0.808                 0.0232         0.0143         31.69308  -64.1483   2.3224        2.69          6.4132    6.4428    224.652   36.6587     36.6574     19.1584            19.163              19.157             19.1617             
InVirTC2     2019-10-12T23:03:26Z    -0.0017      100.0444  4.911377        4.91065         1027.2294  1027.23    222.994     -1.118                0.023          0.0091         31.69428  -64.14648  2.3157        2.6886        6.3947    6.4539    224.675   36.652      36.6508     19.1338            19.1384             19.1282            19.1328             
InVirTC2     2019-10-12T23:03:26Z    -0.0008      100.0189  4.913838        4.913548        1027.2343  1027.2337  224.021     1.106                 0.0201         0.0096         31.6931   -64.14828  2.3226        2.6915        6.4189    6.4596    225.711   36.658      36.6568     19.1499            19.1545             19.1485            19.1531             
InVirTC2     2019-10-12T23:03:26Z    -0.0018      100.0448  4.91112         4.911292        1027.2365  1027.2349  224.026     -0.659                0.0234         0.0096         31.69428  -64.14646  2.315         2.6892        6.3942    6.4582    225.716   36.6537     36.6525     19.1289            19.1335             19.1319            19.1365             
InVirTC2     2019-10-12T23:03:26Z    -0.0008      100.0192  4.913427        4.913129        1027.2394  1027.2387  225.05      1.114                 0.0224         0.0109         31.6931   -64.14828  2.3217        2.6903        6.4139    6.4577    226.748   36.6575     36.6562     19.1461            19.1507             19.1448            19.1494             
InVirTC2     2019-10-12T23:03:26Z    -0.0018      100.0456  4.911431        4.911334        1027.2402  1027.2378  225.157     -0.444                0.0297         0.0094         31.69428  -64.1465   2.3142        2.6846        6.3953    6.4486    226.856   36.6532     36.6506     19.132             19.1366             19.134             19.1386             
InVirTC2     2019-10-12T23:03:26Z    -0.0025      100.0634  4.910298        4.909867        1027.2451  1027.2427  225.931     -1.738                0.0286         0.0096         31.69428  -64.1465   2.3112        2.6793        6.385     6.4275    227.635   36.6517     36.6485     19.1225            19.1271             19.1221            19.1267             
InVirTC2     2019-10-12T23:03:26Z    -0.0014      100.0348  4.91301         4.912701        1027.244   1027.2434  225.956     0.815                 0.0217         0.0147         31.6931   -64.14828  2.3216        2.691         6.4144    6.4581    227.661   36.657      36.6557     19.1423            19.1469             19.1409            19.1455             
InVirTC2     2019-10-12T23:03:26Z    -0.0014      100.0362  4.912235        4.911941        1027.2502  1027.2495  226.947     0.831                 0.0264         0.0106         31.6931   -64.14828  2.3224        2.6929        6.4229    6.4746    228.66    36.6569     36.6555     19.1347            19.1393             19.1334            19.138              
InVirTC2     2019-10-12T23:03:26Z    -0.0018      100.0461  4.91007         4.909122        1027.2498  1027.2492  226.976     -1.611                0.0287         0.0143         31.69427  -64.1465   2.3104        2.6793        6.3835    6.428     228.689   36.6512     36.6485     19.1205            19.125              19.1146            19.1192             
InVirTC2     2019-10-12T23:03:26Z    -0.0006      100.0143  4.910905        4.910628        1027.2569  1027.2564  227.975     1.069                 0.0287         0.0169         31.69308  -64.14828  2.322         2.6931        6.4238    6.4741    229.696   36.6557     36.6546     19.1229            19.1275             19.1216            19.1262             
InVirTC2     2019-10-12T23:03:26Z    -0.0017      100.0441  4.909324        4.908771        1027.255   1027.2539  227.988     -1.285                0.0276         0.0169         31.69426  -64.1465   2.3102        2.6793        6.3836    6.4297    229.709   36.6501     36.6478     19.1142            19.1188             19.1116            19.1162             
InVirTC2     2019-10-12T23:03:26Z    -0.0017      100.0429  4.90877         4.907858        1027.2609  1027.2605  229.027     -0.858                0.0253         0.0105         31.69426  -64.14647  2.3101        2.6793        6.3817    6.4357    230.757   36.65       36.6474     19.1086            19.1132             19.1029            19.1074             
InVirTC2     2019-10-12T23:03:26Z    -0.0008      100.0201  4.910344        4.910049        1027.2619  1027.2613  229.034     1.306                 0.0293         0.0062         31.69308  -64.14828  2.321         2.691         6.4172    6.4629    230.764   36.6546     36.6533     19.1184            19.123              19.1171            19.1217             
InVirTC2     2019-10-12T23:03:26Z    -0.0014      100.0364  4.910017        4.909735        1027.2665  1027.266   230.021     1.441                 0.0303         0.0032         31.69309  -64.14828  2.321         2.6907        6.4171    6.4599    231.759   36.654      36.6528     19.1155            19.1201             19.1142            19.1188             
InVirTC2     2019-10-12T23:03:26Z    -0.0018      100.045   4.908158        4.908562        1027.2673  1027.2642  230.068     -0.426                0.0238         0.0093         31.69426  -64.14647  2.3092        2.6798        6.3816    6.4393    231.806   36.6501     36.6482     19.1022            19.1068             19.1083            19.1129             
InVirTC2     2019-10-12T23:03:26Z    -0.0018      100.0457  4.908325        4.907841        1027.2713  1027.2694  230.925     -0.691                0.0255         0.0096         31.69426  -64.14652  2.309         2.6777        6.386     6.433     232.67    36.6506     36.6477     19.1029            19.1074             19.1015            19.1061             
InVirTC2     2019-10-12T23:03:26Z    -0.0016      100.0409  4.909727        4.909413        1027.2717  1027.2711  231.094     1.248                 0.0275         0.0119         31.6931   -64.14828  2.3177        2.6902        6.4031    6.4632    232.84    36.6537     36.6523     19.1127            19.1173             19.1112            19.1158             
InVirTC2     2019-10-12T23:03:26Z    -0.0015      100.0388  4.910074        4.909565        1027.2734  1027.2733  231.751     0.295                 0.026          0.0126         31.69311  -64.14828  2.3163        2.6857        6.4037    6.4459    233.503   36.6533     36.652      19.1161            19.1207             19.1127            19.1173             
InVirTC2     2019-10-12T23:03:26Z    -0.0018      100.0461  4.90793         4.906796        1027.2756  1027.2761  231.945     -1.079                0.028          0.0048         31.69426  -64.14654  2.3057        2.6762        6.3633    6.4252    233.698   36.6495     36.6473     19.1               19.1046             19.0917            19.0963             
InVirTC2     2019-10-12T23:03:26Z    -0.0008      100.0213  4.908612        4.90842         1027.2824  1027.2818  232.977     0.694                 0.0275         0.0044         31.6931   -64.14828  2.3153        2.6852        6.3993    6.4557    234.739   36.6531     36.6521     19.1019            19.1065             19.1012            19.1058             
InVirTC2     2019-10-12T23:03:26Z    -0.0018      100.0449  4.907012        4.906538        1027.2827  1027.2817  232.997     -0.839                0.0262         0.0086         31.69426  -64.14652  2.3069        2.6739        6.3677    6.4138    234.759   36.6496     36.6475     19.0907            19.0953             19.0886            19.0931             
InVirTC2     2019-10-12T23:03:26Z    -0.0015      100.0396  4.908026        4.90769         1027.2876  1027.2868  234.035     1.095                 0.0288         0.0169         31.6931   -64.14828  2.3154        2.6848        6.4049    6.4536    235.805   36.6521     36.6506     19.097             19.1016             19.0955            19.1001             
InVirTC2     2019-10-12T23:03:26Z    -0.0018      100.0452  4.907098        4.906654        1027.2878  1027.286   234.045     -0.655                0.028          0.0135         31.69426  -64.14654  2.3093        2.6763        6.3873    6.4288    235.815   36.6502     36.6474     19.0904            19.095              19.0893            19.0938             
InVirTC2     2019-10-12T23:03:26Z    -0.0018      100.0454  4.907001        4.906461        1027.2915  1027.2902  234.951     -1.013                0.0267         0.0143         31.69425  -64.14654  2.3101        2.6772        6.3937    6.4387    236.729   36.6496     36.6471     19.0897            19.0943             19.0875            19.092              
InVirTC2     2019-10-12T23:03:26Z    -0.0017      100.0424  4.907997        4.907697        1027.2922  1027.2915  234.997     1.365                 0.0309         0.0054         31.6931   -64.14828  2.3162        2.6827        6.4121    6.4443    236.776   36.6524     36.651      19.096             19.1006             19.0947            19.0993             
InVirTC2     2019-10-12T23:03:26Z    -0.0018      100.0461  4.906227        4.905751        1027.2958  1027.2952  235.942     -1.21                 0.0266         0.004          31.69426  -64.14656  2.3079        2.6757        6.3772    6.4288    237.728   36.6476     36.6459     19.0842            19.0888             19.0816            19.0862             
InVirTC2     2019-10-12T23:03:26Z    -0.0015      100.0389  4.907883        4.9076          1027.2968  1027.2962  235.982     1.508                 0.0314         -0.0051        31.69312  -64.14828  2.3154        2.6827        6.4101    6.4422    237.769   36.6522     36.651      19.0947            19.0993             19.0934            19.098              
InVirTC2     2019-10-12T23:03:26Z    -0.0018      100.0461  4.905585        4.904636        1027.3018  1027.302   236.973     -0.961                0.025          0.0108         31.69426  -64.14656  2.3083        2.6736        6.3869    6.4256    238.768   36.6473     36.6453     19.0779            19.0825             19.0712            19.0758             
InVirTC2     2019-10-12T23:03:26Z    -0.0011      100.0274  4.907515        4.907222        1027.3026  1027.3019  237.043     1.39                  0.0285         0.0017         31.69312  -64.14826  2.3127        2.6828        6.3935    6.4495    238.838   36.6523     36.651      19.0906            19.0952             19.0893            19.0939             
InVirTC2     2019-10-12T23:03:26Z    -0.0012      100.0317  4.90731         4.907006        1027.3076  1027.3071  238.027     0.922                 0.0223         0.0074         31.69312  -64.14826  2.3101        2.6809        6.3824    6.4429    239.83    36.6525     36.6513     19.0881            19.0927             19.0866            19.0911             
InVirTC2     2019-10-12T23:03:26Z    -0.0024      100.0607  4.90398         4.903786        1027.3088  1027.3089  238.037     -0.602                0.0243         0.014          31.69425  -64.14656  2.3099        2.6748        6.4115    6.4314    239.841   36.6457     36.6453     19.0641            19.0686             19.0627            19.0672             
InVirTC2     2019-10-12T23:03:26Z    -0.0014      100.0355  4.907229        4.906947        1027.3119  1027.3115  238.973     0.647                 0.024          0.0089         31.69311  -64.14826  2.3096        2.6799        6.3888    6.4403    240.784   36.6523     36.6512     19.0871            19.0917             19.0857            19.0903             
InVirTC2     2019-10-12T23:03:26Z    -0.0025      100.062   4.903766        4.903345        1027.3165  1027.3143  239.058     -0.61                 0.0209         0.0096         31.69424  -64.14656  2.3049        2.6744        6.3843    6.4403    240.87    36.6481     36.6451     19.0589            19.0635             19.0583            19.0629             
InVirTC2     2019-10-12T23:03:26Z    -0.0024      100.0591  4.903572        4.902631        1027.3194  1027.318   239.965     -0.984                0.0232         0.0069         31.69424  -64.14658  2.3013        2.6712        6.3681    6.4336    241.784   36.6466     36.6431     19.0584            19.0629             19.0534            19.058              
InVirTC2     2019-10-12T23:03:26Z    -0.0016      100.0396  4.907224        4.906919        1027.3167  1027.3161  239.985     0.782                 0.0233         0.0129         31.6931   -64.14826  2.31          2.6783        6.3929    6.4372    241.804   36.6525     36.6512     19.0864            19.0909             19.0849            19.0895             
InVirTC2     2019-10-12T23:03:26Z    -0.0026      100.0653  4.902245        4.901599        1027.3247  1027.3253  240.994     -0.919                0.0268         0.0045         31.69424  -64.14658  2.3022        2.6653        6.3811    6.4066    242.822   36.644      36.6431     19.0482            19.0527             19.0431            19.0476             
InVirTC2     2019-10-12T23:03:26Z    -0.0013      100.0344  4.907386        4.907114        1027.3226  1027.322   241.015     1.011                 0.0257         0.0118         31.69311  -64.14826  2.3124        2.6761        6.4095    6.428     242.842   36.6541     36.6529     19.0857            19.0903             19.0844            19.089              
InVirTC2     2019-10-12T23:03:26Z    -0.0027      100.0673  4.901595        4.901955        1027.3315  1027.328   242.016     -0.794                0.025          0.0118         31.69424  -64.14658  2.3001        2.6652        6.3788    6.4201    243.852   36.6446     36.6421     19.0409            19.0455             19.0471            19.0517             
InVirTC2     2019-10-12T23:03:26Z    -0.0011      100.0288  4.906489        4.906271        1027.3288  1027.3282  242.029     1.137                 0.0263         0.0154         31.69312  -64.14826  2.3128        2.6784        6.4132    6.4408    243.865   36.6535     36.6524     19.0774            19.082              19.0766            19.0811             
InVirTC2     2019-10-12T23:03:26Z    -0.0029      100.0721  4.901417        4.901069        1027.3354  1027.3338  243         -0.929                0.0275         0.0136         31.69424  -64.14659  2.2966        2.6631        6.3673    6.4167    244.843   36.6438     36.6414     19.0397            19.0443             19.0391            19.0437             
InVirTC2     2019-10-12T23:03:26Z    -0.0016      100.0418  4.904736        4.904431        1027.3343  1027.3337  243.054     0.938                 0.0269         0.0094         31.69313  -64.14825  2.3108        2.6832        6.3974    6.473     244.899   36.6502     36.6489     19.064             19.0685             19.0626            19.0671             
InVirTC2     2019-10-12T23:03:26Z    -0.0027      100.0671  4.900539        4.900027        1027.3397  1027.3387  243.971     -1.239                0.0226         0.0096         31.69424  -64.1466   2.2921        2.6563        6.343     6.3801    245.823   36.6416     36.6394     19.0334            19.038              19.031             19.0355             
InVirTC2     2019-10-12T23:03:26Z    -0.0017      100.0437  4.904365        4.904082        1027.3385  1027.3379  243.978     0.585                 0.0251         0.0096         31.69314  -64.14825  2.3092        2.6795        6.3928    6.4449    245.829   36.6494     36.6481     19.061             19.0656             19.0597            19.0643             
InVirTC2     2019-10-12T23:03:26Z    -0.0017      100.0443  4.903511        4.903217        1027.3449  1027.3443  244.968     0.628                 0.0207         0.0114         31.69312  -64.14826  2.3066        2.674         6.3822    6.4205    246.827   36.6493     36.648      19.0526            19.0571             19.0513            19.0559             
InVirTC2     2019-10-12T23:03:26Z    -0.0026      100.0653  4.899623        4.898689        1027.3434  1027.3444  245.011     -1.202                0.0224         0.0073         31.69424  -64.14662  2.2905        2.6557        6.3372    6.377     246.871   36.6385     36.6373     19.0278            19.0323             19.0203            19.0248             
InVirTC2     2019-10-12T23:03:26Z    -0.0016      100.0416  4.902604        4.902317        1027.3501  1027.3495  245.983     0.839                 0.025          0.014          31.69312  -64.14826  2.3044        2.6774        6.3772    6.4496    247.851   36.6477     36.6465     19.0452            19.0498             19.0439            19.0485             
InVirTC2     2019-10-12T23:03:26Z    -0.0023      100.0591  4.897677        4.896857        1027.3503  1027.3504  246.021     -0.912                0.0249         0.0023         31.69424  -64.14662  2.2905        2.6574        6.3354    6.3881    247.889   36.6362     36.6343     19.0114            19.016              19.0057            19.0103             
InVirTC2     2019-10-12T23:03:26Z    -0.0018      100.0461  4.902195        4.901913        1027.3557  1027.3549  247.024     1.067                 0.0274         0.0023         31.69312  -64.14826  2.3032        2.6756        6.3715    6.4493    248.9     36.6476     36.6462     19.0411            19.0457             19.0399            19.0445             
InVirTC2     2019-10-12T23:03:26Z    -0.0024      100.0607  4.896292        4.895641        1027.3591  1027.3584  247.042     -0.555                0.0285         0.0087         31.69424  -64.14662  2.2901        2.6593        6.3363    6.4054    248.919   36.6369     36.6347     18.997             19.0016             18.9933            18.9979             
InVirTC2     2019-10-12T23:03:26Z    -0.0017      100.0446  4.900704        4.900455        1027.3623  1027.3616  248.022     1.259                 0.0293         0.0023         31.69313  -64.14825  2.304         2.6755        6.3826    6.4407    249.907   36.6461     36.6449     19.0281            19.0327             19.0272            19.0317             
InVirTC2     2019-10-12T23:03:26Z    -0.0023      100.0584  4.895793        4.895403        1027.3652  1027.3636  248.042     -0.529                0.0225         0.0061         31.69423  -64.14662  2.292         2.658         6.3467    6.4008    249.927   36.6373     36.6348     18.9914            18.9959             18.9904            18.995              
InVirTC2     2019-10-12T23:03:26Z    -0.0026      100.0652  4.895789        4.895337        1027.3696  1027.3679  248.987     -0.707                0.023          0.0092         31.69422  -64.14664  2.2926        2.6554        6.3526    6.3829    250.881   36.6374     36.6347     18.9908            18.9953             18.9895            18.9941             
InVirTC2     2019-10-12T23:03:26Z    -0.0017      100.0432  4.899965        4.899656        1027.3668  1027.366   249.014     1.366                 0.0279         0.0039         31.69314  -64.14824  2.3045        2.6736        6.3923    6.436     250.908   36.6444     36.643      19.0226            19.0271             19.0213            19.0258             
InVirTC2     2019-10-12T23:03:26Z    -0.0019      100.0476  4.895889        4.895544        1027.3735  1027.372   249.986     -0.797                0.0268         0.0062         31.69422  -64.14662  2.2918        2.6579        6.3479    6.4041    251.887   36.637      36.6348     18.9917            18.9963             18.991             18.9955             
InVirTC2     2019-10-12T23:03:26Z    -0.0017      100.0438  4.899172        4.898887        1027.3722  1027.3716  250.024     1.316                 0.0262         0.0102         31.69314  -64.14824  2.3046        2.67          6.394     6.4216    251.926   36.6433     36.6421     19.0158            19.0204             19.0145            19.0191             
InVirTC2     2019-10-12T23:03:26Z    -0.0018      100.0452  4.895661        4.895502        1027.3783  1027.376   250.956     -1.204                0.0283         0.0067         31.69422  -64.14664  2.2928        2.6579        6.364     6.4068    252.865   36.6369     36.6344     18.9893            18.9938             18.9906            18.9952             
InVirTC2     2019-10-12T23:03:26Z    -0.0017      100.0436  4.898508        4.898203        1027.3768  1027.3762  251.036     0.906                 0.0268         0.011          31.69314  -64.14824  2.2989        2.6658        6.3594    6.4089    252.946   36.6418     36.6406     19.0108            19.0154             19.0093            19.0139             
InVirTC2     2019-10-12T23:03:26Z    -0.0017      100.0429  4.897747        4.897437        1027.382   1027.3813  251.973     0.604                 0.0263         0.0126         31.69314  -64.14824  2.2961        2.6641        6.3562    6.4113    253.891   36.6409     36.6396     19.0041            19.0087             19.0027            19.0072             
InVirTC2     2019-10-12T23:03:26Z    -0.0018      100.0461  4.895355        4.895107        1027.3829  1027.3811  251.981     -1.466                0.0255         0.0046         31.69422  -64.14664  2.2909        2.6537        6.3514    6.3892    253.898   36.6362     36.6339     18.9867            18.9912             18.987             18.9916             
InVirTC2     2019-10-12T23:03:26Z    -0.0023      100.0583  4.895324        4.894646        1027.3878  1027.3851  252.988     -1.438                0.0262         0.0032         31.69422  -64.14664  2.2883        2.6537        6.3342    6.3893    254.914   36.6364     36.6323     18.9857            18.9903             18.9839            18.9885             
InVirTC2     2019-10-12T23:03:26Z    0.0016       99.9608   4.897623        4.897337        1027.3867  1027.386   252.99      0.781                 0.0197         0.0105         31.69314  -64.14824  2.2952        2.6603        6.3578    6.4004    254.916   36.6408     36.6396     19.0027            19.0073             19.0014            19.0059             
InVirTC2     2019-10-12T23:03:26Z    -0.0026      100.064   4.894788        4.894078        1027.3916  1027.3921  254.017     -1.223                0.0255         0.0096         31.69422  -64.14664  2.288         2.6532        6.3347    6.3842    255.95    36.6345     36.6332     18.9824            18.987              18.9771            18.9816             
InVirTC2     2019-10-12T23:03:26Z    -0.0004      100.0114  4.89757         4.897274        1027.3918  1027.3911  254.041     0.914                 0.0202         0.003          31.69315  -64.14824  2.2929        2.6587        6.3481    6.3938    255.976   36.6411     36.6397     19.0014            19.006              19.0002            19.0047             
InVirTC2     2019-10-12T23:03:26Z    -0.0016      100.0402  4.897407        4.897119        1027.396   1027.3954  254.961     0.73                  0.0234         0.0096         31.69316  -64.14823  2.2921        2.6612        6.3489    6.4151    256.903   36.6407     36.6395     18.9999            19.0045             18.9985            19.0031             
InVirTC2     2019-10-12T23:03:26Z    -0.0025      100.0629  4.894234        4.893842        1027.3981  1027.397   255.017     -0.89                 0.0236         0.0014         31.69422  -64.14664  2.2892        2.6528        6.3471    6.3811    256.959   36.635      36.6331     18.9761            18.9806             18.9746            18.9791             
InVirTC2     2019-10-12T23:03:26Z    -0.0014      100.0359  4.897233        4.89694         1027.401   1027.4003  255.966     0.744                 0.0211         0.0096         31.69316  -64.14822  2.2921        2.6617        6.3539    6.4189    257.916   36.6408     36.6395     18.9977            19.0023             18.9964            19.001              
InVirTC2     2019-10-12T23:03:26Z    -0.0028      100.0701  4.894391        4.894139        1027.4036  1027.4014  256.049     -0.438                0.0244         -0.0028        31.69422  -64.14664  2.2905        2.6548        6.3568    6.3918    258       36.6363     36.6335     18.9757            18.9803             18.9764            18.9809             
InVirTC2     2019-10-12T23:03:26Z    -0.0026      100.0654  4.894319        4.894106        1027.4072  1027.4052  256.989     -0.446                0.023          0.0125         31.69422  -64.14666  2.2873        2.6562        6.3423    6.405     258.947   36.6354     36.6331     18.9756            18.9802             18.9762            18.9808             
InVirTC2     2019-10-12T23:03:26Z    -0.0017      100.0447  4.896334        4.896057        1027.4071  1027.4063  257.016     1.02                  0.0233         0.0096         31.69316  -64.14826  2.2933        2.662         6.3621    6.4156    258.975   36.64       36.6385     18.9896            18.9942             18.9886            18.9932             
InVirTC2     2019-10-12T23:03:26Z    -0.0026      100.0656  4.893731        4.894023        1027.4125  1027.4095  257.955     -1.145                0.0225         0.0096         31.69422  -64.14668  2.2872        2.6542        6.3508    6.4061    259.922   36.635      36.6328     18.9701            18.9746             18.9753            18.9798             
InVirTC2     2019-10-12T23:03:26Z    -0.0015      100.0385  4.895789        4.895507        1027.4119  1027.4113  258.013     1.266                 0.0238         0.0156         31.69316  -64.14825  2.2933        2.6618        6.3648    6.4175    259.98    36.639      36.6378     18.9851            18.9897             18.9838            18.9884             
InVirTC2     2019-10-12T23:03:26Z    -0.0028      100.0708  4.893436        4.893425        1027.4178  1027.4146  258.97      -1.278                0.0264         0.0092         31.69422  -64.14668  2.2859        2.6514        6.3501    6.3982    260.945   36.6349     36.6319     18.9669            18.9714             18.9702            18.9748             
InVirTC2     2019-10-12T23:03:26Z    -0.0015      100.0392  4.895422        4.89513         1027.4181  1027.4174  259.056     1.25                  0.0233         0.0169         31.69316  -64.14825  2.2926        2.6586        6.3602    6.4027    261.032   36.6395     36.6382     18.9806            18.9851             18.9793            18.9839             
InVirTC2     2019-10-12T23:03:26Z    -0.0017      100.0422  4.895073        4.894759        1027.4221  1027.4215  259.933     0.629                 0.0223         0.0065         31.69316  -64.14824  2.2901        2.6594        6.3458    6.4127    261.916   36.6388     36.6375     18.9777            18.9822             18.9762            18.9807             
InVirTC2     2019-10-12T23:03:26Z    -0.0028      100.0707  4.893176        4.892598        1027.4214  1027.4202  259.99      -1.257                0.0304         0.0096         31.69422  -64.14668  2.2833        2.6488        6.3308    6.3833    261.974   36.6334     36.6309     18.9657            18.9702             18.963             18.9675             
InVirTC2     2019-10-12T23:03:26Z    -0.0017      100.0435  4.894471        4.894175        1027.4279  1027.4273  260.978     0.648                 0.0255         0.0096         31.69316  -64.14826  2.2909        2.6583        6.3548    6.4076    262.97    36.6384     36.6371     18.9719            18.9765             18.9705            18.9751             
InVirTC2     2019-10-12T23:03:26Z    -0.0027      100.068   4.892733        4.891717        1027.4254  1027.4253  260.982     -1.107                0.0325         0.0096         31.69422  -64.14668  2.2808        2.6466        6.3204    6.3772    262.973   36.632      36.6295     18.9627            18.9672             18.9558            18.9603             
InVirTC2     2019-10-12T23:03:26Z    -0.0017      100.043   4.894022        4.893761        1027.4329  1027.4322  261.989     1.018                 0.0242         0.0096         31.69316  -64.14825  2.2925        2.6602        6.3716    6.4181    263.989   36.6378     36.6366     18.968             18.9725             18.9668            18.9714             
InVirTC2     2019-10-12T23:03:26Z    -0.0026      100.0659  4.891666        4.891322        1027.4321  1027.4315  262.015     -0.835                0.0307         0.0096         31.69422  -64.14668  2.2817        2.6475        6.33      6.3863    264.015   36.6314     36.63       18.9527            18.9573             18.951             18.9556             
InVirTC2     2019-10-12T23:03:26Z    -0.0017      100.0445  4.893622        4.893338        1027.4374  1027.4368  262.99      1.319                 0.0249         0.0096         31.69318  -64.14822  2.294         2.6604        6.3787    6.4255    264.998   36.6369     36.6356     18.9647            18.9693             18.9635            18.968              
InVirTC2     2019-10-12T23:03:26Z    -0.0024      100.0604  4.891589        4.891342        1027.438   1027.4359  263.074     -0.527                0.0281         0.0006         31.69422  -64.1467   2.2815        2.6464        6.3287    6.3795    265.084   36.6323     36.6297     18.9505            18.955              18.9511            18.9556             
InVirTC2     2019-10-12T23:03:26Z    -0.0024      100.0594  4.891392        4.890704        1027.4416  1027.4406  263.99      -0.746                0.0231         0.0054         31.69421  -64.14671  2.2808        2.6456        6.3262    6.3854    266.007   36.6313     36.6287     18.9493            18.9539             18.9457            18.9503             
InVirTC2     2019-10-12T23:03:26Z    -0.0013      100.0331  4.893602        4.893318        1027.4421  1027.4416  264.053     1.351                 0.0263         0.0096         31.69318  -64.14824  2.2948        2.6584        6.3805    6.4121    266.071   36.6368     36.6356     18.9642            18.9688             18.9628            18.9674             
InVirTC2     2019-10-12T23:03:26Z    -0.0015      100.0378  4.893602        4.893094        1027.4459  1027.4458  264.943     0.551                 0.029          0.0096         31.69318  -64.14824  2.292         2.6557        6.3601    6.4023    266.967   36.6365     36.6352     18.9641            18.9687             18.9607            18.9653             
InVirTC2     2019-10-12T23:03:26Z    -0.0018      100.0471  4.890443        4.889865        1027.4473  1027.4461  264.975     -1.163                0.025          0.0128         31.6942   -64.14672  2.2807        2.6426        6.3268    6.3696    266.999   36.6303     36.6278     18.9411            18.9456             18.9384            18.9429             
InVirTC2     2019-10-12T23:03:26Z    -0.0016      100.0419  4.892522        4.892206        1027.4522  1027.4515  265.957     0.528                 0.0285         0.0096         31.69318  -64.14822  2.2885        2.6579        6.3456    6.42      267.99    36.6356     36.6342     18.9544            18.959              18.953             18.9575             
InVirTC2     2019-10-12T23:03:26Z    -0.0027      100.0682  4.88971         4.888868        1027.4509  1027.4515  266.013     -1.042                0.0271         0.0096         31.6942   -64.14672  2.2812        2.6409        6.3286    6.357     268.046   36.6276     36.6262     18.9367            18.9412             18.9302            18.9348             
InVirTC2     2019-10-12T23:03:26Z    -0.0017      100.0445  4.892006        4.891721        1027.4575  1027.4569  266.967     0.915                 0.0267         0.0096         31.69318  -64.14822  2.2885        2.6571        6.3504    6.4194    269.008   36.6351     36.6339     18.9496            18.9541             18.9483            18.9528             
InVirTC2     2019-10-12T23:03:26Z    -0.0027      100.0662  4.888687        4.8883          1027.4585  1027.4576  267.034     -0.77                 0.0267         0.0096         31.6942   -64.14672  2.2811        2.6433        6.334     6.3733    269.076   36.628      36.6263     18.926             18.9306             18.9243            18.9288             
InVirTC2     2019-10-12T23:03:26Z    -0.0017      100.0426  4.891582        4.891305        1027.4621  1027.4615  267.976     1.242                 0.0205         0.0096         31.69318  -64.14822  2.2882        2.6563        6.355     6.4106    270.025   36.6342     36.633      18.9462            18.9507             18.9449            18.9495             
InVirTC2     2019-10-12T23:03:26Z    -0.0022      100.0567  4.888548        4.888453        1027.4641  1027.4618  268.04      -0.551                0.0246         0.0073         31.6942   -64.14671  2.2817        2.6453        6.3376    6.3842    270.09    36.6287     36.6263     18.9235            18.928              18.9253            18.9298             
InVirTC2     2019-10-12T23:03:26Z    -0.0022      100.0566  4.888378        4.888248        1027.4687  1027.4663  268.964     -0.76                 0.0231         0.0112         31.6942   -64.14675  2.2807        2.6449        6.3356    6.3864    271.022   36.6288     36.6262     18.9214            18.9259             18.9231            18.9276             
InVirTC2     2019-10-12T23:03:26Z    -0.0017      100.0424  4.891209        4.890906        1027.4673  1027.4665  269.007     1.514                 0.0206         0.0096         31.6932   -64.14822  2.2872        2.6558        6.3515    6.4087    271.065   36.6339     36.6324     18.9425            18.9471             18.9413            18.9459             
InVirTC2     2019-10-12T23:03:26Z    -0.0024      100.061   4.888144        4.887516        1027.4725  1027.4718  269.951     -1.021                0.0282         0.0023         31.6942   -64.14674  2.2797        2.6431        6.3322    6.3826    272.017   36.6276     36.6254     18.92              18.9246             18.9165            18.921              
InVirTC2     2019-10-12T23:03:26Z    -0.0017      100.0432  4.890503        4.890217        1027.4728  1027.472   270.045     1.651                 0.0237         0.0133         31.6932   -64.14823  2.2864        2.6549        6.3473    6.4083    272.112   36.633      36.6316     18.9364            18.9409             18.9352            18.9398             
InVirTC2     2019-10-12T23:03:26Z    -0.0026      100.0653  4.886973        4.886402        1027.4777  1027.4782  270.998     -0.924                0.0238         0.0023         31.6942   -64.14674  2.2795        2.6427        6.3325    6.376     273.073   36.6253     36.6245     18.911             18.9156             18.9065            18.9111             
InVirTC2     2019-10-12T23:03:26Z    -0.0017      100.0445  4.890414        4.890237        1027.4772  1027.4766  271.214     0.867                 0.0215         0.0089         31.6932   -64.14823  2.2849        2.6511        6.3431    6.3948    273.291   36.632      36.631      18.9361            18.9407             18.9356            18.9401             
InVirTC2     2019-10-12T23:03:26Z    -0.0017      100.0439  4.890558        4.889933        1027.4812  1027.4811  271.918     0.285                 0.0256         0.0086         31.6932   -64.14822  2.2836        2.6497        6.3426    6.3958    274       36.6332     36.6315     18.9359            18.9405             18.9318            18.9363             
InVirTC2     2019-10-12T23:03:26Z    -0.0026      100.0644  4.886013        4.886148        1027.4862  1027.4836  272.04      -0.755                0.0253         0.0093         31.6942   -64.14672  2.2787        2.6416        6.3299    6.3747    274.123   36.6267     36.6245     18.8999            18.9044             18.9036            18.9082             
InVirTC2     2019-10-12T23:03:26Z    -0.0017      100.0447  4.888507        4.888184        1027.4899  1027.4892  273         0.764                 0.0245         0.0096         31.6932   -64.14823  2.2824        2.6472        6.3414    6.3902    275.092   36.6319     36.6305     18.9173            18.9218             18.9159            18.9204             
InVirTC2     2019-10-12T23:03:26Z    -0.0028      100.0689  4.886151        4.886019        1027.4903  1027.4878  273.029     -0.817                0.0225         0.0154         31.6942   -64.14673  2.2795        2.6439        6.3336    6.3832    275.12    36.6267     36.624      18.9008            18.9053             18.9025            18.9071             
InVirTC2     2019-10-12T23:03:26Z    -0.0028      100.0702  4.885646        4.885076        1027.4954  1027.4935  273.978     -1.037                0.0244         0.0096         31.6942   -64.14675  2.279         2.6444        6.3285    6.386     276.078   36.6262     36.6231     18.8961            18.9006             18.8941            18.8987             
InVirTC2     2019-10-12T23:03:26Z    -0.0018      100.0461  4.887607        4.88732         1027.4952  1027.4945  274.01      1.101                 0.027          0.0222         31.6932   -64.14824  2.2812        2.646         6.3339    6.3833    276.11    36.6305     36.6292     18.9099            18.9144             18.9086            18.9131             
InVirTC2     2019-10-12T23:03:26Z    -0.0028      100.0687  4.885163        4.885084        1027.501   1027.4977  275.007     -1.053                0.0263         0.0096         31.6942   -64.14678  2.2807        2.6448        6.3377    6.3944    277.116   36.6261     36.6227     18.8912            18.8957             18.8943            18.8988             
InVirTC2     2019-10-12T23:03:26Z    -0.0017      100.0445  4.887121        4.886825        1027.5006  1027.4999  275.033     1.331                 0.0284         0.0192         31.69322  -64.1482   2.282         2.6451        6.3401    6.3836    277.141   36.6302     36.6288     18.9052            18.9097             18.9039            18.9085             
InVirTC2     2019-10-12T23:03:26Z    -0.0017      100.0435  4.886555        4.886266        1027.5055  1027.5048  276.034     1.414                 0.0303         0.0096         31.69322  -64.14821  2.2831        2.6459        6.353     6.3922    278.151   36.6292     36.6279     18.9004            18.905              18.8992            18.9038             
InVirTC2     2019-10-12T23:03:26Z    -0.0027      100.0686  4.885074        4.88467         1027.5057  1027.5038  276.05      -1.075                0.0266         0.0093         31.6942   -64.14678  2.2818        2.6459        6.3488    6.4026    278.168   36.6259     36.6231     18.8901            18.8947             18.8894            18.8939             
InVirTC2     2019-10-12T23:03:26Z    -0.0024      100.0603  4.884995        4.884535        1027.5091  1027.5083  276.995     -1.119                0.0224         0.0096         31.6942   -64.14677  2.2824        2.6433        6.3583    6.3881    279.12    36.6249     36.6231     18.8901            18.8946             18.8878            18.8923             
InVirTC2     2019-10-12T23:03:26Z    -0.0016      100.042   4.886307        4.886027        1027.5101  1027.5095  277.06      1.157                 0.0275         0.0096         31.69322  -64.14821  2.2825        2.6458        6.3511    6.397     279.186   36.6287     36.6274     18.8983            18.9029             18.897             18.9016             
InVirTC2     2019-10-12T23:03:26Z    -0.0019      100.0486  4.884567        4.884037        1027.5145  1027.5135  277.975     -0.985                0.0216         0.0026         31.69419  -64.14676  2.281         2.6424        6.3528    6.3846    280.109   36.6248     36.6226     18.8857            18.8902             18.8831            18.8876             
InVirTC2     2019-10-12T23:03:26Z    -0.0015      100.0386  4.886065        4.88575         1027.5145  1027.5139  277.977     0.626                 0.0259         0.0055         31.69322  -64.14824  2.2787        2.6448        6.327     6.39      280.11    36.6283     36.627      18.896             18.9005             18.8945            18.899              
InVirTC2     2019-10-12T23:03:26Z    -0.0017      100.0429  4.885709        4.885423        1027.5198  1027.5191  278.979     0.584                 0.0232         0.0034         31.69322  -64.14824  2.2772        2.6461        6.326     6.4006    281.12    36.6283     36.6269     18.8922            18.8968             18.891             18.8955             
InVirTC2     2019-10-12T23:03:26Z    -0.0024      100.0613  4.884339        4.884097        1027.52    1027.5188  279.016     -0.608                0.0219         0.0126         31.69418  -64.14676  2.2786        2.6429        6.3411    6.3945    281.158   36.625      36.6234     18.8828            18.8873             18.8824            18.8869             
InVirTC2     2019-10-12T23:03:26Z    -0.0018      100.045   4.88552         4.885227        1027.5247  1027.5241  279.985     0.785                 0.022          0.0102         31.69322  -64.1482   2.2797        2.6457        6.3502    6.3989    282.135   36.6281     36.6269     18.8901            18.8947             18.8888            18.8933             
InVirTC2     2019-10-12T23:03:26Z    -0.0027      100.067   4.884465        4.884427        1027.5246  1027.5221  280.117     -0.462                0.0268         0.0059         31.6942   -64.1468   2.2771        2.6407        6.3365    6.3901    282.268   36.625      36.6226     18.8836            18.8881             18.8859            18.8905             
InVirTC2     2019-10-12T23:03:26Z    -0.0026      100.0653  4.882762        4.882672        1027.5296  1027.5269  280.92      -1.684                0.0316         0.0096         31.69418  -64.14682  2.2762        2.6349        6.3414    6.3671    283.078   36.6224     36.6196     18.87              18.8745             18.8723            18.8768             
InVirTC2     2019-10-12T23:03:26Z    -0.0018      100.0448  4.885059        4.884766        1027.5301  1027.5294  280.979     0.991                 0.0205         0.0169         31.69322  -64.1482   2.2791        2.6452        6.3454    6.3946    283.137   36.6279     36.6266     18.8855            18.8901             18.8843            18.8888             
InVirTC2     2019-10-12T23:03:26Z    -0.0024      100.06    4.881932        4.881953        1027.5339  1027.5336  281.944     -1.684                0.0298         0.0096         31.69418  -64.1468   2.2741        2.6342        6.3353    6.3721    284.11    36.6201     36.6199     18.8642            18.8688             18.8646            18.8692             
InVirTC2     2019-10-12T23:03:26Z    -0.0017      100.0446  4.884598        4.884307        1027.5346  1027.5339  281.969     1.169                 0.0223         0.0169         31.69324  -64.1482   2.2787        2.6446        6.338     6.3951    284.135   36.6269     36.6256     18.8819            18.8864             18.8806            18.8851             
InVirTC2     2019-10-12T23:03:26Z    -0.0017      100.0432  4.884465        4.88418         1027.5392  1027.5385  282.971     1.306                 0.0257         0.0124         31.69324  -64.14821  2.2796        2.6448        6.3447    6.3969    285.145   36.6267     36.6253     18.8804            18.8849             18.8792            18.8838             
InVirTC2     2019-10-12T23:03:26Z    -0.0025      100.0628  4.881706        4.880038        1027.5393  1027.5383  282.995     -1.479                0.0293         0.0096         31.69419  -64.1468   2.2732        2.6352        6.336     6.3787    285.17    36.6202     36.6154     18.8614            18.866              18.851             18.8556             
InVirTC2     2019-10-12T23:03:26Z    -0.0025      100.0628  4.880255        4.879227        1027.5429  1027.5458  284.011     -1.204                0.0265         0.0096         31.6942   -64.1468   2.2721        2.6343        6.3312    6.3739    286.194   36.6159     36.6162     18.852             18.8566             18.8419            18.8464             
InVirTC2     2019-10-12T23:03:26Z    -0.0017      100.0436  4.884651        4.88436         1027.5441  1027.5434  284.025     1.357                 0.0222         0.0023         31.69324  -64.14822  2.2787        2.6444        6.3435    6.3978    286.209   36.6272     36.6259     18.8812            18.8857             18.8799            18.8844             
InVirTC2     2019-10-12T23:03:26Z    -0.0028      100.0707  4.879167        4.878736        1027.5519  1027.5516  285.022     -0.906                0.0244         0.0096         31.69418  -64.14678  2.2702        2.633         6.3185    6.3705    287.214   36.6175     36.6163     18.8394            18.844              18.8367            18.8412             
InVirTC2     2019-10-12T23:03:26Z    -0.0017      100.0445  4.884635        4.884335        1027.5488  1027.5481  285.042     1.106                 0.0247         0.0111         31.69324  -64.14822  2.2768        2.6447        6.3311    6.3994    287.234   36.6273     36.626      18.8804            18.885              18.8791            18.8836             
InVirTC2     2019-10-12T23:03:26Z    -0.0017      100.0446  4.883979        4.883482        1027.5536  1027.5532  285.908     0.445                 0.0257         0.0133         31.69324  -64.14822  2.2785        2.6457        6.3474    6.4061    288.108   36.6266     36.6251     18.8746            18.8791             18.8716            18.8761             
InVirTC2     2019-10-12T23:03:26Z    -0.0027      100.0679  4.879064        4.879686        1027.5592  1027.5561  286.066     -0.581                0.0301         0.0076         31.69418  -64.1468   2.2686        2.6331        6.3203    6.3756    288.267   36.6197     36.6183     18.8355            18.84               18.8431            18.8476             
InVirTC2     2019-10-12T23:03:26Z    -0.0018      100.0451  4.882674        4.882363        1027.5598  1027.5591  286.95      0.602                 0.0319         0.002          31.69324  -64.1482   2.2801        2.646         6.3569    6.4095    289.158   36.625      36.6236     18.8636            18.8681             18.8621            18.8667             
InVirTC2     2019-10-12T23:03:26Z    -0.0024      100.0602  4.879104        4.879207        1027.562   1027.5594  287.115     -0.423                0.0306         0.004          31.69418  -64.14681  2.2663        2.6307        6.3188    6.3746    289.325   36.6181     36.6158     18.8373            18.8418             18.8408            18.8453             
InVirTC2     2019-10-12T23:03:26Z    -0.0027      100.0678  4.878012        4.877914        1027.5668  1027.5651  287.951     -1.183                0.0268         0.0152         31.69418  -64.14682  2.2602        2.6244        6.2948    6.3588    290.168   36.6165     36.6147     18.8283            18.8328             18.8294            18.834              
InVirTC2     2019-10-12T23:03:26Z    -0.0018      100.0448  4.882466        4.882172        1027.5646  1027.564   287.971     0.918                 0.0267         0.0023         31.69326  -64.1482   2.2787        2.6449        6.3459    6.4033    290.188   36.6248     36.6235     18.8614            18.866              18.8601            18.8646             
InVirTC2     2019-10-12T23:03:26Z    -0.0028      100.0695  4.877252        4.877392        1027.5718  1027.5695  288.982     -1.262                0.0243         -0.0022        31.69418  -64.14682  2.2576        2.6213        6.287     6.3466    291.208   36.6151     36.6132     18.8222            18.8268             18.8257            18.8302             
InVirTC2     2019-10-12T23:03:26Z    -0.0018      100.0449  4.882285        4.881982        1027.5695  1027.5687  289.02      1.147                 0.0212         0.0026         31.69326  -64.1482   2.2787        2.6416        6.3459    6.3887    291.245   36.6245     36.623      18.8596            18.8641             18.8583            18.8628             
InVirTC2     2019-10-12T23:03:26Z    -0.0028      100.0706  4.87659         4.876441        1027.5749  1027.5751  289.999     -1.032                0.0235         0.001          31.69418  -64.14682  2.2562        2.6184        6.2845    6.339     292.233   36.6121     36.6119     18.8188            18.8233             18.8176            18.8221             
InVirTC2     2019-10-12T23:03:26Z    -0.0017      100.0437  4.882113        4.881827        1027.5743  1027.5736  290.023     1.201                 0.0249         0.0096         31.69326  -64.14822  2.2785        2.6415        6.3494    6.3887    292.257   36.6244     36.623      18.8576            18.8621             18.8564            18.8609             
InVirTC2     2019-10-12T23:03:26Z    -0.0017      100.0435  4.880891        4.880668        1027.5806  1027.5798  290.982     1.002                 0.0295         0.0025         31.69328  -64.14822  2.2761        2.638         6.3369    6.3818    293.224   36.6234     36.6221     18.8467            18.8512             18.8459            18.8505             
InVirTC2     2019-10-12T23:03:26Z    -0.0028      100.0698  4.87543         4.875704        1027.5802  1027.5799  291.025     -0.729                0.0232         0.0064         31.69418  -64.14682  2.2544        2.6173        6.2759    6.3379    293.268   36.61       36.6104     18.8097            18.8142             18.8119            18.8164             
InVirTC2     2019-10-12T23:03:26Z    -0.0018      100.0452  4.879998        4.879678        1027.5856  1027.5849  291.965     0.823                 0.031          -0.003         31.69328  -64.14822  2.2741        2.6363        6.3302    6.3786    294.216   36.6218     36.6205     18.8395            18.844              18.838             18.8425             
InVirTC2     2019-10-12T23:03:26Z    -0.0027      100.0678  4.875166        4.874876        1027.5887  1027.5856  292.057     -0.578                0.0233         0.001          31.69418  -64.14684  2.2522        2.6145        6.265     6.3245    294.308   36.6131     36.6094     18.8033            18.8078             18.8046            18.8091             
InVirTC2     2019-10-12T23:03:26Z    -0.0026      100.0658  4.87384         4.874262        1027.5924  1027.5905  292.972     -0.802                0.0215         0.0098         31.69418  -64.14685  2.2517        2.6137        6.2573    6.3252    295.23    36.6095     36.6087     18.7942            18.7987             18.7992            18.8037             
InVirTC2     2019-10-12T23:03:26Z    0.0001       99.9965   4.879316        4.879024        1027.5912  1027.5906  292.993     0.906                 0.0254         0.0169         31.69326  -64.1482   2.2728        2.6356        6.3291    6.3782    295.252   36.6212     36.6199     18.8333            18.8378             18.832             18.8365             
InVirTC2     2019-10-12T23:03:26Z    -0.0016      100.0403  4.878876        4.878578        1027.5959  1027.5952  293.967     1.074                 0.0226         0.0169         31.69326  -64.1482   2.2714        2.6372        6.3249    6.3931    296.234   36.6205     36.6191     18.8295            18.834              18.8282            18.8327             
InVirTC2     2019-10-12T23:03:26Z    -0.0026      100.0658  4.872442        4.873147        1027.6003  1027.5969  294.006     -0.908                0.0231         0.0179         31.69418  -64.14686  2.2543        2.6134        6.2751    6.3349    296.274   36.6093     36.6078     18.7807            18.7852             18.7891            18.7936             
InVirTC2     2019-10-12T23:03:26Z    -0.0017      100.0429  4.878311        4.878044        1027.601   1027.6003  294.985     1.181                 0.0274         0.0081         31.69328  -64.14822  2.2711        2.6379        6.3267    6.4002    297.261   36.6196     36.6184     18.8246            18.8291             18.8235            18.828              
InVirTC2     2019-10-12T23:03:26Z    -0.0027      100.0663  4.872469        4.872026        1027.6042  1027.6023  295.026     -1.038                0.0267         0.0223         31.69418  -64.14686  2.2545        2.61          6.281     6.313     297.302   36.6088     36.6059     18.7811            18.7856             18.7801            18.7847             
InVirTC2     2019-10-12T23:03:26Z    -0.0027      100.0674  4.871429        4.871594        1027.6097  1027.6075  296.005     -1.09                 0.0214         0.0159         31.69418  -64.14686  2.2546        2.6078        6.287     6.3017    298.289   36.6074     36.6057     18.7723            18.7768             18.7758            18.7803             
InVirTC2     2019-10-12T23:03:26Z    -0.0017      100.0444  4.876875        4.876551        1027.6069  1027.6064  296.095     0.714                 0.0236         0.0077         31.69329  -64.14822  2.2709        2.6312        6.3322    6.3655    298.381   36.6171     36.6159     18.8133            18.8178             18.8116            18.8161             
InVirTC2     2019-10-12T23:03:26Z    -0.0015      100.039   4.876381        4.876064        1027.6109  1027.6103  296.947     0.392                 0.0223         0.0103         31.6933   -64.14821  2.2676        2.626         6.3138    6.3542    299.239   36.6161     36.6148     18.8093            18.8138             18.8078            18.8123             
InVirTC2     2019-10-12T23:03:26Z    -0.0026      100.0647  4.87128         4.871135        1027.6148  1027.6127  296.984     -0.958                0.0142         0.0023         31.69418  -64.14686  2.2532        2.6106        6.2787    6.3205    299.277   36.6076     36.6053     18.7702            18.7747             18.7714            18.7759             
InVirTC2     2019-10-12T23:03:26Z    -0.0016      100.0409  4.875479        4.875176        1027.6172  1027.6165  297.993     0.792                 0.0223         0.0096         31.6933   -64.1482   2.2659        2.6249        6.3093    6.3508    300.294   36.6155     36.6141     18.801             18.8055             18.7996            18.8041             
InVirTC2     2019-10-12T23:03:26Z    -0.0026      100.0651  4.87082         4.870877        1027.621   1027.6188  298.014     -0.751                0.018          0.0082         31.69417  -64.14686  2.2515        2.6115        6.2686    6.328     300.315   36.6081     36.6061     18.7648            18.7693             18.7676            18.7721             
InVirTC2     2019-10-12T23:03:26Z    -0.0012      100.0318  4.874383        4.874111        1027.6233  1027.6225  299         1.09                  0.0241         0.0158         31.6933   -64.1482   2.2629        2.6265        6.3004    6.369     301.309   36.6144     36.613      18.7913            18.7958             18.7902            18.7948             
InVirTC2     2019-10-12T23:03:26Z    -0.0024      100.0595  4.87114         4.870761        1027.6254  1027.6236  299.043     -0.605                0.0251         0.0094         31.69417  -64.14688  2.2522        2.6103        6.2835    6.3287    301.353   36.6086     36.6061     18.7668            18.7713             18.7661            18.7707             
InVirTC2     2019-10-12T23:03:26Z    -0.0027      100.0668  4.870598        4.870095        1027.6297  1027.6282  299.987     -0.76                 0.0261         0.0128         31.69418  -64.1469   2.2493        2.6069        6.2717    6.3236    302.305   36.6074     36.6048     18.7626            18.7671             18.7608            18.7653             
InVirTC2     2019-10-12T23:03:26Z    -0.0014      100.0359  4.872661        4.872376        1027.6291  1027.6284  300.014     1.187                 0.0225         0.0169         31.6933   -64.14821  2.2598        2.6233        6.2855    6.3589    302.333   36.6115     36.6102     18.7777            18.7822             18.7764            18.7809             
InVirTC2     2019-10-12T23:03:26Z    -0.0028      100.0694  4.868729        4.868933        1027.6368  1027.6346  300.94      -1.212                0.0289         0.0066         31.69416  -64.1469   2.2472        2.6027        6.2694    6.3045    303.266   36.6056     36.604      18.7464            18.7509             18.7502            18.7547             
InVirTC2     2019-10-12T23:03:26Z    -0.0011      100.0279  4.873042        4.872747        1027.634   1027.6333  301.001     1.124                 0.0252         0.0169         31.6933   -64.14822  2.2579        2.6194        6.2822    6.3337    303.328   36.6129     36.6115     18.7794            18.7839             18.7781            18.7826             
InVirTC2     2019-10-12T23:03:26Z    -0.0027      100.0666  4.867585        4.867384        1027.6422  1027.6401  301.969     -1.311                0.0298         0.0069         31.69416  -64.1469   2.2444        2.5999        6.2609    6.2922    304.304   36.6037     36.6013     18.7373            18.7418             18.738             18.7425             
InVirTC2     2019-10-12T23:03:26Z    -0.0016      100.0406  4.873068        4.872775        1027.6391  1027.6384  301.985     1.145                 0.0272         0.0161         31.6933   -64.14822  2.2562        2.6162        6.2811    6.3242    304.32    36.6135     36.6122     18.7785            18.783              18.7772            18.7817             
InVirTC2     2019-10-12T23:03:26Z    -0.0017      100.0432  4.872099        4.871811        1027.6453  1027.6446  302.992     1.242                 0.028          0.0096         31.69332  -64.14822  2.2558        2.6168        6.2827    6.3347    305.335   36.6128     36.6115     18.7695            18.7741             18.7683            18.7728             
InVirTC2     2019-10-12T23:03:26Z    -0.0026      100.0649  4.866999        4.866514        1027.6481  1027.6472  302.998     -1.059                0.0265         0.0059         31.69416  -64.1469   2.2435        2.6006        6.2599    6.2973    305.342   36.6036     36.6015     18.7313            18.7358             18.729             18.7335             
InVirTC2     2019-10-12T23:03:26Z    -0.0019      100.0488  4.866856        4.866698        1027.6541  1027.6518  304.012     -0.646                0.0241         -0.0051        31.69416  -64.1469   2.2416        2.6009        6.2495    6.3004    306.364   36.6046     36.602      18.7284            18.7329             18.7298            18.7343             
InVirTC2     2019-10-12T23:03:26Z    -0.0017      100.0436  4.871416        4.871157        1027.6507  1027.6503  304.036     1.31                  0.0286         0.0096         31.69332  -64.14822  2.2559        2.6163        6.2896    6.3425    306.389   36.612      36.6109     18.7635            18.768              18.7623            18.7668             
InVirTC2     2019-10-12T23:03:26Z    -0.0027      100.0667  4.865829        4.865532        1027.6599  1027.658   305.152     -0.369                0.0223         0.0078         31.69416  -64.14692  2.2393        2.6007        6.244     6.3143    307.514   36.6028     36.6003     18.7201            18.7246             18.7201            18.7246             
InVirTC2     2019-10-12T23:03:26Z    -0.0018      100.0449  4.871072        4.870726        1027.6553  1027.6553  305.194     0.729                 0.0268         0.0067         31.69332  -64.14822  2.256         2.6163        6.2932    6.3449    307.556   36.6105     36.6098     18.7614            18.7659             18.759             18.7635             
InVirTC2     2019-10-12T23:03:26Z    -0.0025      100.0627  4.864483        4.864259        1027.6643  1027.6625  305.894     -1.274                0.02           0.0161         31.69416  -64.14692  2.2363        2.5932        6.2311    6.2832    308.263   36.6007     36.5984     18.7093            18.7138             18.7097            18.7142             
InVirTC2     2019-10-12T23:03:26Z    -0.0018      100.0469  4.871307        4.870275        1027.6592  1027.6593  305.914     0.288                 0.0271         0.0142         31.69332  -64.14821  2.2568        2.6149        6.2983    6.3367    308.282   36.6118     36.6094     18.762             18.7665             18.7548            18.7593             
InVirTC2     2019-10-12T23:03:26Z    -0.0019      100.0475  4.870353        4.869984        1027.665   1027.6643  306.953     0.751                 0.023          0.0215         31.69334  -64.1482   2.2559        2.6157        6.2943    6.3466    309.331   36.6106     36.6091     18.7537            18.7582             18.7519            18.7564             
InVirTC2     2019-10-12T23:03:26Z    -0.0024      100.0614  4.862786        4.862544        1027.6702  1027.6689  307.003     -1.537                0.0182         0.0096         31.69416  -64.14692  2.235         2.5901        6.2272    6.2695    309.381   36.5975     36.5958     18.6962            18.7007             18.6959            18.7003             
InVirTC2     2019-10-12T23:03:26Z    -0.0017      100.0446  4.868648        4.868405        1027.6735  1027.6727  307.985     1.129                 0.0243         0.0096         31.69334  -64.1482   2.255         2.6164        6.2911    6.3527    310.371   36.6102     36.6089     18.7374            18.7419             18.7366            18.7411             
InVirTC2     2019-10-12T23:03:26Z    -0.0025      100.0634  4.862015        4.861386        1027.6762  1027.676   308.005     -1.356                0.0201         0.0096         31.69416  -64.14694  2.2354        2.5914        6.2316    6.2822    310.391   36.5971     36.5954     18.6889            18.6934             18.6847            18.6892             
InVirTC2     2019-10-12T23:03:26Z    -0.0022      100.0548  4.860604        4.86029         1027.682   1027.6812  309.001     -1.054                0.0211         0.0096         31.69416  -64.14692  2.2354        2.593         6.237     6.2912    311.396   36.5951     36.5936     18.6772            18.6817             18.676             18.6805             
InVirTC2     2019-10-12T23:03:26Z    -0.0017      100.0446  4.866712        4.866474        1027.679   1027.6783  309.041     1.384                 0.0304         0.0096         31.69334  -64.1482   2.2532        2.618         6.2838    6.3619    311.436   36.6064     36.6051     18.7229            18.7274             18.722             18.7265             
InVirTC2     2019-10-12T23:03:26Z    -0.0024      100.061   4.860047        4.860261        1027.6907  1027.6885  310.017     -0.647                0.0255         0.0096         31.69416  -64.1469   2.2354        2.5918        6.2427    6.2831    312.42    36.5978     36.5961     18.6685            18.673              18.6724            18.6769             
InVirTC2     2019-10-12T23:03:26Z    -0.0017      100.0447  4.865606        4.865289        1027.6844  1027.6837  310.058     1.457                 0.0327         0.0077         31.69334  -64.14822  2.2527        2.6144        6.2834    6.3484    312.462   36.6046     36.6032     18.7138            18.7183             18.7124            18.7169             
InVirTC2     2019-10-12T23:03:26Z    -0.0018      100.0461  4.864748        4.864459        1027.6886  1027.688   311.045     1.222                 0.0285         0.0036         31.69336  -64.14822  2.2472        2.6087        6.2604    6.3153    313.457   36.6023     36.6011     18.7078            18.7123             18.7064            18.7109             
InVirTC2     2019-10-12T23:03:26Z    -0.0019      100.0477  4.860026        4.859932        1027.6948  1027.6927  311.18      -0.378                0.0255         0.0096         31.69416  -64.14692  2.2327        2.5914        6.2271    6.2863    313.593   36.5966     36.5944     18.6691            18.6736             18.6708            18.6752             
InVirTC2     2019-10-12T23:03:26Z    -0.0021      100.054   4.859524        4.859404        1027.6987  1027.6965  311.899     -1.378                0.0217         0.0145         31.69416  -64.14696  2.2325        2.5897        6.2365    6.2871    314.318   36.5961     36.5937     18.6646            18.6691             18.6662            18.6707             
InVirTC2     2019-10-12T23:03:26Z    -0.0017      100.0446  4.865278        4.864962        1027.6927  1027.692   312.01      0.812                 0.0276         0.0096         31.69335  -64.14822  2.2398        2.5984        6.2216    6.2754    314.43    36.6034     36.6019     18.7113            18.7157             18.7099            18.7144             
InVirTC2     2019-10-12T23:03:26Z    -0.0027      100.0675  4.859157        4.858764        1027.7036  1027.7021  312.971     -1.765                0.0239         0.0023         31.69416  -64.14696  2.2299        2.5902        6.2288    6.2923    315.4     36.5953     36.5929     18.6615            18.666              18.6605            18.6649             
InVirTC2     2019-10-12T23:03:26Z    -0.0018      100.0451  4.865879        4.865589        1027.6985  1027.6979  312.992     0.733                 0.028          0.0096         31.69334  -64.14821  2.2361        2.5941        6.2171    6.2686    315.421   36.6061     36.6049     18.7135            18.718              18.7121            18.7166             
InVirTC2     2019-10-12T23:03:26Z    -0.0017      100.0435  4.864734        4.864405        1027.7048  1027.7041  313.99      0.896                 0.0263         0.0096         31.69335  -64.1482   2.2372        2.5974        6.2383    6.3041    316.427   36.6052     36.6037     18.7032            18.7077             18.7017            18.7062             
InVirTC2     2019-10-12T23:03:26Z    -0.0018      100.0461  4.858695        4.858385        1027.7096  1027.7076  314.058     -1.619                0.0249         0.0023         31.69416  -64.14694  2.2287        2.5869        6.2167    6.2763    316.496   36.5952     36.5927     18.6567            18.6612             18.6566            18.6611             
InVirTC2     2019-10-12T23:03:26Z    -0.0017      100.0446  4.864101        4.8638          1027.7102  1027.7095  314.982     1.116                 0.0252         0.0092         31.69336  -64.1482   2.2376        2.6007        6.2466    6.3269    317.428   36.6046     36.6031     18.6974            18.7019             18.6961            18.7006             
InVirTC2     2019-10-12T23:03:26Z    -0.002       100.0501  4.858479        4.858062        1027.7146  1027.7129  315.039     -1.299                0.0239         0.0023         31.69416  -64.14693  2.2268        2.5862        6.1987    6.2692    317.485   36.5953     36.5927     18.6542            18.6587             18.6531            18.6575             
InVirTC2     2019-10-12T23:03:26Z    -0.0017      100.0447  4.862382        4.862148        1027.7177  1027.7169  315.995     1.306                 0.0287         0.0023         31.69336  -64.14822  2.2397        2.6017        6.2584    6.3312    318.449   36.6033     36.602      18.682             18.6865             18.6812            18.6857             
InVirTC2     2019-10-12T23:03:26Z    -0.0027      100.0665  4.858348        4.858022        1027.7193  1027.7175  316.035     -0.87                 0.0234         0.0023         31.69416  -64.14692  2.2253        2.5848        6.1895    6.2598    318.49    36.5952     36.5928     18.6526            18.6571             18.6522            18.6567             
InVirTC2     2019-10-12T23:03:26Z    -0.0017      100.0436  4.861472        4.86116         1027.7224  1027.7217  317.019     1.357                 0.0271         0.011          31.69338  -64.14822  2.2413        2.6012        6.2696    6.3215    319.482   36.6013     36.5999     18.6751            18.6796             18.6737            18.6782             
InVirTC2     2019-10-12T23:03:26Z    -0.0025      100.0636  4.858244        4.858043        1027.7247  1027.7228  317.171     -0.674                0.0235         0.006          31.69416  -64.14698  2.2282        2.5846        6.2223    6.2795    319.635   36.5952     36.593      18.6511            18.6556             18.6517            18.6561             
InVirTC2     2019-10-12T23:03:26Z    -0.0027      100.0672  4.85802         4.857604        1027.727   1027.725   317.947     -2.176                0.0239         0.0064         31.69416  -64.14699  2.2233        2.5759        6.2083    6.2538    320.418   36.5936     36.5907     18.6504            18.6549             18.6497            18.6542             
InVirTC2     2019-10-12T23:03:26Z    -0.0017      100.0446  4.86188         4.861464        1027.7248  1027.7246  317.972     0.465                 0.0286         0.0088         31.69338  -64.14822  2.2397        2.5968        6.2518    6.2989    320.444   36.6005     36.5993     18.6796            18.684              18.6769            18.6814             
InVirTC2     2019-10-12T23:03:26Z    -0.0017      100.0434  4.861565        4.860817        1027.7308  1027.7306  318.966     0.485                 0.0231         0.0077         31.69338  -64.14824  2.237         2.5929        6.2403    6.2875    321.445   36.6011     36.5992     18.6754            18.6799             18.6704            18.6749             
InVirTC2     2019-10-12T23:03:26Z    -0.0023      100.0581  4.85686         4.856774        1027.732   1027.7305  319.015     -2.237                0.0215         0.0096         31.69416  -64.14698  2.2233        2.5745        6.2107    6.2542    321.496   36.591      36.5894     18.6418            18.6462             18.6428            18.6473             
InVirTC2     2019-10-12T23:03:26Z    -0.0016      100.0421  4.861199        4.860912        1027.7355  1027.7348  319.973     1.024                 0.0224         0.0102         31.69338  -64.14824  2.2372        2.5934        6.2489    6.2942    322.461   36.6004     36.5991     18.6723            18.6767             18.671             18.6755             
InVirTC2     2019-10-12T23:03:26Z    -0.0018      100.0461  4.855743        4.855558        1027.7394  1027.7363  320.012     -2.072                0.0165         0.0096         31.69415  -64.14697  2.2221        2.5743        6.2071    6.2529    322.501   36.5912     36.5879     18.6305            18.635              18.6325            18.637              
InVirTC2     2019-10-12T23:03:26Z    -0.0018      100.0461  4.861335        4.861042        1027.74    1027.7391  320.963     1.421                 0.0237         0.0242         31.69338  -64.14822  2.2374        2.5941        6.2514    6.3012    323.46    36.6008     36.5993     18.6727            18.6771             18.6716            18.6761             
InVirTC2     2019-10-12T23:03:26Z    -0.0019      100.0485  4.854591        4.854179        1027.7427  1027.7412  320.981     -1.79                 0.0194         0.0096         31.69414  -64.14696  2.2211        2.573         6.2028    6.2431    323.478   36.5875     36.5852     18.6232            18.6277             18.6219            18.6264             
InVirTC2     2019-10-12T23:03:26Z    -0.0016      100.0418  4.861251        4.86097         1027.745   1027.7443  322.002     1.745                 0.0246         0.0242         31.69338  -64.1482   2.2387        2.596         6.2582    6.3121    324.508   36.601      36.5996     18.6712            18.6757             18.6701            18.6746             
InVirTC2     2019-10-12T23:03:26Z    -0.0027      100.0674  4.853653        4.853131        1027.7498  1027.749   322.022     -1.4                  0.0198         0.0096         31.69414  -64.14696  2.2198        2.5703        6.1962    6.2332    324.528   36.5876     36.5857     18.6137            18.6181             18.6109            18.6154             
InVirTC2     2019-10-12T23:03:26Z    -0.0016      100.0414  4.861069        4.86082         1027.7495  1027.7488  322.989     1.967                 0.0247         0.0036         31.69339  -64.14821  2.2397        2.5977        6.2653    6.3215    325.503   36.6006     36.5993     18.6695            18.674              18.6686            18.6731             
InVirTC2     2019-10-12T23:03:26Z    -0.0024      100.0613  4.853288        4.85305         1027.7556  1027.7547  323.009     -0.915                0.0214         0.0096         31.69414  -64.14696  2.2193        2.5694        6.193     6.2346    325.523   36.588      36.5867     18.6093            18.6138             18.6086            18.6131             
InVirTC2     2019-10-12T23:03:26Z    -0.0018      100.0461  4.860854        4.8606          1027.7543  1027.7536  324.033     2.038                 0.0244         0.0023         31.6934   -64.14822  2.2399        2.6001        6.2684    6.3339    326.556   36.6002     36.5989     18.6674            18.672              18.6665            18.6709             
InVirTC2     2019-10-12T23:03:26Z    -0.0023      100.0583  4.853339        4.853426        1027.7617  1027.7592  324.2       -0.619                0.0242         0.0078         31.69414  -64.147    2.216         2.5649        6.1934    6.2288    326.725   36.5888     36.5867     18.6084            18.6129             18.6116            18.6161             
InVirTC2     2019-10-12T23:03:26Z    -0.0027      100.0671  4.851758        4.851331        1027.7648  1027.7632  324.981     -1.488                0.0208         0.0054         31.69414  -64.147    2.211         2.5599        6.1752    6.2117    327.513   36.5848     36.5823     18.5976            18.602              18.5963            18.6007             
InVirTC2     2019-10-12T23:03:26Z    -0.0017      100.043   4.860876        4.860627        1027.7588  1027.7582  325.268     0.75                  0.0217         0.014          31.69341  -64.14822  2.2384        2.5967        6.2547    6.3079    327.802   36.5993     36.598      18.6682            18.6727             18.6672            18.6717             
InVirTC2     2019-10-12T23:03:26Z    -0.0017      100.0439  4.861362        4.861121        1027.7615  1027.7604  325.877     0.232                 0.0156         0.0096         31.6934   -64.14824  2.2346        2.5953        6.2364    6.3103    328.416   36.6003     36.5987     18.6714            18.6759             18.6709            18.6754             
InVirTC2     2019-10-12T23:03:26Z    -0.0024      100.0607  4.850535        4.849969        1027.7702  1027.7707  326.046     -1.409                0.0201         0.0096         31.69414  -64.14698  2.2082        2.5566        6.1619    6.19      328.586   36.5825     36.5816     18.588             18.5924             18.5836            18.588              
InVirTC2     2019-10-12T23:03:26Z    -0.0017      100.0447  4.859568        4.859116        1027.769   1027.7688  326.976     0.753                 0.0218         0.0096         31.69342  -64.14824  2.2349        2.5963        6.2464    6.3198    329.524   36.5985     36.5973     18.6558            18.6603             18.6529            18.6574             
InVirTC2     2019-10-12T23:03:26Z    -0.0027      100.0684  4.850163        4.849387        1027.7741  1027.7744  327.003     -1.216                0.0239         0.0164         31.69414  -64.14699  2.2072        2.5561        6.161     6.1944    329.551   36.5812     36.5797     18.5855            18.5899             18.5797            18.5842             
InVirTC2     2019-10-12T23:03:26Z    -0.0018      100.0461  4.849011        4.848476        1027.7807  1027.7807  327.98      -0.981                0.0231         0.0169         31.69414  -64.147    2.2073        2.5589        6.1668    6.2184    330.537   36.5806     36.5794     18.5747            18.5792             18.5709            18.5754             
InVirTC2     2019-10-12T23:03:26Z    -0.0017      100.0424  4.858343        4.857841        1027.7763  1027.7752  328.003     1.15                  0.0245         0.0096         31.69342  -64.14822  2.2362        2.596         6.2568    6.3161    330.56    36.5982     36.596      18.644             18.6485             18.6417            18.6462             
InVirTC2     2019-10-12T23:03:26Z    -0.0017      100.0424  4.856327        4.856033        1027.7832  1027.7824  329.016     1.462                 0.0223         0.0096         31.69342  -64.1482   2.2361        2.5931        6.2621    6.3044    331.582   36.5957     36.5942     18.6272            18.6316             18.626             18.6305             
InVirTC2     2019-10-12T23:03:26Z    -0.0019      100.0482  4.848181        4.848335        1027.7878  1027.7856  329.033     -0.759                0.0182         0.0169         31.69414  -64.14702  2.2057        2.5597        6.1684    6.2267    331.599   36.5809     36.5792     18.566             18.5704             18.5694            18.5738             
InVirTC2     2019-10-12T23:03:26Z    -0.002       100.0515  4.848681        4.848399        1027.7918  1027.7902  330.038     -0.622                0.023          0.0139         31.69414  -64.14703  2.2025        2.5553        6.1538    6.2131    332.613   36.5816     36.5794     18.5695            18.574              18.5693            18.5737             
InVirTC2     2019-10-12T23:03:26Z    -0.0018      100.0461  4.855153        4.855008        1027.7886  1027.7878  330.047     1.683                 0.0223         0.0096         31.69343  -64.14821  2.2348        2.5892        6.2548    6.2852    332.622   36.5937     36.5926     18.6178            18.6223             18.6176            18.6221             
InVirTC2     2019-10-12T23:03:26Z    -0.0025      100.062   4.847874        4.84755         1027.7962  1027.7943  331.027     -0.745                0.0263         0.01           31.69414  -64.14706  2.1986        2.5504        6.1387    6.2053    333.611   36.5797     36.5771     18.5635            18.568              18.5633            18.5678             
InVirTC2     2019-10-12T23:03:26Z    -0.0017      100.0444  4.854727        4.854447        1027.7928  1027.7921  331.03      1.778                 0.0239         0.0096         31.69344  -64.14822  2.2327        2.5868        6.2409    6.2726    333.613   36.5925     36.5911     18.6146            18.6191             18.6134            18.6179             
InVirTC2     2019-10-12T23:03:26Z    -0.0018      100.0452  4.845915        4.846152        1027.8023  1027.7998  331.934     -1.323                0.0261         0.0159         31.69414  -64.14704  2.1961        2.5436        6.1303    6.1727    334.525   36.577      36.5752     18.5475            18.5519             18.5517            18.5562             
InVirTC2     2019-10-12T23:03:26Z    -0.0018      100.0449  4.854336        4.854042        1027.7977  1027.797   332.046     1.649                 0.0209         0.012          31.69344  -64.1482   2.2286        2.5864        6.2175    6.2794    334.638   36.5919     36.5906     18.6111            18.6156             18.6098            18.6143             
InVirTC2     2019-10-12T23:03:26Z    -0.0018      100.0455  4.85484         4.854575        1027.7997  1027.7991  332.955     0.505                 0.0234         0.0121         31.69343  -64.14823  2.223         2.5795        6.2027    6.2612    335.555   36.5911     36.5899     18.6164            18.6209             18.6152            18.6197             
InVirTC2     2019-10-12T23:03:26Z    -0.0018      100.0461  4.845041        4.844688        1027.8086  1027.8064  332.981     -1.353                0.0244         0.0096         31.69414  -64.14704  2.1944        2.5398        6.1287    6.1555    335.582   36.5765     36.5736     18.5392            18.5437             18.5391            18.5436             
InVirTC2     2019-10-12T23:03:26Z    -0.0018      100.0449  4.854346        4.853185        1027.8076  1027.8079  333.952     0.49                  0.0217         0.0086         31.69344  -64.14824  2.2217        2.5756        6.2107    6.2593    336.561   36.5931     36.5908     18.609             18.6135             18.6006            18.605              
InVirTC2     2019-10-12T23:03:26Z    -0.0018      100.0461  4.844411        4.843719        1027.812   1027.8121  334.002     -1.099                0.0268         0.0143         31.69412  -64.14702  2.1938        2.5404        6.1319    6.1654    336.611   36.5738     36.5723     18.5357            18.5402             18.5308            18.5352             
InVirTC2     2019-10-12T23:03:26Z    -0.0017      100.0445  4.85094         4.850578        1027.815   1027.8141  334.963     0.967                 0.022          0.0169         31.69344  -64.14824  2.2196        2.5771        6.2027    6.2695    337.58    36.5879     36.5862     18.5819            18.5864             18.5803            18.5848             
InVirTC2     2019-10-12T23:03:26Z    -0.0018      100.0461  4.843375        4.843116        1027.8185  1027.8178  335.014     -0.709                0.0254         0.015          31.69412  -64.14703  2.1922        2.542         6.1306    6.1765    337.631   36.5733     36.572      18.526             18.5305             18.5249            18.5294             
InVirTC2     2019-10-12T23:03:26Z    -0.0017      100.0444  4.850465        4.85016         1027.8196  1027.8188  335.981     1.307                 0.0275         0.0237         31.69346  -64.14824  2.2184        2.5768        6.1948    6.2741    338.607   36.5869     36.5853     18.5781            18.5826             18.5769            18.5814             
InVirTC2     2019-10-12T23:03:26Z    -0.0021      100.052   4.84322         4.842835        1027.8252  1027.8235  336.198     -0.276                0.0249         0.0095         31.69413  -64.14706  2.1871        2.5381        6.1147    6.1836    338.826   36.5742     36.5717     18.523             18.5274             18.5221            18.5265             
InVirTC2     2019-10-12T23:03:26Z    -0.0018      100.0455  4.842239        4.841674        1027.8278  1027.826   336.827     -1.317                0.025          0.0144         31.69412  -64.1471   2.1788        2.5239        6.075     6.1241    339.46    36.5717     36.5687     18.5162            18.5206             18.5141            18.5186             
InVirTC2     2019-10-12T23:03:26Z    -0.0017      100.0429  4.850092        4.849821        1027.8243  1027.8237  337.022     1.535                 0.0305         0.0201         31.69347  -64.14822  2.2176        2.5741        6.1937    6.2616    339.657   36.5859     36.5847     18.5751            18.5796             18.5739            18.5784             
InVirTC2     2019-10-12T23:03:26Z    -0.0008      100.0201  4.83985         4.839217        1027.8344  1027.8331  338.006     -1.664                0.0226         0.0169         31.69412  -64.14709  2.1766        2.5183        6.0737    6.1009    340.65    36.5673     36.5647     18.4978            18.5022             18.4946            18.4991             
InVirTC2     2019-10-12T23:03:26Z    -0.0018      100.0449  4.849748        4.849447        1027.8294  1027.8286  338.061     1.548                 0.0302         0.0096         31.69348  -64.14821  2.2156        2.5712        6.1887    6.2428    340.705   36.5856     36.5841     18.5718            18.5763             18.5706            18.5751             
InVirTC2     2019-10-12T23:03:26Z    -0.0014      100.035   4.838581        4.837633        1027.8389  1027.8399  338.988     -1.515                0.0234         0.0127         31.69412  -64.14708  2.1765        2.5197        6.082     6.1133    341.64    36.5644     36.5632     18.4884            18.4929             18.4808            18.4852             
InVirTC2     2019-10-12T23:03:26Z    -0.0018      100.0449  4.849008        4.848722        1027.8341  1027.8335  339.031     0.962                 0.0262         0.0167         31.69347  -64.14824  2.2121        2.5675        6.1746    6.2338    341.683   36.5841     36.5829     18.566             18.5704             18.5646            18.569              
InVirTC2     2019-10-12T23:03:26Z    -0.0018      100.0453  4.84826         4.84796         1027.839   1027.8384  339.934     0.561                 0.0231         0.0119         31.69346  -64.14822  2.2096        2.5643        6.1704    6.2304    342.595   36.5832     36.5819     18.5595            18.564              18.558             18.5625             
InVirTC2     2019-10-12T23:03:26Z    -0.0014      100.0357  4.834979        4.8347          1027.8456  1027.8424  340.02      -1.227                0.0279         0.0023         31.69412  -64.14706  2.1756        2.5203        6.0857    6.12      342.68    36.558      36.5543     18.4607            18.4652             18.4622            18.4667             
InVirTC2     2019-10-12T23:03:26Z    -0.0018      100.0449  4.847414        4.847136        1027.8446  1027.8441  340.978     0.809                 0.0285         0.004          31.69346  -64.14822  2.2078        2.5625        6.1674    6.2278    343.647   36.5821     36.5809     18.5522            18.5566             18.5508            18.5552             
InVirTC2     2019-10-12T23:03:26Z    -0.0007      100.0185  4.833084        4.832827        1027.8548  1027.8548  341.031     -0.881                0.0291         0.0137         31.69412  -64.14706  2.1731        2.5196        6.0754    6.1193    343.701   36.5579     36.5574     18.4422            18.4466             18.4404            18.4448             
InVirTC2     2019-10-12T23:03:26Z    -0.0018      100.0461  4.846904        4.846623        1027.8496  1027.849   341.983     1.065                 0.0278         0.0055         31.69346  -64.14822  2.2046        2.5586        6.1528    6.2124    344.661   36.5814     36.5801     18.5477            18.5521             18.5464            18.5509             
InVirTC2     2019-10-12T23:03:26Z    -0.0017      100.044   4.834765        4.834907        1027.8641  1027.8598  342.062     -0.465                0.0293         0.0216         31.69412  -64.14707  2.1693        2.5183        6.0435    6.1169    344.741   36.5663     36.5626     18.4484            18.4529             18.454             18.4584             
InVirTC2     2019-10-12T23:03:26Z    -0.0017      100.0447  4.846339        4.846075        1027.8557  1027.855   342.992     1.241                 0.0282         0.01           31.69348  -64.14822  2.2036        2.5572        6.1481    6.2064    345.678   36.5814     36.5802     18.5417            18.5462             18.5406            18.5451             
InVirTC2     2019-10-12T23:03:26Z    -0.0017      100.0447  4.833413        4.833248        1027.8628  1027.8607  343.027     -0.436                0.0266         0.0111         31.69412  -64.1471   2.1703        2.5159        6.0475    6.1095    345.714   36.5578     36.5554     18.4447            18.4491             18.4458            18.4502             
InVirTC2     2019-10-12T23:03:26Z    -0.0018      100.0461  4.831019        4.830574        1027.8701  1027.8688  343.951     -1.32                 0.0257         0.0065         31.69412  -64.1471   2.1729        2.5128        6.0683    6.0985    346.646   36.5552     36.5529     18.4243            18.4287             18.4226            18.427              
InVirTC2     2019-10-12T23:03:26Z    -0.0017      100.0429  4.84496         4.844676        1027.8623  1027.8619  344.013     1.257                 0.0243         0.0169         31.69349  -64.14823  2.2029        2.5575        6.1548    6.2195    346.709   36.5802     36.5791     18.5296            18.534              18.528             18.5325             
InVirTC2     2019-10-12T23:03:26Z    -0.0018      100.0461  4.829648        4.828909        1027.8765  1027.8744  344.966     -1.704                0.0221         0.0032         31.69412  -64.14711  2.1728        2.5127        6.0693    6.0976    347.67    36.5538     36.55       18.4123            18.4167             18.4095            18.4139             
InVirTC2     2019-10-12T23:03:26Z    -0.0017      100.0444  4.843573        4.843343        1027.8674  1027.8668  345.019     0.65                  0.0188         0.0136         31.6935   -64.14824  2.1999        2.5523        6.145     6.2007    347.723   36.5774     36.5763     18.5189            18.5233             18.518             18.5224             
InVirTC2     2019-10-12T23:03:26Z    -0.0018      100.0452  4.843344        4.843014        1027.8718  1027.8711  345.95      0.457                 0.0177         0.0169         31.69349  -64.14823  2.1952        2.5467        6.1249    6.1818    348.662   36.5772     36.5757     18.5166            18.5211             18.5152            18.5196             
InVirTC2     2019-10-12T23:03:26Z    -0.0017      100.0444  4.828436        4.827517        1027.8828  1027.8819  345.973     -1.677                0.0231         0.0096         31.69412  -64.14712  2.1718        2.5128        6.0639    6.096     348.685   36.5526     36.5496     18.4016            18.406              18.3962            18.4006             
InVirTC2     2019-10-12T23:03:26Z    -0.0017      100.0447  4.842973        4.842851        1027.8769  1027.8758  346.971     0.838                 0.0234         0.0184         31.69348  -64.14824  2.1944        2.5455        6.1252    6.1852    349.692   36.5767     36.5754     18.5132            18.5176             18.5134            18.5179             
InVirTC2     2019-10-12T23:03:26Z    -0.0018      100.0461  4.827284        4.826528        1027.8885  1027.8881  347.021     -1.442                0.0245         0.0122         31.69412  -64.14712  2.1714        2.513         6.0594    6.0975    349.743   36.5508     36.5486     18.3921            18.3965             18.3873            18.3917             
InVirTC2     2019-10-12T23:03:26Z    -0.0017      100.0445  4.839298        4.83932         1027.8878  1027.8869  347.974     1.139                 0.0213         0.0242         31.69348  -64.14824  2.1945        2.544         6.1372    6.1853    350.704   36.5742     36.5734     18.4804            18.4848             18.4815            18.4859             
InVirTC2     2019-10-12T23:03:26Z    -0.0017      100.0442  4.826301        4.825946        1027.8959  1027.8952  348.039     -1.114                0.026          0.0169         31.69412  -64.14712  2.1716        2.5148        6.0616    6.1104    350.769   36.5513     36.5497     18.3818            18.3862             18.3801            18.3845             
InVirTC2     2019-10-12T23:03:26Z    -0.0017      100.0444  4.835328        4.835077        1027.895   1027.8941  348.984     1.378                 0.0194         0.0193         31.6935   -64.14824  2.1933        2.539         6.1382    6.1678    351.723   36.5674     36.566      18.4496            18.454              18.4488            18.4532             
InVirTC2     2019-10-12T23:03:26Z    -0.0017      100.0447  4.826004        4.826095        1027.9023  1027.8999  349.059     -0.693                0.0195         0.0119         31.69412  -64.14712  2.1725        2.5162        6.0698    6.1222    351.798   36.5522     36.5501     18.3774            18.3818             18.3806            18.385              
InVirTC2     2019-10-12T23:03:26Z    -0.0018      100.0461  4.833212        4.83298         1027.9009  1027.9001  349.968     1.542                 0.0249         0.0169         31.69351  -64.14823  2.1911        2.5375        6.1271    6.1598    352.715   36.5638     36.5626     18.433             18.4374             18.4321            18.4365             
InVirTC2     2019-10-12T23:03:26Z    -0.0017      100.0443  4.826436        4.82618         1027.9066  1027.9045  350.278     -0.227                0.0204         0.0122         31.69411  -64.14713  2.1736        2.5166        6.0874    6.1204    353.028   36.5521     36.5496     18.3812            18.3856             18.3815            18.386              
InVirTC2     2019-10-12T23:03:26Z    -0.0017      100.0443  4.826013        4.826012        1027.9104  1027.9074  350.882     -1.158                0.0234         0.0176         31.6941   -64.14715  2.1674        2.5162        6.0612    6.1328    353.637   36.5521     36.5493     18.3768            18.3812             18.3799            18.3843             
InVirTC2     2019-10-12T23:03:26Z    -0.0017      100.0432  4.831553        4.831295        1027.9071  1027.9064  350.999     1.609                 0.027          0.0104         31.69352  -64.14822  2.1881        2.5355        6.1119    6.159     353.755   36.5615     36.5602     18.4193            18.4237             18.4183            18.4227             
InVirTC2     2019-10-12T23:03:26Z    -0.0017      100.0432  4.825387        4.824149        1027.9159  1027.9137  351.979     -1.776                0.0263         0.0051         31.6941   -64.14714  2.1654        2.511         6.0513    6.1119    354.743   36.5513     36.5463     18.3713            18.3757             18.365             18.3694             
InVirTC2     2019-10-12T23:03:26Z    -0.0018      100.045   4.829954        4.829695        1027.9136  1027.913   352.066     1.473                 0.0301         0.0055         31.69352  -64.14822  2.1816        2.5294        6.0804    6.1422    354.832   36.5593     36.5582     18.4059            18.4104             18.4048            18.4092             
InVirTC2     2019-10-12T23:03:26Z    -0.0016      100.0398  4.831629        4.830583        1027.9142  1027.9154  352.96      0.484                 0.029          0.0083         31.69352  -64.14823  2.1758        2.5208        6.0705    6.1166    355.734   36.56       36.5588     18.4208            18.4252             18.4122            18.4166             
InVirTC2     2019-10-12T23:03:26Z    -0.0018      100.0461  4.823898        4.821871        1027.92    1027.9239  353.019     -1.722                0.0251         0.0039         31.6941   -64.14714  2.1647        2.5097        6.0499    6.1104    355.793   36.5472     36.5461     18.3612            18.3656             18.3429            18.3473             
InVirTC2     2019-10-12T23:03:26Z    -0.0018      100.0449  4.830435        4.829413        1027.9233  1027.9232  353.944     0.478                 0.0219         0.0096         31.69352  -64.14824  2.176         2.5161        6.0873    6.1098    356.726   36.5617     36.5592     18.4071            18.4115             18.4001            18.4045             
InVirTC2     2019-10-12T23:03:26Z    -0.0016      100.0418  4.82149         4.820257        1027.9264  1027.9277  354.007     -1.479                0.0246         0.0096         31.6941   -64.14714  2.1647        2.5087        6.0564    6.1123    356.79    36.5435     36.5418     18.3419            18.3463             18.3319            18.3363             
InVirTC2     2019-10-12T23:03:26Z    -0.0017      100.0446  4.829391        4.829104        1027.9286  1027.9278  354.963     0.947                 0.0212         0.0105         31.69352  -64.14824  2.1752        2.5169        6.0819    6.1188    357.754   36.5599     36.5585     18.3987            18.4031             18.3975            18.4019             
InVirTC2     2019-10-12T23:03:26Z    -0.0017      100.0426  4.819428        4.818974        1027.9368  1027.9355  355.029     -1.127                0.0243         0.0096         31.6941   -64.14715  2.1649        2.5085        6.0634    6.1148    357.82    36.5441     36.5418     18.321             18.3254             18.3192            18.3236             
InVirTC2     2019-10-12T23:03:26Z    -0.0018      100.0461  4.829607        4.829257        1027.9346  1027.9336  355.998     1.289                 0.0229         0.0169         31.69354  -64.14824  2.1748        2.5189        6.0801    6.1341    358.798   36.5617     36.5599     18.3983            18.4027             18.3969            18.4014             
InVirTC2     2019-10-12T23:03:26Z    -0.0018      100.0461  4.81839         4.817918        1027.9439  1027.9429  356.057     -0.618                0.0266         0.0096         31.6941   -64.14716  2.1646        2.5072        6.0665    6.1117    358.857   36.544      36.542      18.3106            18.315              18.3083            18.3127             
InVirTC2     2019-10-12T23:03:26Z    -0.0017      100.0429  4.828294        4.828098        1027.9427  1027.9418  357.011     1.488                 0.0183         0.0128         31.69354  -64.14824  2.1749        2.5203        6.084     6.146     359.82    36.562      36.5607     18.3849            18.3893             18.3845            18.3889             
InVirTC2     2019-10-12T23:03:26Z    -0.0017      100.0432  4.819099        4.818674        1027.9484  1027.9467  357.169     -0.41                 0.0243         0.0128         31.6941   -64.14717  2.1611        2.5023        6.0501    6.0977    359.979   36.5453     36.5426     18.3156            18.3199             18.3145            18.3189             
InVirTC2     2019-10-12T23:03:26Z    -0.0017      100.0424  4.817543        4.816934        1027.9532  1027.9517  357.951     -1.492                0.0274         0.0239         31.6941   -64.14718  2.1584        2.4974        6.0442    6.0804    360.767   36.5428     36.54       18.303             18.3074             18.3004            18.3048             
InVirTC2     2019-10-12T23:03:26Z    -0.0017      100.0441  4.825791        4.82556         1027.9509  1027.9501  358.055     1.419                 0.0165         0.0096         31.69355  -64.14824  2.1752        2.5243        6.0916    6.164     360.873   36.5594     36.5581     18.3634            18.3678             18.3626            18.367              
InVirTC2     2019-10-12T23:03:26Z    -0.0017      100.043   4.816919        4.81652         1027.9577  1027.9577  358.989     -1.543                0.0264         0.0242         31.6941   -64.14718  2.1575        2.4959        6.04      6.0734    361.815   36.5412     36.5403     18.2984            18.3028             18.2957            18.3001             
InVirTC2     2019-10-12T23:03:26Z    -0.0017      100.0433  4.821906        4.821676        1027.9584  1027.9578  359.002     0.871                 0.0222         0.0096         31.69355  -64.14824  2.1785        2.5262        6.1149    6.1729    361.829   36.5535     36.5524     18.3324            18.3368             18.3315            18.3359             
InVirTC2     2019-10-12T23:03:26Z    -0.0018      100.0451  4.820287        4.820048        1027.9633  1027.9624  359.972     0.691                 0.0248         0.015          31.69354  -64.14824  2.1793        2.5244        6.121     6.1551    362.807   36.5502     36.5488     18.3203            18.3247             18.3195            18.3239             
InVirTC2     2019-10-12T23:03:26Z    -0.0017      100.0426  4.816553        4.816221        1027.9629  1027.9616  360.013     -1.43                 0.0243         0.0169         31.6941   -64.14718  2.156         2.4954        6.0347    6.0734    362.848   36.5409     36.5389     18.2948            18.2992             18.2939            18.2983             
InVirTC2     2019-10-12T23:03:26Z    -0.0017      100.0438  4.819724        4.819455        1027.9687  1027.968   360.998     0.887                 0.0206         0.0169         31.69354  -64.14826  2.1744        2.5191        6.0821    6.1314    363.842   36.5496     36.5483     18.315             18.3194             18.3139            18.3183             
InVirTC2     2019-10-12T23:03:26Z    -0.0018      100.0461  4.815802        4.815847        1027.9679  1027.9668  361.022     -1.235                0.0249         0.0096         31.6941   -64.14718  2.1557        2.4956        6.0368    6.0796    363.866   36.5396     36.5386     18.2886            18.293              18.2902            18.2946             
InVirTC2     2019-10-12T23:03:26Z    -0.0009      100.0216  4.81559         4.815121        1027.9741  1027.9719  362.007     -1.004                0.0241         0.0096         31.6941   -64.14718  2.1548        2.4956        6.0339    6.0829    364.86    36.5408     36.5376     18.2848            18.2892             18.2839            18.2883             
InVirTC2     2019-10-12T23:03:26Z    -0.0017      100.0447  4.819393        4.819141        1027.9736  1027.9729  362.014     1.074                 0.0197         0.0131         31.69354  -64.14826  2.1717        2.5159        6.0696    6.1167    364.867   36.5492     36.5479     18.3119            18.3163             18.311             18.3154             
InVirTC2     2019-10-12T23:03:26Z    -0.0017      100.0429  4.819341        4.819058        1027.9777  1027.9771  362.938     1.196                 0.0224         0.0096         31.69355  -64.14826  2.1712        2.5154        6.0759    6.1239    365.798   36.549      36.5478     18.3112            18.3156             18.3099            18.3143             
InVirTC2     2019-10-12T23:03:26Z    -0.0015      100.0374  4.815289        4.814762        1027.979   1027.9783  363.015     -0.738                0.0264         0.0056         31.6941   -64.14718  2.154         2.4944        6.0284    6.0791    365.877   36.5405     36.5385     18.2819            18.2863             18.2791            18.2834             
InVirTC2     2019-10-12T23:03:26Z    -0.0017      100.0438  4.819288        4.819007        1027.9823  1027.9817  364.008     1.274                 0.0245         0.0096         31.69357  -64.14825  2.1712        2.5168        6.0846    6.1404    366.878   36.5487     36.5475     18.3106            18.315              18.3093            18.3137             
InVirTC2     2019-10-12T23:03:26Z    -0.001       100.0262  4.815732        4.81542         1027.9823  1027.9825  364.053     -0.481                0.0248         0.0064         31.6941   -64.14719  2.1534        2.4924        6.0313    6.0755    366.923   36.5402     36.5396     18.286             18.2904             18.2837            18.2881             
InVirTC2     2019-10-12T23:03:26Z    -0.0017      100.0428  4.819609        4.819139        1027.9849  1027.9848  364.869     0.376                 0.0243         0.0136         31.69357  -64.14826  2.17          2.5154        6.0813    6.1335    367.747   36.5483     36.547      18.3138            18.3182             18.3107            18.3151             
InVirTC2     2019-10-12T23:03:26Z    -0.0017      100.0424  4.815091        4.815148        1027.9879  1027.9857  365.036     -0.477                0.0227         0.0125         31.69408  -64.14722  2.15          2.4879        6.0291    6.0715    367.915   36.5398     36.5379     18.28              18.2843             18.2826            18.287              
InVirTC2     2019-10-12T23:03:26Z    -0.0016      100.0422  4.814905        4.814558        1027.9912  1027.9896  365.901     -1.324                0.0203         0.0061         31.69408  -64.14722  2.1434        2.4788        5.9967    6.0352    368.787   36.5388     36.5365     18.2789            18.2832             18.2781            18.2825             
InVirTC2     2019-10-12T23:03:26Z    -0.0017      100.0426  4.81936         4.81905         1027.9907  1027.9902  365.976     0.597                 0.0205         0.0227         31.69356  -64.14826  2.1688        2.5126        6.0784    6.1246    368.864   36.5484     36.5472     18.3107            18.3151             18.3091            18.3135             
InVirTC2     2019-10-12T23:03:26Z    -0.0017      100.043   4.81315         4.812238        1027.997   1027.9953  366.976     -1.668                0.0187         0.0062         31.69408  -64.1472   2.1411        2.4749        5.9859    6.0119    369.872   36.5357     36.5319     18.2651            18.2695             18.2606            18.265              
InVirTC2     2019-10-12T23:03:26Z    -0.0018      100.0461  4.819443        4.819101        1027.9952  1027.9945  366.992     1.154                 0.0178         0.0169         31.69356  -64.14826  2.1694        2.5132        6.0823    6.1305    369.888   36.5486     36.5471     18.3109            18.3153             18.3093            18.3137             
InVirTC2     2019-10-12T23:03:26Z    -0.0015      100.0387  4.81193         4.811795        1028.001   1028.0032  367.959     -1.657                0.0193         0.0169         31.69408  -64.1472   2.1411        2.4745        5.9862    6.0096    370.864   36.5324     36.5342     18.2567            18.2611             18.2534            18.2577             
InVirTC2     2019-10-12T23:03:26Z    -0.0016      100.0414  4.819702        4.819381        1027.9997  1027.999   368.029     1.598                 0.0175         0.0169         31.69356  -64.14826  2.1704        2.5132        6.0895    6.1325    370.934   36.549      36.5476     18.3125            18.3169             18.311             18.3154             
InVirTC2     2019-10-12T23:03:26Z    -0.0017      100.0444  4.810331        4.809924        1028.0078  1028.0042  368.978     -1.499                0.0216         0.013          31.69408  -64.1472   2.1411        2.476         5.9861    6.0162    371.892   36.5308     36.5264     18.2427            18.2471             18.2437            18.2481             
InVirTC2     2019-10-12T23:03:26Z    -0.0018      100.0461  4.81981         4.819504        1028.0045  1028.0038  369.002     1.923                 0.0185         0.0169         31.69358  -64.14826  2.1713        2.5129        6.097     6.1332    371.916   36.5496     36.5482     18.3124            18.3168             18.311             18.3154             
InVirTC2     2019-10-12T23:03:26Z    -0.0017      100.0437  4.819561        4.819258        1028.0095  1028.0087  369.987     2.162                 0.0207         0.0169         31.69358  -64.14826  2.1713        2.5147        6.0993    6.14      372.91    36.5496     36.5481     18.3096            18.314              18.3084            18.3128             
InVirTC2     2019-10-12T23:03:26Z    -0.0015      100.0374  4.808753        4.807927        1028.0144  1028.0148  370.034     -1.219                0.0244         0.0096         31.69408  -64.14723  2.1411        2.4777        5.9875    6.0268    372.957   36.5289     36.5272     18.2293            18.2336             18.2232            18.2275             
InVirTC2     2019-10-12T23:03:26Z    -0.0016      100.0412  4.807243        4.80672         1028.0207  1028.0219  371.024     -0.89                 0.0277         0.0146         31.69408  -64.14724  2.1419        2.4793        5.9936    6.034     373.956   36.527      36.527      18.2164            18.2208             18.2114            18.2158             
InVirTC2     2019-10-12T23:03:26Z    -0.0017      100.0439  4.818591        4.818352        1028.0154  1028.0147  371.034     2.297                 0.0245         0.0169         31.69358  -64.14826  2.1713        2.5157        6.0992    6.1479    373.966   36.5485     36.5472     18.3011            18.3055             18.3003            18.3046             
InVirTC2     2019-10-12T23:03:26Z    -0.0017      100.0441  4.807722        4.807526        1028.0296  1028.0269  372.031     -0.5                  0.0248         0.0133         31.69408  -64.14722  2.1427        2.481         5.9984    6.0441    374.971   36.5323     36.5293     18.2146            18.219              18.2161            18.2205             
InVirTC2     2019-10-12T23:03:26Z    -0.0018      100.0461  4.817101        4.816912        1028.0218  1028.021   372.041     2.198                 0.0238         0.0169         31.69358  -64.14826  2.1724        2.5168        6.1039    6.1568    374.982   36.5468     36.5456     18.2884            18.2928             18.2878            18.2922             
InVirTC2     2019-10-12T23:03:26Z    -0.0017      100.0428  4.817837        4.817526        1028.0204  1028.0203  372.741     0.831                 0.0215         0.0181         31.69359  -64.14827  2.1678        2.5102        6.0816    6.124     375.689   36.5442     36.5434     18.298             18.3024             18.2959            18.3003             
InVirTC2     2019-10-12T23:03:26Z    -0.0016      100.0421  4.807109        4.807891        1028.0316  1028.0293  373.034     -0.435                0.0213         0.0094         31.69408  -64.14723  2.1436        2.482         6.0068    6.054     375.983   36.5285     36.5281     18.2126            18.2169             18.2205            18.2249             
InVirTC2     2019-10-12T23:03:26Z    -0.0017      100.0445  4.804686        4.806106        1028.0406  1028.0344  373.961     -0.872                0.0247         0.0096         31.69408  -64.14725  2.1432        2.4801        6.0085    6.0421    376.919   36.5274     36.5249     18.1901            18.1945             18.2066            18.211              
InVirTC2     2019-10-12T23:03:26Z    -0.0016      100.0421  4.818831        4.818427        1028.0301  1028.0312  373.997     1.042                 0.0199         0.0169         31.69359  -64.14828  2.1652        2.5067        6.0823    6.1245    376.955   36.5503     36.5505     18.3001            18.3045             18.296             18.3004             
InVirTC2     2019-10-12T23:03:26Z    -0.0015      100.0381  4.804595        4.804301        1028.0449  1028.0428  374.989     -1.106                0.0252         0.0059         31.69407  -64.14726  2.1433        2.4798        6.0072    6.0389    377.956   36.5269     36.5242     18.1895            18.1938             18.1897            18.194              
InVirTC2     2019-10-12T23:03:26Z    -0.0018      100.0461  4.813099        4.811563        1028.042   1028.0403  374.997     1.496                 0.0191         0.0169         31.6936   -64.14828  2.1651        2.5084        6.087     6.1412    377.964   36.544      36.5388     18.2518            18.2562             18.2429            18.2473             
InVirTC2     2019-10-12T23:03:26Z    -0.0013      100.0331  4.810469        4.810191        1028.0463  1028.0453  375.991     1.816                 0.0181         0.0169         31.69361  -64.14828  2.164         2.5096        6.0823    6.1485    378.967   36.5377     36.5361     18.2333            18.2377             18.2324            18.2367             
InVirTC2     2019-10-12T23:03:26Z    -0.0008      100.019   4.803843        4.803443        1028.0507  1028.0489  375.991     -1.34                 0.0262         0.0023         31.69406  -64.14726  2.1425        2.4826        6.0027    6.0526    378.966   36.5264     36.5237     18.1824            18.1867             18.1815            18.1859             
InVirTC2     2019-10-12T23:03:26Z    -0.0011      100.0266  4.809324        4.809041        1028.0517  1028.0509  377.009     2.01                  0.0188         0.0145         31.69362  -64.14828  2.1632        2.5087        6.0755    6.1441    379.994   36.5358     36.5344     18.2239            18.2283             18.2228            18.2272             
InVirTC2     2019-10-12T23:03:26Z    -0.0008      100.0201  4.803099        4.802678        1028.0551  1028.0548  377.017     -1.408                0.0293         0.0023         31.69407  -64.14726  2.1439        2.4846        6.0152    6.0708    380.002   36.5245     36.5232     18.1769            18.1813             18.1744            18.1787             
InVirTC2     2019-10-12T23:03:26Z    -0.0017      100.0429  4.80262         4.802127        1028.0607  1028.0604  378         -1.31                 0.0268         0.0023         31.69408  -64.14726  2.1445        2.4859        6.0204    6.0762    380.993   36.5245     36.523      18.1719            18.1763             18.1688            18.1732             
InVirTC2     2019-10-12T23:03:26Z    -0.0009      100.0236  4.807731        4.807454        1028.0583  1028.0576  378.017     2.024                 0.0197         0.0096         31.69362  -64.14828  2.1603        2.5041        6.0607    6.1204    381.011   36.5341     36.5327     18.2102            18.2146             18.209             18.2134             
InVirTC2     2019-10-12T23:03:26Z    -0.0015      100.0389  4.802141        4.801409        1028.0638  1028.064   379.003     -1.131                0.0258         0.0059         31.69408  -64.14726  2.1441        2.4843        6.0173    6.062     382.005   36.522      36.5205     18.1697            18.174              18.1643            18.1687             
InVirTC2     2019-10-12T23:03:26Z    -0.0009      100.0221  4.806551        4.806209        1028.0634  1028.0648  379.142     1.423                 0.0212         0.0154         31.69362  -64.14828  2.1506        2.4905        6.0069    6.0458    382.145   36.5313     36.5319     18.2015            18.2058             18.1975            18.2019             
InVirTC2     2019-10-12T23:03:26Z    -0.0012      100.0303  4.807756        4.80737         1028.0662  1028.0655  379.928     0.369                 0.0273         0.0128         31.69361  -64.14829  2.1435        2.4842        5.9958    6.0518    382.938   36.5334     36.5319     18.2103            18.2147             18.2083            18.2127             
InVirTC2     2019-10-12T23:03:26Z    -0.0016      100.0422  4.801086        4.800826        1028.0711  1028.0689  380.019     -0.95                 0.0232         0.0107         31.69408  -64.14726  2.1435        2.4834        6.0139    6.0613    383.03    36.5221     36.5194     18.159             18.1633             18.1595            18.1638             
InVirTC2     2019-10-12T23:03:26Z    -0.0016      100.0407  4.80355         4.803233        1028.0775  1028.0771  380.975     0.547                 0.0277         0.0126         31.69362  -64.14828  2.1433        2.4815        6.0145    6.0557    383.995   36.5298     36.5287     18.1735            18.1779             18.1717            18.1761             
InVirTC2     2019-10-12T23:03:26Z    -0.0016      100.0409  4.800779        4.799483        1028.0751  1028.0774  381         -0.794                0.023          0.0169         31.69407  -64.14727  2.1436        2.4859        6.0124    6.0733    384.02    36.5211     36.5202     18.1568            18.1611             18.1453            18.1497             
InVirTC2     2019-10-12T23:03:26Z    -0.0016      100.0412  4.799411        4.799498        1028.0843  1028.0814  382.006     -0.567                0.0245         0.0151         31.69406  -64.1473   2.1452        2.4868        6.0256    6.083     385.034   36.5223     36.5198     18.1418            18.1462             18.1455            18.1499             
InVirTC2     2019-10-12T23:03:26Z    -0.0016      100.0418  4.802409        4.80213         1028.0836  1028.0828  382.008     0.869                 0.0247         0.0116         31.69362  -64.14828  2.1426        2.4818        6.0155    6.0558    385.037   36.5286     36.5272     18.1636            18.1679             18.1624            18.1668             
InVirTC2     2019-10-12T23:03:26Z    -0.0013      100.0318  4.799914        4.799484        1028.0873  1028.0864  383.016     -0.582                0.0253         0.0113         31.69406  -64.14729  2.1457        2.4865        6.0326    6.0814    386.054   36.522      36.5201     18.1466            18.1509             18.1446            18.1489             
InVirTC2     2019-10-12T23:03:26Z    -0.0018      100.0461  4.80172         4.801463        1028.0888  1028.0881  383.027     1.171                 0.0255         0.0101         31.69362  -64.14828  2.1431        2.4829        6.0162    6.0705    386.065   36.5276     36.5263     18.1576            18.162              18.1566            18.1609             
InVirTC2     2019-10-12T23:03:26Z    -0.0011      100.029   4.798748        4.798546        1028.0935  1028.0907  383.964     -0.822                0.027          0.0242         31.69406  -64.14729  2.1442        2.4858        6.033     6.0832    387.01    36.5211     36.518      18.1359            18.1403             18.1375            18.1419             
InVirTC2     2019-10-12T23:03:26Z    -0.0017      100.0424  4.80103         4.800801        1028.094   1028.0934  384.041     1.453                 0.0276         0.0169         31.69362  -64.14828  2.1434        2.4839        6.021     6.0796    387.088   36.5266     36.5255     18.1516            18.156              18.1507            18.1551             
InVirTC2     2019-10-12T23:03:26Z    -0.001       100.0246  4.798651        4.797965        1028.098   1028.0959  384.972     -0.938                0.024          0.0126         31.69406  -64.14729  2.1421        2.4857        6.0203    6.0977    388.027   36.5209     36.5172     18.1349            18.1392             18.1323            18.1367             
InVirTC2     2019-10-12T23:03:26Z    -0.0013      100.034   4.800602        4.800331        1028.0991  1028.0985  385.037     1.631                 0.029          0.0184         31.69364  -64.1483   2.1441        2.4837        6.0269    6.0772    388.093   36.5262     36.525      18.1476            18.1519             18.1464            18.1507             
InVirTC2     2019-10-12T23:03:26Z    -0.0014      100.0345  4.797893        4.797446        1028.1033  1028.1016  385.983     -1.208                0.0225         0.0107         31.69406  -64.14732  2.141         2.4815        6.0232    6.0882    389.047   36.5198     36.5172     18.1283            18.1327             18.127             18.1313             
InVirTC2     2019-10-12T23:03:26Z    -0.0016      100.0402  4.800755        4.800393        1028.1031  1028.1029  386.254     0.739                 0.0243         0.0183         31.69364  -64.14829  2.1426        2.4819        6.0166    6.0663    389.321   36.5251     36.5241     18.1497            18.154              18.1474            18.1518             
InVirTC2     2019-10-12T23:03:26Z    -0.0017      100.0435  4.800629        4.800185        1028.1072  1028.1064  386.941     0.224                 0.0287         0.0096         31.69362  -64.14828  2.1423        2.4827        6.0208    6.0737    390.014   36.5258     36.524      18.1475            18.1518             18.1452            18.1496             
InVirTC2     2019-10-12T23:03:26Z    -0.0007      100.0187  4.797071        4.796524        1028.108   1028.1062  386.988     -1.457                0.0234         0.0134         31.69406  -64.14734  2.1405        2.4768        6.0262    6.0715    390.061   36.518      36.515      18.122             18.1263             18.1201            18.1245             
InVirTC2     2019-10-12T23:03:26Z    -0.0017      100.0442  4.799853        4.799665        1028.1139  1028.1131  387.968     0.842                 0.0306         0.0023         31.69362  -64.14829  2.1432        2.4827        6.028     6.0736    391.05    36.5259     36.5248     18.1394            18.1438             18.1389            18.1433             
InVirTC2     2019-10-12T23:03:26Z    -0.0008      100.0201  4.796354        4.79571         1028.1126  1028.1127  387.982     -1.525                0.0266         0.0096         31.69406  -64.14733  2.1385        2.4729        6.0145    6.0516    391.064   36.5165     36.5151     18.1164            18.1207             18.1118            18.1162             
InVirTC2     2019-10-12T23:03:26Z    -0.0017      100.0439  4.799346        4.799094        1028.1185  1028.1178  388.956     1.353                 0.0289         0.0023         31.69362  -64.1483   2.1431        2.4836        6.0285    6.0783    392.046   36.525      36.5237     18.1352            18.1396             18.1342            18.1386             
InVirTC2     2019-10-12T23:03:26Z    -0.0007      100.0184  4.795434        4.794718        1028.1163  1028.1163  389.008     -1.401                0.0296         0.0169         31.69406  -64.14732  2.1367        2.47          6.0045    6.0347    392.099   36.5135     36.5118     18.1105            18.1148             18.1055            18.1099             
InVirTC2     2019-10-12T23:03:26Z    -0.0016      100.0401  4.799073        4.798733        1028.1241  1028.1244  389.984     1.702                 0.0241         0.009          31.69363  -64.1483   2.1419        2.4844        6.022     6.0842    393.084   36.5252     36.5247     18.1318            18.1362             18.1292            18.1336             
InVirTC2     2019-10-12T23:03:26Z    -0.0008      100.0201  4.793604        4.793265        1028.1244  1028.1234  390.006     -1.135                0.0291         0.0142         31.69406  -64.14734  2.1362        2.4693        6.0065    6.0296    393.106   36.5126     36.5109     18.0935            18.0978             18.0921            18.0964             
InVirTC2     2019-10-12T23:03:26Z    -0.001       100.0257  4.796216        4.795588        1028.1343  1028.1331  391.032     1.893                 0.0248         0.0096         31.69364  -64.1483   2.1419        2.485         6.0217    6.0918    394.141   36.5237     36.5212     18.1056            18.11               18.1025            18.1068             
InVirTC2     2019-10-12T23:03:26Z    -0.0007      100.0187  4.792965        4.79189         1028.1301  1028.1299  391.036     -0.76                 0.028          0.0096         31.69406  -64.14732  2.1362        2.4701        6.0144    6.0356    394.145   36.5122     36.5095     18.0873            18.0917             18.0801            18.0844             
InVirTC2     2019-10-12T23:03:26Z    -0.0008      100.0212  4.793683        4.793419        1028.1388  1028.1382  392.075     1.758                 0.0223         0.0169         31.69366  -64.14828  2.1433        2.4864        6.0338    6.1       395.193   36.5177     36.5165     18.0877            18.092              18.0865            18.0908             
InVirTC2     2019-10-12T23:03:26Z    -0.0007      100.0179  4.792152        4.791692        1028.1367  1028.1356  392.109     -0.246                0.0239         0.0096         31.69405  -64.1473   2.1353        2.4729        6.0151    6.0638    395.228   36.5119     36.5099     18.0794            18.0837             18.0773            18.0816             
InVirTC2     2019-10-12T23:03:26Z    -0.0007      100.0187  4.792863        4.792513        1028.1387  1028.1373  392.794     -0.701                0.024          0.0099         31.69404  -64.14733  2.1289        2.4657        6.0038    6.0531    395.919   36.5127     36.5104     18.0851            18.0895             18.0842            18.0886             
InVirTC2     2019-10-12T23:03:26Z    -0.0017      100.0432  4.795371        4.794993        1028.1387  1028.1386  392.937     0.561                 0.0193         0.0097         31.69366  -64.14829  2.1424        2.4841        6.0275    6.0822    396.063   36.5179     36.5168     18.1033            18.1076             18.1008            18.1052             
InVirTC2     2019-10-12T23:03:26Z    -0.0008      100.0201  4.790894        4.790076        1028.1431  1028.1422  393.95      -1.459                0.0261         0.0169         31.69404  -64.14734  2.1192        2.4534        5.9653    6.0125    397.085   36.5072     36.5045     18.0718            18.0761             18.067             18.0713             
InVirTC2     2019-10-12T23:03:26Z    -0.0017      100.0425  4.794722        4.793948        1028.1462  1028.1454  393.981     0.524                 0.0201         0.0096         31.69364  -64.14832  2.1395        2.482         6.0153    6.0793    397.117   36.519      36.5165     18.0954            18.0997             18.0907            18.0951             
InVirTC2     2019-10-12T23:03:26Z    -0.0007      100.0186  4.788748        4.787656        1028.1527  1028.1518  394.97      -1.504                0.0277         0.0169         31.69404  -64.14734  2.1149        2.4502        5.9473    6         398.114   36.507      36.5036     18.051             18.0553             18.0443            18.0486             
InVirTC2     2019-10-12T23:03:26Z    -0.0017      100.0435  4.794106        4.793841        1028.1504  1028.1498  394.985     0.84                  0.0201         0.0096         31.69364  -64.14832  2.1399        2.4792        6.0196    6.0659    398.129   36.5172     36.5161     18.091             18.0953             18.0897            18.0941             
InVirTC2     2019-10-12T23:03:26Z    -0.0018      100.0461  4.794106        4.793816        1028.1551  1028.1544  395.977     1.093                 0.0249         0.0096         31.69366  -64.1483   2.1392        2.4773        6.0212    6.056     399.13    36.5175     36.5161     18.0903            18.0946             18.089             18.0934             
InVirTC2     2019-10-12T23:03:26Z    -0.0008      100.0201  4.788421        4.786726        1028.1544  1028.1573  395.986     -1.423                0.0285         0.011          31.69404  -64.14734  2.1127        2.447         5.9395    5.9881    399.14    36.5035     36.5023     18.0513            18.0556             18.0364            18.0408             
InVirTC2     2019-10-12T23:03:26Z    -0.0017      100.0447  4.793416        4.793196        1028.1602  1028.1597  396.989     1.279                 0.0248         0.0096         31.69366  -64.1483   2.1384        2.4787        6.0161    6.0701    400.151   36.5164     36.5154     18.0844            18.0887             18.0835            18.0878             
InVirTC2     2019-10-12T23:03:26Z    -0.0007      100.0185  4.786142        4.785801        1028.1588  1028.1594  397         -1.256                0.0272         0.0023         31.69404  -64.14734  2.1112        2.4448        5.9412    5.9878    400.163   36.4981     36.4978     18.0351            18.0394             18.0321            18.0365             
InVirTC2     2019-10-12T23:03:26Z    -0.0014      100.0345  4.784226        4.783202        1028.1674  1028.1664  398.003     -1.022                0.0241         0.008          31.69404  -64.14736  2.1097        2.4442        5.9424    5.9946    401.174   36.4975     36.4941     18.0169            18.0212             18.0108            18.0151             
InVirTC2     2019-10-12T23:03:26Z    -0.0017      100.043   4.793261        4.792981        1028.1648  1028.1641  398.03      1.292                 0.0236         0.0096         31.69367  -64.1483   2.1392        2.479         6.0223    6.0799    401.201   36.516      36.5146     18.083             18.0873             18.0818            18.0862             
InVirTC2     2019-10-12T23:03:26Z    -0.001       100.026   4.783034        4.783185        1028.1755  1028.1746  399.01      -0.748                0.0248         0.0096         31.69404  -64.14736  2.1067        2.4407        5.9342    5.9889    402.191   36.4981     36.4976     18.0043            18.0086             18.0063            18.0106             
InVirTC2     2019-10-12T23:03:26Z    -0.0017      100.0435  4.793095        4.792756        1028.1691  1028.1685  399.011     0.863                 0.0243         0.0142         31.69368  -64.14832  2.1395        2.4782        6.0275    6.0728    402.191   36.5154     36.5141     18.0816            18.0859             18.0798            18.0841             
InVirTC2     2019-10-12T23:03:26Z    -0.0013      100.0326  4.792187        4.791899        1028.1748  1028.174   399.96      0.643                 0.0284         0.0096         31.69366  -64.1483   2.1393        2.4779        6.026     6.0755    403.149   36.5147     36.5132     18.0733            18.0776             18.0721            18.0764             
InVirTC2     2019-10-12T23:03:26Z    -0.0007      100.0179  4.78295         4.78337         1028.1803  1028.178   400.052     -0.519                0.0265         0.0096         31.69404  -64.14736  2.1014        2.4343        5.9153    5.9677    403.242   36.498      36.4968     18.0031            18.0074             18.0085            18.0128             
InVirTC2     2019-10-12T23:03:26Z    -0.0017      100.0436  4.790444        4.790207        1028.1826  1028.1817  400.973     0.872                 0.0223         0.0075         31.69366  -64.1483   2.1394        2.4762        6.0299    6.0662    404.171   36.5138     36.5123     18.0571            18.0615             18.0564            18.0608             
InVirTC2     2019-10-12T23:03:26Z    -0.0008      100.0195  4.78074         4.781108        1028.185   1028.1824  400.985     -0.66                 0.0197         0.0094         31.69403  -64.14738  2.0939        2.4248        5.8835    5.929     404.183   36.4934     36.4917     17.9867            17.991              17.9921            17.9964             
InVirTC2     2019-10-12T23:03:26Z    -0.0008      100.0193  4.778011        4.77719         1028.1924  1028.1908  401.958     -1.135                0.0223         0.0096         31.69402  -64.14739  2.0894        2.4211        5.8633    5.9204    405.165   36.4899     36.4865     17.9639            17.9682             17.9599            17.9642             
InVirTC2     2019-10-12T23:03:26Z    -0.0017      100.0432  4.788189        4.787981        1028.1891  1028.1883  401.991     1.113                 0.0235         0.0023         31.69366  -64.1483   2.1394        2.4759        6.033     6.07      405.198   36.5103     36.5091     18.0389            18.0432             18.0383            18.0426             
InVirTC2     2019-10-12T23:03:26Z    -0.0008      100.0188  4.776264        4.775389        1028.1975  1028.1983  402.99      -1.272                0.0237         0.0096         31.69402  -64.1474   2.0872        2.4186        5.8553    5.9184    406.206   36.4863     36.4849     17.9507            17.9551             17.9438            17.9481             
InVirTC2     2019-10-12T23:03:26Z    -0.0017      100.043   4.787174        4.786939        1028.1936  1028.1929  402.994     1.286                 0.0241         0.0139         31.69368  -64.1483   2.1375        2.4754        6.0244    6.0727    406.21    36.5079     36.5067     18.0314            18.0357             18.0305            18.0348             
InVirTC2     2019-10-12T23:03:26Z    -0.0007      100.0187  4.774291        4.774903        1028.204   1028.2026  403.992     -1.125                0.0251         0.0068         31.69402  -64.1474   2.0872        2.4175        5.8603    5.9215    407.217   36.4835     36.4836     17.9344            17.9387             17.9402            17.9445             
InVirTC2     2019-10-12T23:03:26Z    -0.0017      100.0432  4.78569         4.785374        1028.2006  1028.1997  404.004     1.38                  0.0244         0.0169         31.69368  -64.1483   2.1344        2.4725        6.0052    6.0614    407.229   36.5068     36.5052     18.0179            18.0222             18.0166            18.021              
InVirTC2     2019-10-12T23:03:26Z    -0.0008      100.0188  4.773782        4.774494        1028.2113  1028.2078  404.995     -0.876                0.0243         0.0023         31.69402  -64.14736  2.0862        2.415         5.8625    5.9149    408.229   36.4851     36.4833     17.9273            17.9316             17.9362            17.9405             
InVirTC2     2019-10-12T23:03:26Z    -0.0014      100.0357  4.784186        4.783914        1028.2051  1028.2045  405.017     1.368                 0.0237         0.0169         31.69368  -64.1483   2.132         2.4681        5.9943    6.0404    408.251   36.5032     36.502      18.0071            18.0114             18.0058            18.0101             
InVirTC2     2019-10-12T23:03:26Z    -0.0007      100.0182  4.774266        4.774068        1028.2152  1028.213   406.019     -0.602                0.0239         0.0096         31.69402  -64.1474   2.085         2.4107        5.8667    5.9032    409.262   36.4854     36.4829     17.9311            17.9354             17.9321            17.9364             
InVirTC2     2019-10-12T23:03:26Z    -0.0007      100.0185  4.784655        4.783901        1028.2081  1028.2082  406.126     0.467                 0.023          0.0141         31.69368  -64.14833  2.1224        2.455         5.9593    5.9963    409.37    36.5024     36.5007     18.0119            18.0163             18.0066            18.0109             
InVirTC2     2019-10-12T23:03:26Z    -0.0011      100.0273  4.78306         4.782914        1028.2154  1028.2145  406.985     0.4                   0.0236         0.0023         31.69368  -64.14834  2.1173        2.4485        5.955     5.9915    410.237   36.5019     36.5008     17.9968            18.0011             17.9967            18.001              
InVirTC2     2019-10-12T23:03:26Z    -0.0008      100.0189  4.77355         4.773438        1028.2186  1028.2169  406.99      -0.838                0.0286         0.0169         31.69402  -64.14739  2.0796        2.4045        5.8453    5.8844    410.242   36.4828     36.481      17.9267            17.931              17.9277            17.932              
InVirTC2     2019-10-12T23:03:26Z    -0.0007      100.0168  4.77147         4.770291        1028.2243  1028.2235  407.953     -1.384                0.0297         0.0114         31.69402  -64.1474   2.0746        2.3981        5.8268    5.8559    411.213   36.4793     36.4758     17.9103            17.9146             17.9028            17.9071             
InVirTC2     2019-10-12T23:03:26Z    -0.0015      100.0374  4.781402        4.781086        1028.2208  1028.22    407.986     0.975                 0.0259         0.0023         31.69368  -64.14832  2.1163        2.4476        5.9554    5.9908    411.247   36.4989     36.4975     17.9838            17.9881             17.9824            17.9867             
InVirTC2     2019-10-12T23:03:26Z    -0.0008      100.0201  4.769779        4.76865         1028.2296  1028.2319  409         -1.392                0.0264         0.013          31.69402  -64.1474   2.072         2.3958        5.8147    5.8507    412.27    36.476      36.4755     17.8972            17.9015             17.8869            17.8912             
InVirTC2     2019-10-12T23:03:26Z    -0.0016      100.0421  4.78044         4.780176        1028.2269  1028.226   409.016     1.401                 0.0243         0.0152         31.69368  -64.14832  2.1163        2.4478        5.956     5.9952    412.286   36.4981     36.4967     17.975             17.9793             17.974             17.9784             
InVirTC2     2019-10-12T23:03:26Z    -0.0007      100.0168  4.766657        4.766253        1028.2349  1028.2342  409.994     -1.225                0.0226         0.0169         31.69402  -64.1474   2.0701        2.3962        5.8095    5.8541    413.273   36.4695     36.4678     17.874             17.8783             17.872             17.8763             
InVirTC2     2019-10-12T23:03:26Z    -0.0018      100.0461  4.778922        4.77861         1028.2328  1028.2319  409.995     1.676                 0.0221         0.0169         31.69368  -64.14832  2.1153        2.4485        5.9551    6.0035    413.274   36.496      36.4945     17.9624            17.9667             17.9611            17.9654             
InVirTC2     2019-10-12T23:03:26Z    -0.0007      100.0174  4.764899        4.763976        1028.2439  1028.2439  411.01      -0.997                0.0257         0.0104         31.69402  -64.1474   2.069         2.3951        5.8049    5.8559    414.298   36.4696     36.4674     17.8565            17.8608             17.8501            17.8544             
InVirTC2     2019-10-12T23:03:26Z    -0.0017      100.0426  4.776993        4.776765        1028.2392  1028.2385  411.016     1.827                 0.0202         0.0106         31.69369  -64.14832  2.113         2.4469        5.9461    6.0018    414.304   36.4933     36.492      17.9465            17.9508             17.9456            17.9499             
InVirTC2     2019-10-12T23:03:26Z    -0.0017      100.0429  4.775868        4.775613        1028.2441  1028.2436  412.039     1.803                 0.0197         0.0096         31.6937   -64.14832  2.1105        2.443         5.9314    5.9824    415.337   36.4909     36.4898     17.9378            17.9421             17.9366            17.9409             
InVirTC2     2019-10-12T23:03:26Z    -0.0007      100.0178  4.763841        4.763252        1028.2512  1028.2501  412.068     -0.739                0.0234         0.0096         31.69402  -64.1474   2.068         2.3946        5.8016    5.8534    415.366   36.4696     36.4672     17.8459            17.8502             17.8429            17.8472             
InVirTC2     2019-10-12T23:03:26Z    -0.0017      100.0437  4.775023        4.774752        1028.2489  1028.2483  413.027     1.538                 0.0208         0.0096         31.6937   -64.14832  2.1059        2.4381        5.9095    5.956     416.333   36.4893     36.4881     17.931             17.9353             17.9298            17.9341             
InVirTC2     2019-10-12T23:03:26Z    -0.0007      100.0177  4.762937        4.762583        1028.2571  1028.2548  413.039     -0.364                0.0196         0.0096         31.69401  -64.14741  2.0677        2.3934        5.808     5.854     416.345   36.4689     36.4659     17.8375            17.8418             17.8375            17.8418             
InVirTC2     2019-10-12T23:03:26Z    -0.0008      100.019   4.763731        4.763222        1028.2597  1028.2584  413.868     -0.743                0.0181         0.0165         31.694    -64.14744  2.064         2.3888        5.8015    5.8521    417.182   36.4697     36.4673     17.844             17.8483             17.8418            17.846              
InVirTC2     2019-10-12T23:03:26Z    -0.0016      100.0422  4.773977        4.773692        1028.2545  1028.2538  414.025     1.05                  0.0225         0.0151         31.6937   -64.14832  2.099         2.4303        5.8801    5.9296    417.34    36.4879     36.4866     17.9221            17.9264             17.9209            17.9252             
InVirTC2     2019-10-12T23:03:26Z    -0.0008      100.0201  4.762179        4.761889        1028.2639  1028.2617  414.984     -1.748                0.0221         0.0133         31.69401  -64.14744  2.0577        2.38          5.7751    5.8233    418.308   36.4653     36.4625     17.8334            17.8377             17.8338            17.8381             
InVirTC2     2019-10-12T23:03:26Z    -0.0017      100.0439  4.771191        4.770968        1028.2622  1028.2615  415.051     0.649                 0.0214         0.0098         31.6937   -64.14833  2.0926        2.4232        5.8681    5.9179    418.375   36.4844     36.4832     17.8988            17.9031             17.898             17.9023             
InVirTC2     2019-10-12T23:03:26Z    -0.0017      100.0448  4.768352        4.767883        1028.2681  1028.2674  415.823     0.325                 0.026          0.0147         31.6937   -64.14832  2.085         2.4149        5.8462    5.8987    419.155   36.4801     36.4784     17.8759            17.8802             17.8734            17.8777             
InVirTC2     2019-10-12T23:03:26Z    -0.0007      100.0164  4.760181        4.759535        1028.2697  1028.2692  416.014     -1.735                0.0217         0.0096         31.69402  -64.14744  2.0554        2.3779        5.7634    5.8147    419.348   36.4617     36.4598     17.8177            17.822              17.8137            17.818              
InVirTC2     2019-10-12T23:03:26Z    -0.0017      100.0447  4.766124        4.765876        1028.276   1028.2752  416.952     0.63                  0.027          0.0238         31.6937   -64.14832  2.0821        2.4096        5.8459    5.8877    420.294   36.4775     36.4762     17.8569            17.8612             17.856             17.8603             
InVirTC2     2019-10-12T23:03:26Z    -0.0006      100.0161  4.75929         4.757665        1028.2748  1028.276   417.02      -1.562                0.019          0.0096         31.69402  -64.14745  2.0542        2.3754        5.7572    5.8042    420.362   36.4602     36.4576     17.8104            17.8147             17.7977            17.802              
InVirTC2     2019-10-12T23:03:26Z    -0.0018      100.0461  4.764878        4.764607        1028.2815  1028.281   417.935     1.057                 0.024          0.0096         31.6937   -64.14832  2.0812        2.4081        5.8485    5.8853    421.285   36.4757     36.4746     17.8465            17.8508             17.8452            17.8495             
InVirTC2     2019-10-12T23:03:26Z    -0.0008      100.0201  4.756924        4.754796        1028.2794  1028.2806  417.989     -1.315                0.0194         0.0096         31.69402  -64.14746  2.0536        2.3735        5.759     5.802     421.34    36.455      36.4511     17.7931            17.7973             17.7769            17.7811             
InVirTC2     2019-10-12T23:03:26Z    -0.0016      100.0421  4.764368        4.764058        1028.2859  1028.2852  418.948     1.439                 0.0192         0.009          31.6937   -64.14832  2.0807        2.4076        5.8475    5.8881    422.308   36.4743     36.473      17.8427            17.847              17.8413            17.8456             
InVirTC2     2019-10-12T23:03:26Z    -0.0007      100.017   4.753776        4.752381        1028.2865  1028.2923  419.008     -1.013                0.0209         0.0096         31.694    -64.14744  2.0538        2.3732        5.7685    5.8024    422.368   36.45       36.4524     17.7678            17.7721             17.7518            17.756              
InVirTC2     2019-10-12T23:03:26Z    -0.0016      100.0421  4.763829        4.763568        1028.2917  1028.2911  419.994     1.742                 0.0204         -0.0051        31.6937   -64.14832  2.0793        2.4064        5.8422    5.8877    423.363   36.4741     36.4729     17.8373            17.8416             17.8361            17.8404             
InVirTC2     2019-10-12T23:03:26Z    -0.0008      100.0201  4.751409        4.751602        1028.3013  1028.2994  420.047     -0.707                0.0227         0.0096         31.694    -64.14745  2.0537        2.372         5.7756    5.794     423.417   36.4542     36.4528     17.7399            17.7441             17.7433            17.7475             
InVirTC2     2019-10-12T23:03:26Z    -0.0018      100.0461  4.762811        4.762583        1028.2969  1028.2962  421.009     1.877                 0.0222         -0.0031        31.69372  -64.14834  2.0785        2.4047        5.839     5.8831    424.387   36.4724     36.4713     17.829             17.8333             17.8281            17.8324             
InVirTC2     2019-10-12T23:03:26Z    -0.0007      100.0187  4.752736        4.751818        1028.304   1028.3031  421.064     -0.546                0.0275         0.0096         31.694    -64.14747  2.0511        2.3727        5.7616    5.8125    424.443   36.4555     36.4525     17.7508            17.755              17.7453            17.7496             
InVirTC2     2019-10-12T23:03:26Z    -0.0008      100.0188  4.75225         4.750322        1028.3059  1028.3059  421.98      -0.727                0.0299         0.0162         31.69399  -64.14748  2.0486        2.3685        5.7549    5.7943    425.367   36.4523     36.4478     17.7493            17.7536             17.7357            17.74               
InVirTC2     2019-10-12T23:03:26Z    -0.0017      100.0441  4.762102        4.761789        1028.3014  1028.3008  422.127     1.384                 0.0217         0.0096         31.69372  -64.14834  2.0759        2.4027        5.8296    5.878     425.515   36.4703     36.4689     17.8241            17.8283             17.8226            17.8269             
InVirTC2     2019-10-12T23:03:26Z    -0.0018      100.0454  4.762859        4.761709        1028.3048  1028.3051  422.899     0.492                 0.0263         0.0096         31.6937   -64.14834  2.0715        2.3982        5.8104    5.8619    426.294   36.472      36.4696     17.8291            17.8334             17.8207            17.825              
InVirTC2     2019-10-12T23:03:26Z    -0.0007      100.0184  4.747751        4.747627        1028.3131  1028.3121  422.969     -0.935                0.0292         0.0169         31.69398  -64.14748  2.0465        2.3655        5.7544    5.7885    426.365   36.4444     36.4432     17.7143            17.7185             17.7145            17.7187             
InVirTC2     2019-10-12T23:03:26Z    -0.0018      100.0449  4.759091        4.758776        1028.3155  1028.3148  423.985     0.747                 0.0239         0.0096         31.6937   -64.14832  2.0695        2.395         5.8109    5.8548    427.391   36.4687     36.4673     17.796             17.8002             17.7946            17.7988             
InVirTC2     2019-10-12T23:03:26Z    -0.0008      100.019   4.744724        4.745126        1028.3261  1028.3209  424.021     -0.871                0.0255         0.0126         31.694    -64.14748  2.0439        2.3647        5.7516    5.797     427.426   36.4453     36.4412     17.6837            17.6879             17.692             17.6963             
InVirTC2     2019-10-12T23:03:26Z    -0.0008      100.0201  4.74579         4.743941        1028.324   1028.3284  425.014     -0.717                0.0259         0.0096         31.694    -64.14748  2.0415        2.362         5.752     5.8033    428.429   36.4414     36.4414     17.6978            17.7021             17.6801            17.6843             
InVirTC2     2019-10-12T23:03:26Z    -0.0017      100.0447  4.757066        4.756795        1028.3215  1028.3207  425.02      1.065                 0.0236         0.0096         31.6937   -64.14832  2.0688        2.3937        5.8154    5.8574    428.434   36.4653     36.4639     17.7799            17.7841             17.7788            17.7831             
InVirTC2     2019-10-12T23:03:26Z    -0.0007      100.0187  4.744738        4.744152        1028.3322  1028.3313  426.032     -0.794                0.0269         0.0096         31.69399  -64.14749  2.0354        2.3542        5.7333    5.7763    429.455   36.4425     36.4402     17.686             17.6902             17.6829            17.6872             
InVirTC2     2019-10-12T23:03:26Z    -0.0017      100.0435  4.755476        4.755214        1028.3283  1028.3275  426.038     1.237                 0.0221         0.0165         31.69371  -64.14832  2.0678        2.3898        5.8137    5.8441    429.462   36.4637     36.4623     17.7659            17.7702             17.7649            17.7692             
InVirTC2     2019-10-12T23:03:26Z    -0.0007      100.0182  4.743059        4.741572        1028.3387  1028.3361  426.944     -1.328                0.0301         0.0091         31.69398  -64.1475   2.0281        2.3455        5.6976    5.7395    430.377   36.4408     36.435      17.6713            17.6756             17.6635            17.6677             
InVirTC2     2019-10-12T23:03:26Z    -0.0017      100.0444  4.753183        4.752565        1028.3335  1028.3335  427.083     0.742                 0.0283         0.0188         31.69373  -64.14834  2.0631        2.3842        5.7928    5.8254    430.517   36.4588     36.4574     17.7488            17.753              17.7444            17.7487             
InVirTC2     2019-10-12T23:03:26Z    -0.0017      100.0436  4.751845        4.751515        1028.3393  1028.3386  427.933     0.405                 0.0225         0.0112         31.69372  -64.14832  2.0583        2.381         5.7768    5.8271    431.374   36.4576     36.4562     17.7368            17.7411             17.7353            17.7396             
InVirTC2     2019-10-12T23:03:26Z    -0.0008      100.0201  4.739755        4.736291        1028.3408  1028.3454  427.983     -1.575                0.026          0.0023         31.69398  -64.14752  2.0234        2.3416        5.6748    5.724     431.425   36.4307     36.427      17.6502            17.6545             17.6209            17.6252             
InVirTC2     2019-10-12T23:03:26Z    -0.0017      100.0435  4.749905        4.74959         1028.3475  1028.3467  428.974     0.812                 0.0196         0.0096         31.69372  -64.14832  2.0565        2.379         5.7758    5.8243    432.424   36.4565     36.4549     17.719             17.7232             17.7177            17.722              
InVirTC2     2019-10-12T23:03:26Z    -0.0017      100.0426  4.735924        4.734           1028.3489  1028.3518  429.017     -1.561                0.021          0.0154         31.69398  -64.14752  2.0222        2.34          5.6731    5.7203    432.467   36.4251     36.4235     17.6191            17.6234             17.6024            17.6066             
InVirTC2     2019-10-12T23:03:26Z    -0.0017      100.0429  4.747855        4.747578        1028.353   1028.3523  429.999     1.122                 0.0256         0.0096         31.69372  -64.14832  2.0561        2.3794        5.7795    5.8266    433.459   36.4526     36.4512     17.7031            17.7074             17.702             17.7062             
InVirTC2     2019-10-12T23:03:26Z    -0.0009      100.0236  4.732988        4.731701        1028.359   1028.359   430.013     -1.448                0.0228         0.0242         31.69398  -64.14752  2.0219        2.3401        5.6738    5.7247    433.473   36.4237     36.4207     17.5919            17.5961             17.5828            17.587              
InVirTC2     2019-10-12T23:03:26Z    -0.0018      100.0461  4.746904        4.746635        1028.3597  1028.3589  431         1.376                 0.0269         0.0096         31.69372  -64.14835  2.0552        2.38          5.7797    5.8362    434.469   36.4524     36.451      17.6937            17.6979             17.6926            17.6969             
InVirTC2     2019-10-12T23:03:26Z    -0.0007      100.0184  4.729916        4.728917        1028.3672  1028.3665  431         -1.289                0.0239         0.0179         31.69398  -64.14752  2.021         2.3397        5.6757    5.7268    434.469   36.4201     36.4172     17.5658            17.57               17.5594            17.5636             
InVirTC2     2019-10-12T23:03:26Z    -0.0008      100.0201  4.728172        4.727332        1028.3759  1028.375   431.994     -1.087                0.0281         0.0169         31.69398  -64.14752  2.021         2.3395        5.6787    5.7308    435.472   36.4201     36.4173     17.5485            17.5527             17.5435            17.5477             
InVirTC2     2019-10-12T23:03:26Z    -0.0017      100.0444  4.74536         4.745096        1028.3645  1028.364   432.019     1.572                 0.0266         0.0047         31.69372  -64.14836  2.0544        2.3786        5.7784    5.8354    435.498   36.449      36.448      17.6821            17.6864             17.6808            17.6851             
InVirTC2     2019-10-12T23:03:26Z    -0.0009      100.0238  4.726939        4.726449        1028.3827  1028.3821  433.013     -0.713                0.0236         0.0169         31.69398  -64.14752  2.0203        2.339         5.6777    5.7329    436.5     36.4194     36.4177     17.5369            17.5412             17.5341            17.5383             
InVirTC2     2019-10-12T23:03:26Z    -0.0017      100.0444  4.745062        4.744784        1028.3691  1028.3684  433.031     1.664                 0.0249         0.0023         31.69372  -64.14834  2.053         2.3764        5.7721    5.8218    436.519   36.4484     36.4471     17.6795            17.6838             17.6783            17.6826             
InVirTC2     2019-10-12T23:03:26Z    -0.0017      100.0437  4.7437          4.743456        1028.3764  1028.3757  434.059     1.566                 0.0257         0.0159         31.69373  -64.14834  2.0508        2.375         5.7626    5.8144    437.556   36.4478     36.4465     17.6666            17.6709             17.6657            17.6699             
InVirTC2     2019-10-12T23:03:26Z    -0.0008      100.0204  4.727057        4.727583        1028.3879  1028.3858  434.187     -0.426                0.0213         0.0114         31.69397  -64.14752  2.0168        2.3327        5.6761    5.7221    437.685   36.4196     36.4188     17.5374            17.5416             17.5434            17.5476             
InVirTC2     2019-10-12T23:03:26Z    -0.0017      100.0432  4.726116        4.725004        1028.3886  1028.3854  434.927     -1.828                0.0191         0.0145         31.69396  -64.14752  2.0091        2.3237        5.6496    5.6908    438.432   36.4149     36.4093     17.5332            17.5374             17.5287            17.533              
InVirTC2     2019-10-12T23:03:26Z    -0.0017      100.044   4.739678        4.739257        1028.3841  1028.3847  435.088     0.88                  0.0295         0.0181         31.69374  -64.14832  2.0469        2.3719        5.7508    5.8127    438.594   36.4414     36.441      17.6345            17.6388             17.6309            17.6351             
InVirTC2     2019-10-12T23:03:26Z    -0.0017      100.0442  4.736899        4.735943        1028.39    1028.3912  435.908     0.369                 0.0265         0.0129         31.69372  -64.14832  2.0409        2.3604        5.7311    5.7658    439.422   36.437      36.436      17.6123            17.6165             17.6041            17.6084             
InVirTC2     2019-10-12T23:03:26Z    -0.0017      100.0424  4.722713        4.720584        1028.3957  1028.4015  435.971     -1.832                0.0223         0.0169         31.69396  -64.14754  2.0069        2.3216        5.6395    5.6841    439.485   36.4093     36.4099     17.5061            17.5103             17.4848            17.489              
InVirTC2     2019-10-12T23:03:26Z    -0.0018      100.0461  4.732903        4.73255         1028.3998  1028.3993  436.929     0.581                 0.0273         0.0148         31.69372  -64.14832  2.0368        2.3557        5.7204    5.7679    440.452   36.4328     36.4314     17.5779            17.5822             17.5761            17.5803             
InVirTC2     2019-10-12T23:03:26Z    -0.0015      100.0396  4.719337        4.719767        1028.4044  1028.4026  436.984     -1.66                 0.0242         0.0169         31.69396  -64.14754  2.0049        2.3197        5.6302    5.6767    440.508   36.4054     36.4047     17.4774            17.4816             17.4823            17.4865             
InVirTC2     2019-10-12T23:03:26Z    -0.0018      100.0461  4.730754        4.730539        1028.4098  1028.4085  437.93      0.924                 0.0251         0.0201         31.69374  -64.14836  2.0354        2.3541        5.7221    5.7658    441.462   36.433      36.4313     17.5566            17.5608             17.5564            17.5606             
InVirTC2     2019-10-12T23:03:26Z    -0.0017      100.0441  4.717497        4.717114        1028.4079  1028.4095  437.977     -1.413                0.024          0.0169         31.69396  -64.14754  2.0035        2.3191        5.6254    5.6803    441.51    36.4003     36.4009     17.4649            17.4691             17.4605            17.4647             
InVirTC2     2019-10-12T23:03:26Z    -0.0017      100.0445  4.726175        4.725955        1028.4174  1028.4168  438.976     1.264                 0.023          0.0242         31.69374  -64.14835  2.0342        2.3533        5.7239    5.7702    442.517   36.4251     36.4241     17.5206            17.5248             17.5196            17.5239             
InVirTC2     2019-10-12T23:03:26Z    -0.0017      100.0426  4.714768        4.71494         1028.4163  1028.418   438.99      -1.118                0.0198         0.0101         31.69396  -64.14755  2.0031        2.3191        5.6293    5.6851    442.532   36.3976     36.3997     17.441             17.4452             17.4404            17.4446             
InVirTC2     2019-10-12T23:03:26Z    -0.0018      100.0461  4.725495        4.725196        1028.4211  1028.4206  440.002     1.526                 0.0233         0.0179         31.69374  -64.14834  2.0325        2.3511        5.7172    5.7651    443.553   36.4227     36.4215     17.5164            17.5206             17.5147            17.5189             
InVirTC2     2019-10-12T23:03:26Z    -0.0017      100.0435  4.712048        4.713394        1028.428   1028.4235  440.032     -0.789                0.0217         0.0122         31.69396  -64.14756  2.003         2.3184        5.6353    5.6847    443.584   36.398      36.3968     17.4138            17.418              17.4282            17.4324             
InVirTC2     2019-10-12T23:03:26Z    -0.0018      100.0449  4.725082        4.724825        1028.4257  1028.4251  441.023     1.583                 0.0235         0.0186         31.69374  -64.14834  2.0297        2.3484        5.7042    5.7527    444.584   36.4217     36.4206     17.513             17.5172             17.5117            17.5159             
InVirTC2     2019-10-12T23:03:26Z    -0.0016      100.0402  4.712102        4.711354        1028.4342  1028.432   441.055     -0.424                0.0213         0.0169         31.69396  -64.14755  2.0018        2.3169        5.6331    5.6908    444.616   36.3996     36.3958     17.4121            17.4163             17.4091            17.4133             
InVirTC2     2019-10-12T23:03:26Z    -0.0017      100.0427  4.712067        4.712455        1028.4368  1028.4343  441.925     -0.762                0.0223         0.0118         31.69396  -64.14755  1.9985        2.3107        5.6248    5.6658    445.493   36.3983     36.3968     17.4128            17.417              17.4183            17.4225             
InVirTC2     2019-10-12T23:03:26Z    -0.0023      100.057   4.72452         4.724247        1028.43    1028.4295  442.024     0.983                 0.0247         0.0162         31.69374  -64.14835  2.0256        2.3415        5.6874    5.7235    445.594   36.4203     36.4192     17.5087            17.5129             17.5073            17.5115             
InVirTC2     2019-10-12T23:03:26Z    -0.0018      100.0461  4.723329        4.723104        1028.4358  1028.4353  442.971     0.595                 0.0272         0.0096         31.69373  -64.14834  2.0238        2.3393        5.6927    5.7314    446.549   36.419      36.4179     17.4983            17.5025             17.4972            17.5014             
InVirTC2     2019-10-12T23:03:26Z    -0.0018      100.0448  4.708128        4.706459        1028.443   1028.4437  442.986     -1.576                0.0235         0.0136         31.69394  -64.14756  1.9942        2.3067        5.6078    5.6609    446.565   36.3905     36.3874     17.3829            17.3871             17.3703            17.3745             
InVirTC2     2019-10-12T23:03:26Z    -0.0024      100.0613  4.720614        4.720332        1028.4445  1028.4437  443.976     0.828                 0.025          0.0166         31.69373  -64.14832  2.0222        2.3386        5.6899    5.7382    447.564   36.4167     36.4152     17.4741            17.4783             17.473             17.4772             
InVirTC2     2019-10-12T23:03:26Z    -0.0017      100.0444  4.706362        4.705482        1028.4494  1028.4531  443.991     -1.567                0.0169         0.0169         31.69394  -64.14756  1.9926        2.3067        5.5985    5.6613    447.579   36.3882     36.3898     17.3679            17.3721             17.3577            17.3619             
InVirTC2     2019-10-12T23:03:26Z    -0.0027      100.0686  4.717994        4.71776         1028.4515  1028.4508  444.998     1.007                 0.0268         0.0232         31.69374  -64.14832  2.0207        2.337         5.6869    5.7337    448.595   36.4129     36.4117     17.4526            17.4568             17.4517            17.4559             
InVirTC2     2019-10-12T23:03:26Z    -0.0018      100.0461  4.70333         4.702301        1028.4554  1028.4549  445.008     -1.36                 0.0162         0.0169         31.69394  -64.14756  1.9918        2.3044        5.5982    5.6513    448.605   36.3826     36.3797     17.3444            17.3486             17.3377            17.3418             
InVirTC2     2019-10-12T23:03:26Z    -0.0019      100.0492  4.716073        4.715797        1028.4576  1028.457   446.01      1.072                 0.0239         0.0134         31.69375  -64.14832  2.0171        2.3343        5.6696    5.7232    449.616   36.4099     36.4087     17.4369            17.4411             17.4356            17.4398             
InVirTC2     2019-10-12T23:03:26Z    -0.0017      100.0426  4.700851        4.699873        1028.463   1028.4642  446.015     -1.067                0.0201         0.0169         31.69394  -64.14756  1.9918        2.3027        5.6028    5.6459    449.621   36.3798     36.3787     17.3232            17.3273             17.3149            17.3191             
InVirTC2     2019-10-12T23:03:26Z    -0.0017      100.0435  4.69948         4.699008        1028.472   1028.4706  447.004     -0.732                0.0216         0.0151         31.69394  -64.14756  1.9919        2.3026        5.6065    5.6478    450.62    36.381      36.3785     17.3081            17.3123             17.3063            17.3104             
InVirTC2     2019-10-12T23:03:26Z    -0.0022      100.0567  4.71211         4.711909        1028.4668  1028.4663  447.018     0.929                 0.0219         0.0039         31.69376  -64.14832  2.0148        2.3311        5.6664    5.7152    450.634   36.4052     36.4042     17.4033            17.4075             17.4025            17.4067             
InVirTC2     2019-10-12T23:03:26Z    -0.0024      100.0611  4.710638        4.710355        1028.4708  1028.4703  448.013     0.759                 0.0274         0.0147         31.69374  -64.14832  2.0114        2.3269        5.6573    5.703     451.638   36.4013     36.4002     17.3931            17.3972             17.3916            17.3957             
InVirTC2     2019-10-12T23:03:26Z    -0.0017      100.0435  4.698214        4.698332        1028.4779  1028.4763  448.081     -0.367                0.0209         0.0081         31.69394  -64.14756  1.9913        2.3024        5.6078    5.6505    451.706   36.379      36.3778     17.2975            17.3017             17.3001            17.3042             
InVirTC2     2019-10-12T23:03:26Z    -0.0017      100.0436  4.699293        4.698396        1028.4805  1028.4793  448.92      -0.674                0.0193         0.0074         31.69394  -64.14758  1.9892        2.3008        5.6048    5.6566    452.553   36.3804     36.3771     17.3061            17.3103             17.301             17.3052             
InVirTC2     2019-10-12T23:03:26Z    -0.0018      100.0461  4.70957         4.709271        1028.4765  1028.4759  449.015     0.786                 0.0273         0.0093         31.69374  -64.14832  2.0095        2.3236        5.6529    5.6945    452.649   36.4        36.3987     17.3838            17.3879             17.3823            17.3864             
InVirTC2     2019-10-12T23:03:26Z    -0.0017      100.0429  4.697418        4.696697        1028.4857  1028.485   449.967     -1.315                0.0227         0.0169         31.69394  -64.1476   1.9863        2.295         5.5973    5.6438    453.61    36.3765     36.3742     17.2918            17.2959             17.2874            17.2915             
InVirTC2     2019-10-12T23:03:26Z    -0.0019      100.0475  4.708328        4.708057        1028.4821  1028.4816  449.992     0.98                  0.0244         0.0096         31.69374  -64.14832  2.0077        2.3206        5.6494    5.686     453.635   36.3983     36.3972     17.3732            17.3774             17.3718            17.376              
InVirTC2     2019-10-12T23:03:26Z    -0.0017      100.0434  4.696047        4.695287        1028.4893  1028.4893  450.992     -1.477                0.0229         0.01           31.69394  -64.1476   1.9839        2.292         5.5893    5.6295    454.644   36.3724     36.3707     17.2827            17.2869             17.2772            17.2814             
InVirTC2     2019-10-12T23:03:26Z    -0.0019      100.0475  4.706292        4.70606         1028.4895  1028.4887  451.012     1.199                 0.0215         0.0146         31.69374  -64.14832  2.0053        2.3188        5.6403    5.6834    454.664   36.3962     36.395      17.3554            17.3595             17.3545            17.3587             
InVirTC2     2019-10-12T23:03:26Z    -0.0017      100.0429  4.692773        4.692393        1028.4984  1028.4965  451.997     -1.506                0.0289         0.0096         31.69394  -64.1476   1.9827        2.2886        5.5924    5.6177    455.659   36.3693     36.3665     17.254             17.2581             17.2533            17.2575             
InVirTC2     2019-10-12T23:03:26Z    -0.0022      100.0563  4.70327         4.703081        1028.4973  1028.4968  452.026     1.253                 0.0254         0.0134         31.69376  -64.14832  2.0015        2.3159        5.6246    5.6785    455.687   36.3924     36.3914     17.3299            17.3341             17.3292            17.3334             
InVirTC2     2019-10-12T23:03:26Z    -0.0017      100.0429  4.692444        4.690783        1028.502   1028.5032  452.986     -1.468                0.0261         0.0096         31.69394  -64.1476   1.9814        2.2876        5.5921    5.6173    456.656   36.3676     36.365      17.2522            17.2564             17.239             17.2432             
InVirTC2     2019-10-12T23:03:26Z    -0.0021      100.0539  4.701511        4.701263        1028.5017  1028.5012  453.018     1.024                 0.0271         0.013          31.69376  -64.14832  1.9996        2.315         5.621     5.6816    456.689   36.3882     36.3872     17.3172            17.3213             17.3159            17.32               
InVirTC2     2019-10-12T23:03:26Z    -0.0017      100.0442  4.700647        4.70041         1028.5075  1028.5067  453.981     0.831                 0.0228         0.0128         31.69376  -64.14832  1.9979        2.3125        5.6255    5.6779    457.66    36.3876     36.3863     17.309             17.3132             17.3081            17.3123             
InVirTC2     2019-10-12T23:03:26Z    -0.0017      100.0429  4.690328        4.688174        1028.5089  1028.5106  453.992     -1.387                0.0261         0.0096         31.69394  -64.1476   1.9797        2.287         5.5848    5.6167    457.671   36.365      36.3617     17.2342            17.2383             17.2169            17.2211             
InVirTC2     2019-10-12T23:03:26Z    -0.0018      100.0461  4.688635        4.686633        1028.5161  1028.5178  454.992     -1.251                0.0242         0.0113         31.69394  -64.14759  1.977         2.2855        5.5702    5.6166    458.681   36.3637     36.3607     17.2188            17.2229             17.2027            17.2068             
InVirTC2     2019-10-12T23:03:26Z    -0.0023      100.0574  4.697864        4.697637        1028.5148  1028.5143  455.017     0.843                 0.021          0.0145         31.69376  -64.14833  1.9966        2.3091        5.6243    5.664     458.706   36.3837     36.3827     17.286             17.2901             17.2849            17.289              
InVirTC2     2019-10-12T23:03:26Z    -0.0024      100.0606  4.694282        4.694           1028.5226  1028.5221  456.021     0.791                 0.0277         0.0163         31.69376  -64.14834  1.995         2.3073        5.6215    5.6672    459.719   36.3786     36.3774     17.2565            17.2606             17.255             17.2592             
InVirTC2     2019-10-12T23:03:26Z    -0.0017      100.0434  4.687571        4.686266        1028.5158  1028.5221  456.023     -1.053                0.0239         0.0169         31.69393  -64.14759  1.9752        2.2855        5.5653    5.6207    459.722   36.3565     36.3596     17.216             17.2202             17.2               17.2041             
InVirTC2     2019-10-12T23:03:26Z    -0.0018      100.0461  4.693665        4.693416        1028.5263  1028.5259  456.986     0.75                  0.0317         0.0026         31.69376  -64.14834  1.9931        2.3044        5.6162    5.6595    460.693   36.3765     36.3755     17.2524            17.2565             17.2511            17.2553             
InVirTC2     2019-10-12T23:03:26Z    -0.0017      100.0436  4.683542        4.684068        1028.5268  1028.5226  457.026     -0.847                0.0234         0.0169         31.69392  -64.14762  1.9745        2.2836        5.5677    5.6169    460.734   36.3534     36.3506     17.18              17.1841             17.1882            17.1923             
InVirTC2     2019-10-12T23:03:26Z    -0.0018      100.0461  4.692565        4.692325        1028.5331  1028.5326  457.995     0.928                 0.0324         0.0169         31.69376  -64.14832  1.9906        2.3016        5.6036    5.645     461.711   36.3762     36.3751     17.2417            17.2458             17.2406            17.2447             
InVirTC2     2019-10-12T23:03:26Z    -0.0017      100.0435  4.679867        4.67912         1028.5372  1028.5367  458.019     -0.695                0.0179         0.0169         31.69392  -64.14761  1.9726        2.2812        5.5594    5.6092    461.736   36.3506     36.3484     17.147             17.1511             17.1422            17.1463             
InVirTC2     2019-10-12T23:03:26Z    -0.0017      100.0447  4.67877         4.678941        1028.5432  1028.5425  459.021     -0.61                 0.0222         0.0206         31.69392  -64.14762  1.9718        2.2794        5.5579    5.6009    462.747   36.3495     36.3492     17.1371            17.1412             17.1391            17.1432             
InVirTC2     2019-10-12T23:03:26Z    -0.0018      100.0461  4.690861        4.690566        1028.5389  1028.5385  459.025     1.124                 0.0293         0.0169         31.69376  -64.14832  1.9902        2.3027        5.6069    5.6608    462.751   36.3733     36.3722     17.2279            17.232              17.2263            17.2304             
InVirTC2     2019-10-12T23:03:26Z    -0.0018      100.0448  4.673349        4.672895        1028.5561  1028.5532  460.004     -0.564                0.0296         0.0133         31.69392  -64.1476   1.9715        2.2795        5.5675    5.6133    463.739   36.3451     36.3413     17.089             17.0931             17.0888            17.0929             
InVirTC2     2019-10-12T23:03:26Z    -0.002       100.0513  4.689402        4.68915         1028.545   1028.5444  460.068     1.1                   0.0273         0.012          31.69376  -64.14832  1.9883        2.3018        5.604     5.6653    463.804   36.3713     36.3701     17.2156            17.2197             17.2144            17.2186             
InVirTC2     2019-10-12T23:03:26Z    -0.0029      100.0721  4.688684        4.688407        1028.5487  1028.5484  460.969     0.755                 0.028          0.0096         31.69376  -64.14833  1.9872        2.2993        5.6019    5.6493    464.713   36.3693     36.3683     17.2105            17.2146             17.2088            17.213              
InVirTC2     2019-10-12T23:03:26Z    -0.0017      100.0444  4.678715        4.67562         1028.5541  1028.5577  461.009     -0.674                0.025          0.0126         31.69392  -64.14763  1.9692        2.2769        5.559     5.6065    464.754   36.3513     36.3475     17.1338            17.1379             17.1079            17.112              
InVirTC2     2019-10-12T23:03:26Z    -0.0018      100.0452  4.676398        4.677284        1028.5592  1028.5557  461.96      -1.421                0.0222         0.0169         31.69392  -64.14763  1.9657        2.2739        5.5451    5.6011    465.713   36.3466     36.3454     17.116             17.1201             17.126             17.1301             
InVirTC2     2019-10-12T23:03:26Z    -0.0028      100.0708  4.688186        4.687839        1028.5538  1028.5534  462         0.795                 0.0289         0.0096         31.69376  -64.14833  1.9849        2.2969        5.5929    5.6445    465.753   36.3686     36.3674     17.206             17.2101             17.2039            17.2081             
InVirTC2     2019-10-12T23:03:26Z    -0.0017      100.0446  4.673776        4.674816        1028.5642  1028.5596  462.972     -1.979                0.0205         0.0203         31.69391  -64.14764  1.9642        2.2711        5.5412    5.5871    466.734   36.3411     36.339      17.0963            17.1004             17.1087            17.1128             
InVirTC2     2019-10-12T23:03:26Z    -0.0027      100.0669  4.687749        4.687417        1028.5585  1028.5579  462.989     1.088                 0.0328         0.0188         31.69376  -64.1483   1.9842        2.2956        5.5893    5.6383    466.752   36.3677     36.3664     17.2022            17.2063             17.2005            17.2046             
InVirTC2     2019-10-12T23:03:26Z    -0.0028      100.0689  4.686944        4.68652         1028.5646  1028.5641  463.961     1.349                 0.0304         0.0242         31.69376  -64.14833  1.9842        2.2957        5.5944    5.6433    467.733   36.3676     36.3661     17.1941            17.1983             17.1917            17.1959             
InVirTC2     2019-10-12T23:03:26Z    -0.0017      100.0441  4.670485        4.668171        1028.569   1028.571   463.984     -2.144                0.0222         0.0242         31.6939   -64.14764  1.9635        2.2682        5.5394    5.5774    467.756   36.3336     36.3302     17.0722            17.0763             17.0535            17.0576             
InVirTC2     2019-10-12T23:03:26Z    -0.0016      100.0418  4.668063        4.666764        1028.581   1028.5816  465.005     -2.144                0.0245         0.0096         31.69392  -64.14764  1.9625        2.2677        5.5364    5.574     468.787   36.3352     36.3328     17.0465            17.0506             17.0365            17.0406             
InVirTC2     2019-10-12T23:03:26Z    -0.0028      100.0696  4.68506         4.68485         1028.572   1028.5712  465.023     1.467                 0.0271         0.0242         31.69377  -64.14834  1.9853        2.2956        5.6088    5.6512    468.805   36.3657     36.3645     17.1775            17.1817             17.1768            17.1809             
InVirTC2     2019-10-12T23:03:26Z    -0.0018      100.0461  4.666987        4.666259        1028.585   1028.5859  466.028     -2.001                0.0262         0.0023         31.69392  -64.14764  1.9621        2.2676        5.5358    5.573     469.818   36.3321     36.3313     17.039             17.0431             17.0329            17.037              
InVirTC2     2019-10-12T23:03:26Z    -0.0027      100.0685  4.68241         4.68202         1028.5766  1028.5773  466.089     0.908                 0.0242         0.0163         31.69378  -64.14834  1.9824        2.2931        5.5929    5.6423    469.881   36.3594     36.3592     17.1583            17.1624             17.1548            17.1589             
InVirTC2     2019-10-12T23:03:26Z    -0.0028      100.0689  4.681721        4.681144        1028.583   1028.5817  466.954     0.442                 0.0213         0.0181         31.69377  -64.14834  1.9789        2.2884        5.5783    5.623     470.754   36.3602     36.3576     17.1504            17.1545             17.1477            17.1518             
InVirTC2     2019-10-12T23:03:26Z    -0.0016      100.0414  4.666119        4.66513         1028.5923  1028.5915  467.01      -1.719                0.027          0.0069         31.69392  -64.14766  1.9621        2.2678        5.5371    5.5771    470.81    36.3329     36.3299     17.0292            17.0333             17.023             17.0271             
InVirTC2     2019-10-12T23:03:26Z    -0.0028      100.07    4.678053        4.677687        1028.5919  1028.5913  467.964     0.659                 0.0249         0.0169         31.69376  -64.1483   1.9792        2.285         5.5905    5.617     471.773   36.3559     36.3545     17.1192            17.1233             17.1172            17.1213             
InVirTC2     2019-10-12T23:03:26Z    -0.0018      100.0461  4.665627        4.664121        1028.5967  1028.5972  468.02      -1.3                  0.0283         0.0169         31.69392  -64.14766  1.9621        2.2685        5.5385    5.5864    471.829   36.3316     36.3286     17.0255            17.0296             17.0142            17.0183             
InVirTC2     2019-10-12T23:03:26Z    -0.0029      100.0721  4.676452        4.676146        1028.5963  1028.5959  468.974     0.922                 0.0238         0.0169         31.69376  -64.1483   1.9783        2.2841        5.5924    5.6188    472.793   36.3521     36.351      17.1074            17.1115             17.1057            17.1098             
InVirTC2     2019-10-12T23:03:26Z    -0.001       100.0263  4.66617         4.66539         1028.6038  1028.6025  469.181     -0.871                0.0258         0.0193         31.69391  -64.14765  1.9608        2.2662        5.539     5.5861    473.001   36.3347     36.3316     17.0268            17.0309             17.0227            17.0268             
InVirTC2     2019-10-12T23:03:26Z    -0.002       100.05    4.665806        4.666426        1028.6039  1028.6018  469.909     -1.861                0.0258         0.0191         31.69388  -64.14768  1.9569        2.2584        5.533     5.5549    473.736   36.3307     36.3302     17.0274            17.0315             17.034             17.0381             
InVirTC2     2019-10-12T23:03:26Z    -0.0028      100.0705  4.675871        4.675649        1028.6014  1028.6009  469.981     1.186                 0.0265         0.0023         31.69376  -64.1483   1.9771        2.2843        5.5823    5.6251    473.809   36.3513     36.3503     17.1023            17.1064             17.1012            17.1053             
InVirTC2     2019-10-12T23:03:26Z    -0.0029      100.0721  4.674857        4.674635        1028.6082  1028.6075  470.993     1.385                 0.0277         0.0079         31.69377  -64.1483   1.9761        2.2849        5.5776    5.6325    474.829   36.3511     36.3499     17.0922            17.0963             17.0914            17.0955             
InVirTC2     2019-10-12T23:03:26Z    -0.0025      100.0634  4.664072        4.661349        1028.6103  1028.6079  471         -2.159                0.0284         0.0193         31.69388  -64.14768  1.9551        2.258         5.5239    5.5602    474.837   36.3282     36.3196     17.0129            17.017              16.996             17.0001             
InVirTC2     2019-10-12T23:03:26Z    -0.0025      100.0634  4.662454        4.659169        1028.612   1028.6189  472.001     -2.079                0.0248         0.0242         31.6939   -64.14766  1.9534        2.2578        5.5138    5.5644    475.847   36.3217     36.3208     17.0039            17.008              16.973             16.9771             
InVirTC2     2019-10-12T23:03:26Z    -0.0028      100.0694  4.673211        4.672939        1028.6131  1028.6127  472.019     1.447                 0.0248         0.0169         31.69378  -64.1483   1.9746        2.2849        5.5744    5.6372    475.865   36.3476     36.3465     17.0797            17.0838             17.0782            17.0823             
InVirTC2     2019-10-12T23:03:26Z    -0.0022      100.0565  4.659059        4.657291        1028.6221  1028.6232  473         -1.886                0.0224         0.0235         31.6939   -64.14766  1.9522        2.2578        5.5108    5.5661    476.856   36.3192     36.3163     16.9732            16.9773             16.9593            16.9634             
InVirTC2     2019-10-12T23:03:26Z    -0.0028      100.069   4.672186        4.671941        1028.6188  1028.6182  473.032     1.288                 0.0247         0.0169         31.69378  -64.1483   1.973         2.2823        5.5687    5.6223    476.888   36.3463     36.3451     17.0707            17.0748             17.0696            17.0737             
InVirTC2     2019-10-12T23:03:26Z    -0.0029      100.0715  4.670788        4.670504        1028.6237  1028.6232  474.004     0.794                 0.0241         0.0142         31.69378  -64.14831  1.9703        2.2788        5.5609    5.6075    477.869   36.3435     36.3425     17.0598            17.0639             17.0582            17.0623             
InVirTC2     2019-10-12T23:03:26Z    -0.0027      100.0674  4.656963        4.655738        1028.6314  1028.6314  474.05      -1.583                0.0232         0.0169         31.69392  -64.14766  1.9519        2.2574        5.5119    5.5656    477.916   36.3188     36.316      16.9529            16.9569             16.944             16.9481             
InVirTC2     2019-10-12T23:03:26Z    -0.0028      100.0704  4.669555        4.669267        1028.6294  1028.6288  474.984     0.609                 0.025          0.0096         31.69378  -64.14832  1.9679        2.276         5.5551    5.6017    478.858   36.3419     36.3407     17.0492            17.0533             17.0477            17.0518             
InVirTC2     2019-10-12T23:03:26Z    -0.0022      100.0548  4.655773        4.654408        1028.638   1028.6373  475.026     -1.179                0.0209         0.0169         31.69392  -64.14766  1.9519        2.2562        5.5149    5.5648    478.9     36.3183     36.3145     16.9415            16.9455             16.9324            16.9365             
InVirTC2     2019-10-12T23:03:26Z    -0.0028      100.0696  4.668342        4.66806         1028.635   1028.6345  475.966     0.819                 0.0279         0.0197         31.69378  -64.14832  1.9671        2.275         5.5562    5.6063    479.849   36.3402     36.3391     17.0388            17.0429             17.0373            17.0414             
InVirTC2     2019-10-12T23:03:26Z    -0.0018      100.0461  4.655089        4.654342        1028.6438  1028.6434  476.048     -0.599                0.02           0.0169         31.69392  -64.14766  1.9521        2.256         5.5161    5.5678    479.932   36.3178     36.3157     16.9349            16.939              16.93              16.934              
InVirTC2     2019-10-12T23:03:26Z    -0.0028      100.0709  4.667828        4.667569        1028.6396  1028.6392  476.985     1.045                 0.0264         0.0207         31.69378  -64.14832  1.9674        2.2748        5.5624    5.6076    480.878   36.3391     36.3381     17.0347            17.0387             17.0333            17.0374             
InVirTC2     2019-10-12T23:03:26Z    -0.0023      100.0583  4.655596        4.654085        1028.6482  1028.6481  477.162     -0.442                0.021          0.0107         31.6939   -64.14769  1.9511        2.2543        5.5202    5.5622    481.056   36.3184     36.3149     16.9387            16.9428             16.9279            16.932              
InVirTC2     2019-10-12T23:03:26Z    -0.0019      100.0488  4.652013        4.651418        1028.6514  1028.6504  477.971     -1.767                0.0256         0.0169         31.69388  -64.14772  1.9471        2.2508        5.5058    5.5494    481.874   36.3097     36.3074     16.9131            16.9172             16.9099            16.9139             
InVirTC2     2019-10-12T23:03:26Z    -0.0029      100.0721  4.666877        4.666602        1028.646   1028.6454  478.045     1.162                 0.0265         0.0143         31.69378  -64.14832  1.9671        2.273         5.5643    5.6025    481.947   36.3384     36.3372     17.0257            17.0298             17.0244            17.0285             
InVirTC2     2019-10-12T23:03:26Z    -0.0028      100.0695  4.663966        4.663716        1028.6532  1028.6528  478.984     0.824                 0.019          0.0096         31.69378  -64.14831  1.9653        2.272         5.5559    5.6018    482.895   36.3347     36.3337     17.0012            17.0053             16.9999            17.004              
InVirTC2     2019-10-12T23:03:26Z    -0.0022      100.0561  4.649874        4.647899        1028.6591  1028.6604  478.989     -1.766                0.0265         0.0113         31.69388  -64.14772  1.9461        2.249         5.5027    5.5416    482.9     36.3078     36.3045     16.894             16.8981             16.8784            16.8825             
InVirTC2     2019-10-12T23:03:26Z    -0.0029      100.0721  4.661883        4.66161         1028.6593  1028.6587  479.929     0.627                 0.0182         0.0096         31.69378  -64.14832  1.9639        2.2707        5.5527    5.6019    483.849   36.3316     36.3304     16.9839            16.988              16.9826            16.9867             
InVirTC2     2019-10-12T23:03:26Z    -0.0024      100.061   4.647379        4.646604        1028.6665  1028.6666  480.004     -1.575                0.025          0.0096         31.69389  -64.14771  1.9461        2.249         5.5025    5.5471    483.925   36.3048     36.3031     16.8726            16.8767             16.8669            16.871              
InVirTC2     2019-10-12T23:03:26Z    -0.0031      100.0776  4.660625        4.660373        1028.6647  1028.6642  480.971     0.92                  0.0221         0.0154         31.69378  -64.14829  1.9618        2.2688        5.5446    5.5938    484.901   36.3294     36.3283     16.9738            16.9778             16.9725            16.9766             
InVirTC2     2019-10-12T23:03:26Z    -0.0029      100.0721  4.646165        4.645251        1028.6726  1028.6731  480.998     -1.296                0.0218         0.0151         31.6939   -64.1477   1.9453        2.2499        5.4993    5.5586    484.928   36.3035     36.3018     16.8618            16.8659             16.8547            16.8588             
InVirTC2     2019-10-12T23:03:26Z    -0.0024      100.0614  4.645631        4.64478         1028.679   1028.6791  481.996     -0.916                0.0249         0.0169         31.6939   -64.1477   1.9456        2.2504        5.5044    5.5624    485.936   36.3041     36.3023     16.8555            16.8595             16.8492            16.8533             
InVirTC2     2019-10-12T23:03:26Z    -0.0031      100.0764  4.659747        4.659515        1028.6699  1028.6695  482         1.198                 0.02           0.0169         31.69378  -64.14829  1.961         2.2676        5.5412    5.5913    485.939   36.3279     36.327      16.9664            16.9704             16.9652            16.9693             
InVirTC2     2019-10-12T23:03:26Z    -0.0029      100.0721  4.658931        4.658692        1028.6755  1028.6748  483.001     1.319                 0.0216         0.0169         31.69378  -64.1483   1.9609        2.2663        5.548     5.5879    486.95    36.327      36.3259     16.959             16.9631             16.958             16.9621             
InVirTC2     2019-10-12T23:03:26Z    -0.0021      100.054   4.645569        4.64513         1028.6848  1028.6838  483.052     -0.412                0.0264         0.0169         31.6939   -64.1477   1.9462        2.2493        5.5087    5.5526    487.002   36.305      36.303      16.8534            16.8575             16.8514            16.8554             
InVirTC2     2019-10-12T23:03:26Z    -0.0023      100.0585  4.645675        4.644979        1028.6881  1028.6875  483.966     -0.541                0.0269         0.0204         31.69388  -64.1477   1.9452        2.2476        5.5115    5.5561    487.924   36.3044     36.3022     16.8547            16.8588             16.8504            16.8544             
InVirTC2     2019-10-12T23:03:26Z    -0.0032      100.0805  4.657202        4.656939        1028.6815  1028.681   484.001     1.116                 0.025          0.0155         31.69378  -64.14829  1.9592        2.265         5.5433    5.5884    487.959   36.3245     36.3234     16.9445            16.9486             16.9432            16.9473             
InVirTC2     2019-10-12T23:03:26Z    -0.0026      100.0643  4.643836        4.644313        1028.6927  1028.6898  484.955     -1.718                0.0217         0.0096         31.69386  -64.14772  1.9422        2.2435        5.5036    5.5435    488.922   36.3003     36.2986     16.8409            16.845              16.8475            16.8515             
InVirTC2     2019-10-12T23:03:26Z    -0.0035      100.087   4.655968        4.655681        1028.6874  1028.6868  484.971     0.815                 0.0238         0.0114         31.69378  -64.14828  1.9564        2.2619        5.5288    5.5761    488.938   36.3231     36.3219     16.9337            16.9377             16.9323            16.9363             
InVirTC2     2019-10-12T23:03:26Z    -0.0031      100.0766  4.652943        4.652738        1028.6952  1028.6946  485.972     0.877                 0.025          0.0156         31.69378  -64.14829  1.9537        2.2606        5.5201    5.5773    489.949   36.3193     36.3183     16.908             16.9121             16.9072            16.9113             
InVirTC2     2019-10-12T23:03:26Z    -0.0025      100.0617  4.641939        4.642305        1028.6991  1028.698   485.993     -1.795                0.0214         0.0169         31.69388  -64.14772  1.9413        2.2421        5.4993    5.5315    489.97    36.2976     36.2974     16.825             16.8291             16.8288            16.8328             
InVirTC2     2019-10-12T23:03:26Z    -0.0032      100.0789  4.650475        4.650253        1028.7028  1028.7022  487.018     1.035                 0.0243         0.0096         31.69378  -64.1483   1.9517        2.2585        5.5154    5.5748    491.004   36.3164     36.3153     16.8868            16.8909             16.8858            16.8899             
InVirTC2     2019-10-12T23:03:26Z    -0.0025      100.0621  4.641144        4.640494        1028.7053  1028.7003  487.024     -1.633                0.0243         0.018          31.69388  -64.14771  1.9405        2.2406        5.4927    5.5255    491.011   36.2973     36.291      16.8171            16.8212             16.8178            16.8219             
InVirTC2     2019-10-12T23:03:26Z    -0.0025      100.0621  4.639794        4.638616        1028.7069  1028.7088  488.028     -1.336                0.0224         0.0242         31.69388  -64.1477   1.9394        2.241         5.4886    5.5334    492.024   36.2914     36.2905     16.8102            16.8142             16.7997            16.8037             
InVirTC2     2019-10-12T23:03:26Z    -0.0032      100.0788  4.649408        4.648554        1028.7054  1028.7062  488.088     0.675                 0.0241         0.0076         31.69378  -64.1483   1.951         2.2563        5.5232    5.5704    492.085   36.3119     36.3106     16.881             16.8851             16.8741            16.8781             
InVirTC2     2019-10-12T23:03:26Z    -0.0031      100.0766  4.648213        4.647534        1028.7129  1028.7111  488.953     0.394                 0.0201         0.0144         31.69378  -64.1483   1.9493        2.2524        5.5175    5.5551    492.958   36.3125     36.3092     16.8683            16.8723             16.8653            16.8694             
InVirTC2     2019-10-12T23:03:26Z    -0.0024      100.061   4.637705        4.635786        1028.7164  1028.7174  488.997     -0.866                0.0242         0.0205         31.69389  -64.1477   1.9398        2.2424        5.4955    5.5441    493.002   36.2915     36.288      16.7892            16.7933             16.7744            16.7784             
InVirTC2     2019-10-12T23:03:26Z    -0.0034      100.0843  4.64752         4.647254        1028.7163  1028.7157  489.986     0.909                 0.0211         0.0092         31.69378  -64.1483   1.9477        2.2519        5.5098    5.5583    494       36.3097     36.3085     16.8642            16.8682             16.863             16.867              
InVirTC2     2019-10-12T23:03:26Z    -0.0027      100.0686  4.637174        4.635092        1028.7241  1028.7248  490.269     -0.464                0.0296         0.0096         31.69387  -64.14773  1.9393        2.2417        5.4986    5.549     494.286   36.2922     36.2881     16.7828            16.7868             16.767             16.771              
InVirTC2     2019-10-12T23:03:26Z    -0.0028      100.0702  4.634627        4.63398         1028.7288  1028.7286  490.943     -1.204                0.0268         0.0145         31.69386  -64.14775  1.9375        2.2387        5.4951    5.5366    494.966   36.2879     36.2863     16.7624            16.7664             16.7579            16.7619             
InVirTC2     2019-10-12T23:03:26Z    -0.0035      100.0888  4.647268        4.647023        1028.7218  1028.7209  491.006     1.285                 0.023          0.0096         31.69378  -64.1483   1.9473        2.2512        5.5091    5.5599    495.03    36.31       36.3085     16.861             16.865              16.8602            16.8642             
InVirTC2     2019-10-12T23:03:26Z    -0.0028      100.0694  4.631973        4.631949        1028.7323  1028.7343  491.989     -1.16                 0.0264         0.0127         31.69386  -64.14774  1.9371        2.2381        5.4943    5.5399    496.022   36.2806     36.2825     16.7441            16.7482             16.7418            16.7458             
InVirTC2     2019-10-12T23:03:26Z    -0.0032      100.0795  4.645974        4.645748        1028.7276  1028.7271  491.993     1.533                 0.0238         0.0096         31.69378  -64.1483   1.9463        2.2507        5.5097    5.5607    496.027   36.3084     36.3074     16.8497            16.8538             16.8487            16.8527             
InVirTC2     2019-10-12T23:03:26Z    -0.0025      100.063   4.631203        4.630657        1028.7418  1028.7409  493.012     -0.89                 0.0276         0.0114         31.69388  -64.14774  1.9363        2.238         5.494     5.5405    497.055   36.2836     36.2815     16.733             16.737              16.7299            16.734              
InVirTC2     2019-10-12T23:03:26Z    -0.003       100.0748  4.643732        4.643519        1028.7359  1028.7353  493.022     1.636                 0.0217         0.0096         31.6938   -64.1483   1.9465        2.2512        5.5147    5.5665    497.065   36.3067     36.3056     16.8294            16.8334             16.8285            16.8325             
InVirTC2     2019-10-12T23:03:26Z    -0.0031      100.0773  4.645491        4.644918        1028.7334  1028.7336  493.836     0.342                 0.0252         0.0178         31.69378  -64.14829  1.947         2.249         5.5192    5.5602    497.887   36.3048     36.3036     16.8483            16.8523             16.8439            16.848              
InVirTC2     2019-10-12T23:03:26Z    -0.0025      100.0617  4.630718        4.630264        1028.7473  1028.7469  494.021     -0.557                0.0271         0.0169         31.69388  -64.14774  1.9362        2.2367        5.4912    5.5344    498.073   36.2834     36.282      16.728             16.732              16.7251            16.7292             
InVirTC2     2019-10-12T23:03:26Z    -0.0034      100.0863  4.638154        4.637648        1028.7481  1028.7478  495.077     0.203                 0.0239         0.0155         31.69379  -64.14829  1.9443        2.2468        5.5139    5.559     499.139   36.2967     36.2952     16.7852            16.7893             16.782             16.786              
InVirTC2     2019-10-12T23:03:26Z    -0.0025      100.0634  4.630771        4.630259        1028.7525  1028.752   495.117     -0.388                0.0233         0.0131         31.69385  -64.14777  1.9353        2.2372        5.4903    5.5366    499.18    36.2838     36.2821     16.7276            16.7316             16.7244            16.7285             
InVirTC2     2019-10-12T23:03:26Z    -0.0038      100.0958  4.635395        4.635118        1028.7537  1028.7531  495.91      0.249                 0.0235         0.0111         31.69378  -64.14828  1.9412        2.2455        5.5051    5.5581    499.98    36.2921     36.291      16.7631            16.7671             16.7617            16.7657             
InVirTC2     2019-10-12T23:03:26Z    -0.0019      100.0485  4.630509        4.630194        1028.7562  1028.7551  495.975     -1.328                0.0248         0.0159         31.69385  -64.14778  1.9353        2.2375        5.4897    5.539     500.046   36.283      36.2812     16.7256            16.7296             16.7245            16.7285             
InVirTC2     2019-10-12T23:03:26Z    -0.0038      100.0954  4.632635        4.632426        1028.7625  1028.7619  497.03      0.557                 0.0249         0.0169         31.69378  -64.14828  1.9403        2.2416        5.506     5.5415    501.111   36.2894     36.2883     16.7387            16.7427             16.7379            16.7419             
InVirTC2     2019-10-12T23:03:26Z    -0.0027      100.068   4.630454        4.630162        1028.7621  1028.7611  497.215     -1.017                0.0206         0.0143         31.69383  -64.14782  1.9345        2.2365        5.4903    5.536     501.298   36.2832     36.2816     16.7243            16.7283             16.7232            16.7272             
InVirTC2     2019-10-12T23:03:26Z    -0.0038      100.0954  4.631536        4.631216        1028.7656  1028.7652  497.761     0.34                  0.0243         0.0106         31.69378  -64.14828  1.9404        2.2398        5.5126    5.5438    501.849   36.2867     36.2855     16.7307            16.7347             16.7289            16.7329             
InVirTC2     2019-10-12T23:03:26Z    -0.0027      100.068   4.630363        4.629831        1028.7652  1028.7642  497.922     -1.534                0.0197         0.0161         31.69382  -64.14784  1.9338        2.2356        5.4888    5.5275    502.011   36.2829     36.2807     16.7234            16.7274             16.7206            16.7246             
InVirTC2     2019-10-12T23:03:26Z    -0.0028      100.0686  4.63021         4.629618        1028.7696  1028.7691  498.973     -1.221                0.02           0.0096         31.69384  -64.14781  1.9326        2.2362        5.4819    5.5314    503.072   36.2822     36.2804     16.7222            16.7262             16.7184            16.7224             
InVirTC2     2019-10-12T23:03:26Z    -0.0038      100.0945  4.629398        4.629148        1028.7733  1028.7728  498.982     0.694                 0.0264         0.0159         31.69378  -64.14828  1.939         2.2383        5.5074    5.5423    503.081   36.2839     36.2828     16.7124            16.7164             16.7111            16.7151             
InVirTC2     2019-10-12T23:03:26Z    -0.0038      100.0963  4.628707        4.628375        1028.7779  1028.7774  499.994     0.848                 0.0261         0.0232         31.69378  -64.14828  1.9378        2.2395        5.5002    5.5511    504.103   36.2823     36.2811     16.707             16.711              16.7051            16.7091             
InVirTC2     2019-10-12T23:03:26Z    -0.0028      100.0706  4.629903        4.629337        1028.7746  1028.7739  500.043     -0.616                0.0213         0.0096         31.69384  -64.1478   1.9326        2.2374        5.4797    5.5406    504.153   36.2817     36.2797     16.7193            16.7234             16.716             16.72               
InVirTC2     2019-10-12T23:03:26Z    -0.0036      100.0891  4.628648        4.628073        1028.7792  1028.7788  500.704     0.599                 0.0247         0.0138         31.69376  -64.14815  1.9346        2.2364        5.4914    5.5407    504.819   36.2803     36.2786     16.7083            16.7123             16.7046            16.7086             
InVirTC3     2019-10-13T02:52:35Z    0.039        99.0295   5.681586        5.681229        1024.1443  1024.141   4.393       -0.497                0.0461         0.059          31.70764  -64.12368  2.5803        2.9897        6.2769    6.3192    4.424     36.6263     36.6226     26.43              26.4364             26.4315            26.4378             
InVirTC3     2019-10-13T02:52:35Z    0.0375       99.0676   5.682289        5.681816        1024.1478  1024.1445  5.11        -0.03                 0.0433         0.0609         31.70782  -64.12377  2.5853        2.9906        6.3009    6.3255    5.146     36.6284     36.6243     26.4336            26.4399             26.4344            26.4407             
InVirTC3     2019-10-13T02:52:35Z    0.0365       99.0906   5.684263        5.683474        1024.1504  1024.1466  5.915       -0.396                0.0403         0.0624         31.70801  -64.12383  2.5875        2.9916        6.3103    6.3292    5.956     36.6325     36.6272     26.4461            26.4525             26.4456            26.4519             
InVirTC3     2019-10-13T02:52:35Z    0.0363       99.0973   5.684432        5.683926        1024.1544  1024.1508  6.817       -0.316                0.0453         0.0576         31.70802  -64.12381  2.5848        2.9916        6.2994    6.3268    6.865     36.6329     36.6285     26.4468            26.4532             26.4477            26.454              
InVirTC3     2019-10-13T02:52:35Z    0.0368       99.083    5.684628        5.68425         1024.1594  1024.1558  7.986       -0.688                0.0496         0.0543         31.70804  -64.12383  2.5845        2.9921        6.3048    6.3255    8.042     36.6332     36.6292     26.4478            26.4541             26.4494            26.4557             
InVirTC3     2019-10-13T02:52:35Z    0.0364       99.0935   5.684732        5.68433         1024.1647  1024.1611  9.239       -0.304                0.0437         0.0554         31.70804  -64.12382  2.5799        2.9935        6.2859    6.3372    9.304     36.6332     36.6291     26.4482            26.4545             26.4496            26.456              
InVirTC3     2019-10-13T02:52:35Z    0.0365       99.0926   5.684841        5.684529        1024.168   1024.1645  9.919       -1.221                0.0432         0.0549         31.70806  -64.1238   2.5822        2.9904        6.2891    6.3326    9.988     36.6337     36.63       26.4483            26.4546             26.4501            26.4565             
InVirTC3     2019-10-13T02:52:35Z    0.0368       99.0839   5.685061        5.684672        1024.1729  1024.1691  10.975      -0.996                0.0393         0.0682         31.70806  -64.12382  2.5845        2.9887        6.2992    6.3206    11.052    36.6345     36.6302     26.4489            26.4553             26.4507            26.457              
InVirTC3     2019-10-13T02:52:35Z    0.0362       99.1      5.68521         5.68467         1024.1771  1024.1733  12.002      -0.51                 0.0421         0.0577         31.70807  -64.12382  2.5857        2.9857        6.3062    6.3057    12.086    36.6346     36.6299     26.4497            26.4561             26.4507            26.4571             
InVirTC3     2019-10-13T02:52:35Z    0.0363       99.097    5.615003        5.679095        1023.9023  1024.1636  12.725      0.126                 0.0453         0.0545         31.70964  -64.13065  2.3962        2.7557        5.775     5.7554    12.814    36.2166     36.6047     26.3312            26.3375             26.4311            26.4375             
InVirTC3     2019-10-13T02:52:35Z    0.0364       99.0935   5.685304        5.684894        1024.1811  1024.1775  12.946      -0.321                0.0501         0.0585         31.70807  -64.12381  2.5853        2.9918        6.3053    6.3343    13.037    36.6346     36.6305     26.4501            26.4565             26.4516            26.4579             
InVirTC3     2019-10-13T02:52:35Z    0.0364       99.0933   5.685514        5.685078        1024.186   1024.1823  13.982      -0.956                0.0476         0.0676         31.70809  -64.12382  2.5863        2.9915        6.311     6.3369    14.08     36.6354     36.6311     26.4506            26.457              26.4521            26.4584             
InVirTC3     2019-10-13T02:52:35Z    0.038        99.0559   5.682439        5.682357        1024.1824  1024.1793  14.055      0.381                 0.0406         0.0589         31.70962  -64.13013  2.583         2.9844        6.2984    6.3149    14.154    36.6242     36.6214     26.4366            26.4429             26.4394            26.4457             
InVirTC3     2019-10-13T02:52:35Z    0.0384       99.046    5.683734        5.683553        1024.1856  1024.1829  14.986      0.478                 0.0436         0.0544         31.70962  -64.13012  2.5844        2.9849        6.3072    6.3188    15.091    36.6267     36.6239     26.4449            26.4513             26.4468            26.4531             
InVirTC3     2019-10-13T02:52:35Z    0.0361       99.1026   5.685637        5.685232        1024.1905  1024.187   15.008      -0.741                0.0497         0.0682         31.7081   -64.12383  2.5838        2.9865        6.2961    6.316     15.113    36.6356     36.6316     26.4511            26.4574             26.4525            26.4588             
InVirTC3     2019-10-13T02:52:35Z    0.0385       99.0418   5.684323        5.683562        1024.1897  1024.1869  16.037      0.969                 0.0395         0.0535         31.70962  -64.13012  2.5852        2.9884        6.3103    6.3295    16.149    36.6277     36.6233     26.4486            26.455              26.4472            26.4535             
InVirTC3     2019-10-13T02:52:35Z    0.0359       99.107    5.685723        5.68527         1024.195   1024.1913  16.056      -0.407                0.0459         0.0617         31.7081   -64.12382  2.5857        2.9882        6.3073    6.326     16.168    36.6357     36.6314     26.4513            26.4577             26.4526            26.459              
InVirTC3     2019-10-13T02:52:35Z    0.0359       99.1061   5.68594         5.685482        1024.1991  1024.1955  16.965      -0.476                0.0503         0.0638         31.7081   -64.12384  2.5863        2.9904        6.3159    6.3276    17.085    36.6363     36.6321     26.4522            26.4586             26.4533            26.4597             
InVirTC3     2019-10-13T02:52:35Z    0.0391       99.0281   5.686745        5.685659        1024.1962  1024.1931  17.242      0.481                 0.0465         0.0568         31.70962  -64.13011  2.5841        2.9875        6.3032    6.3236    17.363    36.6347     36.6294     26.4614            26.4678             26.4582            26.4646             
InVirTC3     2019-10-13T02:52:35Z    0.0381       99.0535   5.687221        5.686698        1024.1996  1024.1967  17.945      0.309                 0.0485         0.0598         31.70962  -64.13009  2.5842        2.9804        6.3034    6.3003    18.071    36.6362     36.6324     26.4637            26.4701             26.4636            26.47               
InVirTC3     2019-10-13T02:52:35Z    0.0359       99.1084   5.686203        5.685866        1024.2038  1024.2002  17.979      -0.708                0.0461         0.0665         31.70812  -64.12384  2.5808        2.9949        6.2943    6.3466    18.106    36.6371     36.6332     26.4531            26.4595             26.455             26.4614             
InVirTC3     2019-10-13T02:52:35Z    0.0359       99.1077   5.686566        5.686234        1024.2084  1024.2049  18.999      -0.553                0.0455         0.0579         31.70813  -64.12384  2.5814        2.9933        6.2945    6.3447    19.133    36.6381     36.6342     26.4549            26.4612             26.4567            26.4631             
InVirTC3     2019-10-13T02:52:35Z    0.0386       99.0396   5.687527        5.687165        1024.2049  1024.202   19.009      0.651                 0.0461         0.0514         31.70962  -64.13008  2.5839        2.9833        6.3044    6.3188    19.143    36.6375     36.634      26.4644            26.4708             26.4654            26.4718             
InVirTC3     2019-10-13T02:52:35Z    0.0383       99.0488   5.687572        5.687163        1024.2091  1024.2063  20.021      0.667                 0.0466         0.0645         31.70962  -64.13008  2.5849        2.9869        6.3083    6.3269    20.162    36.6373     36.6339     26.4646            26.471              26.4652            26.4715             
InVirTC3     2019-10-13T02:52:35Z    0.0359       99.1079   5.686812        5.686191        1024.2132  1024.2093  20.091      -0.327                0.0472         0.0536         31.70813  -64.12383  2.5835        2.9884        6.3029    6.3371    20.233    36.6387     36.6338     26.4559            26.4622             26.4564            26.4628             
InVirTC3     2019-10-13T02:52:35Z    0.0359       99.1077   5.687397        5.687055        1024.2173  1024.2136  20.918      -0.743                0.0429         0.0646         31.70814  -64.12383  2.584         2.9794        6.3112    6.3037    21.065    36.6405     36.6365     26.4587            26.465              26.4606            26.467              
InVirTC3     2019-10-13T02:52:35Z    0.039        99.0299   5.687781        5.687394        1024.2131  1024.2102  20.993      0.614                 0.0437         0.0609         31.70962  -64.13007  2.5818        2.9878        6.2945    6.3299    21.14     36.6376     36.6341     26.4658            26.4721             26.4666            26.473              
InVirTC3     2019-10-13T02:52:35Z    0.0358       99.1089   5.68762         5.68789         1024.2222  1024.2192  21.961      -0.884                0.0456         0.0615         31.70815  -64.12382  2.5807        2.9796        6.2998    6.2982    22.116    36.6413     36.6394     26.4593            26.4656             26.4641            26.4704             
InVirTC3     2019-10-13T02:52:35Z    0.0384       99.0459   5.68778         5.687369        1024.2188  1024.216   22.089      0.572                 0.0458         0.0644         31.70962  -64.13006  2.5834        2.9832        6.3064    6.3111    22.245    36.6383     36.6348     26.4645            26.4708             26.4651            26.4715             
InVirTC3     2019-10-13T02:52:35Z    0.0391       99.0286   5.688063        5.687659        1024.2228  1024.2199  22.908      0.248                 0.0471         0.057          31.70962  -64.13005  2.5815        2.9847        6.2979    6.3214    23.07     36.6393     36.6357     26.4655            26.4718             26.4662            26.4726             
InVirTC3     2019-10-13T02:52:35Z    0.0358       99.1099   5.688932        5.688796        1024.2276  1024.2239  23.016      -0.673                0.0402         0.0674         31.70816  -64.12382  2.5778        2.9849        6.2851    6.317     23.178    36.6452     36.6417     26.4658            26.4722             26.4691            26.4754             
InVirTC3     2019-10-13T02:52:35Z    0.0382       99.0492   5.688533        5.688136        1024.2276  1024.2248  23.928      0.461                 0.0471         0.0535         31.70962  -64.13003  2.5814        2.9874        6.2997    6.332     24.096    36.6407     36.6373     26.4675            26.4739             26.4682            26.4746             
InVirTC3     2019-10-13T02:52:35Z    0.0354       99.1188   5.689324        5.687952        1024.2324  1024.2278  24.057      -0.341                0.042          0.0535         31.70816  -64.12382  2.5793        2.9878        6.2915    6.3302    24.227    36.6464     36.6389     26.4676            26.4739             26.4645            26.4708             
InVirTC3     2019-10-13T02:52:35Z    0.0356       99.1148   5.690604        5.690735        1024.2365  1024.2333  24.883      -0.566                0.0479         0.0628         31.70817  -64.12382  2.5807        2.987         6.2972    6.3243    25.058    36.6499     36.6475     26.4745            26.4808             26.4787            26.4851             
InVirTC3     2019-10-13T02:52:35Z    0.0386       99.039    5.688812        5.688446        1024.2323  1024.2295  24.995      0.818                 0.0424         0.0602         31.70962  -64.13002  2.5815        2.9921        6.2996    6.3459    25.172    36.6414     36.638      26.4688            26.4751             26.4697            26.4761             
InVirTC3     2019-10-13T02:52:35Z    0.0359       99.107    5.691999        5.692361        1024.2439  1024.2402  26.002      -0.807                0.0516         0.0636         31.70818  -64.12382  2.5806        2.9901        6.2984    6.3399    26.185    36.6556     36.6533     26.4797            26.486              26.4859            26.4922             
InVirTC3     2019-10-13T02:52:35Z    0.0395       99.0177   5.688981        5.688606        1024.2366  1024.2338  26.012      1.061                 0.0419         0.0555         31.70962  -64.13002  2.5838        2.9884        6.3113    6.3339    26.196    36.6416     36.6382     26.4697            26.4761             26.4705            26.4768             
InVirTC3     2019-10-13T02:52:35Z    0.0359       99.1064   5.693567        5.692814        1024.2487  1024.2446  27.026      -0.535                0.0501         0.0682         31.70819  -64.12382  2.5804        2.9886        6.2943    6.3373    27.217    36.6597     36.6542     26.4884            26.4947             26.4884            26.4947             
InVirTC3     2019-10-13T02:52:35Z    0.039        99.0292   5.689205        5.688743        1024.2416  1024.2388  27.152      0.462                 0.0427         0.0712         31.70962  -64.13002  2.5822        2.9843        6.3026    6.3178    27.343    36.6421     36.6385     26.4706            26.477              26.4709            26.4773             
InVirTC3     2019-10-13T02:52:35Z    0.0387       99.0376   5.689177        5.688815        1024.2454  1024.2426  27.988      0.362                 0.0497         0.0636         31.70962  -64.12998  2.581         2.9785        6.302     6.3039    28.185    36.6421     36.6387     26.47              26.4764             26.4709            26.4773             
InVirTC3     2019-10-13T02:52:35Z    0.0359       99.1061   5.693735        5.693345        1024.2528  1024.2494  28.037      -0.424                0.0519         0.0651         31.7082   -64.12382  2.5811        2.9833        6.3002    6.3149    28.235    36.6598     36.6558     26.4894            26.4958             26.4908            26.4972             
InVirTC3     2019-10-13T02:52:35Z    0.0359       99.1086   5.693575        5.693356        1024.257   1024.2535  28.949      -0.754                0.0484         0.0586         31.7082   -64.12382  2.5795        2.9856        6.2953    6.3255    29.154    36.6595     36.6559     26.4879            26.4943             26.4904            26.4968             
InVirTC3     2019-10-13T02:52:35Z    0.0395       99.0168   5.689393        5.688986        1024.25    1024.2471  28.971      0.559                 0.0453         0.058          31.70962  -64.13001  2.5835        2.9839        6.3125    6.328     29.176    36.6428     36.6393     26.4707            26.4771             26.4714            26.4777             
InVirTC3     2019-10-13T02:52:35Z    0.0389       99.0319   5.69026         5.689854        1024.255   1024.2522  29.987      0.691                 0.0464         0.0582         31.70962  -64.12999  2.5836        2.9892        6.3112    6.3448    30.199    36.6454     36.642      26.4749            26.4813             26.4755            26.4819             
InVirTC3     2019-10-13T02:52:35Z    0.0358       99.1099   5.692925        5.691553        1024.2615  1024.2595  30.03       -0.683                0.0509         0.0682         31.70822  -64.12382  2.5793        2.9864        6.2948    6.3363    30.242    36.6576     36.6524     26.4839            26.4903             26.478             26.4843             
InVirTC3     2019-10-13T02:52:35Z    0.0389       99.0333   5.691443        5.691024        1024.2604  1024.2576  31.025      0.753                 0.0469         0.0554         31.70962  -64.13     2.5821        2.9873        6.3015    6.3315    31.244    36.6491     36.6456     26.4807            26.487              26.4813            26.4876             
InVirTC3     2019-10-13T02:52:35Z    0.0358       99.1092   5.6908          5.690194        1024.2696  1024.2673  31.052      -0.475                0.0489         0.0732         31.70822  -64.12382  2.5792        2.9802        6.3029    6.3055    31.271    36.6554     36.6518     26.467             26.4733             26.4659            26.4723             
InVirTC3     2019-10-13T02:52:35Z    0.0351       99.1263   5.690237        5.689431        1024.2753  1024.2718  31.995      -0.483                0.0448         0.067          31.70822  -64.12382  2.5744        2.986         6.2876    6.3379    32.222    36.6552     36.6502     26.4616            26.4679             26.4606            26.4669             
InVirTC3     2019-10-13T02:52:35Z    0.0396       99.0157   5.692738        5.692192        1024.2655  1024.2627  32.022      0.484                 0.0481         0.062          31.70962  -64.12998  2.5841        2.984         6.3129    6.3201    32.248    36.6529     36.6491     26.4873            26.4937             26.4872            26.4935             
InVirTC3     2019-10-13T02:52:35Z    0.0352       99.1251   5.690484        5.689393        1024.2785  1024.2761  32.963      -0.7                  0.0467         0.0609         31.70824  -64.12382  2.5722        2.9793        6.2729    6.3115    33.196    36.6549     36.6501     26.4639            26.4703             26.46              26.4663             
InVirTC3     2019-10-13T02:52:35Z    0.0391       99.0266   5.694927        5.694481        1024.2713  1024.2685  32.981      0.452                 0.0431         0.0592         31.70962  -64.12997  2.5841        2.9794        6.3112    6.3051    33.214    36.6598     36.6562     26.4983            26.5047             26.4988            26.5051             
InVirTC3     2019-10-13T02:52:35Z    0.0357       99.1123   5.690537        5.690114        1024.2864  1024.2824  33.979      -0.609                0.0442         0.0682         31.70826  -64.12382  2.5766        2.9805        6.2934    6.3141    34.219    36.658      36.6534     26.4601            26.4664             26.4619            26.4683             
InVirTC3     2019-10-13T02:52:35Z    0.0393       99.0223   5.698079        5.697597        1024.2773  1024.2747  34.015      0.523                 0.0426         0.0682         31.70962  -64.12996  2.5805        2.9772        6.295     6.3006    34.256    36.6689     36.6654     26.5152            26.5216             26.5151            26.5215             
InVirTC3     2019-10-13T02:52:35Z    0.0392       99.0257   5.699831        5.69937         1024.2834  1024.2804  34.947      0.416                 0.0402         0.0776         31.70962  -64.12995  2.5812        2.9816        6.3013    6.319     35.194    36.675      36.6712     26.5232            26.5295             26.5237            26.5301             
InVirTC3     2019-10-13T02:52:35Z    0.0348       99.1333   5.69141         5.691145        1024.2912  1024.2878  35.061      -0.444                0.0442         0.0718         31.70826  -64.12382  2.5769        2.9829        6.2957    6.3336    35.309    36.6602     36.6565     26.4649            26.4712             26.467             26.4734             
InVirTC3     2019-10-13T02:52:35Z    0.0348       99.1331   5.692046        5.691388        1024.296   1024.2916  35.968      -0.575                0.0438         0.0651         31.70826  -64.12382  2.5753        2.9741        6.2883    6.2993    36.223    36.6624     36.6569     26.4675            26.4739             26.4684            26.4748             
InVirTC3     2019-10-13T02:52:35Z    0.0399       99.0077   5.699458        5.699136        1024.2891  1024.2862  36          0.571                 0.0428         0.0682         31.70962  -64.12994  2.5793        2.9833        6.2934    6.3226    36.255    36.675      36.6716     26.5193            26.5257             26.5207            26.527              
InVirTC3     2019-10-13T02:52:35Z    0.0395       99.0184   5.698042        5.69798         1024.2951  1024.292   36.968      0.484                 0.0441         0.0766         31.70962  -64.12994  2.5781        2.978         6.293     6.3016    37.23     36.6729     36.6701     26.5087            26.5151             26.5117            26.518              
InVirTC3     2019-10-13T02:52:35Z    0.0348       99.1333   5.692151        5.692131        1024.3002  1024.297   36.991      -0.62                 0.0479         0.0686         31.70827  -64.12382  2.5762        2.9758        6.2949    6.3036    37.253    36.6623     36.6596     26.4681            26.4745             26.4714            26.4778             
InVirTC3     2019-10-13T02:52:35Z    0.039        99.0301   5.697842        5.697483        1024.2996  1024.2969  37.976      0.585                 0.0461         0.0685         31.70962  -64.12992  2.5782        2.9835        6.2906    6.3332    38.245    36.6724     36.6691     26.5071            26.5135             26.5079            26.5143             
InVirTC3     2019-10-13T02:52:35Z    0.0342       99.1482   5.693219        5.692076        1024.306   1024.3013  37.986      -0.513                0.0538         0.0718         31.70828  -64.12384  2.574         2.9797        6.2839    6.311     38.255    36.6662     36.6593     26.4726            26.479              26.4708            26.4772             
InVirTC3     2019-10-13T02:52:35Z    0.039        99.0291   5.697789        5.697418        1024.3042  1024.3013  39.014      0.832                 0.045          0.0609         31.70962  -64.12994  2.5809        2.9843        6.3131    6.329     39.29     36.6722     36.6688     26.5064            26.5127             26.5073            26.5136             
InVirTC3     2019-10-13T02:52:35Z    0.0342       99.1481   5.693417        5.692623        1024.311   1024.307   39.101      -0.303                0.049          0.063          31.7083   -64.12386  2.5778        2.9831        6.2985    6.3287    39.378    36.6668     36.6613     26.4733            26.4796             26.4729            26.4793             
InVirTC3     2019-10-13T02:52:35Z    0.0346       99.1376   5.694612        5.694293        1024.3179  1024.316   39.945      -1.037                0.052          0.0809         31.70832  -64.12384  2.577         2.9805        6.3012    6.3198    40.228    36.6725     36.6701     26.4766            26.4829             26.4768            26.4831             
InVirTC3     2019-10-13T02:52:35Z    0.0397       99.0119   5.697827        5.697445        1024.3093  1024.3067  40.107      0.672                 0.0525         0.0715         31.70962  -64.12992  2.5774        2.9793        6.2907    6.3105    40.391    36.6726     36.6693     26.5058            26.5122             26.5065            26.5128             
InVirTC3     2019-10-13T02:52:35Z    0.039        99.0286   5.698571        5.698068        1024.314   1024.311   40.835      0.182                 0.0514         0.0754         31.70962  -64.1299   2.5781        2.9763        6.298     6.3065    41.125    36.6756     36.6718     26.5085            26.5148             26.5087            26.5151             
InVirTC3     2019-10-13T02:52:35Z    0.0337       99.1619   5.694708        5.694337        1024.3249  1024.324   40.989      -0.907                0.0529         0.0682         31.70832  -64.12382  2.5752        2.9825        6.2929    6.3377    41.279    36.6748     36.6731     26.4742            26.4806             26.473             26.4793             
InVirTC3     2019-10-13T02:52:35Z    0.04         99.0068   5.697167        5.696822        1024.3244  1024.3217  41.98       0.548                 0.0467         0.0672         31.70962  -64.12988  2.5768        2.9781        6.2927    6.3138    42.278    36.6768     36.6735     26.4938            26.5001             26.4947            26.5011             
InVirTC3     2019-10-13T02:52:35Z    0.033        99.1783   5.694804        5.694436        1024.3318  1024.3303  42.01       -0.609                0.0528         0.062          31.70832  -64.12382  2.5733        2.9793        6.287     6.3202    42.308    36.6771     36.6748     26.4718            26.4781             26.4713            26.4776             
InVirTC3     2019-10-13T02:52:35Z    0.0396       99.0165   5.69613         5.695754        1024.3328  1024.3301  43.016      0.889                 0.0455         0.0612         31.70962  -64.12988  2.5741        2.9791        6.285     6.3154    43.321    36.6775     36.6741     26.483             26.4894             26.4838            26.4902             
InVirTC3     2019-10-13T02:52:35Z    0.0331       99.177    5.695031        5.694637        1024.3381  1024.3332  43.057      -0.339                0.0522         0.0678         31.70834  -64.12384  2.5738        2.976         6.2912    6.306     43.363    36.6791     36.6738     26.4709            26.4773             26.4739            26.4803             
InVirTC3     2019-10-13T02:52:35Z    0.0331       99.1755   5.695075        5.69467         1024.3414  1024.3377  43.768      -0.419                0.0522         0.0668         31.70836  -64.12384  2.5763        2.982         6.2946    6.3246    44.079    36.6793     36.6751     26.4708            26.4771             26.4724            26.4787             
InVirTC3     2019-10-13T02:52:35Z    0.039        99.0306   5.695087        5.694721        1024.3387  1024.336   44.001      1.064                 0.0483         0.0755         31.70962  -64.12988  2.5763        2.9837        6.2963    6.3395    44.313    36.6761     36.6728     26.4748            26.4812             26.4756            26.482              
InVirTC3     2019-10-13T02:52:35Z    0.039        99.0307   5.695311        5.694944        1024.3444  1024.3417  44.993      1.15                  0.0478         0.0703         31.70962  -64.1299   2.5754        2.9809        6.2969    6.3292    45.312    36.6778     36.6745     26.4743            26.4807             26.4751            26.4815             
InVirTC3     2019-10-13T02:52:35Z    0.0336       99.1652   5.69467         5.694012        1024.3532  1024.3503  45.006      -1.483                0.0593         0.0682         31.70838  -64.12384  2.5825        2.9847        6.3192    6.3373    45.326    36.6837     36.6796     26.461             26.4674             26.4602            26.4665             
InVirTC3     2019-10-13T02:52:35Z    0.0385       99.0413   5.695733        5.695448        1024.3476  1024.3441  45.984      0.42                  0.0476         0.0681         31.70962  -64.12987  2.5778        2.9731        6.3038    6.2991    46.311    36.6778     36.674      26.4777            26.4841             26.4799            26.4863             
InVirTC3     2019-10-13T02:52:35Z    0.0326       99.1879   5.694463        5.693593        1024.3598  1024.3599  46.005      -1.109                0.0541         0.0682         31.70838  -64.12385  2.5776        2.9895        6.2978    6.3563    46.332    36.6852     36.683      26.4569            26.4633             26.4517            26.4581             
InVirTC3     2019-10-13T02:52:35Z    0.0388       99.0348   5.695557        5.695224        1024.3539  1024.351   46.981      0.858                 0.0472         0.0609         31.70962  -64.12984  2.5763        2.9725        6.2972    6.3098    47.315    36.679      36.6756     26.4743            26.4806             26.4755            26.4818             
InVirTC3     2019-10-13T02:52:35Z    0.0327       99.1853   5.694301        5.693784        1024.3661  1024.3653  47.165      -0.711                0.0536         0.0661         31.70839  -64.12384  2.5855        2.9995        6.3143    6.3609    47.501    36.6857     36.6837     26.4543            26.4607             26.4521            26.4585             
InVirTC3     2019-10-13T02:52:35Z    0.0327       99.1853   5.692671        5.691883        1024.3816  1024.3748  47.977      -1.601                0.055          0.0755         31.7084   -64.12384  2.5989        3.0168        6.3662    6.4143    48.318    36.6919     36.684      26.4313            26.4376             26.434             26.4403             
InVirTC3     2019-10-13T02:52:35Z    0.0388       99.0345   5.695596        5.695232        1024.363   1024.36    48          1.186                 0.0499         0.0667         31.70962  -64.12984  2.5788        2.9707        6.3106    6.3098    48.341    36.683      36.6795     26.4691            26.4755             26.4703            26.4766             
InVirTC3     2019-10-13T02:52:35Z    0.0327       99.1859   5.691801        5.689418        1024.3871  1024.3944  48.986      -1.362                0.056          0.0817         31.70841  -64.12385  2.6061        3.0249        6.4139    6.4612    49.335    36.6906     36.6909     26.4246            26.4309             26.4025            26.4088             
InVirTC3     2019-10-13T02:52:35Z    0.0385       99.0418   5.687635        5.688005        1024.4416  1024.4328  49.036      1.272                 0.0498         0.0682         31.70962  -64.12984  2.5781        2.9763        6.323     6.33      49.384    36.7273     36.7206     26.3406            26.347              26.3524            26.3587             
InVirTC3     2019-10-13T02:52:35Z    0.0399       99.0078   5.667768        5.671792        1024.5009  1024.4786  50.207      0.42                  0.0522         0.0839         31.70962  -64.12984  2.5996        3.0089        6.4271    6.4524    50.565    36.7245     36.7152     26.1624            26.1686             26.2107            26.217              
InVirTC3     2019-10-13T02:52:35Z    0.0315       99.2157   5.687797        5.687432        1024.4051  1024.3988  50.302      -0.338                0.0549         0.0813         31.70882  -64.12407  2.5955        3.0049        6.3595    6.3925    50.66     36.6911     36.6847     26.3869            26.3932             26.3915            26.3979             
InVirTC3     2019-10-13T02:52:35Z    0.0334       99.1677   5.665485        5.662427        1024.479   1024.4781  50.872      -0.289                0.0561         0.0797         31.70896  -64.12419  2.6347        3.0509        6.5015    6.5298    51.235    36.6972     36.6888     26.1753            26.1816             26.1578            26.1641             
InVirTC3     2019-10-13T02:52:35Z    0.0403       98.9974   5.634703        5.639973        1024.681   1024.6462  50.953      0.344                 0.0515         0.0712         31.70962  -64.1298   2.6137        3.0101        6.4755    6.4472    51.316    36.7961     36.7789     25.7709            25.7771             25.8404            25.8466             
InVirTC3     2019-10-13T02:52:35Z    0.0387       99.0378   5.578407        5.580124        1024.8469  1024.838   51.965      0.594                 0.0566         0.0834         31.70962  -64.12981  2.6195        3.0373        6.5556    6.6214    52.335    36.7971     36.7936     25.2545            25.2605             25.2745            25.2806             
InVirTC3     2019-10-13T02:52:35Z    0.0349       99.132    5.596026        5.590007        1024.6658  1024.6787  52.253      -0.469                0.0633         0.0866         31.70899  -64.12422  2.6842        3.1103        6.7012    6.7477    52.625    36.6812     36.6777     25.5587            25.5649             25.5078            25.5139             
InVirTC3     2019-10-13T02:52:35Z    0.036        99.1041   5.517481        5.495289        1024.946   1025.009   52.92       -0.982                0.0701         0.1001         31.709    -64.12423  2.7285        3.1552        6.9516    6.9895    53.297    36.7294     36.7302     24.7783            24.7842             24.5731            24.579              
InVirTC3     2019-10-13T02:52:35Z    0.0427       98.9384   5.519129        5.521822        1025.0463  1025.0338  52.992      0.747                 0.0563         0.0937         31.7096   -64.12983  2.6571        3.0942        6.823     6.9152    53.369    36.8221     36.8177     24.68              24.6859             24.7101            24.716              
InVirTC3     2019-10-13T02:52:35Z    0.0378       99.0602   5.494144        5.457058        1024.9702  1025.1246  54.034      -0.847                0.0745         0.1042         31.709    -64.12426  2.7268        3.152         6.9586    7.008     54.419    36.6886     36.734      24.613             24.6189             24.2159            24.2217             
InVirTC3     2019-10-13T02:52:35Z    0.0449       98.883    5.440027        5.44219         1025.2819  1025.2752  54.062      0.848                 0.0639         0.0991         31.70961  -64.12979  2.6728        3.1284        6.9207    7.0593    54.447    36.8323     36.8316     23.9398            23.9455             23.9605            23.9663             
InVirTC3     2019-10-13T02:52:35Z    0.046        98.8555   5.420267        5.420878        1025.2996  1025.2974  55.064      0.427                 0.0703         0.1182         31.70962  -64.12977  2.7057        3.168         7.0372    7.1516    55.456    36.7954     36.795      23.8018            23.8075             23.8079            23.8136             
InVirTC3     2019-10-13T02:52:35Z    0.037        99.0805   5.451673        5.451204        1025.1472  1025.1433  55.234      -0.557                0.0755         0.1047         31.70901  -64.12424  2.7308        3.1618        7.0382    7.0605    55.627    36.7363     36.7316     24.1628            24.1686             24.1642            24.17               
InVirTC3     2019-10-13T02:52:35Z    0.0464       98.8453   5.407681        5.405826        1025.3288  1025.3319  55.942      0.33                  0.0694         0.1016         31.70961  -64.12978  2.7251        3.1657        7.0879    7.1145    56.34     36.7872     36.7854     23.6952            23.7008             23.6803            23.6859             
InVirTC3     2019-10-13T02:52:35Z    0.0364       99.0948   5.405311        5.404246        1025.2823  1025.2783  55.983      -1.567                0.0838         0.1195         31.70902  -64.12424  2.7278        3.1555        7.1017    7.1144    56.382    36.7395     36.7333     23.7307            23.7364             23.7284            23.734              
InVirTC3     2019-10-13T02:52:35Z    0.044        98.9056   5.391898        5.391571        1025.3629  1025.3617  57.033      0.428                 0.0787         0.1029         31.70962  -64.12977  2.7284        3.1721        7.1065    7.1639    57.44     36.7747     36.7727     23.564             23.5697             23.5634            23.569              
InVirTC3     2019-10-13T02:52:35Z    0.0359       99.1079   5.400107        5.392099        1025.2878  1025.3138  57.04       -1.457                0.0862         0.1201         31.70902  -64.12426  2.7218        3.1495        7.0866    7.0917    57.447    36.7274     36.731      23.6968            23.7025             23.6184            23.6241             
InVirTC3     2019-10-13T02:52:35Z    0.0432       98.9259   5.384253        5.3856          1025.3859  1025.381   57.918      0.408                 0.0797         0.1027         31.70962  -64.12972  2.7355        3.1769        7.1462    7.186     58.331    36.773      36.7719     23.495             23.5006             23.5088            23.5145             
InVirTC3     2019-10-13T02:52:35Z    0.0358       99.1099   5.389952        5.377651        1025.3231  1025.331   57.977      -1.233                0.0859         0.1268         31.70902  -64.12427  2.7174        3.1427        7.083     7.0701    58.391    36.7303     36.7073     23.599             23.6047             23.5129            23.5186             
InVirTC3     2019-10-13T02:52:35Z    0.0435       98.9177   5.373071        5.373316        1025.4385  1025.4347  58.995      0.835                 0.0778         0.1138         31.70962  -64.12972  2.7362        3.1714        7.1507    7.1688    59.417    36.7886     36.7858     23.3725            23.3781             23.3781            23.3837             
InVirTC3     2019-10-13T02:52:35Z    0.0349       99.1301   5.377654        5.362663        1025.34    1025.392   59.005      -0.902                0.0863         0.13           31.70902  -64.12428  2.7126        3.1408        7.0799    7.0944    59.427    36.7112     36.7212     23.5078            23.5135             23.3569            23.3625             
InVirTC3     2019-10-13T02:52:35Z    0.0441       98.9049   5.356784        5.356951        1025.4846  1025.4828  60.018      1.222                 0.078          0.1221         31.70962  -64.12974  2.7363        3.1699        7.1734    7.1813    60.446    36.7861     36.7849     23.2243            23.2298             23.2273            23.2329             
InVirTC3     2019-10-13T02:52:35Z    0.0348       99.1327   5.356598        5.34556         1025.4001  1025.4589  60.063      -0.526                0.0908         0.1341         31.70902  -64.12428  2.7072        3.1496        7.0899    7.1667    60.491    36.7093     36.7353     23.3145            23.3201             23.1811            23.1867             
InVirTC3     2019-10-13T02:52:35Z    0.0433       98.9237   5.350558        5.356265        1025.4929  1025.4697  60.925      0.739                 0.0792         0.1399         31.70962  -64.12974  2.7251        3.1639        7.1379    7.1726    61.36     36.7747     36.7677     23.1799            23.1855             23.2411            23.2467             
InVirTC3     2019-10-13T02:52:35Z    0.0348       99.1333   5.336185        5.346413        1025.4874  1025.4516  61.045      -0.455                0.085          0.1309         31.70903  -64.12429  2.6971        3.1388        7.0704    7.134     61.481    36.7342     36.7269     23.0951            23.1006             23.1986            23.2042             
InVirTC3     2019-10-13T02:52:35Z    0.0358       99.1091   5.323738        5.329679        1025.5279  1025.5075  61.909      -1.192                0.084          0.1391         31.70904  -64.12428  2.6918        3.1221        7.07      7.105     62.352    36.7368     36.7329     22.9762            22.9817             23.0359            23.0415             
InVirTC3     2019-10-13T02:52:35Z    0.0432       98.9249   5.336106        5.336795        1025.5446  1025.5402  62.002      1.036                 0.073          0.1268         31.70962  -64.12969  2.7188        3.1561        7.1304    7.1597    62.445    36.7817     36.7794     23.0372            23.0428             23.0463            23.0518             
InVirTC3     2019-10-13T02:52:35Z    0.035        99.1277   5.311064        5.311984        1025.5614  1025.5325  62.971      -1.465                0.0879         0.1615         31.70904  -64.12428  2.6897        3.1176        7.094     7.1212    63.421    36.7318     36.708      22.864             22.8695             22.9009            22.9064             
InVirTC3     2019-10-13T02:52:35Z    0.0424       98.9466   5.322471        5.322839        1025.5716  1025.5696  62.977      1.256                 0.0796         0.1341         31.70962  -64.12972  2.7112        3.1398        7.1059    7.1098    63.427    36.7689     36.768      22.9256            22.9311             22.9302            22.9357             
InVirTC3     2019-10-13T02:52:35Z    0.0421       98.9538   5.311825        5.312095        1025.6031  1025.6005  63.997      1.252                 0.0876         0.1391         31.70962  -64.12974  2.6968        3.1288        7.0568    7.0858    64.455    36.7673     36.7656     22.8283            22.8338             22.8329            22.8384             
InVirTC3     2019-10-13T02:52:35Z    0.0341       99.1512   5.303262        5.298492        1025.5698  1025.5752  64.02       -1.41                 0.0939         0.1595         31.70904  -64.12428  2.6867        3.1108        7.0978    7.1039    64.477    36.7162     36.7094     22.8097            22.8152             22.7734            22.7789             
InVirTC3     2019-10-13T02:52:35Z    0.0421       98.9522   5.300048        5.306529        1025.6231  1025.6072  64.788      0.496                 0.0901         0.1425         31.70961  -64.1297   2.6968        3.1282        7.1027    7.1296    65.251    36.7535     36.7549     22.7351            22.7405             22.7936            22.799              
InVirTC3     2019-10-13T02:52:35Z    0.0342       99.1498   5.296435        5.291054        1025.593   1025.6016  65.072      -1.224                0.0958         0.1561         31.70904  -64.12429  2.6801        3.1026        7.0762    7.08      65.537    36.7163     36.711      22.7457            22.7512             22.7019            22.7074             
InVirTC3     2019-10-13T02:52:35Z    0.0422       98.9512   5.287255        5.287507        1025.6629  1025.6614  65.971      0.867                 0.0861         0.1326         31.70962  -64.12969  2.6923        3.1173        7.0891    7.1024    66.443    36.7537     36.753      22.6155            22.621              22.6187            22.6242             
InVirTC3     2019-10-13T02:52:35Z    0.0347       99.1359   5.290932        5.279956        1025.6056  1025.6248  66.042      -0.922                0.0982         0.1826         31.70904  -64.1243   2.6725        3.1003        7.0522    7.0926    66.514    36.7104     36.701      22.7012            22.7066             22.6101            22.6155             
InVirTC3     2019-10-13T02:52:35Z    0.0421       98.9526   5.280262        5.280137        1025.6777  1025.6778  67.021      1.148                 0.087          0.1464         31.70961  -64.1297   2.6886        3.1121        7.0784    7.0966    67.501    36.7459     36.7457     22.5594            22.5648             22.5585            22.5639             
InVirTC3     2019-10-13T02:52:35Z    0.0344       99.1446   5.276631        5.264731        1025.6436  1025.6844  67.066      -0.51                 0.0936         0.1766         31.70904  -64.12434  2.6676        3.1009        7.0582    7.1208    67.546    36.7059     36.714      22.573             22.5784             22.4526            22.458              
InVirTC3     2019-10-13T02:52:35Z    0.0342       99.1502   5.261444        5.264065        1025.7011  1025.6935  68.049      -0.545                0.1001         0.1707         31.70906  -64.12434  2.6566        3.091         7.0432    7.1043    68.536    36.7172     36.7166     22.4178            22.4231             22.4429            22.4483             
InVirTC3     2019-10-13T02:52:35Z    0.0407       98.9879   5.276182        5.276614        1025.6903  1025.6881  68.128      0.466                 0.0957         0.1626         31.70961  -64.12967  2.6886        3.1216        7.1106    7.1572    68.616    36.7429     36.7419     22.5245            22.5299             22.5296            22.535              
InVirTC3     2019-10-13T02:52:35Z    0.0405       98.9935   5.268502        5.268672        1025.7163  1025.7135  68.937      0.36                  0.1047         0.1548         31.70962  -64.12965  2.6859        3.1127        7.1074    7.1286    69.431    36.7446     36.7424     22.4507            22.4561             22.4548            22.4602             
InVirTC3     2019-10-13T02:52:35Z    0.0337       99.1619   5.253918        5.256481        1025.7278  1025.7026  68.99       -0.933                0.1075         0.1889         31.70906  -64.12434  2.6433        3.0757        7.0016    7.076     69.484    36.7194     36.7027     22.3447            22.3501             22.3884            22.3938             
InVirTC3     2019-10-13T02:52:35Z    0.0404       98.996    5.2596          5.260083        1025.7498  1025.7461  69.993      0.711                 0.0967         0.1389         31.70962  -64.12966  2.6825        3.1094        7.1054    7.1348    70.495    36.7491     36.7469     22.362             22.3674             22.3691            22.3745             
InVirTC3     2019-10-13T02:52:35Z    0.0329       99.1796   5.248178        5.253339        1025.7527  1025.7248  70.028      -1.061                0.108          0.1711         31.70906  -64.12434  2.6377        3.0621        6.9992    7.0417    70.53     36.7239     36.7111     22.2855            22.2908             22.3487            22.3541             
InVirTC3     2019-10-13T02:52:35Z    0.0335       99.1664   5.243635        5.245237        1025.7732  1025.7543  71.005      -1.247                0.1089         0.1771         31.70906  -64.12432  2.6328        3.0527        6.9978    7.024     71.514    36.7276     36.7143     22.2384            22.2437             22.269             22.2744             
InVirTC3     2019-10-13T02:52:35Z    0.0394       99.019    5.249697        5.250792        1025.7795  1025.7728  71.197      0.472                 0.1005         0.16           31.70962  -64.12964  2.6705        3.0982        7.0707    7.1094    71.708    36.7472     36.7438     22.2716            22.2769             22.2858            22.2911             
InVirTC3     2019-10-13T02:52:35Z    0.0411       98.9791   5.246915        5.247448        1025.7958  1025.7925  71.933      0.281                 0.1088         0.186          31.70962  -64.12964  2.6604        3.0915        7.0484    7.1027    72.449    36.7524     36.7506     22.2393            22.2446             22.2463            22.2516             
InVirTC3     2019-10-13T02:52:35Z    0.0327       99.1865   5.242068        5.239508        1025.7754  1025.7807  71.99       -1.369                0.1154         0.1889         31.70906  -64.12434  2.6251        3.0426        6.9702    6.9946    72.506    36.7218     36.7204     22.2302            22.2355             22.2079            22.2132             
InVirTC3     2019-10-13T02:52:35Z    0.0326       99.1879   5.23482         5.231026        1025.7961  1025.7967  72.981      -1.303                0.1174         0.2025         31.70907  -64.12435  2.6175        3.0362        6.95      6.9813    73.504    36.719      36.7104     22.1655            22.1708             22.1403            22.1456             
InVirTC3     2019-10-13T02:52:35Z    0.0392       99.0259   5.23763         5.23768         1025.8271  1025.826   72.989      0.751                 0.1114         0.1677         31.70962  -64.12963  2.6572        3.0857        7.0522    7.0991    73.512    36.7541     36.7533     22.1503            22.1556             22.1517            22.157              
InVirTC3     2019-10-13T02:52:35Z    0.0316       99.2139   5.225959        5.219271        1025.8276  1025.8459  74.001      -1.024                0.1188         0.222          31.70908  -64.12436  2.6121        3.0322        6.9388    6.9862    74.531    36.7221     36.7227     22.0787            22.084              22.0156            22.0209             
InVirTC3     2019-10-13T02:52:35Z    0.0387       99.0382   5.222629        5.223798        1025.8692  1025.8643  74.079      0.635                 0.1116         0.1778         31.70962  -64.12962  2.6507        3.0681        7.0451    7.0464    74.611    36.7518     36.7502     22.0126            22.0179             22.0255            22.0307             
InVirTC3     2019-10-13T02:52:35Z    0.0374       99.0707   5.211323        5.211521        1025.8995  1025.8981  74.92       0.32                  0.1219         0.1647         31.70962  -64.12961  2.6443        3.074         7.0399    7.1143    75.457    36.7488     36.748      21.9104            21.9157             21.9132            21.9185             
InVirTC3     2019-10-13T02:52:35Z    0.0307       99.2362   5.217256        5.20677         1025.8554  1025.8876  75.02       -0.641                0.1188         0.2095         31.70908  -64.12436  2.607         3.0293        6.928     7.001     75.558    36.7224     36.7264     21.9968            22.0021             21.8941            21.8994             
InVirTC3     2019-10-13T02:52:35Z    0.0371       99.0779   5.208199        5.208068        1025.917   1025.9155  76.025      0.537                 0.1177         0.1767         31.70962  -64.12959  2.6398        3.0713        7.0332    7.0927    76.571    36.7527     36.751      21.8762            21.8814             21.877             21.8822             
InVirTC3     2019-10-13T02:52:35Z    0.0301       99.2495   5.199409        5.204994        1025.9119  1025.9042  76.087      -0.499                0.116          0.1891         31.70908  -64.12436  2.6013        3.02          6.9303    6.9796    76.634    36.7266     36.733      21.8248            21.83               21.8694            21.8747             
InVirTC3     2019-10-13T02:52:35Z    0.0352       99.1252   5.194589        5.195055        1025.9586  1025.9552  76.994      0.571                 0.1251         0.1957         31.70962  -64.1296   2.6337        3.0597        7.0244    7.0652    77.547    36.754      36.752      21.7472            21.7524             21.7538            21.7591             
InVirTC3     2019-10-13T02:52:35Z    0.0311       99.2257   5.198017        5.204454        1025.9315  1025.9075  76.995      -1.015                0.1217         0.208          31.70908  -64.12436  2.5956        3.0062        6.9343    6.9576    77.548    36.7375     36.731      21.7986            21.8038             21.8663            21.8715             
InVirTC3     2019-10-13T02:52:35Z    0.0295       99.2659   5.188907        5.194112        1025.9487  1025.9213  77.975      -1.313                0.1292         0.2217         31.70908  -64.12436  2.5861        2.9945        6.9222    6.937     78.535    36.7271     36.7146     21.7251            21.7304             21.7885            21.7937             
InVirTC3     2019-10-13T02:52:35Z    0.0348       99.1335   5.191581        5.191295        1025.972   1025.9711  78.036      0.547                 0.1272         0.2036         31.70962  -64.12958  2.6264        3.0428        7.0031    7.0174    78.597    36.7548     36.7533     21.7177            21.7229             21.7168            21.722              
InVirTC3     2019-10-13T02:52:35Z    0.0344       99.1443   5.184733        5.184972        1025.9964  1025.9952  78.965      0.363                 0.1319         0.1921         31.70962  -64.12957  2.6117        3.0281        6.9549    6.9916    79.532    36.7569     36.7563     21.6509            21.6561             21.6538            21.659              
InVirTC3     2019-10-13T02:52:35Z    0.029        99.2782   5.184938        5.181366        1025.9633  1025.9569  78.99       -1.362                0.1288         0.2436         31.70908  -64.12437  2.5772        2.9807        6.8896    6.8965    79.558    36.7269     36.7123     21.6879            21.6931             21.6716            21.6768             
InVirTC3     2019-10-13T02:52:35Z    0.0336       99.1647   5.175813        5.175913        1026.0194  1026.017   79.957      0.477                 0.1323         0.2027         31.70962  -64.12956  2.5956        3.0129        6.9094    6.958     80.532    36.7524     36.7504     21.5723            21.5775             21.5756            21.5808             
InVirTC3     2019-10-13T02:52:35Z    0.0298       99.2567   5.179105        5.17245         1025.9725  1025.9864  80.005      -1.215                0.1326         0.247          31.70908  -64.12438  2.567         2.9708        6.8467    6.8774    80.58     36.7171     36.7138     21.6445            21.6497             21.5861            21.5912             
InVirTC3     2019-10-13T02:52:35Z    0.0337       99.1611   5.166687        5.166584        1026.0487  1026.0469  81          0.702                 0.1366         0.2074         31.70962  -64.12954  2.5902        3.0016        6.9152    6.9365    81.582    36.7531     36.7512     21.4857            21.4909             21.487             21.4921             
InVirTC3     2019-10-13T02:52:35Z    0.0274       99.3179   5.170017        5.164258        1025.9942  1026.0106  81.009      -0.926                0.1367         0.2367         31.70908  -64.12438  2.5607        2.9673        6.8328    6.88      81.591    36.711      36.7122     21.5661            21.5713             21.5109            21.516              
InVirTC3     2019-10-13T02:52:35Z    0.0274       99.3169   5.160236        5.158056        1026.0265  1026.0442  82.041      -0.601                0.1379         0.2493         31.70908  -64.12441  2.5577        2.9607        6.8383    6.8662    82.631    36.7128     36.7239     21.472             21.4771             21.4387            21.4438             
InVirTC3     2019-10-13T02:52:35Z    0.0325       99.1916   5.161453        5.16126         1026.063   1026.0627  82.071      0.725                 0.1392         0.2168         31.70962  -64.12954  2.5807        2.9941        6.8831    6.9254    82.662    36.7493     36.7485     21.4408            21.4459             21.4399            21.445              
InVirTC3     2019-10-13T02:52:35Z    0.0323       99.1961   5.16091         5.161189        1026.065   1026.0633  82.775      0.234                 0.1406         0.2387         31.70962  -64.12953  2.5788        2.9895        6.8948    6.9253    83.371    36.7468     36.746      21.4382            21.4434             21.4419            21.447              
InVirTC3     2019-10-13T02:52:35Z    0.0274       99.3168   5.155024        5.158742        1026.0681  1026.0501  83.022      -0.645                0.1435         0.2628         31.7091   -64.1244   2.5516        2.9512        6.8405    6.8385    83.62     36.7345     36.727      21.3974            21.4025             21.4411            21.4462             
InVirTC3     2019-10-13T02:52:35Z    0.0274       99.3179   5.153982        5.155135        1026.0721  1026.0621  83.968      -1.044                0.1508         0.2733         31.7091   -64.12438  2.5391        2.9436        6.8084    6.8429    84.572    36.7318     36.7254     21.3905            21.3956             21.4087            21.4138             
InVirTC3     2019-10-13T02:52:35Z    0.0317       99.2118   5.158614        5.158401        1026.0778  1026.0771  84.009      0.657                 0.1419         0.2367         31.70962  -64.12953  2.5788        2.9891        6.9004    6.934     84.614    36.7481     36.7469     21.4148            21.4199             21.4142            21.4193             
InVirTC3     2019-10-13T02:52:35Z    0.0284       99.2919   5.148327        5.143883        1026.0831  1026.0842  85.009      -1.248                0.1503         0.295          31.7091   -64.1244   2.5275        2.9314        6.7853    6.826     85.621    36.724      36.7144     21.3461            21.3512             21.3157            21.3208             
InVirTC3     2019-10-13T02:52:35Z    0.031        99.2277   5.150584        5.150485        1026.1041  1026.1029  85.061      0.905                 0.1447         0.2344         31.70962  -64.1295   2.577         2.9873        6.9036    6.9371    85.674    36.7486     36.7473     21.3385            21.3436             21.3392            21.3443             
InVirTC3     2019-10-13T02:52:35Z    0.0306       99.2383   5.144675        5.145621        1026.1162  1026.1124  85.939      0.389                 0.1476         0.2421         31.70962  -64.12952  2.5697        2.9788        6.8775    6.9095    86.558    36.7419     36.7408     21.2906            21.2957             21.3009            21.306              
InVirTC3     2019-10-13T02:52:35Z    0.0274       99.3179   5.140843        5.137839        1026.0996  1026.1001  86          -1.252                0.1576         0.3246         31.7091   -64.1244   2.517         2.919         6.7437    6.7886    86.619    36.7172     36.7105     21.2835            21.2886             21.2632            21.2683             
InVirTC3     2019-10-13T02:52:35Z    0.0263       99.3439   5.135144        5.133205        1026.1153  1026.1326  86.985      -1.131                0.1663         0.3578         31.7091   -64.12441  2.5059        2.9073        6.6893    6.7525    87.612    36.714      36.7253     21.2334            21.2385             21.2021            21.2072             
InVirTC3     2019-10-13T02:52:35Z    0.03         99.2526   5.140566        5.140396        1026.1338  1026.1328  87.037      0.48                  0.1491         0.2518         31.70962  -64.12949  2.5647        2.9719        6.8725    6.9002    87.664    36.7438     36.7425     21.2495            21.2546             21.2495            21.2546             
InVirTC3     2019-10-13T02:52:35Z    0.0298       99.2572   5.135909        5.135672        1026.1521  1026.1516  87.971      0.501                 0.1552         0.2672         31.70962  -64.12948  2.5504        2.9586        6.8103    6.8553    88.606    36.7457     36.7446     21.2033            21.2084             21.2023            21.2074             
InVirTC3     2019-10-13T02:52:35Z    0.0254       99.3674   5.130486        5.126683        1026.1358  1026.1415  88.012      -0.956                0.1759         0.4711         31.7091   -64.12444  2.5001        2.8993        6.6699    6.7267    88.647    36.7174     36.7136     21.1853            21.1904             21.1541            21.1592             
InVirTC3     2019-10-13T02:52:35Z    0.0312       99.2223   5.135284        5.135086        1026.1669  1026.1662  88.975      0.638                 0.1744         0.3189         31.70962  -64.12948  2.5382        2.945         6.769     6.8133    89.617    36.7536     36.7525     21.1877            21.1928             21.1872            21.1923             
InVirTC3     2019-10-13T02:52:35Z    0.0264       99.3418   5.119782        5.116425        1026.1679  1026.1815  89.025      -0.754                0.1952         0.4769         31.7091   -64.12446  2.5014        2.8929        6.7049    6.7177    89.667    36.7172     36.7218     21.0847            21.0898             21.0479            21.0529             
InVirTC3     2019-10-13T02:52:35Z    0.0311       99.2269   5.113445        5.113024        1026.2081  1026.2037  90.065      -0.564                0.2072         0.3983         31.70911  -64.12444  2.4978        2.8903        6.7121    6.7356    90.715    36.7349     36.7298     21.0043            21.0093             21.0062            21.0113             
InVirTC3     2019-10-13T02:52:35Z    0.0327       99.1875   5.129354        5.128668        1026.1839  1026.1831  90.14       0.593                 0.2036         0.3823         31.70962  -64.12948  2.5281        2.9279        6.7541    6.7756    90.79     36.7503     36.7479     21.1355            21.1406             21.1319            21.137              
InVirTC3     2019-10-13T02:52:35Z    0.0329       99.1811   5.125224        5.124672        1026.1959  1026.1967  90.831      0.186                 0.2015         0.4011         31.70962  -64.12945  2.5192        2.9214        6.7398    6.7819    91.487    36.7486     36.748      21.0985            21.1035             21.094             21.0991             
InVirTC3     2019-10-13T02:52:35Z    0.0326       99.1885   5.110569        5.109904        1026.2126  1026.2109  90.979      -0.938                0.2031         0.4588         31.70912  -64.12444  2.4858        2.8767        6.678     6.7023    91.636    36.7284     36.7252     20.9844            20.9894             20.9819            20.9869             
InVirTC3     2019-10-13T02:52:35Z    0.0303       99.2446   5.106431        5.105454        1026.2259  1026.2181  91.965      -1.508                0.2106         0.4875         31.70912  -64.12444  2.4753        2.861         6.6404    6.6395    92.629    36.7268     36.7171     20.9471            20.9521             20.9491            20.9541             
InVirTC3     2019-10-13T02:52:35Z    0.0338       99.1593   5.117759        5.117566        1026.2197  1026.2189  91.999      0.705                 0.1989         0.3793         31.70962  -64.12944  2.5185        2.9197        6.7525    6.7862    92.663    36.7479     36.7468     21.0288            21.0338             21.0283            21.0334             
InVirTC3     2019-10-13T02:52:35Z    0.0296       99.2643   5.104014        5.100292        1026.2278  1026.2367  93.005      -1.474                0.2148         0.4881         31.70912  -64.12445  2.4675        2.856         6.6075    6.6239    93.677    36.7183     36.7177     20.9337            20.9387             20.8994            20.9044             
InVirTC3     2019-10-13T02:52:35Z    0.0338       99.16     5.10746         5.107329        1026.2528  1026.2516  93.014      0.842                 0.2019         0.3756         31.70962  -64.12946  2.5143        2.9127        6.7449    6.7718    93.686    36.7497     36.7483     20.9297            20.9347             20.9301            20.9351             
InVirTC3     2019-10-13T02:52:35Z    0.0317       99.212    5.099553        5.095295        1026.2479  1026.2526  93.99       -1.196                0.2146         0.4931         31.70912  -64.12446  2.4645        2.8549        6.6026    6.6373    94.669    36.7222     36.7164     20.8868            20.8919             20.8536            20.8586             
InVirTC3     2019-10-13T02:52:35Z    0.0344       99.1438   5.099803        5.099569        1026.2689  1026.2688  94.056      0.939                 0.2086         0.415          31.70962  -64.12946  2.5095        2.9032        6.7296    6.7394    94.735    36.742      36.7413     20.8663            20.8713             20.8648            20.8699             
InVirTC3     2019-10-13T02:52:35Z    0.0352       99.1243   5.098089        5.097495        1026.2721  1026.2727  94.892      0.207                 0.2131         0.4787         31.70962  -64.12943  2.4857        2.8769        6.6511    6.6737    95.578    36.7374     36.7365     20.8552            20.8602             20.8506            20.8556             
InVirTC3     2019-10-13T02:52:35Z    0.0317       99.2125   5.094278        5.089593        1026.2605  1026.2715  95.004      -0.814                0.2126         0.5021         31.70912  -64.12447  2.4626        2.8569        6.603     6.6628    95.691    36.7171     36.7161     20.8428            20.8478             20.7999            20.8049             
InVirTC3     2019-10-13T02:52:35Z    0.0348       99.1345   5.090685        5.090413        1026.2945  1026.2943  95.977      0.71                  0.2126         0.4745         31.70962  -64.12942  2.4806        2.8681        6.6591    6.6679    96.671    36.7359     36.7351     20.7868            20.7918             20.7853            20.7903             
InVirTC3     2019-10-13T02:52:35Z    0.0317       99.2103   5.091067        5.088878        1026.2812  1026.2856  96.067      -0.461                0.2114         0.4671         31.70912  -64.12447  2.4599        2.852         6.5988    6.6447    96.762    36.7241     36.723      20.804             20.809              20.7847            20.7897             
InVirTC3     2019-10-13T02:52:35Z    0.0321       99.2019   5.08674         5.087507        1026.2911  1026.2872  96.941      -0.817                0.2088         0.4539         31.70914  -64.12446  2.4542        2.8424        6.5887    6.6154    97.642    36.7194     36.7176     20.7685            20.7735             20.7777            20.7827             
InVirTC3     2019-10-13T02:52:35Z    0.0337       99.1619   5.08839         5.088132        1026.3034  1026.3032  96.986      1.132                 0.2137         0.4491         31.70962  -64.12942  2.477         2.867         6.6376    6.6698    97.687    36.7345     36.7338     20.7665            20.7715             20.7649            20.7699             
InVirTC3     2019-10-13T02:52:35Z    0.0309       99.2309   5.083579        5.083482        1026.3016  1026.2958  97.959      -1.388                0.2112         0.5151         31.70914  -64.12446  2.4484        2.8369        6.5734    6.6047    98.667    36.7173     36.7117     20.7408            20.7457             20.7463            20.7512             
InVirTC3     2019-10-13T02:52:35Z    0.0338       99.1585   5.086361        5.086065        1026.3129  1026.3128  98.043      1.322                 0.2124         0.4903         31.70961  -64.12939  2.4744        2.8673        6.6312    6.6768    98.752    36.7341     36.7333     20.7475            20.7524             20.7456            20.7506             
InVirTC3     2019-10-13T02:52:35Z    0.0306       99.2384   5.080595        5.077458        1026.314   1026.3156  98.995      -1.343                0.2099         0.5043         31.70914  -64.12448  2.4441        2.8335        6.5664    6.6063    99.711    36.7175     36.7114     20.7121            20.7171             20.6896            20.6946             
InVirTC3     2019-10-13T02:52:35Z    0.0332       99.1739   5.08362         5.083151        1026.322   1026.3221  99.207      0.462                 0.2168         0.4848         31.70962  -64.12938  2.4643        2.8594        6.6038    6.6534    99.925    36.7311     36.7301     20.7246            20.7296             20.7214            20.7264             
InVirTC3     2019-10-13T02:52:35Z    0.0325       99.1922   5.082337        5.082007        1026.3267  1026.3266  99.783      0.17                  0.2179         0.4407         31.70962  -64.12937  2.4627        2.8562        6.6123    6.6528    100.506   36.7301     36.7292     20.7135            20.7185             20.7114            20.7164             
InVirTC3     2019-10-13T02:52:35Z    0.0306       99.2384   5.077921        5.073641        1026.3193  1026.3249  100.02      -1.077                0.2131         0.4784         31.70914  -64.12449  2.442         2.8313        6.5694    6.6071    100.744   36.7116     36.7067     20.6932            20.6982             20.6587            20.6636             
InVirTC3     2019-10-13T02:52:35Z    0.031        99.2289   5.081534        5.081257        1026.3348  1026.3346  100.962     0.652                 0.2152         0.4635         31.70962  -64.12936  2.4637        2.8519        6.6209    6.6356    101.693   36.7307     36.7299     20.7047            20.7097             20.703             20.708              
InVirTC3     2019-10-13T02:52:35Z    0.0304       99.2425   5.073799        5.068516        1026.3332  1026.349   101.049     -0.757                0.2105         0.5191         31.70914  -64.1245   2.4377        2.8267        6.5592    6.6036    101.781   36.7104     36.7125     20.6554            20.6603             20.6032            20.6082             
InVirTC3     2019-10-13T02:52:35Z    0.0306       99.2374   5.079069        5.078809        1026.3465  1026.3462  102.017     0.988                 0.216          0.4198         31.70962  -64.12934  2.4616        2.8478        6.6086    6.6234    102.756   36.7314     36.7304     20.6804            20.6853             20.679             20.684              
InVirTC3     2019-10-13T02:52:35Z    0.0307       99.2354   5.070295        5.069945        1026.3493  1026.35    102.074     -0.614                0.2111         0.5488         31.70914  -64.12448  2.4295        2.8196        6.527     6.5847    102.814   36.7128     36.7126     20.6193            20.6242             20.6162            20.6211             
InVirTC3     2019-10-13T02:52:35Z    0.0316       99.2139   5.06571         5.067348        1026.3634  1026.355   102.989     -0.801                0.2128         0.5142         31.70914  -64.12448  2.4225        2.8077        6.5079    6.5449    103.735   36.7111     36.7072     20.5776            20.5826             20.5976            20.6025             
InVirTC3     2019-10-13T02:52:35Z    0.0308       99.2329   5.075247        5.074954        1026.3562  1026.356   103.132     0.793                 0.2103         0.4482         31.70962  -64.12935  2.4588        2.8481        6.6014    6.6375    103.879   36.7266     36.7257     20.6495            20.6545             20.6478            20.6527             
InVirTC3     2019-10-13T02:52:35Z    0.0322       99.197    5.072792        5.072361        1026.3649  1026.365   103.94      0.28                  0.2042         0.3821         31.70962  -64.12934  2.4615        2.8517        6.6287    6.6591    104.694   36.7254     36.7245     20.6274            20.6323             20.6244            20.6293             
InVirTC3     2019-10-13T02:52:35Z    0.0306       99.2381   5.060647        5.062655        1026.3829  1026.3734  104         -0.896                0.2056         0.4681         31.70914  -64.1245   2.4185        2.8022        6.5102    6.5428    104.753   36.713      36.7089     20.5274            20.5323             20.551             20.5559             
InVirTC3     2019-10-13T02:52:35Z    0.0298       99.2582   5.065152        5.064587        1026.3862  1026.3867  104.96      0.495                 0.2007         0.3899         31.70962  -64.12931  2.459         2.8489        6.6154    6.649     105.721   36.7228     36.7219     20.5581            20.563              20.5538            20.5587             
InVirTC3     2019-10-13T02:52:35Z    0.0327       99.1869   5.058574        5.061152        1026.3911  1026.3828  104.984     -1.259                0.1957         0.4874         31.70916  -64.12451  2.4126        2.794         6.4995    6.5222    105.746   36.7115     36.71       20.5091            20.5141             20.5351            20.5401             
InVirTC3     2019-10-13T02:52:35Z    0.0339       99.1567   5.056681        5.055587        1026.3954  1026.3928  105.975     -1.51                 0.1918         0.4623         31.70915  -64.12452  2.4043        2.7874        6.4636    6.5041    106.743   36.707      36.7019     20.4961            20.5011             20.4916            20.4965             
InVirTC3     2019-10-13T02:52:35Z    0.0302       99.2472   5.060693        5.060387        1026.3995  1026.3993  106.045     0.652                 0.1985         0.421          31.70962  -64.1293   2.4563        2.8481        6.6126    6.657     106.814   36.72       36.7191     20.5189            20.5238             20.517             20.5219             
InVirTC3     2019-10-13T02:52:35Z    0.0311       99.226    5.05999         5.058817        1026.4037  1026.4056  106.915     0.296                 0.204          0.4324         31.70962  -64.1293   2.4529        2.8433        6.604     6.641     107.69    36.7186     36.7176     20.5135            20.5184             20.5036            20.5085             
InVirTC3     2019-10-13T02:52:35Z    0.0326       99.1879   5.05316         5.049348        1026.4088  1026.4131  107.02      -1.445                0.1868         0.4491         31.70914  -64.1245   2.3987        2.7819        6.4409    6.4812    107.796   36.7067     36.7015     20.4629            20.4678             20.4329            20.4378             
InVirTC3     2019-10-13T02:52:35Z    0.0305       99.2388   5.054663        5.05437         1026.425   1026.4248  107.952     0.542                 0.1995         0.4382         31.70962  -64.1293   2.4517        2.84          6.6126    6.6397    108.735   36.7214     36.7206     20.4596            20.4646             20.4579            20.4628             
InVirTC3     2019-10-13T02:52:35Z    0.0311       99.226    5.049054        5.044655        1026.4209  1026.429   108.025     -1.198                0.1813         0.4345         31.70914  -64.12452  2.3959        2.778         6.4298    6.4682    108.809   36.7039     36.701      20.4269            20.4318             20.3888            20.3937             
InVirTC3     2019-10-13T02:52:35Z    0.0314       99.2182   5.051916        5.051625        1026.4361  1026.436   108.986     0.959                 0.1989         0.4021         31.70962  -64.1293   2.4452        2.835         6.5805    6.6283    109.777   36.7209     36.7201     20.4339            20.4388             20.4321            20.437              
InVirTC3     2019-10-13T02:52:35Z    0.0296       99.263    5.044218        5.040814        1026.4367  1026.4457  109.027     -0.812                0.1809         0.4198         31.70915  -64.12453  2.3938        2.7776        6.4263    6.4808    109.818   36.7029     36.7033     20.3821            20.3869             20.3495            20.3544             
InVirTC3     2019-10-13T02:52:35Z    0.0323       99.1955   5.049943        5.049627        1026.4459  1026.4456  110.075     0.818                 0.1954         0.4362         31.70961  -64.1293   2.4364        2.8207        6.545     6.5682    110.875   36.7207     36.7198     20.4151            20.42               20.4132            20.4181             
InVirTC3     2019-10-13T02:52:35Z    0.0292       99.2731   5.037737        5.04169         1026.4584  1026.4562  110.097     -0.377                0.1735         0.3997         31.70916  -64.12455  2.3939        2.78          6.4494    6.5087    110.897   36.7033     36.7107     20.3201            20.325              20.3489            20.3537             
InVirTC3     2019-10-13T02:52:35Z    0.0288       99.2818   5.036695        5.039453        1026.4707  1026.4596  110.919     -0.621                0.1628         0.4455         31.70916  -64.12453  2.3861        2.7663        6.4345    6.4768    111.725   36.7089     36.7051     20.3035            20.3084             20.3338            20.3387             
InVirTC3     2019-10-13T02:52:35Z    0.0317       99.2103   5.048339        5.048236        1026.453   1026.4522  110.97      0.377                 0.1975         0.4139         31.70962  -64.12927  2.4219        2.8025        6.4982    6.5215    111.776   36.7198     36.7189     20.4006            20.4055             20.4008            20.4057             
InVirTC3     2019-10-13T02:52:35Z    0.0315       99.2165   5.045966        5.045939        1026.4633  1026.4623  111.91      0.281                 0.1905         0.3874         31.70962  -64.12927  2.416         2.793         6.499     6.5151    112.724   36.7198     36.7189     20.3778            20.3827             20.3787            20.3836             
InVirTC3     2019-10-13T02:52:35Z    0.0278       99.3073   5.034054        5.036256        1026.48    1026.4655  111.982     -1.033                0.1624         0.4169         31.70916  -64.12454  2.3733        2.7492        6.3779    6.4199    112.796   36.7068     36.6986     20.2805            20.2854             20.3108            20.3156             
InVirTC3     2019-10-13T02:52:35Z    0.0296       99.2634   5.040873        5.040566        1026.4815  1026.4816  112.981     0.513                 0.1799         0.3983         31.70962  -64.12925  2.4106        2.7912        6.4808    6.5192    113.802   36.7202     36.7195     20.3289            20.3338             20.3268            20.3317             
InVirTC3     2019-10-13T02:52:35Z    0.0274       99.3179   5.030071        5.029539        1026.4917  1026.4853  113.002     -1.178                0.1562         0.3826         31.70916  -64.12456  2.369         2.7419        6.3733    6.4064    113.823   36.704      36.6968     20.2458            20.2506             20.249             20.2539             
InVirTC3     2019-10-13T02:52:35Z    0.0252       99.3726   5.028376        5.025649        1026.4985  1026.5019  113.979     -1.286                0.1457         0.3512         31.70916  -64.12456  2.3686        2.7385        6.3834    6.4017    114.808   36.7022     36.6989     20.2314            20.2363             20.2094            20.2143             
InVirTC3     2019-10-13T02:52:35Z    0.0271       99.3259   5.03616         5.035865        1026.4967  1026.4968  114.041     0.832                 0.1758         0.3725         31.70962  -64.12923  2.4084        2.7923        6.4824    6.5313    114.87    36.7188     36.7181     20.2857            20.2906             20.2837            20.2886             
InVirTC3     2019-10-13T02:52:35Z    0.0218       99.4558   5.024506        5.023439        1026.5099  1026.5168  114.965     -1.299                0.1409         0.3393         31.70916  -64.12456  2.3641        2.7334        6.3697    6.3852    115.801   36.6995     36.7034     20.1975            20.2024             20.183             20.1878             
InVirTC3     2019-10-13T02:52:35Z    0.0254       99.3667   5.02823         5.027918        1026.5201  1026.5202  115.072     0.819                 0.1668         0.366          31.70962  -64.12923  2.405         2.7884        6.4813    6.5255    115.909   36.7174     36.7168     20.2121            20.2169             20.2099            20.2147             
InVirTC3     2019-10-13T02:52:35Z    0.0201       99.5      5.022377        5.021825        1026.518   1026.5193  115.996     -1.204                0.1392         0.3206         31.70916  -64.12456  2.3592        2.7294        6.3502    6.3773    116.84    36.6977     36.6976     20.179             20.1839             20.174             20.1788             
InVirTC3     2019-10-13T02:52:35Z    0.025        99.3762   5.026297        5.02667         1026.5258  1026.5237  116.028     0.352                 0.1598         0.3509         31.70961  -64.12924  2.3903        2.7641        6.4218    6.4342    116.872   36.7141     36.7131     20.1972            20.2021             20.202             20.2068             
InVirTC3     2019-10-13T02:52:35Z    0.0227       99.4328   5.023763        5.023669        1026.5366  1026.5358  116.923     0.33                  0.1443         0.3136         31.70962  -64.12919  2.3806        2.7555        6.4005    6.4366    117.774   36.7145     36.7135     20.1725            20.1773             20.1728            20.1776             
InVirTC3     2019-10-13T02:52:35Z    0.0191       99.5233   5.02099         5.017908        1026.5295  1026.5322  116.99      -1.072                0.1307         0.2988         31.70916  -64.12456  2.3557        2.7276        6.3362    6.3714    117.842   36.701      36.6962     20.1618            20.1666             20.1382            20.143              
InVirTC3     2019-10-13T02:52:35Z    0.0195       99.5136   5.019815        5.019481        1026.5518  1026.5518  117.975     0.639                 0.137          0.2873         31.70962  -64.1292   2.3775        2.7523        6.3988    6.4322    118.834   36.7149     36.7141     20.1344            20.1392             20.1321            20.1369             
InVirTC3     2019-10-13T02:52:35Z    0.0182       99.5475   5.017226        5.013894        1026.5366  1026.5449  118.004     -0.895                0.1201         0.2717         31.70916  -64.12457  2.3527        2.7233        6.326     6.3515    118.863   36.6945     36.6943     20.1333            20.1382             20.1021            20.1069             
InVirTC3     2019-10-13T02:52:35Z    0.0176       99.562    5.011117        5.009621        1026.5558  1026.5611  119.056     -0.611                0.1142         0.2595         31.70916  -64.12458  2.3514        2.7234        6.3263    6.3606    119.924   36.6935     36.6949     20.0763            20.0811             20.0605            20.0653             
InVirTC3     2019-10-13T02:52:35Z    0.0188       99.5317   5.015234        5.014949        1026.5671  1026.567   119.057     1.008                 0.1363         0.3071         31.70962  -64.1292   2.3754        2.7486        6.3967    6.4205    119.924   36.7138     36.713      20.0919            20.0967             20.0901            20.0949             
InVirTC3     2019-10-13T02:52:35Z    0.0182       99.547    5.014072        5.01372         1026.5712  1026.5708  119.87      0.502                 0.1319         0.302          31.70961  -64.12921  2.3663        2.7409        6.3656    6.4042    120.744   36.7115     36.7103     20.0833            20.0881             20.0813            20.0861             
InVirTC3     2019-10-13T02:52:35Z    0.016        99.6012   5.006567        5.007672        1026.5807  1026.5743  120.078     -0.527                0.1072         0.2451         31.70917  -64.12459  2.3509        2.7253        6.3331    6.3788    120.953   36.7017     36.6983     20.0234            20.0282             20.0378            20.0426             
InVirTC3     2019-10-13T02:52:35Z    0.016        99.6019   5.007221        5.007696        1026.5804  1026.5768  120.963     -0.934                0.1146         0.2414         31.70918  -64.12459  2.3494        2.7217        6.328     6.3695    121.845   36.6992     36.697      20.0321            20.0369             20.0391            20.0439             
InVirTC3     2019-10-13T02:52:35Z    0.0175       99.5643   5.012172        5.011851        1026.5809  1026.5806  121.015     0.93                  0.1329         0.3177         31.70962  -64.12916  2.3617        2.7369        6.3652    6.4081    121.897   36.7112     36.7102     20.0651            20.0699             20.0633            20.0681             
InVirTC3     2019-10-13T02:52:35Z    0.0153       99.6187   5.00418         5.003838        1026.5916  1026.5885  121.986     -1.203                0.1106         0.2227         31.70918  -64.1246   2.3493        2.7181        6.3346    6.3633    122.876   36.6982     36.6945     20.0041            20.0089             20.0051            20.0099             
InVirTC3     2019-10-13T02:52:35Z    0.0168       99.5811   5.009583        5.009296        1026.5898  1026.5896  122.044     1.224                 0.1288         0.2923         31.70962  -64.12916  2.3614        2.7374        6.3639    6.4034    122.933   36.7091     36.7082     20.0427            20.0475             20.0409            20.0457             
InVirTC3     2019-10-13T02:52:35Z    0.014        99.6505   5.002599        5.001789        1026.6014  1026.6001  122.99      -1.284                0.1028         0.202          31.70918  -64.1246   2.3476        2.7161        6.3334    6.3622    123.887   36.6994     36.6963     19.9874            19.9922             19.9832            19.988              
InVirTC3     2019-10-13T02:52:35Z    0.0163       99.5926   5.006218        5.005917        1026.6044  1026.6039  123.036     1.381                 0.1195         0.2806         31.70962  -64.12916  2.3611        2.7371        6.3668    6.41      123.934   36.7106     36.7094     20.0087            20.0135             20.0072            20.012              
InVirTC3     2019-10-13T02:52:35Z    0.0131       99.6724   5.000722        4.999494        1026.6028  1026.6043  123.98      -1.211                0.098          0.2147         31.70918  -64.12461  2.3464        2.7143        6.332     6.3616    124.885   36.6922     36.6906     19.9775            19.9823             19.9677            19.9724             
InVirTC3     2019-10-13T02:52:35Z    0.015        99.6253   5.001967        5.001249        1026.6152  1026.6163  124.058     0.438                 0.1121         0.2449         31.70961  -64.12916  2.3545        2.7283        6.3447    6.3847    124.963   36.7063     36.7057     19.973             19.9778             19.967             19.9717             
InVirTC3     2019-10-13T02:52:35Z    0.0127       99.682    4.998479        4.996548        1026.613   1026.6172  124.974     -1.063                0.0942         0.198          31.70918  -64.12463  2.3445        2.712         6.3276    6.3583    125.886   36.6922     36.6916     19.9559            19.9607             19.9383            19.9431             
InVirTC3     2019-10-13T02:52:35Z    0.0148       99.63     4.998001        4.997687        1026.6297  1026.6295  125.024     0.819                 0.1099         0.2729         31.70962  -64.12914  2.3544        2.7235        6.3641    6.3824    125.937   36.7065     36.7056     19.935             19.9398             19.9331            19.9378             
InVirTC3     2019-10-13T02:52:35Z    0.0131       99.6711   4.995361        4.995056        1026.6382  1026.638   126.007     1.196                 0.1012         0.2159         31.70961  -64.12913  2.3533        2.7236        6.3548    6.3845    126.927   36.7041     36.7032     19.9123            19.9171             19.9105            19.9153             
InVirTC3     2019-10-13T02:52:35Z    0.0121       99.6967   4.996358        4.994755        1026.6213  1026.6247  126.021     -0.899                0.0889         0.1927         31.70918  -64.12464  2.3425        2.7089        6.3195    6.3397    126.941   36.6906     36.69       19.9372            19.942              19.9227            19.9275             
InVirTC3     2019-10-13T02:52:35Z    0.0118       99.7051   4.993364        4.991284        1026.6322  1026.6381  127.03      -0.75                 0.0851         0.1859         31.70918  -64.12464  2.3411        2.7072        6.3231    6.3367    127.958   36.6894     36.6901     19.9098            19.9146             19.8894            19.8941             
InVirTC3     2019-10-13T02:52:35Z    0.0118       99.7063   4.992734        4.992421        1026.6486  1026.6482  127.109     0.996                 0.0873         0.1975         31.7096   -64.12914  2.3523        2.7215        6.3527    6.3796    128.038   36.703      36.7019     19.8883            19.8931             19.8866            19.8913             
InVirTC3     2019-10-13T02:52:35Z    0.0128       99.6802   4.991107        4.990833        1026.6544  1026.6542  127.777     0.23                  0.0846         0.1643         31.70961  -64.12912  2.3452        2.715         6.3246    6.3563    128.711   36.7018     36.7009     19.874             19.8788             19.8723            19.8771             
InVirTC3     2019-10-13T02:52:35Z    0.0111       99.7238   4.991073        4.990375        1026.6467  1026.6463  128.016     -0.663                0.0871         0.161          31.70918  -64.12462  2.3393        2.7097        6.3178    6.3544    128.951   36.6934     36.6915     19.8831            19.8879             19.8787            19.8835             
InVirTC3     2019-10-13T02:52:35Z    0.0116       99.7104   4.989384        4.989093        1026.663   1026.6629  128.984     0.604                 0.0889         0.1545         31.70961  -64.12909  2.3403        2.7079        6.3118    6.3432    129.927   36.7007     36.6999     19.8585            19.8632             19.8566            19.8614             
InVirTC3     2019-10-13T02:52:35Z    0.0108       99.7326   4.991208        4.990605        1026.6514  1026.6508  128.997     -0.843                0.0894         0.1777         31.70918  -64.12461  2.3373        2.7087        6.3136    6.3528    129.94    36.694      36.692      19.8833            19.888              19.8799            19.8846             
InVirTC3     2019-10-13T02:52:35Z    0.0107       99.734    4.989355        4.989521        1026.6597  1026.6558  129.999     -1.159                0.086          0.1753         31.70918  -64.12464  2.3344        2.7075        6.3025    6.3572    130.949   36.6932     36.6899     19.8663            19.8711             19.8716            19.8764             
InVirTC3     2019-10-13T02:52:35Z    0.0107       99.734    4.988478        4.988194        1026.6696  1026.6694  130.007     0.75                  0.0858         0.1415         31.7096   -64.1291   2.3412        2.7096        6.3269    6.3596    130.958   36.7004     36.6996     19.8498            19.8545             19.848             19.8528             
InVirTC3     2019-10-13T02:52:35Z    0.0099       99.7535   4.98946         4.987997        1026.6627  1026.6632  130.994     -1.205                0.0834         0.1634         31.70918  -64.12465  2.334         2.7044        6.3011    6.3379    131.953   36.6921     36.6891     19.8681            19.8729             19.8577            19.8625             
InVirTC3     2019-10-13T02:52:35Z    0.0097       99.7586   4.987482        4.987189        1026.6757  1026.6757  130.996     0.652                 0.0828         0.145          31.7096   -64.12911  2.3417        2.7081        6.3298    6.3497    131.954   36.6996     36.6988     19.8408            19.8456             19.8389            19.8437             
InVirTC3     2019-10-13T02:52:35Z    0.0104       99.7422   4.987722        4.986188        1026.669   1026.6721  131.99      -1.02                 0.0796         0.1634         31.70918  -64.12466  2.333         2.7016        6.2931    6.3294    132.955   36.6897     36.689      19.854             19.8587             19.8403            19.845              
InVirTC3     2019-10-13T02:52:35Z    0.01         99.7496   4.98676         4.98646         1026.6815  1026.6813  132.056     0.6                   0.08           0.1409         31.7096   -64.12908  2.3403        2.7063        6.3226    6.3457    133.022   36.6989     36.698      19.8344            19.8391             19.8326            19.8373             
InVirTC3     2019-10-13T02:52:35Z    0.0099       99.7521   4.986276        4.986051        1026.6862  1026.6857  132.947     0.301                 0.0777         0.1402         31.7096   -64.12906  2.3375        2.7068        6.3141    6.3514    133.921   36.6983     36.6974     19.83              19.8348             19.829             19.8337             
InVirTC3     2019-10-13T02:52:35Z    0.0099       99.7529   4.985692        4.984887        1026.6807  1026.6806  133.002     -0.728                0.0754         0.1454         31.70918  -64.12466  2.3329        2.7043        6.2947    6.352     133.975   36.6916     36.6896     19.8322            19.8369             19.8268            19.8316             
InVirTC3     2019-10-13T02:52:35Z    0.0095       99.7622   4.985263        4.984968        1026.6931  1026.6929  133.956     0.468                 0.07           0.1331         31.7096   -64.12906  2.3376        2.7089        6.3187    6.3664    134.937   36.6982     36.6972     19.8202            19.8249             19.8185            19.8232             
InVirTC3     2019-10-13T02:52:35Z    0.0095       99.7629   4.984564        4.983865        1026.6894  1026.6889  134.013     -0.607                0.0761         0.1341         31.70919  -64.12466  2.3354        2.7033        6.3167    6.3514    134.994   36.6928     36.6907     19.8196            19.8244             19.8155            19.8202             
InVirTC3     2019-10-13T02:52:35Z    0.0094       99.7649   4.984624        4.984464        1026.693   1026.6904  134.932     -1.051                0.0761         0.1494         31.7092   -64.12463  2.3341        2.6996        6.3166    6.3449    135.92    36.6924     36.6897     19.8203            19.825              19.822             19.8267             
InVirTC3     2019-10-13T02:52:35Z    0.009        99.7761   4.98299         4.982685        1026.7032  1026.7029  134.988     0.731                 0.0783         0.126          31.7096   -64.12905  2.338         2.708         6.3242    6.3582    135.977   36.6979     36.697      19.7986            19.8033             19.7968            19.8015             
InVirTC3     2019-10-13T02:52:35Z    0.0091       99.7739   4.981417        4.981112        1026.7107  1026.7104  135.992     0.846                 0.0761         0.1286         31.7096   -64.12903  2.3368        2.7081        6.3215    6.3653    136.988   36.697      36.696      19.7843            19.7891             19.7825            19.7872             
InVirTC3     2019-10-13T02:52:35Z    0.0086       99.7847   4.983319        4.982623        1026.6998  1026.6977  136.003     -1.227                0.0723         0.155          31.7092   -64.12464  2.3307        2.6955        6.3057    6.3246    136.999   36.6912     36.6876     19.8089            19.8136             19.8064            19.8111             
InVirTC3     2019-10-13T02:52:35Z    0.009        99.7761   4.979402        4.979096        1026.7191  1026.7189  136.989     0.845                 0.0712         0.1283         31.7096   -64.12904  2.3361        2.7041        6.3188    6.3455    137.993   36.696      36.695      19.766             19.7707             19.7641            19.7689             
InVirTC3     2019-10-13T02:52:35Z    0.0087       99.7846   4.982165        4.980297        1026.7041  1026.7069  136.99      -1.125                0.0668         0.1488         31.70918  -64.12468  2.3297        2.6927        6.3036    6.3186    137.994   36.6884     36.6865     19.8008            19.8055             19.7852            19.7899             
InVirTC3     2019-10-13T02:52:35Z    0.0081       99.7972   4.980273        4.978174        1026.7119  1026.7154  138.007     -0.914                0.0663         0.1194         31.70918  -64.12469  2.3277        2.6937        6.2995    6.3293    139.019   36.6869     36.6853     19.7841            19.7888             19.7661            19.7709             
InVirTC3     2019-10-13T02:52:35Z    0.0088       99.7811   4.978191        4.977901        1026.7255  1026.7253  138.038     0.804                 0.0742         0.1236         31.7096   -64.12903  2.3341        2.7023        6.3136    6.3457    139.05    36.6947     36.6938     19.7556            19.7603             19.7538            19.7585             
InVirTC3     2019-10-13T02:52:35Z    0.0091       99.7742   4.977993        4.977865        1026.7282  1026.7277  138.734     0.324                 0.0771         0.1285         31.7096   -64.12903  2.3314        2.6984        6.307     6.3346    139.751   36.6937     36.693      19.7544            19.7592             19.7541            19.7588             
InVirTC3     2019-10-13T02:52:35Z    0.0076       99.8101   4.976896        4.976418        1026.7255  1026.7248  139.032     -0.587                0.0683         0.1217         31.70918  -64.1247   2.3262        2.6931        6.2993    6.3364    140.051   36.6874     36.6857     19.7512            19.7559             19.7486            19.7534             
InVirTC3     2019-10-13T02:52:35Z    0.0086       99.786    4.977294        4.976975        1026.7364  1026.736   140.019     0.869                 0.0681         0.1341         31.7096   -64.129    2.3288        2.6996        6.2959    6.3487    141.046   36.6943     36.6933     19.7466            19.7513             19.7448            19.7495             
InVirTC3     2019-10-13T02:52:35Z    0.0073       99.8172   4.9768          4.976504        1026.7329  1026.7307  140.097     -0.441                0.076          0.1184         31.70919  -64.12469  2.323         2.6877        6.2903    6.3196    141.125   36.6897     36.6869     19.7472            19.752              19.7476            19.7523             
InVirTC3     2019-10-13T02:52:35Z    0.0075       99.8114   4.975601        4.975698        1026.7386  1026.7359  140.898     -1.153                0.0762         0.1222         31.7092   -64.12467  2.319         2.683         6.2866    6.3124    141.932   36.6888     36.6865     19.7365            19.7412             19.7401            19.7448             
InVirTC3     2019-10-13T02:52:35Z    0.0087       99.7845   4.976454        4.976188        1026.7429  1026.7426  141.027     1.249                 0.0685         0.1195         31.70959  -64.129    2.3294        2.6993        6.3011    6.3496    142.062   36.6943     36.6933     19.7383            19.743              19.7368            19.7415             
InVirTC3     2019-10-13T02:52:35Z    0.0073       99.8186   4.974675        4.974554        1026.7453  1026.7418  141.971     -1.473                0.0709         0.1132         31.7092   -64.12469  2.3142        2.6783        6.2665    6.2955    143.013   36.6883     36.6847     19.7278            19.7325             19.7308            19.7355             
InVirTC3     2019-10-13T02:52:35Z    0.0087       99.7834   4.975174        4.974902        1026.7504  1026.7502  142.038     1.388                 0.0658         0.1473         31.70958  -64.129    2.3292        2.6985        6.3077    6.3455    143.081   36.694      36.6931     19.726             19.7307             19.7244            19.7291             
InVirTC3     2019-10-13T02:52:35Z    0.0067       99.8332   4.974518        4.973747        1026.7483  1026.7476  142.992     -1.432                0.0682         0.1121         31.7092   -64.1247   2.3108        2.6754        6.2471    6.2816    144.042   36.6865     36.6839     19.728             19.7328             19.7235            19.7283             
InVirTC3     2019-10-13T02:52:35Z    0.0087       99.7841   4.974263        4.973903        1026.7565  1026.7562  143.171     0.36                  0.0649         0.1241         31.70959  -64.12899  2.3238        2.6892        6.2825    6.3116    144.223   36.6928     36.6917     19.7183            19.7231             19.7162            19.7209             
InVirTC3     2019-10-13T02:52:35Z    0.0086       99.7847   4.972818        4.972485        1026.763   1026.7626  143.947     0.425                 0.0663         0.1389         31.7096   -64.12896  2.3209        2.6818        6.2894    6.2969    145.004   36.6922     36.6911     19.7049            19.7097             19.7031            19.7078             
InVirTC3     2019-10-13T02:52:35Z    0.0065       99.8381   4.973438        4.97216         1026.7548  1026.7545  143.997     -1.216                0.0635         0.1107         31.7092   -64.12472  2.3088        2.6738        6.244     6.2729    145.055   36.6857     36.6825     19.7182            19.7229             19.7098            19.7145             
InVirTC3     2019-10-13T02:52:35Z    0.0078       99.8056   4.972307        4.972007        1026.768   1026.7677  144.977     0.982                 0.0634         0.1341         31.70958  -64.12896  2.3202        2.6825        6.2871    6.304     146.042   36.6914     36.6904     19.7006            19.7054             19.6989            19.7036             
InVirTC3     2019-10-13T02:52:35Z    0.0066       99.8367   4.972257        4.97085         1026.7619  1026.7636  145.022     -0.909                0.0621         0.1048         31.70919  -64.12473  2.3092        2.6735        6.2517    6.2771    146.087   36.6853     36.6836     19.7071            19.7118             19.6956            19.7003             
InVirTC3     2019-10-13T02:52:35Z    0.0057       99.8579   4.970028        4.969695        1026.7737  1026.7725  146.042     -0.539                0.0647         0.1048         31.70918  -64.12473  2.3075        2.6754        6.2466    6.2998    147.115   36.6868     36.685      19.6838            19.6885             19.6828            19.6875             
InVirTC3     2019-10-13T02:52:35Z    0.0086       99.7863   4.972039        4.971763        1026.773   1026.7727  146.084     0.454                 0.0616         0.1223         31.70958  -64.12896  2.3202        2.6844        6.2825    6.3144    147.159   36.6908     36.6898     19.6983            19.703              19.6968            19.7015             
InVirTC3     2019-10-13T02:52:35Z    0.0086       99.786    4.971013        4.970717        1026.7794  1026.7791  146.979     0.448                 0.0643         0.1176         31.70958  -64.12894  2.3199        2.6852        6.2839    6.3167    148.06    36.6905     36.6896     19.6885            19.6932             19.6867            19.6915             
InVirTC3     2019-10-13T02:52:35Z    0.0061       99.8482   4.970551        4.970262        1026.7782  1026.7767  147.088     -0.321                0.0636         0.1139         31.70918  -64.12472  2.3052        2.6698        6.2318    6.2752    148.17    36.6879     36.6857     19.6871            19.6918             19.6868            19.6915             
InVirTC3     2019-10-13T02:52:35Z    0.0062       99.846    4.969069        4.968801        1026.7853  1026.7824  147.896     -0.957                0.0682         0.111          31.7092   -64.1247   2.3061        2.6678        6.2387    6.2671    148.984   36.6876     36.6843     19.673             19.6777             19.6742            19.6789             
InVirTC3     2019-10-13T02:52:35Z    0.0086       99.786    4.970215        4.969921        1026.7846  1026.7845  147.993     1.007                 0.0664         0.11           31.70958  -64.12894  2.3191        2.685         6.2817    6.3169    149.082   36.6892     36.6885     19.6819            19.6867             19.6801            19.6848             
InVirTC3     2019-10-13T02:52:35Z    0.0055       99.8615   4.968754        4.968251        1026.7904  1026.7885  148.963     -1.389                0.0675         0.1195         31.7092   -64.12474  2.3065        2.6678        6.2448    6.2646    150.059   36.6871     36.6842     19.6701            19.6748             19.6687            19.6734             
InVirTC3     2019-10-13T02:52:35Z    0.0082       99.7943   4.969883        4.969591        1026.7898  1026.7895  149.026     1.3                   0.062          0.1048         31.70958  -64.12893  2.3175        2.6859        6.2727    6.3209    150.122   36.689      36.6881     19.6786            19.6833             19.6769            19.6816             
InVirTC3     2019-10-13T02:52:35Z    0.008        99.7992   4.969646        4.96931         1026.7933  1026.7931  149.832     0.343                 0.0651         0.1039         31.70958  -64.12892  2.3196        2.6888        6.2882    6.3316    150.934   36.6883     36.6873     19.6768            19.6815             19.6748            19.6795             
InVirTC3     2019-10-13T02:52:35Z    0.0054       99.8641   4.968487        4.967862        1026.7947  1026.7933  149.961     -1.313                0.0616         0.1125         31.70918  -64.12474  2.306         2.6679        6.244     6.271     151.065   36.6864     36.6835     19.668             19.6727             19.6653            19.67               
InVirTC3     2019-10-13T02:52:35Z    0.0052       99.8699   4.968121        4.967317        1026.7996  1026.7982  150.997     -1.093                0.0636         0.1121         31.70918  -64.12476  2.3055        2.6693        6.2428    6.2788    152.108   36.6857     36.6826     19.6649            19.6696             19.6608            19.6656             
InVirTC3     2019-10-13T02:52:35Z    0.0082       99.7944   4.96896         4.968675        1026.8003  1026.8     151.001     0.614                 0.0599         0.0873         31.70958  -64.1289   2.3195        2.6841        6.2872    6.3103    152.113   36.6883     36.6874     19.6698            19.6745             19.6682            19.673              
InVirTC3     2019-10-13T02:52:35Z    0.005        99.8758   4.967875        4.967036        1026.8047  1026.8039  152.016     -0.867                0.0622         0.1128         31.70918  -64.12476  2.3047        2.6686        6.2426    6.2718    153.136   36.6857     36.6829     19.6621            19.6669             19.6574            19.6621             
InVirTC3     2019-10-13T02:52:35Z    0.0077       99.8062   4.967636        4.967341        1026.8075  1026.8072  152.021     0.794                 0.0598         0.0753         31.70958  -64.1289   2.32          2.6848        6.2897    6.3249    153.14    36.6877     36.6867     19.6576            19.6623             19.6559            19.6606             
InVirTC3     2019-10-13T02:52:35Z    0.0081       99.7979   4.967392        4.967102        1026.8123  1026.812   153.001     0.738                 0.0578         0.0759         31.70958  -64.1289   2.32          2.6841        6.2942    6.3193    154.129   36.6875     36.6865     19.655             19.6598             19.6534            19.6581             
InVirTC3     2019-10-13T02:52:35Z    0.005        99.874    4.96765         4.967119        1026.8092  1026.8077  153.01      -0.745                0.0593         0.1119         31.70918  -64.12475  2.304         2.6683        6.2438    6.2737    154.137   36.6852     36.6825     19.6601            19.6649             19.6582            19.6629             
InVirTC3     2019-10-13T02:52:35Z    0.005        99.8743   4.966881        4.965695        1026.8145  1026.8144  153.993     -0.66                 0.0577         0.0997         31.70919  -64.12473  2.3018        2.6696        6.2327    6.2807    155.128   36.6841     36.6813     19.6536            19.6583             19.6456            19.6504             
InVirTC3     2019-10-13T02:52:35Z    0.0077       99.8078   4.966709        4.96644         1026.8192  1026.8187  154.085     0.443                 0.0575         0.0883         31.70958  -64.12889  2.316         2.6806        6.2746    6.3066    155.22    36.6878     36.6867     19.6478            19.6525             19.6466            19.6513             
InVirTC3     2019-10-13T02:52:35Z    0.0076       99.8105   4.965986        4.965725        1026.825   1026.8246  154.942     0.354                 0.0587         0.0906         31.70958  -64.12887  2.3142        2.6767        6.274     6.3004    156.084   36.6879     36.6869     19.6404            19.6451             19.6391            19.6438             
InVirTC3     2019-10-13T02:52:35Z    0.005        99.8751   4.965385        4.965668        1026.8236  1026.8211  155.016     -0.614                0.0596         0.0948         31.7092   -64.12475  2.3006        2.6693        6.2248    6.2825    156.159   36.6848     36.6832     19.6382            19.643              19.6428            19.6475             
InVirTC3     2019-10-13T02:52:35Z    0.0052       99.8706   4.965535        4.965752        1026.8268  1026.8236  155.957     -0.869                0.0532         0.1009         31.70918  -64.12476  2.3023        2.6688        6.2362    6.2821    157.107   36.6843     36.6817     19.6399            19.6446             19.6448            19.6495             
InVirTC3     2019-10-13T02:52:35Z    0.007        99.8242   4.96517         4.964882        1026.8318  1026.8316  156.02      0.782                 0.0575         0.0925         31.70958  -64.12886  2.3125        2.6758        6.2689    6.3017    157.17    36.6878     36.6869     19.6323            19.6371             19.6307            19.6354             
InVirTC3     2019-10-13T02:52:35Z    0.0062       99.8443   4.96422         4.964136        1026.8298  1026.8306  156.967     -0.901                0.0601         0.0878         31.70918  -64.12478  2.3027        2.6675        6.2362    6.279     158.125   36.6797     36.6803     19.6322            19.6369             19.6308            19.6355             
InVirTC3     2019-10-13T02:52:35Z    0.0067       99.8339   4.963942        4.963635        1026.8392  1026.8389  157.076     0.773                 0.0571         0.0804         31.70958  -64.12884  2.3083        2.6742        6.2493    6.2957    158.235   36.6874     36.6864     19.6208            19.6255             19.619             19.6237             
InVirTC3     2019-10-13T02:52:35Z    0.0066       99.8349   4.963075        4.962881        1026.8444  1026.8438  157.965     0.426                 0.0562         0.0786         31.70956  -64.12885  2.3064        2.6704        6.2512    6.2843    159.13    36.6865     36.6854     19.6132            19.6179             19.6126            19.6173             
InVirTC3     2019-10-13T02:52:35Z    0.0044       99.8901   4.962506        4.962436        1026.8416  1026.8386  157.999     -0.62                 0.0551         0.0804         31.70918  -64.12479  2.3027        2.668         6.2383    6.2837    159.165   36.6823     36.6794     19.6125            19.6172             19.6152            19.6199             
InVirTC3     2019-10-13T02:52:35Z    0.0066       99.8364   4.961735        4.961394        1026.8517  1026.8514  159.018     0.512                 0.0524         0.0847         31.70958  -64.12883  2.3078        2.6713        6.264     6.2962    160.192   36.6857     36.6846     19.6009            19.6056             19.5989            19.6036             
InVirTC3     2019-10-13T02:52:35Z    0.0043       99.8927   4.962799        4.961802        1026.8466  1026.8464  159.055     -0.603                0.0534         0.0748         31.70919  -64.12477  2.3042        2.667         6.2488    6.2853    160.229   36.6833     36.6807     19.6137            19.6184             19.6072            19.6119             
InVirTC3     2019-10-13T02:52:35Z    0.0071       99.8225   4.96033         4.960241        1026.8585  1026.8576  159.939     0.436                 0.0487         0.0831         31.70957  -64.12882  2.3061        2.6732        6.2543    6.3059    161.12    36.6849     36.6838     19.5882            19.5929             19.5885            19.5932             
InVirTC3     2019-10-13T02:52:35Z    0.0044       99.8892   4.961676        4.961837        1026.8523  1026.8486  159.94      -1.253                0.0511         0.0899         31.7092   -64.12476  2.3038        2.6646        6.2535    6.2719    161.121   36.6823     36.6792     19.6039            19.6086             19.6089            19.6136             
InVirTC3     2019-10-13T02:52:35Z    0.0055       99.861    4.958417        4.958123        1026.8671  1026.8668  160.962     0.55                  0.0524         0.0749         31.70956  -64.12881  2.3098        2.6759        6.2827    6.3179    162.151   36.6842     36.6832     19.5704            19.5751             19.5687            19.5734             
InVirTC3     2019-10-13T02:52:35Z    0.004        99.8997   4.960951        4.960635        1026.8578  1026.8563  161.003     -1.447                0.0503         0.0728         31.70919  -64.12477  2.303         2.6653        6.2514    6.2708    162.192   36.6812     36.679      19.5978            19.6025             19.5973            19.602              
InVirTC3     2019-10-13T02:52:35Z    0.0054       99.8632   4.957726        4.957419        1026.8735  1026.8732  161.973     0.749                 0.0508         0.0601         31.70956  -64.12881  2.3102        2.6732        6.2808    6.303     163.17    36.6843     36.6833     19.5633            19.568              19.5616            19.5662             
InVirTC3     2019-10-13T02:52:35Z    0.0037       99.9096   4.960707        4.959516        1026.8609  1026.8619  162.02      -1.333                0.046          0.0609         31.70918  -64.12478  2.3017        2.666         6.2437    6.2743    163.217   36.6793     36.6774     19.5973            19.602              19.588             19.5927             
InVirTC3     2019-10-13T02:52:35Z    0.0035       99.9128   4.959381        4.958085        1026.8679  1026.8692  163.004     -1.074                0.0434         0.065          31.70918  -64.12478  2.3006        2.6681        6.2399    6.2892    164.209   36.6785     36.6767     19.5851            19.5898             19.5748            19.5795             
InVirTC3     2019-10-13T02:52:35Z    0.0054       99.8633   4.956622        4.956309        1026.8798  1026.8795  163.032     0.837                 0.0467         0.0505         31.70956  -64.1288   2.3081        2.6707        6.2659    6.2944    164.237   36.6831     36.6821     19.5537            19.5584             19.5519            19.5566             
InVirTC3     2019-10-13T02:52:35Z    0.0052       99.8693   4.955854        4.955755        1026.8848  1026.884   163.964     0.366                 0.0423         0.0548         31.70956  -64.1288   2.3091        2.6717        6.2778    6.3067    165.176   36.6821     36.6811     19.5472            19.5519             19.5474            19.5521             
InVirTC3     2019-10-13T02:52:35Z    0.0033       99.9188   4.957172        4.957112        1026.8783  1026.8774  164.025     -0.708                0.0425         0.067          31.70918  -64.12481  2.301         2.6703        6.2403    6.3044    165.238   36.6788     36.6778     19.5634            19.5681             19.5639            19.5686             
InVirTC3     2019-10-13T02:52:35Z    0.0046       99.8839   4.95473         4.954403        1026.8921  1026.8917  165.019     0.473                 0.0452         0.049          31.70956  -64.12878  2.3092        2.6729        6.2767    6.3134    166.239   36.6818     36.6806     19.5364            19.5411             19.5346            19.5393             
InVirTC3     2019-10-13T02:52:35Z    0.0032       99.9198   4.959173        4.959109        1026.8807  1026.8782  165.091     -0.325                0.0419         0.0509         31.70918  -64.12482  2.3024        2.6696        6.2523    6.3012    166.312   36.6812     36.6788     19.5791            19.5838             19.5813            19.586              
InVirTC3     2019-10-13T02:52:35Z    0.0033       99.9194   4.955779        4.955599        1026.8892  1026.8869  165.863     -0.844                0.0386         0.0622         31.7092   -64.1248   2.3018        2.6666        6.2501    6.2973    167.09    36.678      36.6754     19.5503            19.555              19.5516            19.5563             
InVirTC3     2019-10-13T02:52:35Z    0.0045       99.8885   4.953112        4.95279         1026.8989  1026.8986  165.974     0.606                 0.0467         0.0494         31.70956  -64.12878  2.3099        2.6722        6.2858    6.3113    167.202   36.6804     36.6793     19.5223            19.527              19.5205            19.5252             
InVirTC3     2019-10-13T02:52:35Z    0.0033       99.9186   4.954654        4.953238        1026.8953  1026.896   166.974     -1.301                0.0384         0.0483         31.70918  -64.1248   2.3029        2.6642        6.256     6.2929    168.21    36.6764     36.6737     19.541             19.5457             19.5307            19.5354             
InVirTC3     2019-10-13T02:52:35Z    0.0045       99.8883   4.952004        4.9517          1026.9057  1026.9054  167         0.768                 0.0454         0.0462         31.70956  -64.12878  2.3104        2.6734        6.287     6.3175    168.237   36.6798     36.6788     19.512             19.5167             19.5102            19.5149             
InVirTC3     2019-10-13T02:52:35Z    0.003        99.9253   4.952973        4.951407        1026.9002  1026.9018  167.984     -1.094                0.0339         0.0415         31.70918  -64.12481  2.3022        2.6624        6.2586    6.2874    169.228   36.6728     36.6706     19.5287            19.5334             19.5164            19.5211             
InVirTC3     2019-10-13T02:52:35Z    0.0045       99.8882   4.950639        4.950337        1026.9128  1026.9124  168.051     0.774                 0.041          0.0351         31.70956  -64.12877  2.312         2.6764        6.2998    6.3364    169.295   36.6788     36.6778     19.4998            19.5044             19.4981            19.5027             
InVirTC3     2019-10-13T02:52:35Z    0.004        99.8997   4.950182        4.950017        1026.9169  1026.9161  168.924     0.34                  0.0419         0.0327         31.70956  -64.12874  2.3107        2.6731        6.2904    6.3145    170.175   36.6779     36.6768     19.4961            19.5008             19.4957            19.5004             
InVirTC3     2019-10-13T02:52:35Z    0.0024       99.9408   4.950026        4.949266        1026.9114  1026.9132  168.999     -0.701                0.0324         0.0389         31.70918  -64.12483  2.3037        2.6617        6.2717    6.2819    170.251   36.672      36.672      19.5012            19.5059             19.4941            19.4987             
InVirTC3     2019-10-13T02:52:35Z    0.0034       99.9152   4.949618        4.949325        1026.9227  1026.9221  169.981     0.538                 0.0441         0.0364         31.70956  -64.12876  2.3102        2.6737        6.2892    6.3276    171.241   36.6776     36.6764     19.4906            19.4953             19.4892            19.4939             
InVirTC3     2019-10-13T02:52:35Z    0.0023       99.941    4.949861        4.950326        1026.9199  1026.9167  170.132     -0.373                0.0344         0.0349         31.70919  -64.12483  2.3022        2.6628        6.261     6.2802    171.393   36.6748     36.673      19.496             19.5007             19.5025            19.5072             
InVirTC3     2019-10-13T02:52:35Z    0.0024       99.9409   4.947798        4.948365        1026.9267  1026.9229  170.871     -1.017                0.0355         0.0372         31.7092   -64.12484  2.303         2.668         6.2715    6.3181    172.138   36.6733     36.671      19.4778            19.4825             19.4858            19.4905             
InVirTC3     2019-10-13T02:52:35Z    0.0035       99.9146   4.948985        4.948719        1026.9289  1026.9286  171.064     0.794                 0.0405         0.0379         31.70956  -64.12874  2.3085        2.6728        6.283     6.3212    172.332   36.6774     36.6764     19.4844            19.4891             19.483             19.4877             
InVirTC3     2019-10-13T02:52:35Z    0.0035       99.9145   4.948531        4.948265        1026.9329  1026.9323  171.835     0.305                 0.036          0.0365         31.70956  -64.12872  2.3067        2.6693        6.2788    6.3069    173.109   36.6767     36.6755     19.4805            19.4852             19.4793            19.484              
InVirTC3     2019-10-13T02:52:35Z    0.0021       99.946    4.947056        4.946775        1026.9319  1026.9304  171.965     -1.393                0.0368         0.0385         31.7092   -64.12482  2.3022        2.6657        6.2683    6.3122    173.24    36.6719     36.6697     19.472             19.4767             19.4717            19.4764             
InVirTC3     2019-10-13T02:52:35Z    0.0035       99.9136   4.947542        4.947243        1026.9402  1026.9398  172.971     0.594                 0.0342         0.033          31.70956  -64.12868  2.305         2.6698        6.2733    6.32      174.254   36.6765     36.6754     19.4709            19.4756             19.4693            19.4739             
InVirTC3     2019-10-13T02:52:35Z    0.0022       99.9452   4.946262        4.945437        1026.9371  1026.9362  173.02      -1.385                0.037          0.0303         31.7092   -64.12484  2.3015        2.661         6.264     6.2873    174.303   36.6704     36.6676     19.4657            19.4703             19.4611            19.4657             
InVirTC3     2019-10-13T02:52:35Z    0.0035       99.9147   4.946659        4.946355        1026.9469  1026.9465  174.007     1.036                 0.0318         0.032          31.70956  -64.12872  2.3049        2.6693        6.2775    6.3252    175.298   36.6763     36.6752     19.4622            19.4669             19.4606            19.4653             
InVirTC3     2019-10-13T02:52:35Z    0.0019       99.9513   4.945802        4.943849        1026.9417  1026.9448  174.026     -1.251                0.0361         0.0242         31.70919  -64.12485  2.3016        2.6597        6.2675    6.2837    175.317   36.6694     36.6676     19.4621            19.4667             19.4455            19.4502             
InVirTC3     2019-10-13T02:52:35Z    0.0034       99.9173   4.945725        4.945424        1026.9529  1026.9525  175.019     1.26                  0.0298         0.0346         31.70956  -64.12872  2.3046        2.6679        6.2804    6.3114    176.318   36.6755     36.6744     19.4539            19.4586             19.4523            19.457              
InVirTC3     2019-10-13T02:52:35Z    0.0014       99.9652   4.943989        4.942959        1026.9499  1026.9519  175.034     -0.98                 0.0344         0.0242         31.70918  -64.12486  2.3022        2.6617        6.2716    6.2908    176.333   36.6685     36.668      19.4454            19.45               19.4362            19.4408             
InVirTC3     2019-10-13T02:52:35Z    0.0025       99.9381   4.945219        4.944681        1026.9566  1026.9566  175.807     0.48                  0.0354         0.028          31.70956  -64.12869  2.3039        2.6666        6.2771    6.3111    177.112   36.6744     36.6732     19.45              19.4547             19.4463            19.451              
InVirTC3     2019-10-13T02:52:35Z    0.0014       99.9656   4.943298        4.943257        1026.96    1026.9567  176.023     -0.569                0.0304         0.0242         31.70918  -64.12486  2.3022        2.663         6.2708    6.2988    177.33    36.6722     36.669      19.4342            19.4388             19.4374            19.4421             
InVirTC3     2019-10-13T02:52:35Z    0.0025       99.9379   4.94355         4.943224        1026.9654  1026.9649  177.023     0.802                 0.0366         0.0316         31.70956  -64.12867  2.3029        2.6669        6.2744    6.3202    178.338   36.6736     36.6724     19.4345            19.4392             19.4329            19.4375             
InVirTC3     2019-10-13T02:52:35Z    0.0015       99.9622   4.943682        4.943482        1026.9616  1026.9596  177.052     -0.517                0.0316         0.0237         31.7092   -64.12486  2.3029        2.6645        6.281     6.3106    178.367   36.6703     36.6679     19.4396            19.4442             19.4404            19.4451             
InVirTC3     2019-10-13T02:52:35Z    0.0013       99.9681   4.94112         4.941268        1026.9695  1026.9675  177.975     -2.158                0.034          0.0169         31.7092   -64.12486  2.3006        2.661         6.2781    6.2977    179.297   36.6678     36.6662     19.4177            19.4224             19.4209            19.4255             
InVirTC3     2019-10-13T02:52:35Z    0.0024       99.9401   4.943243        4.942935        1026.9699  1026.9694  178.037     0.975                 0.0343         0.0316         31.70956  -64.12868  2.3036        2.6659        6.2812    6.3145    179.36    36.6728     36.6716     19.4321            19.4367             19.4305            19.4352             
InVirTC3     2019-10-13T02:52:35Z    0.0013       99.9681   4.940548        4.940541        1026.9752  1026.9705  178.98      -2.149                0.0311         0.0215         31.7092   -64.12488  2.2998        2.6605        6.2744    6.2992    180.31    36.6676     36.6631     19.4121            19.4168             19.4171            19.4218             
InVirTC3     2019-10-13T02:52:35Z    0.002        99.9491   4.943247        4.942979        1026.9742  1026.9736  179.041     0.69                  0.031          0.0258         31.70954  -64.12867  2.3039        2.665         6.2843    6.3094    180.371   36.6727     36.6715     19.4319            19.4365             19.4307            19.4354             
InVirTC3     2019-10-13T02:52:35Z    0.0018       99.9547   4.941391        4.940929        1026.9833  1026.9833  179.941     0.464                 0.0326         0.0201         31.70955  -64.12864  2.3024        2.6636        6.2791    6.3073    181.278   36.6731     36.672      19.4134            19.4181             19.4103            19.4149             
InVirTC3     2019-10-13T02:52:35Z    0.0014       99.9657   4.939987        4.939301        1026.9797  1026.9789  179.975     -1.904                0.03           0.0242         31.7092   -64.12488  2.2996        2.6615        6.2704    6.3076    181.313   36.6663     36.6639     19.4078            19.4125             19.404             19.4087             
InVirTC3     2019-10-13T02:52:35Z    0.0013       99.9681   4.939034        4.938374        1026.9864  1026.9856  181.02      -1.49                 0.0325         0.0215         31.70919  -64.12491  2.2986        2.6617        6.2661    6.313     182.366   36.6659     36.6635     19.3988            19.4034             19.3952            19.3998             
InVirTC3     2019-10-13T02:52:35Z    0.0019       99.9514   4.938456        4.938281        1026.9929  1026.9921  181.262     0.495                 0.0338         0.0188         31.70955  -64.12864  2.2988        2.6626        6.2676    6.3083    182.61    36.6696     36.6685     19.389             19.3936             19.3886            19.3932             
InVirTC3     2019-10-13T02:52:35Z    0.0016       99.9604   4.937952        4.937592        1026.9971  1026.9967  181.906     0.205                 0.0319         0.0203         31.70955  -64.12863  2.2959        2.6624        6.2562    6.3141    183.259   36.6696     36.6684     19.3839            19.3885             19.3819            19.3865             
InVirTC3     2019-10-13T02:52:35Z    0.0014       99.9657   4.938561        4.938265        1026.9933  1026.9929  182.019     -1.004                0.0372         0.0169         31.70918  -64.12492  2.2979        2.6616        6.2649    6.3102    183.373   36.6671     36.666      19.3925            19.3971             19.391             19.3956             
InVirTC3     2019-10-13T02:52:35Z    0.0014       99.9649   4.936953        4.936684        1027.0037  1027.0032  183.01      0.762                 0.0306         0.0169         31.70956  -64.12862  2.2972        2.6599        6.2741    6.3042    184.372   36.6688     36.6678     19.3748            19.3795             19.3735            19.3781             
InVirTC3     2019-10-13T02:52:35Z    0.0012       99.9702   4.93812         4.937657        1026.9997  1026.9979  183.143     -0.955                0.0331         0.0173         31.70919  -64.1249   2.3021        2.6642        6.2865    6.3213    184.507   36.6673     36.6644     19.3876            19.3923             19.3864            19.3911             
InVirTC3     2019-10-13T02:52:35Z    0.0006       99.9848   4.936482        4.935478        1027.0049  1027.003   183.97      -2.13                 0.0279         0.0169         31.7092   -64.12491  2.3028        2.6609        6.2896    6.3084    185.34    36.6648     36.6606     19.3745            19.3792             19.3697            19.3744             
InVirTC3     2019-10-13T02:52:35Z    0.0014       99.9662   4.935975        4.935674        1027.0101  1027.0098  184.023     0.968                 0.0269         0.0169         31.70955  -64.1286   2.2976        2.6571        6.2747    6.2864    185.393   36.6683     36.6673     19.3657            19.3704             19.3641            19.3687             
InVirTC3     2019-10-13T02:52:35Z    0.0005       99.9876   4.935671        4.934696        1027.0093  1027.011   184.978     -2.002                0.0267         0.0169         31.7092   -64.12492  2.301         2.6608        6.2834    6.31      186.355   36.6628     36.6621     19.3686            19.3733             19.3602            19.3649             
InVirTC3     2019-10-13T02:52:35Z    0.0013       99.9672   4.934835        4.934596        1027.0164  1027.0158  185.04      0.613                 0.0281         0.0188         31.70954  -64.1286   2.2972        2.663         6.2729    6.3281    186.418   36.6672     36.666      19.3557            19.3603             19.3547            19.3594             
InVirTC3     2019-10-13T02:52:35Z    0.0014       99.9668   4.934536        4.93427         1027.0209  1027.0205  185.96      0.369                 0.0251         0.0181         31.70954  -64.12861  2.2999        2.6606        6.2893    6.3092    187.345   36.6668     36.6659     19.3529            19.3575             19.3514            19.3561             
InVirTC3     2019-10-13T02:52:35Z    0.0005       99.987    4.93483         4.934061        1027.0157  1027.0164  186.028     -1.645                0.0263         0.0169         31.70919  -64.12492  2.3011        2.6615        6.2867    6.3141    187.414   36.6624     36.6612     19.3607            19.3653             19.3547            19.3594             
InVirTC3     2019-10-13T02:52:35Z    0.0007       99.9827   4.933932        4.933651        1027.0264  1027.0258  186.945     0.451                 0.0271         0.018          31.70954  -64.12859  2.3007        2.6651        6.2899    6.336     188.338   36.6664     36.6653     19.3472            19.3518             19.3458            19.3505             
InVirTC3     2019-10-13T02:52:35Z    0.0002       99.9941   4.933938        4.933446        1027.0235  1027.0231  187.047     -1.184                0.0244         0.0169         31.70918  -64.12492  2.3022        2.6616        6.2927    6.3157    188.44    36.6633     36.6618     19.3508            19.3554             19.3478            19.3525             
InVirTC3     2019-10-13T02:52:35Z    0.001        99.9744   4.933515        4.933206        1027.0321  1027.0317  187.964     0.6                   0.0273         0.0169         31.70954  -64.12858  2.3005        2.6678        6.2883    6.3417    189.365   36.6665     36.6654     19.3427            19.3473             19.341             19.3456             
InVirTC3     2019-10-13T02:52:35Z    0.0014       99.9641   4.933392        4.934053        1027.0306  1027.0281  188.014     -0.681                0.0248         0.0113         31.70918  -64.12493  2.3018        2.662         6.2904    6.3183    189.415   36.6646     36.6638     19.3437            19.3483             19.3509            19.3555             
InVirTC3     2019-10-13T02:52:35Z    0.0004       99.9901   4.932419        4.932114        1027.0392  1027.0388  189.032     0.869                 0.0289         0.0169         31.70954  -64.12858  2.3007        2.6658        6.2913    6.3346    190.441   36.6661     36.665      19.3323            19.3369             19.3307            19.3353             
InVirTC3     2019-10-13T02:52:35Z    0.0012       99.9695   4.933722        4.933778        1027.0349  1027.0315  189.276     -0.336                0.0311         0.0121         31.7092   -64.12492  2.3021        2.6613        6.3008    6.3174    190.687   36.6641     36.661      19.3468            19.3515             19.3508            19.3555             
InVirTC3     2019-10-13T02:52:35Z    0.0002       99.9932   4.932239        4.932061        1027.0403  1027.0374  189.921     -1.217                0.0316         0.0069         31.7092   -64.12492  2.2984        2.6627        6.2853    6.3266    191.338   36.663      36.6599     19.3338            19.3384             19.3356            19.3403             
InVirTC3     2019-10-13T02:52:35Z    0.0006       99.9838   4.931733        4.931422        1027.0446  1027.044   190.119     0.73                  0.0284         0.0169         31.70954  -64.12858  2.3008        2.663         6.2936    6.3201    191.537   36.6649     36.6637     19.3266            19.3313             19.3251            19.3297             
InVirTC3     2019-10-13T02:52:35Z    0.0003       99.9919   4.931574        4.931301        1027.0479  1027.0474  190.885     0.254                 0.0251         0.0051         31.70954  -64.12855  2.3035        2.6642        6.3083    6.3305    192.309   36.6645     36.6633     19.3253            19.3299             19.324             19.3287             
InVirTC3     2019-10-13T02:52:35Z    0.0003       99.9927   4.931727        4.930718        1027.0441  1027.0446  190.991     -1.23                 0.0332         0.0039         31.7092   -64.12492  2.2982        2.6628        6.2832    6.3231    192.416   36.6608     36.6589     19.3309            19.3356             19.3235            19.3282             
InVirTC3     2019-10-13T02:52:35Z    0.0003       99.9908   4.931049        4.930747        1027.0539  1027.0534  191.955     0.529                 0.0175         0.0048         31.70954  -64.12854  2.2998        2.6641        6.2831    6.3326    193.388   36.6643     36.6632     19.32              19.3247             19.3185            19.3231             
InVirTC3     2019-10-13T02:52:35Z    0.0003       99.9927   4.930511        4.929086        1027.0511  1027.0512  192.027     -0.999                0.0315         0.0169         31.7092   -64.12493  2.2973        2.6622        6.282     6.3274    193.46    36.6601     36.6569     19.3197            19.3243             19.3098            19.3145             
InVirTC3     2019-10-13T02:52:35Z    0.0003       99.9919   4.930267        4.929958        1027.0603  1027.0598  193.014     0.817                 0.0198         0.0044         31.70954  -64.12854  2.3001        2.6654        6.2908    6.3405    194.456   36.664      36.6628     19.3125            19.3172             19.3109            19.3156             
InVirTC3     2019-10-13T02:52:35Z    -0.0002      100.0043  4.928832        4.927987        1027.0579  1027.0595  193.036     -0.706                0.0273         0.0226         31.70918  -64.12496  2.2985        2.6637        6.2905    6.3372    194.478   36.6583     36.6578     19.3054            19.31               19.2979            19.3025             
InVirTC3     2019-10-13T02:52:35Z    -0.0006      100.0145  4.92764         4.92767         1027.0663  1027.0648  194.043     -0.527                0.0255         0.012          31.70918  -64.12497  2.2986        2.663         6.2937    6.3363    195.492   36.6592     36.6578     19.2926            19.2973             19.2945            19.2991             
InVirTC3     2019-10-13T02:52:35Z    0.0007       99.9811   4.929008        4.928707        1027.0676  1027.0671  194.167     0.751                 0.0216         0.0079         31.70954  -64.12855  2.2982        2.6611        6.288     6.3208    195.617   36.6631     36.662      19.3011            19.3058             19.2996            19.3042             
InVirTC3     2019-10-13T02:52:35Z    0.0005       99.9876   4.928764        4.928522        1027.0714  1027.0708  194.894     0.285                 0.0231         0.0117         31.70954  -64.12851  2.2982        2.6603        6.2934    6.3264    196.35    36.663      36.6618     19.2986            19.3032             19.2976            19.3022             
InVirTC3     2019-10-13T02:52:35Z    -0.0004      100.0095  4.927294        4.927566        1027.0724  1027.0693  194.966     -0.741                0.0295         0.0094         31.7092   -64.12494  2.2982        2.6612        6.2944    6.3313    196.422   36.6602     36.6579     19.2878            19.2924             19.293             19.2977             
InVirTC3     2019-10-13T02:52:35Z    0.0002       99.9932   4.927247        4.927075        1027.0759  1027.0736  195.945     -1.111                0.0302         0.0106         31.7092   -64.12494  2.2974        2.6602        6.2929    6.3225    197.409   36.6593     36.6566     19.288             19.2926             19.2893            19.294              
InVirTC3     2019-10-13T02:52:35Z    0.0002       99.9941   4.928041        4.927723        1027.078   1027.0774  196.001     0.638                 0.0219         0.0192         31.70954  -64.12852  2.2992        2.6624        6.2993    6.338     197.466   36.6628     36.6615     19.2915            19.2961             19.2899            19.2946             
InVirTC3     2019-10-13T02:52:35Z    -0.0006      100.0151  4.926478        4.926278        1027.0816  1027.079   196.995     -1.116                0.0252         0.0096         31.70919  -64.12495  2.2974        2.6607        6.3015    6.3282    198.468   36.6584     36.6554     19.2812            19.2859             19.2827            19.2873             
InVirTC3     2019-10-13T02:52:35Z    0.0003       99.9929   4.927184        4.926884        1027.0838  1027.0834  197.042     0.726                 0.0297         0.0042         31.70954  -64.12852  2.2994        2.6635        6.2979    6.3403    198.515   36.6619     36.6608     19.2839            19.2885             19.2823            19.287              
InVirTC3     2019-10-13T02:52:35Z    0.0006       99.9855   4.926612        4.926269        1027.0888  1027.0883  197.971     0.366                 0.026          0.0145         31.70954  -64.12851  2.2996        2.6611        6.3016    6.331     199.452   36.6613     36.6601     19.2788            19.2834             19.2769            19.2815             
InVirTC3     2019-10-13T02:52:35Z    -0.0005      100.0118  4.926114        4.925382        1027.0858  1027.0867  198.027     -1.011                0.0256         0.0096         31.70919  -64.12497  2.2964        2.6624        6.2968    6.3412    199.508   36.657      36.6562     19.2789            19.2835             19.2728            19.2775             
InVirTC3     2019-10-13T02:52:35Z    0.0003       99.9928   4.925221        4.924967        1027.0956  1027.0949  198.994     0.459                 0.0226         0.0169         31.70954  -64.12847  2.2981        2.6626        6.2948    6.3409    200.483   36.6601     36.6588     19.2665            19.2711             19.2655            19.2701             
InVirTC3     2019-10-13T02:52:35Z    -0.0007      100.0169  4.925545        4.924495        1027.0904  1027.0908  199.049     -0.872                0.0243         0.0093         31.7092   -64.12499  2.2939        2.6624        6.2857    6.3512    200.539   36.6557     36.6536     19.2745            19.2791             19.2669            19.2716             
InVirTC3     2019-10-13T02:52:35Z    0.0002       99.9941   4.925155        4.92488         1027.0997  1027.0993  199.979     0.686                 0.0271         0.0076         31.70954  -64.12846  2.2976        2.6624        6.2969    6.3402    201.476   36.6597     36.6586     19.2659            19.2705             19.2645            19.2691             
InVirTC3     2019-10-13T02:52:35Z    -0.0007      100.0162  4.924356        4.923016        1027.0967  1027.099   200.047     -0.659                0.0266         0.0093         31.7092   -64.125    2.293         2.6595        6.2794    6.3346    201.544   36.6546     36.6536     19.264             19.2686             19.2524            19.257              
InVirTC3     2019-10-13T02:52:35Z    0.001        99.9746   4.925406        4.925107        1027.1065  1027.1061  201.02      0.882                 0.025          0.0052         31.70954  -64.12848  2.2956        2.6623        6.2852    6.34      202.525   36.6623     36.6612     19.2649            19.2695             19.2633            19.2679             
InVirTC3     2019-10-13T02:52:35Z    -0.0002      100.0052  4.923034        4.923531        1027.1069  1027.1029  201.058     -0.509                0.0255         0.0094         31.7092   -64.12498  2.2931        2.657         6.2744    6.3103    202.563   36.6568     36.6543     19.2485            19.2531             19.2562            19.2608             
InVirTC3     2019-10-13T02:52:35Z    -0.0007      100.0169  4.923031        4.922553        1027.11    1027.1087  201.918     -0.923                0.0296         0.0096         31.7092   -64.12498  2.2975        2.6644        6.2967    6.3476    203.43    36.6562     36.6538     19.2489            19.2535             19.247             19.2517             
InVirTC3     2019-10-13T02:52:35Z    0.0002       99.9944   4.924848        4.924589        1027.112   1027.1114  202.108     0.444                 0.0275         0.0038         31.70954  -64.12846  2.3018        2.6659        6.3223    6.3578    203.621   36.6615     36.6603     19.26              19.2646             19.2589            19.2635             
InVirTC3     2019-10-13T02:52:35Z    0.0002       99.9941   4.924151        4.923768        1027.1173  1027.1167  202.94      0.371                 0.0254         0.0081         31.70954  -64.12845  2.3036        2.6665        6.3224    6.3516    204.46    36.6613     36.6599     19.2533            19.2579             19.2512            19.2558             
InVirTC3     2019-10-13T02:52:35Z    -0.0007      100.0167  4.922679        4.922029        1027.1144  1027.1145  202.953     -1.175                0.0265         0.0096         31.7092   -64.125    2.2993        2.6664        6.3116    6.3607    204.473   36.6551     36.6536     19.2463            19.2509             19.2418            19.2464             
InVirTC3     2019-10-13T02:52:35Z    -0.0007      100.0175  4.921901        4.921127        1027.1212  1027.1205  203.978     -1.058                0.0239         0.0092         31.7092   -64.12502  2.2996        2.6656        6.3103    6.3602    205.506   36.6553     36.6528     19.2383            19.2429             19.2337            19.2383             
InVirTC3     2019-10-13T02:52:35Z    0.0002       99.9953   4.923394        4.923098        1027.123   1027.1225  203.986     0.835                 0.0218         0.0133         31.70954  -64.12842  2.3022        2.665         6.3142    6.3505    205.515   36.6604     36.6593     19.2466            19.2512             19.2451            19.2497             
InVirTC3     2019-10-13T02:52:35Z    -0.0008      100.019   4.921333        4.920395        1027.1272  1027.1281  205.024     -0.819                0.025          0.0083         31.7092   -64.125    2.2982        2.6647        6.3085    6.3637    206.561   36.6552     36.6538     19.2324            19.2371             19.2251            19.2298             
InVirTC3     2019-10-13T02:52:35Z    0.0002       99.9941   4.923071        4.922775        1027.1285  1027.1281  205.029     1.035                 0.0219         0.0023         31.70954  -64.12842  2.3012        2.6662        6.3115    6.357     206.565   36.6604     36.6594     19.2431            19.2477             19.2415            19.2461             
InVirTC3     2019-10-13T02:52:35Z    -0.0007      100.0167  4.920436        4.919871        1027.1349  1027.1345  206.06      -0.641                0.0252         0.0063         31.7092   -64.125    2.2991        2.6625        6.3155    6.3536    207.606   36.6559     36.6542     19.2227            19.2273             19.2192            19.2238             
InVirTC3     2019-10-13T02:52:35Z    -0.0003      100.006   4.922894        4.922582        1027.1334  1027.1329  206.109     0.485                 0.0281         0.0033         31.70954  -64.12844  2.3021        2.6648        6.3222    6.353     207.655   36.6601     36.6589     19.2413            19.2459             19.2397            19.2444             
InVirTC3     2019-10-13T02:52:35Z    0.0001       99.9955   4.922245        4.921878        1027.1385  1027.1379  206.962     0.369                 0.0276         0.0039         31.70954  -64.12842  2.3006        2.6642        6.3123    6.3545    208.515   36.6597     36.6584     19.2352            19.2398             19.2333            19.2379             
InVirTC3     2019-10-13T02:52:35Z    -0.0007      100.0173  4.920026        4.92008         1027.1403  1027.1384  207.021     -0.703                0.0204         0.0169         31.7092   -64.125    2.2975        2.6602        6.3072    6.3474    208.574   36.656      36.6543     19.2182            19.2229             19.2207            19.2253             
InVirTC3     2019-10-13T02:52:35Z    -0.0007      100.0185  4.91948         4.919338        1027.1455  1027.1426  207.966     -0.962                0.0193         0.0048         31.7092   -64.125    2.2975        2.6596        6.3064    6.3509    209.526   36.6556     36.6525     19.2131            19.2178             19.2153            19.2199             
InVirTC3     2019-10-13T02:52:35Z    -0.0005      100.0118  4.921837        4.921517        1027.1447  1027.1441  208.001     0.738                 0.0261         0.0023         31.70954  -64.1284   2.3005        2.6656        6.3165    6.3632    209.562   36.6602     36.6589     19.2303            19.2349             19.2287            19.2333             
InVirTC3     2019-10-13T02:52:35Z    -0.0007      100.0168  4.919406        4.918455        1027.1491  1027.1497  208.991     -1.048                0.0252         0.0096         31.7092   -64.12502  2.299         2.6563        6.3157    6.3298    210.56    36.6544     36.6528     19.2133            19.218              19.2062            19.2108             
InVirTC3     2019-10-13T02:52:35Z    0.0002       99.9941   4.920399        4.920079        1027.1525  1027.1518  208.998     1.029                 0.0283         0.0087         31.70954  -64.1284   2.3008        2.6661        6.3217    6.3658    210.567   36.66       36.6586     19.2165            19.2211             19.215             19.2196             
InVirTC3     2019-10-13T02:52:35Z    -0.0007      100.0177  4.918373        4.917316        1027.1552  1027.1555  209.988     -0.939                0.024          0.0096         31.7092   -64.12506  2.2988        2.656         6.3125    6.3244    211.564   36.6536     36.6514     19.2041            19.2087             19.1965            19.2011             
InVirTC3     2019-10-13T02:52:35Z    -0.0008      100.0201  4.919479        4.919199        1027.1571  1027.1566  209.996     1.281                 0.0256         0.0169         31.70954  -64.1284   2.3027        2.667         6.3334    6.3704    211.572   36.6579     36.6568     19.2096            19.2143             19.2082            19.2128             
InVirTC3     2019-10-13T02:52:35Z    -0.0007      100.0182  4.91745         4.916737        1027.162   1027.1618  211.026     -0.703                0.0247         0.0096         31.7092   -64.12504  2.2994        2.6595        6.3112    6.3362    212.611   36.6534     36.6516     19.195             19.1996             19.1904            19.195              
InVirTC3     2019-10-13T02:52:35Z    -0.0006      100.0154  4.91928         4.918993        1027.1617  1027.1612  211.027     1.356                 0.0248         0.0169         31.70954  -64.1284   2.3027        2.6691        6.3366    6.3817    212.612   36.6574     36.6563     19.2079            19.2125             19.2064            19.211              
InVirTC3     2019-10-13T02:52:35Z    -0.0007      100.0187  4.916833        4.916801        1027.1704  1027.1672  212.075     -0.638                0.0217         0.0199         31.70919  -64.12505  2.302         2.6641        6.3258    6.344     213.668   36.6554     36.6523     19.1864            19.191              19.1896            19.1943             
InVirTC3     2019-10-13T02:52:35Z    -0.0007      100.0184  4.919077        4.918798        1027.1666  1027.1662  212.153     0.758                 0.0208         0.0134         31.70954  -64.12839  2.3           2.6683        6.3172    6.3742    213.746   36.6568     36.6558     19.2062            19.2108             19.2047            19.2093             
InVirTC3     2019-10-13T02:52:35Z    -0.0007      100.0178  4.919434        4.919079        1027.17    1027.1696  212.867     0.245                 0.0217         0.0068         31.70954  -64.12836  2.2959        2.6632        6.3016    6.3516    214.467   36.6578     36.6566     19.2081            19.2127             19.2061            19.2107             
InVirTC3     2019-10-13T02:52:35Z    -0.0007      100.0169  4.916891        4.916613        1027.1732  1027.1708  212.947     -0.885                0.022          0.0096         31.70919  -64.12505  2.3041        2.6727        6.335     6.3882    214.547   36.6545     36.6516     19.1877            19.1923             19.1883            19.1929             
InVirTC3     2019-10-13T02:52:35Z    -0.0007      100.0176  4.919108        4.918799        1027.1785  1027.178   213.979     0.699                 0.027          0.0072         31.70954  -64.12834  2.2974        2.6626        6.3173    6.3554    215.588   36.6604     36.6592     19.2017            19.2063             19.2001            19.2047             
InVirTC3     2019-10-13T02:52:35Z    -0.0007      100.0182  4.916461        4.916383        1027.179   1027.1767  213.991     -0.905                0.0229         0.0096         31.7092   -64.12504  2.3069        2.6758        6.3531    6.4055    215.6     36.6546     36.6522     19.183             19.1876             19.185             19.1896             
InVirTC3     2019-10-13T02:52:35Z    -0.0006      100.0149  4.918364        4.918058        1027.1843  1027.1838  215.006     1.08                  0.0274         0.0159         31.70954  -64.12834  2.3009        2.6691        6.3382    6.3878    216.623   36.6597     36.6585     19.1949            19.1995             19.1933            19.1979             
InVirTC3     2019-10-13T02:52:35Z    -0.0008      100.0191  4.916353        4.91612         1027.1833  1027.1827  215.018     -0.907                0.0225         0.005          31.7092   -64.12506  2.3059        2.6724        6.3485    6.3912    216.635   36.654      36.6529     19.1822            19.1868             19.1813            19.1859             
InVirTC3     2019-10-13T02:52:35Z    -0.0007      100.0168  4.917862        4.917581        1027.1887  1027.1882  215.992     1.361                 0.0239         0.0137         31.70954  -64.12835  2.3045        2.6724        6.3601    6.4134    217.617   36.6585     36.6574     19.191             19.1957             19.1896            19.1942             
InVirTC3     2019-10-13T02:52:35Z    -0.0007      100.0181  4.915834        4.915632        1027.1894  1027.1875  215.996     -0.897                0.0205         0.0104         31.70918  -64.12507  2.3059        2.6735        6.3501    6.4049    217.621   36.6544     36.6521     19.1764            19.1811             19.1771            19.1817             
InVirTC3     2019-10-13T02:52:35Z    -0.0008      100.0191  4.915271        4.914917        1027.196   1027.1942  217.007     -0.703                0.0205         0.008          31.70918  -64.12508  2.3056        2.6709        6.3555    6.3984    218.641   36.655      36.6524     19.1699            19.1745             19.1695            19.1741             
InVirTC3     2019-10-13T02:52:35Z    -0.0007      100.0172  4.917734        4.917453        1027.1933  1027.1929  217.016     1.497                 0.0215         0.0072         31.70953  -64.12836  2.3065        2.6751        6.3697    6.4194    218.649   36.6582     36.6572     19.1897            19.1943             19.1883            19.1929             
InVirTC3     2019-10-13T02:52:35Z    -0.0008      100.0207  4.915481        4.915094        1027.1999  1027.1985  218.087     -0.526                0.0267         0.003          31.70919  -64.12507  2.3043        2.6672        6.3572    6.3866    219.729   36.6546     36.6524     19.172             19.1766             19.1708            19.1754             
InVirTC3     2019-10-13T02:52:35Z    -0.0007      100.0177  4.916796        4.91639         1027.199   1027.1987  218.134     1.117                 0.0246         0.0091         31.70952  -64.12836  2.3072        2.6765        6.3614    6.4139    219.776   36.6566     36.6554     19.1822            19.1868             19.1797            19.1843             
InVirTC3     2019-10-13T02:52:35Z    -0.0007      100.017   4.916749        4.915756        1027.2018  1027.2018  218.821     0.306                 0.0205         0.0063         31.70953  -64.12833  2.3039        2.6692        6.3377    6.3732    220.469   36.6563     36.6539     19.1818            19.1864             19.175             19.1796             
InVirTC3     2019-10-13T02:52:35Z    -0.0007      100.018   4.91483         4.914493        1027.2044  1027.2031  218.912     -1.187                0.0313         0.0096         31.7092   -64.12507  2.2992        2.6635        6.3311    6.372     220.56    36.6538     36.6518     19.1663            19.1709             19.1654            19.17               
InVirTC3     2019-10-13T02:52:35Z    -0.0007      100.0187  4.914887        4.914557        1027.2093  1027.2087  219.977     0.67                  0.0198         0.0069         31.70954  -64.12831  2.3026        2.6668        6.3403    6.3756    221.634   36.654      36.6527     19.1662            19.1708             19.1645            19.1691             
InVirTC3     2019-10-13T02:52:35Z    -0.0007      100.0187  4.914372        4.9135          1027.2095  1027.2078  219.997     -1.479                0.0378         0.0128         31.70919  -64.12509  2.2998        2.6632        6.3408    6.3706    221.654   36.653      36.6493     19.1625            19.1671             19.1583            19.1629             
InVirTC3     2019-10-13T02:52:35Z    -0.0009      100.0233  4.914287        4.913982        1027.2145  1027.214   220.993     1.087                 0.0227         0.0096         31.70954  -64.12828  2.3018        2.6662        6.3377    6.3782    222.658   36.6532     36.6521     19.1609            19.1655             19.1593            19.1639             
InVirTC3     2019-10-13T02:52:35Z    -0.0008      100.0201  4.913902        4.912642        1027.214   1027.2138  221.007     -1.34                 0.0335         0.0169         31.70918  -64.12509  2.2982        2.6618        6.3264    6.3622    222.672   36.6518     36.6486     19.1588            19.1634             19.1505            19.155              
InVirTC3     2019-10-13T02:52:35Z    -0.0008      100.0201  4.913859        4.913592        1027.2197  1027.219   222.007     1.378                 0.0235         0.0169         31.70954  -64.1283   2.3014        2.666         6.3368    6.3787    223.68    36.6529     36.6516     19.1568            19.1614             19.1557            19.1603             
InVirTC3     2019-10-13T02:52:35Z    -0.0007      100.0168  4.913061        4.912364        1027.2193  1027.2193  222.011     -1.005                0.0285         0.0105         31.70918  -64.12508  2.2965        2.6616        6.3159    6.3651    223.685   36.6505     36.649      19.1519            19.1565             19.147             19.1516             
InVirTC3     2019-10-13T02:52:35Z    -0.0008      100.0189  4.912794        4.912697        1027.2264  1027.2242  223.044     -0.536                0.028          0.0124         31.70918  -64.12511  2.2973        2.664         6.329     6.3767    224.726   36.6523     36.65       19.1469            19.1515             19.1486            19.1532             
InVirTC3     2019-10-13T02:52:35Z    -0.0007      100.0185  4.913157        4.912881        1027.2246  1027.224   223.101     1.296                 0.0196         0.0052         31.70953  -64.12831  2.2998        2.6618        6.3322    6.362     224.784   36.6511     36.65       19.1516            19.1562             19.1503            19.1549             
InVirTC3     2019-10-13T02:52:35Z    -0.0008      100.0205  4.913529        4.913093        1027.227   1027.2266  223.828     0.324                 0.0263         0.006          31.70953  -64.12831  2.2952        2.6577        6.3132    6.3528    225.516   36.6512     36.6498     19.1547            19.1593             19.1522            19.1568             
InVirTC3     2019-10-13T02:52:35Z    -0.001       100.0259  4.912921        4.912494        1027.2298  1027.2279  224.08      -0.428                0.0256         0.0111         31.7092   -64.1251   2.2977        2.6619        6.3345    6.3781    225.77    36.6514     36.6486     19.1487            19.1533             19.1478            19.1524             
InVirTC3     2019-10-13T02:52:35Z    -0.0008      100.0191  4.912094        4.911485        1027.2351  1027.2334  224.964     -1.237                0.0281         0.0181         31.70919  -64.12512  2.2953        2.6569        6.322     6.36      226.661   36.6506     36.6477     19.1413            19.1459             19.1389            19.1434             
InVirTC3     2019-10-13T02:52:35Z    -0.0008      100.0201  4.913021        4.91272         1027.2332  1027.2327  224.988     0.637                 0.0252         0.0029         31.70954  -64.12828  2.2925        2.6585        6.3079    6.3626    226.685   36.651      36.6497     19.1497            19.1543             19.1482            19.1528             
InVirTC3     2019-10-13T02:52:35Z    -0.0008      100.0201  4.912586        4.912287        1027.2397  1027.2392  225.95      0.982                 0.0281         0.0042         31.70952  -64.12828  2.292         2.6595        6.308     6.3685    227.656   36.652      36.6508     19.144             19.1486             19.1425            19.1471             
InVirTC3     2019-10-13T02:52:35Z    -0.0009      100.0215  4.911249        4.910252        1027.24    1027.2394  226.034     -1.156                0.0242         0.0184         31.70918  -64.12512  2.2951        2.6564        6.3257    6.3593    227.74    36.6487     36.6459     19.1349            19.1395             19.1287            19.1333             
InVirTC3     2019-10-13T02:52:35Z    -0.0008      100.0201  4.911875        4.911561        1027.2464  1027.2458  226.947     1.261                 0.0262         0.0055         31.70952  -64.12828  2.2931        2.6571        6.3171    6.361     228.66    36.6524     36.6511     19.1363            19.1409             19.1349            19.1394             
InVirTC3     2019-10-13T02:52:35Z    -0.0009      100.0215  4.910363        4.908751        1027.245   1027.245   227.032     -0.982                0.0197         0.0096         31.7092   -64.12516  2.2957        2.6562        6.3305    6.3598    228.746   36.6472     36.6434     19.1278            19.1324             19.1168            19.1214             
InVirTC3     2019-10-13T02:52:35Z    -0.0007      100.0166  4.910825        4.910535        1027.2521  1027.2516  228.027     1.505                 0.0248         0.0028         31.70952  -64.12828  2.2922        2.6546        6.3189    6.3461    229.749   36.6508     36.6496     19.1278            19.1323             19.1264            19.1309             
InVirTC3     2019-10-13T02:52:35Z    -0.0008      100.0211  4.909712        4.908435        1027.2505  1027.2502  228.031     -0.847                0.0213         0.0096         31.7092   -64.12512  2.2948        2.6557        6.3248    6.354     229.753   36.6466     36.6433     19.1219            19.1265             19.1135            19.118              
InVirTC3     2019-10-13T02:52:35Z    -0.0013      100.034   4.9089          4.908838        1027.2569  1027.254   229.007     -0.839                0.0201         0.0096         31.7092   -64.12514  2.2948        2.6572        6.3208    6.362     230.737   36.6466     36.6437     19.1138            19.1184             19.1165            19.121              
InVirTC3     2019-10-13T02:52:35Z    -0.0007      100.0182  4.91036         4.910052        1027.2569  1027.2565  229.022     1.648                 0.0268         0.0023         31.70952  -64.12828  2.292         2.6562        6.3165    6.3518    230.752   36.6499     36.6488     19.1238            19.1284             19.1222            19.1267             
InVirTC3     2019-10-13T02:52:35Z    -0.0016      100.0407  4.9084          4.90793         1027.2614  1027.2591  229.975     -0.891                0.0216         0.0086         31.7092   -64.12514  2.2965        2.6584        6.3272    6.3615    231.713   36.6456     36.6423     19.1097            19.1143             19.109             19.1135             
InVirTC3     2019-10-13T02:52:35Z    -0.0008      100.0212  4.909492        4.909193        1027.2623  1027.2618  230.028     1.574                 0.0268         0.0159         31.70952  -64.12828  2.292         2.6561        6.3169    6.3636    231.766   36.6488     36.6476     19.1165            19.1211             19.115             19.1195             
InVirTC3     2019-10-13T02:52:35Z    -0.001       100.0257  4.909827        4.909064        1027.2644  1027.2646  230.845     0.443                 0.0262         0.0085         31.70953  -64.12826  2.2907        2.6541        6.3127    6.3554    232.59    36.648      36.6464     19.1202            19.1247             19.1147            19.1193             
InVirTC3     2019-10-13T02:52:35Z    -0.0017      100.0422  4.907924        4.906893        1027.2663  1027.2668  230.992     -0.853                0.0255         0.0034         31.7092   -64.12513  2.2989        2.6608        6.3362    6.3664    232.738   36.6447     36.6428     19.1057            19.1103             19.0981            19.1027             
InVirTC3     2019-10-13T02:52:35Z    -0.0008      100.0191  4.908444        4.908151        1027.272   1027.2715  231.979     0.612                 0.0262         0.0023         31.70952  -64.12824  2.2915        2.6524        6.3247    6.3508    233.733   36.6472     36.646      19.1075            19.112              19.106             19.1106             
InVirTC3     2019-10-13T02:52:35Z    -0.0017      100.0442  4.907423        4.906856        1027.2716  1027.2714  232.002     -0.74                 0.0269         0.0112         31.7092   -64.12515  2.3016        2.6646        6.3507    6.3806    233.756   36.6443     36.6427     19.1011            19.1056             19.0974            19.102              
InVirTC3     2019-10-13T02:52:35Z    -0.0008      100.0213  4.908059        4.907781        1027.2771  1027.2766  232.985     0.916                 0.025          0.0063         31.70952  -64.12824  2.2915        2.6504        6.3204    6.3412    234.747   36.6468     36.6457     19.1039            19.1084             19.1024            19.107              
InVirTC3     2019-10-13T02:52:35Z    -0.0013      100.0342  4.907191        4.906789        1027.2803  1027.2787  233.034     -0.59                 0.0303         0.0202         31.70919  -64.12515  2.3039        2.6691        6.3622    6.4007    234.797   36.6476     36.6451     19.0947            19.0992             19.0936            19.0982             
InVirTC3     2019-10-13T02:52:35Z    -0.0008      100.0189  4.907585        4.907292        1027.2828  1027.2822  234         1.07                  0.0293         0.0159         31.70952  -64.12824  2.2918        2.653         6.3252    6.3602    235.771   36.6467     36.6455     19.0989            19.1035             19.0976            19.1022             
InVirTC3     2019-10-13T02:52:35Z    -0.0008      100.0207  4.907427        4.907263        1027.2853  1027.2838  234.028     -0.546                0.0274         0.0116         31.70919  -64.12516  2.3054        2.6722        6.3747    6.4246    235.798   36.6486     36.6468     19.0952            19.0998             19.0958            19.1004             
InVirTC3     2019-10-13T02:52:35Z    -0.0007      100.0187  4.908138        4.907716        1027.2897  1027.2882  234.925     -0.947                0.0284         0.0059         31.7092   -64.12516  2.3043        2.6685        6.3754    6.4116    236.703   36.6507     36.6482     19.0993            19.1039             19.0981            19.1027             
InVirTC3     2019-10-13T02:52:35Z    -0.0009      100.0215  4.90744         4.907146        1027.2871  1027.2866  235.013     1.177                 0.0315         0.0169         31.70952  -64.12824  2.2909        2.6527        6.3199    6.3638    236.792   36.6462     36.645      19.0977            19.1023             19.0963            19.1009             
InVirTC3     2019-10-13T02:52:35Z    -0.0007      100.0179  4.908056        4.907687        1027.2945  1027.2923  235.983     -1.33                 0.0305         0.0096         31.7092   -64.12516  2.3012        2.6658        6.3583    6.3995    237.77    36.6505     36.6475     19.0983            19.1029             19.0981            19.1027             
InVirTC3     2019-10-13T02:52:35Z    -0.0008      100.0201  4.908127        4.907847        1027.2924  1027.2919  236.003     1.267                 0.0307         0.0154         31.70952  -64.12824  2.2917        2.6545        6.3232    6.3668    237.789   36.6485     36.6474     19.1012            19.1058             19.0998            19.1044             
InVirTC3     2019-10-13T02:52:35Z    -0.0007      100.0181  4.908437        4.908173        1027.298   1027.2975  237.02      1.214                 0.0258         0.0076         31.70952  -64.12825  2.2919        2.6547        6.3284    6.3696    238.815   36.6503     36.6492     19.1017            19.1063             19.1005            19.1051             
InVirTC3     2019-10-13T02:52:35Z    -0.0008      100.0201  4.908029        4.907129        1027.2988  1027.2975  237.045     -1.438                0.0314         0.0096         31.7092   -64.12517  2.3016        2.6639        6.3656    6.3937    238.841   36.6499     36.6467     19.0982            19.1028             19.0934            19.0979             
InVirTC3     2019-10-13T02:52:35Z    -0.0015      100.0385  4.907509        4.90668         1027.3034  1027.3028  238.013     -1.249                0.0292         0.0096         31.7092   -64.12518  2.3011        2.6648        6.3682    6.3959    239.816   36.6489     36.6464     19.094             19.0986             19.089             19.0935             
InVirTC3     2019-10-13T02:52:35Z    -0.0008      100.0193  4.909149        4.908857        1027.3037  1027.3031  238.018     0.907                 0.0244         0.0079         31.70952  -64.12825  2.2946        2.661         6.3406    6.3951    239.822   36.6531     36.6519     19.1049            19.1095             19.1035            19.1081             
InVirTC3     2019-10-13T02:52:35Z    -0.0007      100.0174  4.90915         4.908854        1027.308   1027.3074  238.983     0.661                 0.0266         0.0079         31.70952  -64.12821  2.3014        2.6663        6.3776    6.4161    240.794   36.653      36.6518     19.1046            19.1091             19.1031            19.1077             
InVirTC3     2019-10-13T02:52:35Z    -0.0011      100.0266  4.906802        4.906345        1027.3093  1027.3084  239.027     -0.862                0.0221         0.0096         31.70918  -64.1252   2.3001        2.6642        6.3654    6.3929    240.839   36.6486     36.6467     19.0873            19.0919             19.0851            19.0897             
InVirTC3     2019-10-13T02:52:35Z    -0.0007      100.0184  4.909115        4.90883         1027.3127  1027.3121  240.004     0.693                 0.0277         0.0086         31.70952  -64.1282   2.3053        2.6698        6.3881    6.4204    241.824   36.653      36.6518     19.1038            19.1083             19.1024            19.107              
InVirTC3     2019-10-13T02:52:35Z    -0.0012      100.0315  4.90749         4.907256        1027.3141  1027.3123  240.048     -0.345                0.0193         0.0137         31.70918  -64.1252   2.2982        2.6652        6.3513    6.4045    241.868   36.6504     36.6481     19.0913            19.0958             19.0916            19.0962             
InVirTC3     2019-10-13T02:52:35Z    -0.0008      100.0213  4.906566        4.906394        1027.317   1027.3153  240.864     -0.586                0.0198         0.0186         31.7092   -64.12518  2.2973        2.6617        6.352     6.3962    242.691   36.6475     36.6454     19.0854            19.09               19.0861            19.0907             
InVirTC3     2019-10-13T02:52:35Z    -0.0008      100.0191  4.909127        4.908839        1027.3174  1027.3168  241.023     0.848                 0.0257         0.0166         31.70952  -64.12822  2.3066        2.6713        6.3858    6.4256    242.852   36.6532     36.652      19.1033            19.1079             19.1019            19.1065             
InVirTC3     2019-10-13T02:52:35Z    -0.0007      100.0182  4.908986        4.908688        1027.3218  1027.3212  241.99      0.877                 0.0254         0.0086         31.70952  -64.12822  2.3055        2.671         6.3766    6.4175    243.826   36.6529     36.6516     19.1018            19.1064             19.1004            19.105              
InVirTC3     2019-10-13T02:52:35Z    -0.0008      100.0188  4.904836        4.904529        1027.3245  1027.3216  242.006     -1.487                0.016          0.0187         31.7092   -64.1252   2.2971        2.6577        6.3575    6.3808    243.842   36.6457     36.6422     19.0705            19.0751             19.0716            19.0761             
InVirTC3     2019-10-13T02:52:35Z    -0.0007      100.0185  4.904824        4.903292        1027.3275  1027.3292  242.991     -1.464                0.0177         0.0169         31.70918  -64.12518  2.2949        2.66          6.3426    6.3892    244.835   36.6443     36.6423     19.0716            19.0762             19.0593            19.0638             
InVirTC3     2019-10-13T02:52:35Z    -0.0012      100.0303  4.908907        4.908606        1027.3264  1027.3258  243.009     0.833                 0.0252         0.0127         31.70952  -64.12821  2.3052        2.6698        6.3749    6.4128    244.853   36.6528     36.6515     19.1008            19.1054             19.0994            19.104              
InVirTC3     2019-10-13T02:52:35Z    -0.0008      100.0201  4.908611        4.908272        1027.3314  1027.3308  243.978     0.702                 0.0227         0.0044         31.70952  -64.12819  2.3073        2.6725        6.3921    6.4296    245.83    36.6527     36.6514     19.0976            19.1022             19.0959            19.1005             
InVirTC3     2019-10-13T02:52:35Z    -0.0007      100.0184  4.90403         4.90257         1027.3331  1027.3333  243.982     -1.176                0.0177         0.0169         31.70918  -64.12519  2.2939        2.6588        6.3415    6.3824    245.834   36.6435     36.6403     19.0644            19.069              19.0542            19.0588             
InVirTC3     2019-10-13T02:52:35Z    -0.0008      100.0189  4.907207        4.906874        1027.3383  1027.3376  244.959     0.782                 0.0229         0.0089         31.70952  -64.12817  2.3055        2.6703        6.3778    6.4204    246.819   36.6517     36.6503     19.085             19.0896             19.0834            19.088              
InVirTC3     2019-10-13T02:52:35Z    -0.001       100.0259  4.90273         4.902215        1027.3404  1027.3397  245.019     -0.702                0.0217         0.0169         31.70918  -64.1252   2.2949        2.6594        6.3483    6.3905    246.88    36.6429     36.6411     19.0523            19.0569             19.0495            19.0541             
InVirTC3     2019-10-13T02:52:35Z    -0.0008      100.0201  4.905283        4.90503         1027.3449  1027.3445  245.979     1.043                 0.0226         0.0087         31.70952  -64.12816  2.3053        2.6679        6.3797    6.4056    247.848   36.6492     36.6481     19.0691            19.0737             19.0679            19.0725             
InVirTC3     2019-10-13T02:52:35Z    -0.0011      100.0281  4.903234        4.902834        1027.3453  1027.3437  246.202     -0.245                0.019          0.0117         31.70919  -64.12524  2.295         2.6608        6.3512    6.4028    248.072   36.6437     36.6413     19.0557            19.0603             19.0546            19.0592             
InVirTC3     2019-10-13T02:52:35Z    -0.0009      100.0227  4.902367        4.902174        1027.3491  1027.3473  246.822     -0.981                0.0223         0.0106         31.7092   -64.1252   2.294         2.6575        6.3508    6.3902    248.698   36.6427     36.6405     19.0484            19.053              19.049             19.0536             
InVirTC3     2019-10-13T02:52:35Z    -0.0008      100.0201  4.90476         4.904476        1027.3493  1027.3487  247.012     1.294                 0.0222         0.0087         31.70952  -64.12816  2.3037        2.6672        6.3761    6.4059    248.889   36.6476     36.6464     19.0655            19.07               19.0641            19.0687             
InVirTC3     2019-10-13T02:52:35Z    -0.0015      100.0389  4.901991        4.901832        1027.3547  1027.3518  247.958     -1.358                0.0249         0.0169         31.7092   -64.12524  2.2933        2.6575        6.351     6.3944    249.843   36.6422     36.6391     19.0449            19.0494             19.0469            19.0514             
InVirTC3     2019-10-13T02:52:35Z    -0.0007      100.0184  4.904696        4.904416        1027.3537  1027.3533  248.026     1.457                 0.0245         0.012          31.70952  -64.12816  2.3037        2.6674        6.3749    6.4136    249.911   36.6474     36.6463     19.0647            19.0693             19.0632            19.0678             
InVirTC3     2019-10-13T02:52:35Z    -0.0008      100.0201  4.901645        4.901142        1027.3585  1027.3572  248.978     -1.28                 0.0235         0.0169         31.7092   -64.12522  2.2916        2.6555        6.3409    6.3885    250.871   36.6407     36.6383     19.0428            19.0474             19.0408            19.0454             
InVirTC3     2019-10-13T02:52:35Z    -0.0008      100.0189  4.904717        4.904431        1027.3582  1027.3577  249.049     1.474                 0.0231         0.0136         31.70952  -64.12817  2.3017        2.6667        6.3687    6.4139    250.942   36.6473     36.6462     19.0645            19.0691             19.0631            19.0676             
InVirTC3     2019-10-13T02:52:35Z    -0.0008      100.0194  4.904918        4.904503        1027.3615  1027.3612  249.928     0.535                 0.0212         0.0064         31.70952  -64.12818  2.2974        2.6648        6.3513    6.407     251.828   36.6472     36.6459     19.0662            19.0708             19.0637            19.0683             
InVirTC3     2019-10-13T02:52:35Z    -0.0009      100.0215  4.90116         4.900188        1027.3639  1027.3635  250.029     -1.063                0.0227         0.0169         31.7092   -64.12523  2.2911        2.6543        6.3409    6.3856    251.931   36.6402     36.6375     19.0383            19.0428             19.0321            19.0367             
InVirTC3     2019-10-13T02:52:35Z    -0.0008      100.0201  4.904393        4.903997        1027.3676  1027.367   250.972     0.536                 0.0231         0.0161         31.70952  -64.12814  2.2991        2.6638        6.3746    6.408     252.881   36.6473     36.6458     19.0607            19.0652             19.0585            19.0631             
InVirTC3     2019-10-13T02:52:35Z    -0.0017      100.0435  4.899992        4.89933         1027.3699  1027.37    251.066     -0.707                0.0228         0.0151         31.70919  -64.12525  2.2914        2.6535        6.3509    6.3809    252.976   36.6387     36.6372     19.0284            19.033              19.0239            19.0284             
InVirTC3     2019-10-13T02:52:35Z    -0.0014      100.0357  4.904326        4.904035        1027.3722  1027.3716  252.007     0.932                 0.0242         0.0074         31.70952  -64.1281   2.2982        2.6622        6.3652    6.4007    253.925   36.6471     36.6458     19.0598            19.0644             19.0585            19.0631             
InVirTC3     2019-10-13T02:52:35Z    -0.0017      100.043   4.899296        4.898781        1027.3777  1027.3764  252.135     -0.36                 0.0254         0.0094         31.70919  -64.12525  2.2902        2.6534        6.3482    6.3925    254.054   36.6399     36.6374     19.02              19.0246             19.0179            19.0225             
InVirTC3     2019-10-13T02:52:35Z    -0.0008      100.0214  4.898752        4.898607        1027.3814  1027.3795  252.964     -0.635                0.0204         0.0064         31.7092   -64.12524  2.2864        2.6489        6.3374    6.3757    254.89    36.6386     36.6364     19.016             19.0205             19.017             19.0216             
InVirTC3     2019-10-13T02:52:35Z    -0.001       100.0251  4.903973        4.903692        1027.378   1027.3773  253.02      1.122                 0.0235         0.0152         31.70951  -64.12811  2.2982        2.6625        6.3639    6.4039    254.946   36.6474     36.646      19.0557            19.0603             19.0545            19.0591             
InVirTC3     2019-10-13T02:52:35Z    -0.0008      100.019   4.898089        4.897582        1027.3865  1027.3845  253.991     -1.351                0.0225         0.0096         31.70918  -64.12526  2.2823        2.6453        6.3173    6.368     255.925   36.6375     36.6344     19.0104            19.015              19.0091            19.0137             
InVirTC3     2019-10-13T02:52:35Z    -0.0007      100.017   4.903047        4.902762        1027.3834  1027.3829  254.024     1.217                 0.0264         0.0122         31.7095   -64.12813  2.2973        2.6625        6.3623    6.4095    255.958   36.6461     36.6449     19.0479            19.0524             19.0465            19.0511             
InVirTC3     2019-10-13T02:52:35Z    -0.0011      100.0288  4.897526        4.896458        1027.3907  1027.3903  254.981     -1.434                0.0222         0.0096         31.70918  -64.12528  2.2814        2.6449        6.3176    6.3675    256.923   36.636      36.633      19.0064            19.0109             18.9995            19.0041             
InVirTC3     2019-10-13T02:52:35Z    -0.0007      100.0187  4.902259        4.902032        1027.39    1027.3894  255.004     1.292                 0.0284         0.0084         31.7095   -64.12814  2.2984        2.6616        6.369     6.4059    256.947   36.6463     36.6451     19.0397            19.0443             19.0389            19.0435             
InVirTC3     2019-10-13T02:52:35Z    -0.0017      100.0429  4.896379        4.895359        1027.396   1027.3957  256.006     -1.215                0.0242         0.0091         31.70919  -64.12528  2.2816        2.6426        6.3201    6.357     257.956   36.6339     36.6312     18.9974            19.002              18.9907            18.9952             
InVirTC3     2019-10-13T02:52:35Z    -0.0007      100.0187  4.901369        4.901074        1027.3957  1027.3952  256.032     1.349                 0.0272         0.0169         31.7095   -64.12814  2.299         2.6622        6.3787    6.4098    257.983   36.6452     36.644      19.032             19.0366             19.0306            19.0352             
InVirTC3     2019-10-13T02:52:35Z    -0.0017      100.0446  4.895441        4.894214        1027.4023  1027.4027  257.016     -0.884                0.0201         0.0083         31.7092   -64.12528  2.2807        2.6419        6.3161    6.3532    258.975   36.6334     36.6309     18.9886            18.9931             18.9797            18.9843             
InVirTC3     2019-10-13T02:52:35Z    -0.0008      100.0201  4.90038         4.900075        1027.4017  1027.4011  257.117     1.145                 0.0252         0.0051         31.70951  -64.12813  2.2974        2.6632        6.3676    6.419     259.078   36.644      36.6427     19.0236            19.0281             19.0221            19.0267             
InVirTC3     2019-10-13T02:52:35Z    -0.0013      100.0334  4.899989        4.899784        1027.4053  1027.4045  257.872     0.402                 0.0279         0.0123         31.70952  -64.12812  2.297         2.6607        6.3686    6.4054    259.839   36.6432     36.642      19.0204            19.025              19.0199            19.0244             
InVirTC3     2019-10-13T02:52:35Z    -0.0017      100.0442  4.894607        4.894007        1027.4078  1027.4088  258.048     -0.573                0.0185         0.005          31.7092   -64.12528  2.2802        2.6423        6.3181    6.3551    260.016   36.6322     36.6318     18.9815            18.9861             18.9763            18.9809             
InVirTC3     2019-10-13T02:52:35Z    -0.0009      100.0214  4.89869         4.898371        1027.4121  1027.4115  258.962     0.66                  0.0252         0.0089         31.70952  -64.12808  2.2965        2.6585        6.3698    6.4042    260.937   36.642      36.6406     19.0089            19.0135             19.0075            19.012              
InVirTC3     2019-10-13T02:52:35Z    -0.0017      100.0438  4.894051        4.893972        1027.4147  1027.4125  258.988     -0.644                0.0201         0.0133         31.7092   -64.12528  2.2795        2.6446        6.3138    6.3659    260.964   36.6334     36.6311     18.9745            18.979              18.9763            18.9808             
InVirTC3     2019-10-13T02:52:35Z    -0.0007      100.0186  4.898228        4.897932        1027.4173  1027.4166  259.977     1.044                 0.021          0.0023         31.70952  -64.12807  2.2954        2.658         6.3641    6.3963    261.961   36.6415     36.6401     19.0047            19.0093             19.0034            19.0079             
InVirTC3     2019-10-13T02:52:35Z    -0.0011      100.0285  4.893353        4.893238        1027.4208  1027.4182  260.009     -0.637                0.0235         0.0087         31.70919  -64.1253   2.2795        2.646         6.3151    6.3808    261.993   36.6332     36.6304     18.9676            18.9722             18.9696            18.9742             
InVirTC3     2019-10-13T02:52:35Z    -0.0012      100.0315  4.898202        4.897937        1027.4219  1027.4214  260.992     1.33                  0.0223         0.0037         31.70952  -64.1281   2.2959        2.6576        6.3676    6.4009    262.985   36.6415     36.6404     19.004             19.0086             19.0027            19.0073             
InVirTC3     2019-10-13T02:52:35Z    -0.0016      100.042   4.89344         4.893222        1027.4253  1027.4236  261.06      -0.563                0.0225         0.0059         31.7092   -64.12529  2.2801        2.6427        6.3252    6.372     263.053   36.6332     36.6311     18.9679            18.9725             18.9683            18.9729             
InVirTC3     2019-10-13T02:52:35Z    -0.0016      100.041   4.893272        4.892912        1027.4292  1027.4277  261.952     -1.202                0.0231         0.0072         31.7092   -64.12528  2.2775        2.6386        6.3088    6.3508    263.952   36.6327     36.6304     18.9666            18.9711             18.9657            18.9702             
InVirTC3     2019-10-13T02:52:35Z    -0.0016      100.0416  4.898038        4.897745        1027.4272  1027.4267  262.039     1.419                 0.0225         0.0074         31.7095   -64.12812  2.2941        2.6572        6.3633    6.4034    264.041   36.6417     36.6404     19.0018            19.0063             19.0004            19.0049             
InVirTC3     2019-10-13T02:52:35Z    -0.0016      100.0418  4.893164        4.892817        1027.4338  1027.4321  262.968     -1.635                0.0246         0.0023         31.70919  -64.1253   2.2777        2.6384        6.3091    6.3511    264.976   36.6325     36.6301     18.9653            18.9699             18.9648            18.9693             
InVirTC3     2019-10-13T02:52:35Z    -0.0016      100.0401  4.897107        4.896769        1027.433   1027.4324  263.036     0.795                 0.0267         0.01           31.7095   -64.12811  2.2925        2.6583        6.3559    6.4113    265.045   36.6406     36.6393     18.9936            18.9982             18.9919            18.9965             
InVirTC3     2019-10-13T02:52:35Z    -0.0013      100.0319  4.895474        4.895264        1027.4377  1027.4371  263.901     0.453                 0.0238         0.0169         31.7095   -64.12808  2.291         2.6593        6.3549    6.4167    265.918   36.6376     36.6365     18.9811            18.9857             18.9804            18.9849             
InVirTC3     2019-10-13T02:52:35Z    -0.0018      100.0461  4.893138        4.892701        1027.4381  1027.4364  263.96      -1.496                0.026          0.008          31.70918  -64.12532  2.2785        2.6396        6.3168    6.3594    265.976   36.6322     36.6296     18.9649            18.9695             18.9637            18.9683             
InVirTC3     2019-10-13T02:52:35Z    -0.0017      100.0434  4.895235        4.894926        1027.4424  1027.4418  264.962     0.796                 0.0297         0.0154         31.7095   -64.12806  2.2891        2.6577        6.3481    6.411     266.987   36.637      36.6358     18.9791            18.9836             18.9776            18.9821             
InVirTC3     2019-10-13T02:52:35Z    -0.0017      100.0426  4.892874        4.892458        1027.4425  1027.4411  264.989     -1.124                0.0273         0.0096         31.70918  -64.1253   2.2789        2.6405        6.3227    6.3672    267.014   36.6314     36.6291     18.963             18.9675             18.9616            18.9661             
InVirTC3     2019-10-13T02:52:35Z    -0.0017      100.0426  4.895195        4.894984        1027.4472  1027.4464  265.975     1.134                 0.0286         0.0023         31.7095   -64.12804  2.2882        2.6532        6.3434    6.3875    268.008   36.6372     36.6359     18.9781            18.9827             18.9775            18.9821             
InVirTC3     2019-10-13T02:52:35Z    -0.0017      100.043   4.892675        4.892575        1027.448   1027.4464  266.028     -0.622                0.0264         0.0169         31.70919  -64.12532  2.2791        2.6396        6.3293    6.3694    268.062   36.6318     36.63       18.9602            18.9648             18.9613            18.9658             
InVirTC3     2019-10-13T02:52:35Z    -0.0016      100.0409  4.894969        4.894739        1027.4517  1027.4514  267.009     1.42                  0.0253         0.0023         31.7095   -64.12804  2.2878        2.6519        6.344     6.3797    269.051   36.6365     36.6356     18.9763            18.9808             18.975             18.9796             
InVirTC3     2019-10-13T02:52:35Z    -0.0017      100.0426  4.892849        4.892657        1027.4525  1027.4505  267.185     -0.376                0.0267         0.0103         31.7092   -64.12534  2.2738        2.6338        6.3149    6.3562    269.229   36.6315     36.6292     18.9616            18.9662             18.9624            18.967              
InVirTC3     2019-10-13T02:52:35Z    -0.0017      100.0426  4.891505        4.891014        1027.4567  1027.455   267.955     -1.317                0.026          0.0096         31.7092   -64.12532  2.2674        2.6251        6.2971    6.335     270.006   36.629      36.6263     18.9514            18.9559             18.9498            18.9543             
InVirTC3     2019-10-13T02:52:35Z    -0.0017      100.0442  4.894882        4.894591        1027.4566  1027.456   268.038     1.617                 0.0248         0.0023         31.7095   -64.12804  2.2869        2.651         6.3439    6.3817    270.089   36.6365     36.6352     18.975             18.9795             18.9736            18.9782             
InVirTC3     2019-10-13T02:52:35Z    -0.0016      100.0418  4.890979        4.889457        1027.4618  1027.4614  268.962     -1.263                0.0222         0.0027         31.7092   -64.12536  2.2642        2.6213        6.2789    6.3209    271.02    36.6283     36.6244     18.9467            18.9512             18.9366            18.9412             
InVirTC3     2019-10-13T02:52:35Z    -0.0017      100.0434  4.894193        4.893931        1027.4628  1027.4622  269.055     1.655                 0.034          0.0111         31.7095   -64.12806  2.287         2.6503        6.3466    6.3886    271.114   36.6365     36.6352     18.968             18.9726             18.9669            18.9715             
InVirTC3     2019-10-13T02:52:35Z    -0.0014      100.036   4.894295        4.893604        1027.4644  1027.4649  269.804     0.485                 0.0316         0.0135         31.7095   -64.12806  2.2838        2.6448        6.3353    6.3724    271.869   36.635      36.6338     18.9703            18.9748             18.9651            18.9696             
InVirTC3     2019-10-13T02:52:35Z    -0.0017      100.0434  4.889934        4.888956        1027.467   1027.467   270.007     -1.079                0.0202         0.0023         31.7092   -64.12535  2.2612        2.618         6.2637    6.301     272.073   36.6264     36.624      18.9385            18.943              18.9318            18.9364             
InVirTC3     2019-10-13T02:52:35Z    -0.0017      100.0429  4.893143        4.892846        1027.4714  1027.4709  270.986     0.798                 0.0275         0.0082         31.7095   -64.12798  2.2823        2.6434        6.3362    6.3832    273.061   36.6339     36.6327     18.9601            18.9647             18.9586            18.9632             
InVirTC3     2019-10-13T02:52:35Z    -0.0018      100.0449  4.889259        4.888804        1027.4716  1027.4718  271.024     -0.915                0.0262         0.0037         31.7092   -64.12535  2.2606        2.6156        6.2626    6.2923    273.099   36.6248     36.6239     18.9334            18.9379             18.9301            18.9346             
InVirTC3     2019-10-13T02:52:35Z    -0.0017      100.0432  4.889105        4.888518        1027.4762  1027.4756  272.003     -0.866                0.0261         0.0077         31.7092   -64.12536  2.2606        2.6172        6.2685    6.2998    274.087   36.6246     36.6227     18.9317            18.9363             18.9282            18.9328             
InVirTC3     2019-10-13T02:52:35Z    -0.0016      100.0418  4.893112        4.892827        1027.4764  1027.4759  272.061     1.314                 0.0252         0.0084         31.7095   -64.128    2.2823        2.6419        6.3362    6.3695    274.145   36.634      36.6329     18.9592            18.9638             18.9578            18.9624             
InVirTC3     2019-10-13T02:52:35Z    -0.0017      100.0442  4.888176        4.887493        1027.4818  1027.4808  272.974     -0.78                 0.0213         0.0023         31.7092   -64.12535  2.2599        2.6172        6.2651    6.2984    275.066   36.6236     36.621      18.9236            18.9282             18.92              18.9245             
InVirTC3     2019-10-13T02:52:35Z    -0.0017      100.0435  4.89304         4.892754        1027.4807  1027.4801  273.02      1.664                 0.0239         0.0089         31.7095   -64.12802  2.2823        2.6415        6.3374    6.3643    275.113   36.6338     36.6325     18.9583            18.9629             18.9571            18.9617             
InVirTC3     2019-10-13T02:52:35Z    -0.0017      100.0437  4.887422        4.886862        1027.4884  1027.4867  274.002     -0.558                0.0204         0.005          31.7092   -64.12536  2.2581        2.6188        6.2538    6.3188    276.103   36.6237     36.6208     18.9159            18.9204             18.9138            18.9183             
InVirTC3     2019-10-13T02:52:35Z    -0.0017      100.0439  4.893679        4.893382        1027.4857  1027.485   274.005     1.93                  0.024          0.0157         31.7095   -64.12802  2.2823        2.6422        6.3379    6.3678    276.106   36.6358     36.6345     18.9617            18.9663             18.9604            18.965              
InVirTC3     2019-10-13T02:52:35Z    -0.0018      100.0449  4.886962        4.886703        1027.4931  1027.4915  274.971     -0.745                0.0215         0.0106         31.7092   -64.12536  2.2595        2.6156        6.2631    6.2988    277.079   36.6229     36.6208     18.9119            18.9164             18.9118            18.9164             
InVirTC3     2019-10-13T02:52:35Z    -0.0016      100.0401  4.893776        4.893482        1027.4917  1027.4909  275.037     2.077                 0.0264         0.0169         31.7095   -64.12802  2.2823        2.6426        6.3388    6.3758    277.146   36.6373     36.6359     18.9605            18.9651             18.9593            18.9639             
InVirTC3     2019-10-13T02:52:35Z    -0.0018      100.0451  4.88678         4.88605         1027.4965  1027.4959  275.953     -0.998                0.0287         0.0169         31.7092   -64.12538  2.2605        2.6152        6.2651    6.2946    278.069   36.6216     36.6193     18.9113            18.9158             18.9069            18.9115             
InVirTC3     2019-10-13T02:52:35Z    -0.0016      100.042   4.893411        4.893121        1027.4969  1027.4962  276.073     1.96                  0.026          0.0092         31.7095   -64.12803  2.2825        2.6425        6.3409    6.3793    278.191   36.637      36.6357     18.9569            18.9615             18.9557            18.9602             
InVirTC3     2019-10-13T02:52:35Z    -0.0015      100.0374  4.893007        4.892606        1027.5004  1027.4998  276.925     0.532                 0.0241         0.0082         31.7095   -64.12802  2.2849        2.6486        6.3532    6.4044    279.05    36.6357     36.6343     18.9542            18.9587             18.952             18.9566             
InVirTC3     2019-10-13T02:52:35Z    -0.0018      100.0449  4.885649        4.885329        1027.5043  1027.5028  276.983     -0.761                0.0247         0.0159         31.70918  -64.1254   2.26          2.6168        6.264     6.3034    279.109   36.6219     36.6197     18.8997            18.9042             18.8991            18.9036             
InVirTC3     2019-10-13T02:52:35Z    -0.0017      100.043   4.890475        4.890137        1027.5088  1027.5081  277.947     0.539                 0.0248         0.016          31.7095   -64.12798  2.2871        2.6482        6.3657    6.3945    280.08    36.6334     36.6319     18.9323            18.9368             18.9307            18.9353             
InVirTC3     2019-10-13T02:52:35Z    -0.0017      100.0439  4.885908        4.885583        1027.5088  1027.5072  278.046     -0.495                0.0275         0.0121         31.7092   -64.12539  2.2618        2.619         6.2729    6.3125    280.18    36.6222     36.62       18.9014            18.9059             18.9008            18.9053             
InVirTC3     2019-10-13T02:52:35Z    -0.0017      100.0438  4.8856          4.885355        1027.5134  1027.5119  278.924     -0.988                0.0273         0.0183         31.7092   -64.12538  2.263         2.6195        6.2774    6.3149    281.065   36.6222     36.6201     18.8981            18.9026             18.8981            18.9026             
InVirTC3     2019-10-13T02:52:35Z    -0.0016      100.0422  4.889871        4.889609        1027.5129  1027.5124  278.979     0.93                  0.0276         0.01           31.7095   -64.128    2.2859        2.6459        6.3622    6.3838    281.121   36.6315     36.6304     18.9282            18.9328             18.927             18.9315             
InVirTC3     2019-10-13T02:52:35Z    -0.0018      100.0448  4.885456        4.885167        1027.5184  1027.5164  279.99      -1.536                0.0253         0.0023         31.7092   -64.12539  2.2633        2.6189        6.2796    6.3076    282.14    36.622      36.6195     18.8964            18.901              18.8965            18.9011             
InVirTC3     2019-10-13T02:52:35Z    -0.0017      100.0432  4.89026         4.889964        1027.5179  1027.5173  279.993     1.175                 0.0264         0.0088         31.7095   -64.128    2.2843        2.6437        6.3471    6.3785    282.144   36.6328     36.6315     18.93              18.9345             18.9287            18.9332             
InVirTC3     2019-10-13T02:52:35Z    -0.0017      100.0444  4.885348        4.884596        1027.5228  1027.5226  281.004     -1.506                0.0289         0.0169         31.7092   -64.1254   2.2656        2.6219        6.2922    6.3237    283.163   36.6216     36.6196     18.8955            18.9                18.8905            18.895              
InVirTC3     2019-10-13T02:52:35Z    -0.0017      100.0436  4.890267        4.889978        1027.5228  1027.5222  281.022     1.283                 0.0242         0.0082         31.70948  -64.128    2.2835        2.6411        6.3441    6.3687    283.181   36.6331     36.6318     18.9293            18.9338             18.928             18.9326             
InVirTC3     2019-10-13T02:52:35Z    -0.0017      100.0442  4.885182        4.884136        1027.528   1027.5285  282.021     -1.28                 0.0281         0.0143         31.7092   -64.12542  2.2655        2.6235        6.2921    6.3284    284.188   36.6218     36.6199     18.8932            18.8977             18.8854            18.8899             
InVirTC3     2019-10-13T02:52:35Z    -0.0018      100.0449  4.889915        4.889635        1027.528   1027.5273  282.036     1.226                 0.0256         0.0093         31.70949  -64.128    2.2825        2.6424        6.3443    6.3815    284.203   36.6328     36.6315     18.9258            18.9304             18.9246            18.9292             
InVirTC3     2019-10-13T02:52:35Z    -0.0017      100.0434  4.889149        4.888848        1027.5331  1027.5324  283.011     1.035                 0.0267         0.0078         31.7095   -64.12799  2.2805        2.6441        6.3378    6.3971    285.186   36.6318     36.6304     18.9193            18.9239             18.918             18.9226             
InVirTC3     2019-10-13T02:52:35Z    -0.0017      100.043   4.884471        4.884488        1027.5339  1027.5337  283.011     -0.883                0.0246         0.0096         31.7092   -64.12543  2.2655        2.6237        6.2874    6.3255    285.187   36.6215     36.6214     18.8864            18.8909             18.8866            18.8911             
InVirTC3     2019-10-13T02:52:35Z    -0.0017      100.0432  4.888488        4.888192        1027.5374  1027.5368  283.965     0.738                 0.0217         0.0039         31.7095   -64.12796  2.2789        2.6424        6.3337    6.3876    286.148   36.6302     36.6289     18.9143            18.9189             18.913             18.9176             
InVirTC3     2019-10-13T02:52:35Z    -0.0017      100.0439  4.885106        4.885581        1027.5395  1027.5362  284.073     -0.274                0.0289         0.0035         31.7092   -64.12544  2.2656        2.6249        6.2783    6.3233    286.257   36.6238     36.6218     18.8893            18.8938             18.8962            18.9007             
InVirTC3     2019-10-13T02:52:35Z    -0.0017      100.0447  4.8844          4.884317        1027.5422  1027.5402  284.73      -0.613                0.0281         0.0128         31.7092   -64.12541  2.274         2.6346        6.3194    6.3617    286.92    36.6219     36.6198     18.8845            18.889              18.8861            18.8906             
InVirTC3     2019-10-13T02:52:35Z    -0.0017      100.0435  4.888573        4.888283        1027.5426  1027.5418  284.99      0.719                 0.0192         0.0086         31.70948  -64.12796  2.2756        2.6402        6.3197    6.3739    287.183   36.6309     36.6295     18.9139            18.9185             18.9127            18.9172             
InVirTC3     2019-10-13T02:52:35Z    -0.0018      100.0461  4.884129        4.883846        1027.5491  1027.5484  285.931     -1.531                0.0237         0.0023         31.7092   -64.1254   2.2789        2.6386        6.3555    6.3834    288.131   36.6227     36.6214     18.8805            18.885              18.8793            18.8838             
InVirTC3     2019-10-13T02:52:35Z    -0.0017      100.0442  4.888088        4.887807        1027.5479  1027.5473  285.989     0.825                 0.0224         0.0039         31.70948  -64.12796  2.275         2.6383        6.3225    6.3743    288.189   36.6306     36.6293     18.9093            18.9138             18.908             18.9126             
InVirTC3     2019-10-13T02:52:35Z    -0.0017      100.0429  4.887223        4.886927        1027.554   1027.5534  286.984     0.902                 0.0274         -0.0029        31.70949  -64.12796  2.276         2.639         6.3343    6.379     289.193   36.6301     36.6288     18.9012            18.9057             18.8998            18.9043             
InVirTC3     2019-10-13T02:52:35Z    -0.0017      100.0446  4.884097        4.883882        1027.5546  1027.5539  287.005     -1.282                0.0228         0.0117         31.7092   -64.12543  2.2771        2.6373        6.3443    6.378     289.214   36.6232     36.6221     18.8791            18.8836             18.8783            18.8829             
InVirTC3     2019-10-13T02:52:35Z    -0.0017      100.0431  4.886693        4.886405        1027.559   1027.5583  288.006     0.979                 0.0244         -0.0011        31.70949  -64.12795  2.2771        2.6394        6.3428    6.3876    290.224   36.6292     36.6279     18.8967            18.9012             18.8954            18.9                
InVirTC3     2019-10-13T02:52:35Z    -0.0017      100.0437  4.884077        4.883575        1027.5606  1027.5596  288.188     -0.927                0.0234         0.0169         31.7092   -64.12546  2.2752        2.6371        6.3312    6.3775    290.407   36.6238     36.6217     18.8778            18.8823             18.8754            18.8799             
InVirTC3     2019-10-13T02:52:35Z    -0.0017      100.044   4.886502        4.886219        1027.5637  1027.5632  288.994     0.959                 0.0236         0.0108         31.70948  -64.12794  2.2766        2.6374        6.3391    6.3757    291.22    36.629      36.6278     18.8946            18.8992             18.8933            18.8978             
InVirTC3     2019-10-13T02:52:35Z    -0.0017      100.0438  4.883341        4.883236        1027.5654  1027.5641  289.044     -0.653                0.0218         0.0096         31.7092   -64.12546  2.2743        2.6377        6.3348    6.3807    291.27    36.623      36.6215     18.8713            18.8758             18.8719            18.8765             
InVirTC3     2019-10-13T02:52:35Z    -0.0016      100.0411  4.886169        4.885898        1027.5683  1027.5677  289.95      0.959                 0.0241         0.0134         31.70948  -64.12792  2.2763        2.636         6.3343    6.3708    292.184   36.6285     36.6273     18.8916            18.8962             18.8904            18.8949             
InVirTC3     2019-10-13T02:52:35Z    -0.0017      100.0443  4.883134        4.883205        1027.5711  1027.569   290.059     -0.462                0.0275         0.0094         31.7092   -64.12546  2.2745        2.6386        6.3406    6.3982    292.294   36.6236     36.6218     18.8682            18.8727             18.8709            18.8754             
InVirTC3     2019-10-13T02:52:35Z    -0.0017      100.0444  4.88299         4.88253         1027.5751  1027.5738  290.939     -0.831                0.0233         0.004          31.7092   -64.12544  2.2715        2.6331        6.3314    6.3834    293.182   36.6233     36.621      18.8668            18.8713             18.865             18.8696             
InVirTC3     2019-10-13T02:52:35Z    -0.0017      100.0426  4.886102        4.88581         1027.5731  1027.5725  290.98      1.072                 0.0235         0.0109         31.70948  -64.12792  2.2776        2.634         6.3445    6.3639    293.223   36.6285     36.6273     18.8905            18.8951             18.8892            18.8937             
InVirTC3     2019-10-13T02:52:35Z    -0.0018      100.045   4.882234        4.8821          1027.5798  1027.5779  291.958     -1.232                0.0264         0.0039         31.7092   -64.12544  2.2686        2.628         6.3188    6.3683    294.209   36.6216     36.6195     18.8611            18.8656             18.8621            18.8667             
InVirTC3     2019-10-13T02:52:35Z    -0.0017      100.044   4.88573         4.88542         1027.5786  1027.5779  292.041     1.138                 0.0236         0.0154         31.70948  -64.12792  2.2802        2.6397        6.3623    6.3948    294.292   36.6283     36.6269     18.8868            18.8913             18.8854            18.8899             
InVirTC3     2019-10-13T02:52:35Z    -0.0017      100.0447  4.88172         4.880814        1027.582   1027.5831  292.971     -1.124                0.0272         0.0096         31.7092   -64.12545  2.268         2.6251        6.3245    6.3586    295.23    36.6182     36.6171     18.8596            18.8641             18.8522            18.8567             
InVirTC3     2019-10-13T02:52:35Z    -0.0017      100.0439  4.885151        4.884906        1027.5832  1027.5823  293.044     0.647                 0.024          0.0089         31.70948  -64.12793  2.2812        2.6449        6.362     6.4188    295.304   36.6271     36.6256     18.8822            18.8868             18.8815            18.886              
InVirTC3     2019-10-13T02:52:35Z    -0.0017      100.0432  4.884829        4.88456         1027.5873  1027.5867  293.948     0.444                 0.0229         0.0058         31.70948  -64.12791  2.2815        2.6478        6.3608    6.4215    296.216   36.6264     36.6252     18.8796            18.8841             18.8784            18.8829             
InVirTC3     2019-10-13T02:52:35Z    -0.0017      100.0424  4.880249        4.879516        1027.5893  1027.5894  294.015     -0.844                0.0278         0.0096         31.70919  -64.12547  2.2675        2.6226        6.3322    6.3583    296.283   36.6172     36.6156     18.8462            18.8508             18.841             18.8456             
InVirTC3     2019-10-13T02:52:35Z    -0.0017      100.0445  4.884266        4.88398         1027.5937  1027.5929  295.023     0.878                 0.0251         0.0032         31.70948  -64.1279   2.2824        2.6497        6.3684    6.4343    297.299   36.6265     36.6251     18.8736            18.8781             18.8724            18.8769             
InVirTC3     2019-10-13T02:52:35Z    -0.0016      100.0407  4.879065        4.878389        1027.5975  1027.5959  295.058     -0.554                0.0303         0.0151         31.70919  -64.12549  2.2636        2.6203        6.3162    6.3511    297.335   36.6178     36.6146     18.8338            18.8384             18.8309            18.8354             
InVirTC3     2019-10-13T02:52:35Z    -0.0017      100.0442  4.882741        4.882437        1027.599   1027.5983  296.016     1.262                 0.0245         0.0091         31.70948  -64.1279   2.2823        2.6484        6.3708    6.4272    298.301   36.6237     36.6223     18.8618            18.8663             18.8605            18.865              
InVirTC3     2019-10-13T02:52:35Z    -0.0017      100.0441  4.879513        4.879115        1027.6009  1027.5994  296.034     -0.53                 0.0212         0.0204         31.7092   -64.12548  2.2577        2.6144        6.2944    6.336     298.319   36.6179     36.6155     18.8376            18.8421             18.8365            18.841              
InVirTC3     2019-10-13T02:52:35Z    -0.0017      100.0446  4.877657        4.877634        1027.6063  1027.605   296.907     -1.219                0.0218         0.0102         31.7092   -64.12547  2.2528        2.6075        6.2771    6.3142    299.199   36.615      36.6137     18.8228            18.8273             18.824             18.8286             
InVirTC3     2019-10-13T02:52:35Z    -0.0017      100.0445  4.881961        4.881692        1027.604   1027.6033  297.028     1.53                  0.0222         0.0087         31.70948  -64.12789  2.2813        2.6452        6.3649    6.4074    299.321   36.6223     36.621      18.8555            18.86               18.8544            18.8589             
InVirTC3     2019-10-13T02:52:35Z    -0.0017      100.0447  4.876815        4.876476        1027.6123  1027.6095  297.972     -1.509                0.0265         0.0096         31.7092   -64.12548  2.2505        2.6042        6.2696    6.3021    300.273   36.614      36.6107     18.8153            18.8198             18.8159            18.8204             
InVirTC3     2019-10-13T02:52:35Z    -0.0017      100.0426  4.880661        4.880395        1027.6098  1027.6092  298.08      1.546                 0.0258         0.0099         31.70948  -64.12789  2.2796        2.6411        6.3558    6.3879    300.382   36.6203     36.6191     18.8449            18.8495             18.8438            18.8483             
InVirTC3     2019-10-13T02:52:35Z    -0.0017      100.0444  4.876627        4.875309        1027.6156  1027.6154  298.999     -1.362                0.0273         0.0038         31.7092   -64.1255   2.2486        2.6021        6.2647    6.2914    301.309   36.6124     36.6091     18.8149            18.8194             18.8061            18.8107             
InVirTC3     2019-10-13T02:52:35Z    -0.0017      100.0424  4.879931        4.879317        1027.6141  1027.6139  299.034     0.611                 0.0255         0.0071         31.70948  -64.1279   2.2682        2.6289        6.2997    6.3465    301.344   36.6186     36.6169     18.8395            18.844              18.8355            18.84               
InVirTC3     2019-10-13T02:52:35Z    -0.0018      100.0451  4.879066        4.878736        1027.6194  1027.6187  299.935     0.431                 0.0222         0.007          31.70948  -64.12786  2.2613        2.6171        6.2872    6.314     302.253   36.6177     36.6163     18.8318            18.8363             18.8303            18.8348             
InVirTC3     2019-10-13T02:52:35Z    -0.0017      100.0429  4.875678        4.874758        1027.6213  1027.621   299.998     -1.062                0.0254         0.0028         31.7092   -64.1255   2.2477        2.6007        6.2605    6.2884    302.317   36.6113     36.6089     18.8067            18.8112             18.8007            18.8052             
InVirTC3     2019-10-13T02:52:35Z    -0.0017      100.043   4.878366        4.878069        1027.6254  1027.6248  300.941     0.849                 0.0246         0.0087         31.70948  -64.12786  2.2587        2.6155        6.2853    6.3148    303.267   36.6175     36.6162     18.8249            18.8294             18.8236            18.8281             
InVirTC3     2019-10-13T02:52:35Z    -0.0017      100.0436  4.87521         4.874897        1027.6276  1027.6265  301.044     -0.628                0.0269         0.0096         31.7092   -64.1255   2.2458        2.601         6.2515    6.2908    303.371   36.6117     36.61       18.8013            18.8058             18.8003            18.8048             
InVirTC3     2019-10-13T02:52:35Z    -0.0016      100.0409  4.87751         4.877223        1027.6314  1027.6306  301.976     1.227                 0.0251         0.0091         31.70948  -64.12786  2.257         2.616         6.2761    6.3285    304.311   36.6167     36.6153     18.8172            18.8217             18.8161            18.8206             
InVirTC3     2019-10-13T02:52:35Z    -0.0015      100.0376  4.875279        4.874887        1027.6321  1027.6307  302.199     -0.423                0.0272         0.0143         31.7092   -64.12551  2.2438        2.6004        6.2469    6.2946    304.536   36.6112     36.609      18.8021            18.8066             18.8009            18.8054             
InVirTC3     2019-10-13T02:52:35Z    -0.0017      100.0437  4.874176        4.873977        1027.6367  1027.6343  302.926     -1.51                 0.0216         0.0169         31.7092   -64.12551  2.2413        2.5967        6.2368    6.2831    305.269   36.6098     36.6071     18.7928            18.7973             18.794             18.7985             
InVirTC3     2019-10-13T02:52:35Z    -0.0016      100.0409  4.876732        4.876445        1027.6364  1027.6358  302.988     1.503                 0.0264         0.0164         31.70948  -64.12786  2.2568        2.616         6.2785    6.3372    305.332   36.6153     36.6141     18.811             18.8155             18.8096            18.8141             
InVirTC3     2019-10-13T02:52:35Z    -0.0016      100.0412  4.874105        4.873205        1027.6407  1027.6401  303.959     -1.501                0.0214         0.0096         31.7092   -64.12552  2.2404        2.5946        6.2301    6.2701    306.311   36.6092     36.6065     18.7925            18.797              18.7869            18.7914             
InVirTC3     2019-10-13T02:52:35Z    -0.0018      100.0449  4.876579        4.876291        1027.6407  1027.6401  304.039     1.554                 0.0248         0.0169         31.70948  -64.12786  2.2569        2.6145        6.287     6.3304    306.392   36.6146     36.6134     18.8098            18.8144             18.8085            18.813              
InVirTC3     2019-10-13T02:52:35Z    -0.0017      100.0426  4.873487        4.872759        1027.646   1027.6451  304.979     -1.25                 0.0195         0.0072         31.7092   -64.12552  2.2398        2.5942        6.2304    6.2661    307.34    36.6083     36.6058     18.787             18.7915             18.7829            18.7874             
InVirTC3     2019-10-13T02:52:35Z    -0.0017      100.0424  4.876334        4.876013        1027.6456  1027.6451  305.049     0.786                 0.0266         0.0078         31.70948  -64.12786  2.255         2.6113        6.2802    6.3168    307.41    36.6144     36.6131     18.8074            18.8119             18.8057            18.8102             
InVirTC3     2019-10-13T02:52:35Z    -0.0018      100.0451  4.875549        4.87525         1027.6517  1027.6511  305.97      0.479                 0.0256         0.0134         31.70948  -64.12783  2.2525        2.607         6.2716    6.3017    308.339   36.6144     36.6131     18.7994            18.8039             18.7981            18.8026             
InVirTC3     2019-10-13T02:52:35Z    -0.0017      100.043   4.872751        4.872347        1027.6516  1027.6511  306.003     -0.871                0.0238         0.0023         31.7092   -64.12554  2.2409        2.5947        6.2367    6.2727    308.373   36.6076     36.6061     18.7804            18.7849             18.7782            18.7827             
InVirTC3     2019-10-13T02:52:35Z    -0.0017      100.0432  4.875158        4.874864        1027.6568  1027.656   306.969     0.859                 0.0257         0.0141         31.70948  -64.12782  2.2502        2.6069        6.2597    6.3101    309.346   36.614      36.6125     18.7957            18.8002             18.7946            18.7991             
InVirTC3     2019-10-13T02:52:35Z    -0.0016      100.0411  4.872622        4.873238        1027.6576  1027.6554  307.056     -0.402                0.028          0.0023         31.7092   -64.12554  2.2409        2.5976        6.2325    6.2865    309.434   36.6084     36.6078     18.7778            18.7823             18.7844            18.7889             
InVirTC3     2019-10-13T02:52:35Z    -0.0017      100.044   4.872317        4.871964        1027.6618  1027.6601  307.919     -0.724                0.0254         0.0117         31.7092   -64.12555  2.2426        2.5978        6.2464    6.2871    310.305   36.608      36.6057     18.775             18.7795             18.7743            18.7788             
InVirTC3     2019-10-13T02:52:35Z    -0.0017      100.0436  4.874861        4.874577        1027.6618  1027.6611  307.974     1.147                 0.0232         0.0099         31.70948  -64.12782  2.25          2.6092        6.2625    6.3245    310.36    36.6137     36.6125     18.7928            18.7973             18.7915            18.796              
InVirTC3     2019-10-13T02:52:35Z    -0.0017      100.0424  4.871809        4.871259        1027.6669  1027.6659  309.002     -1.251                0.0197         0.0089         31.7092   -64.12556  2.2424        2.5991        6.2421    6.2965    311.397   36.6071     36.6049     18.7707            18.7752             18.768             18.7725             
InVirTC3     2019-10-13T02:52:35Z    -0.0017      100.044   4.874782        4.874494        1027.6665  1027.6658  309.053     1.049                 0.0233         0.0169         31.70948  -64.12782  2.2512        2.6109        6.2785    6.3349    311.448   36.6134     36.6122     18.7919            18.7964             18.7906            18.7951             
InVirTC3     2019-10-13T02:52:35Z    -0.0016      100.0402  4.874609        4.874324        1027.6705  1027.6699  309.961     0.623                 0.0217         0.0169         31.70947  -64.12782  2.2519        2.6104        6.2806    6.326     312.364   36.613      36.6117     18.7903            18.7949             18.789             18.7935             
InVirTC3     2019-10-13T02:52:35Z    -0.0016      100.0415  4.871289        4.87051         1027.6724  1027.6717  309.988     -1.078                0.0206         0.0169         31.7092   -64.12554  2.2423        2.5989        6.2381    6.3011    312.392   36.6069     36.6043     18.7656            18.7701             18.761             18.7655             
InVirTC3     2019-10-13T02:52:35Z    -0.0017      100.0438  4.874406        4.874118        1027.6754  1027.6748  310.977     0.747                 0.0228         0.0096         31.70946  -64.1278   2.2522        2.6106        6.2817    6.3281    313.389   36.6128     36.6115     18.7881            18.7926             18.7869            18.7914             
InVirTC3     2019-10-13T02:52:35Z    -0.0017      100.0437  4.870537        4.869456        1027.6775  1027.6773  310.999     -0.807                0.0241         0.0169         31.7092   -64.12556  2.2436        2.5983        6.2511    6.3008    313.411   36.6057     36.6029     18.7593            18.7638             18.7521            18.7566             
InVirTC3     2019-10-13T02:52:35Z    -0.0017      100.0447  4.873493        4.873212        1027.6819  1027.6813  312.006     1.01                  0.0254         0.0046         31.70946  -64.12782  2.2537        2.6087        6.2915    6.3229    314.427   36.6125     36.6112     18.7794            18.7839             18.7781            18.7826             
InVirTC3     2019-10-13T02:52:35Z    -0.0017      100.0437  4.870201        4.869656        1027.6831  1027.6824  312.063     -0.622                0.0269         0.0078         31.7092   -64.12558  2.2457        2.5967        6.2719    6.3055    314.484   36.6056     36.6037     18.7557            18.7602             18.7527            18.7572             
InVirTC3     2019-10-13T02:52:35Z    -0.0017      100.0447  4.869363        4.868667        1027.6883  1027.6888  312.993     -0.703                0.0231         0.0071         31.7092   -64.12558  2.243         2.5914        6.2625    6.2768    315.423   36.6046     36.6034     18.7484            18.7529             18.7431            18.7476             
InVirTC3     2019-10-13T02:52:35Z    -0.0017      100.0434  4.872808        4.872528        1027.6873  1027.6866  313.024     1.221                 0.0267         0.005          31.70948  -64.1278   2.2535        2.6069        6.2936    6.3123    315.453   36.6116     36.6103     18.7734            18.7779             18.7722            18.7767             
InVirTC3     2019-10-13T02:52:35Z    -0.0017      100.0429  4.868853        4.868374        1027.6948  1027.6933  314.008     -0.709                0.0239         0.0078         31.7092   -64.12558  2.2397        2.5911        6.2463    6.2842    316.446   36.6053     36.6027     18.7424            18.7469             18.7407            18.7452             
InVirTC3     2019-10-13T02:52:35Z    -0.0017      100.0438  4.871481        4.871181        1027.6944  1027.6936  314.034     1.252                 0.0268         0.0163         31.70948  -64.1278   2.252         2.6075        6.2825    6.3217    316.472   36.611      36.6094     18.7611            18.7656             18.7599            18.7644             
InVirTC3     2019-10-13T02:52:35Z    -0.0017      100.043   4.869133        4.8688          1027.6984  1027.6966  314.979     -0.988                0.0253         0.0081         31.7092   -64.12557  2.2386        2.5889        6.2384    6.2727    317.425   36.6052     36.6027     18.7447            18.7492             18.7444            18.7489             
InVirTC3     2019-10-13T02:52:35Z    -0.0017      100.0438  4.869293        4.868999        1027.7007  1027.7001  315.054     0.844                 0.0232         0.0088         31.70946  -64.12779  2.2477        2.6048        6.262     6.3155    317.501   36.6074     36.6062     18.7437            18.7482             18.7423            18.7468             
InVirTC3     2019-10-13T02:52:35Z    -0.0017      100.0424  4.868496        4.868212        1027.7049  1027.7043  315.912     0.487                 0.0243         0.005          31.70946  -64.12781  2.243         2.5987        6.2463    6.289     318.365   36.6059     36.6047     18.7375            18.742              18.7362            18.7407             
InVirTC3     2019-10-13T02:52:35Z    -0.0016      100.0416  4.868878        4.868016        1027.7022  1027.7017  315.966     -1.265                0.0245         0.0077         31.7092   -64.12558  2.2395        2.5867        6.2515    6.2625    318.421   36.604      36.6015     18.7432            18.7477             18.7378            18.7423             
InVirTC3     2019-10-13T02:52:35Z    -0.0017      100.0435  4.867865        4.867584        1027.7109  1027.7103  316.978     0.758                 0.0278         0.0089         31.70946  -64.12778  2.2401        2.5962        6.2362    6.2848    319.441   36.6056     36.6043     18.7314            18.7359             18.7301            18.7346             
InVirTC3     2019-10-13T02:52:35Z    -0.0016      100.0406  4.868021        4.866942        1027.7081  1027.7082  317.016     -1.108                0.0233         0.0015         31.7092   -64.12559  2.2392        2.5885        6.253     6.2768    319.479   36.6031     36.6006     18.7357            18.7402             18.7281            18.7326             
InVirTC3     2019-10-13T02:52:35Z    -0.0017      100.0426  4.86709         4.866822        1027.7167  1027.7162  317.988     1.112                 0.0285         0.0033         31.70947  -64.12777  2.2398        2.5962        6.2424    6.2935    320.459   36.6049     36.6038     18.7243            18.7287             18.723             18.7275             
InVirTC3     2019-10-13T02:52:35Z    -0.0017      100.0434  4.866786        4.866311        1027.714   1027.714   318.035     -0.757                0.0282         -0.0016        31.7092   -64.12562  2.2376        2.5884        6.2443    6.2745    320.507   36.6015     36.6004     18.7252            18.7297             18.7219            18.7264             
InVirTC3     2019-10-13T02:52:35Z    -0.0017      100.0432  4.866434        4.86616         1027.7217  1027.7211  318.991     1.375                 0.0303         0.0051         31.70948  -64.12776  2.2386        2.5949        6.2427    6.2935    321.471   36.6039     36.6027     18.7188            18.7233             18.7175            18.722              
InVirTC3     2019-10-13T02:52:35Z    -0.0017      100.0446  4.866406        4.865894        1027.7217  1027.7196  319.086     -0.432                0.0253         0.0144         31.7092   -64.1256   2.236         2.5877        6.2427    6.2765    321.567   36.6033     36.6002     18.7191            18.7236             18.7177            18.7222             
InVirTC3     2019-10-13T02:52:35Z    -0.0017      100.0447  4.866           4.86568         1027.7252  1027.7236  319.967     -0.627                0.0259         0.0096         31.7092   -64.12561  2.2336        2.5857        6.2451    6.2828    322.456   36.602      36.5997     18.7163            18.7208             18.7158            18.7203             
InVirTC3     2019-10-13T02:52:35Z    -0.0017      100.044   4.865991        4.86569         1027.7268  1027.7261  320.038     1.362                 0.029          0.016          31.70946  -64.12776  2.2387        2.5962        6.2454    6.3       322.527   36.6032     36.6018     18.7148            18.7193             18.7135            18.718              
InVirTC3     2019-10-13T02:52:35Z    -0.0017      100.0433  4.864644        4.86464         1027.7314  1027.7293  320.943     -1.287                0.0242         0.0096         31.7092   -64.1256   2.2275        2.5784        6.2198    6.2526    323.44    36.6005     36.5985     18.7046            18.7091             18.7069            18.7114             
InVirTC3     2019-10-13T02:52:35Z    -0.0018      100.045   4.865866        4.865571        1027.7317  1027.7312  321.047     0.789                 0.0288         0.0131         31.70946  -64.12776  2.2369        2.5944        6.2388    6.2946    323.545   36.6033     36.602      18.7131            18.7176             18.7117            18.7162             
InVirTC3     2019-10-13T02:52:35Z    -0.0017      100.0447  4.86397         4.862321        1027.7346  1027.7338  321.939     -1.457                0.0188         0.0173         31.7092   -64.1256   2.2236        2.576         6.1998    6.2433    324.445   36.5978     36.5931     18.7008            18.7053             18.6904            18.6948             
InVirTC3     2019-10-13T02:52:35Z    -0.0017      100.0429  4.864876        4.864593        1027.7368  1027.7362  321.953     0.512                 0.0201         0.0156         31.70946  -64.12775  2.2369        2.589         6.2454    6.269     324.459   36.6019     36.6006     18.7048            18.7093             18.7035            18.708              
InVirTC3     2019-10-13T02:52:35Z    -0.0018      100.0461  4.864328        4.864029        1027.7428  1027.742   322.973     0.758                 0.0241         0.0105         31.70946  -64.12774  2.2358        2.5876        6.2385    6.2731    325.488   36.602      36.6005     18.6991            18.7036             18.6979            18.7024             
InVirTC3     2019-10-13T02:52:35Z    -0.0017      100.0429  4.863051        4.860651        1027.7392  1027.7434  323.017     -1.285                0.0217         0.0228         31.7092   -64.12563  2.2233        2.5757        6.1992    6.2461    325.532   36.5954     36.5937     18.6943            18.6988             18.6733            18.6778             
InVirTC3     2019-10-13T02:52:35Z    -0.0016      100.0414  4.862997        4.862726        1027.7489  1027.7483  323.982     0.971                 0.0257         0.0169         31.70946  -64.12774  2.2341        2.5854        6.2339    6.2673    326.506   36.6003     36.5991     18.6878            18.6923             18.6866            18.6911             
InVirTC3     2019-10-13T02:52:35Z    -0.0017      100.0446  4.860424        4.859243        1027.7461  1027.7493  324.035     -0.989                0.0211         0.0096         31.7092   -64.12564  2.2225        2.5761        6.201     6.2508    326.558   36.5914     36.5917     18.6733            18.6778             18.6617            18.6661             
InVirTC3     2019-10-13T02:52:35Z    -0.001       100.0255  4.862275        4.861977        1027.7539  1027.7532  325         1.059                 0.0262         0.0096         31.70946  -64.12774  2.2319        2.5836        6.2233    6.2638    327.532   36.599      36.5976     18.682             18.6865             18.6807            18.6851             
InVirTC3     2019-10-13T02:52:35Z    -0.0012      100.0312  4.85963         4.859868        1027.7569  1027.7543  325.025     -0.592                0.0182         0.0096         31.7092   -64.12564  2.2228        2.5757        6.2042    6.2527    327.557   36.5955     36.5936     18.6606            18.6651             18.665             18.6695             
InVirTC3     2019-10-13T02:52:35Z    -0.0016      100.0399  4.86148         4.861213        1027.7591  1027.7585  326.014     1.042                 0.0262         0.0157         31.70946  -64.12775  2.2284        2.5812        6.2095    6.2551    328.555   36.5977     36.5966     18.6754            18.6798             18.6741            18.6786             
InVirTC3     2019-10-13T02:52:35Z    -0.0016      100.0416  4.859761        4.85952         1027.7594  1027.7579  326.125     -0.515                0.0226         0.0071         31.7092   -64.12563  2.2224        2.5737        6.2015    6.2474    328.666   36.5935     36.5916     18.6636            18.6681             18.6635            18.668              
InVirTC3     2019-10-13T02:52:35Z    -0.0018      100.0448  4.85856         4.857747        1027.7651  1027.764   326.95      -1.712                0.0267         0.0165         31.7092   -64.12563  2.2219        2.5703        6.2064    6.2352    329.498   36.5926     36.5897     18.6528            18.6573             18.6484            18.6529             
InVirTC3     2019-10-13T02:52:35Z    -0.0018      100.0453  4.860569        4.860277        1027.7649  1027.7643  326.985     0.904                 0.025          0.0211         31.70946  -64.12775  2.2266        2.5797        6.2047    6.2561    329.534   36.597      36.5957     18.6671            18.6716             18.6657            18.6702             
InVirTC3     2019-10-13T02:52:35Z    -0.0017      100.0442  4.860029        4.859743        1027.7697  1027.7691  327.96      0.796                 0.0237         0.0026         31.70946  -64.1277   2.2268        2.5795        6.2195    6.2597    330.517   36.5961     36.5948     18.6626            18.667              18.6612            18.6657             
InVirTC3     2019-10-13T02:52:35Z    -0.0017      100.0424  4.857859        4.856995        1027.7691  1027.7691  327.985     -1.609                0.0319         0.0242         31.7092   -64.12564  2.221         2.5705        6.2034    6.2366    330.543   36.5904     36.5883     18.6483            18.6527             18.6423            18.6467             
InVirTC3     2019-10-13T02:52:35Z    -0.0016      100.0421  4.857214        4.855936        1027.7756  1027.7774  329.002     -1.262                0.0311         0.0051         31.7092   -64.12566  2.2201        2.5706        6.1982    6.238     331.568   36.5907     36.5893     18.6413            18.6458             18.6306            18.6351             
InVirTC3     2019-10-13T02:52:35Z    -0.0018      100.0461  4.859884        4.859611        1027.7746  1027.774   329.005     0.926                 0.028          0.0096         31.70946  -64.1277   2.2254        2.579         6.2087    6.2631    331.571   36.5959     36.5948     18.6609            18.6653             18.6595            18.664              
InVirTC3     2019-10-13T02:52:35Z    -0.0017      100.0436  4.859722        4.859447        1027.7795  1027.7788  330.025     1.098                 0.0306         0.0023         31.70946  -64.1277   2.2259        2.5758        6.2153    6.2451    332.6     36.5958     36.5946     18.659             18.6634             18.6577            18.6622             
InVirTC3     2019-10-13T02:52:35Z    -0.0017      100.0445  4.856313        4.85605         1027.7835  1027.7824  330.037     -0.785                0.0293         0.0028         31.7092   -64.12567  2.2196        2.5701        6.1951    6.237     332.613   36.5916     36.59       18.6312            18.6357             18.6306            18.635              
InVirTC3     2019-10-13T02:52:35Z    -0.0018      100.0452  4.858943        4.858673        1027.786   1027.7854  331.025     1.067                 0.0289         0.0076         31.70946  -64.1277   2.2254        2.5759        6.2172    6.2491    333.608   36.596      36.5947     18.651             18.6555             18.6498            18.6543             
InVirTC3     2019-10-13T02:52:35Z    -0.0016      100.0405  4.856714        4.85661         1027.7875  1027.785   331.124     -0.217                0.0252         0.0153         31.7092   -64.12568  2.2195        2.5709        6.1944    6.2399    333.709   36.5917     36.5891     18.6344            18.6389             18.6364            18.6408             
InVirTC3     2019-10-13T02:52:35Z    -0.0014      100.037   4.856269        4.856122        1027.7911  1027.7889  331.717     -0.695                0.0237         0.0054         31.7092   -64.12567  2.2205        2.5702        6.2047    6.2431    334.307   36.5915     36.5891     18.6301            18.6346             18.6315            18.6359             
InVirTC3     2019-10-13T02:52:35Z    -0.0017      100.0448  4.857227        4.856955        1027.7925  1027.792   332.036     0.778                 0.0243         0.0029         31.70946  -64.1277   2.2259        2.5752        6.2214    6.2541    334.628   36.5938     36.5927     18.6366            18.6411             18.6352            18.6397             
InVirTC3     2019-10-13T02:52:35Z    -0.0018      100.0453  4.856654        4.85637         1027.7979  1027.7972  332.952     0.616                 0.0203         0.0053         31.70946  -64.12769  2.2253        2.5726        6.2199    6.2438    335.552   36.5936     36.5923     18.6309            18.6354             18.6297            18.6341             
InVirTC3     2019-10-13T02:52:35Z    -0.0016      100.0412  4.855664        4.85537         1027.7979  1027.7963  332.974     -1.726                0.0273         0.0096         31.7092   -64.12568  2.2195        2.5697        6.2029    6.2446    335.574   36.5912     36.589      18.6241            18.6286             18.6238            18.6283             
InVirTC3     2019-10-13T02:52:35Z    -0.0017      100.0437  4.856224        4.855942        1027.8047  1027.804   333.977     0.787                 0.024          0.0089         31.70946  -64.12768  2.2228        2.5737        6.2061    6.2516    336.586   36.5947     36.5933     18.6251            18.6296             18.624             18.6285             
InVirTC3     2019-10-13T02:52:35Z    -0.0018      100.0461  4.855449        4.85496         1027.8026  1027.8013  334.004     -1.612                0.0271         0.0096         31.7092   -64.12569  2.2189        2.5696        6.2022    6.2453    336.613   36.5908     36.5884     18.6222            18.6267             18.6202            18.6247             
InVirTC3     2019-10-13T02:52:35Z    -0.0008      100.0201  4.855112        4.854236        1027.8076  1027.8068  334.991     -1.378                0.0286         0.0096         31.7092   -64.1257   2.2187        2.5686        6.2045    6.243     337.609   36.5905     36.5877     18.6188            18.6233             18.6136            18.6181             
InVirTC3     2019-10-13T02:52:35Z    -0.0018      100.0448  4.855414        4.855123        1027.8105  1027.8099  335.001     1.056                 0.0262         0.0096         31.70946  -64.12768  2.2223        2.5726        6.2047    6.2543    337.619   36.5939     36.5927     18.6178            18.6223             18.6165            18.621              
InVirTC3     2019-10-13T02:52:35Z    -0.0012      100.0298  4.854786        4.853922        1027.8125  1027.8121  336.009     -1.065                0.0309         0.0096         31.7092   -64.12569  2.2183        2.5682        6.2039    6.2412    338.635   36.59       36.5876     18.6158            18.6203             18.6102            18.6147             
InVirTC3     2019-10-13T02:52:35Z    -0.0016      100.0421  4.854747        4.854502        1027.8156  1027.815   336.042     1.152                 0.0224         0.0099         31.70946  -64.12768  2.2228        2.5715        6.2164    6.2452    338.669   36.5928     36.5916     18.6123            18.6168             18.6113            18.6158             
InVirTC3     2019-10-13T02:52:35Z    -0.0016      100.0406  4.853882        4.853625        1027.821   1027.8204  337.037     0.918                 0.0237         0.0169         31.70946  -64.12768  2.2224        2.5705        6.2156    6.2461    339.672   36.5916     36.5905     18.605             18.6094             18.6038            18.6082             
InVirTC3     2019-10-13T02:52:35Z    -0.0014      100.0357  4.854323        4.854047        1027.8185  1027.8173  337.041     -0.654                0.0282         0.0092         31.7092   -64.12569  2.2175        2.5675        6.1965    6.2334    339.677   36.5903     36.5885     18.6106            18.6151             18.61              18.6145             
InVirTC3     2019-10-13T02:52:35Z    -0.0017      100.0444  4.853843        4.853571        1027.8256  1027.8251  337.964     0.708                 0.0224         0.0169         31.70945  -64.12767  2.2205        2.5703        6.2053    6.2465    340.607   36.592      36.5908     18.6038            18.6082             18.6024            18.6069             
InVirTC3     2019-10-13T02:52:35Z    -0.001       100.0245  4.854533        4.854239        1027.8232  1027.8214  338.245     -0.357                0.0242         0.0074         31.7092   -64.12571  2.217         2.5684        6.2021    6.2462    340.891   36.5901     36.5877     18.6123            18.6168             18.6122            18.6167             
InVirTC3     2019-10-13T02:52:35Z    -0.001       100.0241  4.853204        4.853382        1027.8278  1027.8253  338.913     -1.501                0.0197         0.0034         31.7092   -64.1257   2.2145        2.5662        6.1944    6.2477    341.565   36.5885     36.5865     18.6012            18.6056             18.6051            18.6096             
InVirTC3     2019-10-13T02:52:35Z    -0.0017      100.0436  4.85352         4.853256        1027.831   1027.8305  338.969     0.836                 0.0213         0.0134         31.70944  -64.12766  2.2195        2.5714        6.2023    6.256     341.622   36.592      36.5909     18.6002            18.6046             18.5989            18.6033             
InVirTC3     2019-10-13T02:52:35Z    -0.0015      100.0379  4.853177        4.852923        1027.8359  1027.8353  339.972     1.069                 0.0267         0.0092         31.70944  -64.12766  2.2182        2.5717        6.2005    6.26      342.633   36.5916     36.5904     18.597             18.6015             18.5959            18.6003             
InVirTC3     2019-10-13T02:52:35Z    -0.0017      100.0445  4.852883        4.85225         1027.8327  1027.8304  339.995     -1.583                0.0227         -0.0037        31.7092   -64.12572  2.2111        2.5632        6.1737    6.2328    342.656   36.5878     36.5841     18.5984            18.6029             18.5966            18.601              
InVirTC3     2019-10-13T02:52:35Z    -0.0016      100.0405  4.852486        4.851068        1027.8359  1027.8361  341         -1.381                0.023          -0.0051        31.7092   -64.12572  2.2112        2.5615        6.179     6.22      343.67    36.5856     36.5825     18.5967            18.6012             18.5867            18.5911             
InVirTC3     2019-10-13T02:52:35Z    -0.0017      100.044   4.852828        4.852519        1027.8412  1027.8406  341.019     1.194                 0.0293         0.0093         31.70944  -64.12766  2.2174        2.5706        6.1964    6.2522    343.689   36.5913     36.59       18.5935            18.598              18.592             18.5965             
InVirTC3     2019-10-13T02:52:35Z    -0.0016      100.0412  4.851453        4.849746        1027.8421  1027.8433  342.02      -1.046                0.0251         0.0151         31.7092   -64.12572  2.2125        2.5605        6.188     6.2151    344.699   36.5847     36.5818     18.5874            18.5918             18.5743            18.5787             
InVirTC3     2019-10-13T02:52:35Z    -0.0016      100.0403  4.852081        4.851783        1027.8466  1027.8461  342.03      0.876                 0.0253         0.012          31.70944  -64.12765  2.2192        2.5678        6.2143    6.2392    344.709   36.5905     36.5892     18.5869            18.5914             18.5855            18.5899             
InVirTC3     2019-10-13T02:52:35Z    -0.0011      100.0272  4.851217        4.850931        1027.8519  1027.8512  342.946     0.593                 0.0217         0.0169         31.70944  -64.12765  2.2175        2.5682        6.2027    6.2499    345.632   36.5895     36.5882     18.5793            18.5838             18.578             18.5825             
InVirTC3     2019-10-13T02:52:35Z    -0.0016      100.0406  4.849454        4.848815        1027.8497  1027.8501  343.037     -0.631                0.0243         0.0138         31.7092   -64.12576  2.2127        2.5618        6.1866    6.2306    345.725   36.5829     36.5818     18.5699            18.5743             18.565             18.5695             
InVirTC3     2019-10-13T02:52:35Z    -0.0015      100.0378  4.850636        4.850344        1027.8572  1027.8566  343.958     0.776                 0.0208         0.0106         31.70944  -64.12762  2.2164        2.5678        6.1985    6.2488    346.654   36.5888     36.5876     18.5741            18.5786             18.5727            18.5772             
InVirTC3     2019-10-13T02:52:35Z    -0.0014      100.0346  4.850417        4.849781        1027.8549  1027.8539  344.127     -0.382                0.0201         0.0131         31.7092   -64.12573  2.2136        2.5639        6.1817    6.2344    346.824   36.5854     36.583      18.5757            18.5802             18.5724            18.5768             
InVirTC3     2019-10-13T02:52:35Z    -0.0007      100.0183  4.847685        4.847252        1027.8614  1027.8604  344.917     -0.992                0.0192         0.0096         31.7092   -64.12574  2.219         2.566         6.2097    6.2367    347.62    36.5819     36.5799     18.5533            18.5578             18.5514            18.5559             
InVirTC3     2019-10-13T02:52:35Z    -0.0017      100.0436  4.850469        4.850177        1027.862   1027.8612  344.975     1.027                 0.0154         0.0096         31.70944  -64.12764  2.2152        2.5695        6.1958    6.2577    347.68    36.5887     36.5872     18.5722            18.5767             18.5711            18.5755             
InVirTC3     2019-10-13T02:52:35Z    -0.0008      100.0201  4.847326        4.846684        1027.8676  1027.8661  346.006     -1.447                0.0273         0.0096         31.7092   -64.12573  2.2215        2.5719        6.2195    6.2664    348.719   36.5822     36.5793     18.5491            18.5535             18.5462            18.5506             
InVirTC3     2019-10-13T02:52:35Z    -0.0017      100.0437  4.849218        4.848945        1027.8694  1027.8687  346.011     1.158                 0.0154         0.0123         31.70944  -64.12762  2.2152        2.5691        6.1997    6.2614    348.724   36.5883     36.587      18.5602            18.5647             18.5591            18.5635             
InVirTC3     2019-10-13T02:52:35Z    -0.0015      100.0371  4.847921        4.847658        1027.8755  1027.8749  347.041     1.078                 0.0187         0.0169         31.70944  -64.12762  2.2152        2.5668        6.2047    6.2452    349.763   36.5867     36.5855     18.5492            18.5536             18.548             18.5525             
InVirTC3     2019-10-13T02:52:35Z    -0.0008      100.0201  4.846882        4.846183        1027.872   1027.872   347.055     -1.354                0.0284         0.0091         31.7092   -64.12574  2.2226        2.5711        6.218     6.2555    349.777   36.5808     36.5793     18.5459            18.5503             18.5409            18.5454             
InVirTC3     2019-10-13T02:52:35Z    -0.0015      100.0378  4.847504        4.847212        1027.8797  1027.8792  347.983     0.665                 0.0206         0.016          31.70944  -64.12763  2.2161        2.5684        6.211     6.2599    350.713   36.5857     36.5845     18.5459            18.5504             18.5445            18.5489             
InVirTC3     2019-10-13T02:52:35Z    -0.0008      100.0201  4.846531        4.845972        1027.8782  1027.8779  347.995     -1.067                0.0242         0.0091         31.7092   -64.12576  2.2232        2.5713        6.2189    6.2558    350.726   36.582      36.5803     18.5408            18.5453             18.5374            18.5418             
InVirTC3     2019-10-13T02:52:35Z    -0.0016      100.0415  4.847939        4.84764         1027.8839  1027.8833  348.946     0.576                 0.0169         0.0093         31.70944  -64.12762  2.2173        2.5684        6.2176    6.2575    351.685   36.5866     36.5853     18.5487            18.5531             18.5473            18.5517             
InVirTC3     2019-10-13T02:52:35Z    -0.0008      100.0201  4.846483        4.846095        1027.8846  1027.8834  349.025     -0.644                0.0211         0.0023         31.7092   -64.12578  2.2259        2.5737        6.2349    6.2648    351.765   36.5835     36.5814     18.5383            18.5427             18.5368            18.5413             
InVirTC3     2019-10-13T02:52:35Z    -0.0016      100.0406  4.848224        4.847951        1027.8888  1027.8882  349.964     0.863                 0.0235         0.0096         31.70944  -64.1276   2.218         2.5716        6.2189    6.2738    352.711   36.5875     36.5863     18.5499            18.5543             18.5487            18.5531             
InVirTC3     2019-10-13T02:52:35Z    -0.0008      100.0197  4.846635        4.846327        1027.8888  1027.8872  350.169     -0.357                0.022          0.0122         31.7092   -64.12577  2.2308        2.5789        6.2579    6.2847    352.918   36.583      36.5808     18.5398            18.5442             18.5393            18.5438             
InVirTC3     2019-10-13T02:52:35Z    -0.0008      100.0194  4.846655        4.846312        1027.8931  1027.8915  350.913     -1.136                0.0209         0.0197         31.7092   -64.12575  2.2343        2.583         6.2827    6.2964    353.669   36.5839     36.5816     18.5386            18.543              18.5379            18.5424             
InVirTC3     2019-10-13T02:52:35Z    -0.0017      100.0446  4.848167        4.847907        1027.894   1027.8934  350.976     1.147                 0.0242         0.0092         31.70944  -64.12758  2.2201        2.5756        6.2312    6.297     353.732   36.588      36.5869     18.5484            18.5528             18.5471            18.5516             
InVirTC3     2019-10-13T02:52:35Z    -0.0008      100.0201  4.846506        4.846286        1027.8985  1027.8972  352.002     -1.346                0.0223         0.0146         31.7092   -64.12576  2.2335        2.5864        6.2775    6.3154    354.767   36.584      36.5823     18.5366            18.5411             18.5364            18.5408             
InVirTC3     2019-10-13T02:52:35Z    -0.0017      100.0432  4.848008        4.84772         1027.8989  1027.8982  352.034     1.364                 0.0243         0.0133         31.70944  -64.12759  2.224         2.5794        6.2548    6.3143    354.799   36.5878     36.5864     18.5467            18.5511             18.5454            18.5499             
InVirTC3     2019-10-13T02:52:35Z    -0.0008      100.0201  4.846343        4.845838        1027.9033  1027.9013  353.015     -1.25                 0.0235         0.0023         31.7092   -64.12577  2.2324        2.5878        6.2703    6.3284    355.79    36.5839     36.5808     18.5347            18.5391             18.5334            18.5379             
InVirTC3     2019-10-13T02:52:35Z    -0.0016      100.042   4.84787         4.847592        1027.9035  1027.9028  353.056     1.423                 0.0246         0.0157         31.70944  -64.1276   2.2276        2.5825        6.2753    6.3227    355.831   36.5874     36.5862     18.5453            18.5497             18.544             18.5485             
InVirTC3     2019-10-13T02:52:35Z    -0.0009      100.0216  4.846122        4.845557        1027.9074  1027.9074  354.001     -1.052                0.0193         0.0087         31.7092   -64.12578  2.2322        2.5881        6.2786    6.3303    356.784   36.5831     36.5818     18.5331            18.5376             18.5292            18.5336             
InVirTC3     2019-10-13T02:52:35Z    -0.0014      100.0369  4.847643        4.847367        1027.9084  1027.9078  354.119     0.999                 0.0264         0.0093         31.70944  -64.1276   2.2297        2.5849        6.2743    6.3237    356.903   36.5871     36.5858     18.5431            18.5475             18.5419            18.5463             
InVirTC3     2019-10-13T02:52:35Z    -0.0017      100.0437  4.847238        4.846987        1027.9124  1027.9117  354.866     0.361                 0.0302         0.0121         31.70944  -64.12759  2.2304        2.5829        6.2681    6.304     357.656   36.5868     36.5855     18.5392            18.5437             18.5382            18.5427             
InVirTC3     2019-10-13T02:52:35Z    -0.0008      100.0212  4.845418        4.844781        1027.9136  1027.9122  355.011     -0.783                0.0203         0.0093         31.7092   -64.1258   2.2333        2.5861        6.2916    6.3255    357.803   36.583      36.5802     18.5261            18.5305             18.523             18.5275             
InVirTC3     2019-10-13T02:52:35Z    -0.0013      100.0343  4.84569         4.845431        1027.9191  1027.9184  355.966     0.712                 0.0265         0.0133         31.70944  -64.12756  2.232         2.5837        6.2796    6.3166    358.766   36.5848     36.5835     18.5262            18.5307             18.5251            18.5296             
InVirTC3     2019-10-13T02:52:35Z    -0.0013      100.0335  4.846287        4.845807        1027.9179  1027.9172  356.058     -0.458                0.0231         0.0096         31.7092   -64.1258   2.2304        2.585         6.285     6.3404    358.858   36.5847     36.5828     18.532             18.5364             18.5295            18.5339             
InVirTC3     2019-10-13T02:52:35Z    -0.0011      100.0279  4.845016        4.844916        1027.9219  1027.9202  356.976     -0.79                 0.0208         0.0163         31.7092   -64.12578  2.2227        2.5734        6.262     6.3023    359.785   36.5816     36.5797     18.5229            18.5274             18.5241            18.5285             
InVirTC3     2019-10-13T02:52:35Z    -0.0016      100.0411  4.844374        4.844103        1027.9247  1027.9241  357.011     1.041                 0.0232         0.0093         31.70944  -64.12756  2.2315        2.584         6.2778    6.3177    359.82    36.5826     36.5813     18.5156            18.5201             18.5145            18.5189             
InVirTC3     2019-10-13T02:52:35Z    -0.0008      100.0201  4.843331        4.843435        1027.9279  1027.9253  357.97      -1.593                0.0205         0.0169         31.70922  -64.12578  2.2143        2.5634        6.2216    6.263     360.787   36.579      36.5768     18.5093            18.5137             18.5127            18.5172             
InVirTC3     2019-10-13T02:52:35Z    -0.0017      100.0438  4.842776        4.842481        1027.9319  1027.9312  358.027     1.163                 0.0195         0.0096         31.70944  -64.12756  2.2294        2.5816        6.2652    6.3084    360.845   36.5813     36.58       18.5014            18.5058             18.5001            18.5045             
InVirTC3     2019-10-13T02:52:35Z    -0.0017      100.0446  4.841594        4.841306        1027.9364  1027.9358  358.983     0.933                 0.0142         0.0094         31.70944  -64.12756  2.2234        2.5777        6.2327    6.2897    361.809   36.5787     36.5775     18.4926            18.497              18.4912            18.4957             
InVirTC3     2019-10-13T02:52:35Z    -0.0007      100.0184  4.84281         4.842047        1027.9321  1027.9296  358.991     -1.501                0.0228         0.0115         31.70921  -64.12579  2.2123        2.5623        6.2152    6.2546    361.818   36.5775     36.5733     18.5056            18.51               18.503             18.5074             
InVirTC3     2019-10-13T02:52:35Z    -0.0016      100.0411  4.841357        4.841104        1027.9404  1027.9399  359.957     0.752                 0.0159         0.0096         31.70944  -64.12755  2.2192        2.5741        6.2185    6.2795    362.792   36.5778     36.5767     18.4909            18.4953             18.4897            18.4942             
InVirTC3     2019-10-13T02:52:35Z    -0.0007      100.0184  4.841731        4.840544        1027.9369  1027.9365  360.021     -1.239                0.0265         0.0096         31.7092   -64.12581  2.2115        2.5602        6.2166    6.2475    362.857   36.5751     36.5719     18.4975            18.502              18.4897            18.4942             
InVirTC3     2019-10-13T02:52:35Z    -0.0018      100.045   4.841547        4.841255        1027.9452  1027.9446  360.996     0.923                 0.0218         0.0096         31.70944  -64.12754  2.2176        2.5702        6.2221    6.2691    363.84    36.5784     36.5771     18.4916            18.4961             18.4903            18.4947             
InVirTC3     2019-10-13T02:52:35Z    -0.0009      100.0216  4.840743        4.839187        1027.9421  1027.9428  361.047     -0.893                0.0289         0.0096         31.7092   -64.12584  2.2107        2.5598        6.2197    6.2559    363.892   36.5733     36.5704     18.4896            18.494              18.478             18.4825             
InVirTC3     2019-10-13T02:52:35Z    -0.0017      100.0437  4.840824        4.840474        1027.9516  1027.9508  362.021     1.075                 0.0219         0.0103         31.70944  -64.12754  2.2177        2.5675        6.2301    6.259     364.874   36.5784     36.5769     18.4843            18.4887             18.4826            18.4871             
InVirTC3     2019-10-13T02:52:35Z    -0.0008      100.0212  4.838898        4.838325        1027.9507  1027.9495  362.046     -0.505                0.0272         0.0096         31.7092   -64.12582  2.2088        2.5607        6.2188    6.2663    364.9     36.5729     36.5705     18.472             18.4764             18.4693            18.4737             
InVirTC3     2019-10-13T02:52:35Z    -0.0017      100.0442  4.83887         4.838588        1027.9576  1027.9572  363.02      1.051                 0.0219         0.0177         31.70944  -64.12755  2.2177        2.5665        6.2361    6.2669    365.881   36.5753     36.5742     18.4686            18.4731             18.4672            18.4716             
InVirTC3     2019-10-13T02:52:35Z    -0.0008      100.0204  4.839684        4.839161        1027.9538  1027.9526  363.085     -0.421                0.0256         0.0119         31.70921  -64.12581  2.2021        2.5538        6.1915    6.2521    365.948   36.5732     36.5709     18.4787            18.4831             18.4763            18.4807             
InVirTC3     2019-10-13T02:52:35Z    -0.0008      100.0201  4.837362        4.837469        1027.9598  1027.9569  363.93      -1.294                0.0251         0.0053         31.70922  -64.12584  2.1948        2.5421        6.1678    6.2126    366.8     36.5699     36.5674     18.4599            18.4643             18.4637            18.4682             
InVirTC3     2019-10-13T02:52:35Z    -0.0017      100.0439  4.837594        4.837247        1027.9638  1027.9633  363.98      0.932                 0.0215         0.0227         31.70944  -64.12752  2.2169        2.5667        6.2341    6.2732    366.85    36.5741     36.5727     18.4574            18.4618             18.4556            18.46               
InVirTC3     2019-10-13T02:52:35Z    -0.0015      100.039   4.836875        4.836601        1027.9684  1027.9678  364.99      0.975                 0.0234         0.0023         31.70944  -64.12752  2.2149        2.5664        6.2224    6.2781    367.869   36.5724     36.5712     18.4519            18.4564             18.4506            18.455              
InVirTC3     2019-10-13T02:52:35Z    -0.0009      100.0215  4.836751        4.835694        1027.9635  1027.9619  365         -1.557                0.0219         0.01           31.7092   -64.12586  2.1915        2.5368        6.1612    6.1978    367.879   36.5675     36.5635     18.4563            18.4608             18.4507            18.4551             
InVirTC3     2019-10-13T02:52:35Z    -0.0008      100.0201  4.835136        4.833303        1027.9707  1027.9693  365.999     -1.471                0.0222         0.0169         31.7092   -64.12586  2.1899        2.5354        6.1574    6.1982    368.887   36.5663     36.5606     18.4418            18.4462             18.4306            18.435              
InVirTC3     2019-10-13T02:52:35Z    -0.0013      100.0322  4.836514        4.836222        1027.9735  1027.9729  366.059     1.069                 0.0302         0.0153         31.70944  -64.12752  2.2125        2.5636        6.2126    6.2626    368.947   36.5719     36.5707     18.4486            18.453              18.4472            18.4516             
InVirTC3     2019-10-13T02:52:35Z    -0.0016      100.0417  4.836015        4.835819        1027.9775  1027.9766  366.907     0.458                 0.0248         0.0058         31.70944  -64.12751  2.2081        2.5588        6.1974    6.2462    369.803   36.5709     36.5696     18.4446            18.449              18.4442            18.4486             
InVirTC3     2019-10-13T02:52:35Z    -0.0008      100.0201  4.834337        4.831983        1027.9722  1027.9743  366.995     -1.2                  0.0236         0.0101         31.7092   -64.12586  2.187         2.5334        6.139     6.1888    369.892   36.5615     36.558      18.439             18.4435             18.4205            18.4249             
InVirTC3     2019-10-13T02:52:35Z    -0.0013      100.0343  4.834986        4.834652        1027.9842  1027.9835  367.968     0.556                 0.0235         0.0169         31.70943  -64.12751  2.2052        2.5542        6.1923    6.2326    370.873   36.5703     36.5689     18.435             18.4394             18.4333            18.4378             
InVirTC3     2019-10-13T02:52:35Z    -0.0008      100.0201  4.831145        4.830156        1027.982   1027.9829  368.027     -0.826                0.0221         0.0096         31.7092   -64.12586  2.1842        2.5303        6.1268    6.1803    370.933   36.559      36.5575     18.4109            18.4153             18.4031            18.4075             
InVirTC3     2019-10-13T02:52:35Z    -0.0017      100.0432  4.833353        4.833034        1027.9911  1027.9904  369.019     0.995                 0.0263         0.0169         31.70942  -64.12748  2.2054        2.5545        6.2005    6.2437    371.934   36.5685     36.5672     18.4209            18.4253             18.4193            18.4238             
InVirTC3     2019-10-13T02:52:35Z    -0.0007      100.0182  4.831652        4.830597        1027.9885  1027.9886  369.069     -0.485                0.0209         0.0096         31.7092   -64.12586  2.1832        2.5288        6.1261    6.1791    371.984   36.5619     36.5595     18.412             18.4164             18.4046            18.409              
InVirTC3     2019-10-13T02:52:35Z    -0.0006      100.0155  4.829722        4.82959         1027.9939  1027.9918  369.943     -0.751                0.0224         0.0086         31.70922  -64.12584  2.1824        2.5249        6.1224    6.1633    372.866   36.5588     36.5564     18.3967            18.4011             18.3981            18.4025             
InVirTC3     2019-10-13T02:52:35Z    -0.0017      100.0426  4.832562        4.8323          1027.9962  1027.9955  370.025     1.295                 0.0263         0.0169         31.70942  -64.1275   2.2026        2.5539        6.1897    6.2465    372.948   36.5672     36.5659     18.4144            18.4188             18.4133            18.4177             
InVirTC3     2019-10-13T02:52:35Z    0.0056       99.861    4.829422        4.828103        1027.9976  1027.9975  370.951     -1.218                0.0241         0.0049         31.70921  -64.12587  2.1821        2.523         6.1171    6.1615    373.882   36.5572     36.554      18.3951            18.3995             18.3861            18.3905             
InVirTC3     2019-10-13T02:52:35Z    -0.0014      100.0347  4.831625        4.831355        1028.0022  1028.0013  370.957     1.442                 0.0241         0.0169         31.70942  -64.1275   2.1988        2.5514        6.1659    6.2357    373.889   36.5667     36.5653     18.4055            18.4099             18.4046            18.409              
InVirTC3     2019-10-13T02:52:35Z    -0.0008      100.0201  4.82731         4.825679        1028.0019  1028.0047  372.009     -1.059                0.024          0.0169         31.7092   -64.12588  2.1825        2.5218        6.1187    6.143     374.95    36.5519     36.5508     18.3804            18.3848             18.3661            18.3705             
InVirTC3     2019-10-13T02:52:35Z    -0.0013      100.0319  4.830018        4.829758        1028.0077  1028.0071  372.019     1.434                 0.0244         0.0146         31.70942  -64.1275   2.1975        2.5485        6.1597    6.2213    374.96    36.5637     36.5625     18.3931            18.3975             18.3919            18.3963             
InVirTC3     2019-10-13T02:52:35Z    -0.0009      100.0214  4.824552        4.824146        1028.0135  1028.0125  373.012     -0.701                0.0196         0.0169         31.7092   -64.1259   2.1838        2.52          6.1329    6.1425    375.962   36.5522     36.5503     18.3533            18.3577             18.3515            18.3559             
InVirTC3     2019-10-13T02:52:35Z    -0.0013      100.0338  4.829578        4.829287        1028.0124  1028.0118  373.064     1.312                 0.0258         0.0096         31.70942  -64.1275   2.1958        2.546         6.1656    6.2148    376.015   36.5626     36.5613     18.3896            18.394              18.3883            18.3927             
InVirTC3     2019-10-13T02:52:35Z    -0.0015      100.0388  4.828904        4.828628        1028.0177  1028.0171  374.03      1.171                 0.0293         0.0023         31.70942  -64.1275   2.1924        2.542         6.1508    6.2026    376.989   36.562      36.5608     18.3835            18.3879             18.3822            18.3866             
InVirTC3     2019-10-13T02:52:35Z    -0.0008      100.0189  4.825264        4.824715        1028.018   1028.0176  374.099     -0.397                0.0199         0.0137         31.70921  -64.1259   2.185         2.525         6.1558    6.1785    377.058   36.5535     36.5518     18.3581            18.3626             18.3548            18.3592             
InVirTC3     2019-10-13T02:52:35Z    -0.0008      100.0206  4.824108        4.823907        1028.0239  1028.0217  374.923     -0.865                0.0238         0.0083         31.70922  -64.12588  2.1781        2.5191        6.1415    6.1777    377.889   36.5528     36.5503     18.3474            18.3518             18.3483            18.3527             
InVirTC3     2019-10-13T02:52:35Z    -0.0017      100.0437  4.827513        4.8276          1028.0235  1028.0223  375.069     0.544                 0.0279         0.0169         31.70942  -64.12747  2.1896        2.5369        6.1484    6.193     378.037   36.5598     36.5589     18.3722            18.3766             18.374             18.3784             
InVirTC3     2019-10-13T02:52:35Z    -0.0008      100.0201  4.822775        4.823071        1028.0303  1028.0261  375.937     -1.606                0.0259         0.0159         31.70922  -64.12588  2.1692        2.507         6.1007    6.1234    378.912   36.5515     36.5481     18.3357            18.3401             18.3424            18.3468             
InVirTC3     2019-10-13T02:52:35Z    -0.0017      100.0442  4.826927        4.826666        1028.0277  1028.0273  375.953     0.396                 0.0255         -0.0022        31.70942  -64.12745  2.1891        2.5365        6.1533    6.2042    378.928   36.5586     36.5576     18.3675            18.3719             18.3661            18.3705             
InVirTC3     2019-10-13T02:52:35Z    -0.0017      100.043   4.827214        4.826951        1028.0345  1028.0339  376.958     0.81                  0.0256         0.0057         31.70942  -64.12746  2.1883        2.5349        6.1534    6.1971    379.943   36.5615     36.5603     18.3666            18.371              18.3655            18.3699             
InVirTC3     2019-10-13T02:52:35Z    -0.0007      100.0185  4.822747        4.820874        1028.033   1028.0332  376.973     -1.647                0.0235         0.0096         31.70922  -64.1259   2.165         2.5044        6.0789    6.1149    379.957   36.5496     36.5453     18.3372            18.3416             18.324             18.3284             
InVirTC3     2019-10-13T02:52:35Z    -0.0017      100.0429  4.826302        4.826039        1028.0395  1028.0388  377.98      1.182                 0.0265         0.011          31.70942  -64.12746  2.1872        2.5333        6.1452    6.1885    380.974   36.5597     36.5585     18.3594            18.3638             18.3582            18.3627             
InVirTC3     2019-10-13T02:52:35Z    -0.0007      100.0164  4.820509        4.819047        1028.037   1028.0397  378.023     -1.428                0.0233         0.0127         31.70922  -64.1259   2.163         2.5033        6.0748    6.1109    381.017   36.5436     36.5428     18.322             18.3264             18.3089            18.3133             
InVirTC3     2019-10-13T02:52:35Z    -0.0015      100.0392  4.825834        4.825558        1028.0452  1028.0444  378.989     1.452                 0.0305         0.0169         31.70942  -64.12746  2.1888        2.5341        6.1542    6.1927    381.992   36.5598     36.5584     18.3544            18.3588             18.3534            18.3578             
InVirTC3     2019-10-13T02:52:35Z    -0.0007      100.0182  4.818792        4.815785        1028.0439  1028.0443  379.021     -1.129                0.0242         0.0169         31.70922  -64.12592  2.1625        2.5021        6.0832    6.1174    382.024   36.5419     36.5352     18.307             18.3114             18.2857            18.2901             
InVirTC3     2019-10-13T02:52:35Z    -0.0007      100.0174  4.816163        4.813993        1028.0498  1028.0544  380.026     -0.834                0.0249         0.0115         31.70922  -64.12593  2.1613        2.5021        6.0944    6.1389    383.038   36.5371     36.5364     18.2868            18.2912             18.2668            18.2711             
InVirTC3     2019-10-13T02:52:35Z    -0.0009      100.0223  4.823885        4.823595        1028.0525  1028.0518  380.039     1.488                 0.0278         0.0169         31.70942  -64.12746  2.1928        2.5387        6.186     6.2252    383.051   36.5577     36.5563     18.3377            18.3421             18.3364            18.3408             
InVirTC3     2019-10-13T02:52:35Z    -0.0014      100.0361  4.82244         4.82215         1028.0569  1028.0563  380.952     0.649                 0.0261         0.0136         31.70942  -64.12744  2.1922        2.5388        6.1759    6.2223    383.972   36.5545     36.5532     18.327             18.3314             18.3256            18.33               
InVirTC3     2019-10-13T02:52:35Z    -0.0007      100.0167  4.814411        4.813897        1028.0633  1028.0621  381.061     -0.527                0.0257         0.0096         31.70922  -64.12593  2.1568        2.4986        6.0761    6.1374    384.082   36.5413     36.539      18.2648            18.2692             18.2624            18.2668             
InVirTC3     2019-10-13T02:52:35Z    -0.0015      100.0383  4.820923        4.820653        1028.0632  1028.0626  381.984     0.549                 0.0241         0.0169         31.70942  -64.12742  2.1865        2.5303        6.1392    6.173     385.013   36.5526     36.5514     18.3141            18.3185             18.3129            18.3173             
InVirTC3     2019-10-13T02:52:35Z    -0.0005      100.0124  4.814889        4.814559        1028.0641  1028.0625  382.115     -0.416                0.0233         0.0093         31.70922  -64.12591  2.1454        2.4801        6.031     6.0653    385.145   36.5387     36.5364     18.2718            18.2762             18.2713            18.2756             
InVirTC3     2019-10-13T02:52:35Z    -0.0008      100.0191  4.809383        4.809465        1028.0732  1028.0706  382.908     -1.489                0.029          0.0169         31.70922  -64.12593  2.1348        2.4678        6.0006    6.0242    385.945   36.5311     36.5288     18.2272            18.2316             18.2306            18.235              
InVirTC3     2019-10-13T02:52:35Z    -0.0011      100.0288  4.819391        4.81909         1028.0708  1028.0699  382.993     0.998                 0.0222         0.0135         31.70942  -64.12741  2.186         2.5285        6.1464    6.1733    386.031   36.5519     36.5503     18.2999            18.3043             18.2988            18.3031             
InVirTC3     2019-10-13T02:52:35Z    -0.0012      100.0312  4.815942        4.815705        1028.0788  1028.0779  384.009     1.367                 0.0192         0.0096         31.70942  -64.1274   2.1845        2.5272        6.1498    6.181     387.056   36.5471     36.5457     18.2717            18.2761             18.271             18.2754             
InVirTC3     2019-10-13T02:52:35Z    -0.0008      100.0201  4.809222        4.807695        1028.0789  1028.0779  384.011     -1.733                0.0282         0.0169         31.70922  -64.12596  2.1297        2.4619        5.9761    5.9891    387.057   36.5315     36.5269     18.2248            18.2292             18.2153            18.2197             
InVirTC3     2019-10-13T02:52:35Z    -0.0007      100.0182  4.807845        4.806715        1028.0808  1028.0825  385.013     -1.684                0.0296         0.0153         31.70922  -64.12594  2.1267        2.4606        5.9668    5.9948    388.069   36.5258     36.5247     18.2176            18.2219             18.2079            18.2123             
InVirTC3     2019-10-13T02:52:35Z    -0.0011      100.0288  4.812935        4.81263         1028.0859  1028.0851  385.028     1.615                 0.0176         0.0096         31.70942  -64.12742  2.1823        2.5257        6.1424    6.1816    388.084   36.5425     36.541      18.2476            18.252              18.2463            18.2507             
InVirTC3     2019-10-13T02:52:35Z    -0.0009      100.022   4.80655         4.805486        1028.0884  1028.0866  386.03      -1.472                0.0313         0.0096         31.70922  -64.12595  2.1253        2.4636        5.9632    6.0167    389.095   36.5257     36.5214     18.2048            18.2092             18.1994            18.2038             
InVirTC3     2019-10-13T02:52:35Z    -0.0015      100.0382  4.811204        4.810928        1028.0911  1028.0907  386.08      1.598                 0.0189         0.0112         31.70942  -64.12743  2.178         2.5214        6.1202    6.1683    389.145   36.5389     36.5378     18.2346            18.239              18.2332            18.2376             
InVirTC3     2019-10-13T02:52:35Z    -0.0014      100.036   4.811575        4.81068         1028.0919  1028.0918  386.725     0.351                 0.0201         0.0124         31.70942  -64.12743  2.1606        2.4991        6.0456    6.0815    389.796   36.5377     36.5356     18.2392            18.2435             18.233             18.2374             
InVirTC3     2019-10-13T02:52:35Z    -0.0008      100.0201  4.804855        4.803298        1028.0931  1028.0937  387.019     -1.149                0.0298         0.0113         31.70922  -64.12596  2.1234        2.4637        5.9582    6.0247    390.092   36.5219     36.5189     18.1924            18.1967             18.1809            18.1852             
InVirTC3     2019-10-13T02:52:35Z    -0.0013      100.0331  4.807691        4.807351        1028.1035  1028.1027  387.991     0.74                  0.0243         0.0068         31.70942  -64.12738  2.1525        2.49          6.043     6.0787    391.074   36.5342     36.5327     18.2053            18.2097             18.2038            18.2082             
InVirTC3     2019-10-13T02:52:35Z    -0.0009      100.0215  4.802577        4.801538        1028.0999  1028.102   388.006     -0.722                0.0239         0.0169         31.70922  -64.12596  2.1211        2.4616        5.954     6.0233    391.089   36.5188     36.5184     18.1735            18.1779             18.164             18.1684             
InVirTC3     2019-10-13T02:52:35Z    -0.0014      100.035   4.805717        4.805483        1028.1102  1028.1095  388.984     1.151                 0.0267         0.0039         31.70942  -64.12738  2.1505        2.49          6.0354    6.084     392.076   36.5318     36.5306     18.1887            18.1931             18.1878            18.1922             
InVirTC3     2019-10-13T02:52:35Z    -0.0008      100.019   4.802668        4.803273        1028.1074  1028.1044  389.174     -0.252                0.0212         0.0183         31.70922  -64.12596  2.1172        2.4554        5.935     6.0094    392.267   36.5212     36.5198     18.1712            18.1756             18.1786            18.183              
InVirTC3     2019-10-13T02:52:35Z    -0.0008      100.0196  4.798493        4.799584        1028.1135  1028.1105  389.857     -0.847                0.0265         0.0123         31.70922  -64.12596  2.1127        2.4415        5.9283    5.958     392.956   36.5144     36.514      18.1385            18.1429             18.1495            18.1538             
InVirTC3     2019-10-13T02:52:35Z    -0.0013      100.0331  4.803987        4.803745        1028.1151  1028.1145  389.998     1.451                 0.0251         0.0169         31.70942  -64.12739  2.1496        2.4891        6.0327    6.0864    393.099   36.5281     36.527      18.1758            18.1802             18.1748            18.1791             
InVirTC3     2019-10-13T02:52:35Z    -0.0007      100.018   4.797439        4.797174        1028.1199  1028.1173  390.987     -1.203                0.0288         0.0116         31.70922  -64.12598  2.1081        2.4362        5.9098    5.9397    394.096   36.5131     36.51       18.1293            18.1337             18.1302            18.1346             
InVirTC3     2019-10-13T02:52:35Z    -0.0013      100.0341  4.803452        4.803218        1028.1194  1028.1189  391.03      1.68                  0.0257         0.0152         31.70942  -64.1274   2.1472        2.4868        6.0255    6.0792    394.139   36.5265     36.5255     18.172             18.1764             18.1709            18.1753             
InVirTC3     2019-10-13T02:52:35Z    -0.0017      100.0426  4.80258         4.802292        1028.1251  1028.1244  392.012     1.782                 0.0271         0.0096         31.7094   -64.12742  2.145         2.4823        6.0161    6.0574    395.13    36.5257     36.5243     18.1641            18.1685             18.1629            18.1673             
InVirTC3     2019-10-13T02:52:35Z    -0.0008      100.0201  4.796824        4.795707        1028.1231  1028.1232  392.017     -1.246                0.0255         0.0096         31.70922  -64.12598  2.105         2.4335        5.8974    5.9316    395.136   36.5103     36.5078     18.1262            18.1305             18.1182            18.1226             
InVirTC3     2019-10-13T02:52:35Z    -0.0008      100.0201  4.795455        4.794033        1028.129   1028.1294  393.012     -1.074                0.0209         0.0108         31.70922  -64.12599  2.1038        2.4323        5.8974    5.9349    396.139   36.5084     36.5056     18.1147            18.119              18.1042            18.1085             
InVirTC3     2019-10-13T02:52:35Z    -0.0013      100.0338  4.800275        4.800065        1028.1321  1028.1307  393.149     1.428                 0.0245         0.0098         31.7094   -64.12742  2.1414        2.4742        6.005     6.0213    396.277   36.5221     36.5203     18.1455            18.1499             18.1456            18.1499             
InVirTC3     2019-10-13T02:52:35Z    -0.0011      100.0276  4.800391        4.799348        1028.1338  1028.1342  393.757     0.258                 0.0278         0.0169         31.70941  -64.12736  2.1312        2.4627        5.9651    5.9965    396.891   36.5214     36.5193     18.1472            18.1515             18.1395            18.1438             
InVirTC3     2019-10-13T02:52:35Z    -0.0008      100.0213  4.794057        4.79327         1028.1349  1028.1358  394.015     -0.8                  0.0217         0.0169         31.70922  -64.126    2.102         2.4313        5.8945    5.9376    397.151   36.5066     36.5056     18.1029            18.1072             18.0965            18.1008             
InVirTC3     2019-10-13T02:52:35Z    -0.0013      100.0331  4.796323        4.795995        1028.1439  1028.1432  394.975     0.697                 0.0268         0.0169         31.70942  -64.12736  2.1281        2.457         5.9724    5.9897    398.12    36.5163     36.5149     18.1133            18.1176             18.1118            18.1161             
InVirTC3     2019-10-13T02:52:35Z    -0.0008      100.0209  4.793463        4.792831        1028.1412  1028.1393  395.041     -0.632                0.023          0.0107         31.70922  -64.126    2.0994        2.4276        5.8899    5.9276    398.187   36.5068     36.5035     18.0965            18.1008             18.0941            18.0985             
InVirTC3     2019-10-13T02:52:35Z    -0.0007      100.018   4.793276        4.793184        1028.1442  1028.1435  395.964     -0.954                0.0224         0.0169         31.70922  -64.126    2.0945        2.4219        5.8735    5.9015    399.118   36.5052     36.5043     18.096             18.1004             18.0962            18.1005             
InVirTC3     2019-10-13T02:52:35Z    -0.0012      100.0305  4.794551        4.794364        1028.1497  1028.1491  395.992     1.108                 0.0247         0.0169         31.70941  -64.12736  2.1265        2.4561        5.9668    5.9935    399.146   36.5134     36.5124     18.0992            18.1035             18.0985            18.1028             
InVirTC3     2019-10-13T02:52:35Z    -0.0013      100.0325  4.791556        4.791561        1028.1522  1028.1475  396.998     -1.273                0.0197         0.0128         31.70922  -64.126    2.0893        2.4189        5.8482    5.8934    400.161   36.5044     36.5        18.08              18.0844             18.085             18.0894             
InVirTC3     2019-10-13T02:52:35Z    -0.0014      100.0368  4.793535        4.793261        1028.1544  1028.154   397.06      1.454                 0.0252         0.0169         31.7094   -64.12736  2.1245        2.4534        5.9579    5.9863    400.223   36.5109     36.5098     18.0917            18.0961             18.0903            18.0947             
InVirTC3     2019-10-13T02:52:35Z    -0.0016      100.0403  4.791354        4.789788        1028.1531  1028.1536  397.996     -1.233                0.0207         0.0124         31.70922  -64.12598  2.0871        2.4184        5.838     5.9012    401.168   36.5005     36.4974     18.082             18.0863             18.0705            18.0748             
InVirTC3     2019-10-13T02:52:35Z    -0.001       100.0257  4.792115        4.791826        1028.1611  1028.1604  398.041     1.672                 0.0246         0.0169         31.7094   -64.12738  2.1221        2.4507        5.947     5.9749    401.213   36.5097     36.5084     18.079             18.0833             18.0777            18.0821             
InVirTC3     2019-10-13T02:52:35Z    -0.0013      100.0324  4.788928        4.786883        1028.1589  1028.1599  399.006     -0.978                0.0221         0.0242         31.70922  -64.126    2.0864        2.4174        5.8359    5.9       402.187   36.4961     36.4922     18.0633            18.0676             18.0479            18.0523             
InVirTC3     2019-10-13T02:52:35Z    -0.0012      100.0302  4.790012        4.789775        1028.1669  1028.1662  399.159     1.428                 0.0182         0.0169         31.7094   -64.12738  2.1162        2.4451        5.9211    5.9551    402.341   36.5055     36.5043     18.063             18.0673             18.0621            18.0664             
InVirTC3     2019-10-13T02:52:35Z    -0.0013      100.0331  4.791081        4.789888        1028.1676  1028.1678  399.725     0.25                  0.0184         0.0162         31.7094   -64.12734  2.1037        2.4316        5.8712    5.909     402.912   36.5063     36.5037     18.0721            18.0765             18.0636            18.0679             
InVirTC3     2019-10-13T02:52:35Z    -0.0013      100.0337  4.78495         4.784496        1028.1668  1028.1713  400.047     -0.6                  0.0221         0.0175         31.70922  -64.12601  2.0853        2.4139        5.8375    5.8875    403.237   36.4898     36.493      18.0315            18.0359             18.0236            18.0279             
InVirTC3     2019-10-13T02:52:35Z    -0.0015      100.0396  4.788332        4.78804         1028.1771  1028.1764  401.014     0.76                  0.0261         0.0096         31.7094   -64.1273   2.1003        2.4265        5.8793    5.9072    404.213   36.5034     36.5021     18.0484            18.0527             18.0471            18.0514             
InVirTC3     2019-10-13T02:52:35Z    -0.001       100.0242  4.782996        4.784333        1028.1807  1028.1763  401.074     -0.529                0.0195         0.0113         31.70922  -64.12602  2.0843        2.4113        5.8404    5.8819    404.273   36.4942     36.4931     18.0075            18.0118             18.0215            18.0258             
InVirTC3     2019-10-13T02:52:35Z    -0.0017      100.0437  4.782592        4.782078        1028.1828  1028.1822  401.93      -0.962                0.0194         0.0078         31.70922  -64.12603  2.0819        2.4074        5.8316    5.8688    405.137   36.4916     36.4898     18.0061            18.0105             18.0032            18.0075             
InVirTC3     2019-10-13T02:52:35Z    -0.0017      100.0441  4.788047        4.787783        1028.1817  1028.181   402.012     1.232                 0.0249         0.004          31.7094   -64.12731  2.0997        2.4271        5.8846    5.9154    405.219   36.5028     36.5016     18.0459            18.0503             18.0448            18.0491             
InVirTC3     2019-10-13T02:52:35Z    -0.0017      100.0429  4.78185         4.780978        1028.1881  1028.1887  402.975     -1.056                0.0198         0.0096         31.70924  -64.12602  2.0803        2.4075        5.8239    5.8785    406.191   36.4903     36.4889     17.9999            18.0043             17.9931            17.9974             
InVirTC3     2019-10-13T02:52:35Z    -0.0017      100.0441  4.787455        4.787204        1028.1871  1028.1866  402.977     1.548                 0.0225         0.0023         31.7094   -64.12734  2.0993        2.4276        5.8835    5.9246    406.194   36.5025     36.5014     18.0402            18.0445             18.039             18.0433             
InVirTC3     2019-10-13T02:52:35Z    -0.0008      100.019   4.780559        4.78117         1028.194   1028.192   403.99      -1.052                0.0218         0.0159         31.70922  -64.12606  2.0792        2.4053        5.82      5.8737    407.215   36.4886     36.4882     17.989             17.9933             17.9954            17.9997             
InVirTC3     2019-10-13T02:52:35Z    -0.0012      100.0308  4.786107        4.785845        1028.1944  1028.1936  404.02      1.725                 0.0211         0.0122         31.7094   -64.12735  2.0983        2.4275        5.8798    5.9293    407.246   36.5018     36.5004     18.0275            18.0318             18.0266            18.0309             
InVirTC3     2019-10-13T02:52:35Z    -0.0008      100.019   4.780125        4.779908        1028.1987  1028.1972  404.996     -1.051                0.0245         0.0055         31.70922  -64.12604  2.079         2.402         5.8256    5.8606    408.231   36.4878     36.4858     17.9853            17.9896             17.9855            17.9898             
InVirTC3     2019-10-13T02:52:35Z    -0.0016      100.041   4.784548        4.783503        1028.1987  1028.1991  405.173     0.595                 0.023          0.0189         31.7094   -64.12733  2.0937        2.4221        5.8613    5.9037    408.409   36.4974     36.4952     18.017             18.0213             18.0094            18.0137             
InVirTC3     2019-10-13T02:52:35Z    -0.0013      100.0324  4.782208        4.782525        1028.2089  1028.2086  405.956     0.311                 0.023          0.0092         31.7094   -64.1273   2.0921        2.4154        5.8662    5.8829    409.199   36.4983     36.4987     17.9932            17.9975             17.9958            18.0001             
InVirTC3     2019-10-13T02:52:35Z    -0.0008      100.0212  4.779619        4.777841        1028.2036  1028.2023  406.012     -1.033                0.0242         0.0069         31.70922  -64.12606  2.0787        2.3992        5.8253    5.8455    409.255   36.4869     36.4815     17.981             17.9853             17.9699            17.9742             
InVirTC3     2019-10-13T02:52:35Z    -0.0017      100.0441  4.780797        4.780528        1028.2127  1028.2121  406.98      0.954                 0.0235         0.0096         31.7094   -64.12728  2.0918        2.4154        5.8714    5.8904    410.232   36.4942     36.4929     17.9837            17.9881             17.9826            17.9869             
InVirTC3     2019-10-13T02:52:35Z    -0.0007      100.0177  4.778364        4.775236        1028.2072  1028.2153  407.012     -0.929                0.0266         0.0129         31.70922  -64.12606  2.077         2.3984        5.816     5.8502    410.265   36.4831     36.4836     17.9727            17.977              17.9421            17.9464             
InVirTC3     2019-10-13T02:52:35Z    -0.0016      100.0418  4.780199        4.779939        1028.2179  1028.2173  407.971     1.429                 0.0238         0.0096         31.7094   -64.12728  2.0904        2.4156        5.8636    5.8963    411.233   36.4935     36.4923     17.9784            17.9827             17.9771            17.9815             
InVirTC3     2019-10-13T02:52:35Z    -0.0014      100.0351  4.775973        4.77724         1028.2178  1028.2141  408.007     -0.763                0.0256         0.0169         31.70922  -64.12606  2.0767        2.3992        5.8214    5.8546    411.269   36.4834     36.4829     17.949             17.9533             17.9618            17.9661             
InVirTC3     2019-10-13T02:52:35Z    -0.0018      100.0461  4.779542        4.779265        1028.2234  1028.2228  408.97      1.752                 0.0226         0.0096         31.7094   -64.1273   2.0885        2.4161        5.8515    5.9023    412.24    36.493      36.4917     17.9722            17.9765             17.971             17.9753             
InVirTC3     2019-10-13T02:52:35Z    -0.0011      100.028   4.776207        4.77546         1028.2221  1028.2203  409         -0.818                0.0232         0.0129         31.70923  -64.12606  2.0761        2.3971        5.8233    5.8453    412.27    36.4837     36.4803     17.9504            17.9547             17.9471            17.9514             
InVirTC3     2019-10-13T02:52:35Z    -0.0017      100.0425  4.773671        4.771255        1028.2284  1028.2263  409.967     -0.985                0.0222         0.0144         31.70924  -64.12607  2.0744        2.3968        5.8268    5.8544    413.246   36.4797     36.472      17.9301            17.9344             17.9154            17.9197             
InVirTC3     2019-10-13T02:52:35Z    -0.0017      100.0441  4.778783        4.778523        1028.2291  1028.2283  409.991     1.967                 0.0226         0.0096         31.7094   -64.1273   2.0868        2.4148        5.8403    5.8992    413.271   36.4922     36.4908     17.9653            17.9696             17.9644            17.9687             
InVirTC3     2019-10-13T02:52:35Z    -0.0016      100.0418  4.771211        4.767618        1028.2355  1028.242   411.032     -0.856                0.0268         0.0114         31.70924  -64.12608  2.0715        2.3962        5.8199    5.8595    414.321   36.4762     36.474      17.9099            17.9142             17.8778            17.8821             
InVirTC3     2019-10-13T02:52:35Z    -0.0017      100.0445  4.777715        4.777431        1028.2345  1028.234   411.056     2.011                 0.0242         0.0096         31.7094   -64.12732  2.0857        2.4127        5.8367    5.889     414.345   36.4903     36.4892     17.9567            17.961              17.9553            17.9596             
InVirTC3     2019-10-13T02:52:35Z    -0.0017      100.0442  4.778524        4.778046        1028.2357  1028.2356  411.88      0.646                 0.0251         0.0135         31.7094   -64.12728  2.0821        2.4078        5.8324    5.8697    415.176   36.4898     36.4885     17.9647            17.969              17.9615            17.9658             
InVirTC3     2019-10-13T02:52:35Z    -0.0018      100.0452  4.769206        4.769902        1028.2409  1028.2411  412.046     -0.721                0.024          0.0198         31.70924  -64.12608  2.0679        2.3935        5.8018    5.8486    415.343   36.4723     36.4742     17.8945            17.8988             17.8992            17.9034             
InVirTC3     2019-10-13T02:52:35Z    -0.0017      100.0431  4.768028        4.7679          1028.2494  1028.2459  413.002     -0.868                0.0249         0.0008         31.70924  -64.1261   2.0649        2.3911        5.7834    5.8439    416.308   36.4736     36.47       17.8813            17.8856             17.8842            17.8884             
InVirTC3     2019-10-13T02:52:35Z    -0.0011      100.0275  4.776983        4.776714        1028.244   1028.2432  413.006     0.896                 0.0253         0.0039         31.7094   -64.12724  2.0799        2.4071        5.8373    5.8829    416.313   36.4892     36.4879     17.95              17.9543             17.9489            17.9532             
InVirTC3     2019-10-13T02:52:35Z    -0.0017      100.043   4.766503        4.764581        1028.2549  1028.2573  413.991     -0.97                 0.0277         0.0096         31.70924  -64.1261   2.0653        2.3881        5.7912    5.8303    417.306   36.4711     36.4688     17.8691            17.8733             17.853             17.8573             
InVirTC3     2019-10-13T02:52:35Z    -0.0011      100.0288  4.774448        4.77421         1028.2554  1028.2543  414.004     1.39                  0.0294         0.0169         31.7094   -64.12726  2.0798        2.4056        5.8356    5.8822    417.32    36.49       36.4883     17.9243            17.9286             17.9239            17.9282             
InVirTC3     2019-10-13T02:52:35Z    -0.0017      100.044   4.765054        4.765888        1028.2619  1028.2594  415         -0.93                 0.0261         0.0093         31.70924  -64.1261   2.0656        2.388         5.8005    5.8375    418.325   36.4701     36.4696     17.8558            17.8601             17.8644            17.8687             
InVirTC3     2019-10-13T02:52:35Z    -0.0018      100.0461  4.771342        4.771109        1028.2611  1028.2606  415.007     1.717                 0.0283         0.0169         31.7094   -64.12726  2.0799        2.4054        5.8377    5.8797    418.332   36.4839     36.4828     17.9009            17.9051             17.8998            17.9041             
InVirTC3     2019-10-13T02:52:35Z    -0.0016      100.0418  4.770617        4.77035         1028.2654  1028.2648  415.989     1.91                  0.0245         0.0096         31.70938  -64.12728  2.0798        2.4047        5.8396    5.8751    419.323   36.482      36.4808     17.8955            17.8998             17.8943            17.8986             
InVirTC3     2019-10-13T02:52:35Z    -0.0018      100.0451  4.764383        4.765332        1028.2672  1028.2641  415.991     -1.038                0.0263         0.0093         31.70924  -64.1261   2.0641        2.3872        5.7939    5.8349    419.324   36.4693     36.4685     17.8498            17.8541             17.8598            17.8641             
InVirTC3     2019-10-13T02:52:35Z    -0.0016      100.0416  4.76485         4.76421         1028.2698  1028.2692  416.951     -1.142                0.0243         0.0242         31.70924  -64.1261   2.0626        2.3849        5.7856    5.827     420.293   36.4687     36.4666     17.8545            17.8588             17.8507            17.855              
InVirTC3     2019-10-13T02:52:35Z    -0.0017      100.0445  4.769614        4.769287        1028.2719  1028.2713  417.013     1.952                 0.0244         0.0096         31.70938  -64.12728  2.0785        2.404         5.8359    5.8748    420.356   36.4816     36.4802     17.886             17.8903             17.8843            17.8886             
InVirTC3     2019-10-13T02:52:35Z    -0.0017      100.0436  4.76295         4.762251        1028.2748  1028.2754  417.977     -0.981                0.0266         0.0113         31.70924  -64.12611  2.0618        2.3842        5.787     5.8232    421.329   36.4646     36.4636     17.8404            17.8447             17.8347            17.839              
InVirTC3     2019-10-13T02:52:35Z    -0.0015      100.0373  4.76903         4.76849         1028.2757  1028.2754  418.259     0.969                 0.023          0.0096         31.70938  -64.12727  2.0776        2.4039        5.8322    5.8788    421.612   36.4784     36.4769     17.8833            17.8876             17.8798            17.8841             
InVirTC3     2019-10-13T02:52:35Z    -0.0014      100.0355  4.768514        4.76749         1028.2803  1028.2801  418.881     0.209                 0.0178         0.0096         31.70939  -64.12721  2.0763        2.398         5.8298    5.8502    422.24    36.4789     36.4764     17.8775            17.8818             17.8705            17.8748             
InVirTC3     2019-10-13T02:52:35Z    -0.0017      100.0439  4.761037        4.760816        1028.2846  1028.2829  419.026     -0.672                0.0253         0.0145         31.70924  -64.12612  2.0616        2.3833        5.7966    5.8234    422.387   36.465      36.4629     17.821             17.8253             17.8212            17.8255             
InVirTC3     2019-10-13T02:52:35Z    -0.0017      100.0434  4.766679        4.766378        1028.2869  1028.2864  419.961     0.771                 0.0176         0.0027         31.7094   -64.12721  2.0748        2.3984        5.826     5.8612    423.33    36.4764     36.4752     17.8622            17.8665             17.8607            17.865              
InVirTC3     2019-10-13T02:52:35Z    -0.0014      100.037   4.762191        4.761424        1028.2872  1028.2871  420.066     -0.548                0.023          0.0157         31.70924  -64.12613  2.0585        2.3837        5.7758    5.8347    423.436   36.4658     36.4639     17.8309            17.8351             17.8256            17.8298             
InVirTC3     2019-10-13T02:52:35Z    -0.0014      100.0353  4.760121        4.759726        1028.2937  1028.2925  420.911     -1.17                 0.0196         0.0096         31.70924  -64.1261   2.0572        2.38          5.7771    5.8276    424.289   36.4635     36.4614     17.8131            17.8174             17.8116            17.8159             
InVirTC3     2019-10-13T02:52:35Z    -0.0018      100.0461  4.764943        4.764592        1028.2942  1028.2936  420.977     1.167                 0.0184         0.0053         31.7094   -64.12724  2.0736        2.3993        5.8186    5.8762    424.356   36.4749     36.4735     17.8468            17.851              17.8449            17.8492             
InVirTC3     2019-10-13T02:52:35Z    -0.0017      100.0447  4.759338        4.758           1028.2984  1028.2997  421.974     -1.449                0.0244         0.0096         31.70924  -64.12611  2.0555        2.3755        5.7725    5.8079    425.361   36.4616     36.4597     17.8072            17.8115             17.7964            17.8007             
InVirTC3     2019-10-13T02:52:35Z    -0.0018      100.0448  4.76309         4.762548        1028.3018  1028.301   422.012     1.35                  0.0191         0.0096         31.70938  -64.12724  2.0732        2.3978        5.8226    5.8706    425.4     36.4734     36.4714     17.8302            17.8345             17.8272            17.8314             
InVirTC3     2019-10-13T02:52:35Z    -0.0018      100.0461  4.758316        4.756723        1028.3023  1028.3046  422.981     -1.322                0.0231         0.0096         31.70924  -64.12612  2.0549        2.3745        5.7731    5.8041    426.378   36.4586     36.4571     17.8003            17.8046             17.7866            17.7908             
InVirTC3     2019-10-13T02:52:35Z    -0.0017      100.0438  4.761798        4.761563        1028.3062  1028.3055  423.074     0.817                 0.0214         0.0161         31.70938  -64.12725  2.0691        2.3951        5.8055    5.8571    426.472   36.47       36.4688     17.821             17.8253             17.82              17.8243             
InVirTC3     2019-10-13T02:52:35Z    -0.0017      100.0436  4.761425        4.761103        1028.3108  1028.3101  423.952     0.435                 0.0248         0.0096         31.70938  -64.1272   2.0673        2.3934        5.8057    5.8547    427.357   36.4698     36.4684     17.8173            17.8216             17.8158            17.82               
InVirTC3     2019-10-13T02:52:35Z    -0.0017      100.0446  4.755817        4.754161        1028.3094  1028.3102  424.026     -1.015                0.0222         0.0229         31.70924  -64.12614  2.0539        2.3734        5.7709    5.8036    427.432   36.4551     36.452      17.7796            17.7839             17.7671            17.7714             
InVirTC3     2019-10-13T02:52:35Z    -0.0018      100.0461  4.759598        4.759368        1028.3182  1028.3176  424.954     0.809                 0.0249         0.0088         31.70938  -64.1272   2.0683        2.3928        5.8171    5.858     428.368   36.4683     36.4672     17.8009            17.8052             17.7999            17.8042             
InVirTC3     2019-10-13T02:52:35Z    -0.0017      100.0436  4.752114        4.752418        1028.319   1028.3197  425.052     -0.648                0.0229         0.02           31.70924  -64.12615  2.0523        2.3734        5.7696    5.8165    428.468   36.4512     36.4526     17.7479            17.7521             17.7492            17.7534             
InVirTC3     2019-10-13T02:52:35Z    -0.0018      100.0461  4.758846        4.758595        1028.3227  1028.322   425.951     1.112                 0.0266         0.0096         31.70938  -64.1272   2.0676        2.3915        5.8168    5.8527    429.375   36.4666     36.4653     17.7952            17.7994             17.7942            17.7984             
InVirTC3     2019-10-13T02:52:35Z    -0.0017      100.0428  4.752871        4.752892        1028.3257  1028.3237  426.103     -0.509                0.0279         0.0126         31.70924  -64.12616  2.0505        2.3705        5.7672    5.8131    429.528   36.4548     36.453      17.7506            17.7549             17.7529            17.7572             
InVirTC3     2019-10-13T02:52:35Z    -0.0018      100.0453  4.749658        4.751674        1028.3309  1028.3273  426.949     -1.043                0.0257         0.0202         31.70924  -64.12616  2.0467        2.3626        5.7549    5.7752    430.381   36.4488     36.45       17.7261            17.7304             17.7442            17.7484             
InVirTC3     2019-10-13T02:52:35Z    -0.0018      100.0461  4.758533        4.758275        1028.3278  1028.3271  426.993     1.371                 0.026          0.014          31.70938  -64.1272   2.0664        2.3901        5.8089    5.8468    430.426   36.4662     36.465      17.7921            17.7964             17.791             17.7953             
InVirTC3     2019-10-13T02:52:35Z    -0.0018      100.0449  4.748522        4.748008        1028.3359  1028.3358  427.963     -1.192                0.0233         0.0166         31.70924  -64.12616  2.0439        2.3616        5.742     5.7778    431.405   36.4465     36.4453     17.7173            17.7215             17.7137            17.7179             
InVirTC3     2019-10-13T02:52:35Z    -0.0017      100.0444  4.757082        4.756862        1028.3363  1028.3354  428.004     1.548                 0.0242         0.0169         31.70938  -64.12721  2.0649        2.3907        5.7995    5.8521    431.447   36.4666     36.4652     17.7772            17.7815             17.7767            17.7809             
InVirTC3     2019-10-13T02:52:35Z    -0.0018      100.0461  4.747777        4.745014        1028.3396  1028.3441  428.986     -1.114                0.0233         0.0096         31.70924  -64.12616  2.0431        2.3612        5.742     5.783     432.437   36.4439     36.4417     17.7125            17.7168             17.6883            17.6925             
InVirTC3     2019-10-13T02:52:35Z    -0.0017      100.0447  4.753586        4.753358        1028.3441  1028.3435  429.022     1.592                 0.0211         0.01           31.70938  -64.12722  2.0639        2.3919        5.7992    5.8674    432.474   36.4615     36.4605     17.7488            17.753              17.7478            17.752              
InVirTC3     2019-10-13T02:52:35Z    -0.0018      100.0449  4.746648        4.743674        1028.3469  1028.3526  430.02      -0.948                0.0241         0.0099         31.70924  -64.12618  2.0423        2.3599        5.7457    5.7835    433.481   36.4438     36.4424     17.7013            17.7056             17.6742            17.6784             
InVirTC3     2019-10-13T02:52:35Z    -0.0017      100.0443  4.752751        4.75189         1028.3479  1028.3482  430.215     0.524                 0.0215         0.0153         31.70938  -64.1272   2.0606        2.3828        5.7905    5.8271    433.677   36.4581     36.4564     17.744             17.7483             17.7376            17.7419             
InVirTC3     2019-10-13T02:52:35Z    -0.0017      100.0436  4.750845        4.750492        1028.3549  1028.3539  430.974     0.329                 0.0212         0.0096         31.70938  -64.12716  2.0566        2.3795        5.7793    5.8333    434.443   36.4571     36.4554     17.7265            17.7308             17.725             17.7293             
InVirTC3     2019-10-13T02:52:35Z    -0.0017      100.0439  4.744129        4.745944        1028.3552  1028.3541  431.04      -0.831                0.0234         0.0166         31.70924  -64.12618  2.0405        2.3583        5.744     5.7803    434.51    36.4415     36.4447     17.6791            17.6834             17.693             17.6973             
InVirTC3     2019-10-13T02:52:35Z    -0.0018      100.0453  4.743299        4.745232        1028.3607  1028.3567  432.009     -0.908                0.0242         0.0169         31.70924  -64.1262   2.0378        2.3548        5.7337    5.7654    435.488   36.4407     36.4413     17.6716            17.6759             17.6896            17.6938             
InVirTC3     2019-10-13T02:52:35Z    -0.0017      100.0426  4.748894        4.748614        1028.3614  1028.3607  432.02      0.949                 0.0195         0.0096         31.70938  -64.12716  2.0564        2.3785        5.7814    5.8323    435.499   36.4543     36.4529     17.7104            17.7146             17.7092            17.7134             
InVirTC3     2019-10-13T02:52:35Z    -0.0018      100.0461  4.743059        4.743551        1028.3645  1028.3617  432.995     -1.018                0.0255         0.0169         31.70924  -64.1262   2.0346        2.3521        5.7174    5.7554    436.483   36.4395     36.438      17.6702            17.6744             17.6766            17.6808             
InVirTC3     2019-10-13T02:52:35Z    -0.0018      100.0461  4.747909        4.747632        1028.3661  1028.3654  433.007     1.365                 0.0191         0.013          31.70938  -64.12716  2.0564        2.3768        5.7864    5.8224    436.495   36.4523     36.4509     17.7027            17.707              17.7015            17.7058             
InVirTC3     2019-10-13T02:52:35Z    -0.0018      100.045   4.741119        4.73999         1028.3653  1028.3702  433.978     -0.961                0.0238         0.0169         31.70924  -64.12622  2.0332        2.3513        5.7167    5.7567    437.475   36.4315     36.4336     17.66              17.6642             17.6467            17.6509             
InVirTC3     2019-10-13T02:52:35Z    -0.0017      100.0426  4.747521        4.747247        1028.3704  1028.3698  433.995     1.618                 0.0186         0.0169         31.70938  -64.12718  2.0553        2.375         5.7843    5.8121    437.492   36.4512     36.4501     17.6997            17.7039             17.6984            17.7026             
InVirTC3     2019-10-13T02:52:35Z    -0.0018      100.0451  4.737818        4.738353        1028.3804  1028.3781  435.012     -0.77                 0.0254         0.0026         31.70924  -64.12622  2.0321        2.3504        5.7207    5.7611    438.519   36.4339     36.4329     17.625             17.6293             17.6312            17.6355             
InVirTC3     2019-10-13T02:52:35Z    -0.0017      100.0437  4.747139        4.746878        1028.3753  1028.3747  435.044     1.616                 0.0193         0.0225         31.70938  -64.12718  2.0542        2.3747        5.7773    5.8135    438.55    36.4505     36.4494     17.6964            17.7007             17.6951            17.6994             
InVirTC3     2019-10-13T02:52:35Z    -0.0018      100.0449  4.746251        4.745942        1028.3803  1028.3798  435.966     0.903                 0.0174         0.0138         31.70938  -64.12716  2.0521        2.3724        5.7699    5.8111    439.481   36.4493     36.448      17.6888            17.6931             17.6872            17.6915             
InVirTC3     2019-10-13T02:52:35Z    -0.0017      100.0437  4.737287        4.739079        1028.3858  1028.3808  436.03      -0.638                0.0318         0.0094         31.70924  -64.1262   2.0291        2.3489        5.7087    5.7652    439.546   36.4334     36.4327     17.62              17.6242             17.638             17.6423             
InVirTC3     2019-10-13T02:52:35Z    -0.0018      100.0454  4.735784        4.736565        1028.3906  1028.3879  436.925     -1.164                0.0231         0.0094         31.70924  -64.12619  2.0264        2.3434        5.6988    5.7444    440.449   36.4307     36.4299     17.6081            17.6124             17.6166            17.6208             
InVirTC3     2019-10-13T02:52:35Z    -0.0018      100.0451  4.744459        4.7442          1028.3878  1028.387   436.995     0.656                 0.0183         0.0146         31.70938  -64.12713  2.0502        2.368         5.7639    5.7934    440.519   36.4478     36.4465     17.6727            17.6769             17.6717            17.6759             
InVirTC3     2019-10-13T02:52:35Z    -0.0018      100.0461  4.735637        4.734833        1028.3947  1028.3942  437.989     -1.386                0.0284         0.0096         31.70924  -64.12624  2.0241        2.3393        5.6888    5.733     441.522   36.4296     36.4273     17.6074            17.6117             17.6022            17.6065             
InVirTC3     2019-10-13T02:52:35Z    -0.0016      100.0416  4.742228        4.741992        1028.394   1028.3936  438.01      0.942                 0.0217         0.0109         31.70938  -64.12712  2.0494        2.3661        5.7697    5.7914    441.543   36.4442     36.4433     17.6548            17.659              17.6535            17.6578             
InVirTC3     2019-10-13T02:52:35Z    -0.0017      100.0445  4.733539        4.733066        1028.3964  1028.398   438.991     -1.147                0.0315         0.0096         31.70924  -64.12625  2.0235        2.3386        5.6897    5.7333    442.534   36.422      36.4225     17.5952            17.5994             17.5901            17.5943             
InVirTC3     2019-10-13T02:52:35Z    -0.0018      100.0452  4.741393        4.741054        1028.3993  1028.3987  439.01      0.988                 0.0244         0.0151         31.70937  -64.12714  2.0476        2.3623        5.7607    5.7804    442.553   36.443      36.4417     17.6476            17.6518             17.6458            17.65               
InVirTC3     2019-10-13T02:52:35Z    -0.0017      100.0437  4.737992        4.737674        1028.4083  1028.4077  440.004     0.822                 0.0236         0.0123         31.70936  -64.12715  2.0442        2.3611        5.7474    5.7852    443.556   36.4395     36.4382     17.6183            17.6225             17.6167            17.6209             
InVirTC3     2019-10-13T02:52:35Z    -0.0017      100.0447  4.729905        4.730559        1028.4078  1028.408   440.015     -0.797                0.0302         0.0096         31.70924  -64.12626  2.0227        2.3365        5.6952    5.7291    443.567   36.4202     36.4219     17.5617            17.566              17.5662            17.5704             
InVirTC3     2019-10-13T02:52:35Z    -0.0017      100.0442  4.736197        4.735925        1028.4133  1028.4129  441.012     0.802                 0.0234         0.013          31.70936  -64.12714  2.0413        2.3601        5.7399    5.7874    444.573   36.4357     36.4347     17.6047            17.6089             17.6032            17.6075             
InVirTC3     2019-10-13T02:52:35Z    -0.0018      100.0453  4.731967        4.732005        1028.4146  1028.4128  441.055     -0.482                0.0253         0.0145         31.70924  -64.12623  2.0213        2.3343        5.6927    5.7252    444.617   36.4269     36.4253     17.5737            17.5779             17.5758            17.58               
InVirTC3     2019-10-13T02:52:35Z    -0.0022      100.0544  4.728726        4.729302        1028.4197  1028.4168  441.906     -0.904                0.0197         0.0102         31.70924  -64.12623  2.0169        2.3295        5.6777    5.7116    445.475   36.4206     36.4192     17.549             17.5532             17.5562            17.5604             
InVirTC3     2019-10-13T02:52:35Z    -0.0017      100.0444  4.735743        4.735491        1028.4179  1028.4174  442.007     0.802                 0.0276         0.0096         31.70937  -64.12713  2.0378        2.3579        5.7244    5.7794    445.577   36.4348     36.4337     17.601             17.6052             17.5997            17.604              
InVirTC3     2019-10-13T02:52:35Z    -0.0017      100.0438  4.727979        4.727505        1028.425   1028.4226  442.976     -1.499                0.0234         0.0131         31.70925  -64.12623  2.0128        2.3247        5.6542    5.6922    446.555   36.4194     36.416      17.5427            17.5469             17.5419            17.5461             
InVirTC3     2019-10-13T02:52:35Z    -0.0017      100.0443  4.734675        4.734412        1028.423   1028.4225  443.011     0.792                 0.0243         0.0154         31.70936  -64.12713  2.0361        2.3543        5.7258    5.7658    446.59    36.4328     36.4318     17.5924            17.5966             17.5911            17.5953             
InVirTC3     2019-10-13T02:52:35Z    -0.0017      100.0438  4.734009        4.733761        1028.4284  1028.4278  443.991     0.874                 0.0254         0.0102         31.70936  -64.12711  2.036         2.3523        5.7307    5.7598    447.579   36.4323     36.4311     17.5861            17.5903             17.5851            17.5893             
InVirTC3     2019-10-13T02:52:35Z    -0.0018      100.0461  4.726777        4.725232        1028.4271  1028.4276  444.009     -1.524                0.0239         0.015          31.70926  -64.12622  2.0117        2.3244        5.6528    5.6961    447.598   36.4141     36.4111     17.5365            17.5408             17.525             17.5292             
InVirTC3     2019-10-13T02:52:35Z    -0.0017      100.0439  4.732496        4.732258        1028.4348  1028.4343  444.967     0.96                  0.0244         0.0151         31.70936  -64.1271   2.035         2.3524        5.7325    5.7698    448.565   36.4307     36.4296     17.5729            17.5771             17.5718            17.576              
InVirTC3     2019-10-13T02:52:35Z    -0.0018      100.0461  4.724366        4.722202        1028.4325  1028.4363  445.011     -1.313                0.026          0.0023         31.70926  -64.12624  2.0119        2.3233        5.6584    5.6955    448.609   36.4094     36.408      17.5181            17.5223             17.4987            17.5029             
InVirTC3     2019-10-13T02:52:35Z    -0.0017      100.0439  4.731238        4.730969        1028.4404  1028.4398  446.013     1.035                 0.0236         0.0169         31.70936  -64.12709  2.0336        2.3515        5.7234    5.7727    449.62    36.4286     36.4274     17.5627            17.5669             17.5614            17.5656             
InVirTC3     2019-10-13T02:52:35Z    -0.0028      100.0705  4.720641        4.720961        1028.4418  1028.4441  446.054     -0.953                0.027          0.0055         31.70925  -64.12625  2.0117        2.3226        5.6614    5.6971    449.661   36.4051     36.4081     17.4864            17.4906             17.4861            17.4903             
InVirTC3     2019-10-13T02:52:35Z    -0.0015      100.0384  4.729964        4.72972         1028.446   1028.4455  447.031     1.019                 0.0233         0.0169         31.70936  -64.12711  2.0315        2.3487        5.7161    5.7566    450.647   36.4266     36.4256     17.5521            17.5563             17.5509            17.5551             
InVirTC3     2019-10-13T02:52:35Z    -0.0019      100.0486  4.720506        4.71988         1028.4541  1028.453   447.048     -0.504                0.0273         0.0099         31.70924  -64.12626  2.0104        2.3213        5.6597    5.6991    450.664   36.4124     36.4098     17.4766            17.4808             17.4733            17.4775             
InVirTC3     2019-10-13T02:52:35Z    -0.0013      100.0335  4.72903         4.728773        1028.4506  1028.4501  447.983     0.83                  0.0245         0.0169         31.70936  -64.12712  2.029         2.3458        5.7074    5.7491    451.608   36.4248     36.4237     17.5447            17.5489             17.5435            17.5477             
InVirTC3     2019-10-13T02:52:35Z    -0.0023      100.0568  4.720313        4.721201        1028.4555  1028.4532  448.065     -0.49                 0.0252         0.0116         31.70924  -64.12626  2.0077        2.3173        5.6565    5.6823    451.69    36.4088     36.4087     17.4782            17.4824             17.4869            17.4911             
InVirTC3     2019-10-13T02:52:35Z    -0.0018      100.0461  4.717912        4.718318        1028.4611  1028.4583  448.929     -1.344                0.0252         0.0169         31.70926  -64.12626  2.003         2.3129        5.6458    5.6704    452.562   36.405      36.4031     17.4589            17.4631             17.4649            17.4691             
InVirTC3     2019-10-13T02:52:35Z    -0.0017      100.0435  4.727288        4.727015        1028.4581  1028.4574  448.964     0.741                 0.027          0.0171         31.70936  -64.12709  2.0247        2.3395        5.6875    5.7223    452.598   36.4237     36.4224     17.5287            17.5329             17.5275            17.5317             
InVirTC3     2019-10-13T02:52:35Z    -0.0018      100.0461  4.71589         4.716449        1028.4689  1028.4649  449.956     -1.512                0.032          0.0104         31.70926  -64.12626  2             2.3106        5.632     5.6682    453.599   36.4032     36.4007     17.4408            17.445              17.4491            17.4533             
InVirTC3     2019-10-13T02:52:35Z    -0.0018      100.0451  4.724884        4.724652        1028.4652  1028.4646  449.974     0.823                 0.0278         0.0234         31.70936  -64.12707  2.0224        2.336         5.6862    5.7171    453.617   36.4206     36.4194     17.5085            17.5127             17.5075            17.5117             
InVirTC3     2019-10-13T02:52:35Z    -0.0018      100.045   4.722741        4.72252         1028.4714  1028.4709  450.984     0.918                 0.0305         0.0169         31.70936  -64.12706  2.0213        2.3335        5.6898    5.7174    454.637   36.4172     36.4162     17.4911            17.4953             17.4901            17.4943             
InVirTC3     2019-10-13T02:52:35Z    -0.0018      100.0461  4.715403        4.715051        1028.469   1028.4707  450.991     -1.487                0.0315         0.0151         31.70926  -64.12628  1.9976        2.3102        5.6183    5.6655    454.644   36.3978     36.3986     17.4418            17.4459             17.4375            17.4416             
InVirTC3     2019-10-13T02:52:35Z    -0.0018      100.0461  4.713844        4.713427        1028.4752  1028.4746  451.979     -1.362                0.0289         0.0242         31.70925  -64.12629  1.996         2.3079        5.6162    5.6546    455.64    36.3959     36.3943     17.4284            17.4326             17.4261            17.4303             
InVirTC3     2019-10-13T02:52:35Z    -0.0017      100.0447  4.721264        4.72103         1028.4786  1028.478   451.99      1.058                 0.0289         0.01           31.70936  -64.12707  2.0197        2.3313        5.6847    5.7115    455.652   36.4162     36.4152     17.4774            17.4816             17.4764            17.4806             
InVirTC3     2019-10-13T02:52:35Z    -0.0018      100.0461  4.712112        4.711732        1028.4798  1028.4829  452.977     -1.176                0.0266         0.013          31.70924  -64.1263   1.9957        2.3068        5.6181    5.6544    456.647   36.3919     36.394      17.4156            17.4198             17.4096            17.4138             
InVirTC3     2019-10-13T02:52:35Z    -0.0018      100.045   4.718873        4.718635        1028.4853  1028.4847  453.023     1.178                 0.0274         0.0096         31.70936  -64.12708  2.0179        2.3299        5.6794    5.7115    456.694   36.4127     36.4116     17.4579            17.462              17.4567            17.4609             
InVirTC3     2019-10-13T02:52:35Z    -0.0019      100.0487  4.710117        4.709247        1028.485   1028.487   454.011     -0.946                0.0263         0.0092         31.70926  -64.1263   1.9944        2.3072        5.6122    5.6673    457.691   36.3879     36.3878     17.4004            17.4045             17.3921            17.3963             
InVirTC3     2019-10-13T02:52:35Z    -0.0019      100.0487  4.716587        4.716334        1028.4916  1028.4911  454.138     0.986                 0.0269         0.0092         31.70936  -64.12707  2.0153        2.3276        5.6726    5.7096    457.82    36.4086     36.4075     17.4399            17.4441             17.4386            17.4428             
InVirTC3     2019-10-13T02:52:35Z    -0.0018      100.0451  4.715722        4.715467        1028.4951  1028.4945  454.846     0.358                 0.0221         0.0099         31.70936  -64.12705  2.0108        2.325         5.655     5.7039    458.534   36.4069     36.4057     17.4331            17.4372             17.4319            17.4361             
InVirTC3     2019-10-13T02:52:35Z    -0.0027      100.0679  4.706403        4.705057        1028.494   1028.5011  455.032     -0.685                0.0196         0.0096         31.70926  -64.12632  1.9933        2.3066        5.615     5.6742    458.722   36.3835     36.3871     17.3689            17.373              17.3518            17.3559             
InVirTC3     2019-10-13T02:52:35Z    -0.002       100.0502  4.713841        4.713593        1028.5028  1028.5021  455.981     0.653                 0.0267         0.0169         31.70936  -64.12702  2.0075        2.3225        5.647     5.6975    459.68    36.4051     36.4038     17.4164            17.4206             17.4154            17.4196             
InVirTC3     2019-10-13T02:52:35Z    -0.0027      100.0684  4.704218        4.705412        1028.5066  1028.5059  456.068     -0.577                0.0224         0.0131         31.70926  -64.1263   1.9917        2.3018        5.6134    5.6515    459.767   36.386      36.3881     17.3445            17.3487             17.3537            17.3578             
InVirTC3     2019-10-13T02:52:35Z    -0.0027      100.0666  4.699521        4.701901        1028.5162  1028.5084  456.975     -0.893                0.0224         0.0116         31.70926  -64.12629  1.9893        2.2996        5.6099    5.6526    460.683   36.3804     36.3785     17.3049            17.309              17.33              17.3342             
InVirTC3     2019-10-13T02:52:35Z    -0.0023      100.0572  4.712596        4.712368        1028.5081  1028.5077  456.981     1.076                 0.0264         0.0106         31.70936  -64.12702  2.0074        2.3218        5.6487    5.6995    460.688   36.403      36.402      17.4063            17.4105             17.4052            17.4094             
InVirTC3     2019-10-13T02:52:35Z    -0.0028      100.07    4.698274        4.702296        1028.5223  1028.5164  457.974     -0.941                0.0287         0.023          31.70926  -64.12631  1.9867        2.2968        5.5968    5.6432    461.691   36.3791     36.3827     17.2938            17.2979             17.3287            17.3329             
InVirTC3     2019-10-13T02:52:35Z    -0.0027      100.0684  4.712057        4.711807        1028.5134  1028.5128  457.998     1.42                  0.0279         0.0096         31.70936  -64.12702  2.0075        2.3206        5.6553    5.6962    461.715   36.4024     36.4012     17.4013            17.4055             17.4001            17.4043             
InVirTC3     2019-10-13T02:52:35Z    -0.0028      100.0702  4.697451        4.698877        1028.5279  1028.522   458.989     -1.006                0.0284         0.0177         31.70926  -64.12631  1.9859        2.294         5.5961    5.6313    462.716   36.3782     36.3758     17.2864            17.2905             17.3028            17.307              
InVirTC3     2019-10-13T02:52:35Z    -0.0018      100.0461  4.709851        4.709598        1028.5216  1028.5207  459.032     1.668                 0.0311         0.0096         31.70936  -64.12702  2.0074        2.3187        5.662     5.6906    462.759   36.4006     36.3992     17.3814            17.3856             17.3806            17.3847             
InVirTC3     2019-10-13T02:52:35Z    -0.0028      100.0689  4.697049        4.696519        1028.5327  1028.5295  459.992     -1.107                0.0261         0.0236         31.70926  -64.12633  1.985         2.2925        5.5909    5.6287    463.727   36.3775     36.3732     17.2828            17.2869             17.2824            17.2866             
InVirTC3     2019-10-13T02:52:35Z    -0.0017      100.0447  4.708604        4.70835         1028.5263  1028.5257  460.039     1.721                 0.0298         0.0096         31.70936  -64.12702  2.0071        2.3175        5.6621    5.6855    463.775   36.3979     36.3968     17.372             17.3761             17.3708            17.3749             
InVirTC3     2019-10-13T02:52:35Z    -0.0028      100.0696  4.695406        4.694243        1028.5362  1028.5399  460.989     -1.069                0.0245         0.0169         31.70926  -64.12633  1.9847        2.2926        5.5948    5.6367    464.734   36.3727     36.3736     17.2718            17.276              17.2595            17.2637             
InVirTC3     2019-10-13T02:52:35Z    -0.0018      100.0461  4.70773         4.707242        1028.5295  1028.5291  461.014     0.58                  0.0263         0.0126         31.70936  -64.12701  2.0039        2.3148        5.6454    5.6827    464.759   36.3948     36.3933     17.3666            17.3707             17.3635            17.3677             
InVirTC3     2019-10-13T02:52:35Z    -0.0018      100.045   4.70385         4.703355        1028.5411  1028.5404  461.992     0.483                 0.0266         0.0169         31.70936  -64.12698  2.0017        2.3136        5.6465    5.6913    465.746   36.3926     36.3909     17.331             17.3351             17.3281            17.3323             
InVirTC3     2019-10-13T02:52:35Z    -0.0028      100.0698  4.693985        4.693875        1028.5446  1028.5448  462.008     -0.961                0.0238         0.0169         31.70926  -64.12636  1.9846        2.2918        5.6015    5.6396    465.762   36.3731     36.373      17.2571            17.2612             17.2562            17.2603             
InVirTC3     2019-10-13T02:52:35Z    -0.0017      100.0446  4.700163        4.699906        1028.5491  1028.5486  463.005     0.984                 0.0268         0.0169         31.70936  -64.127    2.0004        2.3116        5.6436    5.6858    466.768   36.3874     36.3864     17.3007            17.3048             17.2993            17.3035             
InVirTC3     2019-10-13T02:52:35Z    -0.003       100.0742  4.693424        4.6945          1028.5519  1028.5485  463.017     -0.934                0.0251         0.0219         31.70926  -64.12635  1.9832        2.2897        5.5978    5.629     466.78    36.3744     36.3737     17.2498            17.2539             17.261             17.2652             
InVirTC3     2019-10-13T02:52:35Z    -0.0018      100.0461  4.698133        4.697863        1028.5547  1028.5541  463.99      1.249                 0.0283         0.01           31.70936  -64.127    1.9994        2.3098        5.639     5.6754    467.763   36.3838     36.3826     17.2845            17.2887             17.2832            17.2874             
InVirTC3     2019-10-13T02:52:35Z    -0.0032      100.0788  4.692323        4.692982        1028.5568  1028.5531  464.001     -1.056                0.023          0.0188         31.70926  -64.12632  1.9811        2.2876        5.5862    5.6253    467.774   36.3723     36.3704     17.241             17.2452             17.2496            17.2537             
InVirTC3     2019-10-13T02:52:35Z    -0.0037      100.0934  4.692211        4.691951        1028.5581  1028.5597  464.997     -1.135                0.0204         0.0119         31.70926  -64.12633  1.9799        2.2859        5.5789    5.621     468.779   36.369      36.3699     17.2432            17.2474             17.2397            17.2438             
InVirTC3     2019-10-13T02:52:35Z    -0.0018      100.0472  4.697338        4.697069        1028.5588  1028.5584  465.032     1.318                 0.0285         0.0096         31.70935  -64.12701  1.9975        2.3064        5.633     5.6636    468.814   36.3814     36.3804     17.2791            17.2832             17.2776            17.2817             
InVirTC3     2019-10-13T02:52:35Z    -0.0033      100.0832  4.690541        4.689902        1028.563   1028.564   465.992     -1.039                0.0256         0.0127         31.70926  -64.12634  1.9799        2.2841        5.5849    5.6139    469.783   36.3656     36.365      17.2304            17.2346             17.2248            17.229              
InVirTC3     2019-10-13T02:52:35Z    -0.0019      100.0496  4.696937        4.696652        1028.5634  1028.563   466.012     1.048                 0.0293         0.0181         31.70934  -64.12702  1.9935        2.3017        5.6132    5.6421    469.803   36.3806     36.3796     17.2756            17.2798             17.274             17.2782             
InVirTC3     2019-10-13T02:52:35Z    -0.0028      100.0702  4.696272        4.69599         1028.5684  1028.5679  466.979     0.816                 0.0275         0.0191         31.70935  -64.12701  1.9899        2.3009        5.5966    5.6546    470.779   36.3797     36.3787     17.2698            17.2739             17.2683            17.2724             
InVirTC3     2019-10-13T02:52:35Z    -0.0038      100.0947  4.689006        4.68773         1028.5687  1028.5729  467.021     -0.83                 0.0254         0.0169         31.70926  -64.12636  1.9798        2.2831        5.5903    5.6087    470.822   36.3631     36.3641     17.2179            17.222              17.2043            17.2085             
InVirTC3     2019-10-13T02:52:35Z    -0.0028      100.0701  4.696149        4.695906        1028.5732  1028.5728  468.001     0.898                 0.0227         0.0118         31.70936  -64.12699  1.9881        2.3003        5.6       5.6556    471.811   36.3797     36.3787     17.2682            17.2724             17.267             17.2711             
InVirTC3     2019-10-13T02:52:35Z    -0.0036      100.0912  4.686929        4.687093        1028.5788  1028.5769  468.042     -0.65                 0.0251         0.0142         31.70926  -64.12636  1.978         2.2828        5.5828    5.6092    471.852   36.3636     36.3621     17.1968            17.2009             17.2               17.2041             
InVirTC3     2019-10-13T02:52:35Z    -0.0036      100.0911  4.686581        4.686822        1028.5829  1028.5815  469         -0.832                0.0246         0.0137         31.70926  -64.12636  1.977         2.284         5.5867    5.6263    472.819   36.3625     36.3617     17.1941            17.1982             17.1974            17.2015             
InVirTC3     2019-10-13T02:52:35Z    -0.0027      100.0685  4.696323        4.696069        1028.5779  1028.5776  469.024     0.923                 0.0167         0.0093         31.70934  -64.12696  1.9879        2.2986        5.6051    5.6496    472.844   36.3802     36.3792     17.2689            17.273              17.2675            17.2716             
InVirTC3     2019-10-13T02:52:35Z    -0.0031      100.0781  4.685742        4.685811        1028.5873  1028.5848  469.955     -1.138                0.0243         0.0228         31.70926  -64.12636  1.9744        2.2809        5.5764    5.6105    473.783   36.3606     36.3584     17.1877            17.1918             17.1908            17.1949             
InVirTC3     2019-10-13T02:52:35Z    -0.0029      100.0713  4.69534         4.695098        1028.5846  1028.5842  470.021     0.812                 0.02           0.0041         31.70934  -64.12696  1.9884        2.2976        5.6144    5.6491    473.85    36.38       36.3791     17.2592            17.2633             17.2578            17.262              
InVirTC3     2019-10-13T02:52:35Z    -0.0032      100.0814  4.694359        4.694097        1028.5897  1028.5892  470.971     0.752                 0.0227         0.0177         31.70934  -64.12696  1.9867        2.2944        5.6019    5.6357    474.808   36.3785     36.3774     17.2509            17.255              17.2496            17.2537             
InVirTC3     2019-10-13T02:52:35Z    -0.0032      100.0786  4.6845          4.684114        1028.5918  1028.5932  470.998     -1.163                0.0234         0.0176         31.70926  -64.12638  1.9726        2.279         5.5676    5.6036    474.836   36.3576     36.3581     17.1786            17.1827             17.1743            17.1784             
InVirTC3     2019-10-13T02:52:35Z    -0.0032      100.0799  4.692597        4.692393        1028.5959  1028.5956  471.973     0.805                 0.0238         0.0223         31.70934  -64.12696  1.9866        2.2931        5.608     5.6347    475.82    36.3761     36.3753     17.2361            17.2402             17.235             17.2391             
InVirTC3     2019-10-13T02:52:35Z    -0.0031      100.0783  4.684091        4.684007        1028.5976  1028.5969  472.009     -1.097                0.0242         0.0207         31.70926  -64.12638  1.9713        2.2792        5.5644    5.608     475.856   36.3578     36.357      17.1739            17.178              17.174             17.1782             
InVirTC3     2019-10-13T02:52:35Z    -0.0032      100.0805  4.690267        4.689829        1028.6018  1028.6012  473.019     0.867                 0.0231         0.0143         31.70934  -64.12696  1.9861        2.292         5.6099    5.6386    476.875   36.3718     36.3702     17.2178            17.2219             17.2153            17.2195             
InVirTC3     2019-10-13T02:52:35Z    -0.0032      100.0804  4.683507        4.681397        1028.6003  1028.6023  473.023     -1.01                 0.0223         0.0192         31.70926  -64.12638  1.9708        2.2791        5.5642    5.6141    476.88    36.3547     36.3518     17.1712            17.1753             17.154             17.1582             
InVirTC3     2019-10-13T02:52:35Z    -0.0031      100.0783  4.688665        4.688394        1028.6069  1028.6065  474.013     0.888                 0.0223         0.0064         31.70934  -64.12694  1.9847        2.291         5.6027    5.6378    477.879   36.3688     36.3677     17.2052            17.2094             17.2038            17.2079             
InVirTC3     2019-10-13T02:52:35Z    -0.0032      100.0789  4.680321        4.679861        1028.6086  1028.6101  474.017     -0.84                 0.0207         0.0106         31.70926  -64.12639  1.9695        2.278         5.5591    5.6177    477.883   36.351      36.3514     17.144             17.1481             17.1391            17.1432             
InVirTC3     2019-10-13T02:52:35Z    -0.0033      100.0825  4.68791         4.68764         1028.6118  1028.6113  475.033     0.991                 0.0231         0.0027         31.70934  -64.12696  1.9831        2.2906        5.5953    5.6374    478.908   36.3672     36.3661     17.1992            17.2033             17.1978            17.2019             
InVirTC3     2019-10-13T02:52:35Z    -0.0033      100.083   4.679386        4.679043        1028.6186  1028.6164  475.048     -0.736                0.0221         0.0169         31.70926  -64.1264   1.9687        2.2757        5.5596    5.6096    478.924   36.354      36.3511     17.1312            17.1353             17.1311            17.1352             
InVirTC3     2019-10-13T02:52:35Z    -0.0029      100.0733  4.686675        4.686456        1028.6184  1028.6178  476.014     1.128                 0.0233         0.0096         31.70934  -64.12693  1.9823        2.2906        5.5951    5.6424    479.899   36.3665     36.3655     17.1876            17.1917             17.1866            17.1907             
InVirTC3     2019-10-13T02:52:35Z    -0.0033      100.0816  4.678111        4.678526        1028.6231  1028.622   476.021     -1.036                0.021          0.0133         31.70926  -64.1264   1.9683        2.2723        5.5622    5.5966    479.906   36.3511     36.3511     17.1216            17.1257             17.1256            17.1298             
InVirTC3     2019-10-13T02:52:35Z    -0.0033      100.0823  4.677064        4.677545        1028.63    1028.6274  476.989     -1.29                 0.0233         0.0131         31.70926  -64.12641  1.9668        2.2715        5.5511    5.5932    480.882   36.3512     36.3498     17.1109            17.115              17.1172            17.1213             
InVirTC3     2019-10-13T02:52:35Z    -0.003       100.0738  4.684069        4.683749        1028.6255  1028.6251  477.01      1.058                 0.0237         0.0159         31.70934  -64.12692  1.981         2.2883        5.5949    5.6337    480.904   36.363      36.3619     17.1658            17.1699             17.1639            17.168              
InVirTC3     2019-10-13T02:52:35Z    -0.0032      100.0797  4.677118        4.675973        1028.6321  1028.6321  477.981     -1.256                0.0284         0.0156         31.70926  -64.12642  1.9662        2.2696        5.5513    5.5791    481.883   36.3491     36.3464     17.1134            17.1175             17.1052            17.1093             
InVirTC3     2019-10-13T02:52:35Z    -0.003       100.0754  4.68147         4.681191        1028.6317  1028.6314  477.991     0.8                   0.0201         0.0169         31.70934  -64.12692  1.9795        2.2837        5.592     5.6141    481.894   36.3586     36.3577     17.1449            17.1491             17.1433            17.1474             
InVirTC3     2019-10-13T02:52:35Z    -0.0038      100.0967  4.675837        4.674188        1028.6367  1028.6391  478.976     -1.046                0.0248         0.0092         31.70926  -64.1264   1.967         2.2695        5.5589    5.5857    482.888   36.3462     36.3447     17.1037            17.1078             17.0893            17.0935             
InVirTC3     2019-10-13T02:52:35Z    -0.003       100.0758  4.680109        4.67985         1028.6387  1028.6382  479.018     0.808                 0.0182         0.0146         31.70934  -64.12692  1.9773        2.2818        5.5831    5.6109    482.93    36.3578     36.3568     17.1322            17.1363             17.1309            17.135              
InVirTC3     2019-10-13T02:52:35Z    -0.0029      100.0732  4.678714        4.678453        1028.6443  1028.6439  480.017     0.682                 0.0172         0.0102         31.70934  -64.12693  1.9742        2.2819        5.5723    5.6252    483.939   36.3556     36.3546     17.1207            17.1248             17.1193            17.1234             
InVirTC3     2019-10-13T02:52:35Z    -0.0039      100.0969  4.674125        4.67364         1028.6457  1028.6471  480.017     -0.723                0.0275         0.0096         31.70926  -64.12643  1.9665        2.2716        5.5584    5.5985    483.939   36.3464     36.3466     17.0864            17.0905             17.0815            17.0856             
InVirTC3     2019-10-13T02:52:35Z    -0.003       100.074   4.678349        4.678097        1028.6489  1028.6484  480.944     0.543                 0.0176         0.0153         31.70934  -64.1269   1.9723        2.2805        5.5701    5.6194    484.874   36.3552     36.3542     17.1172            17.1213             17.1159            17.12               
InVirTC3     2019-10-13T02:52:35Z    -0.0039      100.0975  4.674127        4.674164        1028.6505  1028.648   481.089     -0.374                0.0285         0.0189         31.70926  -64.12643  1.9661        2.2713        5.5634    5.6063    485.021   36.3463     36.3441     17.086             17.0901             17.0889            17.093              
InVirTC3     2019-10-13T02:52:35Z    -0.0038      100.0966  4.673394        4.673259        1028.6541  1028.6539  481.87      -0.994                0.0245         0.0138         31.70926  -64.12644  1.9632        2.2667        5.5564    5.5952    485.809   36.3448     36.3443     17.0803            17.0844             17.0796            17.0837             
InVirTC3     2019-10-13T02:52:35Z    -0.0032      100.0789  4.677941        4.677672        1028.6542  1028.6537  481.972     0.846                 0.0191         0.0096         31.70934  -64.12689  1.972         2.2786        5.572     5.6107    485.912   36.3549     36.3538     17.1132            17.1173             17.1117            17.1158             
InVirTC3     2019-10-13T02:52:35Z    -0.0038      100.0952  4.671076        4.671468        1028.66    1028.6567  482.982     -1.63                 0.0311         0.0169         31.70926  -64.12645  1.9601        2.2616        5.5435    5.5727    486.931   36.3403     36.338      17.0624            17.0664             17.0687            17.0728             
InVirTC3     2019-10-13T02:52:35Z    -0.0031      100.0767  4.677553        4.677273        1028.6592  1028.6589  483.006     1.166                 0.0176         0.0229         31.70934  -64.1269   1.972         2.2783        5.5761    5.6113    486.956   36.3544     36.3534     17.1095            17.1136             17.1079            17.112              
InVirTC3     2019-10-13T02:52:35Z    -0.0038      100.0962  4.669373        4.668387        1028.6607  1028.6623  483.983     -1.52                 0.0303         0.0112         31.70926  -64.12646  1.9589        2.2607        5.5373    5.5752    487.942   36.3327     36.3319     17.0538            17.0579             17.0451            17.0491             
InVirTC3     2019-10-13T02:52:35Z    -0.0031      100.0782  4.677305        4.677034        1028.6644  1028.6638  484.017     1.38                  0.0182         0.0212         31.70934  -64.1269   1.9711        2.2784        5.5728    5.616     487.977   36.3543     36.3532     17.1067            17.1108             17.1054            17.1095             
InVirTC3     2019-10-13T02:52:35Z    -0.0039      100.0981  4.66607         4.664204        1028.6667  1028.67    484.998     -1.24                 0.0281         0.0096         31.70926  -64.12644  1.9579        2.2602        5.5359    5.5829    488.967   36.3264     36.3252     17.0283            17.0324             17.0114            17.0155             
InVirTC3     2019-10-13T02:52:35Z    -0.0033      100.0819  4.67628         4.676042        1028.6705  1028.6701  485.022     1.354                 0.0162         0.0169         31.70934  -64.1269   1.9708        2.279         5.5711    5.6234    488.991   36.3536     36.3526     17.0972            17.1013             17.0959            17.1001             
InVirTC3     2019-10-13T02:52:35Z    -0.0036      100.091   4.675159        4.674881        1028.6752  1028.6748  486.007     0.974                 0.0197         0.0193         31.70934  -64.1269   1.9691        2.2774        5.5653    5.6181    489.985   36.3511     36.3502     17.0886            17.0927             17.0869            17.091              
InVirTC3     2019-10-13T02:52:35Z    -0.0039      100.0981  4.662052        4.661647        1028.6806  1028.6835  486.043     -0.862                0.0229         0.0096         31.70926  -64.12645  1.9577        2.2594        5.541     5.583     490.021   36.326      36.3279     16.9892            16.9933             16.9832            16.9872             
InVirTC3     2019-10-13T02:52:35Z    -0.0038      100.095   4.673215        4.672887        1028.682   1028.6814  487.015     0.741                 0.0217         0.0242         31.70934  -64.12689  1.9682        2.2736        5.5647    5.597     491.002   36.3489     36.3476     17.0718            17.0759             17.0701            17.0742             
InVirTC3     2019-10-13T02:52:35Z    -0.0039      100.0971  4.661833        4.661818        1028.6891  1028.6898  487.059     -0.444                0.0216         0.014          31.70926  -64.12646  1.9576        2.2568        5.5439    5.571     491.047   36.3293     36.3299     16.983             16.9871             16.9821            16.9862             
InVirTC3     2019-10-13T02:52:35Z    -0.0039      100.0981  4.660502        4.661003        1028.6943  1028.6918  487.956     -0.693                0.0248         0.0107         31.70927  -64.12645  1.9562        2.2545        5.5412    5.5634    491.952   36.3273     36.326      16.9718            16.9759             16.9782            16.9822             
InVirTC3     2019-10-13T02:52:35Z    -0.0038      100.0964  4.671565        4.671261        1028.6877  1028.6872  487.99      0.718                 0.0248         0.0183         31.70934  -64.12688  1.9678        2.2723        5.5684    5.6016    491.986   36.3463     36.3452     17.0582            17.0622             17.0565            17.0606             
InVirTC3     2019-10-13T02:52:35Z    -0.0039      100.0981  4.657083        4.657508        1028.6932  1028.6943  488.957     -1.331                0.0293         0.0225         31.70928  -64.12644  1.9544        2.2527        5.533     5.5577    492.962   36.314      36.3161     16.9529            16.957              16.9548            16.9588             
InVirTC3     2019-10-13T02:52:35Z    -0.0039      100.0981  4.6692          4.668903        1028.6965  1028.696   489.006     0.806                 0.0195         0.0169         31.70934  -64.12686  1.9684        2.2724        5.5773    5.6108    493.012   36.3449     36.3438     17.0363            17.0404             17.0348            17.0388             
InVirTC3     2019-10-13T02:52:35Z    -0.0039      100.0981  4.655205        4.6531          1028.7045  1028.707   489.988     -1.31                 0.0302         0.019          31.70927  -64.12645  1.954         2.2519        5.5385    5.5573    494.003   36.3161     36.3136     16.9319            16.9359             16.9142            16.9182             
InVirTC3     2019-10-13T02:52:35Z    -0.0037      100.0942  4.666659        4.666402        1028.7025  1028.7022  490.048     0.866                 0.0227         0.0156         31.70934  -64.12686  1.9668        2.2715        5.5699    5.6093    494.064   36.3403     36.3394     17.0163            17.0204             17.0148            17.0189             
InVirTC3     2019-10-13T02:52:35Z    -0.0039      100.0975  4.664449        4.664148        1028.7091  1028.7087  490.963     0.594                 0.0235         0.0052         31.70934  -64.12686  1.9648        2.2687        5.5614    5.5974    494.987   36.3376     36.3365     16.9975            17.0015             16.9958            16.9998             
InVirTC3     2019-10-13T02:52:35Z    -0.0039      100.0981  4.652644        4.65146         1028.7112  1028.7125  491.048     -1.1                  0.0277         0.0169         31.70926  -64.12647  1.9539        2.252         5.5479    5.5581    495.074   36.312      36.3105     16.9111            16.9151             16.9012            16.9052             
InVirTC3     2019-10-13T02:52:35Z    -0.0039      100.097   4.662782        4.662517        1028.7141  1028.7136  491.969     0.626                 0.0225         0.009          31.70932  -64.12685  1.9628        2.2665        5.5542    5.5943    496.003   36.3342     36.3331     16.9846            16.9887             16.9833            16.9873             
InVirTC3     2019-10-13T02:52:35Z    -0.0039      100.0981  4.651111        4.65078         1028.7193  1028.7212  492.043     -0.778                0.0259         0.0169         31.70926  -64.1265   1.9531        2.2525        5.5431    5.5609    496.077   36.3119     36.313      16.8958            16.8998             16.8914            16.8954             
InVirTC3     2019-10-13T02:52:35Z    -0.0038      100.0952  4.662355        4.662051        1028.7188  1028.7183  492.991     0.963                 0.0194         0.0153         31.70932  -64.12684  1.9622        2.2652        5.5562    5.5893    497.034   36.3333     36.3321     16.981             16.9851             16.9794            16.9834             
InVirTC3     2019-10-13T02:52:35Z    -0.0039      100.0969  4.652226        4.651575        1028.7254  1028.7257  493.25      -0.523                0.0217         0.0103         31.70927  -64.12648  1.9499        2.2525        5.5267    5.5697    497.296   36.3152     36.314      16.9025            16.9066             16.8975            16.9016             
InVirTC3     2019-10-13T02:52:35Z    -0.0038      100.0956  4.648639        4.649123        1028.73    1028.7279  493.919     -1.655                0.0277         0.0103         31.70928  -64.12648  1.9482        2.2495        5.522     5.5605    497.971   36.3085     36.3075     16.8748            16.8788             16.8805            16.8846             
InVirTC3     2019-10-13T02:52:35Z    -0.0038      100.0965  4.66172         4.661519        1028.7241  1028.7236  493.998     1.249                 0.0193         0.0151         31.70932  -64.12684  1.9627        2.264         5.5624    5.5874    498.051   36.3326     36.3316     16.9752            16.9792             16.9743            16.9784             
InVirTC3     2019-10-13T02:52:35Z    -0.0038      100.0964  4.647499        4.647401        1028.7367  1028.7344  494.978     -1.545                0.0215         0.0169         31.70928  -64.1265   1.9478        2.2491        5.5227    5.5565    499.04    36.3076     36.3052     16.8642            16.8682             16.8659            16.8699             
InVirTC3     2019-10-13T02:52:35Z    -0.0038      100.0967  4.658753        4.65842         1028.7325  1028.7318  495.008     1.404                 0.0176         0.0092         31.70932  -64.12683  1.9618        2.2645        5.5651    5.5951    499.07    36.3295     36.328      16.9494            16.9534             16.9477            16.9518             
InVirTC3     2019-10-13T02:52:35Z    -0.0037      100.0916  4.655405        4.655156        1028.7383  1028.7379  496.035     1.314                 0.0172         0.0157         31.70933  -64.12683  1.9603        2.2656        5.5566    5.6099    500.107   36.3228     36.3219     16.9238            16.9278             16.9224            16.9265             
InVirTC3     2019-10-13T02:52:35Z    -0.0039      100.0981  4.646975        4.646172        1028.7406  1028.7417  496.041     -1.196                0.0229         0.0138         31.70928  -64.12652  1.9478        2.2482        5.5266    5.5541    500.113   36.3056     36.3048     16.8608            16.8649             16.8539            16.858              
InVirTC3     2019-10-13T02:52:35Z    -0.0033      100.0829  4.653074        4.652818        1028.7444  1028.744   497.012     1.066                 0.0212         0.0169         31.70933  -64.12682  1.9585        2.2643        5.5493    5.6057    501.093   36.3191     36.3181     16.9048            16.9089             16.9034            16.9075             
InVirTC3     2019-10-13T02:52:35Z    -0.0038      100.0946  4.646569        4.646449        1028.7473  1028.7465  497.023     -0.811                0.0252         0.0096         31.70928  -64.12653  1.9478        2.249         5.5278    5.558     501.104   36.3069     36.3058     16.8551            16.8591             16.855             16.8591             
InVirTC3     2019-10-13T02:52:35Z    -0.0038      100.0951  4.646108        4.645611        1028.7517  1028.7512  497.983     -0.497                0.0266         0.0147         31.70928  -64.12652  1.9461        2.2489        5.5192    5.5664    502.074   36.3058     36.3043     16.8513            16.8553             16.8482            16.8522             
InVirTC3     2019-10-13T02:52:35Z    -0.0032      100.0795  4.650742        4.650485        1028.7513  1028.751   498.023     0.963                 0.0234         0.0219         31.70933  -64.12682  1.9577        2.2606        5.5534    5.585     502.114   36.316      36.3151     16.8851            16.8891             16.8836            16.8877             
InVirTC3     2019-10-13T02:52:35Z    -0.0038      100.0944  4.650298        4.650115        1028.7544  1028.7538  498.818     0.641                 0.0235         0.0144         31.70932  -64.12681  1.9531        2.2553        5.5343    5.5701    502.917   36.3145     36.3135     16.8821            16.8861             16.8814            16.8855             
InVirTC3     2019-10-13T02:52:35Z    -0.0038      100.0967  4.648126        4.647412        1028.7542  1028.754   499.1       -0.899                0.0212         0.0154         31.7093   -64.12668  1.9461        2.2463        5.5175    5.5575    503.201   36.3081     36.3063     16.8679            16.872              16.863             16.8671             
InVirTC3     2019-10-13T02:52:35Z    -0.0037      100.0919  4.650787        4.649537        1028.7551  1028.7561  500.009     -0.644                0.0234         0.0152         31.70932  -64.12675  1.9476        2.2485        5.5197    5.5602    504.118   36.3111     36.3092     16.8901            16.8942             16.88              16.8841             
InVirTC3     2019-10-13T02:52:35Z    -0.0039      100.0981  4.648063        4.647688        1028.7645  1028.7635  500.034     1.251                 0.022          0.0169         31.70932  -64.12678  1.954         2.2547        5.5542    5.5858    504.144   36.3137     36.312      16.8606            16.8647             16.8589            16.863              
InVirTC3     2019-10-13T02:52:35Z    -0.0033      100.0829  4.647876        4.645075        1028.7615  1028.7639  501.039     -0.32                 0.0246         0.0169         31.70932  -64.12679  1.9484        2.2475        5.5195    5.5499    505.158   36.3061     36.302      16.8669            16.871              16.8442            16.8482             
InVirTC3     2019-10-13T02:52:35Z    -0.0037      100.0938  4.644387        4.644129        1028.773   1028.7724  501.073     1.526                 0.0195         0.0128         31.70932  -64.1268   1.9532        2.2534        5.5499    5.581     505.193   36.309      36.3078     16.8297            16.8337             16.8285            16.8325             
InVirTC3     2019-10-13T02:52:35Z    -0.0036      100.0906  4.642115        4.641281        1028.7718  1028.7743  501.777     1.04                  0.0214         0.0138         31.70932  -64.12679  1.9503        2.2502        5.5313    5.5639    505.903   36.2995     36.3        16.8178            16.8218             16.8091            16.8131             
InVirTC4     2019-10-13T06:59:49Z    0.0346       99.1399   5.68436         5.683961        1024.1677  1024.1642  4.304       -0.341                0.0411         0.0506         31.67754  -64.13332  2.5798        2.998         6.2842    6.3455    4.334     36.654      36.65       26.4207            26.4271             26.4221            26.4285             
InVirTC4     2019-10-13T06:59:49Z    0.0322       99.1984   5.684993        5.684644        1024.1702  1024.1662  4.875       -0.055                0.042          0.0545         31.67736  -64.13302  2.5792        2.9964        6.2826    6.3404    4.909     36.6556     36.6512     26.4243            26.4306             26.4266            26.4329             
InVirTC4     2019-10-13T06:59:49Z    0.0321       99.2018   5.685039        5.684599        1024.1735  1024.1698  5.87        -0.374                0.0452         0.05           31.67733  -64.13298  2.5765        2.9953        6.2725    6.3401    5.911     36.6547     36.6504     26.4254            26.4318             26.4268            26.4331             
InVirTC4     2019-10-13T06:59:49Z    0.0317       99.2125   5.684994        5.684589        1024.179   1024.1752  7.075       -0.337                0.047          0.0467         31.67732  -64.13298  2.5783        2.9921        6.2811    6.3268    7.124     36.6547     36.6503     26.4245            26.4309             26.4263            26.4326             
InVirTC4     2019-10-13T06:59:49Z    0.0317       99.2118   5.685216        5.684725        1024.182   1024.1782  7.91        -0.644                0.0454         0.0424         31.67732  -64.13295  2.5783        2.9962        6.2845    6.346     7.965     36.6546     36.6501     26.4263            26.4326             26.4275            26.4338             
InVirTC4     2019-10-13T06:59:49Z    0.0316       99.2131   5.685312        5.684961        1024.1865  1024.1827  9.011       -0.446                0.0446         0.0462         31.67732  -64.13294  2.5756        2.9938        6.2726    6.3408    9.074     36.6545     36.6503     26.4269            26.4332             26.4289            26.4352             
InVirTC4     2019-10-13T06:59:49Z    0.0316       99.2139   5.685488        5.685135        1024.1904  1024.1864  9.976       -0.517                0.0432         0.041          31.6773   -64.13294  2.5788        2.992         6.2836    6.3274    10.046    36.6546     36.6502     26.428             26.4343             26.4302            26.4365             
InVirTC4     2019-10-13T06:59:49Z    0.0317       99.2119   5.685855        5.685607        1024.1943  1024.1901  10.914      -1.278                0.0398         0.0462         31.67728  -64.13291  2.5798        2.9977        6.2904    6.3549    10.99     36.6553     36.6511     26.43              26.4363             26.4331            26.4394             
InVirTC4     2019-10-13T06:59:49Z    0.0317       99.2112   5.686066        5.685769        1024.1989  1024.1955  11.987      -1.171                0.0421         0.0508         31.67728  -64.1329   2.5777        2.9954        6.2771    6.3526    12.071    36.6557     36.652      26.431             26.4374             26.433             26.4393             
InVirTC4     2019-10-13T06:59:49Z    0.0335       99.167    5.686539        5.686143        1024.202   1024.1992  12.997      0.045                 0.0409         0.0491         31.67478  -64.12867  2.5768        2.9863        6.279     6.3184    13.089    36.6557     36.6522     26.435             26.4413             26.4357            26.4421             
InVirTC4     2019-10-13T06:59:49Z    0.0317       99.211    5.686679        5.68614         1024.2042  1024.2001  13.017      -0.758                0.0444         0.0535         31.6773   -64.13292  2.577         2.9918        6.2741    6.3325    13.108    36.6578     36.6529     26.4335            26.4399             26.4348            26.4411             
InVirTC4     2019-10-13T06:59:49Z    0.0343       99.1467   5.687717        5.687304        1024.2064  1024.2035  13.676      0.506                 0.0419         0.0488         31.67495  -64.12895  2.5794        2.9914        6.2881    6.3342    13.772    36.6598     36.6563     26.4402            26.4466             26.4409            26.4473             
InVirTC4     2019-10-13T06:59:49Z    0.0313       99.2221   5.686578        5.686051        1024.2075  1024.204   14.149      -0.238                0.0426         0.0504         31.67729  -64.13292  2.5809        2.9884        6.2978    6.318     14.249    36.656      36.6518     26.4344            26.4407             26.435             26.4413             
InVirTC4     2019-10-13T06:59:49Z    0.0317       99.2114   5.687696        5.687173        1024.2113  1024.2073  14.807      -0.711                0.0416         0.0461         31.67726  -64.13292  2.5783        2.9949        6.2826    6.3433    14.911    36.6597     36.6548     26.4398            26.4461             26.4411            26.4474             
InVirTC4     2019-10-13T06:59:49Z    0.0359       99.1075   5.688003        5.687617        1024.2125  1024.21    15.025      0.842                 0.0462         0.0462         31.67542  -64.12976  2.5816        2.9962        6.3025    6.357     15.131    36.6606     36.6575     26.4413            26.4476             26.4417            26.4481             
InVirTC4     2019-10-13T06:59:49Z    0.0322       99.1988   5.688477        5.688414        1024.2171  1024.2133  15.963      -1.576                0.0454         0.0462         31.67727  -64.13289  2.5828        2.9938        6.3026    6.3399    16.075    36.6622     36.6587     26.4433            26.4496             26.4471            26.4534             
InVirTC4     2019-10-13T06:59:49Z    0.0362       99.0988   5.687462        5.68702         1024.2164  1024.2138  16.035      0.691                 0.0477         0.0391         31.67542  -64.12977  2.5778        3.0002        6.2819    6.3628    16.148    36.6588     36.6553     26.4383            26.4446             26.4385            26.4449             
InVirTC4     2019-10-13T06:59:49Z    0.0363       99.098    5.688511        5.688172        1024.2199  1024.2174  16.976      0.507                 0.0465         0.0468         31.67543  -64.12978  2.5783        2.9882        6.2859    6.3128    17.096    36.6608     36.6578     26.445             26.4513             26.4456            26.452              
InVirTC4     2019-10-13T06:59:49Z    0.0317       99.2123   5.689055        5.689651        1024.2224  1024.2189  16.993      -1.463                0.0402         0.0462         31.67728  -64.13288  2.5817        2.9936        6.3011    6.3403    17.112    36.6642     36.6627     26.4456            26.4519             26.453             26.4593             
InVirTC4     2019-10-13T06:59:49Z    0.0363       99.0969   5.688128        5.687509        1024.2246  1024.2217  17.981      0.549                 0.0459         0.0433         31.67544  -64.12979  2.5826        2.9938        6.3072    6.3497    18.108    36.6601     36.6559     26.4419            26.4483             26.4415            26.4478             
InVirTC4     2019-10-13T06:59:49Z    0.0316       99.2139   5.690095        5.690658        1024.2271  1024.224   18.029      -1.139                0.0379         0.0514         31.67728  -64.13286  2.5814        2.9933        6.3023    6.3411    18.156    36.667      36.6656     26.4512            26.4576             26.458             26.4644             
InVirTC4     2019-10-13T06:59:49Z    0.0309       99.2312   5.69178         5.691452        1024.233   1024.2294  19.03       -0.744                0.0419         0.0527         31.67727  -64.13286  2.5798        2.9941        6.298     6.3431    19.164    36.6724     36.6685     26.4594            26.4657             26.4613            26.4676             
InVirTC4     2019-10-13T06:59:49Z    0.0359       99.1072   5.688264        5.68791         1024.2291  1024.2265  19.049      0.573                 0.0424         0.0423         31.67544  -64.1298   2.5793        2.9945        6.2873    6.3455    19.183    36.6601     36.657      26.4427            26.449              26.4433            26.4497             
InVirTC4     2019-10-13T06:59:49Z    0.0359       99.1074   5.68905         5.688808        1024.2342  1024.2318  19.94       0.459                 0.0437         0.0415         31.67544  -64.12982  2.5772        2.9956        6.2826    6.3484    20.08     36.6631     36.6604     26.4458            26.4522             26.4469            26.4533             
InVirTC4     2019-10-13T06:59:49Z    0.0312       99.2233   5.692189        5.691792        1024.2363  1024.2321  20.108      -0.344                0.0396         0.0462         31.67726  -64.13287  2.5767        2.9916        6.2852    6.3293    20.25     36.6721     36.6675     26.463             26.4694             26.4652            26.4715             
InVirTC4     2019-10-13T06:59:49Z    0.0315       99.2163   5.692868        5.692525        1024.24    1024.236   20.912      -0.67                 0.0428         0.0462         31.67724  -64.13287  2.5739        2.9967        6.273     6.3504    21.059    36.674      36.6697     26.4666            26.4729             26.4688            26.4752             
InVirTC4     2019-10-13T06:59:49Z    0.0362       99.0993   5.689145        5.688667        1024.2392  1024.2365  20.991      0.682                 0.0408         0.0494         31.67545  -64.12981  2.5787        2.9974        6.2908    6.3545    21.139    36.6636     36.66       26.4456            26.4519             26.4457            26.452              
InVirTC4     2019-10-13T06:59:49Z    0.0308       99.232    5.69305         5.692966        1024.2455  1024.2418  21.968      -1.18                 0.0443         0.0596         31.67724  -64.13285  2.5747        2.9937        6.2732    6.3421    22.122    36.6751     36.6717     26.4664            26.4727             26.4699            26.4762             
InVirTC4     2019-10-13T06:59:49Z    0.0361       99.1028   5.689189        5.688697        1024.2437  1024.2411  22.037      0.857                 0.0397         0.0449         31.67546  -64.1298   2.5779        2.9958        6.2911    6.3481    22.192    36.6636     36.6601     26.4456            26.452              26.4455            26.4518             
InVirTC4     2019-10-13T06:59:49Z    0.0383       99.0477   5.68906         5.688646        1024.2475  1024.2448  22.976      0.52                  0.0409         0.0454         31.67546  -64.12983  2.5748        2.9936        6.2768    6.3427    23.138    36.6629     36.6596     26.4448            26.4512             26.4453            26.4516             
InVirTC4     2019-10-13T06:59:49Z    0.0316       99.2127   5.693323        5.693139        1024.2506  1024.2468  23.011      -1.139                0.043          0.0493         31.67724  -64.13283  2.5738        2.9935        6.2725    6.3476    23.173    36.6762     36.6725     26.4671            26.4734             26.4701            26.4764             
InVirTC4     2019-10-13T06:59:49Z    0.0385       99.0438   5.689392        5.688994        1024.2522  1024.2496  24.002      0.538                 0.0492         0.0426         31.67546  -64.12985  2.5752        2.9896        6.2832    6.3308    24.171    36.6639     36.6606     26.4463            26.4526             26.4467            26.4531             
InVirTC4     2019-10-13T06:59:49Z    0.0316       99.2126   5.693731        5.693121        1024.2558  1024.2538  24.02       -0.944                0.0454         0.0532         31.67724  -64.13282  2.577         2.993         6.2887    6.3441    24.189    36.6778     36.6746     26.4683            26.4747             26.4668            26.4732             
InVirTC4     2019-10-13T06:59:49Z    0.0365       99.0912   5.690131        5.689357        1024.257   1024.2544  25.006      0.64                  0.0439         0.0535         31.67546  -64.12984  2.5748        2.9906        6.2802    6.3387    25.182    36.666      36.6619     26.4499            26.4563             26.4481            26.4544             
InVirTC4     2019-10-13T06:59:49Z    0.0316       99.2128   5.693885        5.693469        1024.2625  1024.2597  25.025      -0.665                0.0432         0.0609         31.67724  -64.13282  2.5756        2.9891        6.2798    6.3267    25.202    36.6802     36.6767     26.4664            26.4727             26.467             26.4733             
InVirTC4     2019-10-13T06:59:49Z    0.0323       99.1968   5.69474         5.694414        1024.266   1024.261   26.022      -0.565                0.046          0.0528         31.67723  -64.13284  2.5756        2.9914        6.2854    6.3368    26.205    36.6816     36.6763     26.4721            26.4784             26.4756            26.482              
InVirTC4     2019-10-13T06:59:49Z    0.0371       99.0779   5.691583        5.689926        1024.2635  1024.2584  26.026      0.576                 0.0434         0.0509         31.67548  -64.12985  2.5795        2.9889        6.3013    6.3323    26.209    36.6714     36.6628     26.456             26.4624             26.4517            26.458              
InVirTC4     2019-10-13T06:59:49Z    0.037        99.0802   5.695115        5.694126        1024.27    1024.2674  26.911      0.464                 0.0369         0.0427         31.67547  -64.12986  2.5776        2.9856        6.2858    6.319     27.101    36.6825     36.6778     26.4739            26.4803             26.4709            26.4772             
InVirTC4     2019-10-13T06:59:49Z    0.0403       98.9988   5.694671        5.694337        1024.2691  1024.2648  26.937      -0.948                0.0465         0.0599         31.67722  -64.13283  2.5733        2.9923        6.2709    6.3399    27.127    36.6806     36.6759     26.4723            26.4787             26.4751            26.4814             
InVirTC4     2019-10-13T06:59:49Z    0.0369       99.081    5.696285        5.695738        1024.2757  1024.2729  27.968      0.676                 0.0374         0.0535         31.67547  -64.12986  2.5777        2.9846        6.2864    6.3226    28.166    36.6863     36.6825     26.4794            26.4857             26.4792            26.4856             
InVirTC4     2019-10-13T06:59:49Z    0.0315       99.215    5.69458         5.693971        1024.2747  1024.2709  27.975      -1.287                0.0471         0.0593         31.67722  -64.13283  2.5748        2.9923        6.2806    6.339     28.173    36.6811     36.6763     26.4704            26.4767             26.4708            26.4772             
InVirTC4     2019-10-13T06:59:49Z    0.0316       99.2139   5.694449        5.693539        1024.2799  1024.2772  28.982      -1.133                0.0457         0.0535         31.67722  -64.13281  2.577         2.9939        6.2944    6.3496    29.187    36.6815     36.6768     26.4683            26.4747             26.4658            26.4722             
InVirTC4     2019-10-13T06:59:49Z    0.0373       99.0713   5.696899        5.696245        1024.2806  1024.2779  29.06       0.855                 0.0412         0.0462         31.67548  -64.12986  2.5819        2.9859        6.3081    6.3236    29.265    36.6879     36.6839     26.4826            26.4889             26.4816            26.488              
InVirTC4     2019-10-13T06:59:49Z    0.0367       99.087    5.69722         5.696838        1024.2844  1024.2817  29.836      0.351                 0.0494         0.0445         31.67548  -64.12987  2.5797        2.9864        6.2935    6.3268    30.047    36.689      36.6857     26.4838            26.4902             26.4845            26.4909             
InVirTC4     2019-10-13T06:59:49Z    0.0308       99.2334   5.693736        5.692607        1024.2854  1024.2848  30.048      -0.861                0.0476         0.0602         31.67722  -64.1328   2.5758        2.9947        6.2889    6.3581    30.26     36.6803     36.677      26.4629            26.4692             26.4567            26.4631             
InVirTC4     2019-10-13T06:59:49Z    0.0374       99.0699   5.697614        5.697256        1024.2902  1024.2876  30.993      0.636                 0.0448         0.0389         31.67548  -64.12988  2.5799        2.9872        6.2994    6.3323    31.212    36.6906     36.6874     26.4849            26.4913             26.4857            26.492              
InVirTC4     2019-10-13T06:59:49Z    0.0315       99.2158   5.692822        5.692411        1024.2943  1024.29    31.038      -0.592                0.0484         0.0454         31.67721  -64.1328   2.5734        2.9926        6.2804    6.3544    31.258    36.6819     36.6771     26.4521            26.4584             26.4543            26.4607             
InVirTC4     2019-10-13T06:59:49Z    0.0313       99.2213   5.694658        5.693837        1024.2934  1024.2901  32.03       -0.48                 0.0492         0.0466         31.6772   -64.1328   2.5733        2.9867        6.2782    6.3285    32.256    36.6819     36.677      26.4684            26.4747             26.4671            26.4735             
InVirTC4     2019-10-13T06:59:49Z    0.0368       99.0847   5.697367        5.696982        1024.2955  1024.293   32.044      0.874                 0.0477         0.0458         31.6755   -64.12989  2.5764        2.989         6.2822    6.3369    32.27     36.6904     36.6873     26.4824            26.4888             26.4828            26.4892             
InVirTC4     2019-10-13T06:59:49Z    0.031        99.2279   5.693488        5.693572        1024.2992  1024.2933  32.918      -0.999                0.0517         0.0568         31.67719  -64.1328   2.5742        2.9884        6.2794    6.3361    33.151    36.6806     36.6756     26.4591            26.4654             26.4661            26.4724             
InVirTC4     2019-10-13T06:59:49Z    0.0366       99.0893   5.697423        5.697048        1024.2994  1024.2967  32.998      0.473                 0.0445         0.0473         31.6755   -64.12988  2.5767        2.9893        6.2891    6.3361    33.231    36.6903     36.6871     26.4827            26.4891             26.4834            26.4897             
InVirTC4     2019-10-13T06:59:49Z    0.0365       99.0918   5.697303        5.696936        1024.3042  1024.3016  33.947      0.45                  0.0415         0.0462         31.6755   -64.12988  2.5793        2.9902        6.3004    6.3434    34.187    36.6905     36.6874     26.481             26.4873             26.4816            26.488              
InVirTC4     2019-10-13T06:59:49Z    0.0316       99.2139   5.691968        5.692022        1024.3065  1024.3005  33.948      -1.367                0.0504         0.0758         31.6772   -64.13278  2.5779        2.9907        6.2973    6.3456    34.188    36.6791     36.674      26.4466            26.453              26.4535            26.4599             
InVirTC4     2019-10-13T06:59:49Z    0.0367       99.0868   5.696283        5.695897        1024.3098  1024.3074  34.995      0.777                 0.0417         0.0462         31.6755   -64.12991  2.5805        2.984         6.3041    6.3166    35.243    36.6888     36.6857     26.4734            26.4798             26.4738            26.4802             
InVirTC4     2019-10-13T06:59:49Z    0.0308       99.2323   5.690844        5.690466        1024.3134  1024.3095  34.996      -1.294                0.0472         0.0686         31.67718  -64.13276  2.5779        2.9887        6.2937    6.3309    35.243    36.6782     36.6739     26.4371            26.4434             26.439             26.4453             
InVirTC4     2019-10-13T06:59:49Z    0.0313       99.22     5.689903        5.688871        1024.3201  1024.3211  35.985      -1.094                0.0488         0.0712         31.67718  -64.13276  2.5777        2.9878        6.2952    6.3204    36.239    36.6778     36.6761     26.4286            26.4349             26.4213            26.4276             
InVirTC4     2019-10-13T06:59:49Z    0.0367       99.0869   5.696257        5.695858        1024.3143  1024.3118  36.023      0.841                 0.0393         0.0462         31.6755   -64.12991  2.5805        2.9866        6.3053    6.3333    36.278    36.6886     36.6855     26.473             26.4793             26.4733            26.4796             
InVirTC4     2019-10-13T06:59:49Z    0.031        99.2281   5.685559        5.686181        1024.3389  1024.3328  37.015      -0.809                0.0489         0.0745         31.67718  -64.13276  2.5803        2.9933        6.303     6.3369    37.277    36.6793     36.6756     26.3867            26.393              26.397             26.4033             
InVirTC4     2019-10-13T06:59:49Z    0.0365       99.0929   5.696213        5.695828        1024.3187  1024.3161  37.032      0.561                 0.0432         0.0495         31.6755   -64.12994  2.5733        2.9847        6.2741    6.3267    37.294    36.6884     36.6852     26.4724            26.4788             26.4729            26.4793             
InVirTC4     2019-10-13T06:59:49Z    0.0372       99.0755   5.696279        5.695882        1024.3228  1024.3202  38.01       0.399                 0.0418         0.048          31.67552  -64.12994  2.5715        2.9875        6.2776    6.34      38.279    36.6884     36.6852     26.4727            26.479              26.4731            26.4794             
InVirTC4     2019-10-13T06:59:49Z    0.0305       99.2399   5.687038        5.687143        1024.3522  1024.3443  38.063      -0.517                0.0529         0.0663         31.67718  -64.13276  2.5829        3.0061        6.2987    6.3821    38.333    36.6905     36.6839     26.3857            26.3921             26.3949            26.4013             
InVirTC4     2019-10-13T06:59:49Z    0.0368       99.0839   5.696446        5.696032        1024.3268  1024.3242  38.966      0.433                 0.0422         0.0522         31.67552  -64.12994  2.5717        2.9889        6.2791    6.3421    39.242    36.6887     36.6853     26.4735            26.4798             26.4739            26.4802             
InVirTC4     2019-10-13T06:59:49Z    0.0307       99.2344   5.685728        5.686801        1024.3526  1024.3414  39.047      -0.522                0.0498         0.066          31.67717  -64.13275  2.6011        3.0193        6.3351    6.378     39.323    36.6838     36.6767     26.3818            26.3881             26.4004            26.4067             
InVirTC4     2019-10-13T06:59:49Z    0.0306       99.2375   5.676764        5.679198        1024.3812  1024.3661  39.955      -1.131                0.0511         0.0693         31.67716  -64.13275  2.6324        3.0603        6.4183    6.4762    40.238    36.6826     36.6756     26.301             26.3073             26.332             26.3384             
InVirTC4     2019-10-13T06:59:49Z    0.0374       99.0696   5.696625        5.696246        1024.3313  1024.3289  39.978      0.636                 0.045          0.0599         31.67552  -64.12994  2.5727        2.9889        6.2834    6.3386    40.261    36.6891     36.686      26.4741            26.4805             26.4746            26.4809             
InVirTC4     2019-10-13T06:59:49Z    0.0314       99.2194   5.66916         5.671914        1024.3936  1024.3904  40.98       -1.344                0.0457         0.0709         31.67716  -64.13275  2.6656        3.1053        6.5842    6.6517    41.27     36.6703     36.6744     26.2465            26.2528             26.2665            26.2728             
InVirTC4     2019-10-13T06:59:49Z    0.0366       99.0901   5.696726        5.696337        1024.3359  1024.3333  41.005      0.845                 0.042          0.0544         31.67552  -64.12996  2.5718        2.9891        6.2828    6.3463    41.296    36.6893     36.6862     26.4744            26.4808             26.4748            26.4812             
InVirTC4     2019-10-13T06:59:49Z    0.0316       99.2139   5.663238        5.656041        1024.4054  1024.433   41.997      -1.33                 0.044          0.0755         31.67716  -64.13272  2.6839        3.121         6.6594    6.7115    42.295    36.6617     36.6677     26.2027            26.209              26.1294            26.1357             
InVirTC4     2019-10-13T06:59:49Z    0.038        99.0539   5.697015        5.696574        1024.3411  1024.3386  42.041      0.976                 0.0456         0.0674         31.67552  -64.12995  2.5725        2.9894        6.2818    6.3443    42.339    36.6906     36.6873     26.475             26.4813             26.4751            26.4814             
InVirTC4     2019-10-13T06:59:49Z    0.0317       99.2123   5.644635        5.629596        1024.44    1024.5034  42.991      -1.13                 0.0528         0.0755         31.67716  -64.13272  2.679         3.1211        6.6422    6.742     43.296    36.6414     36.6589     26.0577            26.0639             25.898             25.9042             
InVirTC4     2019-10-13T06:59:49Z    0.0367       99.0878   5.696477        5.695768        1024.3469  1024.3456  43.096      0.342                 0.0436         0.0645         31.67553  -64.12995  2.573         2.9846        6.2872    6.3322    43.402    36.6902     36.6873     26.4701            26.4765             26.4673            26.4737             
InVirTC4     2019-10-13T06:59:49Z    0.0378       99.0599   5.69459         5.693678        1024.3594  1024.3585  43.956      0.395                 0.0441         0.0583         31.67552  -64.12998  2.5719        2.9845        6.2846    6.3327    44.267    36.693      36.6899     26.4491            26.4554             26.4446            26.451              
InVirTC4     2019-10-13T06:59:49Z    0.0317       99.2112   5.601959        5.588143        1024.598   1024.6889  44.057      -0.8                  0.0622         0.082          31.67716  -64.13271  2.6768        3.1277        6.6877    6.8107    44.37     36.6684     36.7135     25.6326            25.6388             25.4501            25.4562             
InVirTC4     2019-10-13T06:59:49Z    0.0369       99.0812   5.691378        5.690878        1024.377   1024.375   44.998      0.876                 0.0479         0.0543         31.67552  -64.12998  2.5721        2.9845        6.2895    6.3418    45.317    36.6962     36.6932     26.4153            26.4217             26.4145            26.4209             
InVirTC4     2019-10-13T06:59:49Z    0.0323       99.196    5.579608        5.577266        1024.7411  1024.746   45.052      -0.517                0.0608         0.0828         31.67715  -64.1327   2.684         3.1278        6.7457    6.8295    45.372    36.7341     36.7327     25.346             25.3521             25.3263            25.3324             
InVirTC4     2019-10-13T06:59:49Z    0.0336       99.1629   5.577173        5.570788        1024.7527  1024.7767  45.989      -0.506                0.0594         0.0894         31.67714  -64.13272  2.6848        3.1274        6.7449    6.8334    46.316    36.7346     36.7398     25.3227            25.3288             25.2577            25.2638             
InVirTC4     2019-10-13T06:59:49Z    0.0379       99.0567   5.689488        5.689076        1024.3935  1024.3909  46.03       1.18                  0.0517         0.0609         31.67554  -64.12998  2.5752        2.9885        6.3066    6.3577    46.357    36.7017     36.6985     26.3907            26.3971             26.3911            26.3974             
InVirTC4     2019-10-13T06:59:49Z    0.0342       99.1489   5.574276        5.566655        1024.768   1024.7934  46.961      -0.795                0.0678         0.0902         31.67712  -64.13271  2.6911        3.1278        6.7764    6.83      47.295    36.7371     36.7404     25.2926            25.2987             25.2187            25.2247             
InVirTC4     2019-10-13T06:59:49Z    0.0368       99.0856   5.688335        5.687299        1024.4009  1024.4012  47.168      0.418                 0.0582         0.0697         31.67555  -64.12999  2.5776        2.9967        6.3151    6.3847    47.504    36.7009     36.6985     26.3808            26.3872             26.3743            26.3806             
InVirTC4     2019-10-13T06:59:49Z    0.0367       99.087    5.687244        5.685637        1024.4136  1024.4087  47.98       0.416                 0.0492         0.0755         31.67552  -64.13002  2.5831        2.9905        6.3417    6.3465    48.321    36.706      36.6977     26.3641            26.3705             26.3598            26.3662             
InVirTC4     2019-10-13T06:59:49Z    0.0347       99.1349   5.566193        5.564287        1024.7977  1024.8059  48.012      -0.745                0.069          0.0902         31.67712  -64.13269  2.6884        3.1316        6.7491    6.8242    48.353    36.7389     36.7413     25.2159            25.2219             25.1954            25.2014             
InVirTC4     2019-10-13T06:59:49Z    0.0367       99.0854   5.564894        5.566025        1024.8126  1024.8035  48.972      -0.79                 0.0726         0.0938         31.67712  -64.13268  2.6994        3.1461        6.7996    6.8752    49.32     36.7451     36.7399     25.196             25.202              25.2127            25.2188             
InVirTC4     2019-10-13T06:59:49Z    0.0368       99.0853   5.673916        5.673044        1024.4897  1024.4886  49.008      0.923                 0.051          0.0755         31.67554  -64.13002  2.5803        2.9877        6.3397    6.3577    49.357    36.7348     36.7316     26.2061            26.2124             26.2021            26.2084             
InVirTC4     2019-10-13T06:59:49Z    0.0375       99.0669   5.649467        5.648985        1024.5862  1024.584   50          1.148                 0.0521         0.0841         31.67554  -64.13002  2.5772        2.9953        6.347     6.4207    50.355    36.7537     36.7506     25.9588            25.9651             25.9584            25.9646             
InVirTC4     2019-10-13T06:59:49Z    0.0349       99.1303   5.535433        5.533638        1024.8993  1024.897   50.245      -0.572                0.0696         0.0948         31.67683  -64.1323   2.7058        3.1499        6.86      6.9313    50.603    36.7437     36.7372     24.9264            24.9323             24.9179            24.9239             
InVirTC4     2019-10-13T06:59:49Z    0.0378       99.0599   5.650311        5.642789        1024.5533  1024.5826  50.848      0.325                 0.055          0.087          31.67556  -64.13002  2.6123        3.05          6.4881    6.6036    51.21     36.724      36.7306     26.0032            26.0095             25.9262            25.9324             
InVirTC4     2019-10-13T06:59:49Z    0.0348       99.1338   5.440575        5.429936        1025.1072  1025.1699  50.927      -1.357                0.0777         0.1142         31.67658  -64.13198  2.7058        3.1473        6.9443    7.02      51.289    36.6901     36.7198     24.1184            24.1242             23.9842            23.9899             
InVirTC4     2019-10-13T06:59:49Z    0.0348       99.1344   5.405301        5.393822        1025.2507  1025.2919  51.963      -1.374                0.0765         0.1138         31.67658  -64.13196  2.7087        3.1465        7.0132    7.0598    52.333    36.7272     36.736      23.7472            23.7529             23.6304            23.6361             
InVirTC4     2019-10-13T06:59:49Z    0.0371       99.0774   5.592237        5.595211        1024.8324  1024.8213  51.974      0.669                 0.0492         0.0744         31.67554  -64.13002  2.6121        3.0481        6.4993    6.5817    52.344    36.8189     36.8165     25.354             25.3601             25.3841            25.3902             
InVirTC4     2019-10-13T06:59:49Z    0.0359       99.1083   5.381926        5.377546        1025.3406  1025.3617  52.989      -0.976                0.0766         0.1121         31.67659  -64.13195  2.7151        3.1544        7.0935    7.1212    53.366    36.7464     36.7546     23.5075            23.5132             23.4572            23.4628             
InVirTC4     2019-10-13T06:59:49Z    0.0387       99.0369   5.551736        5.551208        1024.9179  1024.9166  53.008      1.092                 0.0548         0.0975         31.67554  -64.13002  2.5995        3.0233        6.4867    6.531     53.386    36.7893     36.7868     25.0193            25.0253             25.0175            25.0235             
InVirTC4     2019-10-13T06:59:49Z    0.043        98.9296   5.526394        5.525989        1025.0045  1025.0033  54.058      1.13                  0.0574         0.1003         31.67556  -64.13002  2.6263        3.0641        6.649     6.7346    54.443    36.7988     36.7968     24.7747            24.7807             24.7734            24.7794             
InVirTC4     2019-10-13T06:59:49Z    0.0336       99.1649   5.37034         5.370593        1025.3953  1025.3864  54.123      -0.574                0.08           0.1274         31.67657  -64.13194  2.686         3.1265        7.0136    7.0756    54.508    36.7627     36.7553     23.3802            23.3858             23.3914            23.397              
InVirTC4     2019-10-13T06:59:49Z    0.042        98.9567   5.51042         5.51551         1025.0198  1025.0043  54.919      0.336                 0.066          0.1083         31.67556  -64.13003  2.6973        3.1569        6.9373    7.0538    55.31     36.7694     36.7683     24.6636            24.6695             24.7117            24.7176             
InVirTC4     2019-10-13T06:59:49Z    0.0337       99.1608   5.351606        5.356993        1025.408   1025.4079  54.943      -1.594                0.0797         0.1396         31.67656  -64.13192  2.6624        3.095         6.9314    6.9606    55.334    36.7248     36.738      23.2518            23.2574             23.2859            23.2915             
InVirTC4     2019-10-13T06:59:49Z    0.0439       98.9073   5.48325         5.479147        1025.1555  1025.1643  55.977      0.502                 0.0655         0.0969         31.67556  -64.13005  2.7179        3.1571        6.9748    7.0019    56.376    36.8187     36.8164     24.3532            24.3591             24.3183            24.3242             
InVirTC4     2019-10-13T06:59:49Z    0.0342       99.1498   5.328306        5.326837        1025.4744  1025.4726  55.993      -1.644                0.0808         0.1341         31.67656  -64.13194  2.6638        3.0997        6.9795    7.0212    56.392    36.7236     36.7183     23.0368            23.0423             23.0295            23.035              
InVirTC4     2019-10-13T06:59:49Z    0.0345       99.1415   5.320608        5.320284        1025.5221  1025.5215  56.997      -1.351                0.0847         0.1383         31.67656  -64.13193  2.663         3.1058        7.0023    7.0687    57.403    36.7437     36.7425     22.9409            22.9464             22.9394            22.9449             
InVirTC4     2019-10-13T06:59:49Z    0.0442       98.9018   5.435822        5.435409        1025.2896  1025.2892  57.008      0.784                 0.066          0.1153         31.67556  -64.13006  2.7076        3.1438        6.9835    6.9907    57.414    36.817      36.8156     23.9184            23.9242             23.9163            23.922              
InVirTC4     2019-10-13T06:59:49Z    0.0316       99.2139   5.320745        5.323485        1025.5381  1025.5298  58.037      -0.861                0.0889         0.1415         31.67656  -64.13192  2.6603        3.1079        6.9983    7.0842    58.451    36.7543     36.7535     22.9291            22.9346             22.9555            22.961              
InVirTC4     2019-10-13T06:59:49Z    0.0443       98.9002   5.411791        5.411665        1025.3494  1025.3492  58.048      0.888                 0.0683         0.1078         31.67556  -64.13006  2.7146        3.1699        7.0384    7.1717    58.462    36.8073     36.8068     23.7081            23.7138             23.7075            23.7132             
InVirTC4     2019-10-13T06:59:49Z    0.0439       98.9095   5.404886        5.402376        1025.3581  1025.3649  58.939      0.369                 0.0699         0.1319         31.67558  -64.13006  2.7131        3.1724        7.0419    7.1544    59.359    36.7946     36.7945     23.6593            23.665              23.6362            23.6419             
InVirTC4     2019-10-13T06:59:49Z    0.0315       99.2163   5.317105        5.317624        1025.5417  1025.5299  59.073      -0.684                0.0877         0.1382         31.67654  -64.13191  2.6459        3.0831        6.9288    7.0086    59.495    36.7445     36.7352     22.9065            22.912              22.9224            22.9279             
InVirTC4     2019-10-13T06:59:49Z    0.0317       99.2123   5.299527        5.296739        1025.5662  1025.5682  59.945      -2.049                0.0885         0.1309         31.67654  -64.1319   2.6405        3.0739        6.9249    6.9958    60.373    36.7204     36.7153     22.7717            22.7772             22.7518            22.7573             
InVirTC4     2019-10-13T06:59:49Z    0.0437       98.9129   5.386619        5.386786        1025.4216  1025.4196  59.987      0.523                 0.073          0.1142         31.67556  -64.13008  2.7095        3.1609        7.0493    7.1182    60.415    36.8026     36.8012     23.4805            23.4861             23.4837            23.4894             
InVirTC4     2019-10-13T06:59:49Z    0.0421       98.9538   5.363832        5.363541        1025.4705  1025.4699  61.02       0.87                  0.078          0.1286         31.67556  -64.13008  2.7068        3.1536        7.066     7.1281    61.456    36.7866     36.7854     23.2885            23.2941             23.2873            23.2929             
InVirTC4     2019-10-13T06:59:49Z    0.0318       99.2096   5.29126         5.286804        1025.6081  1025.5994  61.025      -1.947                0.0891         0.1409         31.67654  -64.1319   2.6374        3.0676        6.9215    6.9806    61.461    36.7338     36.715      22.6784            22.6839             22.6594            22.6648             
InVirTC4     2019-10-13T06:59:49Z    0.0316       99.2139   5.282122        5.277269        1025.6085  1025.633   62.036      -1.686                0.0953         0.1428         31.67654  -64.13188  2.6357        3.0651        6.9281    6.9901    62.479    36.7078     36.7183     22.6239            22.6294             22.5664            22.5718             
InVirTC4     2019-10-13T06:59:49Z    0.0413       98.9727   5.357466        5.357169        1025.4879  1025.4877  62.099      0.885                 0.0789         0.142          31.67558  -64.13008  2.7053        3.1604        7.0673    7.1737    62.543    36.7824     36.7815     23.2342            23.2398             23.2325            23.2381             
InVirTC4     2019-10-13T06:59:49Z    0.0416       98.9664   5.351035        5.348873        1025.5043  1025.5067  62.869      0.276                 0.0754         0.1483         31.67558  -64.13009  2.6884        3.1261        7.0089    7.0534    63.318    36.7784     36.7752     23.1791            23.1847             23.1629            23.1685             
InVirTC4     2019-10-13T06:59:49Z    0.0313       99.221    5.27104         5.268145        1025.6513  1025.6716  62.992      -1.33                 0.0983         0.1561         31.67654  -64.13188  2.6367        3.067         6.9492    7.0135    63.442    36.7159     36.7273     22.5108            22.5163             22.4704            22.4758             
InVirTC4     2019-10-13T06:59:49Z    0.0406       98.99     5.338504        5.338112        1025.5357  1025.5349  63.953      0.497                 0.081          0.1158         31.67558  -64.1301   2.6709        3.107         6.9637    7.0347    64.41     36.7716     36.77       23.0707            23.0762             23.069             23.0745             
InVirTC4     2019-10-13T06:59:49Z    0.0306       99.2382   5.262062        5.26454         1025.6917  1025.6946  64.008      -0.857                0.097          0.159          31.67654  -64.13186  2.6368        3.0688        6.9612    7.0263    64.466    36.7266     36.7353     22.4141            22.4195             22.4269            22.4323             
InVirTC4     2019-10-13T06:59:49Z    0.0392       99.0249   5.333727        5.33341         1025.5504  1025.5497  64.988      0.734                 0.0879         0.1288         31.67558  -64.1301   2.6625        3.1029        6.9393    7.0294    65.453    36.7691     36.7677     23.029             23.0345             23.0277            23.0332             
InVirTC4     2019-10-13T06:59:49Z    0.0288       99.2829   5.258803        5.27389         1025.717   1025.6837  65.095      -0.342                0.0925         0.1927         31.67654  -64.13186  2.6345        3.0656        6.9595    7.0025    65.561    36.7373     36.7436     22.3706            22.376              22.5036            22.509              
InVirTC4     2019-10-13T06:59:49Z    0.0299       99.2552   5.261307        5.259709        1025.7121  1025.7055  65.907      -0.528                0.0957         0.1733         31.67652  -64.13188  2.6256        3.0554        6.943     7.0114    66.379    36.7356     36.7257     22.3956            22.401              22.3924            22.3978             
InVirTC4     2019-10-13T06:59:49Z    0.0393       99.0213   5.328824        5.328546        1025.568   1025.5673  65.99       0.88                  0.0914         0.1418         31.6756   -64.1301   2.6566        3.1019        6.936     7.0394    66.462    36.769      36.7677     22.9832            22.9888             22.9822            22.9877             
InVirTC4     2019-10-13T06:59:49Z    0.0302       99.2473   5.249391        5.243161        1025.7229  1025.735   67.006      -1.25                 0.1001         0.1708         31.67652  -64.13186  2.6092        3.0329        6.8956    6.9611    67.485    36.712      36.708      22.3121            22.3174             22.2588            22.2641             
InVirTC4     2019-10-13T06:59:49Z    0.0402       99.0016   5.319382        5.319115        1025.5939  1025.5935  67.069      0.812                 0.0819         0.1485         31.6756   -64.1301   2.6498        3.0915        6.9245    7.0105    67.548    36.765      36.764      22.9               22.9055             22.8987            22.9042             
InVirTC4     2019-10-13T06:59:49Z    0.0396       99.0151   5.313316        5.314209        1025.6115  1025.6073  67.923      0.303                 0.0822         0.1513         31.67558  -64.13012  2.6418        3.0772        6.9123    6.9798    68.409    36.7627     36.7611     22.8461            22.8516             22.8563            22.8618             
InVirTC4     2019-10-13T06:59:49Z    0.0303       99.2454   5.238395        5.229676        1025.7526  1025.7675  68.02       -1.123                0.0995         0.1854         31.67652  -64.13186  2.6043        3.0287        6.8971    6.9854    68.506    36.7083     36.7008     22.2136            22.2189             22.141             22.1464             
InVirTC4     2019-10-13T06:59:49Z    0.0392       99.0237   5.297627        5.297527        1025.6606  1025.6598  68.951      0.489                 0.0898         0.1471         31.6756   -64.13013  2.6365        3.073         6.9153    6.9975    69.444    36.7648     36.7638     22.6975            22.7029             22.6978            22.7032             
InVirTC4     2019-10-13T06:59:49Z    0.0299       99.2563   5.228013        5.21588         1025.7733  1025.8294  69.014      -0.958                0.1009         0.1951         31.67652  -64.13185  2.6004        3.0225        6.8962    6.9874    69.508    36.698      36.7198     22.1285            22.1338             21.9895            21.9948             
InVirTC4     2019-10-13T06:59:49Z    0.0296       99.264    5.225689        5.216589        1025.805   1025.8498  70.011      -0.886                0.1018         0.2036         31.67652  -64.13185  2.5933        3.0052        6.8788    6.9131    70.513    36.7172     36.7361     22.0837            22.089              21.9765            21.9818             
InVirTC4     2019-10-13T06:59:49Z    0.0399       99.0083   5.286659        5.286261        1025.6886  1025.6889  70.052      0.659                 0.0922         0.1564         31.6756   -64.13013  2.6274        3.0649        6.8887    6.9771    70.554    36.759      36.7583     22.602             22.6075             22.5991            22.6045             
InVirTC4     2019-10-13T06:59:49Z    0.0388       99.034    5.283258        5.282931        1025.6983  1025.698   70.912      0.431                 0.0941         0.1522         31.6756   -64.13013  2.6339        3.0737        6.9412    7.0308    71.42     36.7561     36.755      22.5735            22.5789             22.5718            22.5772             
InVirTC4     2019-10-13T06:59:49Z    0.0288       99.2832   5.217385        5.208194        1025.8377  1025.8494  71.016      -0.891                0.109          0.1998         31.67651  -64.13186  2.5863        2.9947        6.8615    6.8796    71.524    36.7229     36.7114     21.9991            22.0043             21.9268            21.932              
InVirTC4     2019-10-13T06:59:49Z    0.0383       99.0479   5.281172        5.280884        1025.7074  1025.7069  71.96       0.625                 0.0993         0.1564         31.6756   -64.13014  2.6375        3.0813        6.9512    7.0571    72.476    36.755      36.7538     22.5549            22.5603             22.5537            22.5591             
InVirTC4     2019-10-13T06:59:49Z    0.0286       99.2861   5.207039        5.189507        1025.8699  1025.9433  71.997      -0.893                0.1166         0.1965         31.6765   -64.13184  2.5788        2.9935        6.8498    6.9101    72.513    36.7233     36.7483     21.9016            21.9068             21.7085            21.7137             
InVirTC4     2019-10-13T06:59:49Z    0.037        99.0799   5.278451        5.278189        1025.7214  1025.7207  72.985      0.895                 0.098          0.1637         31.6756   -64.13014  2.6426        3.0839        6.9777    7.0608    73.508    36.757      36.7557     22.5269            22.5323             22.5259            22.5314             
InVirTC4     2019-10-13T06:59:49Z    0.028        99.3029   5.196751        5.189313        1025.8899  1025.9239  73          -0.812                0.1207         0.2246         31.6765   -64.13184  2.5745        2.9923        6.8454    6.9098    73.523    36.7126     36.7259     21.8176            21.8228             21.7326            21.7378             
InVirTC4     2019-10-13T06:59:49Z    0.0284       99.2927   5.191994        5.187032        1025.9308  1025.9434  73.98       -0.811                0.116          0.23           31.6765   -64.13185  2.5677        2.985         6.8263    6.8758    74.51     36.7347     36.7343     21.7469            21.7521             21.701             21.7062             
InVirTC4     2019-10-13T06:59:49Z    0.0378       99.0588   5.269658        5.268983        1025.7488  1025.7506  74.134      0.703                 0.0934         0.1769         31.6756   -64.13014  2.6423        3.0757        6.9772    7.0336    74.665    36.7558     36.7558     22.446             22.4514             22.4397            22.4451             
InVirTC4     2019-10-13T06:59:49Z    0.0367       99.0867   5.263788        5.267784        1025.7702  1025.7572  74.893      0.224                 0.0913         0.1599         31.6756   -64.13016  2.6414        3.0772        6.9832    7.0549    75.43     36.7579     36.7558     22.3886            22.3939             22.4282            22.4336             
InVirTC4     2019-10-13T06:59:49Z    0.0287       99.285    5.186811        5.178791        1025.9399  1025.9787  74.987      -0.912                0.1193         0.2277         31.6765   -64.13181  2.563         2.9836        6.8089    6.88      75.525    36.7264     36.7427     21.7077            21.7129             21.6137            21.6189             
InVirTC4     2019-10-13T06:59:49Z    0.0363       99.0965   5.248127        5.247942        1025.8191  1025.8193  75.99       0.619                 0.1018         0.1634         31.6756   -64.13016  2.6416        3.0781        7.0001    7.0779    76.535    36.76       36.7597     22.2398            22.2452             22.2384            22.2437             
InVirTC4     2019-10-13T06:59:49Z    0.0267       99.3345   5.175529        5.179636        1025.9943  1025.9883  75.999      -0.751                0.1255         0.2294         31.6765   -64.13181  2.5614        2.9884        6.8168    6.9055    76.545    36.7449     36.7493     21.5801            21.5852             21.6133            21.6185             
InVirTC4     2019-10-13T06:59:49Z    0.0268       99.3332   5.172558        5.181282        1026.0054  1025.9742  77.004      -0.864                0.1296         0.2485         31.67649  -64.13182  2.5618        2.9868        6.8276    6.9031    77.557    36.7438     36.7363     21.5532            21.5583             21.6436            21.6488             
InVirTC4     2019-10-13T06:59:49Z    0.0362       99.0989   5.241412        5.241058        1025.8424  1025.8422  77.017      0.769                 0.101          0.1783         31.67562  -64.13016  2.6332        3.0603        6.9677    7.0065    77.57     36.7607     36.7598     22.176             22.1813             22.1739            22.1792             
InVirTC4     2019-10-13T06:59:49Z    0.0274       99.3169   5.169643        5.171054        1026.0114  1025.9994  78.016      -1.05                 0.1303         0.2513         31.67648  -64.1318   2.5601        2.9838        6.832     6.917     78.576    36.7382     36.7305     21.532             21.5372             21.5542            21.5594             
InVirTC4     2019-10-13T06:59:49Z    0.0352       99.1229   5.235035        5.234669        1025.8603  1025.8602  78.077      0.553                 0.099          0.1864         31.67562  -64.13016  2.619         3.0485        6.9207    6.9922    78.638    36.7573     36.7564     22.1202            22.1255             22.1178            22.1231             
InVirTC4     2019-10-13T06:59:49Z    0.0347       99.1371   5.230786        5.230428        1025.8762  1025.8758  78.944      0.393                 0.1054         0.1664         31.6756   -64.13019  2.6188        3.0472        6.9498    7.0092    79.511    36.758      36.7568     22.0794            22.0847             22.0775            22.0828             
InVirTC4     2019-10-13T06:59:49Z    0.0285       99.2908   5.16346         5.166049        1026.0289  1026.0224  79.009      -1.222                0.1306         0.2516         31.67648  -64.1318   2.5582        2.9768        6.8422    6.896     79.576    36.7353     36.7356     21.4772            21.4823             21.5011            21.5062             
InVirTC4     2019-10-13T06:59:49Z    0.035        99.1282   5.217909        5.217456        1025.9268  1025.9265  80.006      0.694                 0.1058         0.1751         31.6756   -64.1302   2.616         3.0448        6.9476    7.0154    80.581    36.7689     36.7674     21.9461            21.9514             21.9436            21.9488             
InVirTC4     2019-10-13T06:59:49Z    0.0274       99.3179   5.160917        5.153607        1026.0115  1026.0409  80.033      -1.246                0.1337         0.2583         31.67646  -64.13182  2.5532        2.9705        6.8161    6.8885    80.609    36.709      36.7185     21.4837            21.4889             21.4042            21.4093             
InVirTC4     2019-10-13T06:59:49Z    0.0255       99.3647   5.151584        5.140664        1026.0471  1026.0747  81.02       -1.182                0.1384         0.2638         31.67648  -64.13178  2.5475        2.9686        6.7975    6.901     81.602    36.7153     36.7144     21.3885            21.3936             21.2872            21.2923             
InVirTC4     2019-10-13T06:59:49Z    0.0366       99.09     5.199427        5.199184        1025.9745  1025.9745  81.04       0.839                 0.1102         0.1986         31.67562  -64.13018  2.6101        3.0363        6.9458    7.0067    81.623    36.7636     36.763      21.7793            21.7846             21.7778            21.783              
InVirTC4     2019-10-13T06:59:49Z    0.0333       99.1716   5.199074        5.198348        1025.982   1025.9831  81.928      0.298                 0.108          0.2268         31.67562  -64.13019  2.5895        3.014         6.8671    6.9344    82.517    36.766      36.7653     21.7729            21.7781             21.767             21.7722             
InVirTC4     2019-10-13T06:59:49Z    0.0254       99.367    5.139016        5.133618        1026.0852  1026.1069  82.004      -0.987                0.1403         0.2709         31.67648  -64.13179  2.5465        2.9658        6.8133    6.9055    82.594    36.7161     36.7231     21.2694            21.2745             21.2106            21.2157             
InVirTC4     2019-10-13T06:59:49Z    0.0326       99.1879   5.19329         5.192181        1026.01    1026.011   82.96       0.488                 0.119          0.2109         31.67561  -64.13022  2.5783        3.003         6.8576    6.9318    83.557    36.7735     36.7717     21.7096            21.7149             21.7014            21.7066             
InVirTC4     2019-10-13T06:59:49Z    0.0243       99.3924   5.135507        5.136891        1026.1161  1026.1142  83.046      -0.639                0.1404         0.2829         31.67648  -64.13179  2.5475        2.9618        6.8453    6.9004    83.643    36.7318     36.7335     21.2177            21.2228             21.2288            21.2339             
InVirTC4     2019-10-13T06:59:49Z    0.0323       99.1953   5.186893        5.186548        1026.0264  1026.026   84.015      0.869                 0.1233         0.227          31.67561  -64.1302   2.5753        3.0007        6.8512    6.9408    84.619    36.7688     36.7676     21.655             21.6602             21.6531            21.6583             
InVirTC4     2019-10-13T06:59:49Z    0.0242       99.396    5.137049        5.135304        1026.1138  1026.109   84.191      -0.329                0.1404         0.2846         31.67646  -64.13179  2.5349        2.9469        6.8097    6.8704    84.797    36.7286     36.72       21.2354            21.2405             21.2291            21.2341             
InVirTC4     2019-10-13T06:59:49Z    0.0243       99.3938   5.132017        5.129421        1026.1184  1026.128   84.866      -1.298                0.1395         0.2712         31.67645  -64.13179  2.5134        2.9204        6.7355    6.7851    85.477    36.7181     36.7207     21.2002            21.2053             21.1728            21.1779             
InVirTC4     2019-10-13T06:59:49Z    0.0329       99.18     5.17912         5.178867        1026.0537  1026.0534  85.039      1.093                 0.1242         0.2294         31.67562  -64.13019  2.5724        2.998         6.8502    6.929     85.651    36.771      36.77       21.5794            21.5846             21.5781            21.5833             
InVirTC4     2019-10-13T06:59:49Z    0.032        99.2032   5.180743        5.178826        1026.0416  1026.044   85.83       0.304                 0.119          0.2608         31.67562  -64.13021  2.5699        2.9936        6.8476    6.9244    86.448    36.7605     36.7581     21.6065            21.6117             21.5913            21.5965             
InVirTC4     2019-10-13T06:59:49Z    0.0243       99.3945   5.123415        5.118605        1026.138   1026.1581  85.971      -1.484                0.1374         0.288          31.67646  -64.13176  2.5035        2.9128        6.694     6.7758    86.59     36.711      36.718      21.1273            21.1324             21.074             21.0791             
InVirTC4     2019-10-13T06:59:49Z    0.0319       99.2074   5.161626        5.166884        1026.0947  1026.0906  86.984      0.688                 0.1222         0.2495         31.6756   -64.13022  2.5692        2.9898        6.8674    6.9217    87.611    36.7585     36.7675     21.4295            21.4347             21.4682            21.4734             
InVirTC4     2019-10-13T06:59:49Z    0.0242       99.396    5.11663         5.111984        1026.1591  1026.1796  87.002      -1.221                0.1429         0.3095         31.67646  -64.13176  2.4996        2.909         6.6909    6.777     87.628    36.7099     36.7177     21.0645            21.0695             21.0118            21.0168             
InVirTC4     2019-10-13T06:59:49Z    0.0234       99.4174   5.10722         5.111223        1026.2028  1026.2034  88.016      -0.835                0.1496         0.3203         31.67646  -64.13176  2.4995        2.9068        6.7128    6.7801    88.651    36.7236     36.7338     20.9598            20.9648             20.9856            20.9906             
InVirTC4     2019-10-13T06:59:49Z    0.0316       99.2139   5.148687        5.148446        1026.1221  1026.1221  88.022      1.122                 0.1284         0.2587         31.67561  -64.13023  2.5658        2.9832        6.8616    6.9067    88.656    36.7484     36.7479     21.3198            21.3249             21.3182            21.3233             
InVirTC4     2019-10-13T06:59:49Z    0.0233       99.4191   5.10677         5.11845         1026.2129  1026.1701  89.058      -0.405                0.154          0.3374         31.67646  -64.13174  2.497         2.9001        6.713     6.7654    89.7      36.7275     36.7159     20.9506            20.9556             21.0737            21.0787             
InVirTC4     2019-10-13T06:59:49Z    0.0309       99.2316   5.144368        5.143971        1026.1403  1026.1407  89.074      1.272                 0.1251         0.2628         31.67563  -64.13023  2.5642        2.9831        6.8607    6.9194    89.716    36.7505     36.7499     21.2764            21.2815             21.2735            21.2786             
InVirTC4     2019-10-13T06:59:49Z    0.0298       99.2577   5.147429        5.145359        1026.1277  1026.136   89.793      0.451                 0.1227         0.2853         31.67563  -64.13022  2.5655        2.9896        6.8801    6.9643    90.44     36.7433     36.746      21.3132            21.3183             21.2907            21.2958             
InVirTC4     2019-10-13T06:59:49Z    0.0232       99.4228   5.106239        5.102227        1026.2153  1026.22    89.93       -0.66                 0.1508         0.337          31.67643  -64.13176  2.4827        2.8761        6.6736    6.7051    90.579    36.7249     36.7197     20.9483            20.9533             20.9167            20.9217             
InVirTC4     2019-10-13T06:59:49Z    0.0222       99.4457   5.101236        5.094424        1026.2192  1026.2419  90.976      -1.235                0.1654         0.4074         31.67644  -64.13174  2.465         2.856         6.6014    6.6233    91.632    36.7122     36.7169     20.9156            20.9206             20.8461            20.8511             
InVirTC4     2019-10-13T06:59:49Z    0.0306       99.2372   5.142044        5.140038        1026.1564  1026.1583  91.017      0.832                 0.1275         0.2513         31.67562  -64.13024  2.568         2.9902        6.8949    6.9729    91.674    36.7517     36.7486     21.2525            21.2576             21.2373            21.2424             
InVirTC4     2019-10-13T06:59:49Z    0.0232       99.4206   5.089911        5.085887        1026.2402  1026.2603  92.006      -1.058                0.1861         0.4407         31.67644  -64.13175  2.4602        2.8576        6.592     6.6411    92.67     36.7003     36.7093     20.8225            20.8275             20.7743            20.7793             
InVirTC4     2019-10-13T06:59:49Z    0.0287       99.2836   5.134939        5.134613        1026.1773  1026.1772  92.031      1.136                 0.1303         0.274          31.67563  -64.13023  2.5647        2.9844        6.8751    6.9427    92.695    36.7498     36.7489     21.1877            21.1928             21.1856            21.1907             
InVirTC4     2019-10-13T06:59:49Z    0.0262       99.3476   5.084368        5.08237         1026.2833  1026.2856  93.045      -0.69                 0.1924         0.4565         31.67644  -64.13174  2.4582        2.8591        6.5947    6.6575    93.716    36.7227     36.7201     20.744             20.749              20.7282            20.7332             
InVirTC4     2019-10-13T06:59:49Z    0.0296       99.2629   5.131301        5.13096         1026.1957  1026.1956  93.084      1.028                 0.1367         0.3292         31.67564  -64.13024  2.5564        2.9693        6.8484    6.8872    93.756    36.7536     36.7528     21.1487            21.1537             21.1465            21.1516             
InVirTC4     2019-10-13T06:59:49Z    0.0286       99.2879   5.130074        5.129043        1026.1926  1026.1974  93.857      0.283                 0.1419         0.3211         31.67563  -64.13024  2.5366        2.9498        6.7818    6.8459    94.535    36.7447     36.7467     21.1473            21.1524             21.1353            21.1404             
InVirTC4     2019-10-13T06:59:49Z    0.0275       99.3147   5.087487        5.087615        1026.2807  1026.2759  94.103      -0.37                 0.1906         0.4582         31.67644  -64.13173  2.4555        2.859         6.5836    6.6635    94.782    36.7233     36.7192     20.7722            20.7772             20.7782            20.7832             
InVirTC4     2019-10-13T06:59:49Z    0.0279       99.3059   5.081639        5.081287        1026.2952  1026.2939  94.891      -0.859                0.1998         0.495          31.67642  -64.13173  2.4509        2.85          6.5859    6.647     95.577    36.7195     36.7175     20.7213            20.7262             20.7203            20.7253             
InVirTC4     2019-10-13T06:59:49Z    0.0295       99.2667   5.116561        5.116053        1026.2365  1026.2368  94.982      0.545                 0.1373         0.2884         31.67562  -64.13024  2.5294        2.9435        6.7842    6.8569    95.668    36.7483     36.7473     21.0159            21.0209             21.0123            21.0173             
InVirTC4     2019-10-13T06:59:49Z    0.0284       99.2919   5.077725        5.079234        1026.3034  1026.2995  95.987      -1.319                0.206          0.4746         31.67642  -64.13173  2.4431        2.8414        6.5594    6.6186    96.68     36.7133     36.7133     20.6912            20.6961             20.7054            20.7104             
InVirTC4     2019-10-13T06:59:49Z    0.0266       99.3369   5.106181        5.105804        1026.2639  1026.264   96.049      0.76                  0.1495         0.3222         31.67564  -64.13025  2.5221        2.936         6.7644    6.8342    96.743    36.7444     36.7435     20.9226            20.9276             20.92              20.925              
InVirTC4     2019-10-13T06:59:49Z    0.027        99.3264   5.097029        5.096674        1026.281   1026.2813  96.984      0.422                 0.1607         0.363          31.67564  -64.13025  2.515         2.926         6.7579    6.8202    97.685    36.7344     36.7338     20.8478            20.8528             20.8451            20.8501             
InVirTC4     2019-10-13T06:59:49Z    0.0274       99.3179   5.075804        5.074406        1026.3084  1026.3113  96.986      -1.269                0.2037         0.4744         31.67642  -64.1317   2.4378        2.8372        6.5348    6.6011    97.687    36.7092     36.7086     20.6774            20.6824             20.665             20.67               
InVirTC4     2019-10-13T06:59:49Z    0.0272       99.3217   5.095703        5.095354        1026.2894  1026.2896  97.976      0.483                 0.1722         0.3588         31.67564  -64.13026  2.5056        2.914         6.7224    6.7848    98.684    36.7349     36.7342     20.8343            20.8393             20.8318            20.8368             
InVirTC4     2019-10-13T06:59:49Z    0.0267       99.3338   5.070905        5.068399        1026.3178  1026.3261  97.997      -1.081                0.2025         0.5004         31.67642  -64.13172  2.4354        2.8349        6.5331    6.6102    98.705    36.702      36.7037     20.6392            20.6442             20.6136            20.6185             
InVirTC4     2019-10-13T06:59:49Z    0.0292       99.2734   5.091568        5.09124         1026.309   1026.3089  98.988      0.722                 0.1896         0.4298         31.67564  -64.13026  2.4995        2.9053        6.7088    6.7688    99.704    36.7389     36.7381     20.7904            20.7954             20.7882            20.7932             
InVirTC4     2019-10-13T06:59:49Z    0.0264       99.3414   5.061475        5.062879        1026.3488  1026.3537  99.005      -0.823                0.2046         0.4896         31.67642  -64.13169  2.4351        2.837         6.5538    6.6422    99.721    36.7041     36.7121     20.5476            20.5525             20.5516            20.5565             
InVirTC4     2019-10-13T06:59:49Z    0.0314       99.2175   5.087652        5.087339        1026.3206  1026.3206  100.037     0.714                 0.1998         0.5343         31.67564  -64.13026  2.482         2.8809        6.6373    6.675     100.761   36.736      36.7353     20.7565            20.7615             20.7544            20.7594             
InVirTC4     2019-10-13T06:59:49Z    0.0267       99.3333   5.063212        5.063479        1026.3652  1026.3582  100.053     -0.57                 0.204          0.4327         31.67642  -64.13169  2.4321        2.8302        6.5545    6.6259    100.777   36.7191     36.7133     20.5462            20.5511             20.5554            20.5604             
InVirTC4     2019-10-13T06:59:49Z    0.0319       99.2059   5.086048        5.085744        1026.3261  1026.3262  100.97      0.448                 0.2035         0.485          31.67564  -64.13026  2.4649        2.8678        6.5876    6.6652    101.701   36.7334     36.7327     20.744             20.749              20.742             20.7469             
InVirTC4     2019-10-13T06:59:49Z    0.0275       99.3162   5.062005        5.063864        1026.3641  1026.3558  101.027     -0.513                0.1993         0.4813         31.6764   -64.1317   2.4203        2.8144        6.5183    6.5871    101.758   36.7112     36.7079     20.5435            20.5485             20.5649            20.5698             
InVirTC4     2019-10-13T06:59:49Z    0.0271       99.3257   5.057614        5.056222        1026.3786  1026.3798  101.94      -1.019                0.2007         0.4929         31.6764   -64.1317   2.406         2.7934        6.4696    6.516     102.678   36.7103     36.7082     20.5028            20.5077             20.4921            20.497              
InVirTC4     2019-10-13T06:59:49Z    0.0304       99.2431   5.084374        5.084115        1026.3337  1026.3335  102.009     0.367                 0.1934         0.4475         31.67564  -64.13027  2.4601        2.8603        6.5971    6.6565    102.747   36.7321     36.7313     20.7293            20.7343             20.7278            20.7328             
InVirTC4     2019-10-13T06:59:49Z    0.03         99.2529   5.079851        5.079465        1026.3495  1026.3495  102.934     0.413                 0.1909         0.4504         31.67564  -64.13028  2.4598        2.8609        6.6089    6.6764    103.68    36.7322     36.7312     20.6864            20.6914             20.6838            20.6888             
InVirTC4     2019-10-13T06:59:49Z    0.0264       99.3413   5.054422        5.050129        1026.3885  1026.3933  102.939     -1.452                0.1981         0.4707         31.6764   -64.13169  2.3963        2.7842        6.4311    6.4826    103.685   36.7079     36.7021     20.4751            20.48               20.4413            20.4462             
InVirTC4     2019-10-13T06:59:49Z    0.0274       99.3179   5.049047        5.043208        1026.395   1026.4182  103.972     -1.332                0.1879         0.4401         31.6764   -64.13168  2.393         2.784         6.4266    6.5025    104.726   36.6968     36.7045     20.4368            20.4417             20.3729            20.3778             
InVirTC4     2019-10-13T06:59:49Z    0.0301       99.2515   5.076643        5.076337        1026.3609  1026.3608  103.976     0.732                 0.1998         0.52           31.67564  -64.13028  2.4583        2.8582        6.6044    6.6618    104.73    36.7307     36.7299     20.6575            20.6624             20.6555            20.6604             
InVirTC4     2019-10-13T06:59:49Z    0.0276       99.3114   5.040487        5.038705        1026.4248  1026.4325  105.004     -1.009                0.1748         0.4304         31.6764   -64.13168  2.3913        2.7843        6.43      6.5184    105.765   36.6998     36.7028     20.3522            20.3571             20.332             20.3369             
InVirTC4     2019-10-13T06:59:49Z    0.0302       99.2486   5.073238        5.072918        1026.3768  1026.3767  105.005     0.902                 0.2094         0.568          31.67564  -64.13028  2.4565        2.8523        6.5992    6.6467    105.766   36.7332     36.7322     20.6222            20.6271             20.6203            20.6252             
InVirTC4     2019-10-13T06:59:49Z    0.0275       99.3154   5.038424        5.038545        1026.4553  1026.4507  106.02      -0.625                0.167          0.4195         31.6764   -64.13167  2.3878        2.7805        6.4222    6.5058    106.789   36.7192     36.7151     20.3101            20.3149             20.3159            20.3207             
InVirTC4     2019-10-13T06:59:49Z    0.0305       99.2409   5.070826        5.070192        1026.381   1026.3818  106.117     0.354                 0.2081         0.5737         31.67564  -64.13028  2.4469        2.8431        6.5683    6.6265    106.887   36.7267     36.7258     20.6065            20.6114             20.6015            20.6064             
InVirTC4     2019-10-13T06:59:49Z    0.0296       99.2632   5.068706        5.069294        1026.3936  1026.3915  106.962     0.379                 0.1977         0.5694         31.67564  -64.1303   2.4462        2.8426        6.5756    6.6351    107.738   36.7298     36.7292     20.5826            20.5875             20.5888            20.5937             
InVirTC4     2019-10-13T06:59:49Z    0.0275       99.3145   5.039112        5.040889        1026.4484  1026.4399  107.093     -0.42                 0.1764         0.4294         31.67638  -64.13166  2.383         2.7706        6.4103    6.4763    107.869   36.7098     36.7061     20.3269            20.3317             20.3478            20.3527             
InVirTC4     2019-10-13T06:59:49Z    0.0279       99.3039   5.035451        5.033444        1026.4597  1026.464   107.868     -1.104                0.1774         0.4471         31.67638  -64.13166  2.3745        2.7587        6.3966    6.4614    108.651   36.7084     36.7077     20.2936            20.2984             20.2755            20.2803             
InVirTC4     2019-10-13T06:59:49Z    0.0299       99.2563   5.064769        5.064457        1026.4051  1026.4052  108.037     0.87                  0.2004         0.5741         31.67564  -64.1303   2.4445        2.8343        6.5727    6.5977    108.821   36.7266     36.7259     20.5487            20.5537             20.5467            20.5516             
InVirTC4     2019-10-13T06:59:49Z    0.0274       99.3179   5.029322        5.027996        1026.4701  1026.4692  109.027     -1.197                0.1653         0.4172         31.67638  -64.13165  2.3655        2.7429        6.3579    6.3957    109.818   36.6987     36.6948     20.2465            20.2513             20.2385            20.2433             
InVirTC4     2019-10-13T06:59:49Z    0.0302       99.247    5.063765        5.063452        1026.4114  1026.4113  109.039     1.149                 0.2068         0.5866         31.67566  -64.1303   2.4426        2.8332        6.566     6.5975    109.83    36.7259     36.7251     20.5397            20.5447             20.5377            20.5426             
InVirTC4     2019-10-13T06:59:49Z    0.0299       99.2558   5.065275        5.064686        1026.4089  1026.41    109.787     0.284                 0.2088         0.5648         31.67564  -64.13029  2.4344        2.8283        6.5357    6.596     110.584   36.724      36.7236     20.5558            20.5607             20.5507            20.5556             
InVirTC4     2019-10-13T06:59:49Z    0.0264       99.3413   5.026575        5.022924        1026.4755  1026.4956  110.035     -1.116                0.157          0.3901         31.67638  -64.13164  2.3595        2.7397        6.3367    6.4033    110.833   36.6931     36.7032     20.2266            20.2314             20.1805            20.1854             
InVirTC4     2019-10-13T06:59:49Z    0.0299       99.2548   5.060242        5.059428        1026.4332  1026.4333  110.967     0.724                 0.2126         0.5737         31.67564  -64.13032  2.4354        2.8359        6.5592    6.6524    111.772   36.7298     36.7279     20.5013            20.5062             20.4958            20.5007             
InVirTC4     2019-10-13T06:59:49Z    0.0253       99.3686   5.022502        5.014283        1026.4918  1026.5136  111.005     -0.925                0.152          0.4041         31.67638  -64.13164  2.3582        2.7393        6.3459    6.422     111.812   36.6945     36.6953     20.186             20.1909             20.1075            20.1123             
InVirTC4     2019-10-13T06:59:49Z    0.0302       99.2464   5.051004        5.050609        1026.4573  1026.4569  112.002     1.078                 0.2106         0.5737         31.67565  -64.13031  2.436         2.8333        6.5703    6.6411    112.816   36.7258     36.7245     20.4184            20.4233             20.4162            20.4211             
InVirTC4     2019-10-13T06:59:49Z    0.0223       99.443    5.015275        5.012572        1026.5162  1026.5328  112.023     -0.731                0.1416         0.3787         31.67638  -64.13164  2.3554        2.7324        6.3405    6.4       112.836   36.6959     36.705      20.1159            20.1207             20.0799            20.0847             
InVirTC4     2019-10-13T06:59:49Z    0.0206       99.4877   5.01368         5.013307        1026.5284  1026.5254  113.016     -0.668                0.133          0.361          31.67636  -64.13164  2.3501        2.7233        6.3232    6.3591    113.837   36.6994     36.6956     20.0964            20.1012             20.0971            20.1019             
InVirTC4     2019-10-13T06:59:49Z    0.0307       99.234    5.047055        5.046761        1026.468   1026.468   113.044     1.218                 0.2132         0.549          31.67566  -64.1303   2.4318        2.8277        6.5523    6.6075    113.865   36.7221     36.7213     20.3851            20.39               20.3832            20.388              
InVirTC4     2019-10-13T06:59:49Z    0.0303       99.2445   5.050427        5.049063        1026.4595  1026.4625  113.947     0.294                 0.1966         0.5287         31.67565  -64.1303   2.4149        2.8091        6.4813    6.5504    114.775   36.7184     36.7179     20.4206            20.4255             20.4083            20.4132             
InVirTC4     2019-10-13T06:59:49Z    0.0196       99.5114   5.007581        5.006493        1026.5367  1026.5426  114.037     -0.82                 0.1256         0.329          31.67636  -64.13163  2.3462        2.7194        6.3164    6.3482    114.866   36.6884     36.6913     20.0509            20.0557             20.0373            20.0421             
InVirTC4     2019-10-13T06:59:49Z    0.0306       99.2375   5.044771        5.046602        1026.4875  1026.4781  114.981     0.612                 0.1985         0.5451         31.67564  -64.13031  2.4146        2.8098        6.5084    6.583     115.817   36.7267     36.7223     20.3574            20.3623             20.3798            20.3846             
InVirTC4     2019-10-13T06:59:49Z    0.0184       99.5418   5.005065        5.00032         1026.549   1026.5673  114.994     -0.832                0.1201         0.3133         31.67636  -64.13162  2.3425        2.7196        6.2983    6.3544    115.83    36.6899     36.6958     20.025             20.0298             19.9734            19.9782             
InVirTC4     2019-10-13T06:59:49Z    0.0304       99.2438   5.039383        5.039375        1026.5086  1026.5094  116.001     1.014                 0.2009         0.5477         31.67565  -64.13032  2.4129        2.807         6.5076    6.5724    116.845   36.7292     36.73       20.3033            20.3081             20.3024            20.3072             
InVirTC4     2019-10-13T06:59:49Z    0.0176       99.561    4.999201        4.999998        1026.5779  1026.5741  116.007     -0.739                0.1177         0.293          31.67636  -64.13163  2.3414        2.7209        6.3052    6.3606    116.851   36.6988     36.6971     19.959             19.9637             19.9684            19.9732             
InVirTC4     2019-10-13T06:59:49Z    0.0164       99.5906   4.999155        5.000175        1026.5811  1026.5754  117.012     -0.712                0.115          0.2576         31.67636  -64.1316   2.3411        2.7226        6.3059    6.3699    117.864   36.6974     36.6945     19.9596            19.9644             19.9726            19.9774             
InVirTC4     2019-10-13T06:59:49Z    0.0279       99.3053   5.034462        5.03413         1026.5238  1026.5241  117.119     1.064                 0.1884         0.5264         31.67566  -64.1303   2.4007        2.7986        6.4434    6.5386    117.971   36.7271     36.7265     20.2589            20.2637             20.2564            20.2612             
InVirTC4     2019-10-13T06:59:49Z    0.0283       99.2943   5.036422        5.03459         1026.5172  1026.522   117.766     0.286                 0.1711         0.4838         31.67566  -64.13031  2.3885        2.7787        6.4113    6.4778    118.623   36.7229     36.723      20.2819            20.2868             20.2645            20.2693             
InVirTC4     2019-10-13T06:59:49Z    0.0156       99.609    4.997341        4.998033        1026.5898  1026.585   118.036     -0.838                0.1116         0.2525         31.67634  -64.1316   2.3396        2.7227        6.3036    6.377     118.895   36.697      36.6941     19.9425            19.9473             19.9524            19.9572             
InVirTC4     2019-10-13T06:59:49Z    0.0285       99.2894   5.027496        5.027122        1026.5465  1026.5461  118.978     0.729                 0.1716         0.5151         31.67566  -64.13033  2.3891        2.7744        6.4453    6.4906    119.844   36.7239     36.7227     20.196             20.2009             20.1939            20.1987             
InVirTC4     2019-10-13T06:59:49Z    0.0145       99.6374   4.995129        4.99695         1026.5993  1026.5928  118.987     -1.065                0.1039         0.2506         31.67634  -64.13161  2.3375        2.7214        6.2954    6.3857    119.854   36.6967     36.6949     19.9216            19.9264             19.9409            19.9457             
InVirTC4     2019-10-13T06:59:49Z    0.025        99.3769   5.020126        5.019856        1026.5652  1026.565   119.985     1.008                 0.1558         0.4753         31.67566  -64.13032  2.3863        2.772         6.4363    6.4921    120.859   36.7197     36.7189     20.1309            20.1357             20.1293            20.1342             
InVirTC4     2019-10-13T06:59:49Z    0.0134       99.6662   4.995296        4.994333        1026.6022  1026.601   120.003     -1.267                0.103          0.2214         31.67634  -64.13161  2.3376        2.7172        6.2992    6.3687    120.877   36.6955     36.6921     19.9241            19.9289             19.9189            19.9237             
InVirTC4     2019-10-13T06:59:49Z    0.0226       99.436    5.018217        5.014467        1026.5676  1026.5742  120.977     0.383                 0.1484         0.408          31.67566  -64.13032  2.3714        2.752         6.3697    6.4213    121.859   36.7133     36.7105     20.1198            20.1247             20.0876            20.0924             
InVirTC4     2019-10-13T06:59:49Z    0.0127       99.682    4.994029        4.991047        1026.6023  1026.6101  120.994     -1.281                0.0956         0.1854         31.67634  -64.13158  2.3375        2.7129        6.3002    6.3447    121.876   36.6885     36.6887     19.9198            19.9245             19.8913            19.8961             
InVirTC4     2019-10-13T06:59:49Z    0.0253       99.3699   5.009306        5.010959        1026.5944  1026.59    121.947     0.484                 0.1444         0.4586         31.67566  -64.13033  2.3655        2.7466        6.3783    6.4385    122.836   36.7132     36.713      20.0354            20.0402             20.0512            20.056              
InVirTC4     2019-10-13T06:59:49Z    0.0123       99.6921   4.990393        4.98805         1026.6181  1026.6242  121.972     -1.09                 0.0848         0.174          31.67634  -64.1316   2.3363        2.7118        6.3024    6.3456    122.861   36.6905     36.6907     19.8827            19.8874             19.8602            19.865              
InVirTC4     2019-10-13T06:59:49Z    0.0108       99.7315   4.989122        4.987675        1026.6303  1026.6326  123.008     -0.727                0.0801         0.1798         31.67634  -64.1316   2.3361        2.7154        6.3       6.372     123.905   36.6946     36.6933     19.8655            19.8703             19.8532            19.858              
InVirTC4     2019-10-13T06:59:49Z    0.0206       99.4873   5.004307        5.003972        1026.6088  1026.6087  123.048     0.777                 0.139          0.3988         31.67566  -64.13032  2.3592        2.739         6.3536    6.4069    123.946   36.7102     36.7093     19.9911            19.9959             19.989             19.9938             
InVirTC4     2019-10-13T06:59:49Z    0.0175       99.5646   5.0018          5.001467        1026.6156  1026.6156  123.924     0.441                 0.1173         0.3323         31.67566  -64.13034  2.3486        2.7277        6.3119    6.3713    124.828   36.7069     36.7061     19.9709            19.9757             19.9686            19.9734             
InVirTC4     2019-10-13T06:59:49Z    0.0121       99.6982   4.988955        4.988075        1026.6364  1026.6355  124.106     -0.298                0.0864         0.1927         31.67634  -64.1316   2.3354        2.7155        6.2937    6.3646    125.012   36.6952     36.6924     19.8627            19.8675             19.8577            19.8624             
InVirTC4     2019-10-13T06:59:49Z    0.0138       99.6564   4.988888        4.987671        1026.6387  1026.6383  124.844     -0.777                0.088          0.1847         31.67632  -64.13159  2.3367        2.7154        6.3128    6.3765    125.755   36.6941     36.6909     19.863             19.8678             19.8551            19.8599             
InVirTC4     2019-10-13T06:59:49Z    0.0164       99.5906   5.000579        5.000272        1026.6226  1026.6226  125.002     0.59                  0.1061         0.2983         31.67566  -64.13032  2.3473        2.7252        6.3277    6.3785    125.914   36.7061     36.7053     19.9598            19.9646             19.9577            19.9625             
InVirTC4     2019-10-13T06:59:49Z    0.0103       99.7431   4.984289        4.98423         1026.649   1026.6479  125.966     -1.332                0.0863         0.1733         31.67632  -64.13158  2.3316        2.7105        6.2888    6.3598    126.885   36.6882     36.6871     19.8258            19.8305             19.8265            19.8313             
InVirTC4     2019-10-13T06:59:49Z    0.0158       99.607    4.999728        4.999394        1026.629   1026.629   126.05      0.871                 0.1069         0.302          31.67566  -64.13032  2.3467        2.7275        6.328     6.3984    126.97    36.7056     36.7048     19.9519            19.9567             19.9496            19.9544             
InVirTC4     2019-10-13T06:59:49Z    0.0097       99.7569   4.982036        4.980758        1026.655   1026.6586  126.98      -1.141                0.0805         0.1341         31.67632  -64.13156  2.3314        2.708         6.2948    6.3584    127.907   36.6842     36.6846     19.8086            19.8133             19.7961            19.8009             
InVirTC4     2019-10-13T06:59:49Z    0.0149       99.6278   5.000263        4.999418        1026.6307  1026.6324  127.105     0.309                 0.1036         0.2798         31.67566  -64.13034  2.3468        2.7248        6.3293    6.383     128.033   36.704      36.7036     19.9583            19.9631             19.9507            19.9555             
InVirTC4     2019-10-13T06:59:49Z    0.0161       99.5988   4.999567        4.999069        1026.6378  1026.6372  127.955     0.437                 0.1088         0.2704         31.67566  -64.13034  2.3472        2.7228        6.3347    6.3808    128.889   36.7054     36.7037     19.9497            19.9545             19.947             19.9518             
InVirTC4     2019-10-13T06:59:49Z    0.0096       99.7613   4.979252        4.979003        1026.6724  1026.6727  128.015     -0.832                0.073          0.1341         31.67632  -64.13156  2.3327        2.7084        6.3051    6.3689    128.95    36.6896     36.6893     19.7757            19.7804             19.7737            19.7784             
InVirTC4     2019-10-13T06:59:49Z    0.0158       99.6067   4.99622         4.995936        1026.6513  1026.6509  128.978     0.901                 0.1058         0.2833         31.67566  -64.13034  2.3449        2.7232        6.3244    6.3845    129.92    36.7059     36.7049     19.9171            19.9219             19.9156            19.9204             
InVirTC4     2019-10-13T06:59:49Z    0.0092       99.7708   4.979916        4.97868         1026.6774  1026.6755  129.046     -0.63                 0.0705         0.1379         31.67632  -64.13156  2.3318        2.7062        6.3029    6.3581    129.989   36.6915     36.6868     19.7793            19.7841             19.773             19.7777             
InVirTC4     2019-10-13T06:59:49Z    0.0091       99.7744   4.977995        4.977235        1026.6836  1026.6818  129.943     -0.981                0.0782         0.1407         31.67631  -64.13156  2.3313        2.7033        6.315     6.3477    130.892   36.689      36.6855     19.7636            19.7684             19.7604            19.7651             
InVirTC4     2019-10-13T06:59:49Z    0.0137       99.6572   4.993976        4.993693        1026.6608  1026.6605  129.988     1.17                  0.1021         0.2583         31.67566  -64.13032  2.343         2.7242        6.3158    6.3948    130.938   36.7052     36.7043     19.8962            19.901              19.8946            19.8994             
InVirTC4     2019-10-13T06:59:49Z    0.0091       99.7742   4.975234        4.973752        1026.6901  1026.6931  130.962     -1.281                0.0767         0.1268         31.6763   -64.13156  2.3262        2.7033        6.2902    6.3546    131.92    36.6843     36.6836     19.7424            19.7471             19.7292            19.7339             
InVirTC4     2019-10-13T06:59:49Z    0.0127       99.6829   4.993025        4.992109        1026.6641  1026.6661  131.177     0.566                 0.0922         0.2308         31.67567  -64.13033  2.3416        2.7199        6.32      6.3771    132.136   36.7011     36.7007     19.8915            19.8962             19.8832            19.888              
InVirTC4     2019-10-13T06:59:49Z    0.0144       99.6413   4.992728        4.991605        1026.6703  1026.6725  131.924     0.303                 0.0894         0.2249         31.67566  -64.13034  2.3421        2.7187        6.3256    6.3814    132.889   36.703      36.7024     19.8861            19.8909             19.8762            19.881              
InVirTC4     2019-10-13T06:59:49Z    0.008        99.7991   4.973712        4.970982        1026.6968  1026.7021  131.978     -1.192                0.0697         0.115          31.6763   -64.13156  2.3242        2.703         6.2847    6.3536    132.943   36.6827     36.6813     19.7293            19.7341             19.7052            19.7099             
InVirTC4     2019-10-13T06:59:49Z    0.0075       99.8135   4.970123        4.968611        1026.7095  1026.7132  132.982     -0.936                0.0614         0.1183         31.6763   -64.13154  2.3241        2.7018        6.2899    6.3507    133.955   36.682      36.6819     19.6958            19.7005             19.6816            19.6863             
InVirTC4     2019-10-13T06:59:49Z    0.0132       99.6705   4.989286        4.988956        1026.682   1026.6818  133.027     0.712                 0.0891         0.2246         31.67567  -64.13033  2.3416        2.7182        6.3273    6.3818    134       36.7011     36.7002     19.8552            19.86               19.8532            19.8579             
InVirTC4     2019-10-13T06:59:49Z    0.0122       99.6938   4.988787        4.988041        1026.6857  1026.6865  133.905     0.334                 0.0905         0.2105         31.67567  -64.13032  2.3401        2.7174        6.3218    6.3792    134.885   36.6998     36.6988     19.8517            19.8564             19.8458            19.8506             
InVirTC4     2019-10-13T06:59:49Z    0.0073       99.8181   4.968744        4.968882        1026.7216  1026.7178  134.034     -0.563                0.0607         0.1246         31.6763   -64.13155  2.3234        2.703         6.2841    6.359     135.015   36.6856     36.6824     19.6781            19.6828             19.6832            19.6879             
InVirTC4     2019-10-13T06:59:49Z    0.0117       99.7071   4.985885        4.985704        1026.6988  1026.6988  134.992     0.546                 0.0844         0.2094         31.67566  -64.13034  2.3394        2.7174        6.3249    6.3876    135.98    36.7006     36.7002     19.8228            19.8276             19.8216            19.8263             
InVirTC4     2019-10-13T06:59:49Z    0.0069       99.8268   4.969213        4.968025        1026.726   1026.7252  135.108     -0.363                0.0648         0.1198         31.6763   -64.13153  2.3243        2.7031        6.2894    6.3638    136.098   36.6863     36.6828     19.6813            19.6861             19.6741            19.6788             
InVirTC4     2019-10-13T06:59:49Z    0.0066       99.8354   4.968742        4.96817         1026.729   1026.7283  135.935     -1.032                0.063          0.1177         31.67628  -64.13154  2.3249        2.7008        6.2993    6.3602    136.93    36.6845     36.6825     19.6786            19.6833             19.6754            19.6802             
InVirTC4     2019-10-13T06:59:49Z    0.011        99.7267   4.982766        4.982477        1026.7102  1026.71    136.005     0.86                  0.084          0.2071         31.67566  -64.13034  2.3395        2.7167        6.3308    6.3888    137.001   36.6997     36.6988     19.794             19.7987             19.7922            19.7969             
InVirTC4     2019-10-13T06:59:49Z    0.0065       99.8369   4.965949        4.967008        1026.7379  1026.7327  136.966     -1.557                0.0655         0.1107         31.67628  -64.13154  2.3239        2.6975        6.3003    6.3457    137.969   36.6819     36.6795     19.6546            19.6593             19.6674            19.6721             
InVirTC4     2019-10-13T06:59:49Z    0.01         99.7513   4.980378        4.980093        1026.7188  1026.7188  137.017     0.877                 0.0812         0.1874         31.67566  -64.13034  2.3373        2.7137        6.3215    6.3741    138.021   36.6978     36.6971     19.7731            19.7778             19.7712            19.7759             
InVirTC4     2019-10-13T06:59:49Z    0.0065       99.8381   4.964254        4.963178        1026.7453  1026.7439  137.986     -1.695                0.0683         0.1048         31.67628  -64.13152  2.3221        2.6982        6.2963    6.3563    138.998   36.6805     36.6768     19.6397            19.6444             19.6338            19.6385             
InVirTC4     2019-10-13T06:59:49Z    0.0094       99.7656   4.980647        4.979925        1026.7208  1026.7225  138.129     0.355                 0.0699         0.1656         31.67568  -64.13036  2.3328        2.7117        6.3061    6.3745    139.142   36.6956     36.6955     19.7777            19.7824             19.771             19.7757             
InVirTC4     2019-10-13T06:59:49Z    0.01         99.7508   4.98018         4.978658        1026.7277  1026.7293  138.953     0.339                 0.0674         0.1634         31.67568  -64.13034  2.3328        2.7113        6.3128    6.3776    139.972   36.6975     36.6955     19.7707            19.7755             19.7586            19.7634             
InVirTC4     2019-10-13T06:59:49Z    0.0072       99.8201   4.96267         4.961593        1026.7521  1026.7549  138.995     -1.554                0.0689         0.0992         31.67628  -64.13152  2.3212        2.6981        6.297     6.3553    140.014   36.679      36.6791     19.6261            19.6308             19.6157            19.6204             
InVirTC4     2019-10-13T06:59:49Z    0.0094       99.7642   4.976729        4.9764          1026.7389  1026.7387  139.974     0.597                 0.0702         0.1607         31.67566  -64.13034  2.3314        2.7104        6.3096    6.3767    141       36.6956     36.6946     19.7398            19.7445             19.7378            19.7426             
InVirTC4     2019-10-13T06:59:49Z    0.0071       99.8232   4.961904        4.961069        1026.7614  1026.7593  139.975     -1.24                 0.065          0.0975         31.67628  -64.13152  2.3204        2.6979        6.2959    6.3528    141.001   36.6818     36.6778     19.6152            19.6199             19.6118            19.6165             
InVirTC4     2019-10-13T06:59:49Z    0.0087       99.7842   4.975217        4.974906        1026.7463  1026.746   140.955     0.686                 0.0659         0.1697         31.67566  -64.13035  2.3318        2.7083        6.3141    6.3685    141.989   36.6948     36.6938     19.726             19.7307             19.7242            19.7289             
InVirTC4     2019-10-13T06:59:49Z    0.0064       99.8397   4.961376        4.960562        1026.7665  1026.7661  141.005     -0.798                0.0622         0.0975         31.67628  -64.13152  2.3189        2.6968        6.2871    6.3535    142.039   36.681      36.6787     19.6106            19.6153             19.6056            19.6103             
InVirTC4     2019-10-13T06:59:49Z    0.0081       99.7976   4.973557        4.97327         1026.7546  1026.7544  142.027     0.849                 0.065          0.1539         31.67567  -64.13033  2.3317        2.7116        6.3199    6.3921    143.069   36.6942     36.6933     19.7105            19.7152             19.7088            19.7135             
InVirTC4     2019-10-13T06:59:49Z    0.0058       99.8536   4.961825        4.960935        1026.7718  1026.7705  142.228     -0.35                 0.06           0.104          31.67627  -64.13153  2.3172        2.6977        6.2812    6.3629    143.272   36.6818     36.6785     19.6135            19.6182             19.6087            19.6134             
InVirTC4     2019-10-13T06:59:49Z    0.0065       99.8372   4.959588        4.95919         1026.7775  1026.7751  142.922     -1.42                 0.0585         0.0918         31.67626  -64.13151  2.3161        2.6976        6.2755    6.3637    143.971   36.6789     36.6758     19.5952            19.5999             19.595             19.5997             
InVirTC4     2019-10-13T06:59:49Z    0.0081       99.798    4.973543        4.972661        1026.7564  1026.7577  143.037     0.304                 0.0633         0.1395         31.67567  -64.13034  2.3287        2.7067        6.3053    6.3677    144.087   36.6916     36.6908     19.713             19.7177             19.7055            19.7102             
InVirTC4     2019-10-13T06:59:49Z    0.0066       99.8365   4.958372        4.955993        1026.7847  1026.7873  143.956     -1.572                0.0521         0.0732         31.67626  -64.1315   2.3163        2.694         6.2751    6.3463    145.013   36.6785     36.6753     19.5837            19.5885             19.5648            19.5695             
InVirTC4     2019-10-13T06:59:49Z    0.0087       99.7843   4.970914        4.969496        1026.7694  1026.7702  143.971     0.508                 0.059          0.1343         31.67567  -64.13034  2.3287        2.7038        6.313     6.3705    145.028   36.6936     36.691      19.6853            19.69               19.6749            19.6796             
InVirTC4     2019-10-13T06:59:49Z    0.0062       99.8462   4.956705        4.954697        1026.79    1026.7945  144.999     -1.425                0.0464         0.065          31.67626  -64.1315   2.3168        2.6946        6.28      6.3509    146.064   36.6752     36.6746     19.5713            19.576              19.5529            19.5576             
InVirTC4     2019-10-13T06:59:49Z    0.0079       99.8034   4.967648        4.967323        1026.7784  1026.7781  145.031     0.853                 0.0599         0.142          31.67568  -64.13034  2.3281        2.7053        6.3121    6.386     146.097   36.6899     36.6889     19.6581            19.6628             19.6563            19.661              
InVirTC4     2019-10-13T06:59:49Z    0.0053       99.8658   4.95501         4.953454        1026.7984  1026.8022  146.032     -1.161                0.0452         0.0462         31.67626  -64.1315   2.3182        2.6962        6.2927    6.359     147.106   36.6747     36.6746     19.5553            19.56               19.5406            19.5453             
InVirTC4     2019-10-13T06:59:49Z    0.0087       99.7842   4.966239        4.965925        1026.785   1026.7848  146.089     0.781                 0.0664         0.1634         31.67568  -64.13036  2.3242        2.6998        6.294     6.3537    147.162   36.6883     36.6874     19.6461            19.6509             19.6442            19.649              
InVirTC4     2019-10-13T06:59:49Z    0.0087       99.7844   4.965729        4.965344        1026.7889  1026.7889  146.86      0.32                  0.0621         0.151          31.67566  -64.13035  2.3232        2.6978        6.2993    6.356     147.939   36.6875     36.6866     19.642             19.6467             19.6393            19.644              
InVirTC4     2019-10-13T06:59:49Z    0.0044       99.8901   4.953272        4.952665        1026.8106  1026.8094  147.02      -0.832                0.0454         0.0531         31.67626  -64.1315   2.3193        2.698         6.3003    6.3714    148.1     36.6779     36.6753     19.5348            19.5394             19.532             19.5367             
InVirTC4     2019-10-13T06:59:49Z    0.0087       99.7845   4.963798        4.963491        1026.7984  1026.7982  148.007     0.602                 0.0634         0.1412         31.67567  -64.13035  2.3213        2.6961        6.293     6.3517    149.095   36.6871     36.6861     19.6237            19.6284             19.6218            19.6265             
InVirTC4     2019-10-13T06:59:49Z    0.0036       99.9107   4.95301         4.952506        1026.8157  1026.8144  148.051     -0.449                0.0455         0.0609         31.67626  -64.1315   2.3189        2.6993        6.3021    6.3865    149.14    36.6777     36.6753     19.532             19.5367             19.53              19.5347             
InVirTC4     2019-10-13T06:59:49Z    0.0039       99.902    4.953274        4.952771        1026.82    1026.8185  149.008     -0.503                0.0425         0.0545         31.67624  -64.1315   2.3169        2.6937        6.2992    6.3711    150.104   36.6783     36.6758     19.5335            19.5382             19.5316            19.5363             
InVirTC4     2019-10-13T06:59:49Z    0.0078       99.8052   4.962003        4.961673        1026.8067  1026.8067  149.087     0.539                 0.0642         0.1325         31.67568  -64.13034  2.3215        2.696         6.3002    6.3582    150.183   36.6861     36.6852     19.6073            19.612              19.6051            19.6098             
InVirTC4     2019-10-13T06:59:49Z    0.0076       99.8099   4.960453        4.960054        1026.8141  1026.8139  149.899     0.312                 0.061          0.1113         31.67566  -64.13035  2.318         2.6972        6.2836    6.3678    151.002   36.6859     36.6848     19.5925            19.5972             19.59              19.5947             
InVirTC4     2019-10-13T06:59:49Z    0.0036       99.9098   4.952623        4.951999        1026.8251  1026.8231  149.952     -1.215                0.0473         0.0444         31.67624  -64.13148  2.3128        2.6867        6.285     6.3473    151.056   36.6775     36.6743     19.5278            19.5324             19.5256            19.5303             
InVirTC4     2019-10-13T06:59:49Z    0.0073       99.8167   4.958806        4.95852         1026.8228  1026.8226  150.983     0.662                 0.0574         0.1179         31.67566  -64.13036  2.3155        2.6947        6.2798    6.3565    152.094   36.6856     36.6847     19.5767            19.5814             19.575             19.5797             
InVirTC4     2019-10-13T06:59:49Z    0.0037       99.9089   4.95218         4.950887        1026.8308  1026.8297  150.986     -1.272                0.0462         0.0389         31.67624  -64.13148  2.3137        2.6843        6.2863    6.3368    152.098   36.6775     36.6734     19.5232            19.5279             19.5155            19.5202             
InVirTC4     2019-10-13T06:59:49Z    0.0043       99.8928   4.951664        4.950431        1026.8348  1026.8354  151.997     -1.142                0.0456         0.0523         31.67624  -64.13146  2.3113        2.6838        6.2742    6.3379    153.116   36.6758     36.6734     19.5198            19.5244             19.5108            19.5155             
InVirTC4     2019-10-13T06:59:49Z    0.0066       99.8365   4.956748        4.956471        1026.8316  1026.8316  152.071     0.867                 0.0503         0.095          31.67568  -64.13035  2.315         2.689         6.2819    6.3312    153.191   36.6845     36.6838     19.5581            19.5628             19.5562            19.5609             
InVirTC4     2019-10-13T06:59:49Z    0.0062       99.8441   4.957496        4.956149        1026.8314  1026.834   152.833     0.295                 0.0484         0.0691         31.67567  -64.13035  2.3186        2.6931        6.3029    6.3634    153.959   36.6828     36.6821     19.5667            19.5714             19.5548            19.5594             
InVirTC4     2019-10-13T06:59:49Z    0.0035       99.9136   4.951287        4.950253        1026.8406  1026.8402  153.033     -0.998                0.0433         0.0535         31.67624  -64.13146  2.312         2.6839        6.2858    6.3373    154.16    36.676      36.6732     19.5155            19.5202             19.5089            19.5136             
InVirTC4     2019-10-13T06:59:49Z    0.0066       99.8357   4.955029        4.954533        1026.8439  1026.843   153.957     0.607                 0.0489         0.0821         31.67566  -64.13036  2.3183        2.6921        6.2995    6.3574    155.091   36.6839     36.682      19.5416            19.5463             19.5391            19.5438             
InVirTC4     2019-10-13T06:59:49Z    0.0035       99.9139   4.950849        4.94995         1026.8453  1026.8442  154.039     -0.909                0.0482         0.0502         31.67624  -64.13146  2.3125        2.6834        6.2906    6.3325    155.174   36.6751     36.672      19.5119            19.5166             19.507             19.5117             
InVirTC4     2019-10-13T06:59:49Z    0.0059       99.8528   4.954052        4.953733        1026.8493  1026.8489  154.957     0.967                 0.0472         0.0765         31.67568  -64.13036  2.3157        2.6937        6.2833    6.3591    156.099   36.6826     36.6814     19.5334            19.5381             19.5317            19.5364             
InVirTC4     2019-10-13T06:59:49Z    0.0034       99.9151   4.950067        4.949264        1026.851   1026.8505  155.009     -0.846                0.0483         0.0462         31.67622  -64.13146  2.3103        2.6843        6.2774    6.3397    156.152   36.6745     36.6722     19.5048            19.5095             19.4998            19.5045             
InVirTC4     2019-10-13T06:59:49Z    0.0035       99.9143   4.949534        4.948778        1026.8549  1026.8561  156         -0.811                0.0404         0.0462         31.67622  -64.13146  2.3098        2.6858        6.279     6.3462    157.15    36.6727     36.6721     19.5014            19.5061             19.4948            19.4995             
InVirTC4     2019-10-13T06:59:49Z    0.0057       99.8573   4.954255        4.953893        1026.8526  1026.8523  156.14      0.497                 0.0447         0.0703         31.67568  -64.13034  2.3185        2.6961        6.3058    6.3753    157.291   36.6811     36.68       19.5365            19.5412             19.5344            19.539              
InVirTC4     2019-10-13T06:59:49Z    0.0066       99.8365   4.954203        4.953668        1026.8575  1026.8573  156.924     0.335                 0.0432         0.0535         31.67567  -64.13036  2.3203        2.6977        6.3136    6.3829    158.081   36.6823     36.6808     19.5344            19.5391             19.5309            19.5356             
InVirTC4     2019-10-13T06:59:49Z    0.0033       99.9196   4.94904         4.948493        1026.8626  1026.861   156.991     -0.79                 0.0363         0.0418         31.67622  -64.13145  2.3101        2.6861        6.2817    6.3502    158.149   36.6746     36.6719     19.4941            19.4988             19.492             19.4967             
InVirTC4     2019-10-13T06:59:49Z    0.0057       99.8561   4.952503        4.952186        1026.8646  1026.8642  158.007     0.809                 0.0409         0.0609         31.67568  -64.13034  2.3212        2.6967        6.3217    6.3795    159.173   36.6804     36.6793     19.5199            19.5246             19.5182            19.5228             
InVirTC4     2019-10-13T06:59:49Z    0.0033       99.9196   4.948919        4.948234        1026.8671  1026.8662  158.027     -0.63                 0.0402         0.0443         31.67622  -64.13144  2.3094        2.686         6.2761    6.3488    159.193   36.6742     36.6718     19.4929            19.4976             19.4892            19.4939             
InVirTC4     2019-10-13T06:59:49Z    0.0032       99.9209   4.949033        4.948494        1026.8719  1026.8705  159.078     -0.433                0.0415         0.0472         31.67622  -64.13144  2.3106        2.6865        6.2774    6.3558    160.252   36.6746     36.6719     19.4931            19.4978             19.4911            19.4957             
InVirTC4     2019-10-13T06:59:49Z    0.0056       99.8591   4.952545        4.952067        1026.8685  1026.8687  159.128     0.386                 0.0421         0.0577         31.67568  -64.13035  2.3192        2.6913        6.3074    6.3571    160.302   36.6794     36.6784     19.521             19.5256             19.5175            19.5222             
InVirTC4     2019-10-13T06:59:49Z    0.0034       99.9167   4.948664        4.948019        1026.8753  1026.8741  159.88      -1.228                0.0389         0.0408         31.67622  -64.13144  2.314         2.6847        6.2979    6.3455    161.061   36.6735     36.6708     19.4906            19.4953             19.4875            19.4922             
InVirTC4     2019-10-13T06:59:49Z    0.0055       99.8624   4.952766        4.951578        1026.8728  1026.8738  159.942     0.352                 0.0402         0.0564         31.67568  -64.13036  2.3155        2.6908        6.2932    6.3667    161.123   36.6805     36.6787     19.5214            19.5261             19.5123            19.517              
InVirTC4     2019-10-13T06:59:49Z    0.0055       99.8614   4.951558        4.951231        1026.8798  1026.8793  160.982     0.805                 0.0415         0.0609         31.67568  -64.13036  2.3153        2.6899        6.2996    6.3573    162.171   36.6799     36.6786     19.5103            19.5149             19.5086            19.5133             
InVirTC4     2019-10-13T06:59:49Z    0.003        99.9265   4.946733        4.945923        1026.8837  1026.8825  160.991     -1.663                0.0394         0.0242         31.6762   -64.13144  2.3143        2.6848        6.3067    6.3534    162.18    36.6722     36.6691     19.4733            19.478              19.4691            19.4737             
InVirTC4     2019-10-13T06:59:49Z    0.0025       99.9365   4.945771        4.94473         1026.8899  1026.8897  161.959     -1.529                0.04           0.0352         31.6762   -64.13142  2.314         2.6862        6.306     6.3617    163.155   36.6716     36.669      19.4644            19.469              19.4575            19.4621             
InVirTC4     2019-10-13T06:59:49Z    0.0055       99.8614   4.950685        4.950394        1026.8859  1026.8855  161.994     1.128                 0.0373         0.059          31.67568  -64.13036  2.315         2.6893        6.2992    6.3596    163.191   36.6792     36.6782     19.5023            19.507              19.5007            19.5054             
InVirTC4     2019-10-13T06:59:49Z    0.0023       99.9421   4.944606        4.944024        1026.8961  1026.8962  162.993     -1.244                0.039          0.0384         31.67621  -64.13142  2.3128        2.6856        6.3002    6.3602    164.198   36.6703     36.669      19.4543            19.459              19.4503            19.455              
InVirTC4     2019-10-13T06:59:49Z    0.0054       99.8641   4.949713        4.949428        1026.8921  1026.8918  163.104     1.185                 0.0412         0.0547         31.67568  -64.13035  2.3155        2.6884        6.3046    6.358     164.309   36.6781     36.6771     19.4939            19.4985             19.4923            19.497              
InVirTC4     2019-10-13T06:59:49Z    0.0052       99.8695   4.950927        4.950433        1026.892   1026.892   163.77      0.66                  0.041          0.0533         31.67568  -64.13035  2.3125        2.6869        6.2913    6.3531    164.981   36.678      36.6769     19.5052            19.5099             19.5018            19.5064             
InVirTC4     2019-10-13T06:59:49Z    0.0024       99.9388   4.943698        4.942978        1026.9045  1026.9033  164.01      -0.882                0.0398         0.0237         31.67622  -64.13142  2.3119        2.6848        6.2927    6.3552    165.222   36.6718     36.6689     19.4436            19.4483             19.44              19.4447             
InVirTC4     2019-10-13T06:59:49Z    0.0055       99.8622   4.949876        4.949306        1026.9027  1026.9021  164.998     1.16                  0.0438         0.0462         31.67568  -64.13036  2.3126        2.6879        6.2982    6.3608    166.218   36.6804     36.6785     19.492             19.4967             19.4887            19.4934             
InVirTC4     2019-10-13T06:59:49Z    0.0024       99.9402   4.94367         4.943702        1026.9096  1026.9077  165.059     -0.479                0.0382         0.0286         31.67622  -64.13144  2.3118        2.6839        6.2929    6.3465    166.28    36.6721     36.6704     19.4426            19.4472             19.4448            19.4495             
InVirTC4     2019-10-13T06:59:49Z    0.0024       99.9405   4.943844        4.94317         1026.913   1026.912   166.027     -0.524                0.0369         0.0368         31.67621  -64.13143  2.3151        2.6878        6.3102    6.3643    167.255   36.6716     36.669      19.4443            19.449              19.4409            19.4455             
InVirTC4     2019-10-13T06:59:49Z    0.0051       99.8717   4.947655        4.947354        1026.9105  1026.9101  166.044     1.558                 0.0442         0.0462         31.6757   -64.13034  2.311         2.6875        6.2939    6.3653    167.272   36.6781     36.677      19.4731            19.4777             19.4715            19.4761             
InVirTC4     2019-10-13T06:59:49Z    0.0048       99.8804   4.948827        4.948516        1026.9092  1026.9089  166.841     0.971                 0.0403         0.0396         31.67569  -64.13035  2.3098        2.6854        6.2837    6.3563    168.075   36.6763     36.6753     19.4859            19.4906             19.4841            19.4888             
InVirTC4     2019-10-13T06:59:49Z    0.0023       99.9411   4.941561        4.940852        1026.9223  1026.9213  167.01      -1.053                0.0357         0.0242         31.6762   -64.13144  2.3152        2.6896        6.3143    6.3779    168.246   36.6708     36.6682     19.4231            19.4278             19.4195            19.4241             
InVirTC4     2019-10-13T06:59:49Z    0.0024       99.9409   4.940791        4.940061        1026.9291  1026.9282  167.992     -1.057                0.0371         0.0242         31.6762   -64.1314   2.3143        2.6907        6.3103    6.3846    169.236   36.6712     36.6686     19.415             19.4196             19.411             19.4156             
InVirTC4     2019-10-13T06:59:49Z    0.0054       99.8641   4.949584        4.948484        1026.9165  1026.9171  168.013     1.259                 0.0366         0.0594         31.67568  -64.13038  2.3129        2.6832        6.3066    6.3472    169.256   36.6799     36.678      19.4885            19.4931             19.4803            19.485              
InVirTC4     2019-10-13T06:59:49Z    0.0023       99.941    4.940349        4.939973        1026.934   1026.9327  168.985     -0.948                0.0364         0.0242         31.6762   -64.13142  2.3148        2.689         6.3221    6.3766    170.236   36.6706     36.6685     19.411             19.4157             19.4099            19.4145             
InVirTC4     2019-10-13T06:59:49Z    0.0055       99.8627   4.945224        4.944446        1026.9313  1026.9312  169.026     1.488                 0.0362         0.0519         31.67568  -64.13036  2.3135        2.6844        6.3175    6.3582    170.278   36.6793     36.6774     19.4474            19.452              19.4422            19.4468             
InVirTC4     2019-10-13T06:59:49Z    0.0016       99.9591   4.940747        4.940424        1026.9394  1026.9371  170.013     -0.808                0.0312         0.031          31.6762   -64.13139  2.3149        2.6886        6.3249    6.3765    171.272   36.6723     36.6693     19.4125            19.4172             19.4128            19.4175             
InVirTC4     2019-10-13T06:59:49Z    0.0051       99.8711   4.942859        4.942559        1026.9371  1026.9367  170.044     1.354                 0.037          0.0327         31.67569  -64.13036  2.3111        2.6833        6.2999    6.3611    171.304   36.6749     36.6738     19.4295            19.4342             19.4279            19.4326             
InVirTC4     2019-10-13T06:59:49Z    0.0045       99.8883   4.946761        4.945724        1026.9305  1026.9324  170.84      0.367                 0.0384         0.0384         31.67569  -64.13037  2.3082        2.6795        6.2864    6.3403    172.106   36.6745     36.6739     19.4667            19.4713             19.4575            19.4622             
InVirTC4     2019-10-13T06:59:49Z    0.0023       99.9429   4.940929        4.940475        1026.9427  1026.9403  171.025     -0.784                0.0343         0.0244         31.6762   -64.1314   2.3121        2.6887        6.3187    6.3776    172.292   36.6715     36.6682     19.4147            19.4193             19.4141            19.4188             
InVirTC4     2019-10-13T06:59:49Z    0.0018       99.9564   4.939994        4.939133        1026.9471  1026.9471  171.983     -1.071                0.0303         0.0259         31.67618  -64.1314   2.3078        2.6887        6.2835    6.3823    173.257   36.6694     36.6674     19.4078            19.4124             19.4019            19.4066             
InVirTC4     2019-10-13T06:59:49Z    0.0045       99.8864   4.946283        4.943877        1026.9406  1026.9446  171.996     0.729                 0.038          0.0462         31.67569  -64.13038  2.3053        2.6826        6.2759    6.3619    173.271   36.678      36.6761     19.4576            19.4623             19.437             19.4416             
InVirTC4     2019-10-13T06:59:49Z    0.0042       99.8953   4.943303        4.942339        1026.9516  1026.9512  173.018     0.92                  0.0343         0.0393         31.67568  -64.13038  2.3065        2.6828        6.2886    6.3663    174.301   36.677      36.6744     19.43              19.4347             19.4239            19.4286             
InVirTC4     2019-10-13T06:59:49Z    0.0021       99.9462   4.93849         4.937697        1026.956   1026.9543  173.049     -1.187                0.0324         0.03           31.67618  -64.1314   2.3098        2.688         6.2977    6.3782    174.333   36.6698     36.6662     19.3926            19.3973             19.3891            19.3938             
InVirTC4     2019-10-13T06:59:49Z    0.0038       99.9065   4.942284        4.941968        1026.9564  1026.9558  173.975     1.046                 0.0326         0.0462         31.67569  -64.13038  2.3065        2.6824        6.2926    6.359     175.266   36.6751     36.6738     19.4221            19.4268             19.4206            19.4253             
InVirTC4     2019-10-13T06:59:49Z    0.0015       99.964    4.93779         4.93688         1026.9606  1026.9608  173.986     -1.08                 0.0335         0.0242         31.67618  -64.13138  2.3118        2.6869        6.314     6.3778    175.277   36.6685     36.6665     19.3871            19.3917             19.3807            19.3853             
InVirTC4     2019-10-13T06:59:49Z    0.0022       99.9456   4.937127        4.936597        1026.9671  1026.9663  174.991     -0.892                0.0364         0.0242         31.67618  -64.1314   2.313         2.6883        6.3231    6.3887    176.29    36.6688     36.6668     19.38              19.3846             19.3772            19.3818             
InVirTC4     2019-10-13T06:59:49Z    0.0035       99.914    4.941518        4.941215        1026.9622  1026.9616  175.013     1.146                 0.0315         0.0328         31.6757   -64.13038  2.3075        2.6812        6.2963    6.3544    176.312   36.6744     36.6731     19.4152            19.4199             19.4138            19.4185             
InVirTC4     2019-10-13T06:59:49Z    0.0036       99.9115   4.94311         4.94215         1026.9613  1026.9622  175.831     0.399                 0.0319         0.0311         31.6757   -64.13038  2.3099        2.6846        6.3033    6.3705    177.136   36.6738     36.6724     19.4306            19.4353             19.4232            19.4278             
InVirTC4     2019-10-13T06:59:49Z    0.0014       99.9662   4.936787        4.936396        1026.9724  1026.9711  176.022     -0.652                0.0384         0.0242         31.67618  -64.13138  2.3115        2.6872        6.3151    6.3888    177.328   36.6686     36.6664     19.3765            19.3811             19.3753            19.3799             
InVirTC4     2019-10-13T06:59:49Z    0.0035       99.9135   4.941667        4.941622        1026.971   1026.97    176.961     0.618                 0.0344         0.0331         31.6757   -64.13038  2.3127        2.6864        6.3207    6.3762    178.275   36.6747     36.6737     19.4155            19.4201             19.4162            19.4208             
InVirTC4     2019-10-13T06:59:49Z    0.0013       99.967    4.93676         4.936102        1026.9779  1026.9768  177.093     -0.34                 0.032          0.0242         31.67618  -64.13138  2.3107        2.6841        6.3126    6.3715    178.408   36.6692     36.6666     19.3751            19.3798             19.3718            19.3765             
InVirTC4     2019-10-13T06:59:49Z    0.0014       99.9667   4.936619        4.936318        1026.981   1026.9789  177.875     -0.889                0.0334         0.0242         31.67617  -64.13138  2.3108        2.6849        6.3076    6.3764    179.196   36.6685     36.6658     19.3743            19.3789             19.3744            19.3791             
InVirTC4     2019-10-13T06:59:49Z    0.0036       99.9121   4.939493        4.939078        1026.9803  1026.9795  178.002     0.823                 0.0352         0.0321         31.6757   -64.13038  2.3114        2.687         6.311     6.3823    179.324   36.674      36.6723     19.3952            19.3999             19.3932            19.3979             
InVirTC4     2019-10-13T06:59:49Z    0.0014       99.9667   4.935492        4.934864        1026.9864  1026.9857  178.979     -1.515                0.0322         0.0242         31.67618  -64.13138  2.3131        2.6855        6.32      6.3807    180.309   36.6662     36.6641     19.3657            19.3703             19.3621            19.3668             
InVirTC4     2019-10-13T06:59:49Z    0.0033       99.9192   4.93972         4.939477        1026.9836  1026.9829  179.236     0.37                  0.0324         0.0212         31.6757   -64.13038  2.3118        2.6854        6.3158    6.3767    180.568   36.6724     36.6712     19.3987            19.4033             19.3977            19.4024             
InVirTC4     2019-10-13T06:59:49Z    0.0034       99.9149   4.93977         4.939489        1026.9875  1026.9866  179.945     0.328                 0.0285         0.0269         31.6757   -64.1304   2.3145        2.6838        6.3277    6.3638    181.282   36.6732     36.6717     19.398             19.4026             19.397             19.4016             
InVirTC4     2019-10-13T06:59:49Z    0.0014       99.9665   4.9345          4.9343          1026.9938  1026.9911  180.015     -1.462                0.0327         0.0228         31.67618  -64.13138  2.3136        2.6842        6.3284    6.3737    181.353   36.6664     36.6634     19.3555            19.3602             19.357             19.3617             
InVirTC4     2019-10-13T06:59:49Z    0.003        99.9242   4.939089        4.938722        1026.9944  1026.9943  180.962     0.911                 0.0248         0.0384         31.6757   -64.13039  2.3145        2.6839        6.3287    6.3643    182.307   36.6738     36.6728     19.3903            19.395              19.3879            19.3926             
InVirTC4     2019-10-13T06:59:49Z    0.0011       99.9733   4.933736        4.933679        1026.9995  1026.9969  181.012     -1.307                0.0316         0.0169         31.67618  -64.13136  2.3144        2.6842        6.3334    6.3788    182.358   36.6658     36.6633     19.3485            19.3532             19.351             19.3556             
InVirTC4     2019-10-13T06:59:49Z    0.0007       99.9834   4.93239         4.932538        1027.0054  1027.0031  181.991     -1.1                  0.0331         0.0199         31.67618  -64.13136  2.3142        2.6855        6.3352    6.3859    183.345   36.664      36.6622     19.3374            19.3421             19.3409            19.3456             
InVirTC4     2019-10-13T06:59:49Z    0.0025       99.938    4.938288        4.937998        1027.0005  1027       182.001     1.3                   0.0266         0.0258         31.67571  -64.13038  2.3138        2.6847        6.3248    6.3772    183.355   36.6733     36.6721     19.3829            19.3875             19.3815            19.3862             
InVirTC4     2019-10-13T06:59:49Z    0.0027       99.9327   4.939098        4.938806        1027.0013  1027.0007  182.933     0.422                 0.0287         0.0275         31.67571  -64.13039  2.3123        2.6885        6.3192    6.3924    184.294   36.6719     36.6707     19.3917            19.3964             19.3903            19.395              
InVirTC4     2019-10-13T06:59:49Z    0.0005       99.9867   4.931574        4.931113        1027.0117  1027.0122  183.009     -0.859                0.0322         0.0239         31.67617  -64.13136  2.3134        2.6855        6.3371    6.3811    184.37    36.6637     36.6631     19.3296            19.3342             19.3259            19.3305             
InVirTC4     2019-10-13T06:59:49Z    0.0024       99.9394   4.938902        4.938997        1027.0097  1027.0079  183.971     0.763                 0.0332         0.0316         31.6757   -64.1304   2.3136        2.6869        6.3295    6.3875    185.34    36.675      36.6735     19.3859            19.3905             19.3885            19.3931             
InVirTC4     2019-10-13T06:59:49Z    0.0005       99.9872   4.931407        4.931193        1027.0183  1027.0161  184.047     -0.629                0.0335         0.0225         31.67616  -64.13136  2.3127        2.686         6.3343    6.3882    185.417   36.6651     36.6626     19.3259            19.3306             19.3268            19.3315             
InVirTC4     2019-10-13T06:59:49Z    0.0024       99.9407   4.936158        4.936289        1027.0183  1027.0169  184.995     1.132                 0.0311         0.0316         31.67572  -64.13038  2.3115        2.6871        6.3187    6.3876    186.372   36.6723     36.6713     19.3625            19.3671             19.3649            19.3695             
InVirTC4     2019-10-13T06:59:49Z    0.0006       99.9842   4.931131        4.930951        1027.0233  1027.0211  185.04      -0.604                0.0281         0.0169         31.67616  -64.13136  2.3108        2.6878        6.3254    6.4008    186.417   36.6651     36.6625     19.323             19.3276             19.3242            19.3288             
InVirTC4     2019-10-13T06:59:49Z    0.0013       99.9688   4.930208        4.930221        1027.0299  1027.027   185.976     -0.781                0.0292         0.0234         31.67616  -64.13134  2.3099        2.6854        6.3169    6.3902    187.36    36.6651     36.6624     19.3138            19.3184             19.3169            19.3215             
InVirTC4     2019-10-13T06:59:49Z    0.0023       99.9411   4.935271        4.934994        1027.0235  1027.0231  186.058     1.245                 0.0246         0.0276         31.67572  -64.13038  2.31          2.6853        6.3104    6.3822    187.444   36.6706     36.6696     19.3555            19.3601             19.3541            19.3587             
InVirTC4     2019-10-13T06:59:49Z    0.0022       99.9447   4.936968        4.936821        1027.0218  1027.0211  186.726     0.283                 0.0296         0.0227         31.67572  -64.13041  2.3086        2.6832        6.3119    6.3744    188.116   36.6702     36.6692     19.3718            19.3765             19.3716            19.3762             
InVirTC4     2019-10-13T06:59:49Z    0.0007       99.9824   4.93046         4.930221        1027.0337  1027.0305  186.994     -0.813                0.0321         0.0242         31.67616  -64.13134  2.3126        2.6857        6.3349    6.3937    188.387   36.665      36.6614     19.3158            19.3205             19.3177            19.3223             
InVirTC4     2019-10-13T06:59:49Z    0.0023       99.941    4.93551         4.935706        1027.0325  1027.0316  187.991     0.733                 0.0306         0.0223         31.67572  -64.13041  2.3115        2.6815        6.3303    6.3748    189.392   36.6714     36.6711     19.356             19.3607             19.3583            19.3629             
InVirTC4     2019-10-13T06:59:49Z    0.001        99.975    4.93037         4.929851        1027.0377  1027.0363  188.007     -0.78                 0.0307         0.0208         31.67616  -64.13136  2.313         2.6843        6.3358    6.386     189.408   36.6642     36.6617     19.3154            19.3201             19.3134            19.318              
InVirTC4     2019-10-13T06:59:49Z    0.001        99.975    4.929703        4.929309        1027.0434  1027.0414  189         -0.87                 0.0306         0.0169         31.67615  -64.13136  2.3122        2.6864        6.3371    6.4046    190.409   36.6638     36.661      19.3092            19.3138             19.3086            19.3133             
InVirTC4     2019-10-13T06:59:49Z    0.0023       99.9411   4.933998        4.933713        1027.0406  1027.0401  189.035     1.007                 0.0313         0.0237         31.67572  -64.1304   2.3112        2.6802        6.3274    6.3729    190.444   36.6711     36.67       19.3416            19.3463             19.3402            19.3449             
InVirTC4     2019-10-13T06:59:49Z    0.0005       99.9876   4.928898        4.928378        1027.0491  1027.0487  189.99      -1.091                0.0304         0.0117         31.67614  -64.13136  2.3127        2.6843        6.3518    6.3935    191.407   36.6631     36.6615     19.3019            19.3065             19.2987            19.3034             
InVirTC4     2019-10-13T06:59:49Z    0.002        99.9508   4.934117        4.934144        1027.0434  1027.0415  190.098     0.362                 0.0269         0.0201         31.67572  -64.1304   2.313         2.6862        6.3369    6.4009    191.516   36.6695     36.6678     19.3441            19.3487             19.3463            19.351              
InVirTC4     2019-10-13T06:59:49Z    0.0024       99.9406   4.933681        4.934082        1027.049   1027.0475  190.948     0.38                  0.0292         0.0184         31.67572  -64.13041  2.313         2.688         6.3319    6.3929    192.372   36.6702     36.6697     19.3388            19.3435             19.3432            19.3478             
InVirTC4     2019-10-13T06:59:49Z    0.0006       99.9858   4.928069        4.927495        1027.0561  1027.0544  190.999     -1.256                0.0322         0.0146         31.67614  -64.13133  2.3097        2.6827        6.336     6.3916    192.423   36.6635     36.6605     19.2931            19.2977             19.291             19.2957             
InVirTC4     2019-10-13T06:59:49Z    0.0005       99.9869   4.927363        4.926809        1027.0609  1027.0614  191.988     -1.209                0.0333         0.0137         31.67615  -64.13133  2.3061        2.6834        6.3136    6.404     193.421   36.6621     36.6613     19.2875            19.2922             19.2832            19.2878             
InVirTC4     2019-10-13T06:59:49Z    0.0024       99.9389   4.931144        4.930884        1027.0582  1027.0577  191.996     0.774                 0.0346         0.0227         31.67572  -64.13042  2.3132        2.6858        6.3359    6.3882    193.429   36.6685     36.6674     19.3162            19.3209             19.315             19.3196             
InVirTC4     2019-10-13T06:59:49Z    0.0003       99.9927   4.926248        4.926128        1027.068   1027.0653  193.025     -1.009                0.0324         0.01           31.67616  -64.13133  2.3058        2.6826        6.3185    6.4017    194.465   36.6618     36.659      19.2769            19.2815             19.2789            19.2835             
InVirTC4     2019-10-13T06:59:49Z    0.0014       99.9645   4.930491        4.93022         1027.0643  1027.0638  193.099     0.856                 0.0349         0.0232         31.67574  -64.1304   2.3144        2.685         6.3488    6.3936    194.54    36.6679     36.6669     19.3101            19.3148             19.3088            19.3134             
InVirTC4     2019-10-13T06:59:49Z    0.0014       99.9659   4.93072         4.931395        1027.0662  1027.0633  193.764     0.242                 0.0315         0.019          31.67573  -64.13041  2.3122        2.6834        6.3344    6.3909    195.21    36.6675     36.6663     19.3125            19.3171             19.3203            19.3249             
InVirTC4     2019-10-13T06:59:49Z    0.0002       99.993    4.925795        4.925528        1027.0733  1027.0713  194.04      -0.735                0.0334         0.0169         31.67616  -64.1313   2.3073        2.6789        6.3332    6.3865    195.488   36.6614     36.659      19.2725            19.2771             19.2728            19.2774             
InVirTC4     2019-10-13T06:59:49Z    0.0013       99.9671   4.930081        4.929829        1027.0737  1027.0732  194.991     0.652                 0.0308         0.0169         31.67572  -64.1304   2.3103        2.6893        6.3273    6.4195    196.448   36.6679     36.6668     19.3055            19.3102             19.3043            19.309              
InVirTC4     2019-10-13T06:59:49Z    0.0002       99.9934   4.925547        4.925082        1027.0778  1027.0763  195.056     -0.413                0.0299         0.0169         31.67615  -64.1313   2.3055        2.6773        6.3247    6.387     196.513   36.6608     36.6583     19.2705            19.2751             19.2689            19.2735             
InVirTC4     2019-10-13T06:59:49Z    0.0006       99.9845   4.925587        4.925328        1027.0812  1027.0796  195.937     -0.689                0.0299         0.0117         31.67614  -64.13131  2.3028        2.6735        6.316     6.3703    197.401   36.6604     36.6583     19.2709            19.2756             19.2709            19.2755             
InVirTC4     2019-10-13T06:59:49Z    0.0013       99.9681   4.929606        4.929322        1027.0795  1027.079   196.053     0.908                 0.0263         0.0169         31.67574  -64.13041  2.3105        2.689         6.3362    6.414     197.517   36.6678     36.6666     19.3007            19.3053             19.2993            19.304              
InVirTC4     2019-10-13T06:59:49Z    0.0014       99.9645   4.929408        4.929628        1027.083   1027.081   196.854     0.265                 0.028          0.0189         31.67574  -64.13041  2.3115        2.6847        6.339     6.3958    198.325   36.6671     36.6658     19.2992            19.3038             19.3028            19.3075             
InVirTC4     2019-10-13T06:59:49Z    0.0002       99.9929   4.923626        4.923478        1027.0882  1027.0858  196.965     -1.429                0.0238         0.004          31.67614  -64.1313   2.3009        2.6717        6.3108    6.3628    198.437   36.658      36.6554     19.2546            19.2592             19.2561            19.2607             
InVirTC4     2019-10-13T06:59:49Z    0.0019       99.9522   4.927954        4.928077        1027.092   1027.0909  197.974     0.605                 0.0247         0.0218         31.67574  -64.13044  2.3127        2.6869        6.3542    6.412     199.454   36.6675     36.6667     19.2845            19.2891             19.2865            19.2912             
InVirTC4     2019-10-13T06:59:49Z    0.0003       99.9926   4.921908        4.921786        1027.0941  1027.0926  198.026     -1.392                0.0237         0.0044         31.67614  -64.13132  2.3001        2.673         6.3077    6.3791    199.506   36.655      36.6533     19.2412            19.2458             19.2419            19.2465             
InVirTC4     2019-10-13T06:59:49Z    0.0002       99.9941   4.92047         4.92025         1027.1016  1027.0986  199.007     -1.212                0.0223         0.0096         31.67614  -64.1313   2.2996        2.6736        6.3082    6.3875    200.496   36.6545     36.6512     19.2277            19.2323             19.2294            19.234              
InVirTC4     2019-10-13T06:59:49Z    0.0013       99.9681   4.926373        4.926151        1027.0994  1027.0989  199.02      1.078                 0.027          0.0169         31.67574  -64.13044  2.3127        2.6894        6.3537    6.4259    200.509   36.6663     36.6653     19.2704            19.275              19.2694            19.2741             
InVirTC4     2019-10-13T06:59:49Z    0.0003       99.9927   4.91967         4.919157        1027.1068  1027.1065  199.999     -0.964                0.0228         0.0096         31.67614  -64.1313   2.2996        2.6723        6.314     6.3796    201.495   36.6534     36.6518     19.2209            19.2255             19.2178            19.2224             
InVirTC4     2019-10-13T06:59:49Z    0.001        99.976    4.923976        4.923706        1027.1054  1027.1048  200.053     1.322                 0.0289         0.0099         31.67574  -64.13042  2.3115        2.6903        6.3463    6.4328    201.549   36.662      36.6607     19.2521            19.2567             19.2509            19.2555             
InVirTC4     2019-10-13T06:59:49Z    0.0008       99.9793   4.924757        4.924614        1027.1056  1027.1062  200.985     0.463                 0.024          0.0093         31.67575  -64.13042  2.3057        2.6796        6.3173    6.3786    202.489   36.66       36.6603     19.2613            19.2659             19.2596            19.2643             
InVirTC4     2019-10-13T06:59:49Z    0.0002       99.9941   4.918967        4.918663        1027.1139  1027.1123  201.025     -0.72                 0.0186         0.0059         31.67614  -64.1313   2.2997        2.6689        6.3191    6.3703    202.53    36.6541     36.6518     19.213             19.2176             19.2126            19.2173             
InVirTC4     2019-10-13T06:59:49Z    0.0013       99.967    4.92376         4.923921        1027.1151  1027.112   201.93      0.456                 0.026          0.0232         31.67574  -64.13042  2.3012        2.6772        6.3062    6.3877    203.441   36.6626     36.66       19.2485            19.2531             19.2529            19.2576             
InVirTC4     2019-10-13T06:59:49Z    -0.0007      100.0187  4.918922        4.918898        1027.119   1027.1165  202.021     -0.641                0.022          0.0066         31.67613  -64.13129  2.2974        2.668         6.3052    6.3655    203.534   36.6545     36.6521     19.2116            19.2163             19.2141            19.2187             
InVirTC4     2019-10-13T06:59:49Z    0.0004       99.9898   4.922973        4.922703        1027.1214  1027.1209  202.994     0.948                 0.0257         0.0047         31.67574  -64.13042  2.3016        2.679         6.3151    6.4017    204.514   36.6622     36.6611     19.241             19.2456             19.2398            19.2443             
InVirTC4     2019-10-13T06:59:49Z    -0.0007      100.0165  4.917968        4.91781         1027.1246  1027.1228  203.009     -0.778                0.0247         0.0039         31.67612  -64.1313   2.2967        2.667         6.3015    6.3575    204.529   36.6534     36.6513     19.2034            19.208              19.2042            19.2089             
InVirTC4     2019-10-13T06:59:49Z    0.0004       99.9892   4.922529        4.922257        1027.1266  1027.126   204.001     1.28                  0.0268         0.0041         31.67574  -64.13042  2.3017        2.6773        6.3197    6.3939    205.53    36.6618     36.6606     19.2369            19.2415             19.2356            19.2402             
InVirTC4     2019-10-13T06:59:49Z    -0.0005      100.0129  4.91717         4.917001        1027.1303  1027.1284  204.003     -0.849                0.0251         0.0093         31.67613  -64.13129  2.2978        2.6683        6.3114    6.3608    205.531   36.6527     36.6504     19.1962            19.2008             19.1972            19.2018             
InVirTC4     2019-10-13T06:59:49Z    0.0003       99.9927   4.922226        4.921942        1027.1312  1027.1305  204.994     1.407                 0.0247         0.0092         31.67575  -64.13043  2.3009        2.678         6.3157    6.3907    206.53    36.6612     36.6599     19.2342            19.2388             19.233             19.2376             
InVirTC4     2019-10-13T06:59:49Z    -0.0002      100.0043  4.91765         4.917503        1027.1336  1027.131   205.01      -0.791                0.0251         0.0125         31.67614  -64.13128  2.2974        2.671         6.3063    6.3693    206.546   36.6526     36.6499     19.2004            19.205              19.2021            19.2067             
InVirTC4     2019-10-13T06:59:49Z    -0.0005      100.0114  4.91692         4.916378        1027.1398  1027.1376  206.016     -0.795                0.0278         0.0128         31.67612  -64.13128  2.2972        2.6737        6.2968    6.3769    207.56    36.6525     36.6492     19.1932            19.1978             19.1918            19.1964             
InVirTC4     2019-10-13T06:59:49Z    0.0004       99.9904   4.921492        4.921236        1027.1372  1027.1365  206.037     1.25                  0.0231         0.0096         31.67576  -64.13043  2.3006        2.6809        6.3137    6.4102    207.581   36.6607     36.6594     19.2273            19.2319             19.2263            19.231              
InVirTC4     2019-10-13T06:59:49Z    -0.0007      100.0184  4.916075        4.915813        1027.1457  1027.1439  206.975     -0.953                0.0262         0.0045         31.67612  -64.13128  2.3011        2.6777        6.3205    6.3949    208.527   36.652      36.6497     19.1853            19.1899             19.1854            19.19               
InVirTC4     2019-10-13T06:59:49Z    0.0003       99.9919   4.919487        4.919363        1027.1426  1027.1419  207.1       0.648                 0.0257         0.0122         31.67576  -64.13042  2.3014        2.6809        6.3241    6.4082    208.653   36.6566     36.6557     19.2125            19.2171             19.2124            19.217              
InVirTC4     2019-10-13T06:59:49Z    0.0003       99.9919   4.919114        4.920003        1027.1474  1027.1458  207.901     0.305                 0.0273         0.0143         31.67576  -64.13044  2.2988        2.677         6.3087    6.3884    209.461   36.6568     36.6574     19.2083            19.2129             19.2161            19.2207             
InVirTC4     2019-10-13T06:59:49Z    -0.0008      100.0191  4.915703        4.915674        1027.1522  1027.1489  207.99      -1.165                0.0264         0.0079         31.67612  -64.13128  2.3026        2.6793        6.3224    6.4033    209.55    36.6529     36.6498     19.1803            19.1849             19.1835            19.1881             
InVirTC4     2019-10-13T06:59:49Z    -0.0007      100.0187  4.915682        4.915367        1027.1573  1027.155   208.986     -1.212                0.0265         0.0042         31.67612  -64.13128  2.305         2.6812        6.3403    6.4115    210.554   36.6535     36.6506     19.1789            19.1836             19.1793            19.1839             
InVirTC4     2019-10-13T06:59:49Z    0.0003       99.9928   4.917793        4.91753         1027.1541  1027.1536  208.994     0.696                 0.0281         0.0169         31.67576  -64.13046  2.3003        2.6761        6.3263    6.3966    210.562   36.6554     36.6543     19.1969            19.2015             19.1957            19.2002             
InVirTC4     2019-10-13T06:59:49Z    -0.0008      100.0188  4.91572         4.915387        1027.1628  1027.1608  209.976     -1.065                0.0253         0.0041         31.67612  -64.13128  2.3061        2.6809        6.343     6.4117    211.552   36.6545     36.6519     19.1777            19.1824             19.1776            19.1822             
InVirTC4     2019-10-13T06:59:49Z    0.0001       99.997    4.917144        4.916894        1027.1594  1027.159   209.995     1.042                 0.0245         0.0234         31.67576  -64.13044  2.2986        2.6734        6.3197    6.3819    211.571   36.6547     36.6537     19.1911            19.1957             19.1899            19.1945             
InVirTC4     2019-10-13T06:59:49Z    -0.0007      100.0176  4.9159          4.915581        1027.1669  1027.166   210.996     -0.776                0.0248         0.0096         31.67612  -64.13126  2.3059        2.6818        6.3374    6.4146    212.58    36.6545     36.653      19.1791            19.1837             19.1778            19.1824             
InVirTC4     2019-10-13T06:59:49Z    -0.0006      100.014   4.9166          4.916352        1027.1647  1027.1641  211.005     1.285                 0.0264         0.016          31.67576  -64.13044  2.2945        2.6716        6.2939    6.3743    212.59    36.6541     36.6529     19.1862            19.1908             19.1852            19.1898             
InVirTC4     2019-10-13T06:59:49Z    -0.0003      100.0065  4.916538        4.916247        1027.17    1027.1694  212.005     1.354                 0.0251         0.0089         31.67576  -64.13044  2.2923        2.6691        6.2798    6.3695    213.597   36.6547     36.6534     19.1845            19.1891             19.1831            19.1878             
InVirTC4     2019-10-13T06:59:49Z    -0.0008      100.0194  4.91622         4.915914        1027.1715  1027.1701  212.053     -0.451                0.0261         0.0117         31.67612  -64.13126  2.3072        2.682         6.3355    6.4085    213.646   36.6552     36.6531     19.1809            19.1855             19.1803            19.185              
InVirTC4     2019-10-13T06:59:49Z    -0.0007      100.0187  4.9161          4.915855        1027.1754  1027.1743  212.968     -0.712                0.0286         0.0079         31.67612  -64.13126  2.313         2.6855        6.3799    6.4359    214.568   36.6547     36.653      19.1799            19.1845             19.1795            19.1841             
InVirTC4     2019-10-13T06:59:49Z    -0.0005      100.0128  4.916854        4.916541        1027.1749  1027.1743  212.984     1.171                 0.0197         0.0096         31.67578  -64.13042  2.2927        2.6675        6.2945    6.3654    214.584   36.6559     36.6546     19.1857            19.1904             19.1842            19.1888             
InVirTC4     2019-10-13T06:59:49Z    -0.0008      100.019   4.915852        4.915649        1027.1821  1027.1791  213.94      -1.415                0.0262         0.0096         31.67612  -64.13126  2.3102        2.6819        6.3712    6.4154    215.548   36.6563     36.6529     19.1753            19.1799             19.1772            19.1818             
InVirTC4     2019-10-13T06:59:49Z    -0.0005      100.0112  4.917476        4.917129        1027.1797  1027.1791  214.004     0.934                 0.0211         0.0169         31.67576  -64.13045  2.293         2.6693        6.3006    6.382     215.612   36.6576     36.6561     19.1893            19.1939             19.1876            19.1922             
InVirTC4     2019-10-13T06:59:49Z    -0.0003      100.0079  4.917561        4.917273        1027.1863  1027.1856  214.973     0.731                 0.024          0.0169         31.67576  -64.13045  2.2986        2.6726        6.3361    6.3982    216.589   36.6598     36.6586     19.1871            19.1917             19.1858            19.1904             
InVirTC4     2019-10-13T06:59:49Z    -0.0007      100.0186  4.914881        4.915033        1027.1878  1027.1862  214.986     -1.442                0.0267         0.0096         31.67612  -64.13125  2.3078        2.681         6.3631    6.4212    216.602   36.6549     36.6538     19.1672            19.1718             19.17              19.1746             
InVirTC4     2019-10-13T06:59:49Z    0.0003       99.9923   4.917318        4.917029        1027.192   1027.1913  215.997     0.759                 0.0192         0.0119         31.67576  -64.13044  2.3026        2.6784        6.3499    6.4239    217.621   36.6604     36.659      19.1838            19.1884             19.1825            19.1871             
InVirTC4     2019-10-13T06:59:49Z    -0.0007      100.0168  4.913932        4.914116        1027.1944  1027.191   216.011     -1.249                0.0271         0.0091         31.67612  -64.13124  2.3067        2.6832        6.3614    6.4374    217.635   36.6546     36.6518     19.1581            19.1627             19.163             19.1676             
InVirTC4     2019-10-13T06:59:49Z    -0.0006      100.0155  4.91319         4.912837        1027.2012  1027.1987  217.012     -0.945                0.0263         0.0096         31.67612  -64.13124  2.3054        2.6824        6.3553    6.4334    218.645   36.655      36.6518     19.1501            19.1547             19.1504            19.155              
InVirTC4     2019-10-13T06:59:49Z    0.0002       99.9941   4.916869        4.916587        1027.1979  1027.1972  217.023     0.796                 0.0204         0.0083         31.67578  -64.13042  2.3039        2.684         6.3481    6.4413    218.656   36.6605     36.6592     19.1789            19.1835             19.1777            19.1823             
InVirTC4     2019-10-13T06:59:49Z    0.0002       99.9949   4.91614         4.915879        1027.2032  1027.2025  218.007     0.678                 0.0206         0.0169         31.67578  -64.13044  2.3078        2.6892        6.3684    6.4579    219.647   36.6596     36.6583     19.1726            19.1772             19.1715            19.1761             
InVirTC4     2019-10-13T06:59:49Z    0            100.0003  4.913512        4.912503        1027.204   1027.2045  218.054     -0.598                0.0277         0.0096         31.67612  -64.13124  2.3038        2.6788        6.3487    6.4227    219.695   36.654      36.6521     19.154             19.1586             19.1464            19.151              
InVirTC4     2019-10-13T06:59:49Z    0.0002       99.9932   4.915838        4.915539        1027.2085  1027.2078  218.971     0.717                 0.0218         0.0132         31.67577  -64.13045  2.3099        2.6891        6.3734    6.4506    220.619   36.6597     36.6584     19.1691            19.1737             19.1678            19.1724             
InVirTC4     2019-10-13T06:59:49Z    -0.0007      100.0179  4.913155        4.912612        1027.2089  1027.2077  219.058     -0.498                0.0251         0.0096         31.67612  -64.13124  2.3029        2.6765        6.3504    6.419     220.708   36.6535     36.6511     19.1507            19.1553             19.1482            19.1528             
InVirTC4     2019-10-13T06:59:49Z    -0.0006      100.0143  4.912033        4.912322        1027.2143  1027.2121  219.956     -0.761                0.0224         0.0096         31.6761   -64.13124  2.3004        2.6718        6.344     6.4026    221.612   36.6522     36.6508     19.1411            19.1457             19.1454            19.15               
InVirTC4     2019-10-13T06:59:49Z    0.0002       99.9929   4.915473        4.915203        1027.2142  1027.2136  219.968     0.868                 0.0287         0.0093         31.67576  -64.13046  2.311         2.686         6.3764    6.4275    221.625   36.6601     36.6589     19.1648            19.1694             19.1636            19.1683             
InVirTC4     2019-10-13T06:59:49Z    -0.0007      100.0166  4.910951        4.910713        1027.2191  1027.2178  220.985     -1.031                0.0249         0.0094         31.6761   -64.13124  2.2976        2.6693        6.3274    6.3934    222.65    36.6498     36.648      19.1331            19.1376             19.1329            19.1375             
InVirTC4     2019-10-13T06:59:49Z    0.0002       99.9941   4.91473         4.914432        1027.2195  1027.2188  220.997     1.077                 0.0259         0.0092         31.67576  -64.13046  2.312         2.6903        6.3813    6.4515    222.661   36.659      36.6576     19.1586            19.1632             19.1573            19.1619             
InVirTC4     2019-10-13T06:59:49Z    -0.0007      100.0177  4.908871        4.909126        1027.2263  1027.2242  221.987     -1.175                0.0274         0.0096         31.6761   -64.13124  2.2976        2.6688        6.3344    6.3962    223.659   36.6474     36.646      19.1156            19.1202             19.1196            19.1242             
InVirTC4     2019-10-13T06:59:49Z    -0.0005      100.0114  4.913792        4.913466        1027.2257  1027.2251  222.005     1.304                 0.0236         0.0164         31.67578  -64.13046  2.3128        2.6928        6.3868    6.4758    223.677   36.6583     36.657      19.15              19.1546             19.1484            19.153              
InVirTC4     2019-10-13T06:59:49Z    -0.0008      100.0189  4.907626        4.90799         1027.2325  1027.2302  222.995     -1.163                0.0243         0.0047         31.6761   -64.13123  2.2981        2.6689        6.3343    6.3998    224.675   36.6461     36.6447     19.1048            19.1093             19.1098            19.1143             
InVirTC4     2019-10-13T06:59:49Z    -0.0004      100.0103  4.912678        4.912381        1027.2299  1027.2293  223.012     1.489                 0.0263         0.0146         31.67578  -64.13045  2.3131        2.6938        6.3883    6.4798    224.693   36.6554     36.6542     19.1423            19.1469             19.1408            19.1454             
InVirTC4     2019-10-13T06:59:49Z    -0.0007      100.0187  4.906941        4.907002        1027.2386  1027.2365  224.031     -1.073                0.0234         0.0046         31.6761   -64.13122  2.2972        2.6673        6.3259    6.3826    225.72    36.6458     36.644      19.0981            19.1027             19.1007            19.1053             
InVirTC4     2019-10-13T06:59:49Z    0            99.9995   4.911702        4.911343        1027.2358  1027.2351  224.064     1.477                 0.0231         0.0096         31.67578  -64.13044  2.312         2.6914        6.382     6.4622    225.753   36.6542     36.6527     19.1339            19.1385             19.1322            19.1368             
InVirTC4     2019-10-13T06:59:49Z    -0.0004      100.0109  4.91211         4.911775        1027.2379  1027.2372  224.86      0.47                  0.0223         0.0168         31.67579  -64.13046  2.3067        2.6802        6.3542    6.4111    226.556   36.6538     36.6524     19.1379            19.1425             19.1363            19.1409             
InVirTC4     2019-10-13T06:59:49Z    -0.0007      100.0178  4.906495        4.906047        1027.2425  1027.242   225.023     -0.941                0.023          0.0125         31.6761   -64.13123  2.2983        2.667         6.3315    6.3794    226.72    36.6443     36.6427     19.0952            19.0998             19.0927            19.0973             
InVirTC4     2019-10-13T06:59:49Z    -0.0002      100.0037  4.909061        4.909209        1027.2467  1027.2457  225.955     0.573                 0.029          0.0084         31.67578  -64.13048  2.3018        2.6746        6.34      6.4085    227.659   36.6503     36.6497     19.1124            19.117              19.1145            19.1191             
InVirTC4     2019-10-13T06:59:49Z    -0.0008      100.0201  4.906505        4.905996        1027.2483  1027.2471  226.036     -0.745                0.024          0.0213         31.6761   -64.13124  2.301         2.6718        6.3433    6.3962    227.741   36.6454     36.6431     19.0936            19.0981             19.0913            19.0959             
InVirTC4     2019-10-13T06:59:49Z    0.0003       99.9924   4.909071        4.908819        1027.2519  1027.2512  226.981     1.062                 0.0256         0.013          31.67578  -64.13048  2.3009        2.6724        6.3405    6.3993    228.694   36.6509     36.6496     19.1114            19.116              19.1104            19.115              
InVirTC4     2019-10-13T06:59:49Z    -0.0008      100.0193  4.90678         4.905962        1027.2518  1027.2512  227.035     -0.498                0.0252         0.0047         31.6761   -64.13123  2.3027        2.6761        6.3397    6.4115    228.749   36.6452     36.6427     19.096             19.1006             19.0911            19.0956             
InVirTC4     2019-10-13T06:59:49Z    -0.0006      100.0161  4.906257        4.905702        1027.2572  1027.2561  227.963     -0.694                0.029          0.0116         31.6761   -64.13123  2.3096        2.6817        6.3779    6.438     229.684   36.6451     36.6428     19.0907            19.0953             19.0881            19.0926             
InVirTC4     2019-10-13T06:59:49Z    0.0002       99.9941   4.907984        4.907714        1027.2598  1027.2589  227.983     1.411                 0.0239         0.0169         31.67578  -64.13047  2.2993        2.6716        6.3388    6.3994    229.704   36.6515     36.65       19.0999            19.1045             19.099             19.1036             
InVirTC4     2019-10-13T06:59:49Z    -0.0007      100.0171  4.905745        4.905362        1027.2634  1027.2624  228.917     -1.239                0.029          0.0051         31.6761   -64.1312   2.3119        2.684         6.3867    6.4441    230.646   36.6457     36.6439     19.0848            19.0894             19.0832            19.0878             
InVirTC4     2019-10-13T06:59:49Z    -0.0004      100.0092  4.90592         4.905635        1027.2648  1027.2642  229.032     1.596                 0.0265         0.0058         31.67578  -64.13046  2.2984        2.6707        6.337     6.4021    230.762   36.647      36.6457     19.085             19.0896             19.0837            19.0882             
InVirTC4     2019-10-13T06:59:49Z    -0.0007      100.0187  4.905522        4.905298        1027.2693  1027.2679  229.973     -1.216                0.0226         0.0108         31.6761   -64.13122  2.3122        2.6827        6.3892    6.4342    231.71    36.6462     36.6444     19.0816            19.0862             19.0816            19.0861             
InVirTC4     2019-10-13T06:59:49Z    -0.0006      100.0143  4.905857        4.905582        1027.2692  1027.2682  230.113     1.16                  0.0247         0.007          31.6758   -64.13046  2.2966        2.6709        6.3332    6.4089    231.852   36.6464     36.6448     19.0846            19.0892             19.0838            19.0884             
InVirTC4     2019-10-13T06:59:49Z    -0.0007      100.0167  4.906343        4.90621         1027.2729  1027.2714  230.908     0.405                 0.0247         0.0126         31.67579  -64.13047  2.2951        2.668         6.3307    6.3972    232.653   36.6476     36.6459     19.0875            19.0921             19.0882            19.0927             
InVirTC4     2019-10-13T06:59:49Z    -0.0008      100.0188  4.905304        4.90525         1027.276   1027.274   231.019     -1.02                 0.0251         0.0169         31.6761   -64.13122  2.3139        2.6857        6.4034    6.4577    232.765   36.6476     36.6456     19.0775            19.0821             19.0793            19.0838             
InVirTC4     2019-10-13T06:59:49Z    -0.0007      100.0179  4.906912        4.906604        1027.2806  1027.2798  231.957     0.624                 0.0203         0.0096         31.67578  -64.13048  2.2958        2.6677        6.339     6.4002    233.71    36.6517     36.6502     19.0878            19.0923             19.0865            19.0911             
InVirTC4     2019-10-13T06:59:49Z    -0.0008      100.0201  4.905072        4.904888        1027.2812  1027.2795  232.018     -0.806                0.027          0.0103         31.67609  -64.13121  2.3144        2.6882        6.4072    6.4695    233.772   36.6478     36.6457     19.0747            19.0793             19.0753            19.0799             
InVirTC4     2019-10-13T06:59:49Z    -0.0006      100.0146  4.906756        4.906464        1027.2856  1027.285   232.951     0.923                 0.018          0.0169         31.67578  -64.13048  2.298         2.6696        6.35      6.4126    234.712   36.6519     36.6507     19.0857            19.0902             19.0843            19.0888             
InVirTC4     2019-10-13T06:59:49Z    -0.0008      100.0193  4.90506         4.905086        1027.2852  1027.284   232.987     -0.677                0.0237         0.0039         31.67608  -64.13123  2.3133        2.6859        6.4049    6.4558    234.749   36.6473     36.6463     19.0746            19.0792             19.076             19.0806             
InVirTC4     2019-10-13T06:59:49Z    -0.0016      100.0398  4.90403         4.904266        1027.2918  1027.2886  233.955     -0.918                0.0183         0.0155         31.67608  -64.13121  2.3122        2.6868        6.4025    6.4664    235.725   36.6471     36.6446     19.0648            19.0693             19.0698            19.0743             
InVirTC4     2019-10-13T06:59:49Z    -0.0004      100.0109  4.906601        4.906307        1027.2909  1027.2901  233.969     1.185                 0.0245         0.0117         31.6758   -64.13048  2.3004        2.6748        6.3658    6.4365    235.739   36.6522     36.6507     19.0834            19.088              19.0823            19.0868             
InVirTC4     2019-10-13T06:59:49Z    -0.0016      100.0418  4.903121        4.902951        1027.2982  1027.2959  234.978     -1.039                0.0166         0.0129         31.67609  -64.1312   2.3106        2.6858        6.3956    6.4615    236.756   36.6466     36.6441     19.0561            19.0607             19.0574            19.062              
InVirTC4     2019-10-13T06:59:49Z    -0.0007      100.0187  4.905919        4.905634        1027.2971  1027.2963  234.994     1.363                 0.0231         0.0092         31.6758   -64.13048  2.3042        2.6828        6.3848    6.4764    236.772   36.6521     36.6507     19.0766            19.0812             19.0754            19.08               
InVirTC4     2019-10-13T06:59:49Z    -0.0017      100.0426  4.903061        4.902897        1027.3022  1027.3001  236.017     -0.812                0.0175         0.0023         31.6761   -64.13119  2.3106        2.6845        6.4003    6.4567    237.804   36.6459     36.6435     19.056             19.0605             19.0571            19.0617             
InVirTC4     2019-10-13T06:59:49Z    -0.0007      100.0177  4.90536         4.905087        1027.3024  1027.3017  236.042     1.369                 0.027          0.0096         31.6758   -64.13048  2.3076        2.6884        6.4029    6.5009    237.829   36.6514     36.6501     19.0716            19.0762             19.0705            19.0751             
InVirTC4     2019-10-13T06:59:49Z    -0.0017      100.0427  4.903021        4.902524        1027.3073  1027.3057  237.038     -0.565                0.0223         0.0023         31.67609  -64.1312   2.3101        2.6857        6.398     6.4609    238.833   36.6463     36.6436     19.0547            19.0593             19.053             19.0576             
InVirTC4     2019-10-13T06:59:49Z    -0.0012      100.0293  4.904974        4.904666        1027.3069  1027.3063  237.069     1.056                 0.0257         0.0165         31.6758   -64.13048  2.3099        2.6888        6.4027    6.4822    238.864   36.6504     36.6491     19.0687            19.0732             19.0672            19.0718             
InVirTC4     2019-10-13T06:59:49Z    -0.0013      100.0328  4.904412        4.90417         1027.3116  1027.3109  237.959     0.549                 0.0245         0.0118         31.6758   -64.13049  2.3132        2.6887        6.4145    6.4718    239.762   36.6496     36.6484     19.0637            19.0683             19.0628            19.0674             
InVirTC4     2019-10-13T06:59:49Z    -0.0017      100.0439  4.90289         4.902322        1027.3112  1027.31    237.998     -0.619                0.0243         0.0023         31.67608  -64.13122  2.3091        2.687         6.3938    6.469     239.801   36.6455     36.6431     19.0539            19.0585             19.0513            19.0558             
InVirTC4     2019-10-13T06:59:49Z    -0.0017      100.0429  4.902111        4.901665        1027.3164  1027.3151  238.924     -1.187                0.025          0.0112         31.67608  -64.13122  2.3092        2.6869        6.4006    6.4719    240.734   36.6447     36.6425     19.0471            19.0516             19.0453            19.0499             
InVirTC4     2019-10-13T06:59:49Z    -0.0017      100.0431  4.903195        4.902922        1027.318   1027.3173  238.953     0.602                 0.0271         0.004          31.6758   -64.1305   2.314         2.686         6.4112    6.4605    240.764   36.6487     36.6474     19.0529            19.0574             19.0517            19.0563             
InVirTC4     2019-10-13T06:59:49Z    -0.0014      100.0365  4.901343        4.901165        1027.3226  1027.3209  239.952     -1.403                0.0218         0.0169         31.67608  -64.1312   2.3069        2.6864        6.3817    6.4678    241.771   36.6444     36.6424     19.0397            19.0442             19.0402            19.0448             
InVirTC4     2019-10-13T06:59:49Z    -0.0015      100.0393  4.902748        4.902467        1027.3233  1027.3225  240.006     0.876                 0.0244         0.0169         31.6758   -64.1305   2.3134        2.6872        6.4124    6.4695    241.825   36.6481     36.6467     19.0487            19.0533             19.0476            19.0522             
InVirTC4     2019-10-13T06:59:49Z    -0.0009      100.0216  4.901006        4.900707        1027.3278  1027.3257  240.979     -1.228                0.0185         0.0096         31.67608  -64.1312   2.3058        2.6859        6.3802    6.4642    242.805   36.6442     36.6415     19.0362            19.0408             19.0364            19.041              
InVirTC4     2019-10-13T06:59:49Z    -0.0008      100.0213  4.902451        4.902181        1027.3284  1027.3278  241.039     1.072                 0.0231         0.0169         31.6758   -64.1305   2.3119        2.6865        6.4004    6.4721    242.867   36.6479     36.6466     19.0458            19.0504             19.0446            19.0492             
InVirTC4     2019-10-13T06:59:49Z    -0.0007      100.0177  4.902295        4.902011        1027.3328  1027.3322  242.01      1.128                 0.0206         0.0169         31.67581  -64.13049  2.3116        2.6869        6.4012    6.4712    243.845   36.6475     36.6463     19.0442            19.0488             19.0429            19.0475             
InVirTC4     2019-10-13T06:59:49Z    -0.0018      100.0461  4.900834        4.900474        1027.3329  1027.3314  242.018     -0.899                0.019          0.0092         31.67608  -64.1312   2.3081        2.6864        6.4009    6.4746    243.854   36.6442     36.6419     19.0341            19.0387             19.0333            19.0379             
InVirTC4     2019-10-13T06:59:49Z    -0.0011      100.028   4.902237        4.901948        1027.3373  1027.3366  243.016     0.946                 0.0212         0.0112         31.67582  -64.13048  2.312         2.6854        6.4085    6.4667    244.86    36.6473     36.6461     19.0435            19.0481             19.0422            19.0467             
InVirTC4     2019-10-13T06:59:49Z    -0.0017      100.043   4.900942        4.900442        1027.3366  1027.3357  243.048     -0.504                0.0205         0.0116         31.67608  -64.13118  2.3086        2.6881        6.4038    6.4918    244.892   36.6435     36.6415     19.0355            19.0401             19.033             19.0375             
InVirTC4     2019-10-13T06:59:49Z    -0.0015      100.0372  4.902038        4.90177         1027.3419  1027.3413  243.969     0.637                 0.024          0.0069         31.67581  -64.13049  2.3134        2.6872        6.4177    6.4783    245.82    36.6472     36.646      19.0413            19.0459             19.0401            19.0447             
InVirTC4     2019-10-13T06:59:49Z    -0.0017      100.0439  4.901014        4.900708        1027.3411  1027.3396  244.005     -0.663                0.0199         0.01           31.67607  -64.13119  2.3056        2.6821        6.3899    6.473     245.856   36.6439     36.6417     19.0353            19.0399             19.0348            19.0394             
InVirTC4     2019-10-13T06:59:49Z    -0.0018      100.045   4.900242        4.899707        1027.346   1027.345   244.974     -1.32                 0.0202         0.0061         31.67606  -64.1312   2.3052        2.675         6.3937    6.4428    246.834   36.6426     36.6404     19.029             19.0336             19.0264            19.031              
InVirTC4     2019-10-13T06:59:49Z    -0.0015      100.0391  4.901693        4.901413        1027.3473  1027.3467  245.01      0.723                 0.024          0.0057         31.6758   -64.13051  2.3133        2.6887        6.4177    6.4853    246.87    36.6471     36.6458     19.0378            19.0424             19.0365            19.0411             
InVirTC4     2019-10-13T06:59:49Z    -0.0017      100.0432  4.899528        4.899209        1027.3521  1027.3491  246.02      -1.256                0.0258         0.0096         31.67607  -64.1312   2.3035        2.6746        6.3817    6.4433    247.888   36.6422     36.6387     19.0222            19.0268             19.0232            19.0278             
InVirTC4     2019-10-13T06:59:49Z    -0.0008      100.0189  4.901531        4.901239        1027.3522  1027.3515  246.028     0.946                 0.0167         0.0124         31.6758   -64.13052  2.3107        2.6889        6.3988    6.4855    247.896   36.647      36.6456     19.0359            19.0404             19.0347            19.0392             
InVirTC4     2019-10-13T06:59:49Z    -0.0008      100.0189  4.901477        4.901197        1027.3567  1027.3561  247.004     1.086                 0.0189         0.0169         31.67581  -64.13052  2.3096        2.6899        6.3959    6.4877    248.881   36.6469     36.6457     19.035             19.0396             19.0337            19.0383             
InVirTC4     2019-10-13T06:59:49Z    -0.0017      100.043   4.899413        4.898549        1027.3565  1027.3558  247.007     -1.011                0.0279         0.0096         31.67608  -64.1312   2.3026        2.6742        6.3822    6.4374    248.883   36.6419     36.6393     19.0211            19.0256             19.0158            19.0204             
InVirTC4     2019-10-13T06:59:49Z    -0.0018      100.0449  4.898347        4.89753         1027.3607  1027.3611  248.007     -0.646                0.0259         0.0149         31.67608  -64.13118  2.3033        2.6737        6.3923    6.4353    249.892   36.6391     36.6376     19.0136            19.0182             19.0075            19.0121             
InVirTC4     2019-10-13T06:59:49Z    -0.0006      100.0161  4.90125         4.900957        1027.3616  1027.3609  248.018     1.096                 0.0211         0.0169         31.67582  -64.1305   2.3065        2.6915        6.3835    6.4985    249.903   36.6468     36.6454     19.0326            19.0372             19.0314            19.0359             
InVirTC4     2019-10-13T06:59:49Z    -0.0015      100.0374  4.901069        4.900778        1027.366   1027.3654  249.023     0.992                 0.0205         0.0169         31.67582  -64.13048  2.3092        2.6878        6.4053    6.4784    250.916   36.6463     36.645      19.031             19.0356             19.0297            19.0343             
InVirTC4     2019-10-13T06:59:49Z    -0.0018      100.0451  4.898286        4.897556        1027.368   1027.3665  249.107     -0.384                0.0238         0.0108         31.67608  -64.13118  2.3011        2.676         6.3908    6.4657    251       36.6412     36.6381     19.0102            19.0147             19.0068            19.0114             
InVirTC4     2019-10-13T06:59:49Z    -0.0017      100.0426  4.89885         4.898283        1027.3696  1027.3687  249.931     -0.917                0.0268         0.0034         31.67606  -64.13119  2.2947        2.667         6.37      6.4318    251.831   36.6405     36.6383     19.016             19.0205             19.0131            19.0176             
InVirTC4     2019-10-13T06:59:49Z    -0.0015      100.0385  4.900936        4.900644        1027.3707  1027.3701  250.066     0.927                 0.0199         0.015          31.67582  -64.13051  2.3111        2.6867        6.4207    6.4722    251.967   36.646      36.6446     19.0296            19.0342             19.0284            19.0329             
InVirTC4     2019-10-13T06:59:49Z    -0.0017      100.0422  4.900687        4.900408        1027.3748  1027.3741  250.931     0.55                  0.0213         0.0051         31.67582  -64.13052  2.31          2.6861        6.4074    6.4789    252.839   36.6455     36.6442     19.0274            19.0319             19.0262            19.0308             
InVirTC4     2019-10-13T06:59:49Z    -0.0018      100.0449  4.89761         4.897049        1027.3751  1027.3731  250.951     -1.558                0.0225         0.0086         31.67606  -64.1312   2.2895        2.6621        6.3436    6.4213    252.86    36.6385     36.6353     19.006             19.0106             19.0044            19.0089             
InVirTC4     2019-10-13T06:59:49Z    -0.0015      100.0387  4.900495        4.900214        1027.3798  1027.3791  251.94      0.614                 0.0292         0.0096         31.67582  -64.13052  2.3105        2.6844        6.4135    6.4678    253.857   36.6455     36.6442     19.0252            19.0297             19.024             19.0285             
InVirTC4     2019-10-13T06:59:49Z    -0.0018      100.0461  4.896694        4.895465        1027.3805  1027.3813  251.981     -1.653                0.0224         0.0237         31.67608  -64.13118  2.2872        2.6618        6.3335    6.4147    253.899   36.6371     36.6349     18.9985            19.0031             18.9892            18.9938             
InVirTC4     2019-10-13T06:59:49Z    -0.0017      100.0429  4.900359        4.900061        1027.3846  1027.3839  252.989     1.006                 0.0281         0.0023         31.67582  -64.13053  2.3108        2.6853        6.4174    6.4799    254.914   36.6453     36.6439     19.0237            19.0282             19.0224            19.027              
InVirTC4     2019-10-13T06:59:49Z    -0.0016      100.0405  4.89581         4.894717        1027.3859  1027.3866  252.997     -1.493                0.0227         0.0179         31.67608  -64.13117  2.2873        2.6584        6.3333    6.3902    254.922   36.6358     36.6339     18.9911            18.9956             18.9829            18.9874             
InVirTC4     2019-10-13T06:59:49Z    -0.0017      100.0424  4.900148        4.899865        1027.3895  1027.3888  254.011     1.36                  0.0274         0.0028         31.67582  -64.13053  2.3098        2.6858        6.4116    6.4853    255.944   36.6451     36.6437     19.0214            19.026              19.0203            19.0248             
InVirTC4     2019-10-13T06:59:49Z    -0.0017      100.0426  4.894599        4.89396         1027.3913  1027.3917  254.021     -1.196                0.028          0.0169         31.67608  -64.13116  2.2871        2.6566        6.3331    6.385     255.955   36.6337     36.6326     18.9815            18.986              18.9766            18.9812             
InVirTC4     2019-10-13T06:59:49Z    -0.0016      100.04    4.899333        4.899058        1027.3953  1027.3947  255.026     1.577                 0.0213         0.0096         31.67584  -64.1305   2.3084        2.6877        6.4038    6.4945    256.968   36.6443     36.6431     19.0141            19.0187             19.0129            19.0174             
InVirTC4     2019-10-13T06:59:49Z    -0.0017      100.043   4.893808        4.893483        1027.398   1027.3968  255.048     -0.747                0.0305         0.0087         31.67608  -64.13116  2.2871        2.6603        6.3367    6.4064    256.99    36.6338     36.6319     18.9735            18.978              18.9724            18.977              
InVirTC4     2019-10-13T06:59:49Z    -0.0009      100.0231  4.898699        4.898416        1027.4001  1027.3995  256.069     1.447                 0.0188         0.0147         31.67584  -64.13052  2.3055        2.6867        6.3906    6.4912    258.02    36.643      36.6417     19.0092            19.0137             19.0079            19.0125             
InVirTC4     2019-10-13T06:59:49Z    -0.0017      100.0431  4.89378         4.893316        1027.4049  1027.4031  256.313     -0.323                0.0228         0.0093         31.67606  -64.13117  2.2871        2.662         6.3435    6.4268    258.265   36.6349     36.6321     18.9714            18.9759             18.9701            18.9746             
InVirTC4     2019-10-13T06:59:49Z    -0.0014      100.0364  4.894021        4.894522        1027.4058  1027.4029  256.923     -1.719                0.0244         0.0111         31.67606  -64.13117  2.2851        2.6552        6.3381    6.395     258.88    36.6337     36.6322     18.9747            18.9792             18.9812            18.9858             
InVirTC4     2019-10-13T06:59:49Z    -0.0015      100.0383  4.897744        4.897679        1027.4055  1027.4046  256.984     0.701                 0.0217         0.0169         31.67584  -64.13051  2.3027        2.6809        6.3828    6.4604    258.943   36.6419     36.6409     19.0008            19.0054             19.0014            19.006              
InVirTC4     2019-10-13T06:59:49Z    -0.0014      100.036   4.895339        4.895115        1027.413   1027.4124  257.979     0.554                 0.0292         0.0115         31.67584  -64.13055  2.3009        2.6771        6.3852    6.455     259.945   36.6391     36.638      18.9807            18.9853             18.9799            18.9844             
InVirTC4     2019-10-13T06:59:49Z    -0.0018      100.0461  4.892377        4.892249        1027.4139  1027.4117  258.012     -1.816                0.0244         0.0169         31.67606  -64.13116  2.2836        2.654         6.3258    6.3874    259.978   36.6329     36.6305     18.9595            18.9641             18.961             18.9656             
InVirTC4     2019-10-13T06:59:49Z    -0.0015      100.0385  4.893901        4.89367         1027.4189  1027.4182  258.989     0.788                 0.028          0.0157         31.67582  -64.13054  2.2964        2.6738        6.3636    6.4506    260.964   36.637      36.6358     18.9689            18.9735             18.9681            18.9726             
InVirTC4     2019-10-13T06:59:49Z    -0.0016      100.0418  4.891899        4.891569        1027.4191  1027.4179  259.079     -1.614                0.025          0.0132         31.67606  -64.13116  2.2825        2.6543        6.3208    6.3939    261.054   36.6322     36.6302     18.9553            18.9599             18.9544            18.9589             
InVirTC4     2019-10-13T06:59:49Z    -0.0016      100.0406  4.893344        4.893068        1027.4232  1027.4226  259.997     1.018                 0.0245         0.0115         31.67582  -64.13054  2.2929        2.6697        6.3463    6.4304    261.98    36.6355     36.6343     18.9649            18.9694             18.9637            18.9682             
InVirTC4     2019-10-13T06:59:49Z    -0.0017      100.0441  4.891539        4.891401        1027.4245  1027.422   260.063     -1.307                0.028          0.0096         31.67606  -64.13115  2.2828        2.6561        6.3274    6.4066    262.046   36.6322     36.6295     18.9514            18.956              18.9531            18.9577             
InVirTC4     2019-10-13T06:59:49Z    -0.0013      100.0343  4.893078        4.892808        1027.4279  1027.4272  260.993     1.154                 0.0251         0.0093         31.67584  -64.13056  2.2902        2.6634        6.3411    6.4076    262.984   36.6351     36.6338     18.9624            18.967              18.9613            18.9658             
InVirTC4     2019-10-13T06:59:49Z    -0.0018      100.0461  4.891316        4.890737        1027.4293  1027.4275  261.039     -0.933                0.0301         0.0091         31.67606  -64.13114  2.2846        2.6581        6.3407    6.4158    263.03    36.6321     36.629      18.949             18.9535             18.9469            18.9515             
InVirTC4     2019-10-13T06:59:49Z    -0.0012      100.0295  4.893397        4.893089        1027.433   1027.4323  262.022     1.127                 0.0259         0.0093         31.67584  -64.13052  2.2884        2.6605        6.3383    6.3997    264.022   36.6363     36.6349     18.9637            18.9682             18.9623            18.9669             
InVirTC4     2019-10-13T06:59:49Z    -0.0017      100.0437  4.891019        4.890516        1027.434   1027.4331  262.035     -0.468                0.0306         0.0096         31.67606  -64.13116  2.2849        2.6572        6.3422    6.4134    264.035   36.6316     36.6296     18.9463            18.9509             18.9438            18.9484             
InVirTC4     2019-10-13T06:59:49Z    -0.0013      100.0335  4.892914        4.892633        1027.4389  1027.4381  263.019     0.963                 0.0214         0.0093         31.67584  -64.13052  2.285         2.6622        6.3297    6.4262    265.027   36.6365     36.6351     18.9584            18.963              18.9573            18.9619             
InVirTC4     2019-10-13T06:59:49Z    -0.0017      100.0441  4.891472        4.890925        1027.4381  1027.4368  263.022     -0.492                0.0249         0.012          31.67605  -64.13116  2.2836        2.6555        6.3403    6.4143    265.03    36.6323     36.6298     18.9494            18.9539             18.947             18.9516             
InVirTC4     2019-10-13T06:59:49Z    -0.0018      100.0451  4.890723        4.889667        1027.4422  1027.4414  263.955     -1.312                0.0278         0.0166         31.67606  -64.13116  2.2805        2.6503        6.3328    6.3898    265.971   36.6305     36.6273     18.9439            18.9485             18.9375            18.9421             
InVirTC4     2019-10-13T06:59:49Z    -0.001       100.0257  4.892486        4.892206        1027.4438  1027.4432  264.006     0.84                  0.0237         0.0127         31.67584  -64.13054  2.2855        2.6621        6.3373    6.4282    266.022   36.6359     36.6347     18.9545            18.9591             18.9533            18.9578             
InVirTC4     2019-10-13T06:59:49Z    -0.0017      100.043   4.889153        4.888987        1027.448   1027.4471  264.996     -1.32                 0.0251         0.0096         31.67606  -64.13114  2.2788        2.6494        6.3221    6.394     267.021   36.6279     36.6266     18.9315            18.936              18.9313            18.9358             
InVirTC4     2019-10-13T06:59:49Z    -0.0014      100.0357  4.892171        4.891903        1027.4486  1027.4479  265.006     0.911                 0.0241         0.014          31.67584  -64.13055  2.2877        2.6619        6.3585    6.4266    267.031   36.6355     36.6342     18.9516            18.9562             18.9505            18.9551             
InVirTC4     2019-10-13T06:59:49Z    -0.0014      100.0352  4.891396        4.891147        1027.4544  1027.4538  265.98      1.082                 0.0224         0.0096         31.67584  -64.13056  2.2885        2.6611        6.363     6.4248    268.013   36.635      36.6338     18.9444            18.9489             18.9433            18.9479             
InVirTC4     2019-10-13T06:59:49Z    -0.0017      100.0429  4.888046        4.887634        1027.4542  1027.4533  266         -1.113                0.0218         0.0132         31.67606  -64.13114  2.2776        2.6515        6.3221    6.4068    268.034   36.6268     36.6251     18.9217            18.9263             18.9197            18.9243             
InVirTC4     2019-10-13T06:59:49Z    -0.0017      100.0435  4.887863        4.887274        1027.4601  1027.4591  266.983     -0.809                0.0251         0.0158         31.67606  -64.13114  2.278         2.6501        6.3336    6.4048    269.024   36.6279     36.6255     18.9184            18.9229             18.9154            18.9199             
InVirTC4     2019-10-13T06:59:49Z    -0.0015      100.0383  4.890246        4.889998        1027.4602  1027.4596  266.994     1.225                 0.0203         0.0096         31.67584  -64.13056  2.2879        2.6599        6.3572    6.4204    269.035   36.6335     36.6323     18.9347            18.9392             18.9337            18.9382             
InVirTC4     2019-10-13T06:59:49Z    -0.0017      100.0429  4.888017        4.887556        1027.4637  1027.4627  268.058     -0.445                0.0246         0.0074         31.67605  -64.13114  2.2762        2.6483        6.3257    6.4082    270.107   36.6271     36.625      18.9203            18.9248             18.9182            18.9227             
InVirTC4     2019-10-13T06:59:49Z    -0.0015      100.0382  4.889575        4.889308        1027.4653  1027.4647  268.076     1.126                 0.0239         0.0151         31.67586  -64.13056  2.285         2.66          6.3393    6.4262    270.126   36.6321     36.6309     18.9294            18.9339             18.9282            18.9327             
InVirTC4     2019-10-13T06:59:49Z    -0.0015      100.0372  4.887529        4.886962        1027.4683  1027.467   268.9       -0.953                0.021          0.0028         31.67604  -64.13116  2.2719        2.6415        6.3094    6.3859    270.957   36.6267     36.6241     18.9157            18.9202             18.9132            18.9177             
InVirTC4     2019-10-13T06:59:49Z    -0.0016      100.0415  4.889197        4.889092        1027.4691  1027.4682  268.938     0.47                  0.0212         0.0095         31.67586  -64.13055  2.2842        2.653         6.3425    6.3961    270.995   36.6311     36.6301     18.9265            18.9311             18.9267            18.9312             
InVirTC4     2019-10-13T06:59:49Z    -0.0015      100.0374  4.888899        4.888618        1027.4743  1027.4737  269.942     0.532                 0.0205         0.0096         31.67584  -64.13058  2.282         2.6515        6.332     6.4001    272.007   36.6312     36.6298     18.9232            18.9278             18.922             18.9266             
InVirTC4     2019-10-13T06:59:49Z    -0.0014      100.0357  4.884877        4.884773        1027.4748  1027.4747  269.991     -1.269                0.0226         0.0096         31.67604  -64.13115  2.2698        2.6361        6.3042    6.3619    272.057   36.6219     36.6216     18.8953            18.8998             18.8947            18.8992             
InVirTC4     2019-10-13T06:59:49Z    -0.0009      100.0216  4.8882          4.887933        1027.4805  1027.4798  270.98      0.937                 0.0171         0.0096         31.67584  -64.13058  2.2805        2.6517        6.3273    6.4042    273.054   36.631      36.6296     18.9163            18.9209             18.9153            18.9198             
InVirTC4     2019-10-13T06:59:49Z    -0.0017      100.0447  4.883602        4.883829        1027.4823  1027.4809  271.009     -1.081                0.0237         0.023          31.67604  -64.13113  2.2683        2.6337        6.3032    6.3518    273.084   36.6217     36.6209     18.883             18.8875             18.886             18.8905             
InVirTC4     2019-10-13T06:59:49Z    -0.0018      100.0461  4.887359        4.8871          1027.4861  1027.4854  272.004     1.271                 0.0157         0.0091         31.67584  -64.13058  2.2789        2.6501        6.3223    6.4005    274.087   36.6299     36.6286     18.9091            18.9136             18.9081            18.9126             
InVirTC4     2019-10-13T06:59:49Z    -0.0018      100.0448  4.883169        4.883067        1027.4877  1027.4873  272.006     -0.789                0.0234         0.0158         31.67604  -64.13112  2.2677        2.6344        6.3035    6.3605    274.089   36.6215     36.6209     18.8786            18.8831             18.8783            18.8828             
InVirTC4     2019-10-13T06:59:49Z    -0.0017      100.0429  4.886911        4.886645        1027.4912  1027.4905  273.029     1.504                 0.0197         0.0091         31.67584  -64.13058  2.2786        2.6512        6.3234    6.4046    275.12    36.6293     36.628      18.9051            18.9096             18.904             18.9086             
InVirTC4     2019-10-13T06:59:49Z    -0.0017      100.0446  4.883713        4.883651        1027.4923  1027.4899  273.063     -0.538                0.0211         0.0096         31.67604  -64.13112  2.2649        2.6348        6.2874    6.367     275.155   36.6227     36.6203     18.882             18.8865             18.8842            18.8887             
InVirTC4     2019-10-13T06:59:49Z    -0.0018      100.0449  4.883313        4.882664        1027.4956  1027.4947  273.97      -0.803                0.0244         0.0096         31.67604  -64.13114  2.2637        2.6319        6.2824    6.3517    276.07    36.621      36.6186     18.8797            18.8842             18.8762            18.8808             
InVirTC4     2019-10-13T06:59:49Z    -0.0017      100.0429  4.88626         4.886083        1027.4968  1027.4959  274.036     1.576                 0.0231         0.0096         31.67586  -64.13058  2.2793        2.6513        6.3322    6.4097    276.136   36.6288     36.6275     18.899             18.9035             18.8987            18.9033             
InVirTC4     2019-10-13T06:59:49Z    -0.0017      100.0432  4.884669        4.884407        1027.5028  1027.5021  275.007     1.505                 0.0205         0.0096         31.67586  -64.13058  2.2789        2.6491        6.3374    6.4034    277.116   36.6266     36.6253     18.8859            18.8905             18.8848            18.8894             
InVirTC4     2019-10-13T06:59:49Z    -0.0018      100.0451  4.881352        4.880904        1027.5029  1027.5022  275.013     -1.039                0.022          0.0125         31.67604  -64.13114  2.2633        2.6317        6.2873    6.3568    277.121   36.6189     36.6172     18.863             18.8675             18.8606            18.8652             
InVirTC4     2019-10-13T06:59:49Z    -0.0017      100.0438  4.879796        4.880141        1027.5104  1027.5081  276.018     -1.064                0.0224         0.0121         31.67604  -64.13114  2.2635        2.6327        6.2883    6.3666    278.134   36.6181     36.6167     18.8486            18.8532             18.8535            18.858              
InVirTC4     2019-10-13T06:59:49Z    -0.0016      100.0413  4.88367         4.883381        1027.5083  1027.5076  276.04      1.287                 0.0174         0.0064         31.67587  -64.13058  2.2775        2.6489        6.3299    6.4006    278.157   36.6251     36.6237     18.8776            18.8822             18.8765            18.881              
InVirTC4     2019-10-13T06:59:49Z    -0.0009      100.0225  4.879999        4.87958         1027.5134  1027.5126  276.998     -1.045                0.0203         0.003          31.67604  -64.13113  2.2618        2.6312        6.2789    6.3585    279.123   36.6172     36.6155     18.8511            18.8557             18.8491            18.8536             
InVirTC4     2019-10-13T06:59:49Z    -0.0016      100.0422  4.883629        4.883357        1027.5129  1027.512   277.061     0.538                 0.0252         0.0099         31.67587  -64.13058  2.2733        2.6407        6.3101    6.3695    279.186   36.6249     36.6235     18.877             18.8815             18.876             18.8806             
InVirTC4     2019-10-13T06:59:49Z    -0.0016      100.0398  4.882927        4.882664        1027.5179  1027.5172  277.952     0.401                 0.0283         0.0041         31.67586  -64.1306   2.2699        2.6353        6.3023    6.3601    280.084   36.6243     36.623      18.8706            18.8752             18.8696            18.8741             
InVirTC4     2019-10-13T06:59:49Z    -0.0016      100.0416  4.879136        4.879023        1027.521   1027.5189  277.994     -0.919                0.0209         0.0096         31.67604  -64.13112  2.2624        2.6298        6.2866    6.3497    280.126   36.6181     36.6159     18.8414            18.8459             18.8429            18.8474             
InVirTC4     2019-10-13T06:59:49Z    -0.0014      100.0357  4.881384        4.881134        1027.5249  1027.5241  279.007     0.841                 0.0218         0.0096         31.67586  -64.13059  2.2687        2.6343        6.3011    6.3618    281.148   36.6228     36.6214     18.8572            18.8617             18.8563            18.8608             
InVirTC4     2019-10-13T06:59:49Z    -0.0017      100.0431  4.879598        4.879097        1027.525   1027.5234  279.013     -0.673                0.0175         0.0023         31.67604  -64.13113  2.2622        2.6299        6.2827    6.3512    281.154   36.6186     36.616      18.8449            18.8494             18.8431            18.8476             
InVirTC4     2019-10-13T06:59:49Z    -0.0014      100.0364  4.880047        4.879786        1027.5304  1027.5298  280.005     1.149                 0.0211         0.0096         31.67586  -64.13058  2.2682        2.6329        6.3024    6.3596    282.155   36.6206     36.6194     18.8465            18.851              18.8454            18.8499             
InVirTC4     2019-10-13T06:59:49Z    -0.0017      100.0424  4.879894        4.879383        1027.5287  1027.5275  280.045     -0.575                0.0198         0.0023         31.67604  -64.13113  2.2624        2.632         6.2906    6.3663    282.194   36.6185     36.6161     18.8474            18.8519             18.8452            18.8497             
InVirTC4     2019-10-13T06:59:49Z    -0.0017      100.0447  4.879815        4.879036        1027.5329  1027.5324  280.958     -0.821                0.0208         0.0074         31.67602  -64.13112  2.2607        2.6307        6.2795    6.3636    283.116   36.6183     36.6161     18.8464            18.8509             18.8415            18.846              
InVirTC4     2019-10-13T06:59:49Z    -0.0017      100.0432  4.879555        4.879283        1027.5345  1027.5339  281.011     1.34                  0.0276         0.0096         31.67586  -64.1306   2.2667        2.6325        6.2984    6.3594    283.17    36.619      36.6178     18.8431            18.8477             18.8419            18.8464             
InVirTC4     2019-10-13T06:59:49Z    -0.0017      100.0442  4.879021        4.878745        1027.5389  1027.5363  281.999     -1.08                 0.0245         0.0161         31.67602  -64.13112  2.2613        2.628         6.2865    6.3536    284.166   36.6178     36.6146     18.839             18.8435             18.8399            18.8445             
InVirTC4     2019-10-13T06:59:49Z    -0.0014      100.0364  4.880046        4.879758        1027.5397  1027.5392  282.038     1.428                 0.0294         0.0096         31.67588  -64.1306   2.2654        2.6299        6.2911    6.3517    284.205   36.6207     36.6196     18.8454            18.85               18.844             18.8485             
InVirTC4     2019-10-13T06:59:49Z    -0.0017      100.0426  4.877856        4.876271        1027.5427  1027.5431  282.98      -1.298                0.024          0.0096         31.67602  -64.13112  2.2604        2.6279        6.2831    6.3571    285.154   36.6145     36.6111     18.8312            18.8358             18.8199            18.8244             
InVirTC4     2019-10-13T06:59:49Z    -0.0008      100.0201  4.880275        4.879994        1027.5446  1027.544   283.01      1.458                 0.0279         0.0096         31.67588  -64.1306   2.2636        2.6283        6.2835    6.3436    285.185   36.6218     36.6205     18.846             18.8506             18.8447            18.8493             
InVirTC4     2019-10-13T06:59:49Z    -0.0017      100.0434  4.875759        4.874606        1027.5527  1027.5535  283.999     -1.285                0.0238         0.0096         31.67602  -64.13113  2.2604        2.6273        6.2863    6.3565    286.182   36.6146     36.6127     18.8106            18.8151             18.8018            18.8063             
InVirTC4     2019-10-13T06:59:49Z    -0.0013      100.0331  4.880106        4.87982         1027.5496  1027.549   284.001     1.457                 0.0256         0.0096         31.67588  -64.1306   2.2631        2.6285        6.2828    6.3467    286.184   36.6219     36.6206     18.8438            18.8483             18.8425            18.8471             
InVirTC4     2019-10-13T06:59:49Z    -0.0017      100.0447  4.874349        4.873476        1027.5603  1027.5593  285.028     -1.088                0.0222         0.0059         31.67602  -64.13112  2.2604        2.627         6.2887    6.36      287.22    36.6141     36.6111     18.7973            18.8018             18.7924            18.7969             
InVirTC4     2019-10-13T06:59:49Z    -0.0009      100.0218  4.879654        4.879389        1027.5557  1027.5551  285.057     1.269                 0.0223         0.0096         31.67588  -64.1306   2.2655        2.6333        6.3044    6.3793    287.249   36.6222     36.6209     18.8388            18.8433             18.8377            18.8422             
InVirTC4     2019-10-13T06:59:49Z    -0.0015      100.0375  4.879625        4.879353        1027.5587  1027.5577  285.825     0.36                  0.026          0.0131         31.67588  -64.13062  2.2676        2.6375        6.313     6.3908    288.024   36.6216     36.62       18.8388            18.8433             18.838             18.8425             
InVirTC4     2019-10-13T06:59:49Z    -0.0017      100.0435  4.874374        4.873578        1027.5641  1027.5644  286.032     -0.799                0.0232         0.0038         31.67602  -64.1311   2.2604        2.627         6.2888    6.3596    288.232   36.6136     36.6119     18.7977            18.8022             18.792             18.7965             
InVirTC4     2019-10-13T06:59:49Z    -0.0012      100.0292  4.877977        4.877707        1027.5671  1027.5664  286.946     0.602                 0.0222         0.0147         31.67588  -64.13064  2.2656        2.6373        6.296     6.3825    289.154   36.621      36.6196     18.8233            18.8278             18.8222            18.8268             
InVirTC4     2019-10-13T06:59:49Z    -0.0017      100.0444  4.873143        4.872727        1027.5709  1027.5692  287.077     -0.484                0.0225         0.0169         31.67602  -64.1311   2.2604        2.6259        6.2866    6.3552    289.286   36.6127     36.61       18.7866            18.7911             18.7856            18.7901             
InVirTC4     2019-10-13T06:59:49Z    -0.0017      100.0429  4.877103        4.876827        1027.5735  1027.5726  287.955     1.029                 0.0223         0.0096         31.67588  -64.13064  2.2655        2.6365        6.3084    6.3843    290.171   36.6207     36.6192     18.8149            18.8194             18.8139            18.8184             
InVirTC4     2019-10-13T06:59:49Z    -0.0018      100.0451  4.874029        4.873754        1027.5741  1027.5727  287.976     -0.524                0.0247         0.0108         31.67602  -64.13112  2.262         2.6261        6.3042    6.3649    290.193   36.6139     36.612      18.7932            18.7977             18.7927            18.7973             
InVirTC4     2019-10-13T06:59:49Z    -0.0017      100.0448  4.873522        4.872984        1027.5784  1027.5772  288.985     -0.891                0.0266         0.0023         31.67602  -64.13112  2.2589        2.6218        6.3029    6.355     291.21    36.6125     36.6101     18.7895            18.794              18.7871            18.7916             
InVirTC4     2019-10-13T06:59:49Z    -0.0013      100.0322  4.876163        4.875902        1027.5792  1027.5785  289.003     1.359                 0.0218         0.0042         31.67588  -64.13064  2.2633        2.6355        6.2989    6.3821    291.229   36.6193     36.6181     18.807             18.8115             18.8059            18.8104             
InVirTC4     2019-10-13T06:59:49Z    -0.0017      100.0429  4.87218         4.871623        1027.5836  1027.5824  289.951     -1.413                0.0223         0.0148         31.67602  -64.13111  2.2532        2.618         6.274     6.3346    292.184   36.6102     36.6077     18.7789            18.7834             18.7764            18.7809             
InVirTC4     2019-10-13T06:59:49Z    -0.0011      100.0288  4.875469        4.875209        1027.5852  1027.5843  290.041     1.581                 0.0247         0.0023         31.67589  -64.13064  2.2629        2.6339        6.2911    6.3745    292.275   36.619      36.6176     18.8003            18.8048             18.7994            18.8039             
InVirTC4     2019-10-13T06:59:49Z    -0.0016      100.0415  4.870531        4.86975         1027.5913  1027.5902  291.025     -1.543                0.022          0.0062         31.67602  -64.13112  2.2512        2.6161        6.2673    6.3362    293.267   36.609      36.6061     18.7641            18.7686             18.7599            18.7644             
InVirTC4     2019-10-13T06:59:49Z    -0.0015      100.0385  4.874756        4.874492        1027.5904  1027.5898  291.049     1.636                 0.029          0.0092         31.6759   -64.13064  2.264         2.634         6.3031    6.3771    293.291   36.618      36.6168     18.7942            18.7987             18.793             18.7975             
InVirTC4     2019-10-13T06:59:49Z    -0.0015      100.0392  4.869872        4.86893         1027.596   1027.5952  292.027     -1.441                0.0289         0.0028         31.67602  -64.13112  2.251         2.6178        6.2653    6.3524    294.277   36.6077     36.6047     18.7589            18.7634             18.7532            18.7577             
InVirTC4     2019-10-13T06:59:49Z    -0.0014      100.036   4.874466        4.874181        1027.5953  1027.5947  292.114     1.346                 0.0274         0.0096         31.6759   -64.13064  2.2639        2.6312        6.3096    6.37      294.366   36.6174     36.6162     18.7917            18.7962             18.7903            18.7949             
InVirTC4     2019-10-13T06:59:49Z    -0.0016      100.0411  4.874407        4.874363        1027.5986  1027.5973  292.859     0.425                 0.028          0.0133         31.67589  -64.13063  2.2663        2.6331        6.3222    6.3845    295.116   36.6172     36.6159     18.791             18.7955             18.792             18.7965             
InVirTC4     2019-10-13T06:59:49Z    -0.0015      100.0396  4.869198        4.868466        1027.6011  1027.6013  293.034     -1.217                0.0287         0.0096         31.67602  -64.13112  2.2502        2.6174        6.2591    6.3469    295.293   36.6066     36.6051     18.7531            18.7577             18.7479            18.7524             
InVirTC4     2019-10-13T06:59:49Z    -0.0018      100.0461  4.873648        4.873383        1027.6049  1027.6044  293.941     0.591                 0.0288         0.0169         31.67588  -64.13066  2.2689        2.6366        6.3346    6.4008    296.208   36.6168     36.6157     18.7837            18.7882             18.7825            18.787              
InVirTC4     2019-10-13T06:59:49Z    -0.0016      100.04    4.868426        4.86811         1027.6073  1027.6061  294.04      -0.896                0.0261         0.016          31.67602  -64.13112  2.2505        2.614         6.2598    6.3272    296.308   36.6064     36.6045     18.7456            18.7501             18.7447            18.7492             
InVirTC4     2019-10-13T06:59:49Z    -0.0014      100.0357  4.872694        4.872413        1027.6103  1027.6096  294.953     1.041                 0.0254         0.0101         31.67589  -64.13065  2.2697        2.6353        6.3331    6.3947    297.229   36.6153     36.614      18.7759            18.7804             18.7747            18.7792             
InVirTC4     2019-10-13T06:59:49Z    -0.0017      100.0429  4.868197        4.867704        1027.6126  1027.611   295.024     -0.412                0.0287         0.0224         31.67602  -64.13112  2.2515        2.6128        6.2766    6.3236    297.299   36.6067     36.604      18.7427            18.7472             18.741             18.7455             
InVirTC4     2019-10-13T06:59:49Z    -0.0017      100.0426  4.868874        4.868334        1027.6157  1027.6145  295.916     -0.553                0.0248         0.011          31.67601  -64.13111  2.248         2.6114        6.2688    6.3351    298.199   36.6074     36.605      18.7479            18.7524             18.7455            18.75               
InVirTC4     2019-10-13T06:59:49Z    -0.0014      100.0357  4.871984        4.871716        1027.6163  1027.6156  296.019     1.411                 0.0218         0.0106         31.6759   -64.13064  2.2711        2.6365        6.3438    6.3966    298.303   36.6148     36.6135     18.7692            18.7737             18.7681            18.7726             
InVirTC4     2019-10-13T06:59:49Z    -0.0017      100.0446  4.868231        4.867632        1027.6203  1027.6178  296.98      -1.761                0.0209         0.0092         31.676    -64.13112  2.2433        2.6035        6.2554    6.3005    299.272   36.6057     36.602      18.7433            18.7478             18.7418            18.7463             
InVirTC4     2019-10-13T06:59:49Z    -0.0017      100.0424  4.870811        4.87052         1027.6222  1027.6215  297.045     1.647                 0.021          0.0169         31.6759   -64.13064  2.2714        2.6365        6.3488    6.4003    299.338   36.6133     36.6119     18.7593            18.7637             18.7581            18.7626             
InVirTC4     2019-10-13T06:59:49Z    -0.0017      100.0442  4.867539        4.866567        1027.625   1027.6249  298.007     -1.732                0.024          0.0096         31.676    -64.13112  2.2417        2.6025        6.246     6.2946    300.308   36.6042     36.6019     18.7379            18.7424             18.7313            18.7358             
InVirTC4     2019-10-13T06:59:49Z    -0.0017      100.044   4.869641        4.869375        1027.6275  1027.6268  298.078     1.581                 0.0235         0.0169         31.67591  -64.13063  2.2701        2.6338        6.3401    6.3913    300.379   36.6112     36.6099     18.7501            18.7546             18.749             18.7535             
InVirTC4     2019-10-13T06:59:49Z    -0.0016      100.0414  4.869608        4.869195        1027.6305  1027.6295  298.861     0.494                 0.0226         0.0062         31.6759   -64.13065  2.2594        2.6214        6.2815    6.3359    301.169   36.6106     36.6087     18.75              18.7545             18.7483            18.7528             
InVirTC4     2019-10-13T06:59:49Z    -0.0016      100.0421  4.866887        4.866391        1027.6306  1027.6302  299.02      -1.572                0.021          0.0096         31.676    -64.13112  2.2397        2.6025        6.2376    6.2987    301.329   36.6037     36.6021     18.7319            18.7364             18.7289            18.7334             
InVirTC4     2019-10-13T06:59:49Z    -0.0012      100.0303  4.868234        4.867958        1027.6368  1027.6362  299.977     0.584                 0.0204         0.0169         31.67589  -64.1307   2.2531        2.6166        6.2705    6.3354    302.294   36.6086     36.6074     18.7388            18.7433             18.7375            18.742              
InVirTC4     2019-10-13T06:59:49Z    -0.0017      100.0442  4.865649        4.865348        1027.6349  1027.6339  300.018     -1.338                0.0175         0.0096         31.676    -64.13108  2.2384        2.6036        6.2363    6.3111    302.336   36.6006     36.599      18.7231            18.7276             18.7221            18.7266             
InVirTC4     2019-10-13T06:59:49Z    -0.0013      100.0322  4.868019        4.867763        1027.6421  1027.6413  301.012     1.015                 0.0174         0.0169         31.67588  -64.1307   2.2517        2.6157        6.2698    6.3426    303.339   36.6087     36.6074     18.7362            18.7406             18.7352            18.7397             
InVirTC4     2019-10-13T06:59:49Z    -0.0017      100.0445  4.86416         4.863615        1027.6421  1027.642   301.029     -1.034                0.021          0.0096         31.676    -64.13109  2.2384        2.605         6.2363    6.3189    303.355   36.5996     36.5983     18.7095            18.714              18.7058            18.7103             
InVirTC4     2019-10-13T06:59:49Z    -0.0017      100.0424  4.867648        4.86735         1027.6468  1027.6458  301.988     1.324                 0.0188         0.0169         31.6759   -64.13068  2.2516        2.6163        6.2717    6.3443    304.323   36.6081     36.6066     18.7329            18.7374             18.7318            18.7363             
InVirTC4     2019-10-13T06:59:49Z    -0.0017      100.0435  4.862995        4.862517        1027.6492  1027.6488  302.028     -0.667                0.0216         0.0096         31.676    -64.1311   2.237         2.6034        6.2298    6.3122    304.363   36.5993     36.5979     18.6983            18.7028             18.6954            18.6999             
InVirTC4     2019-10-13T06:59:49Z    -0.0017      100.0426  4.867581        4.867287        1027.6516  1027.6509  303.006     1.56                  0.0222         0.0169         31.67591  -64.13068  2.2504        2.6167        6.2712    6.3481    305.349   36.6082     36.6068     18.7317            18.7362             18.7304            18.7349             
InVirTC4     2019-10-13T06:59:49Z    -0.0017      100.0425  4.863667        4.862934        1027.6542  1027.6534  303.158     -0.369                0.0231         0.006          31.676    -64.1311   2.2366        2.6017        6.2324    6.3166    305.503   36.6008     36.5984     18.7025            18.707              18.6983            18.7028             
InVirTC4     2019-10-13T06:59:49Z    -0.0017      100.0428  4.863561        4.862771        1027.6575  1027.6561  303.932     -0.86                 0.0238         0.0096         31.676    -64.13112  2.2354        2.5957        6.2354    6.299     306.284   36.6004     36.5973     18.7016            18.7061             18.6977            18.7022             
InVirTC4     2019-10-13T06:59:49Z    -0.0016      100.0418  4.86756         4.867284        1027.656   1027.6554  304.045     1.642                 0.0243         0.0104         31.67592  -64.13068  2.2488        2.6144        6.2634    6.3409    306.397   36.6079     36.6067     18.7314            18.7358             18.7301            18.7346             
InVirTC4     2019-10-13T06:59:49Z    -0.0017      100.044   4.862335        4.861925        1027.6632  1027.6623  305.007     -0.79                 0.0248         0.0096         31.676    -64.1311   2.2325        2.5915        6.2245    6.2885    307.368   36.5984     36.5965     18.6918            18.6963             18.69              18.6945             
InVirTC4     2019-10-13T06:59:49Z    -0.0011      100.0284  4.867412        4.867149        1027.6608  1027.66    305.163     1.033                 0.0221         0.0134         31.67592  -64.13067  2.2499        2.6115        6.2744    6.3253    307.525   36.6074     36.606      18.7301            18.7346             18.7291            18.7336             
InVirTC4     2019-10-13T06:59:49Z    -0.0012      100.0305  4.867477        4.867299        1027.6637  1027.6627  305.863     0.295                 0.0219         0.0151         31.67591  -64.13071  2.251         2.6131        6.2813    6.3416    308.231   36.6073     36.6059     18.7305            18.735              18.7303            18.7348             
InVirTC4     2019-10-13T06:59:49Z    -0.0017      100.0437  4.862493        4.862552        1027.6675  1027.6653  306.059     -0.629                0.0207         0.0064         31.676    -64.1311   2.2305        2.5886        6.2207    6.2756    308.428   36.5983     36.5964     18.6929            18.6974             18.6957            18.7001             
InVirTC4     2019-10-13T06:59:49Z    -0.0017      100.0431  4.861961        4.861034        1027.671   1027.6699  306.894     -1.299                0.021          0.0067         31.676    -64.1311   2.2267        2.5853        6.1997    6.2642    309.27    36.5969     36.5937     18.6892            18.6936             18.6839            18.6884             
InVirTC4     2019-10-13T06:59:49Z    -0.0017      100.0435  4.866917        4.866623        1027.6706  1027.6699  306.997     0.733                 0.0254         0.0151         31.6759   -64.13072  2.2506        2.6135        6.2792    6.3444    309.374   36.6076     36.6063     18.7243            18.7288             18.7229            18.7274             
InVirTC4     2019-10-13T06:59:49Z    -0.0017      100.0429  4.858557        4.857139        1027.6791  1027.6807  307.955     -1.575                0.0209         0.0096         31.676    -64.13108  2.2271        2.5836        6.2102    6.2622    310.34    36.592      36.5902     18.6617            18.6662             18.6502            18.6546             
InVirTC4     2019-10-13T06:59:49Z    -0.0017      100.0445  4.865376        4.865086        1027.6769  1027.6762  307.967     1.075                 0.0269         0.0023         31.6759   -64.13072  2.2505        2.6127        6.2796    6.3414    310.352   36.6058     36.6045     18.7112            18.7156             18.7099            18.7144             
InVirTC4     2019-10-13T06:59:49Z    -0.0017      100.0445  4.864314        4.864041        1027.682   1027.6813  308.947     1.309                 0.0246         0.0059         31.67591  -64.1307   2.2496        2.6132        6.2783    6.343     311.34    36.604      36.6028     18.7027            18.7072             18.7015            18.7059             
InVirTC4     2019-10-13T06:59:49Z    -0.0018      100.0461  4.8572          4.856016        1027.6838  1027.6875  308.981     -1.469                0.0208         0.0082         31.676    -64.1311   2.226         2.5839        6.2099    6.2603    311.375   36.5889     36.5897     18.6517            18.6562             18.6396            18.644              
InVirTC4     2019-10-13T06:59:49Z    -0.0017      100.0432  4.863496        4.863203        1027.688   1027.6873  309.981     1.453                 0.0222         0.0096         31.67592  -64.13068  2.2493        2.6114        6.2772    6.3404    312.384   36.6034     36.602      18.6951            18.6996             18.6938            18.6983             
InVirTC4     2019-10-13T06:59:49Z    -0.0017      100.0429  4.855944        4.855068        1027.6931  1027.6929  310.046     -1.263                0.0259         0.0018         31.676    -64.13112  2.2254        2.5829        6.2056    6.254     312.449   36.5903     36.588      18.6377            18.6422             18.6319            18.6364             
InVirTC4     2019-10-13T06:59:49Z    -0.0015      100.0396  4.855113        4.854567        1027.6988  1027.6987  311.029     -1.02                 0.0294         0.0018         31.676    -64.13108  2.2238        2.5835        6.1994    6.259     313.44    36.5896     36.5881     18.6302            18.6347             18.6266            18.631              
InVirTC4     2019-10-13T06:59:49Z    -0.0017      100.0427  4.861703        4.861447        1027.6949  1027.6942  311.04      1.402                 0.0242         0.0096         31.67594  -64.1307   2.2468        2.6067        6.2689    6.3175    313.452   36.6012     36.6        18.6799            18.6844             18.6789            18.6834             
InVirTC4     2019-10-13T06:59:49Z    -0.0017      100.0426  4.854686        4.854394        1027.7046  1027.7035  312.002     -0.743                0.0266         0.003          31.676    -64.13109  2.2236        2.586         6.2039    6.2748    314.421   36.5899     36.5881     18.6253            18.6298             18.6245            18.629              
InVirTC4     2019-10-13T06:59:49Z    -0.0017      100.0439  4.860454        4.860107        1027.7013  1027.7009  312.095     0.877                 0.025          0.0122         31.67593  -64.13069  2.2412        2.5972        6.241     6.2798    314.515   36.5999     36.5986     18.6691            18.6736             18.6672            18.6717             
InVirTC4     2019-10-13T06:59:49Z    -0.0017      100.0429  4.858428        4.858045        1027.7071  1027.7066  312.903     0.407                 0.0281         0.0228         31.67592  -64.13073  2.2335        2.5934        6.2151    6.2871    315.33    36.5972     36.5958     18.6525            18.6569             18.6504            18.6549             
InVirTC4     2019-10-13T06:59:49Z    -0.0016      100.0419  4.854487        4.854314        1027.7101  1027.708   313.045     -0.325                0.0229         0.0066         31.676    -64.13107  2.2224        2.5867        6.1941    6.2874    315.474   36.5902     36.5878     18.6226            18.6271             18.6237            18.6281             
InVirTC4     2019-10-13T06:59:49Z    -0.0017      100.0427  4.855172        4.854746        1027.7123  1027.7107  313.827     -0.697                0.0192         0.0015         31.67598  -64.1311   2.2216        2.5805        6.2006    6.2669    316.262   36.5905     36.588      18.6285            18.6329             18.6272            18.6317             
InVirTC4     2019-10-13T06:59:49Z    -0.0017      100.0426  4.857372        4.85708         1027.7133  1027.7126  313.995     0.732                 0.0245         0.0229         31.67592  -64.13073  2.2298        2.5915        6.2034    6.2859    316.431   36.5959     36.5946     18.6433            18.6478             18.6421            18.6465             
InVirTC4     2019-10-13T06:59:49Z    -0.0012      100.0299  4.854388        4.853555        1027.7172  1027.7175  315.016     -1.715                0.0223         0.0046         31.67598  -64.13109  2.2168        2.5762        6.1797    6.2517    317.461   36.5883     36.5866     18.6229            18.6274             18.6169            18.6214             
InVirTC4     2019-10-13T06:59:49Z    -0.0016      100.042   4.857073        4.856755        1027.7179  1027.7172  315.029     1.049                 0.0245         0.0169         31.67593  -64.13073  2.2281        2.5908        6.2087    6.2843    317.475   36.5951     36.5938     18.6409            18.6453             18.6394            18.6439             
InVirTC4     2019-10-13T06:59:49Z    -0.0008      100.0201  4.852794        4.852932        1027.7228  1027.7217  316.017     -1.653                0.0199         0.0023         31.67598  -64.1311   2.2162        2.5741        6.1811    6.2401    318.471   36.5856     36.5848     18.6103            18.6148             18.6125            18.617              
InVirTC4     2019-10-13T06:59:49Z    -0.0017      100.0436  4.856785        4.856555        1027.723   1027.7223  316.03      1.22                  0.0297         0.0169         31.67594  -64.13072  2.228         2.5904        6.2098    6.2861    318.484   36.5951     36.5938     18.6378            18.6422             18.637             18.6415             
InVirTC4     2019-10-13T06:59:49Z    -0.0017      100.0443  4.85621         4.855949        1027.7279  1027.7273  317.012     1.085                 0.0284         0.0119         31.67594  -64.13072  2.2286        2.5879        6.2211    6.2784    319.474   36.5942     36.593      18.6329            18.6374             18.6317            18.6362             
InVirTC4     2019-10-13T06:59:49Z    -0.0018      100.0461  4.852426        4.851953        1027.7268  1027.7261  317.033     -1.466                0.0189         0.0143         31.676    -64.13107  2.2163        2.5731        6.1834    6.2403    319.496   36.5842     36.5824     18.6079            18.6124             18.6055            18.61               
InVirTC4     2019-10-13T06:59:49Z    -0.0017      100.0431  4.855978        4.85567         1027.7325  1027.7319  317.968     0.857                 0.0251         0.0152         31.67594  -64.13072  2.2289        2.5867        6.2234    6.2734    320.439   36.5939     36.5927     18.6306            18.635              18.629             18.6335             
InVirTC4     2019-10-13T06:59:49Z    -0.0016      100.0405  4.850831        4.850226        1027.7337  1027.7338  318.027     -1.222                0.0205         0.0169         31.676    -64.13106  2.2154        2.5738        6.183     6.2506    320.498   36.5827     36.5815     18.5939            18.5984             18.5896            18.594              
InVirTC4     2019-10-13T06:59:49Z    -0.0017      100.0438  4.855014        4.854727        1027.739   1027.7382  319.004     0.931                 0.025          0.0061         31.67594  -64.13072  2.2285        2.5833        6.2218    6.264     321.483   36.5934     36.592      18.6215            18.626              18.6203            18.6248             
InVirTC4     2019-10-13T06:59:49Z    -0.0013      100.0324  4.84932         4.848262        1027.7413  1027.7427  319.052     -0.924                0.0214         0.0169         31.676    -64.13108  2.2151        2.5745        6.183     6.2583    321.532   36.5821     36.5809     18.5798            18.5843             18.571             18.5755             
InVirTC4     2019-10-13T06:59:49Z    -0.0011      100.0291  4.848346        4.848105        1027.7505  1027.7491  320.058     -0.615                0.0223         0.0118         31.67598  -64.13108  2.2137        2.5728        6.1792    6.2538    322.546   36.5842     36.5823     18.5677            18.5722             18.5675            18.5719             
InVirTC4     2019-10-13T06:59:49Z    -0.0017      100.0427  4.853946        4.853671        1027.745   1027.7445  320.06      1.065                 0.0246         0.0023         31.67594  -64.13073  2.2278        2.5846        6.2192    6.2734    322.549   36.5921     36.591      18.6123            18.6168             18.6109            18.6154             
InVirTC4     2019-10-13T06:59:49Z    -0.0017      100.0446  4.852681        4.852405        1027.7518  1027.7511  320.993     0.889                 0.0228         0.0069         31.67594  -64.13074  2.2249        2.5847        6.2065    6.2833    323.489   36.5916     36.5903     18.6004            18.6048             18.5992            18.6036             
InVirTC4     2019-10-13T06:59:49Z    -0.0017      100.0433  4.848928        4.848734        1027.7531  1027.7513  321.054     -0.506                0.0217         0.0052         31.67598  -64.1311   2.213         2.5702        6.1733    6.2411    323.551   36.5838     36.5816     18.5732            18.5777             18.5739            18.5783             
InVirTC4     2019-10-13T06:59:49Z    -0.0012      100.03    4.849084        4.848151        1027.7568  1027.7552  321.973     -0.62                 0.0238         0.0094         31.67598  -64.1311   2.2132        2.5691        6.1833    6.2445    324.478   36.5838     36.58       18.5744            18.5788             18.5697            18.5741             
InVirTC4     2019-10-13T06:59:49Z    -0.0016      100.0416  4.851909        4.851594        1027.7564  1027.7558  321.975     0.72                  0.0289         0.0096         31.67594  -64.13076  2.2226        2.5828        6.1963    6.2711    324.48    36.59       36.5887     18.5944            18.5989             18.5929            18.5973             
InVirTC4     2019-10-13T06:59:49Z    -0.0017      100.0441  4.851486        4.851208        1027.7616  1027.761   322.994     0.85                  0.0278         0.0096         31.67594  -64.13075  2.2215        2.5824        6.2001    6.2735    325.508   36.5895     36.5884     18.5904            18.5949             18.5891            18.5935             
InVirTC4     2019-10-13T06:59:49Z    -0.0016      100.0421  4.848568        4.847876        1027.7611  1027.7601  323.032     -0.835                0.0245         0.0092         31.67598  -64.13107  2.2103        2.5661        6.1763    6.2492    325.546   36.582      36.5795     18.5709            18.5754             18.5672            18.5716             
InVirTC4     2019-10-13T06:59:49Z    -0.0015      100.0388  4.846658        4.846015        1027.7677  1027.7668  323.951     -1.327                0.0245         0.0131         31.67598  -64.13108  2.2076        2.5587        6.1722    6.2168    326.473   36.5799     36.5776     18.5547            18.5591             18.5512            18.5556             
InVirTC4     2019-10-13T06:59:49Z    -0.0017      100.0429  4.850741        4.850449        1027.767   1027.7665  324.02      0.939                 0.0267         0.0096         31.67595  -64.13074  2.2215        2.5795        6.2032    6.2626    326.542   36.5886     36.5874     18.5839            18.5884             18.5825            18.5869             
InVirTC4     2019-10-13T06:59:49Z    -0.0017      100.0432  4.845382        4.845161        1027.7734  1027.7734  324.987     -1.37                 0.022          0.0169         31.67598  -64.13108  2.2046        2.5545        6.1639    6.1939    327.518   36.5779     36.5774     18.5443            18.5487             18.5427            18.5472             
InVirTC4     2019-10-13T06:59:49Z    -0.0016      100.0421  4.849527        4.849217        1027.7734  1027.7728  324.997     0.951                 0.0241         0.0163         31.67596  -64.13075  2.2202        2.5763        6.2007    6.2484    327.528   36.5876     36.5863     18.573             18.5775             18.5715            18.576              
InVirTC4     2019-10-13T06:59:49Z    -0.0008      100.0201  4.844124        4.843327        1027.7786  1027.7782  326.009     -1.199                0.0267         0.0169         31.67598  -64.13108  2.2027        2.554         6.1582    6.1939    328.549   36.5756     36.5734     18.5344            18.5388             18.5293            18.5338             
InVirTC4     2019-10-13T06:59:49Z    -0.0017      100.0442  4.848528        4.848244        1027.7793  1027.7787  326.021     0.933                 0.0222         0.0096         31.67596  -64.13076  2.2186        2.5787        6.1935    6.2722    328.561   36.5866     36.5853     18.5642            18.5687             18.5629            18.5673             
InVirTC4     2019-10-13T06:59:49Z    -0.0017      100.0443  4.847974        4.847681        1027.7852  1027.7846  326.996     0.862                 0.0261         0.0038         31.67596  -64.13077  2.2173        2.5762        6.1896    6.2612    329.544   36.5866     36.5854     18.5584            18.5629             18.557             18.5614             
InVirTC4     2019-10-13T06:59:49Z    -0.0007      100.0187  4.842231        4.840529        1027.7848  1027.7857  327.009     -0.979                0.027          0.006          31.67598  -64.13108  2.2001        2.5551        6.141     6.2038    329.557   36.5728     36.5697     18.519             18.5235             18.5063            18.5107             
InVirTC4     2019-10-13T06:59:49Z    -0.0015      100.0374  4.84745         4.847159        1027.7902  1027.7896  327.967     0.815                 0.0258         0.0158         31.67594  -64.13078  2.2154        2.5754        6.1846    6.2577    330.523   36.586      36.5848     18.5537            18.5581             18.5523            18.5567             
InVirTC4     2019-10-13T06:59:49Z    -0.0008      100.0201  4.8403          4.838465        1027.7934  1027.7938  328.019     -0.821                0.0235         0.0093         31.67598  -64.13107  2.1977        2.5563        6.1295    6.2116    330.576   36.5721     36.5682     18.501             18.5054             18.4878            18.4922             
InVirTC4     2019-10-13T06:59:49Z    -0.0007      100.0184  4.83995         4.838608        1027.7985  1027.7986  329.018     -0.772                0.0233         0.0169         31.67598  -64.13107  2.1987        2.5567        6.1367    6.2173    331.584   36.5719     36.5688     18.4974            18.5019             18.488             18.4924             
InVirTC4     2019-10-13T06:59:49Z    -0.0011      100.0284  4.846569        4.846267        1027.7967  1027.796   329.019     0.943                 0.0248         0.0096         31.67594  -64.13078  2.2158        2.5753        6.1902    6.2634    331.584   36.5856     36.5842     18.5452            18.5497             18.5439            18.5483             
InVirTC4     2019-10-13T06:59:49Z    -0.0007      100.0184  4.838779        4.837498        1027.8053  1027.8041  330.033     -0.551                0.0169         0.0169         31.67598  -64.13108  2.1993        2.5558        6.1441    6.2178    332.607   36.5713     36.5671     18.4864            18.4909             18.4789            18.4833             
InVirTC4     2019-10-13T06:59:49Z    -0.0016      100.0422  4.845191        4.84492         1027.8036  1027.803   330.039     1.105                 0.0275         0.0169         31.67596  -64.13078  2.216         2.5743        6.1995    6.2624    332.613   36.5846     36.5834     18.5327            18.5372             18.5315            18.5359             
InVirTC4     2019-10-13T06:59:49Z    -0.0017      100.0426  4.84377         4.843491        1027.8085  1027.8079  331.003     1.154                 0.022          0.0169         31.67596  -64.13078  2.2148        2.5717        6.1924    6.25      333.585   36.5818     36.5807     18.5219            18.5264             18.5206            18.525              
InVirTC4     2019-10-13T06:59:49Z    -0.0008      100.0193  4.839417        4.838309        1027.8088  1027.808   331.067     -0.649                0.0229         0.0137         31.67598  -64.13107  2.1989        2.5541        6.1399    6.2078    333.651   36.5717     36.5683     18.4916            18.4961             18.4848            18.4893             
InVirTC4     2019-10-13T06:59:49Z    -0.0008      100.0189  4.837437        4.836935        1027.8134  1027.8111  331.933     -1.598                0.0263         0.0169         31.67598  -64.13109  2.1998        2.5544        6.1487    6.2141    334.524   36.5677     36.5643     18.4768            18.4812             18.4758            18.4803             
InVirTC4     2019-10-13T06:59:49Z    -0.0017      100.0427  4.841324        4.841049        1027.8157  1027.815   332.032     1.002                 0.02           0.0068         31.67596  -64.13078  2.2134        2.5724        6.1866    6.2614    334.623   36.5785     36.5773     18.5018            18.5062             18.5006            18.505              
InVirTC4     2019-10-13T06:59:49Z    -0.0011      100.027   4.839606        4.83931         1027.82    1027.8194  332.962     0.606                 0.0228         0.0089         31.67596  -64.1308   2.2089        2.5655        6.1679    6.2314    335.561   36.5746     36.5734     18.4893            18.4938             18.4879            18.4923             
InVirTC4     2019-10-13T06:59:49Z    -0.0008      100.0201  4.836193        4.83554         1027.8205  1027.8201  332.987     -1.64                 0.0263         0.0169         31.67598  -64.1311   2.199         2.5547        6.1467    6.218     335.587   36.567      36.5651     18.4652            18.4697             18.4611            18.4656             
InVirTC4     2019-10-13T06:59:49Z    -0.0017      100.0429  4.838662        4.838387        1027.8256  1027.8251  333.981     0.607                 0.0205         0.0145         31.67596  -64.13082  2.2037        2.5603        6.1457    6.2161    336.589   36.5734     36.5723     18.4812            18.4857             18.4798            18.4843             
InVirTC4     2019-10-13T06:59:49Z    -0.0008      100.0201  4.834924        4.834002        1027.8255  1027.8265  334.025     -1.476                0.0246         0.02           31.67598  -64.1311   2.1986        2.5536        6.1455    6.2138    336.634   36.5644     36.5631     18.4556            18.46               18.4482            18.4526             
InVirTC4     2019-10-13T06:59:49Z    -0.0017      100.043   4.837658        4.837358        1027.8314  1027.8307  334.993     0.943                 0.0236         0.0139         31.67596  -64.13082  2.2032        2.5587        6.1527    6.2179    337.61    36.5722     36.5709     18.4725            18.4769             18.4711            18.4756             
InVirTC4     2019-10-13T06:59:49Z    -0.0008      100.0201  4.833622        4.83299         1027.8319  1027.8325  335.003     -1.22                 0.0238         0.0237         31.67598  -64.13108  2.1984        2.5533        6.1458    6.2111    337.62    36.5632     36.5623     18.444             18.4484             18.439             18.4434             
InVirTC4     2019-10-13T06:59:49Z    -0.0017      100.043   4.836878        4.836622        1027.8365  1027.8359  335.999     1.239                 0.0295         0.0096         31.67597  -64.13082  2.2029        2.5567        6.1591    6.214     338.624   36.571      36.5698     18.466             18.4704             18.4649            18.4693             
InVirTC4     2019-10-13T06:59:49Z    -0.0008      100.0201  4.83316         4.832644        1027.8411  1027.8404  336.011     -0.88                 0.0196         0.0189         31.67598  -64.13108  2.1986        2.5528        6.1488    6.2077    338.637   36.5666     36.5647     18.4354            18.4398             18.4325            18.4369             
InVirTC4     2019-10-13T06:59:49Z    -0.0017      100.0435  4.835998        4.835719        1027.8419  1027.8413  337.025     1.39                  0.0307         0.0092         31.67598  -64.13082  2.2029        2.5554        6.1629    6.2122    339.66    36.5696     36.5684     18.4587            18.4631             18.4574            18.4618             
InVirTC4     2019-10-13T06:59:49Z    -0.0008      100.0191  4.833542        4.833037        1027.8452  1027.8442  337.055     -0.495                0.0236         0.0135         31.67598  -64.13107  2.1991        2.5541        6.1524    6.2103    339.69    36.5669     36.5647     18.4382            18.4426             18.4358            18.4403             
InVirTC4     2019-10-13T06:59:49Z    -0.0011      100.0266  4.834069        4.833153        1027.8471  1027.8475  338.025     -0.465                0.0208         0.0096         31.67597  -64.13108  2.1989        2.5577        6.1502    6.2362    340.668   36.5658     36.564      18.4441            18.4485             18.4373            18.4417             
InVirTC4     2019-10-13T06:59:49Z    -0.0017      100.0436  4.835298        4.835021        1027.8466  1027.8461  338.04      1.163                 0.0236         0.0148         31.67598  -64.13082  2.2007        2.5546        6.1526    6.2146    340.683   36.5682     36.567      18.4532            18.4576             18.4519            18.4563             
InVirTC4     2019-10-13T06:59:49Z    -0.0008      100.0193  4.832709        4.832078        1027.8532  1027.8525  338.903     -1.21                 0.0192         0.0163         31.67596  -64.13109  2.2003        2.5549        6.1621    6.2366    341.554   36.5647     36.5625     18.4319            18.4364             18.4284            18.4328             
InVirTC4     2019-10-13T06:59:49Z    -0.0017      100.0424  4.834863        4.834568        1027.8518  1027.8513  338.967     0.724                 0.0238         0.0111         31.67598  -64.13082  2.1972        2.5508        6.1354    6.2016    341.619   36.5681     36.567      18.4487            18.4531             18.4472            18.4516             
InVirTC4     2019-10-13T06:59:49Z    -0.0017      100.0433  4.834508        4.834206        1027.8587  1027.858   339.986     0.748                 0.0239         0.0148         31.67598  -64.1308   2.195         2.5473        6.1295    6.1861    342.646   36.5695     36.5681     18.4433            18.4478             18.442             18.4464             
InVirTC4     2019-10-13T06:59:49Z    -0.0007      100.0187  4.830706        4.830288        1027.8604  1027.8571  339.993     -1.376                0.0207         0.0169         31.67596  -64.13108  2.2003        2.5492        6.1708    6.2148    342.654   36.5622     36.558      18.4151            18.4195             18.4158            18.4202             
InVirTC4     2019-10-13T06:59:49Z    -0.0008      100.0201  4.828865        4.827885        1027.8665  1027.8678  340.998     -1.213                0.0207         0.0169         31.67596  -64.13108  2.1993        2.5483        6.1761    6.2217    343.667   36.5593     36.5583     18.4002            18.4047             18.3921            18.3965             
InVirTC4     2019-10-13T06:59:49Z    -0.0018      100.0451  4.834377        4.834099        1027.8655  1027.8649  341.002     0.872                 0.0214         0.0114         31.67598  -64.13082  2.1939        2.5471        6.1311    6.1977    343.671   36.5713     36.57       18.4396            18.444              18.4384            18.4428             
InVirTC4     2019-10-13T06:59:49Z    -0.0008      100.0201  4.828014        4.82704         1027.8739  1027.875   342.007     -0.936                0.0247         0.0116         31.67598  -64.13108  2.1982        2.5474        6.1775    6.2229    344.684   36.5601     36.5588     18.3908            18.3952             18.3829            18.3874             
InVirTC4     2019-10-13T06:59:49Z    -0.0017      100.0424  4.832184        4.831933        1027.8728  1027.8722  342.013     0.999                 0.0173         0.0166         31.67598  -64.13082  2.1955        2.5486        6.147     6.209     344.69    36.5687     36.5676     18.421             18.4255             18.4199            18.4243             
InVirTC4     2019-10-13T06:59:49Z    -0.0017      100.0438  4.831991        4.831708        1027.8782  1027.8777  343.012     1.088                 0.0191         0.0096         31.67598  -64.13082  2.1972        2.553         6.1605    6.234     345.699   36.5692     36.568      18.4182            18.4227             18.4168            18.4212             
InVirTC4     2019-10-13T06:59:49Z    -0.0007      100.018   4.828202        4.827482        1027.8795  1027.8783  343.029     -0.607                0.0261         0.0049         31.67598  -64.13108  2.1943        2.5438        6.1666    6.2123    345.716   36.5615     36.5586     18.3906            18.395              18.3869            18.3913             
InVirTC4     2019-10-13T06:59:49Z    -0.0006      100.0161  4.828052        4.827323        1027.8833  1027.8821  344.025     -0.713                0.0259         0.0129         31.67596  -64.13107  2.1874        2.538         6.1387    6.1933    346.72    36.5604     36.5576     18.3899            18.3943             18.3861            18.3905             
InVirTC4     2019-10-13T06:59:49Z    -0.0017      100.0429  4.83136         4.831075        1027.8839  1027.8834  344.055     0.994                 0.0221         0.0094         31.67599  -64.13082  2.198         2.556         6.1608    6.2462    346.75    36.5687     36.5675     18.4123            18.4168             18.4109            18.4153             
InVirTC4     2019-10-13T06:59:49Z    -0.0012      100.0312  4.830524        4.830214        1027.8889  1027.8884  344.953     0.64                  0.0236         0.0162         31.676    -64.13082  2.2003        2.5593        6.173     6.2531    347.656   36.5676     36.5664     18.4051            18.4095             18.4035            18.408              
InVirTC4     2019-10-13T06:59:49Z    -0.0006      100.0159  4.826083        4.824597        1027.8873  1027.8871  344.972     -1.071                0.0285         0.0166         31.67596  -64.13107  2.1807        2.5334        6.1139    6.1893    347.675   36.5557     36.552      18.3761            18.3805             18.3659            18.3703             
InVirTC4     2019-10-13T06:59:49Z    -0.0016      100.0399  4.829587        4.829323        1027.894   1027.8935  345.961     0.644                 0.0238         0.0128         31.676    -64.13084  2.2026        2.5589        6.1823    6.2431    348.673   36.566      36.5649     18.3976            18.402              18.3962            18.4007             
InVirTC4     2019-10-13T06:59:49Z    -0.0007      100.0166  4.825222        4.821414        1027.8921  1027.8935  345.965     -1.032                0.0238         0.0033         31.67596  -64.13108  2.1781        2.5283        6.1128    6.1805    348.677   36.5539     36.5464     18.3694            18.3738             18.3413            18.3457             
InVirTC4     2019-10-13T06:59:49Z    -0.001       100.0266  4.829506        4.829218        1027.8989  1027.8983  346.996     0.929                 0.0276         0.0045         31.67598  -64.13084  2.2035        2.5608        6.1879    6.2554    349.717   36.566      36.5648     18.3964            18.4008             18.3949            18.3994             
InVirTC4     2019-10-13T06:59:49Z    -0.0007      100.0179  4.823151        4.821087        1027.9003  1027.9029  346.999     -0.892                0.0248         0.0078         31.67597  -64.13108  2.174         2.5242        6.1118    6.1766    349.72    36.5524     36.5501     18.3507            18.3551             18.3335            18.3379             
InVirTC4     2019-10-13T06:59:49Z    -0.0007      100.0182  4.822549        4.822346        1027.9047  1027.9038  348.015     -0.726                0.0269         0.0147         31.67597  -64.13108  2.1676        2.5154        6.0769    6.1401    350.745   36.5509     36.5495     18.3462            18.3506             18.3459            18.3503             
InVirTC4     2019-10-13T06:59:49Z    -0.001       100.0256  4.828414        4.828133        1027.9052  1027.9045  348.05      1.189                 0.0269         -0.0004        31.67598  -64.13086  2.2031        2.5608        6.183     6.2586    350.78    36.5649     36.5636     18.3866            18.391              18.3855            18.3899             
InVirTC4     2019-10-13T06:59:49Z    -0.0007      100.0172  4.822063        4.820841        1027.9102  1027.9097  349.02      -0.782                0.0288         0.0163         31.67596  -64.13108  2.1598        2.5075        6.0412    6.1086    351.758   36.5507     36.5473     18.3414            18.3458             18.3334            18.3378             
InVirTC4     2019-10-13T06:59:49Z    -0.0011      100.0279  4.827893        4.827624        1027.9097  1027.909   349.041     1.28                  0.0255         -0.0051        31.676    -64.13086  2.2032        2.5611        6.1817    6.2574    351.78    36.5637     36.5625     18.3826            18.387              18.3814            18.3858             
InVirTC4     2019-10-13T06:59:49Z    -0.0007      100.0182  4.818043        4.815987        1027.9167  1027.9166  349.952     -1.184                0.027          0.0082         31.67596  -64.13106  2.1563        2.5022        6.025     6.086     352.698   36.5435     36.5386     18.3106            18.315              18.2963            18.3007             
InVirTC4     2019-10-13T06:59:49Z    -0.0011      100.0272  4.82721         4.826943        1027.9147  1027.914   349.979     1.177                 0.0231         0.0089         31.676    -64.13086  2.2033        2.558         6.1855    6.2431    352.726   36.5629     36.5616     18.3766            18.381              18.3754            18.3798             
InVirTC4     2019-10-13T06:59:49Z    -0.0007      100.0175  4.81535         4.812593        1027.9198  1027.9281  350.983     -1.165                0.0212         0.0023         31.67596  -64.13106  2.1551        2.5016        6.0234    6.0924    353.739   36.5357     36.5372     18.293             18.2974             18.2649            18.2693             
InVirTC4     2019-10-13T06:59:49Z    -0.0008      100.0191  4.825489        4.825196        1027.9218  1027.9212  351.021     1.046                 0.0298         0.0096         31.676    -64.13085  2.2027        2.555         6.1838    6.2298    353.777   36.5612     36.5599     18.3616            18.366              18.3602            18.3646             
InVirTC4     2019-10-13T06:59:49Z    -0.0007      100.0187  4.813017        4.812385        1027.9322  1027.9329  351.999     -0.899                0.0245         0.0084         31.67596  -64.13108  2.1551        2.5016        6.0326    6.0986    354.764   36.5377     36.5369     18.268             18.2724             18.2628            18.2671             
InVirTC4     2019-10-13T06:59:49Z    -0.0008      100.0194  4.823572        4.823305        1027.9276  1027.927   352.044     0.87                  0.0276         0.0212         31.676    -64.13086  2.1986        2.5513        6.1636    6.2221    354.809   36.5578     36.5567     18.3466            18.351              18.3453            18.3497             
InVirTC4     2019-10-13T06:59:49Z    -0.001       100.0243  4.822061        4.821709        1027.9332  1027.9326  352.949     0.576                 0.0213         0.0132         31.676    -64.13087  2.191         2.5443        6.1272    6.1969    355.721   36.5557     36.5544     18.334             18.3384             18.3321            18.3365             
InVirTC4     2019-10-13T06:59:49Z    -0.0008      100.0191  4.812691        4.812985        1027.9387  1027.9369  353.026     -0.521                0.0279         0.0096         31.67596  -64.13108  2.1543        2.5002        6.0359    6.0997    355.799   36.5388     36.5377     18.2632            18.2676             18.2672            18.2716             
InVirTC4     2019-10-13T06:59:49Z    -0.0009      100.0225  4.819707        4.81941         1027.9393  1027.9387  353.968     0.735                 0.0264         0.0096         31.676    -64.13088  2.1858        2.5395        6.1128    6.1866    356.75    36.5517     36.5505     18.3156            18.32               18.3141            18.3185             
InVirTC4     2019-10-13T06:59:49Z    -0.0007      100.0179  4.813602        4.81271         1027.9415  1027.9395  354.017     -0.541                0.027          0.0128         31.67596  -64.13108  2.1492        2.494         6.0191    6.082     356.799   36.5393     36.5353     18.2709            18.2753             18.2668            18.2712             
InVirTC4     2019-10-13T06:59:49Z    -0.0007      100.0184  4.811938        4.810203        1027.9448  1027.9447  354.93      -1.222                0.025          0.0162         31.67596  -64.1311   2.1432        2.4868        5.9979    6.061     357.72    36.5347     36.5305     18.2598            18.2642             18.2478            18.2522             
InVirTC4     2019-10-13T06:59:49Z    -0.0014      100.0344  4.818731        4.818442        1027.9449  1027.9443  354.985     1.008                 0.0233         0.0096         31.676    -64.13088  2.1828        2.5344        6.1062    6.1708    357.776   36.5504     36.5492     18.3072            18.3116             18.3058            18.3102             
InVirTC4     2019-10-13T06:59:49Z    -0.0007      100.0174  4.809072        4.806896        1027.9536  1027.9543  355.992     -1.367                0.0218         0.0169         31.67596  -64.1311   2.1397        2.4828        5.9771    6.0427    358.792   36.5318     36.5274     18.2351            18.2395             18.2191            18.2235             
InVirTC4     2019-10-13T06:59:49Z    -0.0013      100.0337  4.817661        4.81733         1027.9501  1027.9496  356.014     1.193                 0.0208         0.0096         31.67601  -64.13088  2.1795        2.5301        6.0968    6.155     358.813   36.5485     36.5472     18.2987            18.3031             18.297             18.3014             
InVirTC4     2019-10-13T06:59:49Z    -0.0006      100.0155  4.807777        4.805576        1027.9587  1027.9623  357.021     -1.211                0.0261         0.0169         31.67597  -64.13109  2.1379        2.4806        5.9684    6.0293    359.829   36.5293     36.5276     18.2251            18.2294             18.2058            18.2102             
InVirTC4     2019-10-13T06:59:49Z    -0.001       100.0264  4.816333        4.816054        1027.9552  1027.9546  357.047     1.065                 0.024          0.0096         31.67602  -64.13087  2.1748        2.5253        6.0806    6.1473    359.856   36.5458     36.5446     18.2886            18.293              18.2872            18.2916             
InVirTC4     2019-10-13T06:59:49Z    -0.0014      100.0345  4.815317        4.815003        1027.9601  1027.9596  357.951     0.66                  0.0205         0.0138         31.67602  -64.13088  2.1671        2.5139        6.0488    6.1016    360.767   36.5442     36.543      18.2802            18.2845             18.2785            18.2829             
InVirTC4     2019-10-13T06:59:49Z    -0.0006      100.0143  4.8062          4.804644        1027.9656  1027.9667  358.022     -0.918                0.0286         0.0169         31.67598  -64.13108  2.1381        2.4801        5.9771    6.0357    360.839   36.5278     36.5252     18.2111            18.2155             18.1991            18.2035             
InVirTC4     2019-10-13T06:59:49Z    -0.0011      100.0273  4.813772        4.813473        1027.9669  1027.9663  358.974     0.676                 0.0175         0.0099         31.67602  -64.13089  2.1624        2.5102        6.0407    6.1086    361.8     36.5426     36.5414     18.2667            18.2711             18.2651            18.2695             
InVirTC4     2019-10-13T06:59:49Z    -0.0006      100.0147  4.803793        4.802628        1027.9731  1027.972   359.028     -0.358                0.0275         0.0163         31.67598  -64.13106  2.139         2.4822        5.9947    6.0607    361.854   36.5251     36.5212     18.1906            18.195              18.1838            18.1881             
InVirTC4     2019-10-13T06:59:49Z    -0.0007      100.0165  4.804938        4.803175        1027.9768  1027.9774  359.814     -0.651                0.0241         0.0116         31.67597  -64.13108  2.1322        2.4729        5.9687    6.0319    362.647   36.5278     36.5243     18.1982            18.2026             18.1852            18.1896             
InVirTC4     2019-10-13T06:59:49Z    -0.0017      100.0437  4.812581        4.812294        1027.9726  1027.9721  359.987     0.871                 0.0151         0.0023         31.67602  -64.13089  2.1598        2.5078        6.0385    6.1076    362.821   36.541      36.5398     18.2566            18.261              18.2552            18.2596             
InVirTC4     2019-10-13T06:59:49Z    -0.0011      100.0275  4.811254        4.810987        1027.9786  1027.9781  360.977     1.039                 0.0188         0.0023         31.67602  -64.13088  2.1586        2.5069        6.0379    6.1078    363.82    36.5393     36.5382     18.2454            18.2498             18.2441            18.2485             
InVirTC4     2019-10-13T06:59:49Z    -0.0007      100.0185  4.800909        4.798289        1027.9846  1027.9862  360.996     -1.685                0.0217         0.0091         31.67596  -64.13109  2.1253        2.4644        5.937     5.9977    363.839   36.5208     36.5162     18.1669            18.1712             18.1469            18.1513             
InVirTC4     2019-10-13T06:59:49Z    -0.0009      100.0238  4.810907        4.810623        1027.9837  1027.9831  361.984     1.132                 0.019          0.0103         31.67602  -64.13089  2.1571        2.5055        6.0362    6.107     364.836   36.5391     36.5378     18.2419            18.2463             18.2406            18.245              
InVirTC4     2019-10-13T06:59:49Z    -0.0008      100.0201  4.798659        4.796955        1027.9925  1027.9926  362.006     -1.498                0.0247         0.0096         31.67596  -64.1311   2.1244        2.4621        5.9353    5.9843    364.858   36.5188     36.5149     18.1471            18.1515             18.1351            18.1395             
InVirTC4     2019-10-13T06:59:49Z    -0.0009      100.0214  4.808939        4.80868         1027.9924  1027.9916  363.007     1.176                 0.0217         0.0129         31.67602  -64.1309   2.1542        2.502         6.0255    6.0945    365.868   36.5383     36.537      18.2234            18.2278             18.2224            18.2268             
InVirTC4     2019-10-13T06:59:49Z    -0.0007      100.0184  4.797239        4.795624        1027.997   1027.9993  363.022     -1.211                0.0263         0.0096         31.67596  -64.13108  2.1244        2.4614        5.9372    5.9835    365.883   36.5154     36.5138     18.1368            18.1412             18.1231            18.1275             
InVirTC4     2019-10-13T06:59:49Z    -0.0009      100.024   4.806163        4.805914        1028.0006  1027.9999  364.012     1.215                 0.0216         0.0023         31.67602  -64.1309   2.1517        2.4994        6.0144    6.0852    366.881   36.5354     36.5342     18.1996            18.204              18.1987            18.203              
InVirTC4     2019-10-13T06:59:49Z    -0.0006      100.0155  4.796142        4.794588        1028.0039  1028.0049  364.059     -0.846                0.0244         0.0096         31.67597  -64.13107  2.1244        2.4625        5.9415    5.9941    366.929   36.515      36.5123     18.1263            18.1307             18.1144            18.1188             
InVirTC4     2019-10-13T06:59:49Z    -0.0007      100.017   4.794346        4.793336        1028.0114  1028.0091  365.043     -0.339                0.0268         0.0096         31.67598  -64.13106  2.1244        2.4644        5.9474    6.0052    367.922   36.5137     36.5092     18.1101            18.1144             18.1055            18.1098             
InVirTC4     2019-10-13T06:59:49Z    -0.0009      100.0218  4.803699        4.803435        1028.007   1028.0065  365.052     1.112                 0.0266         0.0164         31.67604  -64.1309   2.1516        2.4962        6.0261    6.081     367.931   36.5313     36.5302     18.1802            18.1845             18.1789            18.1833             
InVirTC4     2019-10-13T06:59:49Z    -0.0007      100.0176  4.796014        4.794525        1028.0136  1028.0137  365.808     -0.531                0.0253         0.012          31.67596  -64.13109  2.118         2.4588        5.9306    6.0002    368.693   36.5164     36.513      18.1228            18.1272             18.1123            18.1166             
InVirTC4     2019-10-13T06:59:49Z    -0.0013      100.0328  4.802595        4.80228         1028.0115  1028.011   365.922     0.654                 0.0268         0.0201         31.67603  -64.1309   2.1475        2.4898        6.0099    6.0584    368.808   36.5293     36.5281     18.1715            18.1758             18.1698            18.1742             
InVirTC4     2019-10-13T06:59:49Z    -0.0011      100.0285  4.800243        4.799918        1028.0197  1028.0191  366.962     0.654                 0.0246         0.0122         31.67602  -64.13094  2.1447        2.4869        6.0018    6.0609    369.858   36.5271     36.5258     18.1509            18.1552             18.1492            18.1536             
InVirTC4     2019-10-13T06:59:49Z    -0.0007      100.017   4.79204         4.793326        1028.0202  1028.0132  366.976     -1.623                0.0202         0.0117         31.67597  -64.13109  2.1101        2.4473        5.8928    5.9554    369.872   36.5084     36.5048     18.093             18.0974             18.1095            18.1138             
InVirTC4     2019-10-13T06:59:49Z    -0.0007      100.0182  4.790154        4.789577        1028.0249  1028.0258  367.979     -1.493                0.021          0.0237         31.67598  -64.13108  2.11          2.4472        5.9009    5.9634    370.883   36.5043     36.5037     18.0792            18.0835             18.0742            18.0786             
InVirTC4     2019-10-13T06:59:49Z    -0.0011      100.0291  4.797223        4.796965        1028.0272  1028.0267  368.009     0.903                 0.0229         0.0153         31.67602  -64.13094  2.1428        2.4831        6.0027    6.0502    370.913   36.5227     36.5217     18.1263            18.1307             18.1251            18.1294             
InVirTC4     2019-10-13T06:59:49Z    -0.0007      100.0184  4.789364        4.788468        1028.0331  1028.0329  368.982     -1.23                 0.0202         0.0091         31.67598  -64.13107  2.1107        2.4468        5.9098    5.9658    371.895   36.5059     36.5036     18.0693            18.0737             18.0632            18.0676             
InVirTC4     2019-10-13T06:59:49Z    -0.001       100.0255  4.79467         4.794404        1028.0344  1028.034   369.032     1.044                 0.0227         0.0117         31.67604  -64.13094  2.1388        2.4805        5.9849    6.0441    371.946   36.5193     36.5182     18.1052            18.1096             18.1039            18.1082             
InVirTC4     2019-10-13T06:59:49Z    -0.0007      100.0186  4.788891        4.788079        1028.0388  1028.0382  370.006     -0.872                0.0211         0.0019         31.67598  -64.13106  2.1096        2.4451        5.9113    5.9651    372.929   36.5058     36.5033     18.0644            18.0688             18.0594            18.0637             
InVirTC4     2019-10-13T06:59:49Z    -0.0013      100.0338  4.79401         4.793731        1028.0383  1028.0379  370.065     0.877                 0.0281         0.0103         31.67604  -64.13091  2.1342        2.4734        5.9651    6.018     372.988   36.5171     36.516      18.101             18.1053             18.0994            18.1038             
InVirTC4     2019-10-13T06:59:49Z    -0.0012      100.0295  4.793653        4.793346        1028.0426  1028.0421  370.97      0.576                 0.0264         0.0139         31.67604  -64.13091  2.1304        2.4666        5.9588    5.9972    373.901   36.5164     36.5152     18.0978            18.1022             18.0962            18.1006             
InVirTC4     2019-10-13T06:59:49Z    -0.0007      100.0181  4.788186        4.787197        1028.0429  1028.043   371.036     -0.407                0.0228         0.0026         31.67598  -64.13106  2.1076        2.4432        5.9064    5.9637    373.967   36.5037     36.5015     18.0596            18.064              18.0525            18.0569             
InVirTC4     2019-10-13T06:59:49Z    -0.0007      100.018   4.788694        4.78748         1028.047   1028.0464  371.927     -0.64                 0.0227         0.012          31.67596  -64.1311   2.1005        2.4346        5.875     5.9355    374.866   36.5049     36.5016     18.0627            18.067              18.0548            18.0591             
InVirTC4     2019-10-13T06:59:49Z    -0.0016      100.0407  4.792204        4.791897        1028.0488  1028.0483  371.95      0.701                 0.0246         0.0166         31.67603  -64.13093  2.1267        2.4642        5.9447    6.0008    374.889   36.5148     36.5135     18.0854            18.0897             18.0838            18.0882             
InVirTC4     2019-10-13T06:59:49Z    -0.0007      100.0187  4.783975        4.784002        1028.0536  1028.0534  372.952     -1.456                0.0231         0.023          31.67597  -64.13108  2.097         2.4267        5.8671    5.9021    375.9     36.4959     36.4958     18.027             18.0314             18.0274            18.0317             
InVirTC4     2019-10-13T06:59:49Z    -0.0017      100.0432  4.790924        4.790676        1028.0546  1028.0539  372.969     0.973                 0.0233         0.021          31.67602  -64.13094  2.1255        2.4655        5.9464    6.0142    375.917   36.5129     36.5116     18.0747            18.079              18.0738            18.0781             
InVirTC4     2019-10-13T06:59:49Z    -0.0017      100.0429  4.789323        4.789079        1028.061   1028.0603  373.98      1.23                  0.0239         0.0096         31.67604  -64.13094  2.1233        2.4643        5.9416    6.0166    376.937   36.5109     36.5098     18.0611            18.0655             18.0601            18.0644             
InVirTC4     2019-10-13T06:59:49Z    -0.0007      100.0186  4.78246         4.781865        1028.0593  1028.0584  373.997     -1.33                 0.0196         0.0203         31.67598  -64.13108  2.0945        2.4257        5.8555    5.8977    376.954   36.4932     36.491      18.015             18.0193             18.0118            18.0161             
InVirTC4     2019-10-13T06:59:49Z    -0.0014      100.0347  4.787767        4.787507        1028.0661  1028.0655  374.985     1.419                 0.026          0.0137         31.67604  -64.13095  2.1211        2.462         5.9315    6.0053    377.951   36.5079     36.5067     18.0492            18.0535             18.048             18.0524             
InVirTC4     2019-10-13T06:59:49Z    -0.0007      100.0168  4.780185        4.778384        1028.0656  1028.0683  375.02      -1.056                0.0203         0.0169         31.67598  -64.13108  2.0936        2.4258        5.8544    5.9046    377.986   36.4895     36.4879     17.9968            18.0011             17.9813            17.9856             
InVirTC4     2019-10-13T06:59:49Z    -0.001       100.0259  4.786386        4.786097        1028.0729  1028.0722  376.02      1.5                   0.0265         0.0173         31.67604  -64.13095  2.1191        2.4583        5.9248    5.9858    378.995   36.5067     36.5053     18.0368            18.0412             18.0355            18.0399             
InVirTC4     2019-10-13T06:59:49Z    -0.0008      100.0189  4.778602        4.777671        1028.0755  1028.0759  376.027     -0.651                0.0247         0.0103         31.67598  -64.13108  2.0926        2.4264        5.8524    5.9108    379.002   36.491      36.4892     17.9795            17.9838             17.9726            17.9769             
InVirTC4     2019-10-13T06:59:49Z    -0.001       100.024   4.784764        4.784509        1028.0786  1028.0779  377.036     1.431                 0.0292         0.0242         31.67606  -64.13092  2.1157        2.4552        5.9142    5.9752    380.02    36.5039     36.5027     18.0238            18.0282             18.0227            18.027              
InVirTC4     2019-10-13T06:59:49Z    -0.0007      100.0182  4.779079        4.778202        1028.0809  1028.0804  377.21      -0.395                0.0287         0.0122         31.67598  -64.13109  2.0909        2.4253        5.8481    5.9118    380.196   36.4922     36.4897     17.9822            17.9865             17.9766            17.9809             
InVirTC4     2019-10-13T06:59:49Z    -0.0008      100.0192  4.778117        4.777408        1028.0824  1028.0829  377.945     -1.141                0.0237         0.0096         31.67598  -64.1311   2.0889        2.4222        5.8436    5.9074    380.937   36.4883     36.487      17.9771            17.9814             17.9716            17.976              
InVirTC4     2019-10-13T06:59:49Z    -0.0008      100.0206  4.781824        4.781523        1028.0858  1028.0855  378.113     0.934                 0.0267         0.0199         31.67605  -64.13095  2.1098        2.4494        5.8921    5.9629    381.106   36.4994     36.4984     18.0002            18.0045             17.9984            18.0027             
InVirTC4     2019-10-13T06:59:49Z    -0.0014      100.035   4.783044        4.781227        1028.0871  1028.0877  378.888     0.319                 0.0237         0.0117         31.67604  -64.13094  2.0997        2.4364        5.8534    5.9161    381.889   36.5001     36.4965     18.0108            18.0151             17.9974            18.0017             
InVirTC4     2019-10-13T06:59:49Z    -0.0008      100.0188  4.776261        4.775549        1028.0893  1028.091   379.008     -1.158                0.0228         0.0059         31.67598  -64.1311   2.0874        2.4199        5.8425    5.8964    382.01    36.4859     36.4859     17.9614            17.9657             17.9546            17.9589             
InVirTC4     2019-10-13T06:59:49Z    -0.0008      100.0212  4.780131        4.779853        1028.0949  1028.0942  379.945     0.576                 0.0273         0.0169         31.67605  -64.13095  2.0989        2.4325        5.8766    5.9227    382.955   36.4963     36.4949     17.9866            17.9909             17.9854            17.9898             
InVirTC4     2019-10-13T06:59:49Z    -0.0008      100.0213  4.776           4.775811        1028.0948  1028.0936  380.039     -1.084                0.0261         0.0023         31.67598  -64.13109  2.0863        2.4176        5.8425    5.8887    383.05    36.4861     36.4846     17.9582            17.9626             17.9581            17.9624             
InVirTC4     2019-10-13T06:59:49Z    -0.001       100.0262  4.779801        4.779502        1028.0997  1028.0992  380.956     0.931                 0.0277         0.0169         31.67606  -64.13096  2.0972        2.4317        5.8669    5.9274    383.975   36.4958     36.4945     17.9836            17.9879             17.9821            17.9864             
InVirTC4     2019-10-13T06:59:49Z    -0.0008      100.0201  4.775817        4.774833        1028.0994  1028.1006  381.011     -1.066                0.025          0.0023         31.67598  -64.13108  2.0845        2.4177        5.8327    5.8943    384.031   36.4859     36.4848     17.9563            17.9606             17.9481            17.9524             
InVirTC4     2019-10-13T06:59:49Z    -0.0015      100.0392  4.77894         4.778651        1028.1055  1028.1048  381.963     1.239                 0.0273         0.0115         31.67606  -64.13096  2.095         2.4317        5.8525    5.9262    384.991   36.4949     36.4936     17.9758            17.9801             17.9745            17.9788             
InVirTC4     2019-10-13T06:59:49Z    -0.0008      100.0201  4.774737        4.773973        1028.1036  1028.1042  381.981     -1.032                0.0253         0.0229         31.67598  -64.13108  2.0821        2.4166        5.8193    5.8937    385.009   36.4833     36.4821     17.9484            17.9527             17.9424            17.9467             
InVirTC4     2019-10-13T06:59:49Z    -0.0017      100.0426  4.777705        4.777411        1028.1119  1028.1111  382.994     1.49                  0.0221         0.0023         31.67606  -64.13096  2.0941        2.431         5.8497    5.9274    386.031   36.4938     36.4923     17.9648            17.9691             17.9636            17.9679             
InVirTC4     2019-10-13T06:59:49Z    -0.0008      100.019   4.772946        4.772444        1028.1121  1028.113   383.014     -0.842                0.0242         0.0181         31.67598  -64.13107  2.0815        2.415         5.8203    5.8824    386.051   36.4828     36.4824     17.9313            17.9356             17.9269            17.9312             
InVirTC4     2019-10-13T06:59:49Z    -0.0016      100.0412  4.776695        4.776433        1028.1179  1028.1173  384.005     1.614                 0.0193         0.0155         31.67605  -64.13096  2.0941        2.4288        5.8555    5.9198    387.051   36.4928     36.4916     17.9558            17.9601             17.9545            17.9588             
InVirTC4     2019-10-13T06:59:49Z    -0.0008      100.0201  4.772052        4.771752        1028.1193  1028.1172  384.048     -0.578                0.0256         0.0169         31.67598  -64.13109  2.0814        2.4136        5.8235    5.882     387.094   36.4831     36.4804     17.9219            17.9262             17.922             17.9263             
InVirTC4     2019-10-13T06:59:49Z    -0.0008      100.0201  4.771902        4.771814        1028.1224  1028.1218  384.983     -0.611                0.0299         0.0083         31.67598  -64.13109  2.0806        2.414         5.825     5.8874    388.038   36.4817     36.481      17.9216            17.9259             17.9216            17.9259             
InVirTC4     2019-10-13T06:59:49Z    -0.0017      100.0436  4.775685        4.77542         1028.1234  1028.1229  385.028     1.528                 0.0176         0.0204         31.67604  -64.13096  2.0936        2.4281        5.861     5.9147    388.083   36.4913     36.4902     17.9473            17.9516             17.946             17.9503             
InVirTC4     2019-10-13T06:59:49Z    -0.0011      100.0276  4.771416        4.771153        1028.1279  1028.1261  386.012     -0.709                0.0273         0.0067         31.67598  -64.1311   2.0783        2.412         5.8224    5.8836    389.076   36.4814     36.479      17.9168            17.9211             17.9169            17.9212             
InVirTC4     2019-10-13T06:59:49Z    -0.0017      100.0444  4.774868        4.774592        1028.1284  1028.1279  386.049     1.163                 0.0232         0.0115         31.67606  -64.13096  2.0924        2.4286        5.8554    5.9271    389.113   36.4898     36.4886     17.9406            17.9449             17.9393            17.9436             
InVirTC4     2019-10-13T06:59:49Z    -0.001       100.026   4.771346        4.771841        1028.1316  1028.1298  386.997     -0.818                0.0308         0.0204         31.67598  -64.1311   2.0743        2.41          5.8057    5.8879    390.07    36.4806     36.48       17.9167            17.921              17.9221            17.9264             
InVirTC4     2019-10-13T06:59:49Z    -0.0017      100.0431  4.774711        4.774428        1028.1324  1028.132   387.034     0.634                 0.0226         0.0144         31.67606  -64.13096  2.0912        2.426         5.8526    5.9145    390.107   36.489      36.4879     17.9396            17.9439             17.9381            17.9424             
InVirTC4     2019-10-13T06:59:49Z    -0.0017      100.0445  4.774512        4.774213        1028.1366  1028.1361  387.94      0.484                 0.0224         0.0092         31.67606  -64.13097  2.0912        2.4247        5.8586    5.9123    391.021   36.4886     36.4874     17.9377            17.942              17.9362            17.9405             
InVirTC4     2019-10-13T06:59:49Z    -0.0016      100.0405  4.770105        4.769403        1028.1364  1028.1348  387.963     -1.142                0.0261         0.0023         31.67598  -64.1311   2.072         2.4058        5.7927    5.8745    391.044   36.4781     36.4749     17.907             17.9113             17.9038            17.9081             
InVirTC4     2019-10-13T06:59:49Z    -0.0011      100.0284  4.767757        4.767663        1028.1441  1028.1412  388.984     -1.316                0.0234         0.0033         31.67599  -64.13109  2.0706        2.4011        5.7939    5.8492    392.074   36.4756     36.4726     17.8868            17.8911             17.8892            17.8935             
InVirTC4     2019-10-13T06:59:49Z    -0.0018      100.0449  4.773484        4.77322         1028.1425  1028.142   388.992     0.788                 0.0214         0.0129         31.67606  -64.13098  2.0904        2.4251        5.8524    5.9219    392.083   36.4874     36.4863     17.9288            17.9331             17.9274            17.9317             
InVirTC4     2019-10-13T06:59:49Z    -0.0017      100.0432  4.772483        4.772174        1028.148   1028.1473  390         1.068                 0.0212         0.0108         31.67606  -64.13098  2.0899        2.4236        5.8541    5.9148    393.1     36.4859     36.4846     17.9203            17.9246             17.9189            17.9232             
InVirTC4     2019-10-13T06:59:49Z    -0.0012      100.0308  4.765542        4.764504        1028.1454  1028.1499  390.013     -1.2                  0.0229         0.0096         31.676    -64.13108  2.0713        2.3992        5.8003    5.8498    393.112   36.4673     36.4691     17.8744            17.8787             17.8623            17.8666             
InVirTC4     2019-10-13T06:59:49Z    -0.0017      100.0435  4.771375        4.77108         1028.1534  1028.1529  391         1.232                 0.0149         0.0169         31.67606  -64.13098  2.088         2.4214        5.8454    5.9036    394.108   36.4843     36.4831     17.9111            17.9154             17.9096            17.9139             
InVirTC4     2019-10-13T06:59:49Z    -0.0016      100.0406  4.764043        4.762666        1028.1561  1028.1577  391.013     -0.95                 0.026          0.0096         31.676    -64.13108  2.0693        2.4002        5.7936    5.8622    394.121   36.4697     36.468      17.8568            17.8611             17.8454            17.8497             
InVirTC4     2019-10-13T06:59:49Z    -0.0018      100.0449  4.770314        4.770059        1028.1592  1028.1586  392.031     1.246                 0.0223         0.0103         31.67606  -64.13098  2.0842        2.4193        5.825     5.8965    395.149   36.4829     36.4817     17.902             17.9063             17.9008            17.9051             
InVirTC4     2019-10-13T06:59:49Z    -0.0016      100.0419  4.764132        4.763004        1028.162   1028.1632  392.05      -0.638                0.0271         0.016          31.676    -64.1311   2.0684        2.399         5.7912    5.8592    395.168   36.4711     36.4696     17.8556            17.8599             17.8465            17.8508             
InVirTC4     2019-10-13T06:59:49Z    -0.0017      100.0424  4.768732        4.768431        1028.1659  1028.1655  393.035     1.087                 0.0247         0.0039         31.67606  -64.13098  2.0812        2.4164        5.8135    5.89      396.161   36.4813     36.4802     17.8881            17.8924             17.8864            17.8907             
InVirTC4     2019-10-13T06:59:49Z    -0.0017      100.0425  4.76441         4.762616        1028.1646  1028.1658  393.051     -0.669                0.0202         0.0191         31.676    -64.1311   2.0669        2.3953        5.7894    5.8411    396.177   36.4699     36.4669     17.8592            17.8635             17.8453            17.8496             
InVirTC4     2019-10-13T06:59:49Z    -0.0017      100.0434  4.76701         4.76669         1028.1712  1028.1707  393.986     0.663                 0.0215         0.0153         31.67606  -64.13098  2.08          2.4108        5.8233    5.8715    397.121   36.4782     36.477      17.8745            17.8788             17.8728            17.8771             
InVirTC4     2019-10-13T06:59:49Z    -0.0017      100.0434  4.760806        4.758803        1028.1738  1028.1727  393.988     -0.947                0.0164         0.0169         31.676    -64.1311   2.0642        2.394         5.7827    5.8486    397.123   36.4662     36.4605     17.8282            17.8325             17.8153            17.8196             
InVirTC4     2019-10-13T06:59:49Z    -0.0017      100.0432  4.765832        4.765528        1028.1771  1028.1766  394.953     0.561                 0.0223         0.0169         31.67606  -64.131    2.0776        2.4079        5.8142    5.8708    398.096   36.4769     36.4758     17.8642            17.8685             17.8626            17.8669             
InVirTC4     2019-10-13T06:59:49Z    -0.0017      100.044   4.75719         4.757333        1028.1801  1028.1823  395.009     -0.91                 0.0214         0.0137         31.676    -64.13108  2.062         2.3939        5.7787    5.8567    398.153   36.4594     36.4619     17.8005            17.8048             17.7991            17.8034             
InVirTC4     2019-10-13T06:59:49Z    -0.0018      100.0461  4.76416         4.763879        1028.1846  1028.184   396.009     0.895                 0.0222         0.0169         31.67606  -64.13099  2.0769        2.4072        5.8145    5.8732    399.162   36.4757     36.4745     17.849             17.8533             17.8477            17.852              
InVirTC4     2019-10-13T06:59:49Z    -0.0017      100.0431  4.756346        4.758344        1028.1901  1028.1843  396.051     -0.796                0.0243         0.0057         31.676    -64.13112  2.0607        2.3885        5.7817    5.8344    399.205   36.4626     36.4617     17.7884            17.7927             17.8087            17.813              
InVirTC4     2019-10-13T06:59:49Z    -0.0017      100.0424  4.763318        4.763056        1028.1891  1028.1886  397.007     1.215                 0.0225         0.0169         31.67606  -64.13098  2.0758        2.4078        5.8135    5.8801    400.169   36.4738     36.4727     17.8427            17.847              17.8413            17.8456             
InVirTC4     2019-10-13T06:59:49Z    -0.0016      100.0409  4.756209        4.756587        1028.1922  1028.1888  397.012     -0.781                0.0274         0.0142         31.676    -64.13112  2.0576        2.386         5.7721    5.8361    400.174   36.4602     36.4578     17.7894            17.7936             17.7957            17.8                
InVirTC4     2019-10-13T06:59:49Z    -0.0018      100.0453  4.754834        4.754278        1028.196   1028.1971  397.983     -0.863                0.0204         0.0096         31.676    -64.1311   2.054         2.3808        5.7568    5.8202    401.154   36.4564     36.4562     17.7799            17.7841             17.7748            17.7791             
InVirTC4     2019-10-13T06:59:49Z    -0.0012      100.0298  4.762799        4.76254         1028.1945  1028.1939  398.002     1.463                 0.023          0.0233         31.67606  -64.131    2.076         2.408         5.8163    5.8843    401.173   36.4734     36.4722     17.8377            17.8419             17.8365            17.8408             
InVirTC4     2019-10-13T06:59:49Z    -0.0017      100.0424  4.752029        4.752007        1028.2049  1028.2024  398.989     -1.001                0.0201         0.0096         31.676    -64.13108  2.0499        2.3757        5.7381    5.8006    402.169   36.4541     36.4516     17.7551            17.7593             17.7576            17.7618             
InVirTC4     2019-10-13T06:59:49Z    -0.0012      100.0302  4.761613        4.761338        1028.2014  1028.2007  399.024     1.554                 0.0257         0.0218         31.67607  -64.131    2.077         2.408         5.8271    5.8866    402.203   36.4729     36.4715     17.8264            17.8307             17.8252            17.8295             
InVirTC4     2019-10-13T06:59:49Z    -0.0017      100.0438  4.748425        4.749262        1028.2095  1028.2103  399.985     -1.007                0.0215         0.0137         31.676    -64.13111  2.0497        2.3731        5.749     5.7948    403.173   36.4459     36.4485     17.7291            17.7333             17.7342            17.7385             
InVirTC4     2019-10-13T06:59:49Z    -0.0017      100.0429  4.760017        4.759754        1028.2069  1028.2065  400.106     1.131                 0.0284         0.0132         31.67608  -64.131    2.0755        2.4041        5.8217    5.8681    403.295   36.4697     36.4688     17.8141            17.8183             17.8126            17.8169             
InVirTC4     2019-10-13T06:59:49Z    -0.0017      100.0437  4.760116        4.759207        1028.2096  1028.2105  400.889     0.375                 0.0218         0.0199         31.67608  -64.13099  2.0706        2.3997        5.7939    5.8541    404.086   36.4692     36.4679     17.8153            17.8195             17.8079            17.8122             
InVirTC4     2019-10-13T06:59:49Z    -0.0018      100.045   4.74603         4.745961        1028.2131  1028.2201  401.006     -0.886                0.0259         0.0133         31.676    -64.13112  2.0479        2.3712        5.7396    5.7813    404.204   36.4393     36.4458     17.7128            17.7171             17.7049            17.7092             
InVirTC4     2019-10-13T06:59:49Z    -0.0018      100.0451  4.757761        4.757441        1028.2183  1028.2176  401.973     0.631                 0.0242         0.0169         31.67607  -64.13101  2.0685        2.3999        5.7931    5.8682    405.18    36.4674     36.4659     17.7941            17.7984             17.7927            17.797              
InVirTC4     2019-10-13T06:59:49Z    -0.0017      100.0443  4.746416        4.745976        1028.2241  1028.2224  402.028     -0.828                0.0275         0.0096         31.676    -64.13112  2.0456        2.3703        5.7284    5.7769    405.234   36.4464     36.4437     17.7083            17.7125             17.707             17.7113             
InVirTC4     2019-10-13T06:59:49Z    -0.0018      100.0448  4.754667        4.75437         1028.2271  1028.2263  403         0.955                 0.0235         0.0107         31.67606  -64.13101  2.0678        2.3982        5.8007    5.8599    406.216   36.4641     36.4627     17.7675            17.7718             17.7662            17.7705             
InVirTC4     2019-10-13T06:59:49Z    -0.0017      100.0443  4.743918        4.744556        1028.2329  1028.2298  403.031     -0.9                  0.023          0.0093         31.676    -64.13112  2.0452        2.3732        5.7287    5.7984    406.246   36.4446     36.4431     17.6857            17.6899             17.6935            17.6977             
InVirTC4     2019-10-13T06:59:49Z    -0.0017      100.0441  4.74253         4.74168         1028.2375  1028.2377  403.984     -1.061                0.0217         0.0096         31.67602  -64.13112  2.0447        2.3728        5.7286    5.8018    407.209   36.4417     36.4399     17.6751            17.6793             17.669             17.6732             
InVirTC4     2019-10-13T06:59:49Z    -0.0018      100.0448  4.751287        4.75103         1028.2355  1028.235   404.04      1.166                 0.0252         0.0132         31.67606  -64.13102  2.0643        2.3976        5.7836    5.8608    407.265   36.4598     36.4588     17.7393            17.7435             17.738             17.7422             
InVirTC4     2019-10-13T06:59:49Z    -0.0018      100.045   4.741654        4.740573        1028.2432  1028.2438  405.008     -0.967                0.0194         0.0182         31.67602  -64.13112  2.0448        2.3714        5.7303    5.7981    408.242   36.4407     36.4387     17.6673            17.6716             17.6591            17.6634             
InVirTC4     2019-10-13T06:59:49Z    -0.0018      100.0461  4.749132        4.748862        1028.2422  1028.2415  405.049     1.265                 0.0194         0.0169         31.67608  -64.13102  2.0636        2.395         5.7795    5.8551    408.282   36.4569     36.4557     17.7214            17.7256             17.7202            17.7244             
InVirTC4     2019-10-13T06:59:49Z    -0.0018      100.0461  4.747137        4.746858        1028.2484  1028.2477  406.001     1.269                 0.0229         0.0169         31.67608  -64.13102  2.0625        2.3917        5.7856    5.8402    409.243   36.4541     36.4528     17.7048            17.7091             17.7036            17.7078             
InVirTC4     2019-10-13T06:59:49Z    -0.0018      100.045   4.740897        4.740247        1028.2501  1028.2495  406.033     -0.794                0.0206         0.0169         31.67602  -64.13112  2.0446        2.3706        5.7339    5.7946    409.276   36.4411     36.439      17.6592            17.6634             17.6552            17.6594             
InVirTC4     2019-10-13T06:59:49Z    -0.0019      100.0486  4.745478        4.745228        1028.2537  1028.2531  407.008     1.244                 0.0235         0.0169         31.67608  -64.13102  2.0607        2.3891        5.7802    5.8322    410.259   36.451      36.4499     17.6919            17.6961             17.6907            17.6949             
InVirTC4     2019-10-13T06:59:49Z    -0.0022      100.0548  4.740924        4.740584        1028.2546  1028.253   407.009     -0.622                0.0152         0.0056         31.676    -64.13111  2.0444        2.3697        5.7357    5.791     410.26    36.4413     36.4389     17.6588            17.6631             17.6581            17.6624             
InVirTC4     2019-10-13T06:59:49Z    -0.0018      100.0461  4.744009        4.743737        1028.2601  1028.2595  408.033     1.154                 0.0247         0.0169         31.67608  -64.13101  2.0581        2.387         5.7694    5.8328    411.294   36.4493     36.4481     17.6792            17.6834             17.6778            17.6821             
InVirTC4     2019-10-13T06:59:49Z    -0.0019      100.0484  4.741469        4.74027         1028.2581  1028.258   408.062     -0.505                0.0203         0.0156         31.67601  -64.1311   2.0429        2.3694        5.7323    5.8024    411.323   36.4413     36.4385     17.6636            17.6678             17.6551            17.6594             
InVirTC4     2019-10-13T06:59:49Z    -0.0018      100.0454  4.741277        4.740742        1028.2616  1028.2608  408.963     -0.971                0.0174         0.0193         31.67602  -64.13111  2.0406        2.3644        5.7261    5.7884    412.232   36.4404     36.4384     17.6624            17.6666             17.6594            17.6637             
InVirTC4     2019-10-13T06:59:49Z    0.0058       99.8567   4.742559        4.742297        1028.265   1028.2645  409.018     0.755                 0.0272         0.0067         31.67608  -64.13101  2.054         2.3815        5.7542    5.814     412.288   36.4463     36.4453     17.668             17.6723             17.6667            17.6709             
InVirTC4     2019-10-13T06:59:49Z    -0.0018      100.0461  4.739803        4.739235        1028.2672  1028.2658  409.941     -1.435                0.0237         0.0169         31.67602  -64.13112  2.0377        2.3597        5.7144    5.769     413.219   36.4381     36.4354     17.6503            17.6545             17.6478            17.652              
InVirTC4     2019-10-13T06:59:49Z    -0.0019      100.0484  4.742267        4.74197         1028.2688  1028.2684  409.962     0.543                 0.0285         0.0096         31.67608  -64.13103  2.0503        2.3777        5.7429    5.8089    413.24    36.4453     36.4442     17.666             17.6702             17.6643            17.6685             
InVirTC4     2019-10-13T06:59:49Z    -0.0018      100.0461  4.738462        4.737545        1028.2703  1028.2721  410.989     -1.446                0.025          0.0169         31.67602  -64.1311   2.0374        2.3578        5.7162    5.7589    414.277   36.4334     36.433      17.6421            17.6463             17.6337            17.6379             
InVirTC4     2019-10-13T06:59:49Z    -0.0018      100.0461  4.742175        4.741937        1028.2733  1028.2727  410.999     0.79                  0.0303         0.0188         31.67608  -64.13102  2.0493        2.3742        5.7473    5.7946    414.286   36.4449     36.4438     17.6651            17.6693             17.664             17.6683             
InVirTC4     2019-10-13T06:59:49Z    -0.0017      100.0444  4.73717         4.735221        1028.2761  1028.2791  411.971     -1.302                0.0231         0.0169         31.67602  -64.13112  2.0361        2.3562        5.712     5.7582    415.267   36.4318     36.4301     17.631             17.6352             17.6141            17.6183             
InVirTC4     2019-10-13T06:59:49Z    -0.0018      100.0461  4.742073        4.741897        1028.2779  1028.2773  411.997     0.987                 0.0241         0.0166         31.67608  -64.13104  2.0498        2.3747        5.7526    5.805     415.294   36.4448     36.4438     17.6638            17.6681             17.6632            17.6674             
InVirTC4     2019-10-13T06:59:49Z    -0.0017      100.0447  4.734776        4.733702        1028.2818  1028.2849  412.978     -1.079                0.0266         0.0169         31.67602  -64.13114  2.0352        2.3573        5.7089    5.7651    416.283   36.4274     36.4279     17.6124            17.6166             17.6015            17.6057             
InVirTC4     2019-10-13T06:59:49Z    -0.0018      100.0461  4.741345        4.741237        1028.284   1028.2832  412.999     1.068                 0.0246         0.0119         31.67608  -64.13102  2.0498        2.3726        5.7582    5.801     416.305   36.4446     36.4436     17.6566            17.6608             17.6567            17.6609             
InVirTC4     2019-10-13T06:59:49Z    -0.0017      100.0426  4.733517        4.732774        1028.2921  1028.2921  414.027     -0.795                0.0265         0.0215         31.67602  -64.13114  2.0346        2.3563        5.7072    5.7624    417.341   36.4297     36.428      17.5972            17.6014             17.5919            17.5961             
InVirTC4     2019-10-13T06:59:49Z    -0.0018      100.0461  4.739655        4.739419        1028.2906  1028.29    414.031     1.035                 0.022          0.0194         31.67608  -64.13102  2.0482        2.3725        5.7477    5.8016    417.345   36.4425     36.4414     17.6421            17.6464             17.6411            17.6453             
InVirTC4     2019-10-13T06:59:49Z    -0.0017      100.0447  4.738791        4.73853         1028.2952  1028.2947  415.015     0.804                 0.0233         0.0199         31.67608  -64.13102  2.0465        2.3715        5.7399    5.8033    418.339   36.4407     36.4396     17.6354            17.6397             17.6341            17.6384             
InVirTC4     2019-10-13T06:59:49Z    -0.0017      100.0427  4.732315        4.731552        1028.2976  1028.2975  415.05      -0.567                0.0257         0.0148         31.67602  -64.1311   2.0343        2.3562        5.7053    5.7643    418.374   36.4278     36.4259     17.5872            17.5915             17.582             17.5862             
InVirTC4     2019-10-13T06:59:49Z    -0.0018      100.0452  4.737742        4.737494        1028.3006  1028.3001  415.937     0.653                 0.0232         0.0111         31.67608  -64.13103  2.0465        2.3685        5.7483    5.7885    419.269   36.4394     36.4384     17.6263            17.6305             17.6251            17.6293             
InVirTC4     2019-10-13T06:59:49Z    -0.0017      100.0444  4.732069        4.731358        1028.3039  1028.3037  416.012     -0.51                 0.0271         0.0175         31.67602  -64.1311   2.0349        2.3554        5.7132    5.7605    419.344   36.4291     36.4273     17.583             17.5872             17.5782            17.5824             
InVirTC4     2019-10-13T06:59:49Z    -0.0017      100.043   4.736882        4.736646        1028.3065  1028.3058  416.974     0.874                 0.0227         0.0096         31.67608  -64.13104  2.0458        2.3686        5.7467    5.7936    420.315   36.4386     36.4374     17.6185            17.6227             17.6175            17.6218             
InVirTC4     2019-10-13T06:59:49Z    -0.0017      100.0436  4.733254        4.732945        1028.3066  1028.3057  417.039     -0.454                0.0228         0.0113         31.67602  -64.13114  2.0339        2.355         5.7197    5.7742    420.38    36.43       36.4285     17.593             17.5972             17.5917            17.5959             
InVirTC4     2019-10-13T06:59:49Z    -0.0018      100.0454  4.73313         4.732628        1028.3093  1028.3079  417.889     -1.19                 0.0208         0.012          31.67603  -64.13112  2.0287        2.3481        5.699     5.7493    421.239   36.4287     36.4261     17.5929            17.5971             17.5909            17.5951             
InVirTC4     2019-10-13T06:59:49Z    -0.0014      100.0357  4.736085        4.735815        1028.3114  1028.311   417.998     1.194                 0.023          0.0081         31.67608  -64.13104  2.0443        2.3701        5.7391    5.8076    421.348   36.437      36.436      17.6121            17.6163             17.6106            17.6148             
InVirTC4     2019-10-13T06:59:49Z    -0.0017      100.0447  4.730996        4.729613        1028.3167  1028.317   418.997     -1.518                0.0208         0.0023         31.67602  -64.13114  2.0253        2.3448        5.6866    5.738     422.356   36.426      36.423      17.5748            17.5791             17.5648            17.569              
InVirTC4     2019-10-13T06:59:49Z    0.0019       99.9521   4.735884        4.73563         1028.3162  1028.3157  419.01      1.491                 0.0202         0.0023         31.67608  -64.13104  2.0435        2.3711        5.7346    5.8163    422.369   36.4368     36.4358     17.6099            17.6142             17.6087            17.6129             
InVirTC4     2019-10-13T06:59:49Z    -0.0017      100.0444  4.730121        4.728959        1028.3206  1028.3204  420.007     -1.449                0.021          0.0023         31.67603  -64.13111  2.0245        2.3427        5.6842    5.7313    423.376   36.4234     36.4205     17.5688            17.5731             17.5609            17.5651             
InVirTC4     2019-10-13T06:59:49Z    -0.0005      100.014   4.734953        4.734695        1028.3219  1028.3214  420.048     1.676                 0.021          0.0079         31.67609  -64.13104  2.0419        2.3706        5.7283    5.8147    423.416   36.4357     36.4346     17.6018            17.606              17.6005            17.6048             
InVirTC4     2019-10-13T06:59:49Z    -0.0017      100.043   4.728415        4.72776         1028.3237  1028.3277  421.027     -1.311                0.0233         0.0023         31.67604  -64.13111  2.0229        2.3418        5.6825    5.7307    424.404   36.418      36.4203     17.5579            17.5621             17.549             17.5532             
InVirTC4     2019-10-13T06:59:49Z    -0.0017      100.044   4.735423        4.734805        1028.3239  1028.324   421.097     0.587                 0.0236         0.0168         31.6761   -64.13103  2.0398        2.3659        5.7241    5.7881    424.475   36.4341     36.4328     17.6076            17.6118             17.6031            17.6074             
InVirTC4     2019-10-13T06:59:49Z    -0.0016      100.0402  4.735079        4.733878        1028.3298  1028.3309  421.956     0.424                 0.0199         0.0169         31.67608  -64.13106  2.0368        2.3624        5.7157    5.7802    425.342   36.4353     36.4336     17.6026            17.6069             17.5929            17.5971             
InVirTC4     2019-10-13T06:59:49Z    -0.0017      100.0429  4.727229        4.727021        1028.3304  1028.3312  422.024     -1.15                 0.0258         0.0228         31.67604  -64.13114  2.0224        2.3412        5.6847    5.7276    425.41    36.4174     36.4176     17.5467            17.551              17.5445            17.5487             
InVirTC4     2019-10-13T06:59:49Z    -0.0018      100.0461  4.731916        4.73125         1028.3399  1028.3381  422.986     0.984                 0.0204         0.0169         31.67608  -64.13106  2.0366        2.3626        5.7173    5.7867    426.382   36.4332     36.4299     17.574             17.5782             17.5712            17.5754             
InVirTC4     2019-10-13T06:59:49Z    -0.0017      100.0447  4.725979        4.724675        1028.3376  1028.3398  423.008     -0.991                0.0227         0.0204         31.67604  -64.13114  2.0206        2.3399        5.6703    5.7218    426.403   36.4171     36.4162     17.5345            17.5387             17.523             17.5272             
InVirTC4     2019-10-13T06:59:49Z    -0.0017      100.0444  4.730822        4.730565        1028.3432  1028.3425  423.997     1.284                 0.0211         0.0169         31.67608  -64.13106  2.0365        2.3624        5.7233    5.7905    427.402   36.4295     36.4282     17.5671            17.5713             17.5661            17.5703             
InVirTC4     2019-10-13T06:59:49Z    -0.0018      100.0451  4.724935        4.723418        1028.3464  1028.3451  424.002     -0.85                 0.0207         0.0169         31.67604  -64.13113  2.0184        2.3397        5.657     5.7243    427.406   36.4188     36.4141     17.5222            17.5264             17.5127            17.5169             
InVirTC4     2019-10-13T06:59:49Z    -0.0017      100.0429  4.730747        4.730436        1028.3475  1028.3468  425.012     1.463                 0.0234         0.0128         31.67608  -64.13106  2.0357        2.3607        5.7203    5.7838    428.426   36.429      36.4276     17.5665            17.5707             17.565             17.5693             
InVirTC4     2019-10-13T06:59:49Z    -0.0018      100.0452  4.724795        4.722214        1028.3505  1028.3526  425.051     -0.685                0.0243         0.0169         31.67602  -64.13112  2.0199        2.3404        5.671     5.7335    428.465   36.4179     36.414      17.5213            17.5255             17.5008            17.505              
InVirTC4     2019-10-13T06:59:49Z    -0.0017      100.0432  4.724078        4.722287        1028.3558  1028.3564  426.02      -0.63                 0.0234         0.0124         31.67604  -64.13112  2.0199        2.3393        5.6802    5.7296    429.443   36.4171     36.4136     17.5148            17.519              17.5015            17.5057             
InVirTC4     2019-10-13T06:59:49Z    -0.0017      100.043   4.730733        4.730436        1028.352   1028.3514  426.033     1.548                 0.0262         0.0096         31.6761   -64.13104  2.0355        2.3599        5.7186    5.7774    429.456   36.4288     36.4276     17.566             17.5703             17.5646            17.5688             
InVirTC4     2019-10-13T06:59:49Z    -0.0016      100.0416  4.730157        4.729868        1028.3575  1028.357   427.027     1.415                 0.0247         0.0023         31.6761   -64.13104  2.0348        2.3585        5.718     5.7744    430.459   36.4286     36.4274     17.5604            17.5646             17.5589            17.5631             
InVirTC4     2019-10-13T06:59:49Z    -0.0017      100.0431  4.723764        4.722529        1028.3605  1028.3616  427.082     -0.34                 0.0282         0.0162         31.67604  -64.13112  2.0165        2.3381        5.6627    5.7337    430.515   36.4164     36.4145     17.5122            17.5164             17.5023            17.5065             
InVirTC4     2019-10-13T06:59:49Z    -0.0018      100.0456  4.724903        4.724185        1028.3623  1028.3617  427.896     -0.817                0.0212         0.0135         31.67604  -64.13114  2.0139        2.3319        5.6617    5.7105    431.337   36.4172     36.4149     17.5219            17.5261             17.5176            17.5218             
InVirTC4     2019-10-13T06:59:49Z    -0.0012      100.0301  4.728739        4.728393        1028.3629  1028.3624  428.021     0.901                 0.0188         0.0158         31.6761   -64.13104  2.0329        2.3556        5.7104    5.7657    431.462   36.4261     36.4248     17.549             17.5532             17.5471            17.5513             
InVirTC4     2019-10-13T06:59:49Z    -0.0011      100.0286  4.727748        4.727424        1028.3681  1028.3676  428.939     0.533                 0.021          0.0169         31.67609  -64.13107  2.0296        2.3527        5.6963    5.76      432.389   36.4249     36.4236     17.5404            17.5446             17.5387            17.5429             
InVirTC4     2019-10-13T06:59:49Z    -0.0018      100.0449  4.722822        4.721038        1028.3673  1028.3688  428.946     -1.583                0.026          0.0222         31.67604  -64.13113  2.0087        2.3282        5.6326    5.7029    432.396   36.4126     36.41       17.5065            17.5107             17.4922            17.4964             
InVirTC4     2019-10-13T06:59:49Z    -0.0018      100.0461  4.726656        4.726392        1028.3737  1028.3731  429.956     0.683                 0.0289         0.0023         31.67608  -64.13108  2.0282        2.3505        5.6953    5.752     433.414   36.4233     36.4221     17.5312            17.5354             17.5299            17.5341             
InVirTC4     2019-10-13T06:59:49Z    -0.0017      100.0444  4.720664        4.718453        1028.3722  1028.3741  429.997     -1.61                 0.026          0.0242         31.67604  -64.13112  2.0078        2.3281        5.6278    5.7058    433.456   36.4078     36.4045     17.4906            17.4948             17.4728            17.477              
InVirTC4     2019-10-13T06:59:49Z    -0.0017      100.0447  4.726077        4.725806        1028.3787  1028.378   430.96      0.952                 0.0268         0.0088         31.6761   -64.13106  2.0278        2.3504        5.6994    5.7607    434.428   36.4224     36.4211     17.5261            17.5303             17.525             17.5292             
InVirTC4     2019-10-13T06:59:49Z    -0.0017      100.0444  4.717167        4.71699         1028.378   1028.3833  431.025     -1.43                 0.021          0.0242         31.67604  -64.13112  2.0079        2.3263        5.6328    5.6964    434.493   36.4008     36.4055     17.464             17.4682             17.4572            17.4614             
InVirTC4     2019-10-13T06:59:49Z    -0.0017      100.0447  4.724852        4.724639        1028.3858  1028.3851  431.964     1.187                 0.0233         0.0058         31.6761   -64.13105  2.0265        2.3495        5.695     5.76      435.441   36.4221     36.4209     17.5142            17.5185             17.5135            17.5177             
InVirTC4     2019-10-13T06:59:49Z    -0.0017      100.0442  4.714028        4.714598        1028.3898  1028.3884  432.02      -1.154                0.0191         0.0242         31.67606  -64.13114  2.0081        2.3246        5.6437    5.6887    435.498   36.4005     36.4006     17.4336            17.4378             17.4391            17.4432             
InVirTC4     2019-10-13T06:59:49Z    -0.0018      100.0461  4.712826        4.712884        1028.3979  1028.3962  433.02      -0.79                 0.0211         0.0227         31.67606  -64.13114  2.009         2.3244        5.6565    5.693     436.506   36.4012     36.3997     17.4208            17.425              17.423             17.4272             
InVirTC4     2019-10-13T06:59:49Z    -0.0018      100.0461  4.723015        4.722692        1028.3921  1028.3915  433.05      1.27                  0.0199         0.0045         31.67611  -64.13104  2.0249        2.3476        5.6876    5.7516    436.537   36.4191     36.4178     17.4993            17.5035             17.4977            17.5019             
InVirTC4     2019-10-13T06:59:49Z    -0.0017      100.044   4.72196         4.721633        1028.3964  1028.3959  434.025     0.79                  0.0222         0.0135         31.6761   -64.13106  2.0213        2.3443        5.6731    5.7408    437.521   36.4166     36.4154     17.4916            17.4958             17.4897            17.4939             
InVirTC4     2019-10-13T06:59:49Z    -0.0018      100.0461  4.71273         4.711289        1028.4036  1028.4033  434.091     -0.39                 0.0244         0.0123         31.67605  -64.13113  2.0073        2.3252        5.6461    5.7023    437.588   36.4019     36.3982     17.4187            17.4228             17.4088            17.413              
InVirTC4     2019-10-13T06:59:49Z    -0.0023      100.0589  4.712536        4.712568        1028.4067  1028.4063  434.937     -0.533                0.0286         0.0111         31.67604  -64.13114  2.0051        2.3231        5.6341    5.6946    438.441   36.4007     36.4004     17.4178            17.4219             17.4184            17.4225             
InVirTC4     2019-10-13T06:59:49Z    -0.0018      100.0452  4.72053         4.720199        1028.4024  1028.4019  434.94      0.503                 0.0188         0.0096         31.67609  -64.13109  2.0192        2.3372        5.6714    5.7094    438.444   36.4151     36.4138     17.479             17.4832             17.4772            17.4814             
InVirTC4     2019-10-13T06:59:49Z    -0.0019      100.0474  4.719073        4.718791        1028.409   1028.4083  435.968     0.82                  0.021          0.0114         31.67608  -64.1311   2.0173        2.3372        5.6667    5.7237    439.482   36.4136     36.4123     17.4661            17.4703             17.4648            17.469              
InVirTC4     2019-10-13T06:59:49Z    -0.0018      100.0461  4.711139        4.711199        1028.4115  1028.4098  436.004     -0.813                0.0298         0.0145         31.67605  -64.13113  2.0042        2.3216        5.6387    5.697     439.518   36.3974     36.396      17.4074            17.4116             17.4096            17.4137             
InVirTC4     2019-10-13T06:59:49Z    -0.0018      100.0461  4.717603        4.71733         1028.4149  1028.4143  436.98      1.122                 0.0209         0.0242         31.67609  -64.13109  2.0165        2.3384        5.6649    5.7397    440.503   36.4115     36.4103     17.4538            17.458              17.4525            17.4567             
InVirTC4     2019-10-13T06:59:49Z    -0.0018      100.0461  4.71014         4.709295        1028.4178  1028.4167  437.006     -0.88                 0.0242         0.0031         31.67606  -64.13112  2.0024        2.319         5.6319    5.6914    440.529   36.3968     36.3938     17.398             17.4021             17.3931            17.3973             
InVirTC4     2019-10-13T06:59:49Z    -0.0017      100.0444  4.716943        4.716652        1028.4197  1028.419   437.972     1.382                 0.0203         0.0208         31.6761   -64.13108  2.0159        2.3372        5.6655    5.7365    441.504   36.4103     36.4089     17.4484            17.4526             17.4471            17.4513             
InVirTC4     2019-10-13T06:59:49Z    -0.0018      100.0461  4.708596        4.707036        1028.4238  1028.4241  437.991     -1.004                0.0201         0.0096         31.67606  -64.13112  2.0003        2.317         5.625     5.6842    441.523   36.3947     36.3915     17.3849            17.3891             17.3734            17.3776             
InVirTC4     2019-10-13T06:59:49Z    -0.0017      100.0446  4.71604         4.715774        1028.4259  1028.4253  439.01      1.553                 0.0217         0.0169         31.67612  -64.13106  2.0156        2.3368        5.6682    5.733     442.552   36.4097     36.4084     17.4399            17.444              17.4387            17.4429             
InVirTC4     2019-10-13T06:59:49Z    -0.0017      100.0439  4.70804         4.706468        1028.4267  1028.43    439.03      -1.034                0.023          0.0084         31.67604  -64.13116  1.9998        2.314         5.6246    5.6695    442.572   36.3918     36.3913     17.3824            17.3866             17.3677            17.3718             
InVirTC4     2019-10-13T06:59:49Z    -0.0021      100.0532  4.706494        4.705146        1028.4333  1028.4346  440.011     -1.017                0.0229         0.0023         31.67604  -64.13114  1.9985        2.3148        5.6194    5.6749    443.562   36.3902     36.3884     17.3687            17.3729             17.3577            17.3618             
InVirTC4     2019-10-13T06:59:49Z    -0.0018      100.0453  4.713595        4.713383        1028.433   1028.4318  440.128     1.391                 0.0226         0.0105         31.67612  -64.13106  2.0137        2.334         5.6621    5.7216    443.68    36.406      36.4044     17.4198            17.424              17.4196            17.4238             
InVirTC4     2019-10-13T06:59:49Z    -0.0017      100.044   4.715904        4.714871        1028.4307  1028.4321  440.745     0.312                 0.0221         0.0184         31.6761   -64.13108  2.0112        2.3303        5.6523    5.7098    444.302   36.4064     36.4054     17.4414            17.4456             17.4326            17.4367             
InVirTC4     2019-10-13T06:59:49Z    -0.0027      100.0667  4.705241        4.704379        1028.4405  1028.4415  440.991     -0.98                 0.0289         0.016          31.67606  -64.13114  1.9981        2.3144        5.6228    5.6754    444.55    36.39       36.389      17.3564            17.3605             17.3492            17.3533             
InVirTC4     2019-10-13T06:59:49Z    -0.0018      100.0461  4.712892        4.711735        1028.444   1028.442   441.981     0.767                 0.021          0.0242         31.67608  -64.1311   2.0111        2.3296        5.6603    5.7154    445.55    36.4069     36.4023     17.4112            17.4154             17.4051            17.4093             
InVirTC4     2019-10-13T06:59:49Z    -0.0025      100.0627  4.704842        4.704059        1028.4454  1028.4458  442.004     -0.896                0.0322         0.023          31.67606  -64.13114  1.9972        2.315         5.6233    5.6803    445.573   36.3895     36.388      17.3527            17.3569             17.3467            17.3509             
InVirTC4     2019-10-13T06:59:49Z    -0.0017      100.0444  4.71072         4.71041         1028.449   1028.4483  443.004     1.236                 0.0215         0.0242         31.67609  -64.1311   2.0111        2.3285        5.6631    5.7146    446.582   36.4022     36.4008     17.395             17.3991             17.3935            17.3977             
InVirTC4     2019-10-13T06:59:49Z    -0.002       100.0519  4.704764        4.704252        1028.4503  1028.4489  443.019     -0.724                0.0333         0.012          31.67606  -64.13112  1.9958        2.3144        5.6183    5.6819    446.597   36.3896     36.3871     17.3514            17.3556             17.3492            17.3534             
InVirTC4     2019-10-13T06:59:49Z    -0.0013      100.0341  4.709401        4.709119        1028.4548  1028.454   444.017     1.534                 0.0207         0.0242         31.6761   -64.1311   2.0107        2.3279        5.6632    5.7122    447.605   36.4004     36.3989     17.3838            17.388              17.3827            17.3869             
InVirTC4     2019-10-13T06:59:49Z    -0.0027      100.0678  4.705147        4.703936        1028.454   1028.4538  444.037     -0.458                0.0257         0.0159         31.67606  -64.13114  1.9935        2.3137        5.6049    5.6922    447.625   36.3897     36.3866     17.3546            17.3587             17.3462            17.3504             
InVirTC4     2019-10-13T06:59:49Z    -0.0028      100.069   4.70428         4.703645        1028.4583  1028.4574  444.913     -0.871                0.0275         0.0099         31.67606  -64.13114  1.9923        2.3071        5.6045    5.6674    448.508   36.388      36.3856     17.3477            17.3518             17.3441            17.3483             
InVirTC4     2019-10-13T06:59:49Z    -0.0009      100.0233  4.708498        4.708253        1028.4597  1028.4591  445.017     1.687                 0.0174         0.0219         31.6761   -64.13108  2.0091        2.3273        5.6554    5.7117    448.614   36.3987     36.3975     17.3766            17.3808             17.3755            17.3796             
InVirTC4     2019-10-13T06:59:49Z    -0.0028      100.0708  4.700558        4.700352        1028.4634  1028.464   445.94      -1.337                0.0253         0.0238         31.67606  -64.13114  1.9907        2.3024        5.6022    5.6465    449.545   36.3799     36.38       17.3202            17.3244             17.3181            17.3223             
InVirTC4     2019-10-13T06:59:49Z    -0.002       100.0515  4.707723        4.707438        1028.4644  1028.4639  446.069     1.559                 0.0162         0.0175         31.67611  -64.13108  2.0068        2.3255        5.641     5.7059    449.675   36.3968     36.3956     17.3707            17.3749             17.3692            17.3734             
InVirTC4     2019-10-13T06:59:49Z    -0.0021      100.0533  4.707393        4.707251        1028.4682  1028.4674  446.981     0.784                 0.0225         0.0205         31.67611  -64.13107  2.0038        2.3222        5.6304    5.6933    450.595   36.3957     36.3946     17.3683            17.3725             17.3681            17.3723             
InVirTC4     2019-10-13T06:59:49Z    -0.0028      100.0707  4.699235        4.69818         1028.4693  1028.4721  446.984     -1.155                0.0255         0.0173         31.67606  -64.13115  1.9904        2.3009        5.6055    5.643     450.599   36.3779     36.3782     17.3092            17.3133             17.2986            17.3028             
InVirTC4     2019-10-13T06:59:49Z    -0.0024      100.0595  4.706995        4.706721        1028.4729  1028.4724  447.967     0.568                 0.0261         0.0169         31.6761   -64.13109  2.0036        2.3184        5.6425    5.6818    451.591   36.3951     36.3939     17.3647            17.3689             17.3633            17.3675             
InVirTC4     2019-10-13T06:59:49Z    -0.0028      100.0694  4.697336        4.696922        1028.4784  1028.4789  448.019     -0.855                0.0271         0.0204         31.67606  -64.13115  1.9895        2.3009        5.6075    5.6477    451.643   36.3778     36.3773     17.2904            17.2945             17.2869            17.2911             
InVirTC4     2019-10-13T06:59:49Z    -0.0023      100.0586  4.706463        4.706192        1028.4777  1028.4771  448.959     0.742                 0.0219         0.0183         31.6761   -64.13108  2.0021        2.3174        5.6333    5.6848    452.591   36.3942     36.393      17.3602            17.3643             17.3589            17.363              
InVirTC4     2019-10-13T06:59:49Z    -0.0029      100.0712  4.697266        4.696805        1028.4858  1028.4828  449.053     -0.629                0.028          0.0207         31.67606  -64.13112  1.9878        2.3008        5.5958    5.6484    452.686   36.3803     36.3763     17.2866            17.2907             17.2865            17.2907             
InVirTC4     2019-10-13T06:59:49Z    -0.0029      100.0721  4.696581        4.69586         1028.4873  1028.4872  449.974     -0.901                0.0278         0.0169         31.67606  -64.13114  1.9862        2.2996        5.5897    5.649     453.616   36.3761     36.3744     17.2842            17.2883             17.2791            17.2832             
InVirTC4     2019-10-13T06:59:49Z    -0.0028      100.0689  4.705767        4.705503        1028.4836  1028.4831  450.012     0.923                 0.0215         0.0209         31.6761   -64.13108  2.0023        2.3153        5.6375    5.6798    453.654   36.3937     36.3926     17.3536            17.3577             17.3522            17.3564             
InVirTC4     2019-10-13T06:59:49Z    -0.0028      100.0687  4.694255        4.693164        1028.4943  1028.4958  450.992     -1.082                0.024          0.0026         31.67606  -64.13114  1.9858        2.2982        5.5967    5.6489    454.644   36.3731     36.372      17.2646            17.2687             17.2552            17.2593             
InVirTC4     2019-10-13T06:59:49Z    -0.0019      100.0486  4.704404        4.704136        1028.4898  1028.4892  451.042     1.061                 0.0166         0.0023         31.6761   -64.1311   2.0023        2.3139        5.6436    5.6728    454.694   36.392      36.3908     17.3418            17.3459             17.3405            17.3446             
InVirTC4     2019-10-13T06:59:49Z    -0.0029      100.0721  4.693044        4.691689        1028.5005  1028.502   451.994     -0.993                0.0233         0.0079         31.67606  -64.13114  1.9851        2.2962        5.5968    5.6367    455.654   36.3719     36.3702     17.2537            17.2579             17.2425            17.2466             
InVirTC4     2019-10-13T06:59:49Z    -0.0026      100.0653  4.702917        4.702649        1028.4957  1028.4951  452.018     1.1                   0.0208         0.0023         31.6761   -64.1311   2.001         2.3146        5.6358    5.6844    455.679   36.39       36.3888     17.3291            17.3333             17.3279            17.332              
InVirTC4     2019-10-13T06:59:49Z    -0.0021      100.0539  4.701652        4.701371        1028.5011  1028.5006  453.007     0.984                 0.021          0.0203         31.6761   -64.1311   2.0013        2.3149        5.64      5.6921    456.677   36.388      36.3868     17.3187            17.3229             17.3173            17.3215             
InVirTC4     2019-10-13T06:59:49Z    -0.003       100.0743  4.692197        4.691164        1028.5066  1028.5072  453.008     -0.78                 0.0227         0.0096         31.67606  -64.13114  1.9831        2.2951        5.5893    5.6361    456.678   36.3714     36.3696     17.2457            17.2498             17.2376            17.2418             
InVirTC4     2019-10-13T06:59:49Z    -0.0028      100.0692  4.700131        4.699792        1028.5073  1028.5069  453.979     0.832                 0.0236         0.0169         31.6761   -64.1311   1.9996        2.3112        5.6342    5.6712    457.657   36.3863     36.3851     17.3055            17.3096             17.3036            17.3077             
InVirTC4     2019-10-13T06:59:49Z    -0.0029      100.0721  4.691415        4.690162        1028.5124  1028.513   454.043     -0.382                0.0254         0.0142         31.67606  -64.13114  1.9814        2.2958        5.5832    5.6483    457.722   36.3707     36.3684     17.2384            17.2425             17.2288            17.2329             
InVirTC4     2019-10-13T06:59:49Z    -0.003       100.0737  4.691591        4.691069        1028.5152  1028.5138  454.865     -0.869                0.0205         0.0126         31.67606  -64.13114  1.979         2.2914        5.5753    5.6345    458.552   36.3702     36.3676     17.2403            17.2444             17.238             17.2422             
InVirTC4     2019-10-13T06:59:49Z    -0.0027      100.0676  4.699502        4.699252        1028.5123  1028.5118  454.998     0.903                 0.0275         0.0239         31.6761   -64.13109  1.9972        2.3107        5.6213    5.6699    458.686   36.3852     36.3841     17.3002            17.3043             17.299             17.3031             
InVirTC4     2019-10-13T06:59:49Z    -0.0032      100.0786  4.687224        4.686621        1028.5257  1028.5234  455.991     -1.644                0.0258         0.0096         31.67606  -64.13114  1.9764        2.2868        5.5661    5.6139    459.689   36.3653     36.3618     17.2029            17.207              17.2009            17.2051             
InVirTC4     2019-10-13T06:59:49Z    -0.0027      100.0671  4.697288        4.697023        1028.5203  1028.5197  456.014     1.062                 0.0251         0.0242         31.6761   -64.13112  1.9952        2.3103        5.6144    5.6808    459.712   36.3833     36.3822     17.2803            17.2845             17.2791            17.2832             
InVirTC4     2019-10-13T06:59:49Z    -0.003       100.0756  4.685313        4.683987        1028.5283  1028.5317  457.014     -1.52                 0.0278         0.0091         31.67607  -64.13114  1.9758        2.2863        5.5705    5.6165    460.721   36.3589     36.3592     17.191             17.1951             17.1778            17.182              
InVirTC4     2019-10-13T06:59:49Z    -0.0028      100.0704  4.696127        4.695837        1028.5247  1028.5242  457.03      1.052                 0.0254         0.0188         31.6761   -64.13111  1.9932        2.3097        5.6099    5.6794    460.737   36.3804     36.3793     17.2719            17.276              17.2704            17.2745             
InVirTC4     2019-10-13T06:59:49Z    -0.0029      100.0721  4.695126        4.694888        1028.53    1028.5294  457.978     0.759                 0.0319         0.0221         31.6761   -64.13108  1.9908        2.3081        5.6049    5.6722    461.693   36.3791     36.378      17.2632            17.2674             17.2621            17.2663             
InVirTC4     2019-10-13T06:59:49Z    -0.003       100.074   4.682569        4.68094         1028.5348  1028.5385  458.038     -1.32                 0.0292         0.0096         31.67608  -64.13114  1.976         2.2864        5.5757    5.6212    461.754   36.3544     36.3542     17.1689            17.1731             17.1534            17.1575             
InVirTC4     2019-10-13T06:59:49Z    -0.0028      100.07    4.692532        4.692297        1028.5379  1028.5374  459.001     0.765                 0.0247         0.016          31.6761   -64.13108  1.9887        2.3075        5.5981    5.6764    462.726   36.3763     36.3753     17.2408            17.245              17.2396            17.2438             
InVirTC4     2019-10-13T06:59:49Z    -0.0033      100.0819  4.680169        4.678902        1028.5433  1028.545   459.003     -1.093                0.0243         0.0096         31.67608  -64.13114  1.9752        2.2871        5.5711    5.6258    462.728   36.353      36.3516     17.1469            17.151              17.1361            17.1402             
InVirTC4     2019-10-13T06:59:49Z    -0.0038      100.0955  4.679668        4.678318        1028.5514  1028.553   460.024     -0.782                0.0264         0.0052         31.67608  -64.13114  1.9735        2.2864        5.5647    5.6235    463.759   36.3551     36.3535     17.1391            17.1433             17.1279            17.132              
InVirTC4     2019-10-13T06:59:49Z    -0.0028      100.0698  4.691552        4.6913          1028.5438  1028.5433  460.026     0.953                 0.0202         0.0096         31.6761   -64.13111  1.9867        2.3049        5.5945    5.6665    463.76    36.3752     36.3743     17.232             17.2362             17.2307            17.2348             
InVirTC4     2019-10-13T06:59:49Z    -0.0027      100.0686  4.690274        4.690044        1028.5512  1028.5506  461.03      1.063                 0.0205         0.0166         31.6761   -64.13112  1.9854        2.3035        5.5902    5.6605    464.774   36.3751     36.3739     17.2194            17.2235             17.2184            17.2226             
InVirTC4     2019-10-13T06:59:49Z    -0.0039      100.0973  4.680297        4.679537        1028.5564  1028.5558  461.077     -0.384                0.0228         0.0023         31.67608  -64.13114  1.9735        2.2868        5.5694    5.6308    464.822   36.3568     36.3544     17.1429            17.147              17.1382            17.1423             
InVirTC4     2019-10-13T06:59:49Z    -0.0038      100.0959  4.679281        4.678007        1028.5593  1028.5593  461.907     -0.737                0.0232         0.0147         31.67606  -64.13116  1.9719        2.2848        5.5611    5.6263    465.659   36.3536     36.3507     17.1362            17.1404             17.1271            17.1312             
InVirTC4     2019-10-13T06:59:49Z    -0.003       100.0744  4.687358        4.687123        1028.5589  1028.5582  462.021     1.076                 0.0187         0.0223         31.6761   -64.13112  1.9847        2.3002        5.5958    5.6523    465.774   36.3715     36.3702     17.1947            17.1988             17.1938            17.1979             
InVirTC4     2019-10-13T06:59:49Z    -0.0038      100.0958  4.67583         4.674485        1028.5675  1028.5661  462.999     -1.161                0.0239         0.0242         31.67606  -64.13114  1.9714        2.2828        5.5667    5.6238    466.761   36.3488     36.3444     17.1076            17.1117             17.0995            17.1036             
InVirTC4     2019-10-13T06:59:49Z    -0.0029      100.073   4.683993        4.683723        1028.5663  1028.5657  463.047     1.017                 0.021          0.0187         31.6761   -64.13112  1.9836        2.299         5.5948    5.6541    466.81    36.3663     36.3651     17.1674            17.1715             17.1661            17.1702             
InVirTC4     2019-10-13T06:59:49Z    -0.0032      100.0791  4.682732        4.682444        1028.5706  1028.5701  463.974     0.711                 0.0282         0.0169         31.67611  -64.13112  1.9809        2.295         5.5832    5.6417    467.745   36.3635     36.3624     17.1578            17.1619             17.1563            17.1604             
InVirTC4     2019-10-13T06:59:49Z    -0.0038      100.0954  4.674903        4.673645        1028.5722  1028.5731  464.009     -0.996                0.0254         0.0238         31.67608  -64.13116  1.9698        2.2821        5.5655    5.6263    467.78    36.3468     36.3448     17.1004            17.1045             17.0905            17.0946             
InVirTC4     2019-10-13T06:59:49Z    -0.0038      100.0944  4.681953        4.681708        1028.5759  1028.5752  464.954     0.633                 0.0251         0.0198         31.67612  -64.13111  1.9795        2.2922        5.5836    5.6348    468.734   36.3626     36.3614     17.1509            17.155              17.1499            17.154              
InVirTC4     2019-10-13T06:59:49Z    -0.0039      100.0969  4.674879        4.674165        1028.5777  1028.5776  464.984     -0.601                0.0222         0.0159         31.67608  -64.13116  1.9691        2.2809        5.5661    5.623     468.764   36.3478     36.3461     17.0987            17.1028             17.0936            17.0977             
InVirTC4     2019-10-13T06:59:49Z    -0.0033      100.0832  4.680882        4.680702        1028.5814  1028.5804  465.998     0.897                 0.024          0.0214         31.67611  -64.1311   1.9775        2.2907        5.5741    5.635     469.788   36.3609     36.3595     17.142             17.1461             17.1417            17.1458             
InVirTC4     2019-10-13T06:59:49Z    -0.0038      100.0965  4.675258        4.674342        1028.5801  1028.5807  466.034     -0.728                0.0221         0.0095         31.67608  -64.13115  1.9657        2.2779        5.5472    5.6122    469.824   36.3465     36.345      17.1033            17.1074             17.0962            17.1003             
InVirTC4     2019-10-13T06:59:49Z    -0.0034      100.0862  4.672848        4.671854        1028.5849  1028.5848  466.938     -1.318                0.0263         0.0096         31.67606  -64.13116  1.9637        2.2757        5.5355    5.6037    470.736   36.3416     36.3392     17.085             17.0891             17.078             17.0821             
InVirTC4     2019-10-13T06:59:49Z    -0.0036      100.0913  4.678557        4.67848         1028.5888  1028.5884  466.994     1.113                 0.0252         0.0169         31.6761   -64.1311   1.977         2.289         5.5748    5.6321    470.793   36.3583     36.3578     17.1218            17.1259             17.1217            17.1258             
InVirTC4     2019-10-13T06:59:49Z    -0.0034      100.0851  4.675925        4.675743        1028.5938  1028.5934  467.994     1.178                 0.0273         0.0169         31.6761   -64.1311   1.976         2.2883        5.5782    5.633     471.803   36.3527     36.3519     17.102             17.1062             17.1012            17.1053             
InVirTC4     2019-10-13T06:59:49Z    -0.0031      100.0779  4.670421        4.670153        1028.5915  1028.592   467.996     -1.218                0.027          0.0096         31.67608  -64.13116  1.9637        2.2741        5.5386    5.5952    471.805   36.3377     36.3377     17.0652            17.0694             17.0627            17.0668             
InVirTC4     2019-10-13T06:59:49Z    -0.003       100.0761  4.674289        4.674057        1028.5993  1028.5987  468.99      1.04                  0.0262         0.0169         31.6761   -64.1311   1.9737        2.2875        5.5677    5.6361    472.808   36.3499     36.3488     17.0888            17.0929             17.0878            17.0919             
InVirTC4     2019-10-13T06:59:49Z    -0.0029      100.0735  4.668876        4.66852         1028.5983  1028.5988  469.012     -0.957                0.0243         0.0165         31.67608  -64.13115  1.9641        2.2742        5.5471    5.602     472.83    36.3363     36.336      17.0514            17.0555             17.0483            17.0524             
InVirTC4     2019-10-13T06:59:49Z    -0.0029      100.0721  4.67332         4.673063        1028.6041  1028.6036  469.985     0.943                 0.0232         0.0102         31.67611  -64.1311   1.972         2.2867        5.5613    5.6347    473.812   36.348      36.3469     17.0812            17.0853             17.0798            17.0839             
InVirTC4     2019-10-13T06:59:49Z    -0.0035      100.0877  4.667662        4.668037        1028.6049  1028.603   470.043     -0.748                0.0262         0.0122         31.67608  -64.13115  1.9643        2.2751        5.5485    5.6088    473.87    36.3355     36.3344     17.0401            17.0442             17.0449            17.049              
InVirTC4     2019-10-13T06:59:49Z    -0.0032      100.0797  4.672709        4.672451        1028.6088  1028.6083  471.002     0.979                 0.026          0.0157         31.67612  -64.1311   1.9722        2.2856        5.5697    5.6321    474.838   36.3466     36.3456     17.0763            17.0804             17.0749            17.079              
InVirTC4     2019-10-13T06:59:49Z    -0.0036      100.0894  4.667996        4.667951        1028.6113  1028.6094  471.005     -0.615                0.0248         0.0142         31.67608  -64.13115  1.9637        2.2741        5.5563    5.6081    474.841   36.3382     36.3362     17.0399            17.044              17.0416            17.0457             
InVirTC4     2019-10-13T06:59:49Z    -0.0032      100.0795  4.669241        4.668726        1028.6127  1028.611   471.993     -0.559                0.0253         0.0169         31.67608  -64.13115  1.9609        2.2726        5.543     5.6124    475.839   36.3381     36.3353     17.0516            17.0557             17.0498            17.0539             
InVirTC4     2019-10-13T06:59:49Z    -0.003       100.0749  4.672453        4.672197        1028.6133  1028.6128  472.034     0.993                 0.0266         0.0169         31.67611  -64.1311   1.9721        2.284         5.5745    5.6262    475.88    36.3459     36.3449     17.0741            17.0782             17.0728            17.0769             
InVirTC4     2019-10-13T06:59:49Z    -0.0035      100.0866  4.666906        4.666871        1028.6156  1028.6156  472.998     -0.778                0.0263         0.0162         31.67608  -64.13116  1.9573        2.2667        5.5271    5.5862    476.853   36.3312     36.3311     17.0363            17.0403             17.036             17.0401             
InVirTC4     2019-10-13T06:59:49Z    -0.0029      100.0721  4.672087        4.671825        1028.6176  1028.6171  473.026     0.698                 0.0236         0.0167         31.6761   -64.13111  1.9709        2.2831        5.567     5.6268    476.881   36.3449     36.3439     17.0713            17.0754             17.0699            17.074              
InVirTC4     2019-10-13T06:59:49Z    -0.003       100.0738  4.671883        4.671609        1028.6218  1028.6213  473.942     0.514                 0.0204         0.0169         31.6761   -64.13114  1.97          2.2791        5.5634    5.6071    477.806   36.3445     36.3434     17.0694            17.0734             17.0679            17.072              
InVirTC4     2019-10-13T06:59:49Z    -0.0032      100.0794  4.661163        4.6623          1028.6247  1028.6255  473.955     -1.05                 0.0313         0.0105         31.67608  -64.13115  1.9563        2.2648        5.5328    5.5823    477.818   36.3225     36.3259     16.9896            16.9937             16.9969            17.001              
InVirTC4     2019-10-13T06:59:49Z    -0.0038      100.0947  4.659254        4.660028        1028.6349  1028.6334  474.973     -0.948                0.0291         0.0169         31.67609  -64.13114  1.955         2.2641        5.527     5.5867    478.847   36.3235     36.3239     16.9695            16.9736             16.9766            16.9807             
InVirTC4     2019-10-13T06:59:49Z    -0.0029      100.0721  4.671514        4.671246        1028.6269  1028.6262  474.98      0.818                 0.0209         0.0169         31.67612  -64.13114  1.9689        2.28          5.5643    5.6208    478.854   36.3441     36.3428     17.0658            17.0699             17.0646            17.0687             
InVirTC4     2019-10-13T06:59:49Z    -0.003       100.0741  4.659595        4.659707        1028.6388  1028.6386  476.019     -0.749                0.0248         0.0169         31.67609  -64.13114  1.9538        2.2634        5.5269    5.5875    479.903   36.3235     36.3236     16.9724            16.9765             16.9734            16.9774             
InVirTC4     2019-10-13T06:59:49Z    -0.0031      100.0767  4.670623        4.67038         1028.6326  1028.632   476.033     1.125                 0.023          0.013          31.67612  -64.13114  1.9678        2.2785        5.555     5.6192    479.916   36.343      36.3418     17.0579            17.062              17.0569            17.061              
InVirTC4     2019-10-13T06:59:49Z    -0.003       100.0752  4.659608        4.659412        1028.6434  1028.642   477.018     -0.796                0.0221         0.0223         31.67608  -64.13114  1.9522        2.2613        5.5157    5.5808    480.911   36.3236     36.3218     16.9719            16.976              16.972             16.9761             
InVirTC4     2019-10-13T06:59:49Z    -0.003       100.0754  4.66